<?xml version="1.0" encoding="UTF-8" standalone="no" ?>
  <gpx version="1.0" creator="Loctome.com">
  <metadata>
  <link href="https://play.google.com/store/apps/details?id=com.loctome.app.loctome">
      <text>Loctome Live Track GPS</text>
  </link>
  <desc>File created by Loctome Android Client No Limits Edition</desc>
  <time>2016-06-02T11:05:44Z</time>
  </metadata>
  <trk>
    <name>2016-06-02T11:05:44Z</name>
    <trkseg>
      <trkpt lat="38.25403849" lon="-2.65850357"><ele>1797</ele><speed>0.00</speed><time>2016-06-02T11:05:44Z</time><pdop>9.0</pdop><geoidheight>50.00</geoidheight><course>0.0</course><type>1</type></trkpt>
      <trkpt lat="38.25403196" lon="-2.65848359"><ele>1797</ele><speed>0.00</speed><time>2016-06-02T11:06:44Z</time><pdop>3.0</pdop><geoidheight>50.00</geoidheight><course>0.0</course><type>1</type></trkpt>
      <trkpt lat="38.25404352" lon="-2.65848393"><ele>1799</ele><speed>0.00</speed><time>2016-06-02T11:07:44Z</time><pdop>3.0</pdop><geoidheight>50.00</geoidheight><course>0.0</course><type>1</type></trkpt>
      <trkpt lat="38.25402767" lon="-2.65845181"><ele>1800</ele><speed>0.00</speed><time>2016-06-02T11:08:44Z</time><pdop>4.0</pdop><geoidheight>50.00</geoidheight><course>0.0</course><type>1</type></trkpt>
      <trkpt lat="38.25401893" lon="-2.65845949"><ele>1800</ele><speed>0.00</speed><time>2016-06-02T11:09:44Z</time><pdop>3.0</pdop><geoidheight>50.00</geoidheight><course>0.0</course><type>1</type></trkpt>
      <trkpt lat="38.25402181" lon="-2.65845502"><ele>1800</ele><speed>0.00</speed><time>2016-06-02T11:10:44Z</time><pdop>3.0</pdop><geoidheight>50.00</geoidheight><course>0.0</course><type>1</type></trkpt>
      <trkpt lat="38.25401932" lon="-2.65842105"><ele>1799</ele><speed>0.00</speed><time>2016-06-02T11:11:44Z</time><pdop>4.0</pdop><geoidheight>50.00</geoidheight><course>0.0</course><type>1</type></trkpt>
      <trkpt lat="38.25401879" lon="-2.65842222"><ele>1799</ele><speed>0.00</speed><time>2016-06-02T11:12:44Z</time><pdop>3.0</pdop><geoidheight>50.00</geoidheight><course>0.0</course><type>1</type></trkpt>
      <trkpt lat="38.25400275" lon="-2.65841176"><ele>1800</ele><speed>0.00</speed><time>2016-06-02T11:13:44Z</time><pdop>8.0</pdop><geoidheight>50.00</geoidheight><course>0.0</course><type>1</type></trkpt>
      <trkpt lat="38.25401134" lon="-2.65841162"><ele>1802</ele><speed>0.00</speed><time>2016-06-02T11:14:44Z</time><pdop>4.0</pdop><geoidheight>50.00</geoidheight><course>0.0</course><type>1</type></trkpt>
      <trkpt lat="38.2540013" lon="-2.65846775"><ele>1803</ele><speed>0.21</speed><time>2016-06-02T11:15:44Z</time><pdop>3.0</pdop><geoidheight>50.00</geoidheight><course>43.0</course><type>1</type></trkpt>
      <trkpt lat="38.25395509" lon="-2.65853484"><ele>1805</ele><speed>0.71</speed><time>2016-06-02T11:16:09Z</time><pdop>4.0</pdop><geoidheight>50.00</geoidheight><course>205.4</course><type>1</type></trkpt>
      <trkpt lat="38.25387221" lon="-2.65860864"><ele>1801</ele><speed>0.00</speed><time>2016-06-02T11:17:09Z</time><pdop>9.0</pdop><geoidheight>50.00</geoidheight><course>0.0</course><type>1</type></trkpt>
      <trkpt lat="38.25385905" lon="-2.65865671"><ele>1802</ele><speed>0.00</speed><time>2016-06-02T11:18:09Z</time><pdop>9.0</pdop><geoidheight>50.00</geoidheight><course>0.0</course><type>1</type></trkpt>
      <trkpt lat="38.253881" lon="-2.65881741"><ele>1800</ele><speed>3.32</speed><time>2016-06-02T11:18:34Z</time><pdop>5.0</pdop><geoidheight>50.00</geoidheight><course>270.2</course><type>1</type></trkpt>
      <trkpt lat="38.25389763" lon="-2.65898929"><ele>1796</ele><speed>7.63</speed><time>2016-06-02T11:18:36Z</time><pdop>4.0</pdop><geoidheight>50.00</geoidheight><course>271.1</course><type>1</type></trkpt>
      <trkpt lat="38.25389978" lon="-2.65908038"><ele>1798</ele><speed>8.57</speed><time>2016-06-02T11:18:37Z</time><pdop>3.0</pdop><geoidheight>50.00</geoidheight><course>267.3</course><type>1</type></trkpt>
      <trkpt lat="38.25389625" lon="-2.65917772"><ele>1798</ele><speed>8.54</speed><time>2016-06-02T11:18:38Z</time><pdop>4.0</pdop><geoidheight>50.00</geoidheight><course>267.4</course><type>1</type></trkpt>
      <trkpt lat="38.25393197" lon="-2.65936007"><ele>1794</ele><speed>9.16</speed><time>2016-06-02T11:18:40Z</time><pdop>4.0</pdop><geoidheight>50.00</geoidheight><course>286.5</course><type>1</type></trkpt>
      <trkpt lat="38.25396107" lon="-2.65947767"><ele>1793</ele><speed>10.41</speed><time>2016-06-02T11:18:41Z</time><pdop>5.0</pdop><geoidheight>50.00</geoidheight><course>288.7</course><type>1</type></trkpt>
      <trkpt lat="38.25402784" lon="-2.65961967"><ele>1794</ele><speed>13.38</speed><time>2016-06-02T11:18:42Z</time><pdop>5.0</pdop><geoidheight>50.00</geoidheight><course>300.9</course><type>1</type></trkpt>
      <trkpt lat="38.25412035" lon="-2.65972151"><ele>1792</ele><speed>13.99</speed><time>2016-06-02T11:18:43Z</time><pdop>4.0</pdop><geoidheight>50.00</geoidheight><course>316.2</course><type>1</type></trkpt>
      <trkpt lat="38.25421121" lon="-2.65983229"><ele>1792</ele><speed>13.99</speed><time>2016-06-02T11:18:44Z</time><pdop>5.0</pdop><geoidheight>50.00</geoidheight><course>316.1</course><type>1</type></trkpt>
      <trkpt lat="38.25431525" lon="-2.6598737"><ele>1790</ele><speed>11.99</speed><time>2016-06-02T11:18:45Z</time><pdop>4.0</pdop><geoidheight>50.00</geoidheight><course>326.2</course><type>1</type></trkpt>
      <trkpt lat="38.2544171" lon="-2.65993589"><ele>1787</ele><speed>11.95</speed><time>2016-06-02T11:18:46Z</time><pdop>4.0</pdop><geoidheight>50.00</geoidheight><course>325.8</course><type>1</type></trkpt>
      <trkpt lat="38.25450632" lon="-2.66001757"><ele>1787</ele><speed>12.92</speed><time>2016-06-02T11:18:47Z</time><pdop>4.0</pdop><geoidheight>50.00</geoidheight><course>322.8</course><type>1</type></trkpt>
      <trkpt lat="38.25459874" lon="-2.66010699"><ele>1786</ele><speed>12.90</speed><time>2016-06-02T11:18:48Z</time><pdop>5.0</pdop><geoidheight>50.00</geoidheight><course>322.7</course><type>1</type></trkpt>
      <trkpt lat="38.25471789" lon="-2.66020162"><ele>1786</ele><speed>14.61</speed><time>2016-06-02T11:18:49Z</time><pdop>4.0</pdop><geoidheight>50.00</geoidheight><course>320.9</course><type>1</type></trkpt>
      <trkpt lat="38.25481774" lon="-2.66032478"><ele>1785</ele><speed>14.75</speed><time>2016-06-02T11:18:50Z</time><pdop>5.0</pdop><geoidheight>50.00</geoidheight><course>317.7</course><type>1</type></trkpt>
      <trkpt lat="38.25489283" lon="-2.66040386"><ele>1786</ele><speed>12.73</speed><time>2016-06-02T11:18:51Z</time><pdop>5.0</pdop><geoidheight>50.00</geoidheight><course>321.3</course><type>1</type></trkpt>
      <trkpt lat="38.25498231" lon="-2.66049436"><ele>1786</ele><speed>12.71</speed><time>2016-06-02T11:18:52Z</time><pdop>7.0</pdop><geoidheight>50.00</geoidheight><course>321.4</course><type>1</type></trkpt>
      <trkpt lat="38.25516114" lon="-2.66060793"><ele>1785</ele><speed>10.84</speed><time>2016-06-02T11:18:54Z</time><pdop>5.0</pdop><geoidheight>50.00</geoidheight><course>330.7</course><type>1</type></trkpt>
      <trkpt lat="38.25525673" lon="-2.66067992"><ele>1785</ele><speed>11.14</speed><time>2016-06-02T11:18:55Z</time><pdop>5.0</pdop><geoidheight>50.00</geoidheight><course>329.7</course><type>1</type></trkpt>
      <trkpt lat="38.25534792" lon="-2.66074662"><ele>1784</ele><speed>11.73</speed><time>2016-06-02T11:18:56Z</time><pdop>5.0</pdop><geoidheight>50.00</geoidheight><course>330.1</course><type>1</type></trkpt>
      <trkpt lat="38.25544008" lon="-2.66081043"><ele>1783</ele><speed>12.13</speed><time>2016-06-02T11:18:57Z</time><pdop>5.0</pdop><geoidheight>50.00</geoidheight><course>332.0</course><type>1</type></trkpt>
      <trkpt lat="38.2555365" lon="-2.66087555"><ele>1782</ele><speed>12.12</speed><time>2016-06-02T11:18:58Z</time><pdop>7.0</pdop><geoidheight>50.00</geoidheight><course>332.0</course><type>1</type></trkpt>
      <trkpt lat="38.25574584" lon="-2.66101424"><ele>1783</ele><speed>13.67</speed><time>2016-06-02T11:19:00Z</time><pdop>6.0</pdop><geoidheight>50.00</geoidheight><course>332.2</course><type>1</type></trkpt>
      <trkpt lat="38.25585771" lon="-2.66108452"><ele>1783</ele><speed>13.90</speed><time>2016-06-02T11:19:01Z</time><pdop>7.0</pdop><geoidheight>50.00</geoidheight><course>333.4</course><type>1</type></trkpt>
      <trkpt lat="38.25598975" lon="-2.66115279"><ele>1782</ele><speed>14.76</speed><time>2016-06-02T11:19:02Z</time><pdop>7.0</pdop><geoidheight>50.00</geoidheight><course>336.7</course><type>1</type></trkpt>
      <trkpt lat="38.25608671" lon="-2.66124568"><ele>1790</ele><speed>13.47</speed><time>2016-06-02T11:19:03Z</time><pdop>6.0</pdop><geoidheight>50.00</geoidheight><course>334.3</course><type>1</type></trkpt>
      <trkpt lat="38.25619167" lon="-2.66137589"><ele>1794</ele><speed>7.00</speed><time>2016-06-02T11:19:05Z</time><pdop>6.0</pdop><geoidheight>50.00</geoidheight><course>314.3</course><type>1</type></trkpt>
      <trkpt lat="38.25593612" lon="-2.66137187"><ele>1793</ele><speed>8.44</speed><time>2016-06-02T11:19:10Z</time><pdop>9.0</pdop><geoidheight>50.00</geoidheight><course>149.0</course><type>1</type></trkpt>
      <trkpt lat="38.25583709" lon="-2.66119165"><ele>1794</ele><speed>8.77</speed><time>2016-06-02T11:19:12Z</time><pdop>9.0</pdop><geoidheight>50.00</geoidheight><course>124.6</course><type>1</type></trkpt>
      <trkpt lat="38.25575705" lon="-2.66098533"><ele>1794</ele><speed>9.22</speed><time>2016-06-02T11:19:14Z</time><pdop>9.0</pdop><geoidheight>50.00</geoidheight><course>119.6</course><type>1</type></trkpt>
      <trkpt lat="38.25560475" lon="-2.66084912"><ele>1801</ele><speed>5.09</speed><time>2016-06-02T11:19:18Z</time><pdop>7.0</pdop><geoidheight>50.00</geoidheight><course>153.4</course><type>1</type></trkpt>
      <trkpt lat="38.25564109" lon="-2.66104372"><ele>1806</ele><speed>6.19</speed><time>2016-06-02T11:19:23Z</time><pdop>10.0</pdop><geoidheight>50.00</geoidheight><course>309.0</course><type>1</type></trkpt>
      <trkpt lat="38.25585079" lon="-2.66117012"><ele>1809</ele><speed>10.60</speed><time>2016-06-02T11:19:25Z</time><pdop>8.0</pdop><geoidheight>50.00</geoidheight><course>337.8</course><type>1</type></trkpt>
      <trkpt lat="38.25604507" lon="-2.66123794"><ele>1814</ele><speed>10.90</speed><time>2016-06-02T11:19:27Z</time><pdop>9.0</pdop><geoidheight>50.00</geoidheight><course>352.9</course><type>1</type></trkpt>
      <trkpt lat="38.25628246" lon="-2.66114614"><ele>1821</ele><speed>9.55</speed><time>2016-06-02T11:19:30Z</time><pdop>9.0</pdop><geoidheight>50.00</geoidheight><course>24.9</course><type>1</type></trkpt>
      <trkpt lat="38.25639619" lon="-2.6608843"><ele>1822</ele><speed>10.55</speed><time>2016-06-02T11:19:32Z</time><pdop>8.0</pdop><geoidheight>50.00</geoidheight><course>51.6</course><type>1</type></trkpt>
      <trkpt lat="38.25636232" lon="-2.66063948"><ele>1825</ele><speed>9.21</speed><time>2016-06-02T11:19:34Z</time><pdop>11.0</pdop><geoidheight>50.00</geoidheight><course>83.7</course><type>1</type></trkpt>
      <trkpt lat="38.25618833" lon="-2.66079591"><ele>1835</ele><speed>4.22</speed><time>2016-06-02T11:19:39Z</time><pdop>10.0</pdop><geoidheight>50.00</geoidheight><course>257.0</course><type>1</type></trkpt>
      <trkpt lat="38.25622194" lon="-2.66104789"><ele>1841</ele><speed>8.77</speed><time>2016-06-02T11:19:41Z</time><pdop>8.0</pdop><geoidheight>50.00</geoidheight><course>295.5</course><type>1</type></trkpt>
      <trkpt lat="38.25627807" lon="-2.66124259"><ele>1851</ele><speed>7.96</speed><time>2016-06-02T11:19:43Z</time><pdop>8.0</pdop><geoidheight>50.00</geoidheight><course>303.2</course><type>1</type></trkpt>
      <trkpt lat="38.25641256" lon="-2.66134243"><ele>1852</ele><speed>9.36</speed><time>2016-06-02T11:19:45Z</time><pdop>7.0</pdop><geoidheight>50.00</geoidheight><course>327.2</course><type>1</type></trkpt>
      <trkpt lat="38.25662046" lon="-2.66143136"><ele>1856</ele><speed>14.50</speed><time>2016-06-02T11:19:47Z</time><pdop>6.0</pdop><geoidheight>50.00</geoidheight><course>350.3</course><type>1</type></trkpt>
      <trkpt lat="38.25672863" lon="-2.66147767"><ele>1860</ele><speed>14.38</speed><time>2016-06-02T11:19:48Z</time><pdop>6.0</pdop><geoidheight>50.00</geoidheight><course>353.1</course><type>1</type></trkpt>
      <trkpt lat="38.25685674" lon="-2.66146751"><ele>1863</ele><speed>14.78</speed><time>2016-06-02T11:19:49Z</time><pdop>8.0</pdop><geoidheight>50.00</geoidheight><course>1.4</course><type>1</type></trkpt>
      <trkpt lat="38.25706485" lon="-2.66143264"><ele>1865</ele><speed>13.18</speed><time>2016-06-02T11:19:51Z</time><pdop>12.0</pdop><geoidheight>50.00</geoidheight><course>9.7</course><type>1</type></trkpt>
      <trkpt lat="38.25719555" lon="-2.66118281"><ele>1866</ele><speed>12.69</speed><time>2016-06-02T11:19:53Z</time><pdop>11.0</pdop><geoidheight>50.00</geoidheight><course>37.9</course><type>1</type></trkpt>
      <trkpt lat="38.25720546" lon="-2.66092723"><ele>1870</ele><speed>13.74</speed><time>2016-06-02T11:19:54Z</time><pdop>7.0</pdop><geoidheight>50.00</geoidheight><course>69.2</course><type>1</type></trkpt>
      <trkpt lat="38.25722056" lon="-2.66076659"><ele>1874</ele><speed>12.76</speed><time>2016-06-02T11:19:55Z</time><pdop>6.0</pdop><geoidheight>50.00</geoidheight><course>79.6</course><type>1</type></trkpt>
      <trkpt lat="38.25720067" lon="-2.66061254"><ele>1879</ele><speed>10.75</speed><time>2016-06-02T11:19:56Z</time><pdop>6.0</pdop><geoidheight>50.00</geoidheight><course>95.7</course><type>1</type></trkpt>
      <trkpt lat="38.2571492" lon="-2.66038002"><ele>1892</ele><speed>10.27</speed><time>2016-06-02T11:19:58Z</time><pdop>4.0</pdop><geoidheight>50.00</geoidheight><course>109.0</course><type>1</type></trkpt>
      <trkpt lat="38.25711662" lon="-2.66027003"><ele>1899</ele><speed>10.06</speed><time>2016-06-02T11:19:59Z</time><pdop>4.0</pdop><geoidheight>50.00</geoidheight><course>112.5</course><type>1</type></trkpt>
      <trkpt lat="38.2570705" lon="-2.66016073"><ele>1906</ele><speed>9.62</speed><time>2016-06-02T11:20:00Z</time><pdop>4.0</pdop><geoidheight>50.00</geoidheight><course>120.0</course><type>1</type></trkpt>
      <trkpt lat="38.25702466" lon="-2.66006937"><ele>1912</ele><speed>9.84</speed><time>2016-06-02T11:20:01Z</time><pdop>5.0</pdop><geoidheight>50.00</geoidheight><course>121.4</course><type>1</type></trkpt>
      <trkpt lat="38.25692024" lon="-2.65989972"><ele>1920</ele><speed>9.25</speed><time>2016-06-02T11:20:03Z</time><pdop>7.0</pdop><geoidheight>50.00</geoidheight><course>131.7</course><type>1</type></trkpt>
      <trkpt lat="38.25683749" lon="-2.66002344"><ele>1926</ele><speed>5.30</speed><time>2016-06-02T11:20:05Z</time><pdop>5.0</pdop><geoidheight>50.00</geoidheight><course>227.2</course><type>1</type></trkpt>
      <trkpt lat="38.2568392" lon="-2.66017781"><ele>1931</ele><speed>6.83</speed><time>2016-06-02T11:20:07Z</time><pdop>4.0</pdop><geoidheight>50.00</geoidheight><course>284.0</course><type>1</type></trkpt>
      <trkpt lat="38.25691423" lon="-2.66032619"><ele>1933</ele><speed>8.40</speed><time>2016-06-02T11:20:09Z</time><pdop>5.0</pdop><geoidheight>50.00</geoidheight><course>303.6</course><type>1</type></trkpt>
      <trkpt lat="38.25704918" lon="-2.660464"><ele>1937</ele><speed>9.27</speed><time>2016-06-02T11:20:11Z</time><pdop>7.0</pdop><geoidheight>50.00</geoidheight><course>321.9</course><type>1</type></trkpt>
      <trkpt lat="38.25723818" lon="-2.66055137"><ele>1940</ele><speed>10.54</speed><time>2016-06-02T11:20:13Z</time><pdop>9.0</pdop><geoidheight>50.00</geoidheight><course>346.5</course><type>1</type></trkpt>
      <trkpt lat="38.25749447" lon="-2.66046334"><ele>1944</ele><speed>10.82</speed><time>2016-06-02T11:20:16Z</time><pdop>14.0</pdop><geoidheight>50.00</geoidheight><course>11.7</course><type>1</type></trkpt>
      <trkpt lat="38.25765746" lon="-2.66009927"><ele>1949</ele><speed>12.62</speed><time>2016-06-02T11:20:18Z</time><pdop>9.0</pdop><geoidheight>50.00</geoidheight><course>46.2</course><type>1</type></trkpt>
      <trkpt lat="38.25762549" lon="-2.65987674"><ele>1954</ele><speed>11.68</speed><time>2016-06-02T11:20:19Z</time><pdop>8.0</pdop><geoidheight>50.00</geoidheight><course>68.7</course><type>1</type></trkpt>
      <trkpt lat="38.25758522" lon="-2.65958976"><ele>1958</ele><speed>10.39</speed><time>2016-06-02T11:20:21Z</time><pdop>9.0</pdop><geoidheight>50.00</geoidheight><course>84.2</course><type>1</type></trkpt>
      <trkpt lat="38.25746271" lon="-2.65941985"><ele>1962</ele><speed>8.40</speed><time>2016-06-02T11:20:23Z</time><pdop>9.0</pdop><geoidheight>50.00</geoidheight><course>111.6</course><type>1</type></trkpt>
      <trkpt lat="38.25751237" lon="-2.65963672"><ele>1969</ele><speed>3.55</speed><time>2016-06-02T11:20:27Z</time><pdop>10.0</pdop><geoidheight>50.00</geoidheight><course>310.9</course><type>1</type></trkpt>
      <trkpt lat="38.25766149" lon="-2.65993672"><ele>1982</ele><speed>9.40</speed><time>2016-06-02T11:20:29Z</time><pdop>9.0</pdop><geoidheight>50.00</geoidheight><course>324.0</course><type>1</type></trkpt>
      <trkpt lat="38.25785696" lon="-2.65993671"><ele>1989</ele><speed>9.27</speed><time>2016-06-02T11:20:31Z</time><pdop>8.0</pdop><geoidheight>50.00</geoidheight><course>355.4</course><type>1</type></trkpt>
      <trkpt lat="38.25800166" lon="-2.65972788"><ele>1995</ele><speed>13.33</speed><time>2016-06-02T11:20:32Z</time><pdop>7.0</pdop><geoidheight>50.00</geoidheight><course>31.1</course><type>1</type></trkpt>
      <trkpt lat="38.25802516" lon="-2.65941904"><ele>2002</ele><speed>10.91</speed><time>2016-06-02T11:20:34Z</time><pdop>7.0</pdop><geoidheight>50.00</geoidheight><course>63.0</course><type>1</type></trkpt>
      <trkpt lat="38.25799338" lon="-2.65910583"><ele>2009</ele><speed>11.34</speed><time>2016-06-02T11:20:36Z</time><pdop>9.0</pdop><geoidheight>50.00</geoidheight><course>84.2</course><type>1</type></trkpt>
      <trkpt lat="38.25782255" lon="-2.65896473"><ele>2014</ele><speed>8.00</speed><time>2016-06-02T11:20:38Z</time><pdop>10.0</pdop><geoidheight>50.00</geoidheight><course>122.3</course><type>1</type></trkpt>
      <trkpt lat="38.25780761" lon="-2.65919637"><ele>2027</ele><speed>6.11</speed><time>2016-06-02T11:20:43Z</time><pdop>8.0</pdop><geoidheight>50.00</geoidheight><course>309.3</course><type>1</type></trkpt>
      <trkpt lat="38.25797469" lon="-2.65928411"><ele>2032</ele><speed>8.45</speed><time>2016-06-02T11:20:45Z</time><pdop>10.0</pdop><geoidheight>50.00</geoidheight><course>341.8</course><type>1</type></trkpt>
      <trkpt lat="38.25823309" lon="-2.65935096"><ele>2035</ele><speed>13.31</speed><time>2016-06-02T11:20:47Z</time><pdop>11.0</pdop><geoidheight>50.00</geoidheight><course>355.5</course><type>1</type></trkpt>
      <trkpt lat="38.25845854" lon="-2.65921014"><ele>2047</ele><speed>9.90</speed><time>2016-06-02T11:20:50Z</time><pdop>10.0</pdop><geoidheight>50.00</geoidheight><course>23.9</course><type>1</type></trkpt>
      <trkpt lat="38.25838643" lon="-2.65879427"><ele>2054</ele><speed>12.94</speed><time>2016-06-02T11:20:52Z</time><pdop>7.0</pdop><geoidheight>50.00</geoidheight><course>97.6</course><type>1</type></trkpt>
      <trkpt lat="38.25832488" lon="-2.65857852"><ele>2066</ele><speed>15.32</speed><time>2016-06-02T11:20:53Z</time><pdop>6.0</pdop><geoidheight>50.00</geoidheight><course>107.1</course><type>1</type></trkpt>
      <trkpt lat="38.25827714" lon="-2.65844571"><ele>2078</ele><speed>13.41</speed><time>2016-06-02T11:20:54Z</time><pdop>5.0</pdop><geoidheight>50.00</geoidheight><course>114.8</course><type>1</type></trkpt>
      <trkpt lat="38.25822832" lon="-2.65835109"><ele>2087</ele><speed>10.97</speed><time>2016-06-02T11:20:55Z</time><pdop>4.0</pdop><geoidheight>50.00</geoidheight><course>122.2</course><type>1</type></trkpt>
      <trkpt lat="38.25817449" lon="-2.65828974"><ele>2092</ele><speed>9.91</speed><time>2016-06-02T11:20:56Z</time><pdop>4.0</pdop><geoidheight>50.00</geoidheight><course>134.3</course><type>1</type></trkpt>
      <trkpt lat="38.25806091" lon="-2.65825242"><ele>2101</ele><speed>7.53</speed><time>2016-06-02T11:20:58Z</time><pdop>4.0</pdop><geoidheight>50.00</geoidheight><course>174.9</course><type>1</type></trkpt>
      <trkpt lat="38.25797135" lon="-2.6583248"><ele>2106</ele><speed>5.70</speed><time>2016-06-02T11:21:00Z</time><pdop>4.0</pdop><geoidheight>50.00</geoidheight><course>221.2</course><type>1</type></trkpt>
      <trkpt lat="38.25800983" lon="-2.65850121"><ele>2112</ele><speed>9.02</speed><time>2016-06-02T11:21:02Z</time><pdop>3.0</pdop><geoidheight>50.00</geoidheight><course>282.0</course><type>1</type></trkpt>
      <trkpt lat="38.25804149" lon="-2.658598"><ele>2116</ele><speed>9.44</speed><time>2016-06-02T11:21:03Z</time><pdop>3.0</pdop><geoidheight>50.00</geoidheight><course>293.4</course><type>1</type></trkpt>
      <trkpt lat="38.2581032" lon="-2.65868436"><ele>2118</ele><speed>10.01</speed><time>2016-06-02T11:21:04Z</time><pdop>3.0</pdop><geoidheight>50.00</geoidheight><course>306.3</course><type>1</type></trkpt>
      <trkpt lat="38.2581788" lon="-2.65875706"><ele>2120</ele><speed>10.89</speed><time>2016-06-02T11:21:05Z</time><pdop>3.0</pdop><geoidheight>50.00</geoidheight><course>321.9</course><type>1</type></trkpt>
      <trkpt lat="38.25826434" lon="-2.65883325"><ele>2122</ele><speed>11.31</speed><time>2016-06-02T11:21:06Z</time><pdop>3.0</pdop><geoidheight>50.00</geoidheight><course>326.2</course><type>1</type></trkpt>
      <trkpt lat="38.258385" lon="-2.65888138"><ele>2123</ele><speed>12.65</speed><time>2016-06-02T11:21:07Z</time><pdop>4.0</pdop><geoidheight>50.00</geoidheight><course>337.6</course><type>1</type></trkpt>
      <trkpt lat="38.2584985" lon="-2.65890555"><ele>2125</ele><speed>13.51</speed><time>2016-06-02T11:21:08Z</time><pdop>5.0</pdop><geoidheight>50.00</geoidheight><course>346.2</course><type>1</type></trkpt>
      <trkpt lat="38.25862501" lon="-2.65885968"><ele>2133</ele><speed>14.35</speed><time>2016-06-02T11:21:09Z</time><pdop>3.0</pdop><geoidheight>50.00</geoidheight><course>7.6</course><type>1</type></trkpt>
      <trkpt lat="38.25873632" lon="-2.65881794"><ele>2136</ele><speed>13.15</speed><time>2016-06-02T11:21:10Z</time><pdop>3.0</pdop><geoidheight>50.00</geoidheight><course>17.3</course><type>1</type></trkpt>
      <trkpt lat="38.25883805" lon="-2.65875699"><ele>2138</ele><speed>12.46</speed><time>2016-06-02T11:21:11Z</time><pdop>3.0</pdop><geoidheight>50.00</geoidheight><course>25.8</course><type>1</type></trkpt>
      <trkpt lat="38.25893159" lon="-2.65867872"><ele>2141</ele><speed>12.12</speed><time>2016-06-02T11:21:12Z</time><pdop>3.0</pdop><geoidheight>50.00</geoidheight><course>32.1</course><type>1</type></trkpt>
      <trkpt lat="38.25901992" lon="-2.65858308"><ele>2141</ele><speed>12.78</speed><time>2016-06-02T11:21:13Z</time><pdop>3.0</pdop><geoidheight>50.00</geoidheight><course>41.7</course><type>1</type></trkpt>
      <trkpt lat="38.25909189" lon="-2.65844181"><ele>2142</ele><speed>14.32</speed><time>2016-06-02T11:21:14Z</time><pdop>3.0</pdop><geoidheight>50.00</geoidheight><course>54.3</course><type>1</type></trkpt>
      <trkpt lat="38.25915605" lon="-2.65827053"><ele>2143</ele><speed>15.76</speed><time>2016-06-02T11:21:15Z</time><pdop>3.0</pdop><geoidheight>50.00</geoidheight><course>64.5</course><type>1</type></trkpt>
      <trkpt lat="38.25920513" lon="-2.65808881"><ele>2146</ele><speed>16.55</speed><time>2016-06-02T11:21:16Z</time><pdop>3.0</pdop><geoidheight>50.00</geoidheight><course>71.2</course><type>1</type></trkpt>
      <trkpt lat="38.25923286" lon="-2.6579068"><ele>2148</ele><speed>16.55</speed><time>2016-06-02T11:21:17Z</time><pdop>3.0</pdop><geoidheight>50.00</geoidheight><course>76.6</course><type>1</type></trkpt>
      <trkpt lat="38.25924765" lon="-2.65772901"><ele>2153</ele><speed>16.05</speed><time>2016-06-02T11:21:18Z</time><pdop>3.0</pdop><geoidheight>50.00</geoidheight><course>84.6</course><type>1</type></trkpt>
      <trkpt lat="38.25923728" lon="-2.65756766"><ele>2157</ele><speed>15.07</speed><time>2016-06-02T11:21:19Z</time><pdop>3.0</pdop><geoidheight>50.00</geoidheight><course>93.2</course><type>1</type></trkpt>
      <trkpt lat="38.2592255" lon="-2.65742343"><ele>2163</ele><speed>13.59</speed><time>2016-06-02T11:21:20Z</time><pdop>3.0</pdop><geoidheight>50.00</geoidheight><course>97.0</course><type>1</type></trkpt>
      <trkpt lat="38.25920306" lon="-2.65730379"><ele>2167</ele><speed>11.99</speed><time>2016-06-02T11:21:21Z</time><pdop>3.0</pdop><geoidheight>50.00</geoidheight><course>98.0</course><type>1</type></trkpt>
      <trkpt lat="38.25919471" lon="-2.65722763"><ele>2171</ele><speed>9.93</speed><time>2016-06-02T11:21:22Z</time><pdop>3.0</pdop><geoidheight>50.00</geoidheight><course>102.2</course><type>1</type></trkpt>
      <trkpt lat="38.25917724" lon="-2.65712511"><ele>2175</ele><speed>9.95</speed><time>2016-06-02T11:21:23Z</time><pdop>3.0</pdop><geoidheight>50.00</geoidheight><course>102.2</course><type>1</type></trkpt>
      <trkpt lat="38.25913949" lon="-2.65703178"><ele>2178</ele><speed>10.01</speed><time>2016-06-02T11:21:24Z</time><pdop>3.0</pdop><geoidheight>50.00</geoidheight><course>111.3</course><type>1</type></trkpt>
      <trkpt lat="38.25909367" lon="-2.65693141"><ele>2178</ele><speed>10.06</speed><time>2016-06-02T11:21:25Z</time><pdop>4.0</pdop><geoidheight>50.00</geoidheight><course>119.9</course><type>1</type></trkpt>
      <trkpt lat="38.25904492" lon="-2.65682941"><ele>2180</ele><speed>10.05</speed><time>2016-06-02T11:21:26Z</time><pdop>6.0</pdop><geoidheight>50.00</geoidheight><course>119.7</course><type>1</type></trkpt>
      <trkpt lat="38.25896083" lon="-2.65672537"><ele>2184</ele><speed>6.60</speed><time>2016-06-02T11:21:28Z</time><pdop>7.0</pdop><geoidheight>50.00</geoidheight><course>127.0</course><type>1</type></trkpt>
      <trkpt lat="38.25916107" lon="-2.65696194"><ele>2196</ele><speed>7.81</speed><time>2016-06-02T11:21:34Z</time><pdop>12.0</pdop><geoidheight>50.00</geoidheight><course>26.1</course><type>1</type></trkpt>
      <trkpt lat="38.25940824" lon="-2.65671885"><ele>2210</ele><speed>13.46</speed><time>2016-06-02T11:21:36Z</time><pdop>6.0</pdop><geoidheight>50.00</geoidheight><course>73.7</course><type>1</type></trkpt>
      <trkpt lat="38.25941518" lon="-2.65656017"><ele>2213</ele><speed>13.76</speed><time>2016-06-02T11:21:37Z</time><pdop>6.0</pdop><geoidheight>50.00</geoidheight><course>88.4</course><type>1</type></trkpt>
      <trkpt lat="38.25940723" lon="-2.65642008"><ele>2219</ele><speed>13.75</speed><time>2016-06-02T11:21:38Z</time><pdop>6.0</pdop><geoidheight>50.00</geoidheight><course>109.9</course><type>1</type></trkpt>
      <trkpt lat="38.2593657" lon="-2.65627489"><ele>2221</ele><speed>13.62</speed><time>2016-06-02T11:21:39Z</time><pdop>6.0</pdop><geoidheight>50.00</geoidheight><course>109.9</course><type>1</type></trkpt>
      <trkpt lat="38.25932653" lon="-2.65603329"><ele>2226</ele><speed>10.85</speed><time>2016-06-02T11:21:41Z</time><pdop>7.0</pdop><geoidheight>50.00</geoidheight><course>112.7</course><type>1</type></trkpt>
      <trkpt lat="38.25927468" lon="-2.65626768"><ele>2245</ele><speed>8.32</speed><time>2016-06-02T11:21:47Z</time><pdop>11.0</pdop><geoidheight>50.00</geoidheight><course>276.8</course><type>1</type></trkpt>
      <trkpt lat="38.2593585" lon="-2.65654521"><ele>2262</ele><speed>8.86</speed><time>2016-06-02T11:21:50Z</time><pdop>8.0</pdop><geoidheight>50.00</geoidheight><course>311.3</course><type>1</type></trkpt>
      <trkpt lat="38.25947246" lon="-2.65669247"><ele>2270</ele><speed>9.38</speed><time>2016-06-02T11:21:52Z</time><pdop>7.0</pdop><geoidheight>50.00</geoidheight><course>320.9</course><type>1</type></trkpt>
      <trkpt lat="38.25960395" lon="-2.65683996"><ele>2275</ele><speed>10.08</speed><time>2016-06-02T11:21:54Z</time><pdop>6.0</pdop><geoidheight>50.00</geoidheight><course>328.3</course><type>1</type></trkpt>
      <trkpt lat="38.25976426" lon="-2.65695144"><ele>2279</ele><speed>9.92</speed><time>2016-06-02T11:21:56Z</time><pdop>5.0</pdop><geoidheight>50.00</geoidheight><course>335.0</course><type>1</type></trkpt>
      <trkpt lat="38.25983684" lon="-2.65702384"><ele>2283</ele><speed>10.10</speed><time>2016-06-02T11:21:57Z</time><pdop>5.0</pdop><geoidheight>50.00</geoidheight><course>330.6</course><type>1</type></trkpt>
      <trkpt lat="38.25991435" lon="-2.65709591"><ele>2285</ele><speed>10.91</speed><time>2016-06-02T11:21:58Z</time><pdop>4.0</pdop><geoidheight>50.00</geoidheight><course>327.5</course><type>1</type></trkpt>
      <trkpt lat="38.26000738" lon="-2.6571645"><ele>2285</ele><speed>11.84</speed><time>2016-06-02T11:21:59Z</time><pdop>4.0</pdop><geoidheight>50.00</geoidheight><course>327.2</course><type>1</type></trkpt>
      <trkpt lat="38.26009635" lon="-2.65724865"><ele>2287</ele><speed>12.09</speed><time>2016-06-02T11:22:00Z</time><pdop>5.0</pdop><geoidheight>50.00</geoidheight><course>327.1</course><type>1</type></trkpt>
      <trkpt lat="38.26017144" lon="-2.65731724"><ele>2295</ele><speed>10.91</speed><time>2016-06-02T11:22:01Z</time><pdop>4.0</pdop><geoidheight>50.00</geoidheight><course>331.2</course><type>1</type></trkpt>
      <trkpt lat="38.26023523" lon="-2.65735968"><ele>2299</ele><speed>8.69</speed><time>2016-06-02T11:22:02Z</time><pdop>4.0</pdop><geoidheight>50.00</geoidheight><course>335.1</course><type>1</type></trkpt>
      <trkpt lat="38.26032227" lon="-2.65744023"><ele>2305</ele><speed>6.47</speed><time>2016-06-02T11:22:04Z</time><pdop>5.0</pdop><geoidheight>50.00</geoidheight><course>329.5</course><type>1</type></trkpt>
      <trkpt lat="38.26041807" lon="-2.65753177"><ele>2308</ele><speed>6.51</speed><time>2016-06-02T11:22:06Z</time><pdop>5.0</pdop><geoidheight>50.00</geoidheight><course>325.9</course><type>1</type></trkpt>
      <trkpt lat="38.2605043" lon="-2.65761228"><ele>2312</ele><speed>5.74</speed><time>2016-06-02T11:22:08Z</time><pdop>5.0</pdop><geoidheight>50.00</geoidheight><course>330.0</course><type>1</type></trkpt>
      <trkpt lat="38.26061165" lon="-2.65768117"><ele>2315</ele><speed>4.48</speed><time>2016-06-02T11:22:11Z</time><pdop>5.0</pdop><geoidheight>50.00</geoidheight><course>334.8</course><type>1</type></trkpt>
      <trkpt lat="38.26069014" lon="-2.6577639"><ele>2313</ele><speed>7.23</speed><time>2016-06-02T11:22:13Z</time><pdop>5.0</pdop><geoidheight>50.00</geoidheight><course>326.9</course><type>1</type></trkpt>
      <trkpt lat="38.26081553" lon="-2.65790237"><ele>2313</ele><speed>9.24</speed><time>2016-06-02T11:22:15Z</time><pdop>5.0</pdop><geoidheight>50.00</geoidheight><course>321.6</course><type>1</type></trkpt>
      <trkpt lat="38.26093371" lon="-2.65801432"><ele>2314</ele><speed>8.07</speed><time>2016-06-02T11:22:17Z</time><pdop>5.0</pdop><geoidheight>50.00</geoidheight><course>323.2</course><type>1</type></trkpt>
      <trkpt lat="38.26104001" lon="-2.6580962"><ele>2316</ele><speed>7.25</speed><time>2016-06-02T11:22:19Z</time><pdop>5.0</pdop><geoidheight>50.00</geoidheight><course>330.2</course><type>1</type></trkpt>
      <trkpt lat="38.26115905" lon="-2.65820423"><ele>2317</ele><speed>8.93</speed><time>2016-06-02T11:22:21Z</time><pdop>4.0</pdop><geoidheight>50.00</geoidheight><course>329.7</course><type>1</type></trkpt>
      <trkpt lat="38.26123504" lon="-2.65825676"><ele>2316</ele><speed>9.31</speed><time>2016-06-02T11:22:22Z</time><pdop>5.0</pdop><geoidheight>50.00</geoidheight><course>330.5</course><type>1</type></trkpt>
      <trkpt lat="38.261377" lon="-2.65836367"><ele>2316</ele><speed>9.30</speed><time>2016-06-02T11:22:24Z</time><pdop>6.0</pdop><geoidheight>50.00</geoidheight><course>329.7</course><type>1</type></trkpt>
      <trkpt lat="38.26151392" lon="-2.65846796"><ele>2317</ele><speed>8.61</speed><time>2016-06-02T11:22:26Z</time><pdop>6.0</pdop><geoidheight>50.00</geoidheight><course>329.4</course><type>1</type></trkpt>
      <trkpt lat="38.26166168" lon="-2.65856037"><ele>2317</ele><speed>9.16</speed><time>2016-06-02T11:22:28Z</time><pdop>6.0</pdop><geoidheight>50.00</geoidheight><course>333.4</course><type>1</type></trkpt>
      <trkpt lat="38.26180924" lon="-2.65867799"><ele>2318</ele><speed>9.67</speed><time>2016-06-02T11:22:30Z</time><pdop>7.0</pdop><geoidheight>50.00</geoidheight><course>330.2</course><type>1</type></trkpt>
      <trkpt lat="38.26188359" lon="-2.658784"><ele>2319</ele><speed>10.31</speed><time>2016-06-02T11:22:31Z</time><pdop>5.0</pdop><geoidheight>50.00</geoidheight><course>325.0</course><type>1</type></trkpt>
      <trkpt lat="38.26196487" lon="-2.65884478"><ele>2318</ele><speed>10.34</speed><time>2016-06-02T11:22:32Z</time><pdop>5.0</pdop><geoidheight>50.00</geoidheight><course>325.2</course><type>1</type></trkpt>
      <trkpt lat="38.26210724" lon="-2.6589469"><ele>2321</ele><speed>9.38</speed><time>2016-06-02T11:22:34Z</time><pdop>4.0</pdop><geoidheight>50.00</geoidheight><course>333.3</course><type>1</type></trkpt>
      <trkpt lat="38.26218805" lon="-2.65896262"><ele>2321</ele><speed>9.06</speed><time>2016-06-02T11:22:35Z</time><pdop>4.0</pdop><geoidheight>50.00</geoidheight><course>338.8</course><type>1</type></trkpt>
      <trkpt lat="38.26226364" lon="-2.65899929"><ele>2322</ele><speed>8.95</speed><time>2016-06-02T11:22:36Z</time><pdop>4.0</pdop><geoidheight>50.00</geoidheight><course>340.3</course><type>1</type></trkpt>
      <trkpt lat="38.26233415" lon="-2.65902606"><ele>2304</ele><speed>9.16</speed><time>2016-06-02T11:22:37Z</time><pdop>4.0</pdop><geoidheight>50.00</geoidheight><course>339.9</course><type>1</type></trkpt>
      <trkpt lat="38.26241534" lon="-2.65905993"><ele>2308</ele><speed>9.56</speed><time>2016-06-02T11:22:38Z</time><pdop>4.0</pdop><geoidheight>50.00</geoidheight><course>340.8</course><type>1</type></trkpt>
      <trkpt lat="38.26250206" lon="-2.65908629"><ele>2312</ele><speed>9.78</speed><time>2016-06-02T11:22:39Z</time><pdop>4.0</pdop><geoidheight>50.00</geoidheight><course>346.9</course><type>1</type></trkpt>
      <trkpt lat="38.26258642" lon="-2.65910514"><ele>2318</ele><speed>10.15</speed><time>2016-06-02T11:22:40Z</time><pdop>4.0</pdop><geoidheight>50.00</geoidheight><course>355.7</course><type>1</type></trkpt>
      <trkpt lat="38.26267868" lon="-2.65911282"><ele>2321</ele><speed>10.30</speed><time>2016-06-02T11:22:41Z</time><pdop>3.0</pdop><geoidheight>50.00</geoidheight><course>359.2</course><type>1</type></trkpt>
      <trkpt lat="38.26276928" lon="-2.65910776"><ele>2324</ele><speed>9.85</speed><time>2016-06-02T11:22:42Z</time><pdop>3.0</pdop><geoidheight>50.00</geoidheight><course>358.9</course><type>1</type></trkpt>
      <trkpt lat="38.26285785" lon="-2.65911041"><ele>2326</ele><speed>10.15</speed><time>2016-06-02T11:22:43Z</time><pdop>3.0</pdop><geoidheight>50.00</geoidheight><course>357.9</course><type>1</type></trkpt>
      <trkpt lat="38.26296" lon="-2.65911231"><ele>2326</ele><speed>11.02</speed><time>2016-06-02T11:22:44Z</time><pdop>3.0</pdop><geoidheight>50.00</geoidheight><course>0.2</course><type>1</type></trkpt>
      <trkpt lat="38.26305825" lon="-2.65911669"><ele>2326</ele><speed>11.24</speed><time>2016-06-02T11:22:45Z</time><pdop>3.0</pdop><geoidheight>50.00</geoidheight><course>1.1</course><type>1</type></trkpt>
      <trkpt lat="38.26315843" lon="-2.65911913"><ele>2326</ele><speed>11.10</speed><time>2016-06-02T11:22:46Z</time><pdop>3.0</pdop><geoidheight>50.00</geoidheight><course>358.9</course><type>1</type></trkpt>
      <trkpt lat="38.2632576" lon="-2.65912518"><ele>2325</ele><speed>10.98</speed><time>2016-06-02T11:22:47Z</time><pdop>3.0</pdop><geoidheight>50.00</geoidheight><course>355.0</course><type>1</type></trkpt>
      <trkpt lat="38.26335713" lon="-2.65913743"><ele>2326</ele><speed>10.93</speed><time>2016-06-02T11:22:48Z</time><pdop>3.0</pdop><geoidheight>50.00</geoidheight><course>353.3</course><type>1</type></trkpt>
      <trkpt lat="38.26344855" lon="-2.659148"><ele>2326</ele><speed>10.23</speed><time>2016-06-02T11:22:49Z</time><pdop>3.0</pdop><geoidheight>50.00</geoidheight><course>354.0</course><type>1</type></trkpt>
      <trkpt lat="38.26353547" lon="-2.65915832"><ele>2324</ele><speed>9.56</speed><time>2016-06-02T11:22:50Z</time><pdop>3.0</pdop><geoidheight>50.00</geoidheight><course>352.0</course><type>1</type></trkpt>
      <trkpt lat="38.26361578" lon="-2.65918073"><ele>2321</ele><speed>9.10</speed><time>2016-06-02T11:22:51Z</time><pdop>3.0</pdop><geoidheight>50.00</geoidheight><course>350.0</course><type>1</type></trkpt>
      <trkpt lat="38.26369724" lon="-2.65921747"><ele>2319</ele><speed>9.09</speed><time>2016-06-02T11:22:52Z</time><pdop>3.0</pdop><geoidheight>50.00</geoidheight><course>343.7</course><type>1</type></trkpt>
      <trkpt lat="38.26377407" lon="-2.65926926"><ele>2317</ele><speed>9.79</speed><time>2016-06-02T11:22:53Z</time><pdop>3.0</pdop><geoidheight>50.00</geoidheight><course>334.6</course><type>1</type></trkpt>
      <trkpt lat="38.26385334" lon="-2.65932049"><ele>2316</ele><speed>10.24</speed><time>2016-06-02T11:22:54Z</time><pdop>3.0</pdop><geoidheight>50.00</geoidheight><course>331.8</course><type>1</type></trkpt>
      <trkpt lat="38.26393771" lon="-2.65938428"><ele>2315</ele><speed>10.25</speed><time>2016-06-02T11:22:55Z</time><pdop>3.0</pdop><geoidheight>50.00</geoidheight><course>330.8</course><type>1</type></trkpt>
      <trkpt lat="38.26401638" lon="-2.65943773"><ele>2315</ele><speed>9.82</speed><time>2016-06-02T11:22:56Z</time><pdop>3.0</pdop><geoidheight>50.00</geoidheight><course>331.1</course><type>1</type></trkpt>
      <trkpt lat="38.26409665" lon="-2.65949372"><ele>2314</ele><speed>9.99</speed><time>2016-06-02T11:22:57Z</time><pdop>4.0</pdop><geoidheight>50.00</geoidheight><course>330.8</course><type>1</type></trkpt>
      <trkpt lat="38.2641836" lon="-2.65953539"><ele>2315</ele><speed>10.14</speed><time>2016-06-02T11:22:58Z</time><pdop>4.0</pdop><geoidheight>50.00</geoidheight><course>335.2</course><type>1</type></trkpt>
      <trkpt lat="38.2642676" lon="-2.65957474"><ele>2315</ele><speed>10.23</speed><time>2016-06-02T11:22:59Z</time><pdop>4.0</pdop><geoidheight>50.00</geoidheight><course>336.2</course><type>1</type></trkpt>
      <trkpt lat="38.26434043" lon="-2.6596434"><ele>2316</ele><speed>9.84</speed><time>2016-06-02T11:23:00Z</time><pdop>4.0</pdop><geoidheight>50.00</geoidheight><course>329.8</course><type>1</type></trkpt>
      <trkpt lat="38.26440941" lon="-2.65971408"><ele>2317</ele><speed>9.24</speed><time>2016-06-02T11:23:01Z</time><pdop>4.0</pdop><geoidheight>50.00</geoidheight><course>327.0</course><type>1</type></trkpt>
      <trkpt lat="38.26447563" lon="-2.65975156"><ele>2318</ele><speed>8.83</speed><time>2016-06-02T11:23:02Z</time><pdop>3.0</pdop><geoidheight>50.00</geoidheight><course>330.8</course><type>1</type></trkpt>
      <trkpt lat="38.26454568" lon="-2.65980187"><ele>2321</ele><speed>8.97</speed><time>2016-06-02T11:23:03Z</time><pdop>3.0</pdop><geoidheight>50.00</geoidheight><course>334.6</course><type>1</type></trkpt>
      <trkpt lat="38.26461497" lon="-2.65982044"><ele>2325</ele><speed>8.52</speed><time>2016-06-02T11:23:04Z</time><pdop>3.0</pdop><geoidheight>50.00</geoidheight><course>343.6</course><type>1</type></trkpt>
      <trkpt lat="38.26467745" lon="-2.65984356"><ele>2327</ele><speed>7.66</speed><time>2016-06-02T11:23:05Z</time><pdop>3.0</pdop><geoidheight>50.00</geoidheight><course>346.2</course><type>1</type></trkpt>
      <trkpt lat="38.26473849" lon="-2.6598692"><ele>2328</ele><speed>7.67</speed><time>2016-06-02T11:23:06Z</time><pdop>4.0</pdop><geoidheight>50.00</geoidheight><course>346.4</course><type>1</type></trkpt>
      <trkpt lat="38.26481338" lon="-2.65989427"><ele>2329</ele><speed>8.76</speed><time>2016-06-02T11:23:07Z</time><pdop>3.0</pdop><geoidheight>50.00</geoidheight><course>346.3</course><type>1</type></trkpt>
      <trkpt lat="38.26489019" lon="-2.6599153"><ele>2330</ele><speed>9.08</speed><time>2016-06-02T11:23:08Z</time><pdop>4.0</pdop><geoidheight>50.00</geoidheight><course>347.3</course><type>1</type></trkpt>
      <trkpt lat="38.26498275" lon="-2.65990628"><ele>2331</ele><speed>9.50</speed><time>2016-06-02T11:23:09Z</time><pdop>5.0</pdop><geoidheight>50.00</geoidheight><course>354.3</course><type>1</type></trkpt>
      <trkpt lat="38.26508501" lon="-2.65989882"><ele>2332</ele><speed>10.19</speed><time>2016-06-02T11:23:10Z</time><pdop>4.0</pdop><geoidheight>50.00</geoidheight><course>359.2</course><type>1</type></trkpt>
      <trkpt lat="38.26516502" lon="-2.65992562"><ele>2334</ele><speed>9.11</speed><time>2016-06-02T11:23:11Z</time><pdop>5.0</pdop><geoidheight>50.00</geoidheight><course>353.5</course><type>1</type></trkpt>
      <trkpt lat="38.26524735" lon="-2.65993287"><ele>2336</ele><speed>8.73</speed><time>2016-06-02T11:23:12Z</time><pdop>4.0</pdop><geoidheight>50.00</geoidheight><course>356.5</course><type>1</type></trkpt>
      <trkpt lat="38.26541176" lon="-2.66000374"><ele>2339</ele><speed>9.79</speed><time>2016-06-02T11:23:14Z</time><pdop>9.0</pdop><geoidheight>50.00</geoidheight><course>344.3</course><type>1</type></trkpt>
      <trkpt lat="38.2655862" lon="-2.66009423"><ele>2343</ele><speed>10.82</speed><time>2016-06-02T11:23:16Z</time><pdop>9.0</pdop><geoidheight>50.00</geoidheight><course>342.8</course><type>1</type></trkpt>
      <trkpt lat="38.26576542" lon="-2.66016019"><ele>2348</ele><speed>10.71</speed><time>2016-06-02T11:23:18Z</time><pdop>9.0</pdop><geoidheight>50.00</geoidheight><course>346.4</course><type>1</type></trkpt>
      <trkpt lat="38.26596078" lon="-2.66024379"><ele>2351</ele><speed>11.46</speed><time>2016-06-02T11:23:20Z</time><pdop>9.0</pdop><geoidheight>50.00</geoidheight><course>344.2</course><type>1</type></trkpt>
      <trkpt lat="38.26614451" lon="-2.66038357"><ele>2353</ele><speed>11.73</speed><time>2016-06-02T11:23:22Z</time><pdop>9.0</pdop><geoidheight>50.00</geoidheight><course>335.2</course><type>1</type></trkpt>
      <trkpt lat="38.26632771" lon="-2.660497"><ele>2355</ele><speed>11.17</speed><time>2016-06-02T11:23:24Z</time><pdop>9.0</pdop><geoidheight>50.00</geoidheight><course>336.9</course><type>1</type></trkpt>
      <trkpt lat="38.2665201" lon="-2.66059273"><ele>2356</ele><speed>11.53</speed><time>2016-06-02T11:23:26Z</time><pdop>9.0</pdop><geoidheight>50.00</geoidheight><course>343.5</course><type>1</type></trkpt>
      <trkpt lat="38.26672808" lon="-2.66063043"><ele>2357</ele><speed>12.14</speed><time>2016-06-02T11:23:28Z</time><pdop>9.0</pdop><geoidheight>50.00</geoidheight><course>352.0</course><type>1</type></trkpt>
      <trkpt lat="38.26693677" lon="-2.66067904"><ele>2357</ele><speed>11.79</speed><time>2016-06-02T11:23:30Z</time><pdop>9.0</pdop><geoidheight>50.00</geoidheight><course>345.8</course><type>1</type></trkpt>
      <trkpt lat="38.26713581" lon="-2.66078253"><ele>2361</ele><speed>12.12</speed><time>2016-06-02T11:23:32Z</time><pdop>9.0</pdop><geoidheight>50.00</geoidheight><course>338.5</course><type>1</type></trkpt>
      <trkpt lat="38.26733293" lon="-2.66088049"><ele>2362</ele><speed>12.09</speed><time>2016-06-02T11:23:34Z</time><pdop>9.0</pdop><geoidheight>50.00</geoidheight><course>339.6</course><type>1</type></trkpt>
      <trkpt lat="38.2675309" lon="-2.66095809"><ele>2366</ele><speed>11.24</speed><time>2016-06-02T11:23:36Z</time><pdop>9.0</pdop><geoidheight>50.00</geoidheight><course>348.5</course><type>1</type></trkpt>
      <trkpt lat="38.26773082" lon="-2.66098336"><ele>2369</ele><speed>11.30</speed><time>2016-06-02T11:23:38Z</time><pdop>9.0</pdop><geoidheight>50.00</geoidheight><course>356.5</course><type>1</type></trkpt>
      <trkpt lat="38.26795672" lon="-2.66097098"><ele>2370</ele><speed>12.94</speed><time>2016-06-02T11:23:40Z</time><pdop>10.0</pdop><geoidheight>50.00</geoidheight><course>359.4</course><type>1</type></trkpt>
      <trkpt lat="38.26821197" lon="-2.66105124"><ele>2377</ele><speed>14.15</speed><time>2016-06-02T11:23:42Z</time><pdop>9.0</pdop><geoidheight>50.00</geoidheight><course>355.3</course><type>1</type></trkpt>
      <trkpt lat="38.26839518" lon="-2.66101118"><ele>2388</ele><speed>11.50</speed><time>2016-06-02T11:23:44Z</time><pdop>9.0</pdop><geoidheight>50.00</geoidheight><course>14.1</course><type>1</type></trkpt>
      <trkpt lat="38.26857932" lon="-2.66105138"><ele>2395</ele><speed>7.29</speed><time>2016-06-02T11:23:47Z</time><pdop>9.0</pdop><geoidheight>50.00</geoidheight><course>330.4</course><type>1</type></trkpt>
      <trkpt lat="38.26865487" lon="-2.66123656"><ele>2399</ele><speed>9.25</speed><time>2016-06-02T11:23:49Z</time><pdop>9.0</pdop><geoidheight>50.00</geoidheight><course>294.0</course><type>1</type></trkpt>
      <trkpt lat="38.26863125" lon="-2.66153423"><ele>2409</ele><speed>8.62</speed><time>2016-06-02T11:23:52Z</time><pdop>9.0</pdop><geoidheight>50.00</geoidheight><course>257.3</course><type>1</type></trkpt>
      <trkpt lat="38.26858311" lon="-2.66165892"><ele>2412</ele><speed>6.28</speed><time>2016-06-02T11:23:54Z</time><pdop>3.0</pdop><geoidheight>50.00</geoidheight><course>240.5</course><type>1</type></trkpt>
      <trkpt lat="38.26854975" lon="-2.66173704"><ele>2414</ele><speed>7.23</speed><time>2016-06-02T11:23:55Z</time><pdop>3.0</pdop><geoidheight>50.00</geoidheight><course>247.4</course><type>1</type></trkpt>
      <trkpt lat="38.2685279" lon="-2.66183522"><ele>2415</ele><speed>8.54</speed><time>2016-06-02T11:23:56Z</time><pdop>3.0</pdop><geoidheight>50.00</geoidheight><course>254.7</course><type>1</type></trkpt>
      <trkpt lat="38.26851231" lon="-2.66193932"><ele>2416</ele><speed>9.35</speed><time>2016-06-02T11:23:57Z</time><pdop>3.0</pdop><geoidheight>50.00</geoidheight><course>260.4</course><type>1</type></trkpt>
      <trkpt lat="38.26850964" lon="-2.66204694"><ele>2419</ele><speed>9.26</speed><time>2016-06-02T11:23:58Z</time><pdop>3.0</pdop><geoidheight>50.00</geoidheight><course>267.4</course><type>1</type></trkpt>
      <trkpt lat="38.26851547" lon="-2.66213366"><ele>2421</ele><speed>8.14</speed><time>2016-06-02T11:23:59Z</time><pdop>3.0</pdop><geoidheight>50.00</geoidheight><course>273.2</course><type>1</type></trkpt>
      <trkpt lat="38.26851367" lon="-2.6622062"><ele>2424</ele><speed>7.11</speed><time>2016-06-02T11:24:00Z</time><pdop>3.0</pdop><geoidheight>50.00</geoidheight><course>272.4</course><type>1</type></trkpt>
      <trkpt lat="38.26850113" lon="-2.66228967"><ele>2425</ele><speed>7.12</speed><time>2016-06-02T11:24:01Z</time><pdop>3.0</pdop><geoidheight>50.00</geoidheight><course>266.1</course><type>1</type></trkpt>
      <trkpt lat="38.26849294" lon="-2.66237384"><ele>2426</ele><speed>7.36</speed><time>2016-06-02T11:24:02Z</time><pdop>3.0</pdop><geoidheight>50.00</geoidheight><course>264.3</course><type>1</type></trkpt>
      <trkpt lat="38.26849367" lon="-2.66246703"><ele>2427</ele><speed>8.01</speed><time>2016-06-02T11:24:03Z</time><pdop>3.0</pdop><geoidheight>50.00</geoidheight><course>269.5</course><type>1</type></trkpt>
      <trkpt lat="38.26849998" lon="-2.6625623"><ele>2428</ele><speed>7.67</speed><time>2016-06-02T11:24:04Z</time><pdop>3.0</pdop><geoidheight>50.00</geoidheight><course>277.3</course><type>1</type></trkpt>
      <trkpt lat="38.26852427" lon="-2.66270725"><ele>2432</ele><speed>5.94</speed><time>2016-06-02T11:24:06Z</time><pdop>3.0</pdop><geoidheight>50.00</geoidheight><course>269.4</course><type>1</type></trkpt>
      <trkpt lat="38.26852075" lon="-2.66278311"><ele>2434</ele><speed>7.26</speed><time>2016-06-02T11:24:07Z</time><pdop>3.0</pdop><geoidheight>50.00</geoidheight><course>268.9</course><type>1</type></trkpt>
      <trkpt lat="38.26851964" lon="-2.66286497"><ele>2435</ele><speed>7.19</speed><time>2016-06-02T11:24:08Z</time><pdop>3.0</pdop><geoidheight>50.00</geoidheight><course>269.0</course><type>1</type></trkpt>
      <trkpt lat="38.26852926" lon="-2.66295529"><ele>2435</ele><speed>7.81</speed><time>2016-06-02T11:24:09Z</time><pdop>4.0</pdop><geoidheight>50.00</geoidheight><course>274.7</course><type>1</type></trkpt>
      <trkpt lat="38.26859776" lon="-2.66306684"><ele>2438</ele><speed>10.52</speed><time>2016-06-02T11:24:10Z</time><pdop>3.0</pdop><geoidheight>50.00</geoidheight><course>298.2</course><type>1</type></trkpt>
      <trkpt lat="38.26864939" lon="-2.66314037"><ele>2440</ele><speed>9.90</speed><time>2016-06-02T11:24:11Z</time><pdop>3.0</pdop><geoidheight>50.00</geoidheight><course>307.1</course><type>1</type></trkpt>
      <trkpt lat="38.2687114" lon="-2.66323001"><ele>2442</ele><speed>9.35</speed><time>2016-06-02T11:24:12Z</time><pdop>3.0</pdop><geoidheight>50.00</geoidheight><course>311.0</course><type>1</type></trkpt>
      <trkpt lat="38.26876675" lon="-2.66331025"><ele>2442</ele><speed>9.33</speed><time>2016-06-02T11:24:13Z</time><pdop>4.0</pdop><geoidheight>50.00</geoidheight><course>311.1</course><type>1</type></trkpt>
      <trkpt lat="38.26883489" lon="-2.66341055"><ele>2442</ele><speed>10.45</speed><time>2016-06-02T11:24:14Z</time><pdop>3.0</pdop><geoidheight>50.00</geoidheight><course>313.8</course><type>1</type></trkpt>
      <trkpt lat="38.26891543" lon="-2.66351583"><ele>2441</ele><speed>12.70</speed><time>2016-06-02T11:24:15Z</time><pdop>4.0</pdop><geoidheight>50.00</geoidheight><course>313.2</course><type>1</type></trkpt>
      <trkpt lat="38.26899153" lon="-2.66362262"><ele>2442</ele><speed>12.46</speed><time>2016-06-02T11:24:16Z</time><pdop>4.0</pdop><geoidheight>50.00</geoidheight><course>312.8</course><type>1</type></trkpt>
      <trkpt lat="38.26906405" lon="-2.66371313"><ele>2442</ele><speed>11.15</speed><time>2016-06-02T11:24:17Z</time><pdop>4.0</pdop><geoidheight>50.00</geoidheight><course>316.1</course><type>1</type></trkpt>
      <trkpt lat="38.26912874" lon="-2.66379554"><ele>2443</ele><speed>10.65</speed><time>2016-06-02T11:24:18Z</time><pdop>4.0</pdop><geoidheight>50.00</geoidheight><course>319.8</course><type>1</type></trkpt>
      <trkpt lat="38.26920022" lon="-2.66387321"><ele>2441</ele><speed>10.99</speed><time>2016-06-02T11:24:19Z</time><pdop>4.0</pdop><geoidheight>50.00</geoidheight><course>324.8</course><type>1</type></trkpt>
      <trkpt lat="38.26928112" lon="-2.66394564"><ele>2441</ele><speed>10.99</speed><time>2016-06-02T11:24:20Z</time><pdop>5.0</pdop><geoidheight>50.00</geoidheight><course>324.8</course><type>1</type></trkpt>
      <trkpt lat="38.26944355" lon="-2.66414677"><ele>2440</ele><speed>12.94</speed><time>2016-06-02T11:24:22Z</time><pdop>6.0</pdop><geoidheight>50.00</geoidheight><course>316.6</course><type>1</type></trkpt>
      <trkpt lat="38.26952887" lon="-2.66426205"><ele>2439</ele><speed>13.85</speed><time>2016-06-02T11:24:23Z</time><pdop>5.0</pdop><geoidheight>50.00</geoidheight><course>316.1</course><type>1</type></trkpt>
      <trkpt lat="38.26962981" lon="-2.66434834"><ele>2440</ele><speed>13.85</speed><time>2016-06-02T11:24:24Z</time><pdop>5.0</pdop><geoidheight>50.00</geoidheight><course>320.7</course><type>1</type></trkpt>
      <trkpt lat="38.2697219" lon="-2.66444742"><ele>2443</ele><speed>13.50</speed><time>2016-06-02T11:24:25Z</time><pdop>4.0</pdop><geoidheight>50.00</geoidheight><course>322.7</course><type>1</type></trkpt>
      <trkpt lat="38.2698187" lon="-2.66452252"><ele>2444</ele><speed>12.98</speed><time>2016-06-02T11:24:26Z</time><pdop>3.0</pdop><geoidheight>50.00</geoidheight><course>324.6</course><type>1</type></trkpt>
      <trkpt lat="38.26992226" lon="-2.66460277"><ele>2446</ele><speed>12.70</speed><time>2016-06-02T11:24:27Z</time><pdop>3.0</pdop><geoidheight>50.00</geoidheight><course>324.1</course><type>1</type></trkpt>
      <trkpt lat="38.27001477" lon="-2.66468732"><ele>2446</ele><speed>12.67</speed><time>2016-06-02T11:24:28Z</time><pdop>4.0</pdop><geoidheight>50.00</geoidheight><course>324.2</course><type>1</type></trkpt>
      <trkpt lat="38.27008316" lon="-2.66477342"><ele>2448</ele><speed>12.03</speed><time>2016-06-02T11:24:29Z</time><pdop>3.0</pdop><geoidheight>50.00</geoidheight><course>320.1</course><type>1</type></trkpt>
      <trkpt lat="38.27015322" lon="-2.66486476"><ele>2451</ele><speed>11.14</speed><time>2016-06-02T11:24:30Z</time><pdop>3.0</pdop><geoidheight>50.00</geoidheight><course>315.5</course><type>1</type></trkpt>
      <trkpt lat="38.27022294" lon="-2.6649362"><ele>2450</ele><speed>10.69</speed><time>2016-06-02T11:24:31Z</time><pdop>4.0</pdop><geoidheight>50.00</geoidheight><course>314.0</course><type>1</type></trkpt>
      <trkpt lat="38.27028249" lon="-2.66503557"><ele>2452</ele><speed>10.74</speed><time>2016-06-02T11:24:32Z</time><pdop>4.0</pdop><geoidheight>50.00</geoidheight><course>308.6</course><type>1</type></trkpt>
      <trkpt lat="38.27034777" lon="-2.66514106"><ele>2453</ele><speed>11.16</speed><time>2016-06-02T11:24:33Z</time><pdop>4.0</pdop><geoidheight>50.00</geoidheight><course>303.5</course><type>1</type></trkpt>
      <trkpt lat="38.27040306" lon="-2.66524694"><ele>2454</ele><speed>11.12</speed><time>2016-06-02T11:24:34Z</time><pdop>5.0</pdop><geoidheight>50.00</geoidheight><course>303.5</course><type>1</type></trkpt>
      <trkpt lat="38.27050745" lon="-2.66532636"><ele>2455</ele><speed>12.37</speed><time>2016-06-02T11:24:35Z</time><pdop>4.0</pdop><geoidheight>50.00</geoidheight><course>316.7</course><type>1</type></trkpt>
      <trkpt lat="38.27058848" lon="-2.66542311"><ele>2455</ele><speed>12.35</speed><time>2016-06-02T11:24:36Z</time><pdop>7.0</pdop><geoidheight>50.00</geoidheight><course>316.7</course><type>1</type></trkpt>
      <trkpt lat="38.27074154" lon="-2.66547249"><ele>2459</ele><speed>14.56</speed><time>2016-06-02T11:24:37Z</time><pdop>6.0</pdop><geoidheight>50.00</geoidheight><course>336.2</course><type>1</type></trkpt>
      <trkpt lat="38.27103789" lon="-2.66554034"><ele>2457</ele><speed>14.21</speed><time>2016-06-02T11:24:39Z</time><pdop>6.0</pdop><geoidheight>50.00</geoidheight><course>346.6</course><type>1</type></trkpt>
      <trkpt lat="38.27123204" lon="-2.6656775"><ele>2461</ele><speed>13.01</speed><time>2016-06-02T11:24:41Z</time><pdop>6.0</pdop><geoidheight>50.00</geoidheight><course>332.5</course><type>1</type></trkpt>
      <trkpt lat="38.27133595" lon="-2.66574601"><ele>2461</ele><speed>13.00</speed><time>2016-06-02T11:24:42Z</time><pdop>7.0</pdop><geoidheight>50.00</geoidheight><course>332.5</course><type>1</type></trkpt>
      <trkpt lat="38.27144444" lon="-2.66582906"><ele>2462</ele><speed>13.92</speed><time>2016-06-02T11:24:43Z</time><pdop>7.0</pdop><geoidheight>50.00</geoidheight><course>328.0</course><type>1</type></trkpt>
      <trkpt lat="38.27155864" lon="-2.6659172"><ele>2463</ele><speed>14.12</speed><time>2016-06-02T11:24:44Z</time><pdop>5.0</pdop><geoidheight>50.00</geoidheight><course>330.5</course><type>1</type></trkpt>
      <trkpt lat="38.27167783" lon="-2.66597584"><ele>2465</ele><speed>14.15</speed><time>2016-06-02T11:24:45Z</time><pdop>5.0</pdop><geoidheight>50.00</geoidheight><course>339.7</course><type>1</type></trkpt>
      <trkpt lat="38.27179798" lon="-2.66600624"><ele>2465</ele><speed>13.74</speed><time>2016-06-02T11:24:46Z</time><pdop>4.0</pdop><geoidheight>50.00</geoidheight><course>348.1</course><type>1</type></trkpt>
      <trkpt lat="38.27191736" lon="-2.66604932"><ele>2463</ele><speed>13.24</speed><time>2016-06-02T11:24:47Z</time><pdop>4.0</pdop><geoidheight>50.00</geoidheight><course>350.1</course><type>1</type></trkpt>
      <trkpt lat="38.27203602" lon="-2.66607245"><ele>2462</ele><speed>12.67</speed><time>2016-06-02T11:24:48Z</time><pdop>4.0</pdop><geoidheight>50.00</geoidheight><course>346.9</course><type>1</type></trkpt>
      <trkpt lat="38.27215674" lon="-2.66610735"><ele>2460</ele><speed>13.01</speed><time>2016-06-02T11:24:49Z</time><pdop>4.0</pdop><geoidheight>50.00</geoidheight><course>345.0</course><type>1</type></trkpt>
      <trkpt lat="38.27225483" lon="-2.66616141"><ele>2459</ele><speed>12.98</speed><time>2016-06-02T11:24:50Z</time><pdop>4.0</pdop><geoidheight>50.00</geoidheight><course>341.5</course><type>1</type></trkpt>
      <trkpt lat="38.27237814" lon="-2.66621184"><ele>2458</ele><speed>13.27</speed><time>2016-06-02T11:24:51Z</time><pdop>4.0</pdop><geoidheight>50.00</geoidheight><course>345.6</course><type>1</type></trkpt>
      <trkpt lat="38.2724885" lon="-2.66624586"><ele>2456</ele><speed>13.60</speed><time>2016-06-02T11:24:52Z</time><pdop>4.0</pdop><geoidheight>50.00</geoidheight><course>356.4</course><type>1</type></trkpt>
      <trkpt lat="38.27261836" lon="-2.66622109"><ele>2452</ele><speed>14.30</speed><time>2016-06-02T11:24:53Z</time><pdop>4.0</pdop><geoidheight>50.00</geoidheight><course>6.3</course><type>1</type></trkpt>
      <trkpt lat="38.2727326" lon="-2.66619707"><ele>2452</ele><speed>13.57</speed><time>2016-06-02T11:24:54Z</time><pdop>4.0</pdop><geoidheight>50.00</geoidheight><course>7.4</course><type>1</type></trkpt>
      <trkpt lat="38.2728533" lon="-2.66617746"><ele>2451</ele><speed>13.52</speed><time>2016-06-02T11:24:55Z</time><pdop>5.0</pdop><geoidheight>50.00</geoidheight><course>7.3</course><type>1</type></trkpt>
      <trkpt lat="38.2729645" lon="-2.66620909"><ele>2450</ele><speed>13.03</speed><time>2016-06-02T11:24:56Z</time><pdop>4.0</pdop><geoidheight>50.00</geoidheight><course>354.0</course><type>1</type></trkpt>
      <trkpt lat="38.27307912" lon="-2.66621899"><ele>2450</ele><speed>13.03</speed><time>2016-06-02T11:24:57Z</time><pdop>4.0</pdop><geoidheight>50.00</geoidheight><course>355.2</course><type>1</type></trkpt>
      <trkpt lat="38.27319879" lon="-2.66622164"><ele>2449</ele><speed>12.67</speed><time>2016-06-02T11:24:58Z</time><pdop>4.0</pdop><geoidheight>50.00</geoidheight><course>358.2</course><type>1</type></trkpt>
      <trkpt lat="38.27331244" lon="-2.66622606"><ele>2448</ele><speed>12.63</speed><time>2016-06-02T11:24:59Z</time><pdop>4.0</pdop><geoidheight>50.00</geoidheight><course>358.2</course><type>1</type></trkpt>
      <trkpt lat="38.27342937" lon="-2.66621396"><ele>2449</ele><speed>12.37</speed><time>2016-06-02T11:25:00Z</time><pdop>4.0</pdop><geoidheight>50.00</geoidheight><course>355.3</course><type>1</type></trkpt>
      <trkpt lat="38.27352313" lon="-2.66625494"><ele>2450</ele><speed>11.22</speed><time>2016-06-02T11:25:01Z</time><pdop>4.0</pdop><geoidheight>50.00</geoidheight><course>346.1</course><type>1</type></trkpt>
      <trkpt lat="38.27360898" lon="-2.66630282"><ele>2452</ele><speed>10.45</speed><time>2016-06-02T11:25:02Z</time><pdop>4.0</pdop><geoidheight>50.00</geoidheight><course>340.0</course><type>1</type></trkpt>
      <trkpt lat="38.27368751" lon="-2.66634659"><ele>2452</ele><speed>9.61</speed><time>2016-06-02T11:25:03Z</time><pdop>4.0</pdop><geoidheight>50.00</geoidheight><course>334.0</course><type>1</type></trkpt>
      <trkpt lat="38.2737533" lon="-2.66644403"><ele>2449</ele><speed>11.07</speed><time>2016-06-02T11:25:04Z</time><pdop>4.0</pdop><geoidheight>50.00</geoidheight><course>317.5</course><type>1</type></trkpt>
      <trkpt lat="38.2738258" lon="-2.66654352"><ele>2446</ele><speed>11.98</speed><time>2016-06-02T11:25:05Z</time><pdop>4.0</pdop><geoidheight>50.00</geoidheight><course>312.0</course><type>1</type></trkpt>
      <trkpt lat="38.27389196" lon="-2.66666327"><ele>2445</ele><speed>12.83</speed><time>2016-06-02T11:25:06Z</time><pdop>4.0</pdop><geoidheight>50.00</geoidheight><course>307.0</course><type>1</type></trkpt>
      <trkpt lat="38.27398697" lon="-2.66679423"><ele>2440</ele><speed>14.15</speed><time>2016-06-02T11:25:07Z</time><pdop>4.0</pdop><geoidheight>50.00</geoidheight><course>306.7</course><type>1</type></trkpt>
      <trkpt lat="38.27406255" lon="-2.6669202"><ele>2437</ele><speed>15.31</speed><time>2016-06-02T11:25:08Z</time><pdop>4.0</pdop><geoidheight>50.00</geoidheight><course>309.1</course><type>1</type></trkpt>
      <trkpt lat="38.27414308" lon="-2.66706602"><ele>2433</ele><speed>15.38</speed><time>2016-06-02T11:25:09Z</time><pdop>4.0</pdop><geoidheight>50.00</geoidheight><course>310.7</course><type>1</type></trkpt>
      <trkpt lat="38.27422396" lon="-2.66719969"><ele>2433</ele><speed>14.52</speed><time>2016-06-02T11:25:10Z</time><pdop>4.0</pdop><geoidheight>50.00</geoidheight><course>310.4</course><type>1</type></trkpt>
      <trkpt lat="38.2743214" lon="-2.66730105"><ele>2430</ele><speed>13.07</speed><time>2016-06-02T11:25:11Z</time><pdop>4.0</pdop><geoidheight>50.00</geoidheight><course>312.6</course><type>1</type></trkpt>
      <trkpt lat="38.27439746" lon="-2.66740773"><ele>2429</ele><speed>12.20</speed><time>2016-06-02T11:25:12Z</time><pdop>5.0</pdop><geoidheight>50.00</geoidheight><course>315.5</course><type>1</type></trkpt>
      <trkpt lat="38.27447109" lon="-2.66750021"><ele>2427</ele><speed>11.84</speed><time>2016-06-02T11:25:13Z</time><pdop>5.0</pdop><geoidheight>50.00</geoidheight><course>314.4</course><type>1</type></trkpt>
      <trkpt lat="38.27458665" lon="-2.66771581"><ele>2425</ele><speed>11.96</speed><time>2016-06-02T11:25:15Z</time><pdop>9.0</pdop><geoidheight>50.00</geoidheight><course>307.7</course><type>1</type></trkpt>
      <trkpt lat="38.27480807" lon="-2.66786912"><ele>2420</ele><speed>11.77</speed><time>2016-06-02T11:25:17Z</time><pdop>7.0</pdop><geoidheight>50.00</geoidheight><course>318.2</course><type>1</type></trkpt>
      <trkpt lat="38.27493823" lon="-2.66806193"><ele>2415</ele><speed>11.42</speed><time>2016-06-02T11:25:19Z</time><pdop>7.0</pdop><geoidheight>50.00</geoidheight><course>307.3</course><type>1</type></trkpt>
      <trkpt lat="38.27502889" lon="-2.66832213"><ele>2407</ele><speed>12.55</speed><time>2016-06-02T11:25:21Z</time><pdop>8.0</pdop><geoidheight>50.00</geoidheight><course>296.9</course><type>1</type></trkpt>
      <trkpt lat="38.27515083" lon="-2.66859103"><ele>2403</ele><speed>13.73</speed><time>2016-06-02T11:25:23Z</time><pdop>10.0</pdop><geoidheight>50.00</geoidheight><course>300.0</course><type>1</type></trkpt>
      <trkpt lat="38.27530726" lon="-2.66883178"><ele>2400</ele><speed>13.38</speed><time>2016-06-02T11:25:25Z</time><pdop>10.0</pdop><geoidheight>50.00</geoidheight><course>308.3</course><type>1</type></trkpt>
      <trkpt lat="38.27543726" lon="-2.66906003"><ele>2397</ele><speed>12.57</speed><time>2016-06-02T11:25:27Z</time><pdop>8.0</pdop><geoidheight>50.00</geoidheight><course>309.4</course><type>1</type></trkpt>
      <trkpt lat="38.27561419" lon="-2.66925206"><ele>2386</ele><speed>13.23</speed><time>2016-06-02T11:25:29Z</time><pdop>6.0</pdop><geoidheight>50.00</geoidheight><course>316.3</course><type>1</type></trkpt>
      <trkpt lat="38.27570431" lon="-2.66935286"><ele>2381</ele><speed>13.92</speed><time>2016-06-02T11:25:30Z</time><pdop>6.0</pdop><geoidheight>50.00</geoidheight><course>317.9</course><type>1</type></trkpt>
      <trkpt lat="38.27579577" lon="-2.66946144"><ele>2376</ele><speed>13.90</speed><time>2016-06-02T11:25:31Z</time><pdop>5.0</pdop><geoidheight>50.00</geoidheight><course>316.3</course><type>1</type></trkpt>
      <trkpt lat="38.27587143" lon="-2.66958487"><ele>2373</ele><speed>13.82</speed><time>2016-06-02T11:25:32Z</time><pdop>5.0</pdop><geoidheight>50.00</geoidheight><course>308.5</course><type>1</type></trkpt>
      <trkpt lat="38.27593777" lon="-2.6696987"><ele>2371</ele><speed>13.16</speed><time>2016-06-02T11:25:33Z</time><pdop>5.0</pdop><geoidheight>50.00</geoidheight><course>303.3</course><type>1</type></trkpt>
      <trkpt lat="38.27599057" lon="-2.66982242"><ele>2369</ele><speed>12.23</speed><time>2016-06-02T11:25:34Z</time><pdop>4.0</pdop><geoidheight>50.00</geoidheight><course>301.7</course><type>1</type></trkpt>
      <trkpt lat="38.27604848" lon="-2.66992369"><ele>2368</ele><speed>11.64</speed><time>2016-06-02T11:25:35Z</time><pdop>4.0</pdop><geoidheight>50.00</geoidheight><course>305.5</course><type>1</type></trkpt>
      <trkpt lat="38.27611487" lon="-2.67004386"><ele>2368</ele><speed>11.98</speed><time>2016-06-02T11:25:36Z</time><pdop>4.0</pdop><geoidheight>50.00</geoidheight><course>304.7</course><type>1</type></trkpt>
      <trkpt lat="38.27616833" lon="-2.6701876"><ele>2366</ele><speed>12.48</speed><time>2016-06-02T11:25:37Z</time><pdop>4.0</pdop><geoidheight>50.00</geoidheight><course>301.2</course><type>1</type></trkpt>
      <trkpt lat="38.27623381" lon="-2.6703047"><ele>2365</ele><speed>12.55</speed><time>2016-06-02T11:25:38Z</time><pdop>4.0</pdop><geoidheight>50.00</geoidheight><course>303.0</course><type>1</type></trkpt>
      <trkpt lat="38.27630997" lon="-2.67039924"><ele>2362</ele><speed>12.13</speed><time>2016-06-02T11:25:39Z</time><pdop>4.0</pdop><geoidheight>50.00</geoidheight><course>310.0</course><type>1</type></trkpt>
      <trkpt lat="38.27638222" lon="-2.67049774"><ele>2361</ele><speed>11.81</speed><time>2016-06-02T11:25:40Z</time><pdop>4.0</pdop><geoidheight>50.00</geoidheight><course>310.6</course><type>1</type></trkpt>
      <trkpt lat="38.27644849" lon="-2.67060386"><ele>2360</ele><speed>11.91</speed><time>2016-06-02T11:25:41Z</time><pdop>4.0</pdop><geoidheight>50.00</geoidheight><course>310.4</course><type>1</type></trkpt>
      <trkpt lat="38.27653924" lon="-2.67069299"><ele>2357</ele><speed>11.72</speed><time>2016-06-02T11:25:42Z</time><pdop>4.0</pdop><geoidheight>50.00</geoidheight><course>315.2</course><type>1</type></trkpt>
      <trkpt lat="38.27662957" lon="-2.67077552"><ele>2354</ele><speed>11.84</speed><time>2016-06-02T11:25:43Z</time><pdop>4.0</pdop><geoidheight>50.00</geoidheight><course>319.0</course><type>1</type></trkpt>
      <trkpt lat="38.27672326" lon="-2.67086607"><ele>2350</ele><speed>12.02</speed><time>2016-06-02T11:25:44Z</time><pdop>4.0</pdop><geoidheight>50.00</geoidheight><course>317.5</course><type>1</type></trkpt>
      <trkpt lat="38.27679732" lon="-2.67098306"><ele>2348</ele><speed>12.98</speed><time>2016-06-02T11:25:45Z</time><pdop>4.0</pdop><geoidheight>50.00</geoidheight><course>310.5</course><type>1</type></trkpt>
      <trkpt lat="38.27688392" lon="-2.67110027"><ele>2345</ele><speed>14.05</speed><time>2016-06-02T11:25:46Z</time><pdop>3.0</pdop><geoidheight>50.00</geoidheight><course>310.5</course><type>1</type></trkpt>
      <trkpt lat="38.27696967" lon="-2.67121927"><ele>2343</ele><speed>14.09</speed><time>2016-06-02T11:25:47Z</time><pdop>3.0</pdop><geoidheight>50.00</geoidheight><course>311.6</course><type>1</type></trkpt>
      <trkpt lat="38.27705499" lon="-2.67132917"><ele>2343</ele><speed>13.38</speed><time>2016-06-02T11:25:48Z</time><pdop>3.0</pdop><geoidheight>50.00</geoidheight><course>314.2</course><type>1</type></trkpt>
      <trkpt lat="38.27712447" lon="-2.67142834"><ele>2342</ele><speed>11.99</speed><time>2016-06-02T11:25:49Z</time><pdop>3.0</pdop><geoidheight>50.00</geoidheight><course>315.0</course><type>1</type></trkpt>
      <trkpt lat="38.27720085" lon="-2.67151202"><ele>2341</ele><speed>11.13</speed><time>2016-06-02T11:25:50Z</time><pdop>4.0</pdop><geoidheight>50.00</geoidheight><course>314.9</course><type>1</type></trkpt>
      <trkpt lat="38.27727098" lon="-2.67159342"><ele>2339</ele><speed>10.60</speed><time>2016-06-02T11:25:51Z</time><pdop>3.0</pdop><geoidheight>50.00</geoidheight><course>314.7</course><type>1</type></trkpt>
      <trkpt lat="38.27733499" lon="-2.67169731"><ele>2335</ele><speed>11.63</speed><time>2016-06-02T11:25:52Z</time><pdop>3.0</pdop><geoidheight>50.00</geoidheight><course>310.3</course><type>1</type></trkpt>
      <trkpt lat="38.27741256" lon="-2.67180625"><ele>2330</ele><speed>12.55</speed><time>2016-06-02T11:25:53Z</time><pdop>3.0</pdop><geoidheight>50.00</geoidheight><course>308.6</course><type>1</type></trkpt>
      <trkpt lat="38.2774863" lon="-2.67192642"><ele>2328</ele><speed>13.38</speed><time>2016-06-02T11:25:54Z</time><pdop>3.0</pdop><geoidheight>50.00</geoidheight><course>308.4</course><type>1</type></trkpt>
      <trkpt lat="38.27755479" lon="-2.6720409"><ele>2325</ele><speed>12.94</speed><time>2016-06-02T11:25:55Z</time><pdop>3.0</pdop><geoidheight>50.00</geoidheight><course>306.1</course><type>1</type></trkpt>
      <trkpt lat="38.27761978" lon="-2.67215866"><ele>2323</ele><speed>12.60</speed><time>2016-06-02T11:25:56Z</time><pdop>3.0</pdop><geoidheight>50.00</geoidheight><course>304.6</course><type>1</type></trkpt>
      <trkpt lat="38.27768446" lon="-2.67225908"><ele>2320</ele><speed>12.14</speed><time>2016-06-02T11:25:57Z</time><pdop>3.0</pdop><geoidheight>50.00</geoidheight><course>308.0</course><type>1</type></trkpt>
      <trkpt lat="38.27775137" lon="-2.6723721"><ele>2318</ele><speed>12.72</speed><time>2016-06-02T11:25:58Z</time><pdop>3.0</pdop><geoidheight>50.00</geoidheight><course>307.6</course><type>1</type></trkpt>
      <trkpt lat="38.27780964" lon="-2.67249501"><ele>2313</ele><speed>13.87</speed><time>2016-06-02T11:25:59Z</time><pdop>3.0</pdop><geoidheight>50.00</geoidheight><course>304.4</course><type>1</type></trkpt>
      <trkpt lat="38.27786892" lon="-2.67261997"><ele>2306</ele><speed>15.12</speed><time>2016-06-02T11:26:00Z</time><pdop>3.0</pdop><geoidheight>50.00</geoidheight><course>300.5</course><type>1</type></trkpt>
      <trkpt lat="38.27793883" lon="-2.67277488"><ele>2301</ele><speed>16.20</speed><time>2016-06-02T11:26:01Z</time><pdop>3.0</pdop><geoidheight>50.00</geoidheight><course>299.9</course><type>1</type></trkpt>
      <trkpt lat="38.27800764" lon="-2.6729383"><ele>2299</ele><speed>16.45</speed><time>2016-06-02T11:26:02Z</time><pdop>3.0</pdop><geoidheight>50.00</geoidheight><course>300.3</course><type>1</type></trkpt>
      <trkpt lat="38.27808462" lon="-2.67308882"><ele>2299</ele><speed>15.92</speed><time>2016-06-02T11:26:03Z</time><pdop>3.0</pdop><geoidheight>50.00</geoidheight><course>302.0</course><type>1</type></trkpt>
      <trkpt lat="38.2781596" lon="-2.67322808"><ele>2298</ele><speed>14.97</speed><time>2016-06-02T11:26:04Z</time><pdop>3.0</pdop><geoidheight>50.00</geoidheight><course>303.5</course><type>1</type></trkpt>
      <trkpt lat="38.27822936" lon="-2.67336053"><ele>2297</ele><speed>13.88</speed><time>2016-06-02T11:26:05Z</time><pdop>3.0</pdop><geoidheight>50.00</geoidheight><course>302.6</course><type>1</type></trkpt>
      <trkpt lat="38.27829066" lon="-2.67347952"><ele>2295</ele><speed>13.16</speed><time>2016-06-02T11:26:06Z</time><pdop>3.0</pdop><geoidheight>50.00</geoidheight><course>302.1</course><type>1</type></trkpt>
      <trkpt lat="38.27835251" lon="-2.67361082"><ele>2291</ele><speed>13.54</speed><time>2016-06-02T11:26:07Z</time><pdop>3.0</pdop><geoidheight>50.00</geoidheight><course>301.8</course><type>1</type></trkpt>
      <trkpt lat="38.27842041" lon="-2.67374026"><ele>2286</ele><speed>14.36</speed><time>2016-06-02T11:26:08Z</time><pdop>3.0</pdop><geoidheight>50.00</geoidheight><course>303.6</course><type>1</type></trkpt>
      <trkpt lat="38.27849519" lon="-2.67386712"><ele>2281</ele><speed>15.07</speed><time>2016-06-02T11:26:09Z</time><pdop>3.0</pdop><geoidheight>50.00</geoidheight><course>304.2</course><type>1</type></trkpt>
      <trkpt lat="38.27856942" lon="-2.6740127"><ele>2278</ele><speed>15.22</speed><time>2016-06-02T11:26:10Z</time><pdop>3.0</pdop><geoidheight>50.00</geoidheight><course>303.9</course><type>1</type></trkpt>
      <trkpt lat="38.2786476" lon="-2.6741537"><ele>2275</ele><speed>14.92</speed><time>2016-06-02T11:26:11Z</time><pdop>3.0</pdop><geoidheight>50.00</geoidheight><course>303.8</course><type>1</type></trkpt>
      <trkpt lat="38.27872447" lon="-2.67428677"><ele>2272</ele><speed>14.92</speed><time>2016-06-02T11:26:12Z</time><pdop>3.0</pdop><geoidheight>50.00</geoidheight><course>304.4</course><type>1</type></trkpt>
      <trkpt lat="38.27880421" lon="-2.67443184"><ele>2269</ele><speed>15.39</speed><time>2016-06-02T11:26:13Z</time><pdop>3.0</pdop><geoidheight>50.00</geoidheight><course>304.3</course><type>1</type></trkpt>
      <trkpt lat="38.2788818" lon="-2.67458344"><ele>2266</ele><speed>15.46</speed><time>2016-06-02T11:26:14Z</time><pdop>3.0</pdop><geoidheight>51.00</geoidheight><course>303.0</course><type>1</type></trkpt>
      <trkpt lat="38.27895984" lon="-2.67472563"><ele>2263</ele><speed>15.08</speed><time>2016-06-02T11:26:15Z</time><pdop>3.0</pdop><geoidheight>51.00</geoidheight><course>301.4</course><type>1</type></trkpt>
      <trkpt lat="38.27902946" lon="-2.67487289"><ele>2262</ele><speed>14.86</speed><time>2016-06-02T11:26:16Z</time><pdop>3.0</pdop><geoidheight>51.00</geoidheight><course>300.6</course><type>1</type></trkpt>
      <trkpt lat="38.27909954" lon="-2.67501752"><ele>2260</ele><speed>15.02</speed><time>2016-06-02T11:26:17Z</time><pdop>3.0</pdop><geoidheight>51.00</geoidheight><course>301.4</course><type>1</type></trkpt>
      <trkpt lat="38.27917523" lon="-2.67516357"><ele>2259</ele><speed>15.33</speed><time>2016-06-02T11:26:18Z</time><pdop>3.0</pdop><geoidheight>51.00</geoidheight><course>302.9</course><type>1</type></trkpt>
      <trkpt lat="38.27925595" lon="-2.67530459"><ele>2258</ele><speed>15.47</speed><time>2016-06-02T11:26:19Z</time><pdop>3.0</pdop><geoidheight>51.00</geoidheight><course>304.4</course><type>1</type></trkpt>
      <trkpt lat="38.27933772" lon="-2.67544764"><ele>2257</ele><speed>15.29</speed><time>2016-06-02T11:26:20Z</time><pdop>3.0</pdop><geoidheight>51.00</geoidheight><course>304.8</course><type>1</type></trkpt>
      <trkpt lat="38.27941147" lon="-2.6755866"><ele>2256</ele><speed>14.94</speed><time>2016-06-02T11:26:21Z</time><pdop>3.0</pdop><geoidheight>51.00</geoidheight><course>304.3</course><type>1</type></trkpt>
      <trkpt lat="38.27948516" lon="-2.67572537"><ele>2255</ele><speed>14.76</speed><time>2016-06-02T11:26:22Z</time><pdop>3.0</pdop><geoidheight>51.00</geoidheight><course>303.6</course><type>1</type></trkpt>
      <trkpt lat="38.27955898" lon="-2.67586973"><ele>2254</ele><speed>14.87</speed><time>2016-06-02T11:26:23Z</time><pdop>3.0</pdop><geoidheight>51.00</geoidheight><course>302.0</course><type>1</type></trkpt>
      <trkpt lat="38.27963344" lon="-2.67599467"><ele>2252</ele><speed>14.60</speed><time>2016-06-02T11:26:24Z</time><pdop>3.0</pdop><geoidheight>51.00</geoidheight><course>300.9</course><type>1</type></trkpt>
      <trkpt lat="38.27969753" lon="-2.67613955"><ele>2251</ele><speed>14.53</speed><time>2016-06-02T11:26:25Z</time><pdop>4.0</pdop><geoidheight>51.00</geoidheight><course>300.1</course><type>1</type></trkpt>
      <trkpt lat="38.27975767" lon="-2.67629525"><ele>2251</ele><speed>15.02</speed><time>2016-06-02T11:26:26Z</time><pdop>5.0</pdop><geoidheight>51.00</geoidheight><course>299.7</course><type>1</type></trkpt>
      <trkpt lat="38.27983117" lon="-2.67644268"><ele>2249</ele><speed>15.42</speed><time>2016-06-02T11:26:27Z</time><pdop>4.0</pdop><geoidheight>51.00</geoidheight><course>300.4</course><type>1</type></trkpt>
      <trkpt lat="38.27992788" lon="-2.67657431"><ele>2245</ele><speed>15.52</speed><time>2016-06-02T11:26:28Z</time><pdop>4.0</pdop><geoidheight>51.00</geoidheight><course>305.1</course><type>1</type></trkpt>
      <trkpt lat="38.28001709" lon="-2.67671479"><ele>2243</ele><speed>15.48</speed><time>2016-06-02T11:26:29Z</time><pdop>4.0</pdop><geoidheight>51.00</geoidheight><course>304.8</course><type>1</type></trkpt>
      <trkpt lat="38.28008676" lon="-2.67685998"><ele>2241</ele><speed>15.08</speed><time>2016-06-02T11:26:30Z</time><pdop>4.0</pdop><geoidheight>51.00</geoidheight><course>303.5</course><type>1</type></trkpt>
      <trkpt lat="38.28014605" lon="-2.67701432"><ele>2239</ele><speed>14.83</speed><time>2016-06-02T11:26:31Z</time><pdop>3.0</pdop><geoidheight>51.00</geoidheight><course>300.1</course><type>1</type></trkpt>
      <trkpt lat="38.28020798" lon="-2.67714977"><ele>2238</ele><speed>14.32</speed><time>2016-06-02T11:26:32Z</time><pdop>3.0</pdop><geoidheight>51.00</geoidheight><course>299.1</course><type>1</type></trkpt>
      <trkpt lat="38.28026962" lon="-2.67727954"><ele>2237</ele><speed>13.59</speed><time>2016-06-02T11:26:33Z</time><pdop>3.0</pdop><geoidheight>51.00</geoidheight><course>300.9</course><type>1</type></trkpt>
      <trkpt lat="38.28033079" lon="-2.67739904"><ele>2236</ele><speed>13.16</speed><time>2016-06-02T11:26:34Z</time><pdop>3.0</pdop><geoidheight>51.00</geoidheight><course>302.3</course><type>1</type></trkpt>
      <trkpt lat="38.28040343" lon="-2.67751794"><ele>2233</ele><speed>12.88</speed><time>2016-06-02T11:26:35Z</time><pdop>3.0</pdop><geoidheight>51.00</geoidheight><course>305.4</course><type>1</type></trkpt>
      <trkpt lat="38.28047033" lon="-2.67763813"><ele>2231</ele><speed>12.97</speed><time>2016-06-02T11:26:36Z</time><pdop>3.0</pdop><geoidheight>51.00</geoidheight><course>304.5</course><type>1</type></trkpt>
      <trkpt lat="38.28053524" lon="-2.67777535"><ele>2228</ele><speed>13.63</speed><time>2016-06-02T11:26:37Z</time><pdop>3.0</pdop><geoidheight>51.00</geoidheight><course>302.7</course><type>1</type></trkpt>
      <trkpt lat="38.28060722" lon="-2.67791682"><ele>2224</ele><speed>14.61</speed><time>2016-06-02T11:26:38Z</time><pdop>3.0</pdop><geoidheight>51.00</geoidheight><course>303.2</course><type>1</type></trkpt>
      <trkpt lat="38.28069491" lon="-2.67805587"><ele>2221</ele><speed>15.16</speed><time>2016-06-02T11:26:39Z</time><pdop>3.0</pdop><geoidheight>51.00</geoidheight><course>306.1</course><type>1</type></trkpt>
      <trkpt lat="38.28078285" lon="-2.67819075"><ele>2220</ele><speed>15.11</speed><time>2016-06-02T11:26:40Z</time><pdop>3.0</pdop><geoidheight>51.00</geoidheight><course>308.7</course><type>1</type></trkpt>
      <trkpt lat="38.28087163" lon="-2.67831529"><ele>2219</ele><speed>14.57</speed><time>2016-06-02T11:26:41Z</time><pdop>3.0</pdop><geoidheight>51.00</geoidheight><course>311.7</course><type>1</type></trkpt>
      <trkpt lat="38.28096112" lon="-2.67842985"><ele>2217</ele><speed>14.06</speed><time>2016-06-02T11:26:42Z</time><pdop>3.0</pdop><geoidheight>51.00</geoidheight><course>313.0</course><type>1</type></trkpt>
      <trkpt lat="38.28105356" lon="-2.67852946"><ele>2214</ele><speed>14.15</speed><time>2016-06-02T11:26:43Z</time><pdop>3.0</pdop><geoidheight>51.00</geoidheight><course>314.5</course><type>1</type></trkpt>
      <trkpt lat="38.28114672" lon="-2.6786476"><ele>2209</ele><speed>14.76</speed><time>2016-06-02T11:26:44Z</time><pdop>3.0</pdop><geoidheight>51.00</geoidheight><course>312.2</course><type>1</type></trkpt>
      <trkpt lat="38.28123857" lon="-2.67877197"><ele>2206</ele><speed>15.36</speed><time>2016-06-02T11:26:45Z</time><pdop>3.0</pdop><geoidheight>51.00</geoidheight><course>311.1</course><type>1</type></trkpt>
      <trkpt lat="38.28132855" lon="-2.67890728"><ele>2204</ele><speed>15.32</speed><time>2016-06-02T11:26:46Z</time><pdop>3.0</pdop><geoidheight>51.00</geoidheight><course>310.1</course><type>1</type></trkpt>
      <trkpt lat="38.28142167" lon="-2.67902852"><ele>2202</ele><speed>15.02</speed><time>2016-06-02T11:26:47Z</time><pdop>3.0</pdop><geoidheight>51.00</geoidheight><course>312.1</course><type>1</type></trkpt>
      <trkpt lat="38.28151332" lon="-2.67915569"><ele>2201</ele><speed>14.55</speed><time>2016-06-02T11:26:48Z</time><pdop>3.0</pdop><geoidheight>51.00</geoidheight><course>313.2</course><type>1</type></trkpt>
      <trkpt lat="38.28159611" lon="-2.67927743"><ele>2199</ele><speed>14.04</speed><time>2016-06-02T11:26:49Z</time><pdop>3.0</pdop><geoidheight>51.00</geoidheight><course>312.3</course><type>1</type></trkpt>
      <trkpt lat="38.28167631" lon="-2.67938903"><ele>2198</ele><speed>13.55</speed><time>2016-06-02T11:26:50Z</time><pdop>3.0</pdop><geoidheight>51.00</geoidheight><course>311.3</course><type>1</type></trkpt>
      <trkpt lat="38.28175007" lon="-2.6795045"><ele>2196</ele><speed>13.17</speed><time>2016-06-02T11:26:51Z</time><pdop>3.0</pdop><geoidheight>51.00</geoidheight><course>310.9</course><type>1</type></trkpt>
      <trkpt lat="38.28189786" lon="-2.67973713"><ele>2191</ele><speed>13.44</speed><time>2016-06-02T11:26:53Z</time><pdop>3.0</pdop><geoidheight>51.00</geoidheight><course>308.1</course><type>1</type></trkpt>
      <trkpt lat="38.28197182" lon="-2.6798639"><ele>2189</ele><speed>13.54</speed><time>2016-06-02T11:26:54Z</time><pdop>3.0</pdop><geoidheight>51.00</geoidheight><course>305.8</course><type>1</type></trkpt>
      <trkpt lat="38.28204482" lon="-2.67998876"><ele>2188</ele><speed>13.38</speed><time>2016-06-02T11:26:55Z</time><pdop>3.0</pdop><geoidheight>51.00</geoidheight><course>306.8</course><type>1</type></trkpt>
      <trkpt lat="38.28212334" lon="-2.68009675"><ele>2188</ele><speed>12.80</speed><time>2016-06-02T11:26:56Z</time><pdop>3.0</pdop><geoidheight>51.00</geoidheight><course>309.1</course><type>1</type></trkpt>
      <trkpt lat="38.2821959" lon="-2.68019157"><ele>2188</ele><speed>11.69</speed><time>2016-06-02T11:26:57Z</time><pdop>3.0</pdop><geoidheight>51.00</geoidheight><course>313.5</course><type>1</type></trkpt>
      <trkpt lat="38.28226006" lon="-2.6802764"><ele>2186</ele><speed>10.60</speed><time>2016-06-02T11:26:58Z</time><pdop>3.0</pdop><geoidheight>51.00</geoidheight><course>313.6</course><type>1</type></trkpt>
      <trkpt lat="38.28231934" lon="-2.68036381"><ele>2183</ele><speed>10.30</speed><time>2016-06-02T11:26:59Z</time><pdop>3.0</pdop><geoidheight>51.00</geoidheight><course>311.9</course><type>1</type></trkpt>
      <trkpt lat="38.28238305" lon="-2.68045236"><ele>2179</ele><speed>11.43</speed><time>2016-06-02T11:27:00Z</time><pdop>3.0</pdop><geoidheight>51.00</geoidheight><course>314.1</course><type>1</type></trkpt>
      <trkpt lat="38.28246414" lon="-2.68055477"><ele>2176</ele><speed>12.57</speed><time>2016-06-02T11:27:01Z</time><pdop>3.0</pdop><geoidheight>51.00</geoidheight><course>315.0</course><type>1</type></trkpt>
      <trkpt lat="38.28255377" lon="-2.68064206"><ele>2173</ele><speed>12.70</speed><time>2016-06-02T11:27:02Z</time><pdop>3.0</pdop><geoidheight>51.00</geoidheight><course>315.4</course><type>1</type></trkpt>
      <trkpt lat="38.28263445" lon="-2.6807429"><ele>2171</ele><speed>12.61</speed><time>2016-06-02T11:27:03Z</time><pdop>3.0</pdop><geoidheight>51.00</geoidheight><course>315.4</course><type>1</type></trkpt>
      <trkpt lat="38.28271418" lon="-2.68084491"><ele>2170</ele><speed>12.27</speed><time>2016-06-02T11:27:04Z</time><pdop>3.0</pdop><geoidheight>51.00</geoidheight><course>316.3</course><type>1</type></trkpt>
      <trkpt lat="38.28279799" lon="-2.68094559"><ele>2169</ele><speed>12.58</speed><time>2016-06-02T11:27:05Z</time><pdop>3.0</pdop><geoidheight>51.00</geoidheight><course>314.9</course><type>1</type></trkpt>
      <trkpt lat="38.28287756" lon="-2.68104743"><ele>2169</ele><speed>12.55</speed><time>2016-06-02T11:27:06Z</time><pdop>4.0</pdop><geoidheight>51.00</geoidheight><course>314.8</course><type>1</type></trkpt>
      <trkpt lat="38.282952" lon="-2.6811648"><ele>2168</ele><speed>12.70</speed><time>2016-06-02T11:27:07Z</time><pdop>5.0</pdop><geoidheight>51.00</geoidheight><course>311.6</course><type>1</type></trkpt>
      <trkpt lat="38.28300988" lon="-2.68127189"><ele>2167</ele><speed>11.77</speed><time>2016-06-02T11:27:08Z</time><pdop>4.0</pdop><geoidheight>51.00</geoidheight><course>308.8</course><type>1</type></trkpt>
      <trkpt lat="38.28309726" lon="-2.68136264"><ele>2163</ele><speed>11.95</speed><time>2016-06-02T11:27:09Z</time><pdop>4.0</pdop><geoidheight>51.00</geoidheight><course>313.2</course><type>1</type></trkpt>
      <trkpt lat="38.28317849" lon="-2.68144427"><ele>2161</ele><speed>11.59</speed><time>2016-06-02T11:27:10Z</time><pdop>3.0</pdop><geoidheight>51.00</geoidheight><course>312.5</course><type>1</type></trkpt>
      <trkpt lat="38.28324398" lon="-2.68154806"><ele>2159</ele><speed>11.33</speed><time>2016-06-02T11:27:11Z</time><pdop>3.0</pdop><geoidheight>51.00</geoidheight><course>306.7</course><type>1</type></trkpt>
      <trkpt lat="38.28329512" lon="-2.68161537"><ele>2158</ele><speed>10.33</speed><time>2016-06-02T11:27:12Z</time><pdop>4.0</pdop><geoidheight>51.00</geoidheight><course>305.8</course><type>1</type></trkpt>
      <trkpt lat="38.28334921" lon="-2.68171098"><ele>2157</ele><speed>10.30</speed><time>2016-06-02T11:27:13Z</time><pdop>6.0</pdop><geoidheight>51.00</geoidheight><course>305.7</course><type>1</type></trkpt>
      <trkpt lat="38.28339347" lon="-2.68188241"><ele>2156</ele><speed>12.62</speed><time>2016-06-02T11:27:14Z</time><pdop>6.0</pdop><geoidheight>51.00</geoidheight><course>294.3</course><type>1</type></trkpt>
      <trkpt lat="38.28344086" lon="-2.68203762"><ele>2154</ele><speed>13.33</speed><time>2016-06-02T11:27:15Z</time><pdop>5.0</pdop><geoidheight>51.00</geoidheight><course>292.4</course><type>1</type></trkpt>
      <trkpt lat="38.28349067" lon="-2.68217507"><ele>2153</ele><speed>14.11</speed><time>2016-06-02T11:27:16Z</time><pdop>5.0</pdop><geoidheight>51.00</geoidheight><course>295.0</course><type>1</type></trkpt>
      <trkpt lat="38.28354893" lon="-2.6823149"><ele>2150</ele><speed>14.10</speed><time>2016-06-02T11:27:17Z</time><pdop>4.0</pdop><geoidheight>51.00</geoidheight><course>298.0</course><type>1</type></trkpt>
      <trkpt lat="38.28361144" lon="-2.68244591"><ele>2149</ele><speed>13.78</speed><time>2016-06-02T11:27:18Z</time><pdop>4.0</pdop><geoidheight>51.00</geoidheight><course>299.5</course><type>1</type></trkpt>
      <trkpt lat="38.28367678" lon="-2.68257823"><ele>2148</ele><speed>13.79</speed><time>2016-06-02T11:27:19Z</time><pdop>4.0</pdop><geoidheight>51.00</geoidheight><course>302.3</course><type>1</type></trkpt>
      <trkpt lat="38.28375617" lon="-2.68270593"><ele>2146</ele><speed>13.99</speed><time>2016-06-02T11:27:20Z</time><pdop>3.0</pdop><geoidheight>51.00</geoidheight><course>305.9</course><type>1</type></trkpt>
      <trkpt lat="38.28382044" lon="-2.6828327"><ele>2145</ele><speed>13.65</speed><time>2016-06-02T11:27:21Z</time><pdop>3.0</pdop><geoidheight>51.00</geoidheight><course>305.1</course><type>1</type></trkpt>
      <trkpt lat="38.28388477" lon="-2.68296064"><ele>2145</ele><speed>13.08</speed><time>2016-06-02T11:27:22Z</time><pdop>4.0</pdop><geoidheight>51.00</geoidheight><course>303.9</course><type>1</type></trkpt>
      <trkpt lat="38.28394603" lon="-2.68307408"><ele>2143</ele><speed>12.51</speed><time>2016-06-02T11:27:23Z</time><pdop>3.0</pdop><geoidheight>51.00</geoidheight><course>304.6</course><type>1</type></trkpt>
      <trkpt lat="38.28400223" lon="-2.68319983"><ele>2142</ele><speed>12.42</speed><time>2016-06-02T11:27:24Z</time><pdop>3.0</pdop><geoidheight>51.00</geoidheight><course>302.9</course><type>1</type></trkpt>
      <trkpt lat="38.28405901" lon="-2.68332803"><ele>2142</ele><speed>12.55</speed><time>2016-06-02T11:27:25Z</time><pdop>4.0</pdop><geoidheight>51.00</geoidheight><course>302.6</course><type>1</type></trkpt>
      <trkpt lat="38.28412708" lon="-2.68344265"><ele>2139</ele><speed>12.50</speed><time>2016-06-02T11:27:26Z</time><pdop>4.0</pdop><geoidheight>51.00</geoidheight><course>305.6</course><type>1</type></trkpt>
      <trkpt lat="38.2841877" lon="-2.68356172"><ele>2138</ele><speed>12.37</speed><time>2016-06-02T11:27:27Z</time><pdop>4.0</pdop><geoidheight>51.00</geoidheight><course>305.4</course><type>1</type></trkpt>
      <trkpt lat="38.28423617" lon="-2.68368451"><ele>2137</ele><speed>12.06</speed><time>2016-06-02T11:27:28Z</time><pdop>5.0</pdop><geoidheight>51.00</geoidheight><course>301.5</course><type>1</type></trkpt>
      <trkpt lat="38.2842683" lon="-2.68379839"><ele>2135</ele><speed>11.68</speed><time>2016-06-02T11:27:29Z</time><pdop>5.0</pdop><geoidheight>51.00</geoidheight><course>296.4</course><type>1</type></trkpt>
      <trkpt lat="38.28431085" lon="-2.68393605"><ele>2135</ele><speed>12.22</speed><time>2016-06-02T11:27:30Z</time><pdop>5.0</pdop><geoidheight>51.00</geoidheight><course>295.3</course><type>1</type></trkpt>
      <trkpt lat="38.28434934" lon="-2.68409098"><ele>2133</ele><speed>12.88</speed><time>2016-06-02T11:27:31Z</time><pdop>5.0</pdop><geoidheight>51.00</geoidheight><course>291.6</course><type>1</type></trkpt>
      <trkpt lat="38.28442592" lon="-2.6842345"><ele>2129</ele><speed>13.83</speed><time>2016-06-02T11:27:32Z</time><pdop>4.0</pdop><geoidheight>51.00</geoidheight><course>293.7</course><type>1</type></trkpt>
      <trkpt lat="38.28447645" lon="-2.68436741"><ele>2127</ele><speed>13.36</speed><time>2016-06-02T11:27:33Z</time><pdop>5.0</pdop><geoidheight>51.00</geoidheight><course>292.7</course><type>1</type></trkpt>
      <trkpt lat="38.28452449" lon="-2.68449448"><ele>2126</ele><speed>13.03</speed><time>2016-06-02T11:27:34Z</time><pdop>7.0</pdop><geoidheight>51.00</geoidheight><course>292.8</course><type>1</type></trkpt>
      <trkpt lat="38.28465855" lon="-2.68471474"><ele>2121</ele><speed>13.01</speed><time>2016-06-02T11:27:36Z</time><pdop>5.0</pdop><geoidheight>51.00</geoidheight><course>298.3</course><type>1</type></trkpt>
      <trkpt lat="38.28472164" lon="-2.68484722"><ele>2116</ele><speed>13.31</speed><time>2016-06-02T11:27:37Z</time><pdop>4.0</pdop><geoidheight>51.00</geoidheight><course>302.3</course><type>1</type></trkpt>
      <trkpt lat="38.28478235" lon="-2.68496915"><ele>2114</ele><speed>13.30</speed><time>2016-06-02T11:27:38Z</time><pdop>4.0</pdop><geoidheight>51.00</geoidheight><course>301.9</course><type>1</type></trkpt>
      <trkpt lat="38.28485888" lon="-2.68510512"><ele>2109</ele><speed>14.21</speed><time>2016-06-02T11:27:39Z</time><pdop>4.0</pdop><geoidheight>51.00</geoidheight><course>302.6</course><type>1</type></trkpt>
      <trkpt lat="38.28492485" lon="-2.68523339"><ele>2104</ele><speed>14.33</speed><time>2016-06-02T11:27:40Z</time><pdop>3.0</pdop><geoidheight>51.00</geoidheight><course>301.8</course><type>1</type></trkpt>
      <trkpt lat="38.28498009" lon="-2.68537101"><ele>2100</ele><speed>14.03</speed><time>2016-06-02T11:27:41Z</time><pdop>3.0</pdop><geoidheight>51.00</geoidheight><course>299.4</course><type>1</type></trkpt>
      <trkpt lat="38.28505098" lon="-2.68548794"><ele>2096</ele><speed>13.52</speed><time>2016-06-02T11:27:42Z</time><pdop>3.0</pdop><geoidheight>51.00</geoidheight><course>299.7</course><type>1</type></trkpt>
      <trkpt lat="38.28511286" lon="-2.68559839"><ele>2091</ele><speed>12.53</speed><time>2016-06-02T11:27:43Z</time><pdop>3.0</pdop><geoidheight>51.00</geoidheight><course>297.9</course><type>1</type></trkpt>
      <trkpt lat="38.28515697" lon="-2.68571327"><ele>2088</ele><speed>11.82</speed><time>2016-06-02T11:27:44Z</time><pdop>3.0</pdop><geoidheight>51.00</geoidheight><course>296.8</course><type>1</type></trkpt>
      <trkpt lat="38.28522506" lon="-2.68579762"><ele>2084</ele><speed>11.07</speed><time>2016-06-02T11:27:45Z</time><pdop>3.0</pdop><geoidheight>51.00</geoidheight><course>301.2</course><type>1</type></trkpt>
      <trkpt lat="38.28528309" lon="-2.68589998"><ele>2078</ele><speed>11.70</speed><time>2016-06-02T11:27:46Z</time><pdop>3.0</pdop><geoidheight>51.00</geoidheight><course>303.0</course><type>1</type></trkpt>
      <trkpt lat="38.28534664" lon="-2.6860224"><ele>2074</ele><speed>12.39</speed><time>2016-06-02T11:27:47Z</time><pdop>3.0</pdop><geoidheight>51.00</geoidheight><course>301.6</course><type>1</type></trkpt>
      <trkpt lat="38.28546454" lon="-2.68627853"><ele>2062</ele><speed>14.03</speed><time>2016-06-02T11:27:49Z</time><pdop>4.0</pdop><geoidheight>51.00</geoidheight><course>300.0</course><type>1</type></trkpt>
      <trkpt lat="38.28552681" lon="-2.68641466"><ele>2058</ele><speed>14.15</speed><time>2016-06-02T11:27:50Z</time><pdop>4.0</pdop><geoidheight>51.00</geoidheight><course>301.2</course><type>1</type></trkpt>
      <trkpt lat="38.28562231" lon="-2.68652753"><ele>2050</ele><speed>14.57</speed><time>2016-06-02T11:27:51Z</time><pdop>4.0</pdop><geoidheight>51.00</geoidheight><course>305.0</course><type>1</type></trkpt>
      <trkpt lat="38.28568794" lon="-2.68664944"><ele>2046</ele><speed>14.06</speed><time>2016-06-02T11:27:52Z</time><pdop>4.0</pdop><geoidheight>51.00</geoidheight><course>304.0</course><type>1</type></trkpt>
      <trkpt lat="38.28577702" lon="-2.68675269"><ele>2041</ele><speed>14.07</speed><time>2016-06-02T11:27:53Z</time><pdop>4.0</pdop><geoidheight>51.00</geoidheight><course>306.4</course><type>1</type></trkpt>
      <trkpt lat="38.28584764" lon="-2.68688012"><ele>2037</ele><speed>14.28</speed><time>2016-06-02T11:27:54Z</time><pdop>4.0</pdop><geoidheight>51.00</geoidheight><course>305.6</course><type>1</type></trkpt>
      <trkpt lat="38.28592106" lon="-2.68701959"><ele>2032</ele><speed>14.40</speed><time>2016-06-02T11:27:55Z</time><pdop>4.0</pdop><geoidheight>51.00</geoidheight><course>305.1</course><type>1</type></trkpt>
      <trkpt lat="38.28599128" lon="-2.68715953"><ele>2029</ele><speed>14.50</speed><time>2016-06-02T11:27:56Z</time><pdop>4.0</pdop><geoidheight>51.00</geoidheight><course>301.5</course><type>1</type></trkpt>
      <trkpt lat="38.28606495" lon="-2.68729877"><ele>2023</ele><speed>14.86</speed><time>2016-06-02T11:27:57Z</time><pdop>4.0</pdop><geoidheight>51.00</geoidheight><course>301.8</course><type>1</type></trkpt>
      <trkpt lat="38.28614545" lon="-2.68744239"><ele>2019</ele><speed>15.30</speed><time>2016-06-02T11:27:58Z</time><pdop>4.0</pdop><geoidheight>51.00</geoidheight><course>302.3</course><type>1</type></trkpt>
      <trkpt lat="38.28621752" lon="-2.68759349"><ele>2016</ele><speed>15.51</speed><time>2016-06-02T11:27:59Z</time><pdop>4.0</pdop><geoidheight>51.00</geoidheight><course>302.1</course><type>1</type></trkpt>
      <trkpt lat="38.28629721" lon="-2.68774187"><ele>2014</ele><speed>15.41</speed><time>2016-06-02T11:28:00Z</time><pdop>4.0</pdop><geoidheight>51.00</geoidheight><course>304.1</course><type>1</type></trkpt>
      <trkpt lat="38.28637393" lon="-2.68787619"><ele>2012</ele><speed>14.88</speed><time>2016-06-02T11:28:01Z</time><pdop>3.0</pdop><geoidheight>51.00</geoidheight><course>306.1</course><type>1</type></trkpt>
      <trkpt lat="38.28644175" lon="-2.68801313"><ele>2009</ele><speed>14.66</speed><time>2016-06-02T11:28:02Z</time><pdop>3.0</pdop><geoidheight>51.00</geoidheight><course>307.2</course><type>1</type></trkpt>
      <trkpt lat="38.28651993" lon="-2.68813155"><ele>2005</ele><speed>14.36</speed><time>2016-06-02T11:28:03Z</time><pdop>3.0</pdop><geoidheight>51.00</geoidheight><course>305.8</course><type>1</type></trkpt>
      <trkpt lat="38.28658559" lon="-2.68827216"><ele>2003</ele><speed>14.35</speed><time>2016-06-02T11:28:04Z</time><pdop>4.0</pdop><geoidheight>51.00</geoidheight><course>302.0</course><type>1</type></trkpt>
      <trkpt lat="38.28664717" lon="-2.68840886"><ele>2000</ele><speed>13.86</speed><time>2016-06-02T11:28:05Z</time><pdop>4.0</pdop><geoidheight>51.00</geoidheight><course>299.8</course><type>1</type></trkpt>
      <trkpt lat="38.28670441" lon="-2.68854529"><ele>1998</ele><speed>13.51</speed><time>2016-06-02T11:28:06Z</time><pdop>4.0</pdop><geoidheight>51.00</geoidheight><course>296.6</course><type>1</type></trkpt>
      <trkpt lat="38.28675877" lon="-2.68868448"><ele>1994</ele><speed>13.56</speed><time>2016-06-02T11:28:07Z</time><pdop>4.0</pdop><geoidheight>51.00</geoidheight><course>297.4</course><type>1</type></trkpt>
      <trkpt lat="38.28682779" lon="-2.68882176"><ele>1992</ele><speed>14.27</speed><time>2016-06-02T11:28:08Z</time><pdop>5.0</pdop><geoidheight>51.00</geoidheight><course>298.7</course><type>1</type></trkpt>
      <trkpt lat="38.28690071" lon="-2.68897394"><ele>1990</ele><speed>14.90</speed><time>2016-06-02T11:28:09Z</time><pdop>6.0</pdop><geoidheight>51.00</geoidheight><course>299.7</course><type>1</type></trkpt>
      <trkpt lat="38.28697269" lon="-2.68913239"><ele>1990</ele><speed>15.14</speed><time>2016-06-02T11:28:10Z</time><pdop>7.0</pdop><geoidheight>51.00</geoidheight><course>299.5</course><type>1</type></trkpt>
      <trkpt lat="38.28708399" lon="-2.68924694"><ele>1987</ele><speed>15.73</speed><time>2016-06-02T11:28:11Z</time><pdop>5.0</pdop><geoidheight>51.00</geoidheight><course>307.9</course><type>1</type></trkpt>
      <trkpt lat="38.28714684" lon="-2.68937337"><ele>1982</ele><speed>14.96</speed><time>2016-06-02T11:28:12Z</time><pdop>5.0</pdop><geoidheight>51.00</geoidheight><course>305.3</course><type>1</type></trkpt>
      <trkpt lat="38.28723587" lon="-2.68950476"><ele>1980</ele><speed>15.15</speed><time>2016-06-02T11:28:13Z</time><pdop>5.0</pdop><geoidheight>51.00</geoidheight><course>306.6</course><type>1</type></trkpt>
      <trkpt lat="38.2873006" lon="-2.68961557"><ele>1977</ele><speed>14.22</speed><time>2016-06-02T11:28:14Z</time><pdop>5.0</pdop><geoidheight>51.00</geoidheight><course>304.7</course><type>1</type></trkpt>
      <trkpt lat="38.28737209" lon="-2.68974883"><ele>1975</ele><speed>14.05</speed><time>2016-06-02T11:28:15Z</time><pdop>5.0</pdop><geoidheight>51.00</geoidheight><course>303.3</course><type>1</type></trkpt>
      <trkpt lat="38.28744647" lon="-2.68987073"><ele>1974</ele><speed>13.70</speed><time>2016-06-02T11:28:16Z</time><pdop>6.0</pdop><geoidheight>51.00</geoidheight><course>303.8</course><type>1</type></trkpt>
      <trkpt lat="38.28752716" lon="-2.69000972"><ele>1972</ele><speed>14.15</speed><time>2016-06-02T11:28:17Z</time><pdop>7.0</pdop><geoidheight>51.00</geoidheight><course>304.3</course><type>1</type></trkpt>
      <trkpt lat="38.28762353" lon="-2.69013532"><ele>1970</ele><speed>15.08</speed><time>2016-06-02T11:28:18Z</time><pdop>7.0</pdop><geoidheight>51.00</geoidheight><course>308.0</course><type>1</type></trkpt>
      <trkpt lat="38.2877002" lon="-2.69027666"><ele>1965</ele><speed>14.73</speed><time>2016-06-02T11:28:19Z</time><pdop>5.0</pdop><geoidheight>51.00</geoidheight><course>308.3</course><type>1</type></trkpt>
      <trkpt lat="38.28776547" lon="-2.69042438"><ele>1962</ele><speed>14.45</speed><time>2016-06-02T11:28:20Z</time><pdop>4.0</pdop><geoidheight>51.00</geoidheight><course>307.8</course><type>1</type></trkpt>
      <trkpt lat="38.28785532" lon="-2.69053282"><ele>1961</ele><speed>13.95</speed><time>2016-06-02T11:28:21Z</time><pdop>5.0</pdop><geoidheight>51.00</geoidheight><course>307.4</course><type>1</type></trkpt>
      <trkpt lat="38.28792442" lon="-2.69064965"><ele>1958</ele><speed>13.67</speed><time>2016-06-02T11:28:22Z</time><pdop>4.0</pdop><geoidheight>51.00</geoidheight><course>305.6</course><type>1</type></trkpt>
      <trkpt lat="38.28800336" lon="-2.69076885"><ele>1955</ele><speed>13.90</speed><time>2016-06-02T11:28:23Z</time><pdop>4.0</pdop><geoidheight>51.00</geoidheight><course>307.3</course><type>1</type></trkpt>
      <trkpt lat="38.28809149" lon="-2.69086901"><ele>1952</ele><speed>13.94</speed><time>2016-06-02T11:28:24Z</time><pdop>4.0</pdop><geoidheight>51.00</geoidheight><course>309.6</course><type>1</type></trkpt>
      <trkpt lat="38.28817771" lon="-2.69098128"><ele>1951</ele><speed>13.45</speed><time>2016-06-02T11:28:25Z</time><pdop>4.0</pdop><geoidheight>51.00</geoidheight><course>312.5</course><type>1</type></trkpt>
      <trkpt lat="38.28825492" lon="-2.69108111"><ele>1948</ele><speed>13.09</speed><time>2016-06-02T11:28:26Z</time><pdop>3.0</pdop><geoidheight>51.00</geoidheight><course>309.4</course><type>1</type></trkpt>
      <trkpt lat="38.2883035" lon="-2.69119663"><ele>1946</ele><speed>12.15</speed><time>2016-06-02T11:28:27Z</time><pdop>4.0</pdop><geoidheight>51.00</geoidheight><course>304.8</course><type>1</type></trkpt>
      <trkpt lat="38.28836718" lon="-2.69130457"><ele>1946</ele><speed>11.78</speed><time>2016-06-02T11:28:28Z</time><pdop>5.0</pdop><geoidheight>51.00</geoidheight><course>303.9</course><type>1</type></trkpt>
      <trkpt lat="38.28840339" lon="-2.69144648"><ele>1945</ele><speed>12.38</speed><time>2016-06-02T11:28:29Z</time><pdop>5.0</pdop><geoidheight>51.00</geoidheight><course>298.1</course><type>1</type></trkpt>
      <trkpt lat="38.28846639" lon="-2.69159213"><ele>1942</ele><speed>13.68</speed><time>2016-06-02T11:28:30Z</time><pdop>5.0</pdop><geoidheight>51.00</geoidheight><course>301.0</course><type>1</type></trkpt>
      <trkpt lat="38.28855468" lon="-2.69169007"><ele>1938</ele><speed>13.51</speed><time>2016-06-02T11:28:31Z</time><pdop>6.0</pdop><geoidheight>51.00</geoidheight><course>304.9</course><type>1</type></trkpt>
      <trkpt lat="38.28860345" lon="-2.69184895"><ele>1933</ele><speed>14.49</speed><time>2016-06-02T11:28:32Z</time><pdop>5.0</pdop><geoidheight>51.00</geoidheight><course>296.5</course><type>1</type></trkpt>
      <trkpt lat="38.28866657" lon="-2.69196952"><ele>1932</ele><speed>14.23</speed><time>2016-06-02T11:28:33Z</time><pdop>5.0</pdop><geoidheight>51.00</geoidheight><course>296.9</course><type>1</type></trkpt>
      <trkpt lat="38.28873071" lon="-2.69211795"><ele>1930</ele><speed>14.41</speed><time>2016-06-02T11:28:34Z</time><pdop>5.0</pdop><geoidheight>51.00</geoidheight><course>297.3</course><type>1</type></trkpt>
      <trkpt lat="38.28878962" lon="-2.69224479"><ele>1929</ele><speed>13.85</speed><time>2016-06-02T11:28:35Z</time><pdop>4.0</pdop><geoidheight>51.00</geoidheight><course>301.0</course><type>1</type></trkpt>
      <trkpt lat="38.28884569" lon="-2.6923721"><ele>1927</ele><speed>13.12</speed><time>2016-06-02T11:28:36Z</time><pdop>4.0</pdop><geoidheight>51.00</geoidheight><course>300.4</course><type>1</type></trkpt>
      <trkpt lat="38.28890634" lon="-2.69250424"><ele>1926</ele><speed>12.41</speed><time>2016-06-02T11:28:37Z</time><pdop>5.0</pdop><geoidheight>51.00</geoidheight><course>301.2</course><type>1</type></trkpt>
      <trkpt lat="38.28898535" lon="-2.69268273"><ele>1927</ele><speed>9.18</speed><time>2016-06-02T11:28:39Z</time><pdop>4.0</pdop><geoidheight>51.00</geoidheight><course>299.2</course><type>1</type></trkpt>
      <trkpt lat="38.28902432" lon="-2.69276335"><ele>1926</ele><speed>7.99</speed><time>2016-06-02T11:28:40Z</time><pdop>4.0</pdop><geoidheight>51.00</geoidheight><course>301.1</course><type>1</type></trkpt>
      <trkpt lat="38.28905663" lon="-2.69285082"><ele>1926</ele><speed>7.62</speed><time>2016-06-02T11:28:41Z</time><pdop>4.0</pdop><geoidheight>51.00</geoidheight><course>299.2</course><type>1</type></trkpt>
      <trkpt lat="38.28910896" lon="-2.69303426"><ele>1924</ele><speed>8.72</speed><time>2016-06-02T11:28:43Z</time><pdop>5.0</pdop><geoidheight>51.00</geoidheight><course>294.8</course><type>1</type></trkpt>
      <trkpt lat="38.28913848" lon="-2.6932106"><ele>1938</ele><speed>8.33</speed><time>2016-06-02T11:28:45Z</time><pdop>7.0</pdop><geoidheight>51.00</geoidheight><course>287.4</course><type>1</type></trkpt>
      <trkpt lat="38.28919869" lon="-2.69345811"><ele>1926</ele><speed>7.27</speed><time>2016-06-02T11:28:48Z</time><pdop>8.0</pdop><geoidheight>51.00</geoidheight><course>282.9</course><type>1</type></trkpt>
      <trkpt lat="38.28925187" lon="-2.6935975"><ele>1919</ele><speed>6.46</speed><time>2016-06-02T11:28:50Z</time><pdop>5.0</pdop><geoidheight>51.00</geoidheight><course>294.2</course><type>1</type></trkpt>
      <trkpt lat="38.28932603" lon="-2.69374359"><ele>1916</ele><speed>6.28</speed><time>2016-06-02T11:28:52Z</time><pdop>4.0</pdop><geoidheight>51.00</geoidheight><course>304.5</course><type>1</type></trkpt>
      <trkpt lat="38.28939501" lon="-2.69384088"><ele>1913</ele><speed>6.10</speed><time>2016-06-02T11:28:54Z</time><pdop>4.0</pdop><geoidheight>51.00</geoidheight><course>307.8</course><type>1</type></trkpt>
      <trkpt lat="38.28942978" lon="-2.69392451"><ele>1912</ele><speed>6.82</speed><time>2016-06-02T11:28:55Z</time><pdop>3.0</pdop><geoidheight>51.00</geoidheight><course>300.3</course><type>1</type></trkpt>
      <trkpt lat="38.28946067" lon="-2.69400046"><ele>1911</ele><speed>7.15</speed><time>2016-06-02T11:28:56Z</time><pdop>4.0</pdop><geoidheight>51.00</geoidheight><course>297.4</course><type>1</type></trkpt>
      <trkpt lat="38.28950915" lon="-2.69411263"><ele>1910</ele><speed>9.61</speed><time>2016-06-02T11:28:57Z</time><pdop>4.0</pdop><geoidheight>51.00</geoidheight><course>298.0</course><type>1</type></trkpt>
      <trkpt lat="38.28955445" lon="-2.69423498"><ele>1908</ele><speed>10.36</speed><time>2016-06-02T11:28:58Z</time><pdop>4.0</pdop><geoidheight>51.00</geoidheight><course>297.5</course><type>1</type></trkpt>
      <trkpt lat="38.28959606" lon="-2.69434808"><ele>1907</ele><speed>10.66</speed><time>2016-06-02T11:28:59Z</time><pdop>4.0</pdop><geoidheight>51.00</geoidheight><course>297.9</course><type>1</type></trkpt>
      <trkpt lat="38.28963453" lon="-2.69445341"><ele>1906</ele><speed>10.32</speed><time>2016-06-02T11:29:00Z</time><pdop>3.0</pdop><geoidheight>51.00</geoidheight><course>297.2</course><type>1</type></trkpt>
      <trkpt lat="38.28966637" lon="-2.69455358"><ele>1906</ele><speed>9.60</speed><time>2016-06-02T11:29:01Z</time><pdop>3.0</pdop><geoidheight>51.00</geoidheight><course>296.5</course><type>1</type></trkpt>
      <trkpt lat="38.28970611" lon="-2.6946412"><ele>1907</ele><speed>9.02</speed><time>2016-06-02T11:29:02Z</time><pdop>3.0</pdop><geoidheight>51.00</geoidheight><course>296.8</course><type>1</type></trkpt>
      <trkpt lat="38.28974893" lon="-2.6947208"><ele>1905</ele><speed>9.00</speed><time>2016-06-02T11:29:03Z</time><pdop>3.0</pdop><geoidheight>51.00</geoidheight><course>296.8</course><type>1</type></trkpt>
      <trkpt lat="38.28979076" lon="-2.69482308"><ele>1904</ele><speed>9.34</speed><time>2016-06-02T11:29:04Z</time><pdop>3.0</pdop><geoidheight>51.00</geoidheight><course>293.9</course><type>1</type></trkpt>
      <trkpt lat="38.28983123" lon="-2.69491628"><ele>1903</ele><speed>10.35</speed><time>2016-06-02T11:29:05Z</time><pdop>3.0</pdop><geoidheight>51.00</geoidheight><course>296.1</course><type>1</type></trkpt>
      <trkpt lat="38.2898736" lon="-2.69502087"><ele>1901</ele><speed>10.88</speed><time>2016-06-02T11:29:06Z</time><pdop>3.0</pdop><geoidheight>51.00</geoidheight><course>298.1</course><type>1</type></trkpt>
      <trkpt lat="38.2899246" lon="-2.6951211"><ele>1902</ele><speed>10.92</speed><time>2016-06-02T11:29:07Z</time><pdop>3.0</pdop><geoidheight>51.00</geoidheight><course>301.2</course><type>1</type></trkpt>
      <trkpt lat="38.289972" lon="-2.69520947"><ele>1900</ele><speed>10.48</speed><time>2016-06-02T11:29:08Z</time><pdop>3.0</pdop><geoidheight>51.00</geoidheight><course>304.9</course><type>1</type></trkpt>
      <trkpt lat="38.29002965" lon="-2.69531045"><ele>1898</ele><speed>10.31</speed><time>2016-06-02T11:29:09Z</time><pdop>3.0</pdop><geoidheight>51.00</geoidheight><course>306.4</course><type>1</type></trkpt>
      <trkpt lat="38.29009732" lon="-2.69539684"><ele>1895</ele><speed>9.97</speed><time>2016-06-02T11:29:10Z</time><pdop>3.0</pdop><geoidheight>51.00</geoidheight><course>306.8</course><type>1</type></trkpt>
      <trkpt lat="38.29015649" lon="-2.69548332"><ele>1894</ele><speed>10.54</speed><time>2016-06-02T11:29:11Z</time><pdop>3.0</pdop><geoidheight>51.00</geoidheight><course>309.1</course><type>1</type></trkpt>
      <trkpt lat="38.29020916" lon="-2.69558425"><ele>1893</ele><speed>11.33</speed><time>2016-06-02T11:29:12Z</time><pdop>3.0</pdop><geoidheight>51.00</geoidheight><course>306.3</course><type>1</type></trkpt>
      <trkpt lat="38.29026359" lon="-2.69569626"><ele>1891</ele><speed>11.91</speed><time>2016-06-02T11:29:13Z</time><pdop>3.0</pdop><geoidheight>51.00</geoidheight><course>302.7</course><type>1</type></trkpt>
      <trkpt lat="38.29030801" lon="-2.69581892"><ele>1890</ele><speed>11.53</speed><time>2016-06-02T11:29:14Z</time><pdop>3.0</pdop><geoidheight>51.00</geoidheight><course>297.0</course><type>1</type></trkpt>
      <trkpt lat="38.29035029" lon="-2.69592459"><ele>1889</ele><speed>10.31</speed><time>2016-06-02T11:29:15Z</time><pdop>3.0</pdop><geoidheight>51.00</geoidheight><course>298.1</course><type>1</type></trkpt>
      <trkpt lat="38.29037712" lon="-2.69601882"><ele>1889</ele><speed>9.15</speed><time>2016-06-02T11:29:16Z</time><pdop>4.0</pdop><geoidheight>51.00</geoidheight><course>291.6</course><type>1</type></trkpt>
      <trkpt lat="38.29040694" lon="-2.69611512"><ele>1888</ele><speed>8.61</speed><time>2016-06-02T11:29:17Z</time><pdop>4.0</pdop><geoidheight>51.00</geoidheight><course>290.0</course><type>1</type></trkpt>
      <trkpt lat="38.29043642" lon="-2.69621814"><ele>1887</ele><speed>9.05</speed><time>2016-06-02T11:29:18Z</time><pdop>5.0</pdop><geoidheight>51.00</geoidheight><course>287.9</course><type>1</type></trkpt>
      <trkpt lat="38.29045879" lon="-2.69635882"><ele>1888</ele><speed>10.48</speed><time>2016-06-02T11:29:19Z</time><pdop>6.0</pdop><geoidheight>51.00</geoidheight><course>286.4</course><type>1</type></trkpt>
      <trkpt lat="38.2904916" lon="-2.69657245"><ele>1883</ele><speed>11.31</speed><time>2016-06-02T11:29:21Z</time><pdop>6.0</pdop><geoidheight>51.00</geoidheight><course>281.2</course><type>1</type></trkpt>
      <trkpt lat="38.29057893" lon="-2.69671498"><ele>1880</ele><speed>13.20</speed><time>2016-06-02T11:29:22Z</time><pdop>5.0</pdop><geoidheight>51.00</geoidheight><course>294.7</course><type>1</type></trkpt>
      <trkpt lat="38.29061383" lon="-2.69684134"><ele>1878</ele><speed>12.28</speed><time>2016-06-02T11:29:23Z</time><pdop>5.0</pdop><geoidheight>51.00</geoidheight><course>298.1</course><type>1</type></trkpt>
      <trkpt lat="38.29066772" lon="-2.69696104"><ele>1877</ele><speed>11.95</speed><time>2016-06-02T11:29:24Z</time><pdop>6.0</pdop><geoidheight>51.00</geoidheight><course>298.1</course><type>1</type></trkpt>
      <trkpt lat="38.29077264" lon="-2.69713296"><ele>1874</ele><speed>9.82</speed><time>2016-06-02T11:29:26Z</time><pdop>7.0</pdop><geoidheight>51.00</geoidheight><course>303.4</course><type>1</type></trkpt>
      <trkpt lat="38.29090317" lon="-2.69731684"><ele>1866</ele><speed>10.56</speed><time>2016-06-02T11:29:28Z</time><pdop>6.0</pdop><geoidheight>51.00</geoidheight><course>308.4</course><type>1</type></trkpt>
      <trkpt lat="38.29101069" lon="-2.69739154"><ele>1862</ele><speed>11.30</speed><time>2016-06-02T11:29:29Z</time><pdop>6.0</pdop><geoidheight>51.00</geoidheight><course>316.3</course><type>1</type></trkpt>
      <trkpt lat="38.2910842" lon="-2.69747813"><ele>1856</ele><speed>12.08</speed><time>2016-06-02T11:29:30Z</time><pdop>5.0</pdop><geoidheight>51.00</geoidheight><course>312.7</course><type>1</type></trkpt>
      <trkpt lat="38.29115376" lon="-2.69758631"><ele>1852</ele><speed>11.48</speed><time>2016-06-02T11:29:31Z</time><pdop>4.0</pdop><geoidheight>51.00</geoidheight><course>307.0</course><type>1</type></trkpt>
      <trkpt lat="38.29120047" lon="-2.69769402"><ele>1849</ele><speed>11.07</speed><time>2016-06-02T11:29:32Z</time><pdop>4.0</pdop><geoidheight>51.00</geoidheight><course>302.8</course><type>1</type></trkpt>
      <trkpt lat="38.29125432" lon="-2.69779478"><ele>1847</ele><speed>10.88</speed><time>2016-06-02T11:29:33Z</time><pdop>4.0</pdop><geoidheight>51.00</geoidheight><course>301.2</course><type>1</type></trkpt>
      <trkpt lat="38.291299" lon="-2.69790473"><ele>1845</ele><speed>10.72</speed><time>2016-06-02T11:29:34Z</time><pdop>4.0</pdop><geoidheight>51.00</geoidheight><course>299.2</course><type>1</type></trkpt>
      <trkpt lat="38.29134832" lon="-2.69800951"><ele>1844</ele><speed>10.27</speed><time>2016-06-02T11:29:35Z</time><pdop>4.0</pdop><geoidheight>51.00</geoidheight><course>298.0</course><type>1</type></trkpt>
      <trkpt lat="38.29136417" lon="-2.69812227"><ele>1843</ele><speed>10.06</speed><time>2016-06-02T11:29:36Z</time><pdop>4.0</pdop><geoidheight>51.00</geoidheight><course>289.0</course><type>1</type></trkpt>
      <trkpt lat="38.2914303" lon="-2.69829807"><ele>1838</ele><speed>8.70</speed><time>2016-06-02T11:29:38Z</time><pdop>5.0</pdop><geoidheight>51.00</geoidheight><course>286.0</course><type>1</type></trkpt>
      <trkpt lat="38.291489" lon="-2.69846253"><ele>1836</ele><speed>8.27</speed><time>2016-06-02T11:29:40Z</time><pdop>5.0</pdop><geoidheight>51.00</geoidheight><course>297.8</course><type>1</type></trkpt>
      <trkpt lat="38.29155817" lon="-2.69865197"><ele>1834</ele><speed>8.84</speed><time>2016-06-02T11:29:42Z</time><pdop>6.0</pdop><geoidheight>51.00</geoidheight><course>296.1</course><type>1</type></trkpt>
      <trkpt lat="38.29160434" lon="-2.69885839"><ele>1830</ele><speed>10.09</speed><time>2016-06-02T11:29:44Z</time><pdop>6.0</pdop><geoidheight>51.00</geoidheight><course>291.6</course><type>1</type></trkpt>
      <trkpt lat="38.29167104" lon="-2.69905891"><ele>1827</ele><speed>8.70</speed><time>2016-06-02T11:29:46Z</time><pdop>6.0</pdop><geoidheight>51.00</geoidheight><course>296.2</course><type>1</type></trkpt>
      <trkpt lat="38.29172458" lon="-2.69922674"><ele>1825</ele><speed>7.94</speed><time>2016-06-02T11:29:48Z</time><pdop>5.0</pdop><geoidheight>51.00</geoidheight><course>293.5</course><type>1</type></trkpt>
      <trkpt lat="38.29172958" lon="-2.69940001"><ele>1821</ele><speed>7.92</speed><time>2016-06-02T11:29:50Z</time><pdop>6.0</pdop><geoidheight>51.00</geoidheight><course>282.0</course><type>1</type></trkpt>
      <trkpt lat="38.2917947" lon="-2.69960162"><ele>1816</ele><speed>9.33</speed><time>2016-06-02T11:29:52Z</time><pdop>6.0</pdop><geoidheight>51.00</geoidheight><course>290.2</course><type>1</type></trkpt>
      <trkpt lat="38.29188558" lon="-2.69972942"><ele>1813</ele><speed>7.00</speed><time>2016-06-02T11:29:54Z</time><pdop>5.0</pdop><geoidheight>51.00</geoidheight><course>301.3</course><type>1</type></trkpt>
      <trkpt lat="38.29196107" lon="-2.69983936"><ele>1810</ele><speed>5.48</speed><time>2016-06-02T11:29:56Z</time><pdop>5.0</pdop><geoidheight>51.00</geoidheight><course>300.4</course><type>1</type></trkpt>
      <trkpt lat="38.29196252" lon="-2.69999197"><ele>1808</ele><speed>7.03</speed><time>2016-06-02T11:29:58Z</time><pdop>6.0</pdop><geoidheight>51.00</geoidheight><course>279.5</course><type>1</type></trkpt>
      <trkpt lat="38.29199774" lon="-2.70014271"><ele>1807</ele><speed>10.26</speed><time>2016-06-02T11:29:59Z</time><pdop>6.0</pdop><geoidheight>51.00</geoidheight><course>286.3</course><type>1</type></trkpt>
      <trkpt lat="38.29212987" lon="-2.70025315"><ele>1799</ele><speed>12.91</speed><time>2016-06-02T11:30:00Z</time><pdop>5.0</pdop><geoidheight>51.00</geoidheight><course>310.1</course><type>1</type></trkpt>
      <trkpt lat="38.29219324" lon="-2.70035126"><ele>1793</ele><speed>12.73</speed><time>2016-06-02T11:30:01Z</time><pdop>5.0</pdop><geoidheight>51.00</geoidheight><course>311.8</course><type>1</type></trkpt>
      <trkpt lat="38.29228607" lon="-2.70041858"><ele>1784</ele><speed>11.93</speed><time>2016-06-02T11:30:02Z</time><pdop>4.0</pdop><geoidheight>51.00</geoidheight><course>310.2</course><type>1</type></trkpt>
      <trkpt lat="38.29233553" lon="-2.70052552"><ele>1780</ele><speed>11.02</speed><time>2016-06-02T11:30:03Z</time><pdop>4.0</pdop><geoidheight>51.00</geoidheight><course>304.6</course><type>1</type></trkpt>
      <trkpt lat="38.29238376" lon="-2.70062158"><ele>1777</ele><speed>10.29</speed><time>2016-06-02T11:30:04Z</time><pdop>4.0</pdop><geoidheight>51.00</geoidheight><course>304.2</course><type>1</type></trkpt>
      <trkpt lat="38.29240879" lon="-2.700716"><ele>1773</ele><speed>9.68</speed><time>2016-06-02T11:30:05Z</time><pdop>4.0</pdop><geoidheight>51.00</geoidheight><course>294.3</course><type>1</type></trkpt>
      <trkpt lat="38.29246425" lon="-2.70079705"><ele>1769</ele><speed>9.39</speed><time>2016-06-02T11:30:06Z</time><pdop>5.0</pdop><geoidheight>51.00</geoidheight><course>297.0</course><type>1</type></trkpt>
      <trkpt lat="38.29252772" lon="-2.7010122"><ele>1767</ele><speed>9.78</speed><time>2016-06-02T11:30:08Z</time><pdop>10.0</pdop><geoidheight>51.00</geoidheight><course>293.9</course><type>1</type></trkpt>
      <trkpt lat="38.29258095" lon="-2.70132771"><ele>1764</ele><speed>9.56</speed><time>2016-06-02T11:30:11Z</time><pdop>10.0</pdop><geoidheight>51.00</geoidheight><course>288.6</course><type>1</type></trkpt>
      <trkpt lat="38.29274254" lon="-2.70155749"><ele>1754</ele><speed>9.56</speed><time>2016-06-02T11:30:14Z</time><pdop>9.0</pdop><geoidheight>51.00</geoidheight><course>295.4</course><type>1</type></trkpt>
      <trkpt lat="38.29288939" lon="-2.70169373"><ele>1747</ele><speed>10.45</speed><time>2016-06-02T11:30:16Z</time><pdop>11.0</pdop><geoidheight>51.00</geoidheight><course>301.2</course><type>1</type></trkpt>
      <trkpt lat="38.29297366" lon="-2.70212244"><ele>1744</ele><speed>11.99</speed><time>2016-06-02T11:30:19Z</time><pdop>16.0</pdop><geoidheight>51.00</geoidheight><course>291.3</course><type>1</type></trkpt>
      <trkpt lat="38.2931394" lon="-2.70239907"><ele>1736</ele><speed>10.23</speed><time>2016-06-02T11:30:22Z</time><pdop>11.0</pdop><geoidheight>51.00</geoidheight><course>288.8</course><type>1</type></trkpt>
      <trkpt lat="38.29319761" lon="-2.70268049"><ele>1733</ele><speed>11.54</speed><time>2016-06-02T11:30:24Z</time><pdop>11.0</pdop><geoidheight>51.00</geoidheight><course>288.9</course><type>1</type></trkpt>
      <trkpt lat="38.29329008" lon="-2.70298051"><ele>1729</ele><speed>13.09</speed><time>2016-06-02T11:30:26Z</time><pdop>8.0</pdop><geoidheight>51.00</geoidheight><course>293.9</course><type>1</type></trkpt>
      <trkpt lat="38.29338348" lon="-2.70326299"><ele>1724</ele><speed>12.80</speed><time>2016-06-02T11:30:28Z</time><pdop>7.0</pdop><geoidheight>51.00</geoidheight><course>294.2</course><type>1</type></trkpt>
      <trkpt lat="38.29345207" lon="-2.70351557"><ele>1718</ele><speed>12.07</speed><time>2016-06-02T11:30:30Z</time><pdop>7.0</pdop><geoidheight>51.00</geoidheight><course>293.6</course><type>1</type></trkpt>
      <trkpt lat="38.29354276" lon="-2.70375506"><ele>1714</ele><speed>11.77</speed><time>2016-06-02T11:30:32Z</time><pdop>5.0</pdop><geoidheight>51.00</geoidheight><course>295.8</course><type>1</type></trkpt>
      <trkpt lat="38.29359163" lon="-2.70387342"><ele>1712</ele><speed>11.67</speed><time>2016-06-02T11:30:33Z</time><pdop>5.0</pdop><geoidheight>51.00</geoidheight><course>298.2</course><type>1</type></trkpt>
      <trkpt lat="38.29365016" lon="-2.70398513"><ele>1711</ele><speed>11.05</speed><time>2016-06-02T11:30:34Z</time><pdop>5.0</pdop><geoidheight>51.00</geoidheight><course>302.5</course><type>1</type></trkpt>
      <trkpt lat="38.29370658" lon="-2.70409248"><ele>1707</ele><speed>10.77</speed><time>2016-06-02T11:30:35Z</time><pdop>4.0</pdop><geoidheight>51.00</geoidheight><course>298.5</course><type>1</type></trkpt>
      <trkpt lat="38.29373392" lon="-2.70420712"><ele>1705</ele><speed>10.55</speed><time>2016-06-02T11:30:36Z</time><pdop>4.0</pdop><geoidheight>51.00</geoidheight><course>293.0</course><type>1</type></trkpt>
      <trkpt lat="38.29377262" lon="-2.70432266"><ele>1704</ele><speed>10.52</speed><time>2016-06-02T11:30:37Z</time><pdop>5.0</pdop><geoidheight>51.00</geoidheight><course>292.9</course><type>1</type></trkpt>
      <trkpt lat="38.29381379" lon="-2.70445475"><ele>1702</ele><speed>11.67</speed><time>2016-06-02T11:30:38Z</time><pdop>5.0</pdop><geoidheight>51.00</geoidheight><course>292.0</course><type>1</type></trkpt>
      <trkpt lat="38.2938629" lon="-2.70460011"><ele>1700</ele><speed>12.57</speed><time>2016-06-02T11:30:39Z</time><pdop>5.0</pdop><geoidheight>51.00</geoidheight><course>292.9</course><type>1</type></trkpt>
      <trkpt lat="38.2938962" lon="-2.70473484"><ele>1699</ele><speed>12.72</speed><time>2016-06-02T11:30:40Z</time><pdop>5.0</pdop><geoidheight>51.00</geoidheight><course>292.5</course><type>1</type></trkpt>
      <trkpt lat="38.29393103" lon="-2.70487374"><ele>1697</ele><speed>12.62</speed><time>2016-06-02T11:30:41Z</time><pdop>5.0</pdop><geoidheight>51.00</geoidheight><course>290.8</course><type>1</type></trkpt>
      <trkpt lat="38.29396363" lon="-2.70501753"><ele>1696</ele><speed>12.29</speed><time>2016-06-02T11:30:42Z</time><pdop>5.0</pdop><geoidheight>51.00</geoidheight><course>287.7</course><type>1</type></trkpt>
      <trkpt lat="38.293995" lon="-2.70514272"><ele>1694</ele><speed>11.95</speed><time>2016-06-02T11:30:43Z</time><pdop>5.0</pdop><geoidheight>51.00</geoidheight><course>288.9</course><type>1</type></trkpt>
      <trkpt lat="38.29403871" lon="-2.70527127"><ele>1692</ele><speed>11.74</speed><time>2016-06-02T11:30:44Z</time><pdop>4.0</pdop><geoidheight>51.00</geoidheight><course>293.3</course><type>1</type></trkpt>
      <trkpt lat="38.29408753" lon="-2.70541163"><ele>1690</ele><speed>11.97</speed><time>2016-06-02T11:30:45Z</time><pdop>4.0</pdop><geoidheight>51.00</geoidheight><course>293.2</course><type>1</type></trkpt>
      <trkpt lat="38.2941302" lon="-2.70554731"><ele>1688</ele><speed>12.26</speed><time>2016-06-02T11:30:46Z</time><pdop>4.0</pdop><geoidheight>51.00</geoidheight><course>293.2</course><type>1</type></trkpt>
      <trkpt lat="38.29417722" lon="-2.70566838"><ele>1685</ele><speed>12.80</speed><time>2016-06-02T11:30:47Z</time><pdop>4.0</pdop><geoidheight>51.00</geoidheight><course>290.9</course><type>1</type></trkpt>
      <trkpt lat="38.2942148" lon="-2.7058154"><ele>1685</ele><speed>12.84</speed><time>2016-06-02T11:30:48Z</time><pdop>4.0</pdop><geoidheight>51.00</geoidheight><course>289.3</course><type>1</type></trkpt>
      <trkpt lat="38.29426063" lon="-2.70595005"><ele>1682</ele><speed>13.12</speed><time>2016-06-02T11:30:49Z</time><pdop>4.0</pdop><geoidheight>51.00</geoidheight><course>293.3</course><type>1</type></trkpt>
      <trkpt lat="38.29430453" lon="-2.70609334"><ele>1681</ele><speed>12.94</speed><time>2016-06-02T11:30:50Z</time><pdop>5.0</pdop><geoidheight>51.00</geoidheight><course>292.8</course><type>1</type></trkpt>
      <trkpt lat="38.29436981" lon="-2.70621686"><ele>1679</ele><speed>12.46</speed><time>2016-06-02T11:30:51Z</time><pdop>4.0</pdop><geoidheight>51.00</geoidheight><course>300.1</course><type>1</type></trkpt>
      <trkpt lat="38.29442553" lon="-2.70633446"><ele>1677</ele><speed>12.16</speed><time>2016-06-02T11:30:52Z</time><pdop>4.0</pdop><geoidheight>51.00</geoidheight><course>301.3</course><type>1</type></trkpt>
      <trkpt lat="38.29449287" lon="-2.70644645"><ele>1675</ele><speed>12.16</speed><time>2016-06-02T11:30:53Z</time><pdop>5.0</pdop><geoidheight>51.00</geoidheight><course>301.3</course><type>1</type></trkpt>
      <trkpt lat="38.29455483" lon="-2.70657027"><ele>1674</ele><speed>12.33</speed><time>2016-06-02T11:30:54Z</time><pdop>5.0</pdop><geoidheight>51.00</geoidheight><course>300.7</course><type>1</type></trkpt>
      <trkpt lat="38.29459913" lon="-2.70669718"><ele>1674</ele><speed>11.81</speed><time>2016-06-02T11:30:55Z</time><pdop>5.0</pdop><geoidheight>51.00</geoidheight><course>296.5</course><type>1</type></trkpt>
      <trkpt lat="38.29467095" lon="-2.70696233"><ele>1673</ele><speed>11.66</speed><time>2016-06-02T11:30:57Z</time><pdop>10.0</pdop><geoidheight>51.00</geoidheight><course>291.3</course><type>1</type></trkpt>
      <trkpt lat="38.29474994" lon="-2.70719266"><ele>1672</ele><speed>10.82</speed><time>2016-06-02T11:30:59Z</time><pdop>10.0</pdop><geoidheight>51.00</geoidheight><course>293.0</course><type>1</type></trkpt>
      <trkpt lat="38.29484669" lon="-2.70743774"><ele>1671</ele><speed>12.03</speed><time>2016-06-02T11:31:01Z</time><pdop>10.0</pdop><geoidheight>51.00</geoidheight><course>294.8</course><type>1</type></trkpt>
      <trkpt lat="38.29493198" lon="-2.70770563"><ele>1668</ele><speed>12.74</speed><time>2016-06-02T11:31:03Z</time><pdop>5.0</pdop><geoidheight>51.00</geoidheight><course>292.7</course><type>1</type></trkpt>
      <trkpt lat="38.29498711" lon="-2.70784845"><ele>1668</ele><speed>13.02</speed><time>2016-06-02T11:31:04Z</time><pdop>5.0</pdop><geoidheight>51.00</geoidheight><course>294.5</course><type>1</type></trkpt>
      <trkpt lat="38.29503472" lon="-2.70799286"><ele>1668</ele><speed>13.06</speed><time>2016-06-02T11:31:05Z</time><pdop>6.0</pdop><geoidheight>51.00</geoidheight><course>294.1</course><type>1</type></trkpt>
      <trkpt lat="38.29506439" lon="-2.70813583"><ele>1668</ele><speed>12.85</speed><time>2016-06-02T11:31:06Z</time><pdop>5.0</pdop><geoidheight>51.00</geoidheight><course>292.0</course><type>1</type></trkpt>
      <trkpt lat="38.29510546" lon="-2.70826053"><ele>1668</ele><speed>12.12</speed><time>2016-06-02T11:31:07Z</time><pdop>5.0</pdop><geoidheight>51.00</geoidheight><course>291.5</course><type>1</type></trkpt>
      <trkpt lat="38.29513963" lon="-2.70839119"><ele>1666</ele><speed>11.91</speed><time>2016-06-02T11:31:08Z</time><pdop>6.0</pdop><geoidheight>51.00</geoidheight><course>290.7</course><type>1</type></trkpt>
      <trkpt lat="38.29524558" lon="-2.70865411"><ele>1664</ele><speed>13.12</speed><time>2016-06-02T11:31:10Z</time><pdop>7.0</pdop><geoidheight>51.00</geoidheight><course>297.2</course><type>1</type></trkpt>
      <trkpt lat="38.29528998" lon="-2.70882435"><ele>1663</ele><speed>14.45</speed><time>2016-06-02T11:31:11Z</time><pdop>7.0</pdop><geoidheight>51.00</geoidheight><course>293.3</course><type>1</type></trkpt>
      <trkpt lat="38.29538654" lon="-2.70915996"><ele>1656</ele><speed>16.55</speed><time>2016-06-02T11:31:13Z</time><pdop>7.0</pdop><geoidheight>51.00</geoidheight><course>291.7</course><type>1</type></trkpt>
      <trkpt lat="38.29544619" lon="-2.70933268"><ele>1655</ele><speed>16.69</speed><time>2016-06-02T11:31:14Z</time><pdop>6.0</pdop><geoidheight>51.00</geoidheight><course>292.4</course><type>1</type></trkpt>
      <trkpt lat="38.2954811" lon="-2.70952078"><ele>1707</ele><speed>16.12</speed><time>2016-06-02T11:31:15Z</time><pdop>6.0</pdop><geoidheight>51.00</geoidheight><course>292.0</course><type>1</type></trkpt>
      <trkpt lat="38.29556872" lon="-2.70980856"><ele>1683</ele><speed>13.01</speed><time>2016-06-02T11:31:17Z</time><pdop>5.0</pdop><geoidheight>51.00</geoidheight><course>292.2</course><type>1</type></trkpt>
      <trkpt lat="38.29561984" lon="-2.70995046"><ele>1676</ele><speed>13.19</speed><time>2016-06-02T11:31:18Z</time><pdop>6.0</pdop><geoidheight>51.00</geoidheight><course>291.5</course><type>1</type></trkpt>
      <trkpt lat="38.29565572" lon="-2.71008688"><ele>1669</ele><speed>13.50</speed><time>2016-06-02T11:31:19Z</time><pdop>6.0</pdop><geoidheight>51.00</geoidheight><course>289.5</course><type>1</type></trkpt>
      <trkpt lat="38.29569273" lon="-2.71026525"><ele>1664</ele><speed>14.70</speed><time>2016-06-02T11:31:20Z</time><pdop>6.0</pdop><geoidheight>51.00</geoidheight><course>288.6</course><type>1</type></trkpt>
      <trkpt lat="38.29575503" lon="-2.71047187"><ele>1662</ele><speed>16.38</speed><time>2016-06-02T11:31:21Z</time><pdop>7.0</pdop><geoidheight>51.00</geoidheight><course>289.5</course><type>1</type></trkpt>
      <trkpt lat="38.29581378" lon="-2.71068229"><ele>1658</ele><speed>17.23</speed><time>2016-06-02T11:31:22Z</time><pdop>7.0</pdop><geoidheight>51.00</geoidheight><course>290.0</course><type>1</type></trkpt>
      <trkpt lat="38.29587961" lon="-2.71080882"><ele>1654</ele><speed>15.68</speed><time>2016-06-02T11:31:23Z</time><pdop>6.0</pdop><geoidheight>51.00</geoidheight><course>294.0</course><type>1</type></trkpt>
      <trkpt lat="38.29593032" lon="-2.71094173"><ele>1648</ele><speed>14.55</speed><time>2016-06-02T11:31:24Z</time><pdop>6.0</pdop><geoidheight>51.00</geoidheight><course>294.7</course><type>1</type></trkpt>
      <trkpt lat="38.29597925" lon="-2.71109039"><ele>1644</ele><speed>14.46</speed><time>2016-06-02T11:31:25Z</time><pdop>6.0</pdop><geoidheight>51.00</geoidheight><course>292.9</course><type>1</type></trkpt>
      <trkpt lat="38.29603496" lon="-2.7112436"><ele>1641</ele><speed>14.09</speed><time>2016-06-02T11:31:26Z</time><pdop>5.0</pdop><geoidheight>51.00</geoidheight><course>294.2</course><type>1</type></trkpt>
      <trkpt lat="38.29609385" lon="-2.71139521"><ele>1638</ele><speed>14.15</speed><time>2016-06-02T11:31:27Z</time><pdop>5.0</pdop><geoidheight>51.00</geoidheight><course>295.0</course><type>1</type></trkpt>
      <trkpt lat="38.29614698" lon="-2.71153668"><ele>1635</ele><speed>14.13</speed><time>2016-06-02T11:31:28Z</time><pdop>5.0</pdop><geoidheight>51.00</geoidheight><course>297.0</course><type>1</type></trkpt>
      <trkpt lat="38.2962074" lon="-2.71167813"><ele>1634</ele><speed>14.13</speed><time>2016-06-02T11:31:29Z</time><pdop>5.0</pdop><geoidheight>51.00</geoidheight><course>295.9</course><type>1</type></trkpt>
      <trkpt lat="38.29627027" lon="-2.71182277"><ele>1631</ele><speed>14.83</speed><time>2016-06-02T11:31:30Z</time><pdop>5.0</pdop><geoidheight>51.00</geoidheight><course>294.6</course><type>1</type></trkpt>
      <trkpt lat="38.2963401" lon="-2.71197728"><ele>1627</ele><speed>15.01</speed><time>2016-06-02T11:31:31Z</time><pdop>5.0</pdop><geoidheight>51.00</geoidheight><course>297.5</course><type>1</type></trkpt>
      <trkpt lat="38.29639754" lon="-2.71212803"><ele>1624</ele><speed>14.94</speed><time>2016-06-02T11:31:32Z</time><pdop>5.0</pdop><geoidheight>51.00</geoidheight><course>296.4</course><type>1</type></trkpt>
      <trkpt lat="38.29644984" lon="-2.71226479"><ele>1618</ele><speed>15.08</speed><time>2016-06-02T11:31:33Z</time><pdop>5.0</pdop><geoidheight>51.00</geoidheight><course>294.8</course><type>1</type></trkpt>
      <trkpt lat="38.29650467" lon="-2.71242311"><ele>1615</ele><speed>15.73</speed><time>2016-06-02T11:31:34Z</time><pdop>5.0</pdop><geoidheight>51.00</geoidheight><course>293.1</course><type>1</type></trkpt>
      <trkpt lat="38.29657584" lon="-2.71258236"><ele>1611</ele><speed>15.60</speed><time>2016-06-02T11:31:35Z</time><pdop>5.0</pdop><geoidheight>51.00</geoidheight><course>294.8</course><type>1</type></trkpt>
      <trkpt lat="38.29663306" lon="-2.71272309"><ele>1610</ele><speed>14.57</speed><time>2016-06-02T11:31:36Z</time><pdop>5.0</pdop><geoidheight>51.00</geoidheight><course>296.4</course><type>1</type></trkpt>
      <trkpt lat="38.29668192" lon="-2.71285763"><ele>1607</ele><speed>13.65</speed><time>2016-06-02T11:31:37Z</time><pdop>5.0</pdop><geoidheight>51.00</geoidheight><course>297.7</course><type>1</type></trkpt>
      <trkpt lat="38.29673726" lon="-2.71299369"><ele>1606</ele><speed>13.50</speed><time>2016-06-02T11:31:38Z</time><pdop>4.0</pdop><geoidheight>51.00</geoidheight><course>295.2</course><type>1</type></trkpt>
      <trkpt lat="38.29678536" lon="-2.71313703"><ele>1605</ele><speed>13.70</speed><time>2016-06-02T11:31:39Z</time><pdop>5.0</pdop><geoidheight>51.00</geoidheight><course>294.4</course><type>1</type></trkpt>
      <trkpt lat="38.29684834" lon="-2.71329655"><ele>1604</ele><speed>14.60</speed><time>2016-06-02T11:31:40Z</time><pdop>5.0</pdop><geoidheight>51.00</geoidheight><course>295.1</course><type>1</type></trkpt>
      <trkpt lat="38.29689391" lon="-2.71347432"><ele>1602</ele><speed>15.80</speed><time>2016-06-02T11:31:41Z</time><pdop>4.0</pdop><geoidheight>51.00</geoidheight><course>292.2</course><type>1</type></trkpt>
      <trkpt lat="38.29695109" lon="-2.71362646"><ele>1597</ele><speed>15.71</speed><time>2016-06-02T11:31:42Z</time><pdop>4.0</pdop><geoidheight>51.00</geoidheight><course>291.5</course><type>1</type></trkpt>
      <trkpt lat="38.29699592" lon="-2.71378696"><ele>1593</ele><speed>15.27</speed><time>2016-06-02T11:31:43Z</time><pdop>4.0</pdop><geoidheight>51.00</geoidheight><course>289.7</course><type>1</type></trkpt>
      <trkpt lat="38.29704269" lon="-2.71395438"><ele>1591</ele><speed>14.77</speed><time>2016-06-02T11:31:44Z</time><pdop>4.0</pdop><geoidheight>51.00</geoidheight><course>289.7</course><type>1</type></trkpt>
      <trkpt lat="38.29708457" lon="-2.71410101"><ele>1590</ele><speed>13.79</speed><time>2016-06-02T11:31:45Z</time><pdop>4.0</pdop><geoidheight>51.00</geoidheight><course>291.3</course><type>1</type></trkpt>
      <trkpt lat="38.29713617" lon="-2.71423377"><ele>1589</ele><speed>13.35</speed><time>2016-06-02T11:31:46Z</time><pdop>4.0</pdop><geoidheight>51.00</geoidheight><course>291.7</course><type>1</type></trkpt>
      <trkpt lat="38.29717718" lon="-2.71437019"><ele>1587</ele><speed>13.57</speed><time>2016-06-02T11:31:47Z</time><pdop>4.0</pdop><geoidheight>51.00</geoidheight><course>291.4</course><type>1</type></trkpt>
      <trkpt lat="38.29723267" lon="-2.71452986"><ele>1587</ele><speed>14.44</speed><time>2016-06-02T11:31:48Z</time><pdop>5.0</pdop><geoidheight>51.00</geoidheight><course>293.2</course><type>1</type></trkpt>
      <trkpt lat="38.29728339" lon="-2.7146983"><ele>1585</ele><speed>15.36</speed><time>2016-06-02T11:31:49Z</time><pdop>6.0</pdop><geoidheight>51.00</geoidheight><course>293.5</course><type>1</type></trkpt>
      <trkpt lat="38.29733976" lon="-2.7148933"><ele>1584</ele><speed>16.71</speed><time>2016-06-02T11:31:50Z</time><pdop>6.0</pdop><geoidheight>51.00</geoidheight><course>291.2</course><type>1</type></trkpt>
      <trkpt lat="38.29740576" lon="-2.71503689"><ele>1582</ele><speed>15.86</speed><time>2016-06-02T11:31:51Z</time><pdop>5.0</pdop><geoidheight>51.00</geoidheight><course>292.7</course><type>1</type></trkpt>
      <trkpt lat="38.29742913" lon="-2.71519501"><ele>1583</ele><speed>13.35</speed><time>2016-06-02T11:31:52Z</time><pdop>5.0</pdop><geoidheight>51.00</geoidheight><course>287.7</course><type>1</type></trkpt>
      <trkpt lat="38.29747638" lon="-2.715299"><ele>1582</ele><speed>10.70</speed><time>2016-06-02T11:31:53Z</time><pdop>5.0</pdop><geoidheight>51.00</geoidheight><course>294.1</course><type>1</type></trkpt>
      <trkpt lat="38.29750712" lon="-2.71549762"><ele>1581</ele><speed>8.15</speed><time>2016-06-02T11:31:55Z</time><pdop>5.0</pdop><geoidheight>51.00</geoidheight><course>282.0</course><type>1</type></trkpt>
      <trkpt lat="38.29763544" lon="-2.7155118"><ele>1579</ele><speed>6.66</speed><time>2016-06-02T11:31:57Z</time><pdop>6.0</pdop><geoidheight>51.00</geoidheight><course>316.6</course><type>1</type></trkpt>
      <trkpt lat="38.29778826" lon="-2.71557767"><ele>1580</ele><speed>9.58</speed><time>2016-06-02T11:31:59Z</time><pdop>4.0</pdop><geoidheight>51.00</geoidheight><course>329.9</course><type>1</type></trkpt>
      <trkpt lat="38.2978601" lon="-2.71560483"><ele>1581</ele><speed>8.74</speed><time>2016-06-02T11:32:00Z</time><pdop>3.0</pdop><geoidheight>51.00</geoidheight><course>330.6</course><type>1</type></trkpt>
      <trkpt lat="38.29791552" lon="-2.71566667"><ele>1582</ele><speed>7.79</speed><time>2016-06-02T11:32:01Z</time><pdop>3.0</pdop><geoidheight>51.00</geoidheight><course>322.0</course><type>1</type></trkpt>
      <trkpt lat="38.29795639" lon="-2.71573381"><ele>1582</ele><speed>7.11</speed><time>2016-06-02T11:32:02Z</time><pdop>3.0</pdop><geoidheight>51.00</geoidheight><course>311.6</course><type>1</type></trkpt>
      <trkpt lat="38.29798428" lon="-2.7158049"><ele>1583</ele><speed>7.62</speed><time>2016-06-02T11:32:03Z</time><pdop>3.0</pdop><geoidheight>51.00</geoidheight><course>301.2</course><type>1</type></trkpt>
      <trkpt lat="38.29801582" lon="-2.71588458"><ele>1584</ele><speed>8.14</speed><time>2016-06-02T11:32:04Z</time><pdop>3.0</pdop><geoidheight>51.00</geoidheight><course>297.0</course><type>1</type></trkpt>
      <trkpt lat="38.29803753" lon="-2.71597945"><ele>1585</ele><speed>8.54</speed><time>2016-06-02T11:32:05Z</time><pdop>3.0</pdop><geoidheight>51.00</geoidheight><course>291.2</course><type>1</type></trkpt>
      <trkpt lat="38.29805213" lon="-2.71607969"><ele>1586</ele><speed>8.69</speed><time>2016-06-02T11:32:06Z</time><pdop>3.0</pdop><geoidheight>51.00</geoidheight><course>287.7</course><type>1</type></trkpt>
      <trkpt lat="38.29807452" lon="-2.71616505"><ele>1586</ele><speed>8.14</speed><time>2016-06-02T11:32:07Z</time><pdop>3.0</pdop><geoidheight>51.00</geoidheight><course>287.8</course><type>1</type></trkpt>
      <trkpt lat="38.29811333" lon="-2.71624848"><ele>1586</ele><speed>8.49</speed><time>2016-06-02T11:32:08Z</time><pdop>4.0</pdop><geoidheight>51.00</geoidheight><course>294.5</course><type>1</type></trkpt>
      <trkpt lat="38.29815842" lon="-2.71633616"><ele>1586</ele><speed>8.83</speed><time>2016-06-02T11:32:09Z</time><pdop>5.0</pdop><geoidheight>51.00</geoidheight><course>298.5</course><type>1</type></trkpt>
      <trkpt lat="38.29827379" lon="-2.71645318"><ele>1587</ele><speed>8.13</speed><time>2016-06-02T11:32:11Z</time><pdop>7.0</pdop><geoidheight>51.00</geoidheight><course>308.3</course><type>1</type></trkpt>
      <trkpt lat="38.29833931" lon="-2.71656546"><ele>1591</ele><speed>6.15</speed><time>2016-06-02T11:32:13Z</time><pdop>4.0</pdop><geoidheight>51.00</geoidheight><course>297.9</course><type>1</type></trkpt>
      <trkpt lat="38.29838597" lon="-2.71670782"><ele>1591</ele><speed>6.95</speed><time>2016-06-02T11:32:15Z</time><pdop>4.0</pdop><geoidheight>51.00</geoidheight><course>285.4</course><type>1</type></trkpt>
      <trkpt lat="38.2983764" lon="-2.71682934"><ele>1591</ele><speed>8.91</speed><time>2016-06-02T11:32:16Z</time><pdop>5.0</pdop><geoidheight>51.00</geoidheight><course>275.7</course><type>1</type></trkpt>
      <trkpt lat="38.29829448" lon="-2.71696745"><ele>1588</ele><speed>9.91</speed><time>2016-06-02T11:32:17Z</time><pdop>5.0</pdop><geoidheight>51.00</geoidheight><course>258.4</course><type>1</type></trkpt>
      <trkpt lat="38.29818702" lon="-2.71710099"><ele>1590</ele><speed>11.49</speed><time>2016-06-02T11:32:18Z</time><pdop>5.0</pdop><geoidheight>51.00</geoidheight><course>243.5</course><type>1</type></trkpt>
      <trkpt lat="38.29805462" lon="-2.71720064"><ele>1590</ele><speed>12.47</speed><time>2016-06-02T11:32:19Z</time><pdop>6.0</pdop><geoidheight>51.00</geoidheight><course>229.2</course><type>1</type></trkpt>
      <trkpt lat="38.29790518" lon="-2.71720351"><ele>1591</ele><speed>12.35</speed><time>2016-06-02T11:32:20Z</time><pdop>5.0</pdop><geoidheight>51.00</geoidheight><course>206.2</course><type>1</type></trkpt>
      <trkpt lat="38.29779876" lon="-2.71718413"><ele>1593</ele><speed>10.95</speed><time>2016-06-02T11:32:21Z</time><pdop>5.0</pdop><geoidheight>51.00</geoidheight><course>199.9</course><type>1</type></trkpt>
      <trkpt lat="38.29774028" lon="-2.7168811"><ele>1600</ele><speed>9.10</speed><time>2016-06-02T11:32:23Z</time><pdop>4.0</pdop><geoidheight>51.00</geoidheight><course>110.6</course><type>1</type></trkpt>
      <trkpt lat="38.29770846" lon="-2.71675424"><ele>1602</ele><speed>10.03</speed><time>2016-06-02T11:32:24Z</time><pdop>4.0</pdop><geoidheight>51.00</geoidheight><course>107.4</course><type>1</type></trkpt>
      <trkpt lat="38.29769449" lon="-2.71662328"><ele>1602</ele><speed>10.89</speed><time>2016-06-02T11:32:25Z</time><pdop>3.0</pdop><geoidheight>51.00</geoidheight><course>100.1</course><type>1</type></trkpt>
      <trkpt lat="38.29769241" lon="-2.71648558"><ele>1605</ele><speed>10.96</speed><time>2016-06-02T11:32:26Z</time><pdop>3.0</pdop><geoidheight>51.00</geoidheight><course>89.1</course><type>1</type></trkpt>
      <trkpt lat="38.29771515" lon="-2.71636649"><ele>1608</ele><speed>9.88</speed><time>2016-06-02T11:32:27Z</time><pdop>3.0</pdop><geoidheight>51.00</geoidheight><course>75.4</course><type>1</type></trkpt>
      <trkpt lat="38.29775781" lon="-2.71628595"><ele>1608</ele><speed>8.23</speed><time>2016-06-02T11:32:28Z</time><pdop>4.0</pdop><geoidheight>51.00</geoidheight><course>58.3</course><type>1</type></trkpt>
      <trkpt lat="38.2978133" lon="-2.71616289"><ele>1610</ele><speed>6.01</speed><time>2016-06-02T11:32:30Z</time><pdop>7.0</pdop><geoidheight>51.00</geoidheight><course>59.3</course><type>1</type></trkpt>
      <trkpt lat="38.297981" lon="-2.71640994"><ele>1609</ele><speed>5.63</speed><time>2016-06-02T11:32:33Z</time><pdop>10.0</pdop><geoidheight>51.00</geoidheight><course>307.7</course><type>1</type></trkpt>
      <trkpt lat="38.29787837" lon="-2.71677828"><ele>1614</ele><speed>6.09</speed><time>2016-06-02T11:32:36Z</time><pdop>14.0</pdop><geoidheight>51.00</geoidheight><course>248.7</course><type>1</type></trkpt>
      <trkpt lat="38.29758371" lon="-2.71677195"><ele>1618</ele><speed>9.84</speed><time>2016-06-02T11:32:38Z</time><pdop>11.0</pdop><geoidheight>51.00</geoidheight><course>191.1</course><type>1</type></trkpt>
      <trkpt lat="38.29743183" lon="-2.71657379"><ele>1620</ele><speed>9.14</speed><time>2016-06-02T11:32:40Z</time><pdop>9.0</pdop><geoidheight>51.00</geoidheight><course>135.9</course><type>1</type></trkpt>
      <trkpt lat="38.2973735" lon="-2.71624167"><ele>1627</ele><speed>10.69</speed><time>2016-06-02T11:32:42Z</time><pdop>6.0</pdop><geoidheight>51.00</geoidheight><course>93.1</course><type>1</type></trkpt>
      <trkpt lat="38.29738982" lon="-2.71610417"><ele>1632</ele><speed>10.02</speed><time>2016-06-02T11:32:43Z</time><pdop>5.0</pdop><geoidheight>51.00</geoidheight><course>75.0</course><type>1</type></trkpt>
      <trkpt lat="38.29748406" lon="-2.71594141"><ele>1636</ele><speed>7.96</speed><time>2016-06-02T11:32:45Z</time><pdop>5.0</pdop><geoidheight>51.00</geoidheight><course>47.6</course><type>1</type></trkpt>
      <trkpt lat="38.2976102" lon="-2.71593895"><ele>1640</ele><speed>6.33</speed><time>2016-06-02T11:32:47Z</time><pdop>7.0</pdop><geoidheight>51.00</geoidheight><course>2.0</course><type>1</type></trkpt>
      <trkpt lat="38.29773576" lon="-2.71610572"><ele>1641</ele><speed>7.74</speed><time>2016-06-02T11:32:49Z</time><pdop>7.0</pdop><geoidheight>51.00</geoidheight><course>313.3</course><type>1</type></trkpt>
      <trkpt lat="38.29777243" lon="-2.71634134"><ele>1643</ele><speed>8.78</speed><time>2016-06-02T11:32:51Z</time><pdop>9.0</pdop><geoidheight>51.00</geoidheight><course>291.3</course><type>1</type></trkpt>
      <trkpt lat="38.29756303" lon="-2.7165181"><ele>1651</ele><speed>10.51</speed><time>2016-06-02T11:32:53Z</time><pdop>7.0</pdop><geoidheight>51.00</geoidheight><course>218.1</course><type>1</type></trkpt>
      <trkpt lat="38.29733974" lon="-2.7165909"><ele>1655</ele><speed>12.83</speed><time>2016-06-02T11:32:55Z</time><pdop>6.0</pdop><geoidheight>51.00</geoidheight><course>189.7</course><type>1</type></trkpt>
      <trkpt lat="38.2972297" lon="-2.71659056"><ele>1657</ele><speed>12.69</speed><time>2016-06-02T11:32:56Z</time><pdop>6.0</pdop><geoidheight>51.00</geoidheight><course>182.7</course><type>1</type></trkpt>
      <trkpt lat="38.29705807" lon="-2.71653451"><ele>1660</ele><speed>10.02</speed><time>2016-06-02T11:32:58Z</time><pdop>9.0</pdop><geoidheight>51.00</geoidheight><course>172.9</course><type>1</type></trkpt>
      <trkpt lat="38.29699773" lon="-2.71631135"><ele>1663</ele><speed>8.16</speed><time>2016-06-02T11:33:00Z</time><pdop>10.0</pdop><geoidheight>51.00</geoidheight><course>129.7</course><type>1</type></trkpt>
      <trkpt lat="38.29697203" lon="-2.71609046"><ele>1665</ele><speed>10.44</speed><time>2016-06-02T11:33:01Z</time><pdop>8.0</pdop><geoidheight>51.00</geoidheight><course>108.5</course><type>1</type></trkpt>
      <trkpt lat="38.29703162" lon="-2.71580514"><ele>1674</ele><speed>10.59</speed><time>2016-06-02T11:33:03Z</time><pdop>6.0</pdop><geoidheight>51.00</geoidheight><course>74.1</course><type>1</type></trkpt>
      <trkpt lat="38.29710838" lon="-2.71562475"><ele>1679</ele><speed>7.57</speed><time>2016-06-02T11:33:05Z</time><pdop>5.0</pdop><geoidheight>51.00</geoidheight><course>49.1</course><type>1</type></trkpt>
      <trkpt lat="38.29725521" lon="-2.71556722"><ele>1682</ele><speed>7.77</speed><time>2016-06-02T11:33:07Z</time><pdop>4.0</pdop><geoidheight>51.00</geoidheight><course>6.9</course><type>1</type></trkpt>
      <trkpt lat="38.29733719" lon="-2.71556088"><ele>1687</ele><speed>8.26</speed><time>2016-06-02T11:33:08Z</time><pdop>4.0</pdop><geoidheight>51.00</geoidheight><course>353.0</course><type>1</type></trkpt>
      <trkpt lat="38.29741257" lon="-2.71559491"><ele>1689</ele><speed>8.53</speed><time>2016-06-02T11:33:09Z</time><pdop>4.0</pdop><geoidheight>51.00</geoidheight><course>337.7</course><type>1</type></trkpt>
      <trkpt lat="38.29753115" lon="-2.71571595"><ele>1692</ele><speed>9.18</speed><time>2016-06-02T11:33:11Z</time><pdop>4.0</pdop><geoidheight>51.00</geoidheight><course>316.7</course><type>1</type></trkpt>
      <trkpt lat="38.29758086" lon="-2.71580449"><ele>1692</ele><speed>9.34</speed><time>2016-06-02T11:33:12Z</time><pdop>5.0</pdop><geoidheight>51.00</geoidheight><course>311.1</course><type>1</type></trkpt>
      <trkpt lat="38.29761958" lon="-2.71593245"><ele>1692</ele><speed>10.27</speed><time>2016-06-02T11:33:13Z</time><pdop>6.0</pdop><geoidheight>51.00</geoidheight><course>301.6</course><type>1</type></trkpt>
      <trkpt lat="38.29757267" lon="-2.71611534"><ele>1695</ele><speed>7.23</speed><time>2016-06-02T11:33:15Z</time><pdop>6.0</pdop><geoidheight>51.00</geoidheight><course>270.2</course><type>1</type></trkpt>
      <trkpt lat="38.29747579" lon="-2.71621477"><ele>1697</ele><speed>8.07</speed><time>2016-06-02T11:33:16Z</time><pdop>6.0</pdop><geoidheight>51.00</geoidheight><course>236.5</course><type>1</type></trkpt>
      <trkpt lat="38.29736506" lon="-2.71626744"><ele>1700</ele><speed>9.72</speed><time>2016-06-02T11:33:17Z</time><pdop>5.0</pdop><geoidheight>51.00</geoidheight><course>207.2</course><type>1</type></trkpt>
      <trkpt lat="38.29727537" lon="-2.71632412"><ele>1703</ele><speed>10.29</speed><time>2016-06-02T11:33:18Z</time><pdop>5.0</pdop><geoidheight>51.00</geoidheight><course>200.2</course><type>1</type></trkpt>
      <trkpt lat="38.29717632" lon="-2.71636711"><ele>1704</ele><speed>10.83</speed><time>2016-06-02T11:33:19Z</time><pdop>5.0</pdop><geoidheight>51.00</geoidheight><course>197.7</course><type>1</type></trkpt>
      <trkpt lat="38.29699486" lon="-2.71637567"><ele>1705</ele><speed>10.60</speed><time>2016-06-02T11:33:21Z</time><pdop>7.0</pdop><geoidheight>51.00</geoidheight><course>185.7</course><type>1</type></trkpt>
      <trkpt lat="38.29681168" lon="-2.71631301"><ele>1706</ele><speed>10.44</speed><time>2016-06-02T11:33:23Z</time><pdop>9.0</pdop><geoidheight>51.00</geoidheight><course>172.3</course><type>1</type></trkpt>
      <trkpt lat="38.29660673" lon="-2.71601897"><ele>1713</ele><speed>12.92</speed><time>2016-06-02T11:33:25Z</time><pdop>9.0</pdop><geoidheight>51.00</geoidheight><course>144.2</course><type>1</type></trkpt>
      <trkpt lat="38.29664144" lon="-2.71577568"><ele>1717</ele><speed>8.87</speed><time>2016-06-02T11:33:27Z</time><pdop>8.0</pdop><geoidheight>51.00</geoidheight><course>105.9</course><type>1</type></trkpt>
      <trkpt lat="38.29677521" lon="-2.7155871"><ele>1725</ele><speed>5.18</speed><time>2016-06-02T11:33:30Z</time><pdop>13.0</pdop><geoidheight>51.00</geoidheight><course>61.3</course><type>1</type></trkpt>
      <trkpt lat="38.29695432" lon="-2.71570589"><ele>1726</ele><speed>4.46</speed><time>2016-06-02T11:33:32Z</time><pdop>9.0</pdop><geoidheight>51.00</geoidheight><course>335.5</course><type>1</type></trkpt>
      <trkpt lat="38.29687824" lon="-2.7159332"><ele>1737</ele><speed>7.07</speed><time>2016-06-02T11:33:35Z</time><pdop>9.0</pdop><geoidheight>51.00</geoidheight><course>211.2</course><type>1</type></trkpt>
      <trkpt lat="38.29667492" lon="-2.71600999"><ele>1742</ele><speed>10.44</speed><time>2016-06-02T11:33:38Z</time><pdop>7.0</pdop><geoidheight>51.00</geoidheight><course>180.1</course><type>1</type></trkpt>
      <trkpt lat="38.29649919" lon="-2.71594258"><ele>2008</ele><speed>11.19</speed><time>2016-06-02T11:33:40Z</time><pdop>7.0</pdop><geoidheight>51.00</geoidheight><course>159.6</course><type>1</type></trkpt>
      <trkpt lat="38.29640802" lon="-2.71581003"><ele>1953</ele><speed>13.23</speed><time>2016-06-02T11:33:41Z</time><pdop>6.0</pdop><geoidheight>51.00</geoidheight><course>143.0</course><type>1</type></trkpt>
      <trkpt lat="38.29633405" lon="-2.7157159"><ele>1888</ele><speed>13.26</speed><time>2016-06-02T11:33:42Z</time><pdop>5.0</pdop><geoidheight>51.00</geoidheight><course>132.7</course><type>1</type></trkpt>
      <trkpt lat="38.29627554" lon="-2.71558805"><ele>1847</ele><speed>13.34</speed><time>2016-06-02T11:33:43Z</time><pdop>4.0</pdop><geoidheight>51.00</geoidheight><course>118.6</course><type>1</type></trkpt>
      <trkpt lat="38.29623142" lon="-2.7154535"><ele>1828</ele><speed>13.31</speed><time>2016-06-02T11:33:44Z</time><pdop>4.0</pdop><geoidheight>51.00</geoidheight><course>110.5</course><type>1</type></trkpt>
      <trkpt lat="38.29623352" lon="-2.71533899"><ele>1808</ele><speed>12.44</speed><time>2016-06-02T11:33:45Z</time><pdop>3.0</pdop><geoidheight>51.00</geoidheight><course>95.0</course><type>1</type></trkpt>
      <trkpt lat="38.29623475" lon="-2.71522674"><ele>1805</ele><speed>11.58</speed><time>2016-06-02T11:33:46Z</time><pdop>3.0</pdop><geoidheight>51.00</geoidheight><course>89.5</course><type>1</type></trkpt>
      <trkpt lat="38.29625691" lon="-2.71511404"><ele>1795</ele><speed>10.44</speed><time>2016-06-02T11:33:47Z</time><pdop>3.0</pdop><geoidheight>51.00</geoidheight><course>79.8</course><type>1</type></trkpt>
      <trkpt lat="38.29627934" lon="-2.71500637"><ele>1794</ele><speed>9.41</speed><time>2016-06-02T11:33:48Z</time><pdop>3.0</pdop><geoidheight>51.00</geoidheight><course>67.3</course><type>1</type></trkpt>
      <trkpt lat="38.29632776" lon="-2.71492855"><ele>1794</ele><speed>8.48</speed><time>2016-06-02T11:33:49Z</time><pdop>4.0</pdop><geoidheight>51.00</geoidheight><course>53.2</course><type>1</type></trkpt>
      <trkpt lat="38.29641162" lon="-2.71489258"><ele>1795</ele><speed>8.44</speed><time>2016-06-02T11:33:50Z</time><pdop>4.0</pdop><geoidheight>51.00</geoidheight><course>27.0</course><type>1</type></trkpt>
      <trkpt lat="38.29648415" lon="-2.71488867"><ele>1796</ele><speed>7.51</speed><time>2016-06-02T11:33:51Z</time><pdop>4.0</pdop><geoidheight>51.00</geoidheight><course>6.5</course><type>1</type></trkpt>
      <trkpt lat="38.2966278" lon="-2.7149444"><ele>1795</ele><speed>7.92</speed><time>2016-06-02T11:33:53Z</time><pdop>6.0</pdop><geoidheight>51.00</geoidheight><course>335.1</course><type>1</type></trkpt>
      <trkpt lat="38.29671897" lon="-2.71513587"><ele>1793</ele><speed>8.88</speed><time>2016-06-02T11:33:55Z</time><pdop>6.0</pdop><geoidheight>51.00</geoidheight><course>310.5</course><type>1</type></trkpt>
      <trkpt lat="38.29660589" lon="-2.71522497"><ele>1796</ele><speed>7.56</speed><time>2016-06-02T11:33:56Z</time><pdop>4.0</pdop><geoidheight>51.00</geoidheight><course>248.8</course><type>1</type></trkpt>
      <trkpt lat="38.29655897" lon="-2.71530907"><ele>1800</ele><speed>8.18</speed><time>2016-06-02T11:33:57Z</time><pdop>4.0</pdop><geoidheight>51.00</geoidheight><course>236.9</course><type>1</type></trkpt>
      <trkpt lat="38.29650685" lon="-2.71539302"><ele>1801</ele><speed>9.51</speed><time>2016-06-02T11:33:58Z</time><pdop>4.0</pdop><geoidheight>51.00</geoidheight><course>224.1</course><type>1</type></trkpt>
      <trkpt lat="38.29643004" lon="-2.71546147"><ele>1801</ele><speed>10.44</speed><time>2016-06-02T11:33:59Z</time><pdop>4.0</pdop><geoidheight>51.00</geoidheight><course>212.4</course><type>1</type></trkpt>
      <trkpt lat="38.29633484" lon="-2.71552218"><ele>1802</ele><speed>10.94</speed><time>2016-06-02T11:34:00Z</time><pdop>4.0</pdop><geoidheight>51.00</geoidheight><course>208.1</course><type>1</type></trkpt>
      <trkpt lat="38.29624336" lon="-2.71557934"><ele>1802</ele><speed>11.37</speed><time>2016-06-02T11:34:01Z</time><pdop>5.0</pdop><geoidheight>51.00</geoidheight><course>205.4</course><type>1</type></trkpt>
      <trkpt lat="38.29615326" lon="-2.71555474"><ele>1803</ele><speed>10.67</speed><time>2016-06-02T11:34:02Z</time><pdop>5.0</pdop><geoidheight>51.00</geoidheight><course>191.0</course><type>1</type></trkpt>
      <trkpt lat="38.29606056" lon="-2.71556407"><ele>1805</ele><speed>9.96</speed><time>2016-06-02T11:34:03Z</time><pdop>5.0</pdop><geoidheight>51.00</geoidheight><course>188.3</course><type>1</type></trkpt>
      <trkpt lat="38.29597711" lon="-2.71546347"><ele>1805</ele><speed>10.37</speed><time>2016-06-02T11:34:04Z</time><pdop>4.0</pdop><geoidheight>51.00</geoidheight><course>156.4</course><type>1</type></trkpt>
      <trkpt lat="38.29590085" lon="-2.71538727"><ele>1805</ele><speed>11.37</speed><time>2016-06-02T11:34:05Z</time><pdop>3.0</pdop><geoidheight>51.00</geoidheight><course>142.9</course><type>1</type></trkpt>
      <trkpt lat="38.29582338" lon="-2.71526446"><ele>1805</ele><speed>12.57</speed><time>2016-06-02T11:34:06Z</time><pdop>3.0</pdop><geoidheight>51.00</geoidheight><course>131.5</course><type>1</type></trkpt>
      <trkpt lat="38.29575946" lon="-2.71512714"><ele>1806</ele><speed>12.87</speed><time>2016-06-02T11:34:07Z</time><pdop>3.0</pdop><geoidheight>51.00</geoidheight><course>120.1</course><type>1</type></trkpt>
      <trkpt lat="38.29572384" lon="-2.71498552"><ele>1807</ele><speed>12.60</speed><time>2016-06-02T11:34:08Z</time><pdop>3.0</pdop><geoidheight>51.00</geoidheight><course>109.2</course><type>1</type></trkpt>
      <trkpt lat="38.29570032" lon="-2.71484552"><ele>1808</ele><speed>12.32</speed><time>2016-06-02T11:34:09Z</time><pdop>3.0</pdop><geoidheight>51.00</geoidheight><course>101.2</course><type>1</type></trkpt>
      <trkpt lat="38.29569234" lon="-2.71470675"><ele>1810</ele><speed>11.62</speed><time>2016-06-02T11:34:10Z</time><pdop>3.0</pdop><geoidheight>51.00</geoidheight><course>92.0</course><type>1</type></trkpt>
      <trkpt lat="38.29570835" lon="-2.71457726"><ele>1811</ele><speed>10.97</speed><time>2016-06-02T11:34:11Z</time><pdop>3.0</pdop><geoidheight>51.00</geoidheight><course>81.3</course><type>1</type></trkpt>
      <trkpt lat="38.29575281" lon="-2.71447404"><ele>1813</ele><speed>10.52</speed><time>2016-06-02T11:34:12Z</time><pdop>3.0</pdop><geoidheight>51.00</geoidheight><course>63.8</course><type>1</type></trkpt>
      <trkpt lat="38.29580453" lon="-2.71437901"><ele>1814</ele><speed>9.53</speed><time>2016-06-02T11:34:13Z</time><pdop>4.0</pdop><geoidheight>51.00</geoidheight><course>52.1</course><type>1</type></trkpt>
      <trkpt lat="38.2959554" lon="-2.71427799"><ele>1817</ele><speed>9.57</speed><time>2016-06-02T11:34:15Z</time><pdop>4.0</pdop><geoidheight>51.00</geoidheight><course>25.2</course><type>1</type></trkpt>
      <trkpt lat="38.29603114" lon="-2.71423295"><ele>1819</ele><speed>8.66</speed><time>2016-06-02T11:34:16Z</time><pdop>5.0</pdop><geoidheight>51.00</geoidheight><course>26.4</course><type>1</type></trkpt>
      <trkpt lat="38.29614121" lon="-2.71414953"><ele>1822</ele><speed>7.00</speed><time>2016-06-02T11:34:18Z</time><pdop>6.0</pdop><geoidheight>51.00</geoidheight><course>27.6</course><type>1</type></trkpt>
      <trkpt lat="38.29635068" lon="-2.71412389"><ele>1823</ele><speed>8.51</speed><time>2016-06-02T11:34:21Z</time><pdop>7.0</pdop><geoidheight>51.00</geoidheight><course>0.6</course><type>1</type></trkpt>
      <trkpt lat="38.29652008" lon="-2.71422899"><ele>1826</ele><speed>9.45</speed><time>2016-06-02T11:34:23Z</time><pdop>8.0</pdop><geoidheight>51.00</geoidheight><course>335.3</course><type>1</type></trkpt>
      <trkpt lat="38.2965398" lon="-2.71441278"><ele>1836</ele><speed>5.84</speed><time>2016-06-02T11:34:26Z</time><pdop>6.0</pdop><geoidheight>51.00</geoidheight><course>266.7</course><type>1</type></trkpt>
      <trkpt lat="38.29653956" lon="-2.71459916"><ele>1837</ele><speed>7.55</speed><time>2016-06-02T11:34:28Z</time><pdop>6.0</pdop><geoidheight>51.00</geoidheight><course>276.3</course><type>1</type></trkpt>
      <trkpt lat="38.29659968" lon="-2.71478923"><ele>1842</ele><speed>8.64</speed><time>2016-06-02T11:34:30Z</time><pdop>5.0</pdop><geoidheight>51.00</geoidheight><course>300.9</course><type>1</type></trkpt>
      <trkpt lat="38.29673238" lon="-2.71486995"><ele>1849</ele><speed>7.53</speed><time>2016-06-02T11:34:32Z</time><pdop>4.0</pdop><geoidheight>51.00</geoidheight><course>355.7</course><type>1</type></trkpt>
      <trkpt lat="38.29686518" lon="-2.71484024"><ele>1853</ele><speed>7.43</speed><time>2016-06-02T11:34:34Z</time><pdop>6.0</pdop><geoidheight>51.00</geoidheight><course>11.0</course><type>1</type></trkpt>
      <trkpt lat="38.29695964" lon="-2.7146487"><ele>1852</ele><speed>8.37</speed><time>2016-06-02T11:34:36Z</time><pdop>7.0</pdop><geoidheight>51.00</geoidheight><course>47.5</course><type>1</type></trkpt>
      <trkpt lat="38.29694455" lon="-2.71447386"><ele>1853</ele><speed>9.28</speed><time>2016-06-02T11:34:37Z</time><pdop>7.0</pdop><geoidheight>51.00</geoidheight><course>76.8</course><type>1</type></trkpt>
      <trkpt lat="38.29691152" lon="-2.71426296"><ele>1854</ele><speed>11.79</speed><time>2016-06-02T11:34:38Z</time><pdop>6.0</pdop><geoidheight>51.00</geoidheight><course>93.5</course><type>1</type></trkpt>
      <trkpt lat="38.29679969" lon="-2.71413815"><ele>1856</ele><speed>12.67</speed><time>2016-06-02T11:34:39Z</time><pdop>4.0</pdop><geoidheight>51.00</geoidheight><course>126.3</course><type>1</type></trkpt>
      <trkpt lat="38.29671189" lon="-2.71402161"><ele>1857</ele><speed>13.02</speed><time>2016-06-02T11:34:40Z</time><pdop>4.0</pdop><geoidheight>51.00</geoidheight><course>137.8</course><type>1</type></trkpt>
      <trkpt lat="38.29660715" lon="-2.71394378"><ele>1859</ele><speed>13.08</speed><time>2016-06-02T11:34:41Z</time><pdop>4.0</pdop><geoidheight>51.00</geoidheight><course>148.3</course><type>1</type></trkpt>
      <trkpt lat="38.29648689" lon="-2.71386927"><ele>1860</ele><speed>13.46</speed><time>2016-06-02T11:34:42Z</time><pdop>4.0</pdop><geoidheight>51.00</geoidheight><course>155.7</course><type>1</type></trkpt>
      <trkpt lat="38.29636977" lon="-2.71379998"><ele>1865</ele><speed>13.57</speed><time>2016-06-02T11:34:43Z</time><pdop>3.0</pdop><geoidheight>51.00</geoidheight><course>159.8</course><type>1</type></trkpt>
      <trkpt lat="38.2962545" lon="-2.71374424"><ele>1869</ele><speed>13.56</speed><time>2016-06-02T11:34:44Z</time><pdop>3.0</pdop><geoidheight>51.00</geoidheight><course>161.2</course><type>1</type></trkpt>
      <trkpt lat="38.29614922" lon="-2.7136892"><ele>1873</ele><speed>12.45</speed><time>2016-06-02T11:34:45Z</time><pdop>3.0</pdop><geoidheight>51.00</geoidheight><course>163.2</course><type>1</type></trkpt>
      <trkpt lat="38.29605501" lon="-2.71366171"><ele>1877</ele><speed>10.75</speed><time>2016-06-02T11:34:46Z</time><pdop>3.0</pdop><geoidheight>51.00</geoidheight><course>167.8</course><type>1</type></trkpt>
      <trkpt lat="38.29597987" lon="-2.71365994"><ele>1880</ele><speed>9.09</speed><time>2016-06-02T11:34:47Z</time><pdop>3.0</pdop><geoidheight>51.00</geoidheight><course>176.0</course><type>1</type></trkpt>
      <trkpt lat="38.29590973" lon="-2.71367636"><ele>1881</ele><speed>8.43</speed><time>2016-06-02T11:34:48Z</time><pdop>3.0</pdop><geoidheight>51.00</geoidheight><course>188.8</course><type>1</type></trkpt>
      <trkpt lat="38.29583503" lon="-2.71369081"><ele>1882</ele><speed>8.39</speed><time>2016-06-02T11:34:49Z</time><pdop>4.0</pdop><geoidheight>51.00</geoidheight><course>188.7</course><type>1</type></trkpt>
      <trkpt lat="38.29576557" lon="-2.71376354"><ele>1883</ele><speed>9.07</speed><time>2016-06-02T11:34:50Z</time><pdop>4.0</pdop><geoidheight>51.00</geoidheight><course>218.9</course><type>1</type></trkpt>
      <trkpt lat="38.29572284" lon="-2.71383993"><ele>1885</ele><speed>8.26</speed><time>2016-06-02T11:34:51Z</time><pdop>4.0</pdop><geoidheight>51.00</geoidheight><course>240.8</course><type>1</type></trkpt>
      <trkpt lat="38.29571029" lon="-2.71395651"><ele>1890</ele><speed>6.32</speed><time>2016-06-02T11:34:53Z</time><pdop>4.0</pdop><geoidheight>51.00</geoidheight><course>285.7</course><type>1</type></trkpt>
      <trkpt lat="38.29575444" lon="-2.71410563"><ele>1891</ele><speed>6.96</speed><time>2016-06-02T11:34:55Z</time><pdop>7.0</pdop><geoidheight>51.00</geoidheight><course>291.0</course><type>1</type></trkpt>
      <trkpt lat="38.29588162" lon="-2.71409999"><ele>1885</ele><speed>7.17</speed><time>2016-06-02T11:34:57Z</time><pdop>6.0</pdop><geoidheight>51.00</geoidheight><course>353.1</course><type>1</type></trkpt>
      <trkpt lat="38.29600488" lon="-2.71410504"><ele>1892</ele><speed>8.20</speed><time>2016-06-02T11:34:59Z</time><pdop>6.0</pdop><geoidheight>51.00</geoidheight><course>3.7</course><type>1</type></trkpt>
      <trkpt lat="38.29609946" lon="-2.71401763"><ele>1895</ele><speed>7.79</speed><time>2016-06-02T11:35:01Z</time><pdop>6.0</pdop><geoidheight>51.00</geoidheight><course>40.4</course><type>1</type></trkpt>
      <trkpt lat="38.29616866" lon="-2.71380477"><ele>1901</ele><speed>11.36</speed><time>2016-06-02T11:35:03Z</time><pdop>6.0</pdop><geoidheight>51.00</geoidheight><course>77.4</course><type>1</type></trkpt>
      <trkpt lat="38.29617355" lon="-2.71364887"><ele>1903</ele><speed>13.07</speed><time>2016-06-02T11:35:04Z</time><pdop>6.0</pdop><geoidheight>51.00</geoidheight><course>91.5</course><type>1</type></trkpt>
      <trkpt lat="38.29617117" lon="-2.71349158"><ele>1904</ele><speed>13.17</speed><time>2016-06-02T11:35:05Z</time><pdop>6.0</pdop><geoidheight>51.00</geoidheight><course>98.5</course><type>1</type></trkpt>
      <trkpt lat="38.29616483" lon="-2.71333174"><ele>1909</ele><speed>13.32</speed><time>2016-06-02T11:35:06Z</time><pdop>5.0</pdop><geoidheight>51.00</geoidheight><course>103.6</course><type>1</type></trkpt>
      <trkpt lat="38.2961142" lon="-2.71317804"><ele>1912</ele><speed>12.91</speed><time>2016-06-02T11:35:07Z</time><pdop>5.0</pdop><geoidheight>51.00</geoidheight><course>112.2</course><type>1</type></trkpt>
      <trkpt lat="38.29606582" lon="-2.71304453"><ele>1915</ele><speed>12.70</speed><time>2016-06-02T11:35:08Z</time><pdop>4.0</pdop><geoidheight>51.00</geoidheight><course>123.6</course><type>1</type></trkpt>
      <trkpt lat="38.29600322" lon="-2.7129248"><ele>1917</ele><speed>12.60</speed><time>2016-06-02T11:35:09Z</time><pdop>5.0</pdop><geoidheight>51.00</geoidheight><course>123.6</course><type>1</type></trkpt>
      <trkpt lat="38.29590365" lon="-2.71283854"><ele>1922</ele><speed>13.45</speed><time>2016-06-02T11:35:10Z</time><pdop>4.0</pdop><geoidheight>51.00</geoidheight><course>139.9</course><type>1</type></trkpt>
      <trkpt lat="38.29580793" lon="-2.71276247"><ele>1924</ele><speed>11.75</speed><time>2016-06-02T11:35:11Z</time><pdop>4.0</pdop><geoidheight>51.00</geoidheight><course>149.8</course><type>1</type></trkpt>
      <trkpt lat="38.29571839" lon="-2.71269651"><ele>1926</ele><speed>11.58</speed><time>2016-06-02T11:35:12Z</time><pdop>5.0</pdop><geoidheight>51.00</geoidheight><course>149.8</course><type>1</type></trkpt>
      <trkpt lat="38.29559163" lon="-2.7126975"><ele>1931</ele><speed>7.80</speed><time>2016-06-02T11:35:14Z</time><pdop>5.0</pdop><geoidheight>51.00</geoidheight><course>176.7</course><type>1</type></trkpt>
      <trkpt lat="38.29543944" lon="-2.71276527"><ele>1934</ele><speed>8.86</speed><time>2016-06-02T11:35:16Z</time><pdop>5.0</pdop><geoidheight>51.00</geoidheight><course>202.4</course><type>1</type></trkpt>
      <trkpt lat="38.2953557" lon="-2.71292538"><ele>1934</ele><speed>8.18</speed><time>2016-06-02T11:35:18Z</time><pdop>8.0</pdop><geoidheight>51.00</geoidheight><course>235.6</course><type>1</type></trkpt>
      <trkpt lat="38.29535326" lon="-2.71313736"><ele>1940</ele><speed>6.46</speed><time>2016-06-02T11:35:21Z</time><pdop>8.0</pdop><geoidheight>51.00</geoidheight><course>290.9</course><type>1</type></trkpt>
      <trkpt lat="38.29552198" lon="-2.71325021"><ele>1943</ele><speed>8.07</speed><time>2016-06-02T11:35:24Z</time><pdop>7.0</pdop><geoidheight>51.00</geoidheight><course>337.5</course><type>1</type></trkpt>
      <trkpt lat="38.29565612" lon="-2.71332114"><ele>1941</ele><speed>7.86</speed><time>2016-06-02T11:35:26Z</time><pdop>6.0</pdop><geoidheight>51.00</geoidheight><course>341.3</course><type>1</type></trkpt>
      <trkpt lat="38.29581397" lon="-2.71337772"><ele>1945</ele><speed>7.51</speed><time>2016-06-02T11:35:29Z</time><pdop>5.0</pdop><geoidheight>51.00</geoidheight><course>6.8</course><type>1</type></trkpt>
      <trkpt lat="38.29595436" lon="-2.71332017"><ele>1945</ele><speed>8.46</speed><time>2016-06-02T11:35:31Z</time><pdop>6.0</pdop><geoidheight>51.00</geoidheight><course>22.5</course><type>1</type></trkpt>
      <trkpt lat="38.29602235" lon="-2.71319856"><ele>1946</ele><speed>12.03</speed><time>2016-06-02T11:35:32Z</time><pdop>5.0</pdop><geoidheight>51.00</geoidheight><course>49.6</course><type>1</type></trkpt>
      <trkpt lat="38.29614401" lon="-2.71293362"><ele>1948</ele><speed>14.09</speed><time>2016-06-02T11:35:34Z</time><pdop>5.0</pdop><geoidheight>51.00</geoidheight><course>68.7</course><type>1</type></trkpt>
      <trkpt lat="38.29615188" lon="-2.71278123"><ele>1949</ele><speed>13.82</speed><time>2016-06-02T11:35:35Z</time><pdop>5.0</pdop><geoidheight>51.00</geoidheight><course>86.9</course><type>1</type></trkpt>
      <trkpt lat="38.29614471" lon="-2.7126258"><ele>1950</ele><speed>13.47</speed><time>2016-06-02T11:35:36Z</time><pdop>5.0</pdop><geoidheight>51.00</geoidheight><course>99.4</course><type>1</type></trkpt>
      <trkpt lat="38.29610757" lon="-2.71245528"><ele>1953</ele><speed>13.47</speed><time>2016-06-02T11:35:37Z</time><pdop>5.0</pdop><geoidheight>51.00</geoidheight><course>108.5</course><type>1</type></trkpt>
      <trkpt lat="38.29605867" lon="-2.71230868"><ele>1956</ele><speed>13.72</speed><time>2016-06-02T11:35:38Z</time><pdop>5.0</pdop><geoidheight>51.00</geoidheight><course>114.2</course><type>1</type></trkpt>
      <trkpt lat="38.29600834" lon="-2.71216663"><ele>1957</ele><speed>13.64</speed><time>2016-06-02T11:35:39Z</time><pdop>5.0</pdop><geoidheight>51.00</geoidheight><course>114.2</course><type>1</type></trkpt>
      <trkpt lat="38.29593495" lon="-2.71203593"><ele>1962</ele><speed>13.79</speed><time>2016-06-02T11:35:40Z</time><pdop>4.0</pdop><geoidheight>51.00</geoidheight><course>123.4</course><type>1</type></trkpt>
      <trkpt lat="38.29586036" lon="-2.71190616"><ele>1964</ele><speed>13.58</speed><time>2016-06-02T11:35:41Z</time><pdop>5.0</pdop><geoidheight>51.00</geoidheight><course>129.1</course><type>1</type></trkpt>
      <trkpt lat="38.295783" lon="-2.71181185"><ele>1966</ele><speed>13.34</speed><time>2016-06-02T11:35:42Z</time><pdop>5.0</pdop><geoidheight>51.00</geoidheight><course>135.6</course><type>1</type></trkpt>
      <trkpt lat="38.29569773" lon="-2.71170596"><ele>1966</ele><speed>13.27</speed><time>2016-06-02T11:35:43Z</time><pdop>6.0</pdop><geoidheight>51.00</geoidheight><course>135.6</course><type>1</type></trkpt>
      <trkpt lat="38.29554046" lon="-2.71169396"><ele>1969</ele><speed>9.16</speed><time>2016-06-02T11:35:45Z</time><pdop>5.0</pdop><geoidheight>51.00</geoidheight><course>184.3</course><type>1</type></trkpt>
      <trkpt lat="38.29539449" lon="-2.71172578"><ele>1970</ele><speed>8.04</speed><time>2016-06-02T11:35:47Z</time><pdop>7.0</pdop><geoidheight>51.00</geoidheight><course>195.1</course><type>1</type></trkpt>
      <trkpt lat="38.29530969" lon="-2.71188591"><ele>1971</ele><speed>8.03</speed><time>2016-06-02T11:35:49Z</time><pdop>8.0</pdop><geoidheight>51.00</geoidheight><course>225.3</course><type>1</type></trkpt>
      <trkpt lat="38.29515217" lon="-2.71212045"><ele>1975</ele><speed>8.82</speed><time>2016-06-02T11:35:52Z</time><pdop>6.0</pdop><geoidheight>51.00</geoidheight><course>215.2</course><type>1</type></trkpt>
      <trkpt lat="38.29503635" lon="-2.71222784"><ele>1979</ele><speed>8.34</speed><time>2016-06-02T11:35:54Z</time><pdop>5.0</pdop><geoidheight>51.00</geoidheight><course>220.6</course><type>1</type></trkpt>
      <trkpt lat="38.29493325" lon="-2.71236713"><ele>1982</ele><speed>7.64</speed><time>2016-06-02T11:35:56Z</time><pdop>5.0</pdop><geoidheight>51.00</geoidheight><course>229.4</course><type>1</type></trkpt>
      <trkpt lat="38.29488515" lon="-2.7124914"><ele>1982</ele><speed>6.13</speed><time>2016-06-02T11:35:58Z</time><pdop>4.0</pdop><geoidheight>51.00</geoidheight><course>252.2</course><type>1</type></trkpt>
      <trkpt lat="38.29492466" lon="-2.71261775"><ele>1982</ele><speed>6.84</speed><time>2016-06-02T11:36:00Z</time><pdop>5.0</pdop><geoidheight>51.00</geoidheight><course>299.8</course><type>1</type></trkpt>
      <trkpt lat="38.29502676" lon="-2.71272173"><ele>1980</ele><speed>7.18</speed><time>2016-06-02T11:36:02Z</time><pdop>6.0</pdop><geoidheight>51.00</geoidheight><course>328.0</course><type>1</type></trkpt>
      <trkpt lat="38.29511751" lon="-2.71282686"><ele>1978</ele><speed>6.53</speed><time>2016-06-02T11:36:04Z</time><pdop>6.0</pdop><geoidheight>51.00</geoidheight><course>323.2</course><type>1</type></trkpt>
      <trkpt lat="38.29521486" lon="-2.71293806"><ele>1978</ele><speed>5.03</speed><time>2016-06-02T11:36:07Z</time><pdop>5.0</pdop><geoidheight>51.00</geoidheight><course>323.4</course><type>1</type></trkpt>
      <trkpt lat="38.29530072" lon="-2.71302391"><ele>1978</ele><speed>6.09</speed><time>2016-06-02T11:36:09Z</time><pdop>6.0</pdop><geoidheight>51.00</geoidheight><course>326.9</course><type>1</type></trkpt>
      <trkpt lat="38.29541271" lon="-2.71310372"><ele>1978</ele><speed>7.11</speed><time>2016-06-02T11:36:11Z</time><pdop>5.0</pdop><geoidheight>51.00</geoidheight><course>327.3</course><type>1</type></trkpt>
      <trkpt lat="38.29551795" lon="-2.71323162"><ele>1978</ele><speed>6.21</speed><time>2016-06-02T11:36:14Z</time><pdop>6.0</pdop><geoidheight>51.00</geoidheight><course>329.7</course><type>1</type></trkpt>
      <trkpt lat="38.29562659" lon="-2.71330121"><ele>1982</ele><speed>6.72</speed><time>2016-06-02T11:36:16Z</time><pdop>6.0</pdop><geoidheight>51.00</geoidheight><course>329.9</course><type>1</type></trkpt>
      <trkpt lat="38.29575043" lon="-2.71338128"><ele>1985</ele><speed>7.38</speed><time>2016-06-02T11:36:18Z</time><pdop>5.0</pdop><geoidheight>51.00</geoidheight><course>333.3</course><type>1</type></trkpt>
      <trkpt lat="38.29588668" lon="-2.71346408"><ele>1984</ele><speed>8.33</speed><time>2016-06-02T11:36:20Z</time><pdop>7.0</pdop><geoidheight>51.00</geoidheight><course>337.6</course><type>1</type></trkpt>
      <trkpt lat="38.29601746" lon="-2.71354295"><ele>1986</ele><speed>7.83</speed><time>2016-06-02T11:36:22Z</time><pdop>6.0</pdop><geoidheight>51.00</geoidheight><course>336.3</course><type>1</type></trkpt>
      <trkpt lat="38.29613161" lon="-2.71361953"><ele>1988</ele><speed>7.05</speed><time>2016-06-02T11:36:24Z</time><pdop>6.0</pdop><geoidheight>51.00</geoidheight><course>334.4</course><type>1</type></trkpt>
      <trkpt lat="38.29625764" lon="-2.71369445"><ele>1986</ele><speed>7.40</speed><time>2016-06-02T11:36:26Z</time><pdop>6.0</pdop><geoidheight>51.00</geoidheight><course>335.1</course><type>1</type></trkpt>
      <trkpt lat="38.29640022" lon="-2.71378272"><ele>1987</ele><speed>8.16</speed><time>2016-06-02T11:36:28Z</time><pdop>6.0</pdop><geoidheight>51.00</geoidheight><course>334.0</course><type>1</type></trkpt>
      <trkpt lat="38.29652089" lon="-2.71386444"><ele>1987</ele><speed>7.69</speed><time>2016-06-02T11:36:30Z</time><pdop>7.0</pdop><geoidheight>51.00</geoidheight><course>333.8</course><type>1</type></trkpt>
      <trkpt lat="38.29667561" lon="-2.71395078"><ele>1987</ele><speed>9.12</speed><time>2016-06-02T11:36:32Z</time><pdop>6.0</pdop><geoidheight>51.00</geoidheight><course>333.9</course><type>1</type></trkpt>
      <trkpt lat="38.29672244" lon="-2.71406706"><ele>1990</ele><speed>10.19</speed><time>2016-06-02T11:36:33Z</time><pdop>4.0</pdop><geoidheight>51.00</geoidheight><course>319.8</course><type>1</type></trkpt>
      <trkpt lat="38.29678221" lon="-2.7141517"><ele>1991</ele><speed>10.23</speed><time>2016-06-02T11:36:34Z</time><pdop>4.0</pdop><geoidheight>51.00</geoidheight><course>316.5</course><type>1</type></trkpt>
      <trkpt lat="38.29685149" lon="-2.71422251"><ele>1990</ele><speed>9.43</speed><time>2016-06-02T11:36:35Z</time><pdop>5.0</pdop><geoidheight>51.00</geoidheight><course>319.0</course><type>1</type></trkpt>
      <trkpt lat="38.29695804" lon="-2.71430615"><ele>1991</ele><speed>7.91</speed><time>2016-06-02T11:36:37Z</time><pdop>5.0</pdop><geoidheight>51.00</geoidheight><course>328.5</course><type>1</type></trkpt>
      <trkpt lat="38.29709981" lon="-2.71439482"><ele>1993</ele><speed>8.62</speed><time>2016-06-02T11:36:39Z</time><pdop>5.0</pdop><geoidheight>51.00</geoidheight><course>323.3</course><type>1</type></trkpt>
      <trkpt lat="38.29717067" lon="-2.71449252"><ele>1995</ele><speed>9.97</speed><time>2016-06-02T11:36:40Z</time><pdop>5.0</pdop><geoidheight>51.00</geoidheight><course>309.7</course><type>1</type></trkpt>
      <trkpt lat="38.29724145" lon="-2.71456651"><ele>1995</ele><speed>10.03</speed><time>2016-06-02T11:36:41Z</time><pdop>4.0</pdop><geoidheight>51.00</geoidheight><course>305.7</course><type>1</type></trkpt>
      <trkpt lat="38.29729741" lon="-2.71464629"><ele>1995</ele><speed>9.68</speed><time>2016-06-02T11:36:42Z</time><pdop>4.0</pdop><geoidheight>51.00</geoidheight><course>307.2</course><type>1</type></trkpt>
      <trkpt lat="38.29738935" lon="-2.71479989"><ele>1997</ele><speed>8.75</speed><time>2016-06-02T11:36:44Z</time><pdop>4.0</pdop><geoidheight>51.00</geoidheight><course>309.2</course><type>1</type></trkpt>
      <trkpt lat="38.29746084" lon="-2.71486938"><ele>1999</ele><speed>8.76</speed><time>2016-06-02T11:36:45Z</time><pdop>4.0</pdop><geoidheight>51.00</geoidheight><course>311.6</course><type>1</type></trkpt>
      <trkpt lat="38.29755098" lon="-2.71506166"><ele>1996</ele><speed>10.48</speed><time>2016-06-02T11:36:47Z</time><pdop>4.0</pdop><geoidheight>51.00</geoidheight><course>302.7</course><type>1</type></trkpt>
      <trkpt lat="38.29759825" lon="-2.71515855"><ele>1997</ele><speed>10.25</speed><time>2016-06-02T11:36:48Z</time><pdop>4.0</pdop><geoidheight>51.00</geoidheight><course>306.5</course><type>1</type></trkpt>
      <trkpt lat="38.29765101" lon="-2.71524675"><ele>1998</ele><speed>9.88</speed><time>2016-06-02T11:36:49Z</time><pdop>3.0</pdop><geoidheight>51.00</geoidheight><course>312.5</course><type>1</type></trkpt>
      <trkpt lat="38.29771992" lon="-2.71531568"><ele>1994</ele><speed>9.61</speed><time>2016-06-02T11:36:50Z</time><pdop>3.0</pdop><geoidheight>51.00</geoidheight><course>316.3</course><type>1</type></trkpt>
      <trkpt lat="38.29778396" lon="-2.71538649"><ele>1996</ele><speed>9.34</speed><time>2016-06-02T11:36:51Z</time><pdop>3.0</pdop><geoidheight>51.00</geoidheight><course>316.2</course><type>1</type></trkpt>
      <trkpt lat="38.29783126" lon="-2.7154694"><ele>1996</ele><speed>9.36</speed><time>2016-06-02T11:36:52Z</time><pdop>3.0</pdop><geoidheight>51.00</geoidheight><course>314.1</course><type>1</type></trkpt>
      <trkpt lat="38.29789649" lon="-2.71554241"><ele>1995</ele><speed>9.42</speed><time>2016-06-02T11:36:53Z</time><pdop>3.0</pdop><geoidheight>51.00</geoidheight><course>313.8</course><type>1</type></trkpt>
      <trkpt lat="38.29796298" lon="-2.71562385"><ele>1993</ele><speed>9.66</speed><time>2016-06-02T11:36:54Z</time><pdop>3.0</pdop><geoidheight>51.00</geoidheight><course>313.9</course><type>1</type></trkpt>
      <trkpt lat="38.29802798" lon="-2.71570871"><ele>1992</ele><speed>9.87</speed><time>2016-06-02T11:36:55Z</time><pdop>3.0</pdop><geoidheight>51.00</geoidheight><course>314.8</course><type>1</type></trkpt>
      <trkpt lat="38.29809285" lon="-2.71578806"><ele>1991</ele><speed>9.93</speed><time>2016-06-02T11:36:56Z</time><pdop>3.0</pdop><geoidheight>51.00</geoidheight><course>315.1</course><type>1</type></trkpt>
      <trkpt lat="38.29815664" lon="-2.71586913"><ele>1989</ele><speed>9.98</speed><time>2016-06-02T11:36:57Z</time><pdop>3.0</pdop><geoidheight>51.00</geoidheight><course>314.9</course><type>1</type></trkpt>
      <trkpt lat="38.29822161" lon="-2.71595233"><ele>1988</ele><speed>10.09</speed><time>2016-06-02T11:36:58Z</time><pdop>3.0</pdop><geoidheight>51.00</geoidheight><course>312.8</course><type>1</type></trkpt>
      <trkpt lat="38.29827712" lon="-2.71603679"><ele>1987</ele><speed>10.11</speed><time>2016-06-02T11:36:59Z</time><pdop>3.0</pdop><geoidheight>51.00</geoidheight><course>311.0</course><type>1</type></trkpt>
      <trkpt lat="38.29835464" lon="-2.71612884"><ele>1986</ele><speed>10.96</speed><time>2016-06-02T11:37:00Z</time><pdop>4.0</pdop><geoidheight>51.00</geoidheight><course>314.4</course><type>1</type></trkpt>
      <trkpt lat="38.2984423" lon="-2.71621866"><ele>1986</ele><speed>11.79</speed><time>2016-06-02T11:37:01Z</time><pdop>4.0</pdop><geoidheight>51.00</geoidheight><course>317.8</course><type>1</type></trkpt>
      <trkpt lat="38.29853196" lon="-2.71630232"><ele>1986</ele><speed>12.45</speed><time>2016-06-02T11:37:02Z</time><pdop>5.0</pdop><geoidheight>51.00</geoidheight><course>320.7</course><type>1</type></trkpt>
      <trkpt lat="38.29863533" lon="-2.71638543"><ele>1984</ele><speed>13.62</speed><time>2016-06-02T11:37:03Z</time><pdop>4.0</pdop><geoidheight>51.00</geoidheight><course>324.7</course><type>1</type></trkpt>
      <trkpt lat="38.29874276" lon="-2.71646656"><ele>1983</ele><speed>13.48</speed><time>2016-06-02T11:37:04Z</time><pdop>4.0</pdop><geoidheight>51.00</geoidheight><course>325.6</course><type>1</type></trkpt>
      <trkpt lat="38.29883139" lon="-2.71653715"><ele>1982</ele><speed>12.43</speed><time>2016-06-02T11:37:05Z</time><pdop>4.0</pdop><geoidheight>51.00</geoidheight><course>328.1</course><type>1</type></trkpt>
      <trkpt lat="38.29892117" lon="-2.71658526"><ele>1981</ele><speed>11.48</speed><time>2016-06-02T11:37:06Z</time><pdop>4.0</pdop><geoidheight>51.00</geoidheight><course>333.2</course><type>1</type></trkpt>
      <trkpt lat="38.2989913" lon="-2.71663189"><ele>1979</ele><speed>10.51</speed><time>2016-06-02T11:37:07Z</time><pdop>4.0</pdop><geoidheight>51.00</geoidheight><course>331.8</course><type>1</type></trkpt>
      <trkpt lat="38.29914383" lon="-2.71679915"><ele>1977</ele><speed>11.27</speed><time>2016-06-02T11:37:09Z</time><pdop>3.0</pdop><geoidheight>51.00</geoidheight><course>318.1</course><type>1</type></trkpt>
      <trkpt lat="38.29922054" lon="-2.71687929"><ele>1972</ele><speed>11.59</speed><time>2016-06-02T11:37:10Z</time><pdop>3.0</pdop><geoidheight>51.00</geoidheight><course>319.7</course><type>1</type></trkpt>
      <trkpt lat="38.29929522" lon="-2.71695315"><ele>1970</ele><speed>11.34</speed><time>2016-06-02T11:37:11Z</time><pdop>3.0</pdop><geoidheight>51.00</geoidheight><course>319.9</course><type>1</type></trkpt>
      <trkpt lat="38.29936556" lon="-2.71703559"><ele>1968</ele><speed>10.80</speed><time>2016-06-02T11:37:12Z</time><pdop>3.0</pdop><geoidheight>51.00</geoidheight><course>319.9</course><type>1</type></trkpt>
      <trkpt lat="38.29943932" lon="-2.71710933"><ele>1966</ele><speed>10.39</speed><time>2016-06-02T11:37:13Z</time><pdop>3.0</pdop><geoidheight>51.00</geoidheight><course>321.4</course><type>1</type></trkpt>
      <trkpt lat="38.29951514" lon="-2.71718255"><ele>1966</ele><speed>10.42</speed><time>2016-06-02T11:37:14Z</time><pdop>3.0</pdop><geoidheight>51.00</geoidheight><course>323.4</course><type>1</type></trkpt>
      <trkpt lat="38.29959723" lon="-2.71726091"><ele>1966</ele><speed>10.78</speed><time>2016-06-02T11:37:15Z</time><pdop>4.0</pdop><geoidheight>51.00</geoidheight><course>324.4</course><type>1</type></trkpt>
      <trkpt lat="38.29969367" lon="-2.71732767"><ele>1965</ele><speed>11.51</speed><time>2016-06-02T11:37:16Z</time><pdop>3.0</pdop><geoidheight>51.00</geoidheight><course>327.7</course><type>1</type></trkpt>
      <trkpt lat="38.29978621" lon="-2.71739753"><ele>1963</ele><speed>11.64</speed><time>2016-06-02T11:37:17Z</time><pdop>3.0</pdop><geoidheight>51.00</geoidheight><course>328.0</course><type>1</type></trkpt>
      <trkpt lat="38.29987716" lon="-2.7174561"><ele>1963</ele><speed>11.07</speed><time>2016-06-02T11:37:18Z</time><pdop>3.0</pdop><geoidheight>51.00</geoidheight><course>330.2</course><type>1</type></trkpt>
      <trkpt lat="38.29996267" lon="-2.71750825"><ele>1963</ele><speed>10.99</speed><time>2016-06-02T11:37:19Z</time><pdop>3.0</pdop><geoidheight>51.00</geoidheight><course>332.8</course><type>1</type></trkpt>
      <trkpt lat="38.30004921" lon="-2.71755865"><ele>1962</ele><speed>10.71</speed><time>2016-06-02T11:37:20Z</time><pdop>3.0</pdop><geoidheight>51.00</geoidheight><course>332.7</course><type>1</type></trkpt>
      <trkpt lat="38.30013381" lon="-2.71762347"><ele>1961</ele><speed>10.79</speed><time>2016-06-02T11:37:21Z</time><pdop>3.0</pdop><geoidheight>51.00</geoidheight><course>330.9</course><type>1</type></trkpt>
      <trkpt lat="38.30022556" lon="-2.71768273"><ele>1958</ele><speed>11.05</speed><time>2016-06-02T11:37:22Z</time><pdop>3.0</pdop><geoidheight>51.00</geoidheight><course>329.1</course><type>1</type></trkpt>
      <trkpt lat="38.30030602" lon="-2.7177467"><ele>1958</ele><speed>10.86</speed><time>2016-06-02T11:37:23Z</time><pdop>4.0</pdop><geoidheight>51.00</geoidheight><course>330.6</course><type>1</type></trkpt>
      <trkpt lat="38.30042942" lon="-2.71775843"><ele>1956</ele><speed>11.83</speed><time>2016-06-02T11:37:24Z</time><pdop>4.0</pdop><geoidheight>51.00</geoidheight><course>344.0</course><type>1</type></trkpt>
      <trkpt lat="38.30053865" lon="-2.71779908"><ele>1954</ele><speed>12.58</speed><time>2016-06-02T11:37:25Z</time><pdop>4.0</pdop><geoidheight>51.00</geoidheight><course>343.4</course><type>1</type></trkpt>
      <trkpt lat="38.30066067" lon="-2.71786061"><ele>1951</ele><speed>13.09</speed><time>2016-06-02T11:37:26Z</time><pdop>4.0</pdop><geoidheight>51.00</geoidheight><course>337.7</course><type>1</type></trkpt>
      <trkpt lat="38.30076243" lon="-2.71791354"><ele>1950</ele><speed>12.83</speed><time>2016-06-02T11:37:27Z</time><pdop>4.0</pdop><geoidheight>51.00</geoidheight><course>337.9</course><type>1</type></trkpt>
      <trkpt lat="38.30085651" lon="-2.71796249"><ele>1950</ele><speed>12.32</speed><time>2016-06-02T11:37:28Z</time><pdop>4.0</pdop><geoidheight>51.00</geoidheight><course>338.1</course><type>1</type></trkpt>
      <trkpt lat="38.30095479" lon="-2.71799784"><ele>1950</ele><speed>11.83</speed><time>2016-06-02T11:37:29Z</time><pdop>5.0</pdop><geoidheight>51.00</geoidheight><course>342.3</course><type>1</type></trkpt>
      <trkpt lat="38.30105488" lon="-2.71802133"><ele>1948</ele><speed>11.76</speed><time>2016-06-02T11:37:30Z</time><pdop>5.0</pdop><geoidheight>51.00</geoidheight><course>345.4</course><type>1</type></trkpt>
      <trkpt lat="38.30116916" lon="-2.71807589"><ele>1947</ele><speed>12.26</speed><time>2016-06-02T11:37:31Z</time><pdop>6.0</pdop><geoidheight>51.00</geoidheight><course>343.5</course><type>1</type></trkpt>
      <trkpt lat="38.30127509" lon="-2.71813314"><ele>1946</ele><speed>12.63</speed><time>2016-06-02T11:37:32Z</time><pdop>5.0</pdop><geoidheight>51.00</geoidheight><course>340.2</course><type>1</type></trkpt>
      <trkpt lat="38.30137724" lon="-2.71818558"><ele>1943</ele><speed>12.65</speed><time>2016-06-02T11:37:33Z</time><pdop>6.0</pdop><geoidheight>51.00</geoidheight><course>338.8</course><type>1</type></trkpt>
      <trkpt lat="38.30157574" lon="-2.71833445"><ele>1941</ele><speed>12.18</speed><time>2016-06-02T11:37:35Z</time><pdop>7.0</pdop><geoidheight>51.00</geoidheight><course>334.0</course><type>1</type></trkpt>
      <trkpt lat="38.30178086" lon="-2.71843469"><ele>1938</ele><speed>11.28</speed><time>2016-06-02T11:37:37Z</time><pdop>6.0</pdop><geoidheight>51.00</geoidheight><course>337.2</course><type>1</type></trkpt>
      <trkpt lat="38.30194437" lon="-2.7185024"><ele>1934</ele><speed>10.53</speed><time>2016-06-02T11:37:39Z</time><pdop>6.0</pdop><geoidheight>51.00</geoidheight><course>335.5</course><type>1</type></trkpt>
      <trkpt lat="38.30211175" lon="-2.71864621"><ele>1927</ele><speed>11.72</speed><time>2016-06-02T11:37:41Z</time><pdop>4.0</pdop><geoidheight>51.00</geoidheight><course>328.2</course><type>1</type></trkpt>
      <trkpt lat="38.30220331" lon="-2.71871172"><ele>1925</ele><speed>11.67</speed><time>2016-06-02T11:37:42Z</time><pdop>4.0</pdop><geoidheight>51.00</geoidheight><course>326.2</course><type>1</type></trkpt>
      <trkpt lat="38.30229576" lon="-2.71879597"><ele>1922</ele><speed>12.15</speed><time>2016-06-02T11:37:43Z</time><pdop>4.0</pdop><geoidheight>51.00</geoidheight><course>324.5</course><type>1</type></trkpt>
      <trkpt lat="38.30238017" lon="-2.71890003"><ele>1914</ele><speed>13.35</speed><time>2016-06-02T11:37:44Z</time><pdop>3.0</pdop><geoidheight>51.00</geoidheight><course>320.8</course><type>1</type></trkpt>
      <trkpt lat="38.3024786" lon="-2.71901373"><ele>1908</ele><speed>13.61</speed><time>2016-06-02T11:37:45Z</time><pdop>3.0</pdop><geoidheight>51.00</geoidheight><course>319.4</course><type>1</type></trkpt>
      <trkpt lat="38.30257449" lon="-2.71912563"><ele>1905</ele><speed>13.90</speed><time>2016-06-02T11:37:46Z</time><pdop>3.0</pdop><geoidheight>51.00</geoidheight><course>315.6</course><type>1</type></trkpt>
      <trkpt lat="38.30265598" lon="-2.71922857"><ele>1901</ele><speed>13.66</speed><time>2016-06-02T11:37:47Z</time><pdop>4.0</pdop><geoidheight>51.00</geoidheight><course>314.9</course><type>1</type></trkpt>
      <trkpt lat="38.30273623" lon="-2.71933971"><ele>1899</ele><speed>13.12</speed><time>2016-06-02T11:37:48Z</time><pdop>3.0</pdop><geoidheight>51.00</geoidheight><course>314.0</course><type>1</type></trkpt>
      <trkpt lat="38.30280944" lon="-2.71944507"><ele>1897</ele><speed>12.97</speed><time>2016-06-02T11:37:49Z</time><pdop>3.0</pdop><geoidheight>51.00</geoidheight><course>314.6</course><type>1</type></trkpt>
      <trkpt lat="38.30288925" lon="-2.71955225"><ele>1895</ele><speed>12.53</speed><time>2016-06-02T11:37:50Z</time><pdop>3.0</pdop><geoidheight>51.00</geoidheight><course>316.4</course><type>1</type></trkpt>
      <trkpt lat="38.30296261" lon="-2.71966044"><ele>1893</ele><speed>12.67</speed><time>2016-06-02T11:37:51Z</time><pdop>4.0</pdop><geoidheight>51.00</geoidheight><course>315.0</course><type>1</type></trkpt>
      <trkpt lat="38.3030398" lon="-2.7197484"><ele>1890</ele><speed>12.38</speed><time>2016-06-02T11:37:52Z</time><pdop>3.0</pdop><geoidheight>51.00</geoidheight><course>315.4</course><type>1</type></trkpt>
      <trkpt lat="38.30312034" lon="-2.71984779"><ele>1888</ele><speed>12.64</speed><time>2016-06-02T11:37:53Z</time><pdop>3.0</pdop><geoidheight>51.00</geoidheight><course>315.2</course><type>1</type></trkpt>
      <trkpt lat="38.30320305" lon="-2.71995608"><ele>1885</ele><speed>12.92</speed><time>2016-06-02T11:37:54Z</time><pdop>3.0</pdop><geoidheight>51.00</geoidheight><course>315.3</course><type>1</type></trkpt>
      <trkpt lat="38.30328843" lon="-2.72006177"><ele>1883</ele><speed>13.43</speed><time>2016-06-02T11:37:55Z</time><pdop>3.0</pdop><geoidheight>51.00</geoidheight><course>316.3</course><type>1</type></trkpt>
      <trkpt lat="38.30338347" lon="-2.7201731"><ele>1881</ele><speed>14.00</speed><time>2016-06-02T11:37:56Z</time><pdop>4.0</pdop><geoidheight>51.00</geoidheight><course>317.9</course><type>1</type></trkpt>
      <trkpt lat="38.30347865" lon="-2.72027759"><ele>1878</ele><speed>13.92</speed><time>2016-06-02T11:37:57Z</time><pdop>3.0</pdop><geoidheight>51.00</geoidheight><course>318.6</course><type>1</type></trkpt>
      <trkpt lat="38.30357874" lon="-2.72037958"><ele>1876</ele><speed>13.76</speed><time>2016-06-02T11:37:58Z</time><pdop>3.0</pdop><geoidheight>51.00</geoidheight><course>319.0</course><type>1</type></trkpt>
      <trkpt lat="38.30366791" lon="-2.72049198"><ele>1875</ele><speed>13.76</speed><time>2016-06-02T11:37:59Z</time><pdop>3.0</pdop><geoidheight>51.00</geoidheight><course>316.2</course><type>1</type></trkpt>
      <trkpt lat="38.30374732" lon="-2.7206042"><ele>1874</ele><speed>13.68</speed><time>2016-06-02T11:38:00Z</time><pdop>3.0</pdop><geoidheight>51.00</geoidheight><course>313.7</course><type>1</type></trkpt>
      <trkpt lat="38.303832" lon="-2.7207194"><ele>1872</ele><speed>13.63</speed><time>2016-06-02T11:38:01Z</time><pdop>3.0</pdop><geoidheight>51.00</geoidheight><course>312.6</course><type>1</type></trkpt>
      <trkpt lat="38.30391134" lon="-2.72083518"><ele>1871</ele><speed>13.41</speed><time>2016-06-02T11:38:02Z</time><pdop>3.0</pdop><geoidheight>51.00</geoidheight><course>312.7</course><type>1</type></trkpt>
      <trkpt lat="38.30399059" lon="-2.72094551"><ele>1870</ele><speed>12.97</speed><time>2016-06-02T11:38:03Z</time><pdop>3.0</pdop><geoidheight>51.00</geoidheight><course>311.5</course><type>1</type></trkpt>
      <trkpt lat="38.30406294" lon="-2.72106005"><ele>1868</ele><speed>12.93</speed><time>2016-06-02T11:38:04Z</time><pdop>3.0</pdop><geoidheight>51.00</geoidheight><course>310.5</course><type>1</type></trkpt>
      <trkpt lat="38.30413367" lon="-2.72117772"><ele>1866</ele><speed>13.21</speed><time>2016-06-02T11:38:05Z</time><pdop>3.0</pdop><geoidheight>51.00</geoidheight><course>309.4</course><type>1</type></trkpt>
      <trkpt lat="38.30421437" lon="-2.72129635"><ele>1864</ele><speed>13.58</speed><time>2016-06-02T11:38:06Z</time><pdop>3.0</pdop><geoidheight>51.00</geoidheight><course>310.1</course><type>1</type></trkpt>
      <trkpt lat="38.30429766" lon="-2.72141687"><ele>1864</ele><speed>13.80</speed><time>2016-06-02T11:38:07Z</time><pdop>3.0</pdop><geoidheight>51.00</geoidheight><course>311.6</course><type>1</type></trkpt>
      <trkpt lat="38.30438301" lon="-2.72152401"><ele>1863</ele><speed>13.65</speed><time>2016-06-02T11:38:08Z</time><pdop>3.0</pdop><geoidheight>51.00</geoidheight><course>313.6</course><type>1</type></trkpt>
      <trkpt lat="38.30446761" lon="-2.7216295"><ele>1863</ele><speed>13.55</speed><time>2016-06-02T11:38:09Z</time><pdop>3.0</pdop><geoidheight>51.00</geoidheight><course>315.1</course><type>1</type></trkpt>
      <trkpt lat="38.30455276" lon="-2.7217367"><ele>1861</ele><speed>13.35</speed><time>2016-06-02T11:38:10Z</time><pdop>3.0</pdop><geoidheight>51.00</geoidheight><course>315.9</course><type>1</type></trkpt>
      <trkpt lat="38.30463325" lon="-2.72183871"><ele>1860</ele><speed>12.68</speed><time>2016-06-02T11:38:11Z</time><pdop>3.0</pdop><geoidheight>51.00</geoidheight><course>315.8</course><type>1</type></trkpt>
      <trkpt lat="38.30471631" lon="-2.72193946"><ele>1859</ele><speed>12.61</speed><time>2016-06-02T11:38:12Z</time><pdop>3.0</pdop><geoidheight>51.00</geoidheight><course>315.9</course><type>1</type></trkpt>
      <trkpt lat="38.30480589" lon="-2.72203858"><ele>1857</ele><speed>13.30</speed><time>2016-06-02T11:38:13Z</time><pdop>3.0</pdop><geoidheight>51.00</geoidheight><course>316.7</course><type>1</type></trkpt>
      <trkpt lat="38.30490013" lon="-2.7221425"><ele>1855</ele><speed>14.19</speed><time>2016-06-02T11:38:14Z</time><pdop>4.0</pdop><geoidheight>51.00</geoidheight><course>317.5</course><type>1</type></trkpt>
      <trkpt lat="38.30500287" lon="-2.722262"><ele>1853</ele><speed>14.96</speed><time>2016-06-02T11:38:15Z</time><pdop>4.0</pdop><geoidheight>51.00</geoidheight><course>317.1</course><type>1</type></trkpt>
      <trkpt lat="38.30510062" lon="-2.72240572"><ele>1852</ele><speed>15.47</speed><time>2016-06-02T11:38:16Z</time><pdop>5.0</pdop><geoidheight>51.00</geoidheight><course>315.7</course><type>1</type></trkpt>
      <trkpt lat="38.30519234" lon="-2.72251174"><ele>1850</ele><speed>15.06</speed><time>2016-06-02T11:38:17Z</time><pdop>5.0</pdop><geoidheight>51.00</geoidheight><course>317.0</course><type>1</type></trkpt>
      <trkpt lat="38.30529904" lon="-2.72258276"><ele>1848</ele><speed>14.74</speed><time>2016-06-02T11:38:18Z</time><pdop>4.0</pdop><geoidheight>51.00</geoidheight><course>319.9</course><type>1</type></trkpt>
      <trkpt lat="38.30539101" lon="-2.72269511"><ele>1846</ele><speed>14.66</speed><time>2016-06-02T11:38:19Z</time><pdop>4.0</pdop><geoidheight>51.00</geoidheight><course>320.2</course><type>1</type></trkpt>
      <trkpt lat="38.30549301" lon="-2.72279565"><ele>1845</ele><speed>14.62</speed><time>2016-06-02T11:38:20Z</time><pdop>4.0</pdop><geoidheight>51.00</geoidheight><course>320.1</course><type>1</type></trkpt>
      <trkpt lat="38.30559522" lon="-2.7229082"><ele>1842</ele><speed>15.05</speed><time>2016-06-02T11:38:21Z</time><pdop>4.0</pdop><geoidheight>51.00</geoidheight><course>319.0</course><type>1</type></trkpt>
      <trkpt lat="38.3056967" lon="-2.72302214"><ele>1839</ele><speed>14.91</speed><time>2016-06-02T11:38:22Z</time><pdop>3.0</pdop><geoidheight>51.00</geoidheight><course>316.5</course><type>1</type></trkpt>
      <trkpt lat="38.30579695" lon="-2.72313396"><ele>1835</ele><speed>15.40</speed><time>2016-06-02T11:38:23Z</time><pdop>3.0</pdop><geoidheight>51.00</geoidheight><course>316.9</course><type>1</type></trkpt>
      <trkpt lat="38.30590337" lon="-2.72325409"><ele>1834</ele><speed>15.79</speed><time>2016-06-02T11:38:24Z</time><pdop>3.0</pdop><geoidheight>51.00</geoidheight><course>318.0</course><type>1</type></trkpt>
      <trkpt lat="38.30601296" lon="-2.72336428"><ele>1833</ele><speed>15.70</speed><time>2016-06-02T11:38:25Z</time><pdop>4.0</pdop><geoidheight>51.00</geoidheight><course>319.1</course><type>1</type></trkpt>
      <trkpt lat="38.30611737" lon="-2.723467"><ele>1831</ele><speed>15.42</speed><time>2016-06-02T11:38:26Z</time><pdop>4.0</pdop><geoidheight>51.00</geoidheight><course>319.2</course><type>1</type></trkpt>
      <trkpt lat="38.3062064" lon="-2.72359364"><ele>1829</ele><speed>14.98</speed><time>2016-06-02T11:38:27Z</time><pdop>3.0</pdop><geoidheight>51.00</geoidheight><course>316.2</course><type>1</type></trkpt>
      <trkpt lat="38.30630642" lon="-2.72371806"><ele>1827</ele><speed>15.31</speed><time>2016-06-02T11:38:28Z</time><pdop>3.0</pdop><geoidheight>51.00</geoidheight><course>316.0</course><type>1</type></trkpt>
      <trkpt lat="38.3064028" lon="-2.72384077"><ele>1825</ele><speed>15.79</speed><time>2016-06-02T11:38:29Z</time><pdop>4.0</pdop><geoidheight>51.00</geoidheight><course>316.1</course><type>1</type></trkpt>
      <trkpt lat="38.30650774" lon="-2.72396617"><ele>1823</ele><speed>16.25</speed><time>2016-06-02T11:38:30Z</time><pdop>4.0</pdop><geoidheight>51.00</geoidheight><course>316.2</course><type>1</type></trkpt>
      <trkpt lat="38.30662694" lon="-2.72406882"><ele>1820</ele><speed>16.29</speed><time>2016-06-02T11:38:31Z</time><pdop>4.0</pdop><geoidheight>51.00</geoidheight><course>318.1</course><type>1</type></trkpt>
      <trkpt lat="38.30673491" lon="-2.72420553"><ele>1817</ele><speed>16.29</speed><time>2016-06-02T11:38:32Z</time><pdop>4.0</pdop><geoidheight>51.00</geoidheight><course>318.9</course><type>1</type></trkpt>
      <trkpt lat="38.30684807" lon="-2.72432479"><ele>1815</ele><speed>16.19</speed><time>2016-06-02T11:38:33Z</time><pdop>3.0</pdop><geoidheight>51.00</geoidheight><course>321.0</course><type>1</type></trkpt>
      <trkpt lat="38.30695838" lon="-2.72443813"><ele>1812</ele><speed>16.17</speed><time>2016-06-02T11:38:34Z</time><pdop>4.0</pdop><geoidheight>51.00</geoidheight><course>320.7</course><type>1</type></trkpt>
      <trkpt lat="38.30706441" lon="-2.72455276"><ele>1810</ele><speed>15.97</speed><time>2016-06-02T11:38:35Z</time><pdop>4.0</pdop><geoidheight>51.00</geoidheight><course>321.7</course><type>1</type></trkpt>
      <trkpt lat="38.30718034" lon="-2.72466787"><ele>1807</ele><speed>16.04</speed><time>2016-06-02T11:38:36Z</time><pdop>4.0</pdop><geoidheight>51.00</geoidheight><course>321.3</course><type>1</type></trkpt>
      <trkpt lat="38.30729751" lon="-2.72476354"><ele>1806</ele><speed>15.97</speed><time>2016-06-02T11:38:37Z</time><pdop>4.0</pdop><geoidheight>51.00</geoidheight><course>323.7</course><type>1</type></trkpt>
      <trkpt lat="38.30742903" lon="-2.72483642"><ele>1802</ele><speed>16.24</speed><time>2016-06-02T11:38:38Z</time><pdop>4.0</pdop><geoidheight>51.00</geoidheight><course>328.0</course><type>1</type></trkpt>
      <trkpt lat="38.30755076" lon="-2.72494143"><ele>1800</ele><speed>16.22</speed><time>2016-06-02T11:38:39Z</time><pdop>4.0</pdop><geoidheight>51.00</geoidheight><course>327.8</course><type>1</type></trkpt>
      <trkpt lat="38.30766959" lon="-2.72505011"><ele>1797</ele><speed>16.13</speed><time>2016-06-02T11:38:40Z</time><pdop>3.0</pdop><geoidheight>51.00</geoidheight><course>326.4</course><type>1</type></trkpt>
      <trkpt lat="38.30778403" lon="-2.72515438"><ele>1795</ele><speed>15.87</speed><time>2016-06-02T11:38:41Z</time><pdop>3.0</pdop><geoidheight>51.00</geoidheight><course>325.0</course><type>1</type></trkpt>
      <trkpt lat="38.30790688" lon="-2.72524766"><ele>1793</ele><speed>15.72</speed><time>2016-06-02T11:38:42Z</time><pdop>3.0</pdop><geoidheight>51.00</geoidheight><course>325.4</course><type>1</type></trkpt>
      <trkpt lat="38.30801898" lon="-2.72533009"><ele>1789</ele><speed>15.25</speed><time>2016-06-02T11:38:43Z</time><pdop>3.0</pdop><geoidheight>51.00</geoidheight><course>327.3</course><type>1</type></trkpt>
      <trkpt lat="38.30812945" lon="-2.72542241"><ele>1786</ele><speed>14.89</speed><time>2016-06-02T11:38:44Z</time><pdop>3.0</pdop><geoidheight>51.00</geoidheight><course>327.6</course><type>1</type></trkpt>
      <trkpt lat="38.30823526" lon="-2.7255095"><ele>1783</ele><speed>14.77</speed><time>2016-06-02T11:38:45Z</time><pdop>3.0</pdop><geoidheight>51.00</geoidheight><course>330.0</course><type>1</type></trkpt>
      <trkpt lat="38.30835139" lon="-2.72559373"><ele>1779</ele><speed>15.27</speed><time>2016-06-02T11:38:46Z</time><pdop>3.0</pdop><geoidheight>51.00</geoidheight><course>329.8</course><type>1</type></trkpt>
      <trkpt lat="38.30846922" lon="-2.72567724"><ele>1775</ele><speed>15.44</speed><time>2016-06-02T11:38:47Z</time><pdop>3.0</pdop><geoidheight>51.00</geoidheight><course>329.8</course><type>1</type></trkpt>
      <trkpt lat="38.30858368" lon="-2.72576578"><ele>1772</ele><speed>15.49</speed><time>2016-06-02T11:38:48Z</time><pdop>3.0</pdop><geoidheight>51.00</geoidheight><course>329.2</course><type>1</type></trkpt>
      <trkpt lat="38.30870639" lon="-2.72584823"><ele>1769</ele><speed>15.23</speed><time>2016-06-02T11:38:49Z</time><pdop>3.0</pdop><geoidheight>51.00</geoidheight><course>328.0</course><type>1</type></trkpt>
      <trkpt lat="38.30881201" lon="-2.72594719"><ele>1766</ele><speed>14.93</speed><time>2016-06-02T11:38:50Z</time><pdop>3.0</pdop><geoidheight>51.00</geoidheight><course>326.4</course><type>1</type></trkpt>
      <trkpt lat="38.30891956" lon="-2.72602982"><ele>1763</ele><speed>14.43</speed><time>2016-06-02T11:38:51Z</time><pdop>3.0</pdop><geoidheight>51.00</geoidheight><course>327.3</course><type>1</type></trkpt>
      <trkpt lat="38.30903042" lon="-2.72611195"><ele>1760</ele><speed>14.26</speed><time>2016-06-02T11:38:52Z</time><pdop>3.0</pdop><geoidheight>51.00</geoidheight><course>329.9</course><type>1</type></trkpt>
      <trkpt lat="38.30914402" lon="-2.72619517"><ele>1756</ele><speed>14.38</speed><time>2016-06-02T11:38:53Z</time><pdop>3.0</pdop><geoidheight>51.00</geoidheight><course>329.3</course><type>1</type></trkpt>
      <trkpt lat="38.30925228" lon="-2.72628114"><ele>1753</ele><speed>14.27</speed><time>2016-06-02T11:38:54Z</time><pdop>3.0</pdop><geoidheight>51.00</geoidheight><course>327.2</course><type>1</type></trkpt>
      <trkpt lat="38.30936451" lon="-2.72637355"><ele>1748</ele><speed>14.93</speed><time>2016-06-02T11:38:55Z</time><pdop>3.0</pdop><geoidheight>51.00</geoidheight><course>326.0</course><type>1</type></trkpt>
      <trkpt lat="38.30947656" lon="-2.7264669"><ele>1743</ele><speed>15.45</speed><time>2016-06-02T11:38:56Z</time><pdop>3.0</pdop><geoidheight>51.00</geoidheight><course>326.1</course><type>1</type></trkpt>
      <trkpt lat="38.30958656" lon="-2.72657811"><ele>1741</ele><speed>15.70</speed><time>2016-06-02T11:38:57Z</time><pdop>3.0</pdop><geoidheight>51.00</geoidheight><course>325.1</course><type>1</type></trkpt>
      <trkpt lat="38.30970112" lon="-2.72667123"><ele>1739</ele><speed>15.67</speed><time>2016-06-02T11:38:58Z</time><pdop>3.0</pdop><geoidheight>51.00</geoidheight><course>323.7</course><type>1</type></trkpt>
      <trkpt lat="38.30980823" lon="-2.72679608"><ele>1736</ele><speed>15.75</speed><time>2016-06-02T11:38:59Z</time><pdop>3.0</pdop><geoidheight>51.00</geoidheight><course>320.8</course><type>1</type></trkpt>
      <trkpt lat="38.309916" lon="-2.72691658"><ele>1735</ele><speed>15.78</speed><time>2016-06-02T11:39:00Z</time><pdop>3.0</pdop><geoidheight>51.00</geoidheight><course>318.8</course><type>1</type></trkpt>
      <trkpt lat="38.31001135" lon="-2.72704078"><ele>1734</ele><speed>15.51</speed><time>2016-06-02T11:39:01Z</time><pdop>3.0</pdop><geoidheight>51.00</geoidheight><course>316.9</course><type>1</type></trkpt>
      <trkpt lat="38.31019402" lon="-2.72725998"><ele>1737</ele><speed>13.31</speed><time>2016-06-02T11:39:03Z</time><pdop>3.0</pdop><geoidheight>51.00</geoidheight><course>316.8</course><type>1</type></trkpt>
      <trkpt lat="38.31027928" lon="-2.72734458"><ele>1738</ele><speed>12.02</speed><time>2016-06-02T11:39:04Z</time><pdop>3.0</pdop><geoidheight>51.00</geoidheight><course>318.4</course><type>1</type></trkpt>
      <trkpt lat="38.31035646" lon="-2.72743049"><ele>1737</ele><speed>11.27</speed><time>2016-06-02T11:39:05Z</time><pdop>3.0</pdop><geoidheight>51.00</geoidheight><course>318.6</course><type>1</type></trkpt>
      <trkpt lat="38.31042499" lon="-2.72752365"><ele>1736</ele><speed>11.41</speed><time>2016-06-02T11:39:06Z</time><pdop>3.0</pdop><geoidheight>51.00</geoidheight><course>318.1</course><type>1</type></trkpt>
      <trkpt lat="38.31049334" lon="-2.72759586"><ele>1741</ele><speed>10.52</speed><time>2016-06-02T11:39:07Z</time><pdop>3.0</pdop><geoidheight>51.00</geoidheight><course>316.8</course><type>1</type></trkpt>
      <trkpt lat="38.31053145" lon="-2.72765029"><ele>1744</ele><speed>7.87</speed><time>2016-06-02T11:39:08Z</time><pdop>3.0</pdop><geoidheight>51.00</geoidheight><course>311.2</course><type>1</type></trkpt>
      <trkpt lat="38.31057943" lon="-2.72772269"><ele>1746</ele><speed>4.00</speed><time>2016-06-02T11:39:10Z</time><pdop>3.0</pdop><geoidheight>51.00</geoidheight><course>298.4</course><type>1</type></trkpt>
      <trkpt lat="38.31063547" lon="-2.7278328"><ele>1746</ele><speed>5.95</speed><time>2016-06-02T11:39:12Z</time><pdop>4.0</pdop><geoidheight>51.00</geoidheight><course>303.5</course><type>1</type></trkpt>
      <trkpt lat="38.31069733" lon="-2.72790812"><ele>1747</ele><speed>8.26</speed><time>2016-06-02T11:39:13Z</time><pdop>3.0</pdop><geoidheight>51.00</geoidheight><course>316.2</course><type>1</type></trkpt>
      <trkpt lat="38.31075993" lon="-2.72796232"><ele>1748</ele><speed>8.28</speed><time>2016-06-02T11:39:14Z</time><pdop>3.0</pdop><geoidheight>51.00</geoidheight><course>319.3</course><type>1</type></trkpt>
      <trkpt lat="38.31082214" lon="-2.72801592"><ele>1749</ele><speed>8.06</speed><time>2016-06-02T11:39:15Z</time><pdop>4.0</pdop><geoidheight>51.00</geoidheight><course>325.2</course><type>1</type></trkpt>
      <trkpt lat="38.31096014" lon="-2.72806034"><ele>1750</ele><speed>7.86</speed><time>2016-06-02T11:39:17Z</time><pdop>4.0</pdop><geoidheight>51.00</geoidheight><course>340.1</course><type>1</type></trkpt>
      <trkpt lat="38.31104442" lon="-2.72809177"><ele>1748</ele><speed>9.39</speed><time>2016-06-02T11:39:18Z</time><pdop>4.0</pdop><geoidheight>51.00</geoidheight><course>341.2</course><type>1</type></trkpt>
      <trkpt lat="38.31113219" lon="-2.72811839"><ele>1747</ele><speed>10.64</speed><time>2016-06-02T11:39:19Z</time><pdop>3.0</pdop><geoidheight>51.00</geoidheight><course>342.7</course><type>1</type></trkpt>
      <trkpt lat="38.31123274" lon="-2.72815074"><ele>1747</ele><speed>10.63</speed><time>2016-06-02T11:39:20Z</time><pdop>4.0</pdop><geoidheight>51.00</geoidheight><course>336.9</course><type>1</type></trkpt>
      <trkpt lat="38.31130894" lon="-2.72819461"><ele>1748</ele><speed>9.97</speed><time>2016-06-02T11:39:21Z</time><pdop>4.0</pdop><geoidheight>51.00</geoidheight><course>335.5</course><type>1</type></trkpt>
      <trkpt lat="38.31137783" lon="-2.72823333"><ele>1749</ele><speed>8.45</speed><time>2016-06-02T11:39:22Z</time><pdop>3.0</pdop><geoidheight>51.00</geoidheight><course>335.8</course><type>1</type></trkpt>
      <trkpt lat="38.31143679" lon="-2.72826156"><ele>1749</ele><speed>7.74</speed><time>2016-06-02T11:39:23Z</time><pdop>3.0</pdop><geoidheight>51.00</geoidheight><course>347.6</course><type>1</type></trkpt>
      <trkpt lat="38.31150583" lon="-2.72825729"><ele>1748</ele><speed>7.79</speed><time>2016-06-02T11:39:24Z</time><pdop>3.0</pdop><geoidheight>51.00</geoidheight><course>354.7</course><type>1</type></trkpt>
      <trkpt lat="38.31156831" lon="-2.72827051"><ele>1747</ele><speed>7.78</speed><time>2016-06-02T11:39:25Z</time><pdop>3.0</pdop><geoidheight>51.00</geoidheight><course>351.0</course><type>1</type></trkpt>
      <trkpt lat="38.31163467" lon="-2.72830935"><ele>1746</ele><speed>8.31</speed><time>2016-06-02T11:39:26Z</time><pdop>3.0</pdop><geoidheight>51.00</geoidheight><course>342.3</course><type>1</type></trkpt>
      <trkpt lat="38.31170533" lon="-2.7283631"><ele>1744</ele><speed>9.12</speed><time>2016-06-02T11:39:27Z</time><pdop>3.0</pdop><geoidheight>51.00</geoidheight><course>333.8</course><type>1</type></trkpt>
      <trkpt lat="38.31178112" lon="-2.72841991"><ele>1740</ele><speed>10.06</speed><time>2016-06-02T11:39:28Z</time><pdop>3.0</pdop><geoidheight>51.00</geoidheight><course>331.6</course><type>1</type></trkpt>
      <trkpt lat="38.31187202" lon="-2.72846299"><ele>1738</ele><speed>10.65</speed><time>2016-06-02T11:39:29Z</time><pdop>3.0</pdop><geoidheight>51.00</geoidheight><course>333.6</course><type>1</type></trkpt>
      <trkpt lat="38.3119629" lon="-2.72853371"><ele>1736</ele><speed>11.88</speed><time>2016-06-02T11:39:30Z</time><pdop>4.0</pdop><geoidheight>51.00</geoidheight><course>331.0</course><type>1</type></trkpt>
      <trkpt lat="38.3120661" lon="-2.72862094"><ele>1734</ele><speed>13.24</speed><time>2016-06-02T11:39:31Z</time><pdop>5.0</pdop><geoidheight>51.00</geoidheight><course>329.0</course><type>1</type></trkpt>
      <trkpt lat="38.31217636" lon="-2.72874144"><ele>1732</ele><speed>14.55</speed><time>2016-06-02T11:39:32Z</time><pdop>4.0</pdop><geoidheight>51.00</geoidheight><course>323.1</course><type>1</type></trkpt>
      <trkpt lat="38.31228397" lon="-2.72881804"><ele>1730</ele><speed>14.50</speed><time>2016-06-02T11:39:33Z</time><pdop>5.0</pdop><geoidheight>51.00</geoidheight><course>323.9</course><type>1</type></trkpt>
      <trkpt lat="38.31236409" lon="-2.72891977"><ele>1728</ele><speed>14.13</speed><time>2016-06-02T11:39:34Z</time><pdop>5.0</pdop><geoidheight>51.00</geoidheight><course>321.4</course><type>1</type></trkpt>
      <trkpt lat="38.31245461" lon="-2.72903416"><ele>1726</ele><speed>13.39</speed><time>2016-06-02T11:39:35Z</time><pdop>4.0</pdop><geoidheight>51.00</geoidheight><course>322.2</course><type>1</type></trkpt>
      <trkpt lat="38.31254447" lon="-2.72913204"><ele>1725</ele><speed>13.06</speed><time>2016-06-02T11:39:36Z</time><pdop>4.0</pdop><geoidheight>51.00</geoidheight><course>321.4</course><type>1</type></trkpt>
      <trkpt lat="38.31263436" lon="-2.7292456"><ele>1725</ele><speed>13.04</speed><time>2016-06-02T11:39:37Z</time><pdop>4.0</pdop><geoidheight>51.00</geoidheight><course>319.1</course><type>1</type></trkpt>
      <trkpt lat="38.31272948" lon="-2.72935206"><ele>1723</ele><speed>13.49</speed><time>2016-06-02T11:39:38Z</time><pdop>4.0</pdop><geoidheight>51.00</geoidheight><course>319.6</course><type>1</type></trkpt>
      <trkpt lat="38.3128195" lon="-2.72943045"><ele>1720</ele><speed>13.50</speed><time>2016-06-02T11:39:39Z</time><pdop>4.0</pdop><geoidheight>51.00</geoidheight><course>322.5</course><type>1</type></trkpt>
      <trkpt lat="38.31292128" lon="-2.72953692"><ele>1720</ele><speed>13.88</speed><time>2016-06-02T11:39:40Z</time><pdop>4.0</pdop><geoidheight>51.00</geoidheight><course>323.5</course><type>1</type></trkpt>
      <trkpt lat="38.31303715" lon="-2.72962253"><ele>1719</ele><speed>13.86</speed><time>2016-06-02T11:39:41Z</time><pdop>4.0</pdop><geoidheight>51.00</geoidheight><course>328.4</course><type>1</type></trkpt>
      <trkpt lat="38.31314162" lon="-2.72967308"><ele>1717</ele><speed>13.07</speed><time>2016-06-02T11:39:42Z</time><pdop>4.0</pdop><geoidheight>51.00</geoidheight><course>331.4</course><type>1</type></trkpt>
      <trkpt lat="38.31322518" lon="-2.72973731"><ele>1715</ele><speed>12.52</speed><time>2016-06-02T11:39:43Z</time><pdop>4.0</pdop><geoidheight>51.00</geoidheight><course>333.3</course><type>1</type></trkpt>
      <trkpt lat="38.31331475" lon="-2.72979657"><ele>1714</ele><speed>11.79</speed><time>2016-06-02T11:39:44Z</time><pdop>4.0</pdop><geoidheight>51.00</geoidheight><course>332.4</course><type>1</type></trkpt>
      <trkpt lat="38.31338134" lon="-2.72986845"><ele>1712</ele><speed>11.26</speed><time>2016-06-02T11:39:45Z</time><pdop>4.0</pdop><geoidheight>51.00</geoidheight><course>327.2</course><type>1</type></trkpt>
      <trkpt lat="38.31347309" lon="-2.72993421"><ele>1710</ele><speed>11.09</speed><time>2016-06-02T11:39:46Z</time><pdop>3.0</pdop><geoidheight>51.00</geoidheight><course>325.8</course><type>1</type></trkpt>
      <trkpt lat="38.31356671" lon="-2.73000341"><ele>1708</ele><speed>11.19</speed><time>2016-06-02T11:39:47Z</time><pdop>3.0</pdop><geoidheight>51.00</geoidheight><course>329.4</course><type>1</type></trkpt>
      <trkpt lat="38.31364768" lon="-2.73005548"><ele>1706</ele><speed>11.02</speed><time>2016-06-02T11:39:48Z</time><pdop>3.0</pdop><geoidheight>51.00</geoidheight><course>330.3</course><type>1</type></trkpt>
      <trkpt lat="38.31373137" lon="-2.73009831"><ele>1705</ele><speed>10.28</speed><time>2016-06-02T11:39:49Z</time><pdop>3.0</pdop><geoidheight>51.00</geoidheight><course>334.6</course><type>1</type></trkpt>
      <trkpt lat="38.31381101" lon="-2.73011777"><ele>1704</ele><speed>8.77</speed><time>2016-06-02T11:39:50Z</time><pdop>3.0</pdop><geoidheight>51.00</geoidheight><course>339.1</course><type>1</type></trkpt>
      <trkpt lat="38.31388569" lon="-2.73013925"><ele>1702</ele><speed>8.60</speed><time>2016-06-02T11:39:51Z</time><pdop>3.0</pdop><geoidheight>51.00</geoidheight><course>343.9</course><type>1</type></trkpt>
      <trkpt lat="38.3139575" lon="-2.73015321"><ele>1701</ele><speed>8.48</speed><time>2016-06-02T11:39:52Z</time><pdop>3.0</pdop><geoidheight>51.00</geoidheight><course>348.3</course><type>1</type></trkpt>
      <trkpt lat="38.31403624" lon="-2.73017026"><ele>1700</ele><speed>8.81</speed><time>2016-06-02T11:39:53Z</time><pdop>4.0</pdop><geoidheight>51.00</geoidheight><course>349.8</course><type>1</type></trkpt>
      <trkpt lat="38.31414253" lon="-2.73021685"><ele>1698</ele><speed>10.33</speed><time>2016-06-02T11:39:54Z</time><pdop>4.0</pdop><geoidheight>51.00</geoidheight><course>344.4</course><type>1</type></trkpt>
      <trkpt lat="38.31423049" lon="-2.73024878"><ele>1697</ele><speed>10.30</speed><time>2016-06-02T11:39:55Z</time><pdop>5.0</pdop><geoidheight>51.00</geoidheight><course>346.0</course><type>1</type></trkpt>
      <trkpt lat="38.3143619" lon="-2.73023564"><ele>1696</ele><speed>8.49</speed><time>2016-06-02T11:39:57Z</time><pdop>4.0</pdop><geoidheight>51.00</geoidheight><course>0.5</course><type>1</type></trkpt>
      <trkpt lat="38.31444418" lon="-2.73023664"><ele>1694</ele><speed>8.63</speed><time>2016-06-02T11:39:58Z</time><pdop>4.0</pdop><geoidheight>51.00</geoidheight><course>0.8</course><type>1</type></trkpt>
      <trkpt lat="38.31454546" lon="-2.73025445"><ele>1684</ele><speed>7.83</speed><time>2016-06-02T11:40:00Z</time><pdop>3.0</pdop><geoidheight>51.00</geoidheight><course>336.2</course><type>1</type></trkpt>
      <trkpt lat="38.31461939" lon="-2.73029105"><ele>1681</ele><speed>8.45</speed><time>2016-06-02T11:40:01Z</time><pdop>4.0</pdop><geoidheight>51.00</geoidheight><course>333.7</course><type>1</type></trkpt>
      <trkpt lat="38.31469625" lon="-2.7303521"><ele>1678</ele><speed>9.63</speed><time>2016-06-02T11:40:02Z</time><pdop>5.0</pdop><geoidheight>51.00</geoidheight><course>329.0</course><type>1</type></trkpt>
      <trkpt lat="38.31484855" lon="-2.73047606"><ele>1672</ele><speed>10.40</speed><time>2016-06-02T11:40:04Z</time><pdop>7.0</pdop><geoidheight>51.00</geoidheight><course>327.0</course><type>1</type></trkpt>
      <trkpt lat="38.31505583" lon="-2.73060488"><ele>1667</ele><speed>11.95</speed><time>2016-06-02T11:40:06Z</time><pdop>8.0</pdop><geoidheight>51.00</geoidheight><course>332.3</course><type>1</type></trkpt>
      <trkpt lat="38.3152746" lon="-2.73069622"><ele>1663</ele><speed>12.02</speed><time>2016-06-02T11:40:08Z</time><pdop>6.0</pdop><geoidheight>51.00</geoidheight><course>336.2</course><type>1</type></trkpt>
      <trkpt lat="38.31542576" lon="-2.73078313"><ele>1657</ele><speed>11.19</speed><time>2016-06-02T11:40:10Z</time><pdop>6.0</pdop><geoidheight>51.00</geoidheight><course>336.2</course><type>1</type></trkpt>
      <trkpt lat="38.31551467" lon="-2.73091381"><ele>1654</ele><speed>12.63</speed><time>2016-06-02T11:40:11Z</time><pdop>5.0</pdop><geoidheight>51.00</geoidheight><course>325.8</course><type>1</type></trkpt>
      <trkpt lat="38.31560895" lon="-2.7309489"><ele>1650</ele><speed>12.12</speed><time>2016-06-02T11:40:12Z</time><pdop>4.0</pdop><geoidheight>51.00</geoidheight><course>326.5</course><type>1</type></trkpt>
      <trkpt lat="38.31570413" lon="-2.73101947"><ele>1646</ele><speed>12.29</speed><time>2016-06-02T11:40:13Z</time><pdop>4.0</pdop><geoidheight>51.00</geoidheight><course>326.4</course><type>1</type></trkpt>
      <trkpt lat="38.31577433" lon="-2.73109964"><ele>1642</ele><speed>11.61</speed><time>2016-06-02T11:40:14Z</time><pdop>4.0</pdop><geoidheight>51.00</geoidheight><course>323.8</course><type>1</type></trkpt>
      <trkpt lat="38.31584921" lon="-2.7311878"><ele>1641</ele><speed>11.23</speed><time>2016-06-02T11:40:15Z</time><pdop>4.0</pdop><geoidheight>51.00</geoidheight><course>320.5</course><type>1</type></trkpt>
      <trkpt lat="38.31592392" lon="-2.73128611"><ele>1640</ele><speed>11.27</speed><time>2016-06-02T11:40:16Z</time><pdop>5.0</pdop><geoidheight>51.00</geoidheight><course>318.2</course><type>1</type></trkpt>
      <trkpt lat="38.31602239" lon="-2.73137902"><ele>1643</ele><speed>4.51</speed><time>2016-06-02T11:40:19Z</time><pdop>7.0</pdop><geoidheight>51.00</geoidheight><course>334.7</course><type>1</type></trkpt>
      <trkpt lat="38.31617137" lon="-2.73149107"><ele>1641</ele><speed>8.54</speed><time>2016-06-02T11:40:22Z</time><pdop>5.0</pdop><geoidheight>51.00</geoidheight><course>329.3</course><type>1</type></trkpt>
      <trkpt lat="38.31632554" lon="-2.73162095"><ele>1644</ele><speed>9.61</speed><time>2016-06-02T11:40:24Z</time><pdop>4.0</pdop><geoidheight>51.00</geoidheight><course>323.7</course><type>1</type></trkpt>
      <trkpt lat="38.31641776" lon="-2.73177372"><ele>1644</ele><speed>8.87</speed><time>2016-06-02T11:40:26Z</time><pdop>4.0</pdop><geoidheight>51.00</geoidheight><course>312.7</course><type>1</type></trkpt>
      <trkpt lat="38.31645501" lon="-2.731858"><ele>1645</ele><speed>8.36</speed><time>2016-06-02T11:40:27Z</time><pdop>4.0</pdop><geoidheight>51.00</geoidheight><course>307.6</course><type>1</type></trkpt>
      <trkpt lat="38.31651643" lon="-2.73203589"><ele>1647</ele><speed>7.89</speed><time>2016-06-02T11:40:29Z</time><pdop>6.0</pdop><geoidheight>51.00</geoidheight><course>299.3</course><type>1</type></trkpt>
      <trkpt lat="38.31659944" lon="-2.73216719"><ele>1653</ele><speed>5.09</speed><time>2016-06-02T11:40:32Z</time><pdop>8.0</pdop><geoidheight>51.00</geoidheight><course>303.8</course><type>1</type></trkpt>
      <trkpt lat="38.31666264" lon="-2.7323559"><ele>1661</ele><speed>6.81</speed><time>2016-06-02T11:40:35Z</time><pdop>6.0</pdop><geoidheight>51.00</geoidheight><course>310.2</course><type>1</type></trkpt>
      <trkpt lat="38.31676816" lon="-2.73245709"><ele>1666</ele><speed>7.74</speed><time>2016-06-02T11:40:37Z</time><pdop>4.0</pdop><geoidheight>51.00</geoidheight><course>335.5</course><type>1</type></trkpt>
      <trkpt lat="38.31684012" lon="-2.73247178"><ele>1672</ele><speed>7.85</speed><time>2016-06-02T11:40:38Z</time><pdop>3.0</pdop><geoidheight>51.00</geoidheight><course>347.5</course><type>1</type></trkpt>
      <trkpt lat="38.31690923" lon="-2.7324874"><ele>1675</ele><speed>7.67</speed><time>2016-06-02T11:40:39Z</time><pdop>3.0</pdop><geoidheight>51.00</geoidheight><course>351.0</course><type>1</type></trkpt>
      <trkpt lat="38.31698438" lon="-2.73250227"><ele>1676</ele><speed>7.46</speed><time>2016-06-02T11:40:40Z</time><pdop>3.0</pdop><geoidheight>51.00</geoidheight><course>349.3</course><type>1</type></trkpt>
      <trkpt lat="38.31704757" lon="-2.73253751"><ele>1675</ele><speed>7.34</speed><time>2016-06-02T11:40:41Z</time><pdop>3.0</pdop><geoidheight>51.00</geoidheight><course>336.8</course><type>1</type></trkpt>
      <trkpt lat="38.31710991" lon="-2.73258808"><ele>1675</ele><speed>7.84</speed><time>2016-06-02T11:40:42Z</time><pdop>3.0</pdop><geoidheight>51.00</geoidheight><course>328.8</course><type>1</type></trkpt>
      <trkpt lat="38.317173" lon="-2.732643"><ele>1675</ele><speed>8.25</speed><time>2016-06-02T11:40:43Z</time><pdop>4.0</pdop><geoidheight>51.00</geoidheight><course>326.6</course><type>1</type></trkpt>
      <trkpt lat="38.31723752" lon="-2.73273732"><ele>1675</ele><speed>9.41</speed><time>2016-06-02T11:40:44Z</time><pdop>5.0</pdop><geoidheight>51.00</geoidheight><course>317.7</course><type>1</type></trkpt>
      <trkpt lat="38.31728488" lon="-2.73286388"><ele>1676</ele><speed>10.34</speed><time>2016-06-02T11:40:45Z</time><pdop>5.0</pdop><geoidheight>51.00</geoidheight><course>307.2</course><type>1</type></trkpt>
      <trkpt lat="38.31737367" lon="-2.73303175"><ele>1678</ele><speed>8.40</speed><time>2016-06-02T11:40:47Z</time><pdop>6.0</pdop><geoidheight>51.00</geoidheight><course>307.7</course><type>1</type></trkpt>
      <trkpt lat="38.31753759" lon="-2.73307312"><ele>1678</ele><speed>8.36</speed><time>2016-06-02T11:40:49Z</time><pdop>5.0</pdop><geoidheight>51.00</geoidheight><course>339.1</course><type>1</type></trkpt>
      <trkpt lat="38.31768748" lon="-2.7331358"><ele>1676</ele><speed>9.04</speed><time>2016-06-02T11:40:51Z</time><pdop>6.0</pdop><geoidheight>51.00</geoidheight><course>340.4</course><type>1</type></trkpt>
      <trkpt lat="38.31780289" lon="-2.73322671"><ele>1670</ele><speed>7.62</speed><time>2016-06-02T11:40:53Z</time><pdop>4.0</pdop><geoidheight>51.00</geoidheight><course>337.0</course><type>1</type></trkpt>
      <trkpt lat="38.31788888" lon="-2.73329543"><ele>1669</ele><speed>6.36</speed><time>2016-06-02T11:40:55Z</time><pdop>4.0</pdop><geoidheight>51.00</geoidheight><course>329.6</course><type>1</type></trkpt>
      <trkpt lat="38.31797056" lon="-2.73337302"><ele>1665</ele><speed>5.39</speed><time>2016-06-02T11:40:57Z</time><pdop>4.0</pdop><geoidheight>51.00</geoidheight><course>325.4</course><type>1</type></trkpt>
      <trkpt lat="38.31802295" lon="-2.7334514"><ele>1660</ele><speed>4.68</speed><time>2016-06-02T11:40:59Z</time><pdop>4.0</pdop><geoidheight>51.00</geoidheight><course>288.7</course><type>1</type></trkpt>
      <trkpt lat="38.31801707" lon="-2.7335953"><ele>1657</ele><speed>6.05</speed><time>2016-06-02T11:41:01Z</time><pdop>4.0</pdop><geoidheight>51.00</geoidheight><course>272.2</course><type>1</type></trkpt>
      <trkpt lat="38.3180341" lon="-2.73371266"><ele>1656</ele><speed>4.79</speed><time>2016-06-02T11:41:03Z</time><pdop>3.0</pdop><geoidheight>51.00</geoidheight><course>288.5</course><type>1</type></trkpt>
      <trkpt lat="38.3180582" lon="-2.73381787"><ele>1654</ele><speed>5.22</speed><time>2016-06-02T11:41:05Z</time><pdop>4.0</pdop><geoidheight>51.00</geoidheight><course>291.7</course><type>1</type></trkpt>
      <trkpt lat="38.31809498" lon="-2.73394116"><ele>1651</ele><speed>6.29</speed><time>2016-06-02T11:41:07Z</time><pdop>3.0</pdop><geoidheight>51.00</geoidheight><course>285.1</course><type>1</type></trkpt>
      <trkpt lat="38.31811074" lon="-2.73400699"><ele>1648</ele><speed>6.12</speed><time>2016-06-02T11:41:08Z</time><pdop>3.0</pdop><geoidheight>51.00</geoidheight><course>290.3</course><type>1</type></trkpt>
      <trkpt lat="38.31815638" lon="-2.73410075"><ele>1644</ele><speed>5.06</speed><time>2016-06-02T11:41:10Z</time><pdop>3.0</pdop><geoidheight>51.00</geoidheight><course>292.7</course><type>1</type></trkpt>
      <trkpt lat="38.31819974" lon="-2.73420321"><ele>1638</ele><speed>5.66</speed><time>2016-06-02T11:41:12Z</time><pdop>3.0</pdop><geoidheight>51.00</geoidheight><course>296.0</course><type>1</type></trkpt>
      <trkpt lat="38.31821039" lon="-2.73427111"><ele>1634</ele><speed>7.13</speed><time>2016-06-02T11:41:13Z</time><pdop>3.0</pdop><geoidheight>51.00</geoidheight><course>290.7</course><type>1</type></trkpt>
      <trkpt lat="38.31822413" lon="-2.73436254"><ele>1629</ele><speed>8.26</speed><time>2016-06-02T11:41:14Z</time><pdop>3.0</pdop><geoidheight>51.00</geoidheight><course>283.9</course><type>1</type></trkpt>
      <trkpt lat="38.31824099" lon="-2.73444498"><ele>1625</ele><speed>7.86</speed><time>2016-06-02T11:41:15Z</time><pdop>4.0</pdop><geoidheight>51.00</geoidheight><course>282.5</course><type>1</type></trkpt>
      <trkpt lat="38.31823075" lon="-2.73457493"><ele>1616</ele><speed>7.36</speed><time>2016-06-02T11:41:17Z</time><pdop>4.0</pdop><geoidheight>51.00</geoidheight><course>265.5</course><type>1</type></trkpt>
      <trkpt lat="38.31817296" lon="-2.73471304"><ele>1615</ele><speed>6.33</speed><time>2016-06-02T11:41:19Z</time><pdop>8.0</pdop><geoidheight>51.00</geoidheight><course>248.7</course><type>1</type></trkpt>
      <trkpt lat="38.31804621" lon="-2.73448019"><ele>1613</ele><speed>4.67</speed><time>2016-06-02T11:41:22Z</time><pdop>9.0</pdop><geoidheight>51.00</geoidheight><course>121.9</course><type>1</type></trkpt>
      <trkpt lat="38.31795754" lon="-2.73427419"><ele>1611</ele><speed>7.15</speed><time>2016-06-02T11:41:24Z</time><pdop>9.0</pdop><geoidheight>51.00</geoidheight><course>119.9</course><type>1</type></trkpt>
      <trkpt lat="38.31796975" lon="-2.73397703"><ele>1610</ele><speed>13.63</speed><time>2016-06-02T11:41:25Z</time><pdop>6.0</pdop><geoidheight>51.00</geoidheight><course>96.5</course><type>1</type></trkpt>
      <trkpt lat="38.31793844" lon="-2.73378033"><ele>1608</ele><speed>14.94</speed><time>2016-06-02T11:41:26Z</time><pdop>5.0</pdop><geoidheight>51.00</geoidheight><course>95.1</course><type>1</type></trkpt>
      <trkpt lat="38.31798789" lon="-2.73359187"><ele>1605</ele><speed>14.42</speed><time>2016-06-02T11:41:27Z</time><pdop>5.0</pdop><geoidheight>51.00</geoidheight><course>83.2</course><type>1</type></trkpt>
      <trkpt lat="38.31800578" lon="-2.73344156"><ele>1603</ele><speed>12.96</speed><time>2016-06-02T11:41:28Z</time><pdop>4.0</pdop><geoidheight>51.00</geoidheight><course>83.3</course><type>1</type></trkpt>
      <trkpt lat="38.31801271" lon="-2.73330616"><ele>1599</ele><speed>12.44</speed><time>2016-06-02T11:41:29Z</time><pdop>4.0</pdop><geoidheight>51.00</geoidheight><course>85.8</course><type>1</type></trkpt>
      <trkpt lat="38.31800678" lon="-2.73316503"><ele>1593</ele><speed>13.24</speed><time>2016-06-02T11:41:30Z</time><pdop>4.0</pdop><geoidheight>51.00</geoidheight><course>89.5</course><type>1</type></trkpt>
      <trkpt lat="38.31800456" lon="-2.73301329"><ele>1588</ele><speed>13.70</speed><time>2016-06-02T11:41:31Z</time><pdop>4.0</pdop><geoidheight>51.00</geoidheight><course>89.9</course><type>1</type></trkpt>
      <trkpt lat="38.31800785" lon="-2.73283065"><ele>1584</ele><speed>15.46</speed><time>2016-06-02T11:41:32Z</time><pdop>4.0</pdop><geoidheight>51.00</geoidheight><course>89.1</course><type>1</type></trkpt>
      <trkpt lat="38.31801831" lon="-2.73264678"><ele>1579</ele><speed>15.82</speed><time>2016-06-02T11:41:33Z</time><pdop>4.0</pdop><geoidheight>51.00</geoidheight><course>85.2</course><type>1</type></trkpt>
      <trkpt lat="38.31803654" lon="-2.73246494"><ele>1577</ele><speed>15.75</speed><time>2016-06-02T11:41:34Z</time><pdop>4.0</pdop><geoidheight>51.00</geoidheight><course>81.0</course><type>1</type></trkpt>
      <trkpt lat="38.31806999" lon="-2.73229281"><ele>1575</ele><speed>15.20</speed><time>2016-06-02T11:41:35Z</time><pdop>3.0</pdop><geoidheight>51.00</geoidheight><course>78.7</course><type>1</type></trkpt>
      <trkpt lat="38.31810201" lon="-2.73212699"><ele>1573</ele><speed>15.06</speed><time>2016-06-02T11:41:36Z</time><pdop>4.0</pdop><geoidheight>51.00</geoidheight><course>77.1</course><type>1</type></trkpt>
      <trkpt lat="38.31813048" lon="-2.7319583"><ele>1570</ele><speed>15.28</speed><time>2016-06-02T11:41:37Z</time><pdop>3.0</pdop><geoidheight>51.00</geoidheight><course>79.1</course><type>1</type></trkpt>
      <trkpt lat="38.31817009" lon="-2.7317647"><ele>1567</ele><speed>17.18</speed><time>2016-06-02T11:41:38Z</time><pdop>4.0</pdop><geoidheight>51.00</geoidheight><course>77.2</course><type>1</type></trkpt>
      <trkpt lat="38.31820491" lon="-2.73156734"><ele>1563</ele><speed>18.21</speed><time>2016-06-02T11:41:39Z</time><pdop>4.0</pdop><geoidheight>51.00</geoidheight><course>77.9</course><type>1</type></trkpt>
      <trkpt lat="38.31825449" lon="-2.73134745"><ele>1561</ele><speed>19.96</speed><time>2016-06-02T11:41:40Z</time><pdop>4.0</pdop><geoidheight>51.00</geoidheight><course>74.3</course><type>1</type></trkpt>
      <trkpt lat="38.31829495" lon="-2.73113074"><ele>1553</ele><speed>20.59</speed><time>2016-06-02T11:41:41Z</time><pdop>4.0</pdop><geoidheight>51.00</geoidheight><course>74.3</course><type>1</type></trkpt>
      <trkpt lat="38.31833666" lon="-2.73090522"><ele>1550</ele><speed>21.23</speed><time>2016-06-02T11:41:42Z</time><pdop>4.0</pdop><geoidheight>51.00</geoidheight><course>74.2</course><type>1</type></trkpt>
      <trkpt lat="38.31838308" lon="-2.73067418"><ele>1546</ele><speed>21.54</speed><time>2016-06-02T11:41:43Z</time><pdop>4.0</pdop><geoidheight>51.00</geoidheight><course>76.2</course><type>1</type></trkpt>
      <trkpt lat="38.31841712" lon="-2.73043816"><ele>1543</ele><speed>21.28</speed><time>2016-06-02T11:41:44Z</time><pdop>3.0</pdop><geoidheight>51.00</geoidheight><course>79.2</course><type>1</type></trkpt>
      <trkpt lat="38.3184523" lon="-2.73020477"><ele>1541</ele><speed>20.77</speed><time>2016-06-02T11:41:45Z</time><pdop>3.0</pdop><geoidheight>51.00</geoidheight><course>79.5</course><type>1</type></trkpt>
      <trkpt lat="38.31849499" lon="-2.72998016"><ele>1540</ele><speed>20.49</speed><time>2016-06-02T11:41:46Z</time><pdop>3.0</pdop><geoidheight>51.00</geoidheight><course>76.6</course><type>1</type></trkpt>
      <trkpt lat="38.31853981" lon="-2.72974927"><ele>1538</ele><speed>20.74</speed><time>2016-06-02T11:41:47Z</time><pdop>3.0</pdop><geoidheight>51.00</geoidheight><course>73.9</course><type>1</type></trkpt>
      <trkpt lat="38.31859" lon="-2.72952181"><ele>1536</ele><speed>20.81</speed><time>2016-06-02T11:41:48Z</time><pdop>3.0</pdop><geoidheight>51.00</geoidheight><course>74.0</course><type>1</type></trkpt>
      <trkpt lat="38.31863551" lon="-2.72929513"><ele>1534</ele><speed>20.88</speed><time>2016-06-02T11:41:49Z</time><pdop>3.0</pdop><geoidheight>51.00</geoidheight><course>75.3</course><type>1</type></trkpt>
      <trkpt lat="38.31867839" lon="-2.72906723"><ele>1532</ele><speed>20.79</speed><time>2016-06-02T11:41:50Z</time><pdop>3.0</pdop><geoidheight>51.00</geoidheight><course>76.7</course><type>1</type></trkpt>
      <trkpt lat="38.31872339" lon="-2.72883974"><ele>1530</ele><speed>20.61</speed><time>2016-06-02T11:41:51Z</time><pdop>3.0</pdop><geoidheight>51.00</geoidheight><course>76.0</course><type>1</type></trkpt>
      <trkpt lat="38.31876316" lon="-2.72861939"><ele>1526</ele><speed>21.24</speed><time>2016-06-02T11:41:52Z</time><pdop>3.0</pdop><geoidheight>51.00</geoidheight><course>71.9</course><type>1</type></trkpt>
      <trkpt lat="38.31883305" lon="-2.72838071"><ele>1525</ele><speed>22.24</speed><time>2016-06-02T11:41:53Z</time><pdop>3.0</pdop><geoidheight>51.00</geoidheight><course>68.9</course><type>1</type></trkpt>
      <trkpt lat="38.31890535" lon="-2.72814417"><ele>1523</ele><speed>22.20</speed><time>2016-06-02T11:41:54Z</time><pdop>4.0</pdop><geoidheight>51.00</geoidheight><course>68.8</course><type>1</type></trkpt>
      <trkpt lat="38.31898368" lon="-2.72792687"><ele>1520</ele><speed>22.04</speed><time>2016-06-02T11:41:55Z</time><pdop>4.0</pdop><geoidheight>51.00</geoidheight><course>67.7</course><type>1</type></trkpt>
      <trkpt lat="38.31905232" lon="-2.72769258"><ele>1520</ele><speed>21.58</speed><time>2016-06-02T11:41:56Z</time><pdop>4.0</pdop><geoidheight>51.00</geoidheight><course>69.5</course><type>1</type></trkpt>
      <trkpt lat="38.31912037" lon="-2.72746146"><ele>1520</ele><speed>21.58</speed><time>2016-06-02T11:41:57Z</time><pdop>6.0</pdop><geoidheight>51.00</geoidheight><course>69.5</course><type>1</type></trkpt>
      <trkpt lat="38.31914992" lon="-2.72724297"><ele>1521</ele><speed>19.83</speed><time>2016-06-02T11:41:58Z</time><pdop>4.0</pdop><geoidheight>51.00</geoidheight><course>75.2</course><type>1</type></trkpt>
      <trkpt lat="38.3191937" lon="-2.72702295"><ele>1521</ele><speed>19.17</speed><time>2016-06-02T11:41:59Z</time><pdop>5.0</pdop><geoidheight>51.00</geoidheight><course>74.8</course><type>1</type></trkpt>
      <trkpt lat="38.31923896" lon="-2.72681139"><ele>1521</ele><speed>19.17</speed><time>2016-06-02T11:42:00Z</time><pdop>5.0</pdop><geoidheight>51.00</geoidheight><course>74.8</course><type>1</type></trkpt>
      <trkpt lat="38.31929857" lon="-2.72661726"><ele>1522</ele><speed>18.23</speed><time>2016-06-02T11:42:01Z</time><pdop>5.0</pdop><geoidheight>51.00</geoidheight><course>72.0</course><type>1</type></trkpt>
      <trkpt lat="38.31934956" lon="-2.72644989"><ele>1522</ele><speed>16.70</speed><time>2016-06-02T11:42:02Z</time><pdop>5.0</pdop><geoidheight>51.00</geoidheight><course>61.4</course><type>1</type></trkpt>
      <trkpt lat="38.31942154" lon="-2.72628222"><ele>1521</ele><speed>16.70</speed><time>2016-06-02T11:42:03Z</time><pdop>6.0</pdop><geoidheight>51.00</geoidheight><course>61.4</course><type>1</type></trkpt>
      <trkpt lat="38.31958381" lon="-2.72605554"><ele>1520</ele><speed>13.69</speed><time>2016-06-02T11:42:05Z</time><pdop>10.0</pdop><geoidheight>51.00</geoidheight><course>51.9</course><type>1</type></trkpt>
      <trkpt lat="38.31947968" lon="-2.7258604"><ele>1517</ele><speed>8.07</speed><time>2016-06-02T11:42:15Z</time><pdop>10.0</pdop><geoidheight>51.00</geoidheight><course>136.8</course><type>1</type></trkpt>
      <trkpt lat="38.31939439" lon="-2.72539921"><ele>1516</ele><speed>15.92</speed><time>2016-06-02T11:42:17Z</time><pdop>9.0</pdop><geoidheight>51.00</geoidheight><course>105.0</course><type>1</type></trkpt>
      <trkpt lat="38.31944048" lon="-2.725115"><ele>1514</ele><speed>19.43</speed><time>2016-06-02T11:42:18Z</time><pdop>6.0</pdop><geoidheight>51.00</geoidheight><course>89.0</course><type>1</type></trkpt>
      <trkpt lat="38.31945564" lon="-2.72488767"><ele>1514</ele><speed>19.88</speed><time>2016-06-02T11:42:19Z</time><pdop>5.0</pdop><geoidheight>51.00</geoidheight><course>82.4</course><type>1</type></trkpt>
      <trkpt lat="38.31949413" lon="-2.72465876"><ele>1514</ele><speed>19.25</speed><time>2016-06-02T11:42:20Z</time><pdop>5.0</pdop><geoidheight>51.00</geoidheight><course>76.8</course><type>1</type></trkpt>
      <trkpt lat="38.31954168" lon="-2.72445411"><ele>1513</ele><speed>18.56</speed><time>2016-06-02T11:42:21Z</time><pdop>4.0</pdop><geoidheight>51.00</geoidheight><course>72.4</course><type>1</type></trkpt>
      <trkpt lat="38.31960233" lon="-2.7242549"><ele>1511</ele><speed>18.65</speed><time>2016-06-02T11:42:22Z</time><pdop>4.0</pdop><geoidheight>51.00</geoidheight><course>68.8</course><type>1</type></trkpt>
      <trkpt lat="38.31966775" lon="-2.72408107"><ele>1511</ele><speed>17.25</speed><time>2016-06-02T11:42:23Z</time><pdop>5.0</pdop><geoidheight>51.00</geoidheight><course>64.7</course><type>1</type></trkpt>
      <trkpt lat="38.31978413" lon="-2.72390642"><ele>1513</ele><speed>18.57</speed><time>2016-06-02T11:42:24Z</time><pdop>4.0</pdop><geoidheight>51.00</geoidheight><course>53.0</course><type>1</type></trkpt>
      <trkpt lat="38.31988972" lon="-2.72374079"><ele>1513</ele><speed>18.60</speed><time>2016-06-02T11:42:25Z</time><pdop>4.0</pdop><geoidheight>51.00</geoidheight><course>53.0</course><type>1</type></trkpt>
      <trkpt lat="38.31996024" lon="-2.72356266"><ele>1515</ele><speed>17.49</speed><time>2016-06-02T11:42:26Z</time><pdop>5.0</pdop><geoidheight>51.00</geoidheight><course>57.9</course><type>1</type></trkpt>
      <trkpt lat="38.3200234" lon="-2.72341812"><ele>1516</ele><speed>15.78</speed><time>2016-06-02T11:42:27Z</time><pdop>6.0</pdop><geoidheight>51.00</geoidheight><course>59.5</course><type>1</type></trkpt>
      <trkpt lat="38.32007919" lon="-2.7232826"><ele>1517</ele><speed>14.48</speed><time>2016-06-02T11:42:28Z</time><pdop>7.0</pdop><geoidheight>51.00</geoidheight><course>60.9</course><type>1</type></trkpt>
      <trkpt lat="38.32013547" lon="-2.72312278"><ele>1523</ele><speed>14.13</speed><time>2016-06-02T11:42:29Z</time><pdop>5.0</pdop><geoidheight>51.00</geoidheight><course>58.3</course><type>1</type></trkpt>
      <trkpt lat="38.32019183" lon="-2.72302143"><ele>1526</ele><speed>12.82</speed><time>2016-06-02T11:42:30Z</time><pdop>4.0</pdop><geoidheight>51.00</geoidheight><course>52.8</course><type>1</type></trkpt>
      <trkpt lat="38.32024728" lon="-2.72292534"><ele>1530</ele><speed>11.53</speed><time>2016-06-02T11:42:31Z</time><pdop>5.0</pdop><geoidheight>51.00</geoidheight><course>50.1</course><type>1</type></trkpt>
      <trkpt lat="38.32034287" lon="-2.72289153"><ele>1529</ele><speed>9.97</speed><time>2016-06-02T11:42:32Z</time><pdop>6.0</pdop><geoidheight>51.00</geoidheight><course>33.2</course><type>1</type></trkpt>
      <trkpt lat="38.32045386" lon="-2.7229999"><ele>1533</ele><speed>5.85</speed><time>2016-06-02T11:42:34Z</time><pdop>5.0</pdop><geoidheight>51.00</geoidheight><course>325.9</course><type>1</type></trkpt>
      <trkpt lat="38.32039023" lon="-2.7231389"><ele>1534</ele><speed>6.58</speed><time>2016-06-02T11:42:36Z</time><pdop>4.0</pdop><geoidheight>51.00</geoidheight><course>233.4</course><type>1</type></trkpt>
      <trkpt lat="38.32027068" lon="-2.72318496"><ele>1535</ele><speed>7.75</speed><time>2016-06-02T11:42:38Z</time><pdop>5.0</pdop><geoidheight>51.00</geoidheight><course>190.5</course><type>1</type></trkpt>
      <trkpt lat="38.32006332" lon="-2.723142"><ele>1535</ele><speed>9.45</speed><time>2016-06-02T11:42:40Z</time><pdop>6.0</pdop><geoidheight>51.00</geoidheight><course>169.0</course><type>1</type></trkpt>
      <trkpt lat="38.319875" lon="-2.72297009"><ele>1536</ele><speed>11.21</speed><time>2016-06-02T11:42:42Z</time><pdop>10.0</pdop><geoidheight>51.00</geoidheight><course>146.8</course><type>1</type></trkpt>
      <trkpt lat="38.31971533" lon="-2.7226479"><ele>1536</ele><speed>14.08</speed><time>2016-06-02T11:42:44Z</time><pdop>14.0</pdop><geoidheight>51.00</geoidheight><course>128.8</course><type>1</type></trkpt>
      <trkpt lat="38.3196364" lon="-2.72208509"><ele>1538</ele><speed>18.96</speed><time>2016-06-02T11:42:46Z</time><pdop>15.0</pdop><geoidheight>51.00</geoidheight><course>110.2</course><type>1</type></trkpt>
      <trkpt lat="38.31974082" lon="-2.72177278"><ele>1539</ele><speed>20.01</speed><time>2016-06-02T11:42:47Z</time><pdop>14.0</pdop><geoidheight>51.00</geoidheight><course>95.8</course><type>1</type></trkpt>
      <trkpt lat="38.31983252" lon="-2.72126463"><ele>1540</ele><speed>20.03</speed><time>2016-06-02T11:42:49Z</time><pdop>12.0</pdop><geoidheight>51.00</geoidheight><course>86.2</course><type>1</type></trkpt>
      <trkpt lat="38.31995629" lon="-2.72101521"><ele>1542</ele><speed>21.42</speed><time>2016-06-02T11:42:50Z</time><pdop>12.0</pdop><geoidheight>51.00</geoidheight><course>76.0</course><type>1</type></trkpt>
      <trkpt lat="38.32014979" lon="-2.72070137"><ele>1548</ele><speed>16.61</speed><time>2016-06-02T11:42:52Z</time><pdop>13.0</pdop><geoidheight>51.00</geoidheight><course>63.5</course><type>1</type></trkpt>
      <trkpt lat="38.3203498" lon="-2.72040842"><ele>1552</ele><speed>16.15</speed><time>2016-06-02T11:42:54Z</time><pdop>14.0</pdop><geoidheight>51.00</geoidheight><course>56.1</course><type>1</type></trkpt>
      <trkpt lat="38.3206223" lon="-2.72027896"><ele>1555</ele><speed>14.06</speed><time>2016-06-02T11:42:56Z</time><pdop>15.0</pdop><geoidheight>51.00</geoidheight><course>36.4</course><type>1</type></trkpt>
      <trkpt lat="38.32086458" lon="-2.72034279"><ele>1562</ele><speed>9.81</speed><time>2016-06-02T11:42:58Z</time><pdop>9.0</pdop><geoidheight>51.00</geoidheight><course>1.5</course><type>1</type></trkpt>
      <trkpt lat="38.32109385" lon="-2.72041441"><ele>1569</ele><speed>7.63</speed><time>2016-06-02T11:43:01Z</time><pdop>8.0</pdop><geoidheight>51.00</geoidheight><course>338.6</course><type>1</type></trkpt>
      <trkpt lat="38.32121315" lon="-2.72059509"><ele>1572</ele><speed>5.94</speed><time>2016-06-02T11:43:04Z</time><pdop>8.0</pdop><geoidheight>51.00</geoidheight><course>314.6</course><type>1</type></trkpt>
      <trkpt lat="38.32092548" lon="-2.72071782"><ele>1573</ele><speed>6.61</speed><time>2016-06-02T11:43:07Z</time><pdop>9.0</pdop><geoidheight>51.00</geoidheight><course>203.0</course><type>1</type></trkpt>
      <trkpt lat="38.32073324" lon="-2.7204805"><ele>1575</ele><speed>8.86</speed><time>2016-06-02T11:43:09Z</time><pdop>13.0</pdop><geoidheight>51.00</geoidheight><course>141.9</course><type>1</type></trkpt>
      <trkpt lat="38.32058636" lon="-2.72006201"><ele>1576</ele><speed>14.31</speed><time>2016-06-02T11:43:11Z</time><pdop>13.0</pdop><geoidheight>51.00</geoidheight><course>119.5</course><type>1</type></trkpt>
      <trkpt lat="38.3206283" lon="-2.71959595"><ele>1583</ele><speed>17.10</speed><time>2016-06-02T11:43:13Z</time><pdop>12.0</pdop><geoidheight>51.00</geoidheight><course>92.3</course><type>1</type></trkpt>
      <trkpt lat="38.3207564" lon="-2.71913562"><ele>1586</ele><speed>18.51</speed><time>2016-06-02T11:43:15Z</time><pdop>13.0</pdop><geoidheight>51.00</geoidheight><course>76.8</course><type>1</type></trkpt>
      <trkpt lat="38.32086015" lon="-2.71862516"><ele>1591</ele><speed>20.20</speed><time>2016-06-02T11:43:17Z</time><pdop>14.0</pdop><geoidheight>51.00</geoidheight><course>75.7</course><type>1</type></trkpt>
      <trkpt lat="38.32115493" lon="-2.71835934"><ele>1587</ele><speed>18.21</speed><time>2016-06-02T11:43:19Z</time><pdop>22.0</pdop><geoidheight>51.00</geoidheight><course>57.7</course><type>1</type></trkpt>
      <trkpt lat="38.32164499" lon="-2.71840001"><ele>1595</ele><speed>12.56</speed><time>2016-06-02T11:43:22Z</time><pdop>21.0</pdop><geoidheight>51.00</geoidheight><course>22.6</course><type>1</type></trkpt>
      <trkpt lat="38.32206706" lon="-2.71863445"><ele>1610</ele><speed>10.53</speed><time>2016-06-02T11:43:26Z</time><pdop>15.0</pdop><geoidheight>51.00</geoidheight><course>343.8</course><type>1</type></trkpt>
      <trkpt lat="38.32234216" lon="-2.71883263"><ele>1616</ele><speed>10.56</speed><time>2016-06-02T11:43:29Z</time><pdop>13.0</pdop><geoidheight>51.00</geoidheight><course>324.9</course><type>1</type></trkpt>
      <trkpt lat="38.32223223" lon="-2.71915681"><ele>1625</ele><speed>6.15</speed><time>2016-06-02T11:43:33Z</time><pdop>11.0</pdop><geoidheight>51.00</geoidheight><course>212.6</course><type>1</type></trkpt>
      <trkpt lat="38.32201953" lon="-2.71920567"><ele>1627</ele><speed>8.99</speed><time>2016-06-02T11:43:35Z</time><pdop>11.0</pdop><geoidheight>51.00</geoidheight><course>187.6</course><type>1</type></trkpt>
      <trkpt lat="38.321818" lon="-2.71914988"><ele>1628</ele><speed>8.75</speed><time>2016-06-02T11:43:38Z</time><pdop>11.0</pdop><geoidheight>51.00</geoidheight><course>154.9</course><type>1</type></trkpt>
      <trkpt lat="38.32165307" lon="-2.71891905"><ele>1628</ele><speed>13.08</speed><time>2016-06-02T11:43:40Z</time><pdop>10.0</pdop><geoidheight>51.00</geoidheight><course>127.1</course><type>1</type></trkpt>
      <trkpt lat="38.3214876" lon="-2.71855346"><ele>1629</ele><speed>16.79</speed><time>2016-06-02T11:43:42Z</time><pdop>10.0</pdop><geoidheight>51.00</geoidheight><course>114.9</course><type>1</type></trkpt>
      <trkpt lat="38.32149101" lon="-2.71821209"><ele>1628</ele><speed>14.95</speed><time>2016-06-02T11:43:44Z</time><pdop>10.0</pdop><geoidheight>51.00</geoidheight><course>94.8</course><type>1</type></trkpt>
      <trkpt lat="38.32164401" lon="-2.71788811"><ele>1636</ele><speed>13.62</speed><time>2016-06-02T11:43:46Z</time><pdop>10.0</pdop><geoidheight>51.00</geoidheight><course>66.2</course><type>1</type></trkpt>
      <trkpt lat="38.3217213" lon="-2.71762529"><ele>1640</ele><speed>11.74</speed><time>2016-06-02T11:43:48Z</time><pdop>10.0</pdop><geoidheight>51.00</geoidheight><course>68.1</course><type>1</type></trkpt>
      <trkpt lat="38.32191704" lon="-2.71742061"><ele>1645</ele><speed>8.94</speed><time>2016-06-02T11:43:51Z</time><pdop>11.0</pdop><geoidheight>51.00</geoidheight><course>33.9</course><type>1</type></trkpt>
      <trkpt lat="38.32212169" lon="-2.71764811"><ele>1648</ele><speed>7.43</speed><time>2016-06-02T11:43:55Z</time><pdop>11.0</pdop><geoidheight>51.00</geoidheight><course>308.7</course><type>1</type></trkpt>
      <trkpt lat="38.32189228" lon="-2.71792653"><ele>1648</ele><speed>7.78</speed><time>2016-06-02T11:43:58Z</time><pdop>11.0</pdop><geoidheight>51.00</geoidheight><course>236.8</course><type>1</type></trkpt>
      <trkpt lat="38.32161109" lon="-2.71769408"><ele>1649</ele><speed>9.86</speed><time>2016-06-02T11:44:01Z</time><pdop>11.0</pdop><geoidheight>51.00</geoidheight><course>156.6</course><type>1</type></trkpt>
      <trkpt lat="38.3214958" lon="-2.7174769"><ele>1650</ele><speed>13.47</speed><time>2016-06-02T11:44:02Z</time><pdop>10.0</pdop><geoidheight>51.00</geoidheight><course>136.6</course><type>1</type></trkpt>
      <trkpt lat="38.32134298" lon="-2.71721905"><ele>1656</ele><speed>13.38</speed><time>2016-06-02T11:44:04Z</time><pdop>9.0</pdop><geoidheight>51.00</geoidheight><course>118.2</course><type>1</type></trkpt>
      <trkpt lat="38.32128226" lon="-2.71691979"><ele>1659</ele><speed>13.93</speed><time>2016-06-02T11:44:06Z</time><pdop>3.0</pdop><geoidheight>51.00</geoidheight><course>97.9</course><type>1</type></trkpt>
      <trkpt lat="38.32129048" lon="-2.71674789"><ele>1659</ele><speed>14.10</speed><time>2016-06-02T11:44:07Z</time><pdop>3.0</pdop><geoidheight>51.00</geoidheight><course>89.1</course><type>1</type></trkpt>
      <trkpt lat="38.32132235" lon="-2.71657735"><ele>1660</ele><speed>15.53</speed><time>2016-06-02T11:44:08Z</time><pdop>3.0</pdop><geoidheight>51.00</geoidheight><course>79.0</course><type>1</type></trkpt>
      <trkpt lat="38.32135183" lon="-2.71639507"><ele>1659</ele><speed>16.44</speed><time>2016-06-02T11:44:09Z</time><pdop>3.0</pdop><geoidheight>51.00</geoidheight><course>77.7</course><type>1</type></trkpt>
      <trkpt lat="38.32137964" lon="-2.71620714"><ele>1659</ele><speed>16.44</speed><time>2016-06-02T11:44:10Z</time><pdop>3.0</pdop><geoidheight>51.00</geoidheight><course>79.0</course><type>1</type></trkpt>
      <trkpt lat="38.32140286" lon="-2.71601877"><ele>1660</ele><speed>16.09</speed><time>2016-06-02T11:44:11Z</time><pdop>3.0</pdop><geoidheight>51.00</geoidheight><course>80.6</course><type>1</type></trkpt>
      <trkpt lat="38.32143038" lon="-2.71585343"><ele>1660</ele><speed>15.73</speed><time>2016-06-02T11:44:12Z</time><pdop>3.0</pdop><geoidheight>51.00</geoidheight><course>77.4</course><type>1</type></trkpt>
      <trkpt lat="38.3214821" lon="-2.71567893"><ele>1661</ele><speed>15.73</speed><time>2016-06-02T11:44:13Z</time><pdop>3.0</pdop><geoidheight>51.00</geoidheight><course>70.0</course><type>1</type></trkpt>
      <trkpt lat="38.32154146" lon="-2.71552152"><ele>1662</ele><speed>16.06</speed><time>2016-06-02T11:44:14Z</time><pdop>3.0</pdop><geoidheight>51.00</geoidheight><course>63.5</course><type>1</type></trkpt>
      <trkpt lat="38.32162497" lon="-2.71535221"><ele>1665</ele><speed>16.77</speed><time>2016-06-02T11:44:15Z</time><pdop>3.0</pdop><geoidheight>51.00</geoidheight><course>59.0</course><type>1</type></trkpt>
      <trkpt lat="38.32169109" lon="-2.71518904"><ele>1668</ele><speed>15.78</speed><time>2016-06-02T11:44:16Z</time><pdop>3.0</pdop><geoidheight>51.00</geoidheight><course>62.9</course><type>1</type></trkpt>
      <trkpt lat="38.32171725" lon="-2.71503749"><ele>1671</ele><speed>13.82</speed><time>2016-06-02T11:44:17Z</time><pdop>3.0</pdop><geoidheight>51.00</geoidheight><course>73.6</course><type>1</type></trkpt>
      <trkpt lat="38.32171782" lon="-2.71489903"><ele>1672</ele><speed>12.28</speed><time>2016-06-02T11:44:18Z</time><pdop>3.0</pdop><geoidheight>51.00</geoidheight><course>85.7</course><type>1</type></trkpt>
      <trkpt lat="38.3217158" lon="-2.71477589"><ele>1673</ele><speed>11.27</speed><time>2016-06-02T11:44:19Z</time><pdop>3.0</pdop><geoidheight>51.00</geoidheight><course>91.1</course><type>1</type></trkpt>
      <trkpt lat="38.32169259" lon="-2.71466832"><ele>1673</ele><speed>9.96</speed><time>2016-06-02T11:44:20Z</time><pdop>4.0</pdop><geoidheight>51.00</geoidheight><course>99.5</course><type>1</type></trkpt>
      <trkpt lat="38.32160094" lon="-2.71452624"><ele>1675</ele><speed>8.56</speed><time>2016-06-02T11:44:22Z</time><pdop>5.0</pdop><geoidheight>51.00</geoidheight><course>128.8</course><type>1</type></trkpt>
      <trkpt lat="38.3215715" lon="-2.71469259"><ele>1681</ele><speed>5.18</speed><time>2016-06-02T11:44:26Z</time><pdop>8.0</pdop><geoidheight>51.00</geoidheight><course>270.7</course><type>1</type></trkpt>
      <trkpt lat="38.32169735" lon="-2.71487156"><ele>1686</ele><speed>6.09</speed><time>2016-06-02T11:44:29Z</time><pdop>11.0</pdop><geoidheight>51.00</geoidheight><course>307.2</course><type>1</type></trkpt>
      <trkpt lat="38.32205001" lon="-2.71470345"><ele>1692</ele><speed>10.40</speed><time>2016-06-02T11:44:31Z</time><pdop>10.0</pdop><geoidheight>51.00</geoidheight><course>17.4</course><type>1</type></trkpt>
      <trkpt lat="38.32224995" lon="-2.71461219"><ele>1694</ele><speed>13.71</speed><time>2016-06-02T11:44:32Z</time><pdop>9.0</pdop><geoidheight>51.00</geoidheight><course>21.3</course><type>1</type></trkpt>
      <trkpt lat="38.32238468" lon="-2.71445096"><ele>1695</ele><speed>15.03</speed><time>2016-06-02T11:44:33Z</time><pdop>8.0</pdop><geoidheight>51.00</geoidheight><course>36.3</course><type>1</type></trkpt>
      <trkpt lat="38.32248096" lon="-2.71427011"><ele>1697</ele><speed>16.31</speed><time>2016-06-02T11:44:34Z</time><pdop>7.0</pdop><geoidheight>51.00</geoidheight><course>49.2</course><type>1</type></trkpt>
      <trkpt lat="38.32252192" lon="-2.71407465"><ele>1701</ele><speed>16.21</speed><time>2016-06-02T11:44:35Z</time><pdop>6.0</pdop><geoidheight>51.00</geoidheight><course>66.7</course><type>1</type></trkpt>
      <trkpt lat="38.32255957" lon="-2.71389245"><ele>1705</ele><speed>15.14</speed><time>2016-06-02T11:44:36Z</time><pdop>5.0</pdop><geoidheight>51.00</geoidheight><course>80.8</course><type>1</type></trkpt>
      <trkpt lat="38.32254558" lon="-2.71373054"><ele>1708</ele><speed>13.73</speed><time>2016-06-02T11:44:37Z</time><pdop>4.0</pdop><geoidheight>51.00</geoidheight><course>94.3</course><type>1</type></trkpt>
      <trkpt lat="38.32253931" lon="-2.71357927"><ele>1709</ele><speed>12.79</speed><time>2016-06-02T11:44:38Z</time><pdop>4.0</pdop><geoidheight>51.00</geoidheight><course>98.0</course><type>1</type></trkpt>
      <trkpt lat="38.32250269" lon="-2.71347186"><ele>1710</ele><speed>11.10</speed><time>2016-06-02T11:44:39Z</time><pdop>5.0</pdop><geoidheight>51.00</geoidheight><course>106.9</course><type>1</type></trkpt>
      <trkpt lat="38.32241549" lon="-2.71337403"><ele>1713</ele><speed>3.97</speed><time>2016-06-02T11:44:42Z</time><pdop>4.0</pdop><geoidheight>51.00</geoidheight><course>161.0</course><type>1</type></trkpt>
      <trkpt lat="38.32237208" lon="-2.71349914"><ele>1716</ele><speed>5.15</speed><time>2016-06-02T11:44:45Z</time><pdop>4.0</pdop><geoidheight>51.00</geoidheight><course>264.8</course><type>1</type></trkpt>
      <trkpt lat="38.3224556" lon="-2.71361232"><ele>1719</ele><speed>7.28</speed><time>2016-06-02T11:44:47Z</time><pdop>5.0</pdop><geoidheight>51.00</geoidheight><course>309.3</course><type>1</type></trkpt>
      <trkpt lat="38.32259708" lon="-2.71366746"><ele>1724</ele><speed>6.94</speed><time>2016-06-02T11:44:49Z</time><pdop>8.0</pdop><geoidheight>51.00</geoidheight><course>326.2</course><type>1</type></trkpt>
      <trkpt lat="38.32271394" lon="-2.71355107"><ele>1727</ele><speed>8.21</speed><time>2016-06-02T11:44:50Z</time><pdop>8.0</pdop><geoidheight>51.00</geoidheight><course>16.0</course><type>1</type></trkpt>
      <trkpt lat="38.32288786" lon="-2.71349134"><ele>1730</ele><speed>12.20</speed><time>2016-06-02T11:44:51Z</time><pdop>8.0</pdop><geoidheight>51.00</geoidheight><course>16.5</course><type>1</type></trkpt>
      <trkpt lat="38.32307351" lon="-2.71331757"><ele>1733</ele><speed>12.71</speed><time>2016-06-02T11:44:53Z</time><pdop>11.0</pdop><geoidheight>51.00</geoidheight><course>32.5</course><type>1</type></trkpt>
      <trkpt lat="38.32314574" lon="-2.71307578"><ele>1734</ele><speed>16.98</speed><time>2016-06-02T11:44:54Z</time><pdop>9.0</pdop><geoidheight>51.00</geoidheight><course>50.9</course><type>1</type></trkpt>
      <trkpt lat="38.32318992" lon="-2.71283515"><ele>1738</ele><speed>17.72</speed><time>2016-06-02T11:44:55Z</time><pdop>7.0</pdop><geoidheight>51.00</geoidheight><course>71.9</course><type>1</type></trkpt>
      <trkpt lat="38.3232261" lon="-2.71262299"><ele>1743</ele><speed>17.35</speed><time>2016-06-02T11:44:56Z</time><pdop>6.0</pdop><geoidheight>51.00</geoidheight><course>79.1</course><type>1</type></trkpt>
      <trkpt lat="38.32323953" lon="-2.7124262"><ele>1746</ele><speed>16.19</speed><time>2016-06-02T11:44:57Z</time><pdop>5.0</pdop><geoidheight>51.00</geoidheight><course>85.7</course><type>1</type></trkpt>
      <trkpt lat="38.32325218" lon="-2.71224698"><ele>1747</ele><speed>15.75</speed><time>2016-06-02T11:44:58Z</time><pdop>6.0</pdop><geoidheight>51.00</geoidheight><course>86.6</course><type>1</type></trkpt>
      <trkpt lat="38.32322698" lon="-2.71210427"><ele>1749</ele><speed>13.38</speed><time>2016-06-02T11:44:59Z</time><pdop>5.0</pdop><geoidheight>51.00</geoidheight><course>97.2</course><type>1</type></trkpt>
      <trkpt lat="38.32319386" lon="-2.71197497"><ele>1752</ele><speed>11.13</speed><time>2016-06-02T11:45:00Z</time><pdop>5.0</pdop><geoidheight>51.00</geoidheight><course>106.7</course><type>1</type></trkpt>
      <trkpt lat="38.32315625" lon="-2.71178595"><ele>1758</ele><speed>7.96</speed><time>2016-06-02T11:45:02Z</time><pdop>6.0</pdop><geoidheight>51.00</geoidheight><course>112.8</course><type>1</type></trkpt>
      <trkpt lat="38.32308234" lon="-2.71195986"><ele>1772</ele><speed>4.05</speed><time>2016-06-02T11:45:10Z</time><pdop>5.0</pdop><geoidheight>51.00</geoidheight><course>231.4</course><type>1</type></trkpt>
      <trkpt lat="38.32308267" lon="-2.71207666"><ele>1788</ele><speed>5.79</speed><time>2016-06-02T11:45:14Z</time><pdop>5.0</pdop><geoidheight>51.00</geoidheight><course>301.0</course><type>1</type></trkpt>
      <trkpt lat="38.32319566" lon="-2.71210795"><ele>1801</ele><speed>7.42</speed><time>2016-06-02T11:45:16Z</time><pdop>5.0</pdop><geoidheight>51.00</geoidheight><course>344.7</course><type>1</type></trkpt>
      <trkpt lat="38.32336853" lon="-2.71211989"><ele>1808</ele><speed>9.40</speed><time>2016-06-02T11:45:18Z</time><pdop>7.0</pdop><geoidheight>51.00</geoidheight><course>351.0</course><type>1</type></trkpt>
      <trkpt lat="38.32356879" lon="-2.71211219"><ele>1816</ele><speed>10.04</speed><time>2016-06-02T11:45:20Z</time><pdop>8.0</pdop><geoidheight>51.00</geoidheight><course>1.6</course><type>1</type></trkpt>
      <trkpt lat="38.32367452" lon="-2.71199342"><ele>1822</ele><speed>11.87</speed><time>2016-06-02T11:45:21Z</time><pdop>7.0</pdop><geoidheight>51.00</geoidheight><course>27.9</course><type>1</type></trkpt>
      <trkpt lat="38.32381079" lon="-2.7117283"><ele>1827</ele><speed>14.08</speed><time>2016-06-02T11:45:23Z</time><pdop>9.0</pdop><geoidheight>51.00</geoidheight><course>53.5</course><type>1</type></trkpt>
      <trkpt lat="38.3238232" lon="-2.71153433"><ele>1834</ele><speed>15.80</speed><time>2016-06-02T11:45:24Z</time><pdop>7.0</pdop><geoidheight>51.00</geoidheight><course>74.3</course><type>1</type></trkpt>
      <trkpt lat="38.3238511" lon="-2.71136894"><ele>1835</ele><speed>15.42</speed><time>2016-06-02T11:45:25Z</time><pdop>7.0</pdop><geoidheight>51.00</geoidheight><course>77.6</course><type>1</type></trkpt>
      <trkpt lat="38.32388565" lon="-2.71117915"><ele>1840</ele><speed>15.56</speed><time>2016-06-02T11:45:26Z</time><pdop>9.0</pdop><geoidheight>51.00</geoidheight><course>79.5</course><type>1</type></trkpt>
      <trkpt lat="38.32390307" lon="-2.71091413"><ele>1842</ele><speed>11.80</speed><time>2016-06-02T11:45:28Z</time><pdop>11.0</pdop><geoidheight>51.00</geoidheight><course>81.4</course><type>1</type></trkpt>
      <trkpt lat="38.32374746" lon="-2.71118109"><ele>1853</ele><speed>5.93</speed><time>2016-06-02T11:45:35Z</time><pdop>17.0</pdop><geoidheight>51.00</geoidheight><course>261.7</course><type>1</type></trkpt>
      <trkpt lat="38.32399746" lon="-2.71132282"><ele>1879</ele><speed>8.54</speed><time>2016-06-02T11:45:40Z</time><pdop>12.0</pdop><geoidheight>51.00</geoidheight><course>339.9</course><type>1</type></trkpt>
      <trkpt lat="38.32424514" lon="-2.71121339"><ele>1894</ele><speed>8.75</speed><time>2016-06-02T11:45:43Z</time><pdop>17.0</pdop><geoidheight>51.00</geoidheight><course>18.2</course><type>1</type></trkpt>
      <trkpt lat="38.32440198" lon="-2.71074911"><ele>1912</ele><speed>14.23</speed><time>2016-06-02T11:45:46Z</time><pdop>11.0</pdop><geoidheight>51.00</geoidheight><course>79.6</course><type>1</type></trkpt>
      <trkpt lat="38.32436843" lon="-2.71039748"><ele>1924</ele><speed>14.91</speed><time>2016-06-02T11:45:48Z</time><pdop>8.0</pdop><geoidheight>51.00</geoidheight><course>100.2</course><type>1</type></trkpt>
      <trkpt lat="38.32428403" lon="-2.71014822"><ele>1930</ele><speed>11.39</speed><time>2016-06-02T11:45:50Z</time><pdop>8.0</pdop><geoidheight>51.00</geoidheight><course>114.5</course><type>1</type></trkpt>
      <trkpt lat="38.32420756" lon="-2.7099571"><ele>1938</ele><speed>8.68</speed><time>2016-06-02T11:45:52Z</time><pdop>9.0</pdop><geoidheight>51.00</geoidheight><course>125.2</course><type>1</type></trkpt>
      <trkpt lat="38.32413391" lon="-2.71021804"><ele>1957</ele><speed>5.78</speed><time>2016-06-02T11:45:58Z</time><pdop>13.0</pdop><geoidheight>51.00</geoidheight><course>274.1</course><type>1</type></trkpt>
      <trkpt lat="38.32439171" lon="-2.7102728"><ele>1973</ele><speed>7.33</speed><time>2016-06-02T11:46:02Z</time><pdop>13.0</pdop><geoidheight>51.00</geoidheight><course>354.5</course><type>1</type></trkpt>
      <trkpt lat="38.32467972" lon="-2.71017564"><ele>1982</ele><speed>12.25</speed><time>2016-06-02T11:46:04Z</time><pdop>12.0</pdop><geoidheight>51.00</geoidheight><course>16.1</course><type>1</type></trkpt>
      <trkpt lat="38.32489425" lon="-2.70999498"><ele>1989</ele><speed>13.73</speed><time>2016-06-02T11:46:06Z</time><pdop>13.0</pdop><geoidheight>51.00</geoidheight><course>34.6</course><type>1</type></trkpt>
      <trkpt lat="38.32510087" lon="-2.70973581"><ele>1998</ele><speed>15.06</speed><time>2016-06-02T11:46:08Z</time><pdop>12.0</pdop><geoidheight>51.00</geoidheight><course>52.4</course><type>1</type></trkpt>
      <trkpt lat="38.32519294" lon="-2.70943409"><ele>2009</ele><speed>15.58</speed><time>2016-06-02T11:46:10Z</time><pdop>9.0</pdop><geoidheight>51.00</geoidheight><course>78.2</course><type>1</type></trkpt>
      <trkpt lat="38.3251821" lon="-2.7091262"><ele>2020</ele><speed>13.10</speed><time>2016-06-02T11:46:12Z</time><pdop>8.0</pdop><geoidheight>51.00</geoidheight><course>100.6</course><type>1</type></trkpt>
      <trkpt lat="38.32510432" lon="-2.70893668"><ele>2023</ele><speed>9.64</speed><time>2016-06-02T11:46:14Z</time><pdop>10.0</pdop><geoidheight>51.00</geoidheight><course>117.9</course><type>1</type></trkpt>
      <trkpt lat="38.32494545" lon="-2.70878503"><ele>2029</ele><speed>7.01</speed><time>2016-06-02T11:46:17Z</time><pdop>11.0</pdop><geoidheight>51.00</geoidheight><course>148.7</course><type>1</type></trkpt>
      <trkpt lat="38.32483789" lon="-2.70907545"><ele>2041</ele><speed>6.45</speed><time>2016-06-02T11:46:23Z</time><pdop>16.0</pdop><geoidheight>51.00</geoidheight><course>267.6</course><type>1</type></trkpt>
      <trkpt lat="38.3252396" lon="-2.70901138"><ele>2056</ele><speed>10.49</speed><time>2016-06-02T11:46:27Z</time><pdop>14.0</pdop><geoidheight>51.00</geoidheight><course>4.3</course><type>1</type></trkpt>
      <trkpt lat="38.32548824" lon="-2.70887212"><ele>2066</ele><speed>15.01</speed><time>2016-06-02T11:46:29Z</time><pdop>12.0</pdop><geoidheight>51.00</geoidheight><course>30.3</course><type>1</type></trkpt>
      <trkpt lat="38.32569312" lon="-2.70868134"><ele>2073</ele><speed>15.39</speed><time>2016-06-02T11:46:31Z</time><pdop>14.0</pdop><geoidheight>51.00</geoidheight><course>43.7</course><type>1</type></trkpt>
      <trkpt lat="38.32585557" lon="-2.70838011"><ele>2080</ele><speed>15.62</speed><time>2016-06-02T11:46:33Z</time><pdop>16.0</pdop><geoidheight>51.00</geoidheight><course>55.3</course><type>1</type></trkpt>
      <trkpt lat="38.32586463" lon="-2.70806135"><ele>2089</ele><speed>15.32</speed><time>2016-06-02T11:46:35Z</time><pdop>11.0</pdop><geoidheight>51.00</geoidheight><course>78.0</course><type>1</type></trkpt>
      <trkpt lat="38.32588325" lon="-2.70774868"><ele>2102</ele><speed>13.62</speed><time>2016-06-02T11:46:37Z</time><pdop>9.0</pdop><geoidheight>51.00</geoidheight><course>89.5</course><type>1</type></trkpt>
      <trkpt lat="38.32582355" lon="-2.70747505"><ele>2109</ele><speed>12.40</speed><time>2016-06-02T11:46:39Z</time><pdop>8.0</pdop><geoidheight>51.00</geoidheight><course>105.7</course><type>1</type></trkpt>
      <trkpt lat="38.32573881" lon="-2.70721654"><ele>2114</ele><speed>12.05</speed><time>2016-06-02T11:46:41Z</time><pdop>9.0</pdop><geoidheight>51.00</geoidheight><course>112.9</course><type>1</type></trkpt>
      <trkpt lat="38.32563872" lon="-2.70700773"><ele>2122</ele><speed>9.66</speed><time>2016-06-02T11:46:43Z</time><pdop>6.0</pdop><geoidheight>51.00</geoidheight><course>121.8</course><type>1</type></trkpt>
      <trkpt lat="38.32558298" lon="-2.7068721"><ele>2126</ele><speed>6.84</speed><time>2016-06-02T11:46:45Z</time><pdop>7.0</pdop><geoidheight>51.00</geoidheight><course>124.2</course><type>1</type></trkpt>
      <trkpt lat="38.32553486" lon="-2.70704269"><ele>2137</ele><speed>5.55</speed><time>2016-06-02T11:46:50Z</time><pdop>6.0</pdop><geoidheight>51.00</geoidheight><course>275.1</course><type>1</type></trkpt>
      <trkpt lat="38.32564299" lon="-2.70723294"><ele>2141</ele><speed>6.06</speed><time>2016-06-02T11:46:53Z</time><pdop>12.0</pdop><geoidheight>51.00</geoidheight><course>300.3</course><type>1</type></trkpt>
      <trkpt lat="38.32586253" lon="-2.70706248"><ele>2151</ele><speed>7.84</speed><time>2016-06-02T11:46:55Z</time><pdop>11.0</pdop><geoidheight>51.00</geoidheight><course>25.4</course><type>1</type></trkpt>
      <trkpt lat="38.32613323" lon="-2.70687136"><ele>2161</ele><speed>12.83</speed><time>2016-06-02T11:46:57Z</time><pdop>10.0</pdop><geoidheight>51.00</geoidheight><course>35.4</course><type>1</type></trkpt>
      <trkpt lat="38.32628732" lon="-2.70651196"><ele>2171</ele><speed>14.69</speed><time>2016-06-02T11:46:59Z</time><pdop>8.0</pdop><geoidheight>51.00</geoidheight><course>62.4</course><type>1</type></trkpt>
      <trkpt lat="38.32636976" lon="-2.70635992"><ele>2177</ele><speed>14.85</speed><time>2016-06-02T11:47:00Z</time><pdop>7.0</pdop><geoidheight>51.00</geoidheight><course>63.6</course><type>1</type></trkpt>
      <trkpt lat="38.32643965" lon="-2.70621466"><ele>2179</ele><speed>14.98</speed><time>2016-06-02T11:47:01Z</time><pdop>6.0</pdop><geoidheight>51.00</geoidheight><course>63.8</course><type>1</type></trkpt>
      <trkpt lat="38.32649925" lon="-2.70605165"><ele>2180</ele><speed>15.19</speed><time>2016-06-02T11:47:02Z</time><pdop>6.0</pdop><geoidheight>51.00</geoidheight><course>66.0</course><type>1</type></trkpt>
      <trkpt lat="38.32654878" lon="-2.70588088"><ele>2181</ele><speed>15.72</speed><time>2016-06-02T11:47:03Z</time><pdop>5.0</pdop><geoidheight>51.00</geoidheight><course>71.4</course><type>1</type></trkpt>
      <trkpt lat="38.32658128" lon="-2.705699"><ele>2182</ele><speed>15.82</speed><time>2016-06-02T11:47:04Z</time><pdop>4.0</pdop><geoidheight>51.00</geoidheight><course>79.3</course><type>1</type></trkpt>
      <trkpt lat="38.32659326" lon="-2.70552996"><ele>2184</ele><speed>14.56</speed><time>2016-06-02T11:47:05Z</time><pdop>4.0</pdop><geoidheight>51.00</geoidheight><course>86.0</course><type>1</type></trkpt>
      <trkpt lat="38.32660482" lon="-2.70538246"><ele>2184</ele><speed>12.88</speed><time>2016-06-02T11:47:06Z</time><pdop>5.0</pdop><geoidheight>51.00</geoidheight><course>87.2</course><type>1</type></trkpt>
      <trkpt lat="38.32657625" lon="-2.70516723"><ele>2187</ele><speed>9.62</speed><time>2016-06-02T11:47:08Z</time><pdop>7.0</pdop><geoidheight>51.00</geoidheight><course>100.6</course><type>1</type></trkpt>
      <trkpt lat="38.32646636" lon="-2.70507843"><ele>2186</ele><speed>5.75</speed><time>2016-06-02T11:47:10Z</time><pdop>7.0</pdop><geoidheight>51.00</geoidheight><course>132.5</course><type>1</type></trkpt>
      <trkpt lat="38.32641275" lon="-2.70522448"><ele>2191</ele><speed>4.66</speed><time>2016-06-02T11:47:13Z</time><pdop>6.0</pdop><geoidheight>51.00</geoidheight><course>274.0</course><type>1</type></trkpt>
      <trkpt lat="38.32643217" lon="-2.70535564"><ele>2200</ele><speed>4.67</speed><time>2016-06-02T11:47:15Z</time><pdop>5.0</pdop><geoidheight>51.00</geoidheight><course>294.9</course><type>1</type></trkpt>
      <trkpt lat="38.3265374" lon="-2.70549206"><ele>2205</ele><speed>5.57</speed><time>2016-06-02T11:47:18Z</time><pdop>6.0</pdop><geoidheight>51.00</geoidheight><course>318.0</course><type>1</type></trkpt>
      <trkpt lat="38.32660674" lon="-2.70562852"><ele>2207</ele><speed>6.65</speed><time>2016-06-02T11:47:20Z</time><pdop>7.0</pdop><geoidheight>51.00</geoidheight><course>301.8</course><type>1</type></trkpt>
      <trkpt lat="38.32670354" lon="-2.70576676"><ele>2215</ele><speed>3.85</speed><time>2016-06-02T11:47:24Z</time><pdop>6.0</pdop><geoidheight>51.00</geoidheight><course>323.1</course><type>1</type></trkpt>
      <trkpt lat="38.32680464" lon="-2.7058246"><ele>2215</ele><speed>6.16</speed><time>2016-06-02T11:47:26Z</time><pdop>6.0</pdop><geoidheight>51.00</geoidheight><course>337.2</course><type>1</type></trkpt>
      <trkpt lat="38.32695196" lon="-2.70592984"><ele>2216</ele><speed>8.91</speed><time>2016-06-02T11:47:28Z</time><pdop>6.0</pdop><geoidheight>51.00</geoidheight><course>333.8</course><type>1</type></trkpt>
      <trkpt lat="38.32705155" lon="-2.70595081"><ele>2218</ele><speed>9.02</speed><time>2016-06-02T11:47:29Z</time><pdop>5.0</pdop><geoidheight>51.00</geoidheight><course>340.1</course><type>1</type></trkpt>
      <trkpt lat="38.327166" lon="-2.70601539"><ele>2221</ele><speed>7.02</speed><time>2016-06-02T11:47:31Z</time><pdop>5.0</pdop><geoidheight>51.00</geoidheight><course>335.8</course><type>1</type></trkpt>
      <trkpt lat="38.32729399" lon="-2.70610274"><ele>2225</ele><speed>7.52</speed><time>2016-06-02T11:47:33Z</time><pdop>4.0</pdop><geoidheight>51.00</geoidheight><course>337.5</course><type>1</type></trkpt>
      <trkpt lat="38.32736799" lon="-2.70611775"><ele>2226</ele><speed>7.95</speed><time>2016-06-02T11:47:34Z</time><pdop>4.0</pdop><geoidheight>51.00</geoidheight><course>342.0</course><type>1</type></trkpt>
      <trkpt lat="38.32745491" lon="-2.70613892"><ele>2228</ele><speed>8.66</speed><time>2016-06-02T11:47:35Z</time><pdop>4.0</pdop><geoidheight>51.00</geoidheight><course>343.6</course><type>1</type></trkpt>
      <trkpt lat="38.32754574" lon="-2.70615213"><ele>2229</ele><speed>9.06</speed><time>2016-06-02T11:47:36Z</time><pdop>4.0</pdop><geoidheight>51.00</geoidheight><course>344.4</course><type>1</type></trkpt>
      <trkpt lat="38.32761571" lon="-2.70619718"><ele>2230</ele><speed>9.09</speed><time>2016-06-02T11:47:37Z</time><pdop>4.0</pdop><geoidheight>51.00</geoidheight><course>340.2</course><type>1</type></trkpt>
      <trkpt lat="38.3276817" lon="-2.7062418"><ele>2232</ele><speed>8.87</speed><time>2016-06-02T11:47:38Z</time><pdop>4.0</pdop><geoidheight>51.00</geoidheight><course>338.7</course><type>1</type></trkpt>
      <trkpt lat="38.3278029" lon="-2.70629517"><ele>2234</ele><speed>7.60</speed><time>2016-06-02T11:47:40Z</time><pdop>4.0</pdop><geoidheight>51.00</geoidheight><course>343.3</course><type>1</type></trkpt>
      <trkpt lat="38.32787879" lon="-2.70632503"><ele>2235</ele><speed>7.75</speed><time>2016-06-02T11:47:41Z</time><pdop>4.0</pdop><geoidheight>51.00</geoidheight><course>340.6</course><type>1</type></trkpt>
      <trkpt lat="38.3279847" lon="-2.70643742"><ele>2236</ele><speed>7.41</speed><time>2016-06-02T11:47:43Z</time><pdop>4.0</pdop><geoidheight>51.00</geoidheight><course>317.3</course><type>1</type></trkpt>
      <trkpt lat="38.3280565" lon="-2.70659436"><ele>2236</ele><speed>7.15</speed><time>2016-06-02T11:47:45Z</time><pdop>5.0</pdop><geoidheight>51.00</geoidheight><course>306.1</course><type>1</type></trkpt>
      <trkpt lat="38.32796016" lon="-2.7067329"><ele>2237</ele><speed>5.18</speed><time>2016-06-02T11:47:47Z</time><pdop>7.0</pdop><geoidheight>51.00</geoidheight><course>255.2</course><type>1</type></trkpt>
      <trkpt lat="38.32780667" lon="-2.7067778"><ele>2237</ele><speed>8.03</speed><time>2016-06-02T11:47:48Z</time><pdop>6.0</pdop><geoidheight>51.00</geoidheight><course>212.8</course><type>1</type></trkpt>
      <trkpt lat="38.3276886" lon="-2.70665568"><ele>2239</ele><speed>5.74</speed><time>2016-06-02T11:47:50Z</time><pdop>9.0</pdop><geoidheight>51.00</geoidheight><course>170.0</course><type>1</type></trkpt>
      <trkpt lat="38.3276082" lon="-2.70631376"><ele>2242</ele><speed>10.10</speed><time>2016-06-02T11:47:52Z</time><pdop>9.0</pdop><geoidheight>51.00</geoidheight><course>112.2</course><type>1</type></trkpt>
      <trkpt lat="38.32774448" lon="-2.70594134"><ele>2246</ele><speed>13.45</speed><time>2016-06-02T11:47:54Z</time><pdop>6.0</pdop><geoidheight>51.00</geoidheight><course>61.4</course><type>1</type></trkpt>
      <trkpt lat="38.32780044" lon="-2.70581846"><ele>2249</ele><speed>13.07</speed><time>2016-06-02T11:47:55Z</time><pdop>6.0</pdop><geoidheight>51.00</geoidheight><course>58.6</course><type>1</type></trkpt>
      <trkpt lat="38.32786479" lon="-2.70568161"><ele>2251</ele><speed>11.95</speed><time>2016-06-02T11:47:56Z</time><pdop>7.0</pdop><geoidheight>51.00</geoidheight><course>56.6</course><type>1</type></trkpt>
      <trkpt lat="38.32800488" lon="-2.7055416"><ele>2254</ele><speed>9.33</speed><time>2016-06-02T11:47:58Z</time><pdop>7.0</pdop><geoidheight>51.00</geoidheight><course>34.7</course><type>1</type></trkpt>
      <trkpt lat="38.32814068" lon="-2.70549996"><ele>2256</ele><speed>10.99</speed><time>2016-06-02T11:47:59Z</time><pdop>5.0</pdop><geoidheight>51.00</geoidheight><course>18.8</course><type>1</type></trkpt>
      <trkpt lat="38.32825172" lon="-2.70546473"><ele>2258</ele><speed>11.21</speed><time>2016-06-02T11:48:00Z</time><pdop>5.0</pdop><geoidheight>51.00</geoidheight><course>12.2</course><type>1</type></trkpt>
      <trkpt lat="38.32836225" lon="-2.70543755"><ele>2258</ele><speed>11.54</speed><time>2016-06-02T11:48:01Z</time><pdop>6.0</pdop><geoidheight>51.00</geoidheight><course>9.2</course><type>1</type></trkpt>
      <trkpt lat="38.32858695" lon="-2.70542562"><ele>2261</ele><speed>12.24</speed><time>2016-06-02T11:48:03Z</time><pdop>8.0</pdop><geoidheight>51.00</geoidheight><course>2.6</course><type>1</type></trkpt>
      <trkpt lat="38.32879653" lon="-2.70548855"><ele>2267</ele><speed>11.19</speed><time>2016-06-02T11:48:05Z</time><pdop>5.0</pdop><geoidheight>51.00</geoidheight><course>349.7</course><type>1</type></trkpt>
      <trkpt lat="38.32890611" lon="-2.70550457"><ele>2270</ele><speed>10.95</speed><time>2016-06-02T11:48:06Z</time><pdop>4.0</pdop><geoidheight>51.00</geoidheight><course>347.5</course><type>1</type></trkpt>
      <trkpt lat="38.32899674" lon="-2.70553435"><ele>2271</ele><speed>11.13</speed><time>2016-06-02T11:48:07Z</time><pdop>4.0</pdop><geoidheight>51.00</geoidheight><course>346.7</course><type>1</type></trkpt>
      <trkpt lat="38.32908789" lon="-2.70557371"><ele>2272</ele><speed>11.42</speed><time>2016-06-02T11:48:08Z</time><pdop>3.0</pdop><geoidheight>51.00</geoidheight><course>345.0</course><type>1</type></trkpt>
      <trkpt lat="38.32919262" lon="-2.70561864"><ele>2272</ele><speed>11.92</speed><time>2016-06-02T11:48:09Z</time><pdop>3.0</pdop><geoidheight>51.00</geoidheight><course>344.1</course><type>1</type></trkpt>
      <trkpt lat="38.32929674" lon="-2.70565118"><ele>2273</ele><speed>12.52</speed><time>2016-06-02T11:48:10Z</time><pdop>3.0</pdop><geoidheight>51.00</geoidheight><course>344.9</course><type>1</type></trkpt>
      <trkpt lat="38.32941352" lon="-2.70567544"><ele>2275</ele><speed>12.48</speed><time>2016-06-02T11:48:11Z</time><pdop>3.0</pdop><geoidheight>51.00</geoidheight><course>346.0</course><type>1</type></trkpt>
      <trkpt lat="38.32952035" lon="-2.70571768"><ele>2276</ele><speed>12.55</speed><time>2016-06-02T11:48:12Z</time><pdop>3.0</pdop><geoidheight>51.00</geoidheight><course>345.9</course><type>1</type></trkpt>
      <trkpt lat="38.32963614" lon="-2.70575294"><ele>2277</ele><speed>12.08</speed><time>2016-06-02T11:48:13Z</time><pdop>3.0</pdop><geoidheight>51.00</geoidheight><course>344.5</course><type>1</type></trkpt>
      <trkpt lat="38.32974399" lon="-2.70578844"><ele>2278</ele><speed>12.05</speed><time>2016-06-02T11:48:14Z</time><pdop>3.0</pdop><geoidheight>51.00</geoidheight><course>343.4</course><type>1</type></trkpt>
      <trkpt lat="38.32986441" lon="-2.70582759"><ele>2278</ele><speed>13.44</speed><time>2016-06-02T11:48:15Z</time><pdop>3.0</pdop><geoidheight>51.00</geoidheight><course>345.3</course><type>1</type></trkpt>
      <trkpt lat="38.32998043" lon="-2.70586804"><ele>2279</ele><speed>13.10</speed><time>2016-06-02T11:48:16Z</time><pdop>4.0</pdop><geoidheight>51.00</geoidheight><course>346.7</course><type>1</type></trkpt>
      <trkpt lat="38.33009518" lon="-2.70590252"><ele>2279</ele><speed>13.09</speed><time>2016-06-02T11:48:17Z</time><pdop>4.0</pdop><geoidheight>51.00</geoidheight><course>346.7</course><type>1</type></trkpt>
      <trkpt lat="38.3301938" lon="-2.70592163"><ele>2281</ele><speed>12.53</speed><time>2016-06-02T11:48:18Z</time><pdop>5.0</pdop><geoidheight>51.00</geoidheight><course>347.2</course><type>1</type></trkpt>
      <trkpt lat="38.33029915" lon="-2.7059487"><ele>2279</ele><speed>12.65</speed><time>2016-06-02T11:48:19Z</time><pdop>5.0</pdop><geoidheight>51.00</geoidheight><course>350.9</course><type>1</type></trkpt>
      <trkpt lat="38.3304235" lon="-2.70597112"><ele>2278</ele><speed>13.36</speed><time>2016-06-02T11:48:20Z</time><pdop>5.0</pdop><geoidheight>51.00</geoidheight><course>351.7</course><type>1</type></trkpt>
      <trkpt lat="38.33054418" lon="-2.70598922"><ele>2277</ele><speed>14.24</speed><time>2016-06-02T11:48:21Z</time><pdop>5.0</pdop><geoidheight>51.00</geoidheight><course>353.9</course><type>1</type></trkpt>
      <trkpt lat="38.33067153" lon="-2.70600639"><ele>2276</ele><speed>14.22</speed><time>2016-06-02T11:48:22Z</time><pdop>6.0</pdop><geoidheight>51.00</geoidheight><course>353.9</course><type>1</type></trkpt>
      <trkpt lat="38.33079385" lon="-2.70602281"><ele>2277</ele><speed>13.60</speed><time>2016-06-02T11:48:23Z</time><pdop>4.0</pdop><geoidheight>51.00</geoidheight><course>353.4</course><type>1</type></trkpt>
      <trkpt lat="38.33090337" lon="-2.70604587"><ele>2278</ele><speed>12.17</speed><time>2016-06-02T11:48:24Z</time><pdop>5.0</pdop><geoidheight>51.00</geoidheight><course>349.1</course><type>1</type></trkpt>
      <trkpt lat="38.33101089" lon="-2.70607225"><ele>2278</ele><speed>12.16</speed><time>2016-06-02T11:48:25Z</time><pdop>6.0</pdop><geoidheight>51.00</geoidheight><course>349.1</course><type>1</type></trkpt>
      <trkpt lat="38.3311004" lon="-2.7061191"><ele>2276</ele><speed>12.38</speed><time>2016-06-02T11:48:26Z</time><pdop>4.0</pdop><geoidheight>51.00</geoidheight><course>339.9</course><type>1</type></trkpt>
      <trkpt lat="38.33121254" lon="-2.70617305"><ele>2276</ele><speed>13.63</speed><time>2016-06-02T11:48:27Z</time><pdop>4.0</pdop><geoidheight>51.00</geoidheight><course>341.4</course><type>1</type></trkpt>
      <trkpt lat="38.33132706" lon="-2.70621656"><ele>2276</ele><speed>13.37</speed><time>2016-06-02T11:48:28Z</time><pdop>5.0</pdop><geoidheight>51.00</geoidheight><course>345.4</course><type>1</type></trkpt>
      <trkpt lat="38.33144959" lon="-2.70624606"><ele>2276</ele><speed>13.50</speed><time>2016-06-02T11:48:29Z</time><pdop>6.0</pdop><geoidheight>51.00</geoidheight><course>350.1</course><type>1</type></trkpt>
      <trkpt lat="38.33168454" lon="-2.70623668"><ele>2279</ele><speed>12.65</speed><time>2016-06-02T11:48:31Z</time><pdop>6.0</pdop><geoidheight>51.00</geoidheight><course>9.3</course><type>1</type></trkpt>
      <trkpt lat="38.33179142" lon="-2.70618897"><ele>2279</ele><speed>12.87</speed><time>2016-06-02T11:48:32Z</time><pdop>6.0</pdop><geoidheight>51.00</geoidheight><course>8.2</course><type>1</type></trkpt>
      <trkpt lat="38.33191114" lon="-2.70618629"><ele>2279</ele><speed>13.02</speed><time>2016-06-02T11:48:33Z</time><pdop>6.0</pdop><geoidheight>51.00</geoidheight><course>5.3</course><type>1</type></trkpt>
      <trkpt lat="38.33206475" lon="-2.70618238"><ele>2281</ele><speed>14.34</speed><time>2016-06-02T11:48:34Z</time><pdop>6.0</pdop><geoidheight>51.00</geoidheight><course>3.2</course><type>1</type></trkpt>
      <trkpt lat="38.33234041" lon="-2.70614693"><ele>2276</ele><speed>16.20</speed><time>2016-06-02T11:48:36Z</time><pdop>6.0</pdop><geoidheight>51.00</geoidheight><course>357.5</course><type>1</type></trkpt>
      <trkpt lat="38.33250326" lon="-2.70614895"><ele>2277</ele><speed>16.80</speed><time>2016-06-02T11:48:37Z</time><pdop>6.0</pdop><geoidheight>51.00</geoidheight><course>359.3</course><type>1</type></trkpt>
      <trkpt lat="38.33265783" lon="-2.70615183"><ele>2276</ele><speed>16.45</speed><time>2016-06-02T11:48:38Z</time><pdop>6.0</pdop><geoidheight>51.00</geoidheight><course>2.0</course><type>1</type></trkpt>
      <trkpt lat="38.33280591" lon="-2.70614518"><ele>2276</ele><speed>16.45</speed><time>2016-06-02T11:48:39Z</time><pdop>7.0</pdop><geoidheight>51.00</geoidheight><course>2.0</course><type>1</type></trkpt>
      <trkpt lat="38.33293956" lon="-2.70610976"><ele>2274</ele><speed>14.99</speed><time>2016-06-02T11:48:40Z</time><pdop>7.0</pdop><geoidheight>51.00</geoidheight><course>4.1</course><type>1</type></trkpt>
      <trkpt lat="38.33306531" lon="-2.70609797"><ele>2272</ele><speed>14.03</speed><time>2016-06-02T11:48:41Z</time><pdop>6.0</pdop><geoidheight>51.00</geoidheight><course>1.0</course><type>1</type></trkpt>
      <trkpt lat="38.33317546" lon="-2.7061126"><ele>2270</ele><speed>13.46</speed><time>2016-06-02T11:48:42Z</time><pdop>5.0</pdop><geoidheight>51.00</geoidheight><course>356.8</course><type>1</type></trkpt>
      <trkpt lat="38.33330074" lon="-2.70610356"><ele>2268</ele><speed>14.44</speed><time>2016-06-02T11:48:43Z</time><pdop>5.0</pdop><geoidheight>51.00</geoidheight><course>355.3</course><type>1</type></trkpt>
      <trkpt lat="38.3334387" lon="-2.70609916"><ele>2267</ele><speed>15.19</speed><time>2016-06-02T11:48:44Z</time><pdop>6.0</pdop><geoidheight>51.00</geoidheight><course>356.1</course><type>1</type></trkpt>
      <trkpt lat="38.33357514" lon="-2.70611128"><ele>2266</ele><speed>15.18</speed><time>2016-06-02T11:48:45Z</time><pdop>7.0</pdop><geoidheight>51.00</geoidheight><course>356.1</course><type>1</type></trkpt>
      <trkpt lat="38.33370469" lon="-2.70613557"><ele>2268</ele><speed>14.22</speed><time>2016-06-02T11:48:46Z</time><pdop>7.0</pdop><geoidheight>51.00</geoidheight><course>358.6</course><type>1</type></trkpt>
      <trkpt lat="38.33393423" lon="-2.70614962"><ele>2267</ele><speed>12.77</speed><time>2016-06-02T11:48:48Z</time><pdop>8.0</pdop><geoidheight>51.00</geoidheight><course>359.1</course><type>1</type></trkpt>
      <trkpt lat="38.33419069" lon="-2.70616062"><ele>2264</ele><speed>13.49</speed><time>2016-06-02T11:48:50Z</time><pdop>10.0</pdop><geoidheight>51.00</geoidheight><course>358.0</course><type>1</type></trkpt>
      <trkpt lat="38.33446526" lon="-2.70618146"><ele>2260</ele><speed>15.09</speed><time>2016-06-02T11:48:52Z</time><pdop>7.0</pdop><geoidheight>51.00</geoidheight><course>358.3</course><type>1</type></trkpt>
      <trkpt lat="38.33467072" lon="-2.7061645"><ele>2256</ele><speed>13.07</speed><time>2016-06-02T11:48:54Z</time><pdop>5.0</pdop><geoidheight>51.00</geoidheight><course>1.2</course><type>1</type></trkpt>
      <trkpt lat="38.33478252" lon="-2.7061755"><ele>2252</ele><speed>13.08</speed><time>2016-06-02T11:48:55Z</time><pdop>5.0</pdop><geoidheight>51.00</geoidheight><course>355.9</course><type>1</type></trkpt>
      <trkpt lat="38.33491058" lon="-2.70619644"><ele>2249</ele><speed>13.87</speed><time>2016-06-02T11:48:56Z</time><pdop>5.0</pdop><geoidheight>51.00</geoidheight><course>352.9</course><type>1</type></trkpt>
      <trkpt lat="38.33503834" lon="-2.70621686"><ele>2246</ele><speed>14.47</speed><time>2016-06-02T11:48:57Z</time><pdop>6.0</pdop><geoidheight>51.00</geoidheight><course>353.4</course><type>1</type></trkpt>
      <trkpt lat="38.33516678" lon="-2.70623802"><ele>2244</ele><speed>14.47</speed><time>2016-06-02T11:48:58Z</time><pdop>6.0</pdop><geoidheight>51.00</geoidheight><course>353.1</course><type>1</type></trkpt>
      <trkpt lat="38.33529406" lon="-2.70623594"><ele>2243</ele><speed>14.72</speed><time>2016-06-02T11:48:59Z</time><pdop>6.0</pdop><geoidheight>51.00</geoidheight><course>355.4</course><type>1</type></trkpt>
      <trkpt lat="38.33540924" lon="-2.70624767"><ele>2241</ele><speed>14.64</speed><time>2016-06-02T11:49:00Z</time><pdop>6.0</pdop><geoidheight>51.00</geoidheight><course>355.7</course><type>1</type></trkpt>
      <trkpt lat="38.33553531" lon="-2.7062006"><ele>2235</ele><speed>15.28</speed><time>2016-06-02T11:49:01Z</time><pdop>5.0</pdop><geoidheight>51.00</geoidheight><course>1.1</course><type>1</type></trkpt>
      <trkpt lat="38.33566299" lon="-2.70620049"><ele>2233</ele><speed>15.43</speed><time>2016-06-02T11:49:02Z</time><pdop>4.0</pdop><geoidheight>51.00</geoidheight><course>2.2</course><type>1</type></trkpt>
      <trkpt lat="38.33580052" lon="-2.7061867"><ele>2231</ele><speed>15.56</speed><time>2016-06-02T11:49:03Z</time><pdop>5.0</pdop><geoidheight>51.00</geoidheight><course>2.5</course><type>1</type></trkpt>
      <trkpt lat="38.33594851" lon="-2.70618585"><ele>2231</ele><speed>15.70</speed><time>2016-06-02T11:49:04Z</time><pdop>5.0</pdop><geoidheight>51.00</geoidheight><course>0.5</course><type>1</type></trkpt>
      <trkpt lat="38.33607193" lon="-2.70619696"><ele>2230</ele><speed>15.16</speed><time>2016-06-02T11:49:05Z</time><pdop>5.0</pdop><geoidheight>51.00</geoidheight><course>358.3</course><type>1</type></trkpt>
      <trkpt lat="38.33621403" lon="-2.70617144"><ele>2227</ele><speed>15.07</speed><time>2016-06-02T11:49:06Z</time><pdop>5.0</pdop><geoidheight>51.00</geoidheight><course>359.0</course><type>1</type></trkpt>
      <trkpt lat="38.33633516" lon="-2.70619209"><ele>2225</ele><speed>14.55</speed><time>2016-06-02T11:49:07Z</time><pdop>6.0</pdop><geoidheight>51.00</geoidheight><course>355.7</course><type>1</type></trkpt>
      <trkpt lat="38.33645715" lon="-2.70623688"><ele>2223</ele><speed>14.38</speed><time>2016-06-02T11:49:08Z</time><pdop>6.0</pdop><geoidheight>51.00</geoidheight><course>351.3</course><type>1</type></trkpt>
      <trkpt lat="38.33659466" lon="-2.70627614"><ele>2222</ele><speed>14.75</speed><time>2016-06-02T11:49:09Z</time><pdop>5.0</pdop><geoidheight>51.00</geoidheight><course>348.3</course><type>1</type></trkpt>
      <trkpt lat="38.33671303" lon="-2.70629184"><ele>2219</ele><speed>14.55</speed><time>2016-06-02T11:49:10Z</time><pdop>6.0</pdop><geoidheight>51.00</geoidheight><course>347.5</course><type>1</type></trkpt>
      <trkpt lat="38.33683829" lon="-2.70630325"><ele>2217</ele><speed>14.66</speed><time>2016-06-02T11:49:11Z</time><pdop>6.0</pdop><geoidheight>51.00</geoidheight><course>349.0</course><type>1</type></trkpt>
      <trkpt lat="38.3369963" lon="-2.70628115"><ele>2211</ele><speed>16.29</speed><time>2016-06-02T11:49:12Z</time><pdop>5.0</pdop><geoidheight>51.00</geoidheight><course>353.7</course><type>1</type></trkpt>
      <trkpt lat="38.33712859" lon="-2.70630807"><ele>2209</ele><speed>15.72</speed><time>2016-06-02T11:49:13Z</time><pdop>5.0</pdop><geoidheight>51.00</geoidheight><course>353.0</course><type>1</type></trkpt>
      <trkpt lat="38.33725421" lon="-2.70634491"><ele>2210</ele><speed>14.36</speed><time>2016-06-02T11:49:14Z</time><pdop>4.0</pdop><geoidheight>51.00</geoidheight><course>352.8</course><type>1</type></trkpt>
      <trkpt lat="38.33736921" lon="-2.70635401"><ele>2209</ele><speed>12.91</speed><time>2016-06-02T11:49:15Z</time><pdop>5.0</pdop><geoidheight>51.00</geoidheight><course>357.3</course><type>1</type></trkpt>
      <trkpt lat="38.33746907" lon="-2.70634019"><ele>2208</ele><speed>12.03</speed><time>2016-06-02T11:49:16Z</time><pdop>5.0</pdop><geoidheight>51.00</geoidheight><course>2.4</course><type>1</type></trkpt>
      <trkpt lat="38.33757148" lon="-2.70632293"><ele>2205</ele><speed>11.85</speed><time>2016-06-02T11:49:17Z</time><pdop>4.0</pdop><geoidheight>51.00</geoidheight><course>6.9</course><type>1</type></trkpt>
      <trkpt lat="38.33768463" lon="-2.70630868"><ele>2204</ele><speed>13.06</speed><time>2016-06-02T11:49:18Z</time><pdop>4.0</pdop><geoidheight>51.00</geoidheight><course>7.6</course><type>1</type></trkpt>
      <trkpt lat="38.33779829" lon="-2.70627588"><ele>2200</ele><speed>14.35</speed><time>2016-06-02T11:49:19Z</time><pdop>4.0</pdop><geoidheight>51.00</geoidheight><course>10.7</course><type>1</type></trkpt>
      <trkpt lat="38.33794475" lon="-2.70625466"><ele>2197</ele><speed>15.68</speed><time>2016-06-02T11:49:20Z</time><pdop>4.0</pdop><geoidheight>51.00</geoidheight><course>6.8</course><type>1</type></trkpt>
      <trkpt lat="38.33807483" lon="-2.70625697"><ele>2196</ele><speed>15.69</speed><time>2016-06-02T11:49:21Z</time><pdop>5.0</pdop><geoidheight>51.00</geoidheight><course>2.1</course><type>1</type></trkpt>
      <trkpt lat="38.33821355" lon="-2.70626754"><ele>2193</ele><speed>16.33</speed><time>2016-06-02T11:49:22Z</time><pdop>4.0</pdop><geoidheight>51.00</geoidheight><course>357.0</course><type>1</type></trkpt>
      <trkpt lat="38.33836127" lon="-2.70626116"><ele>2189</ele><speed>16.41</speed><time>2016-06-02T11:49:23Z</time><pdop>9.0</pdop><geoidheight>51.00</geoidheight><course>358.6</course><type>1</type></trkpt>
      <trkpt lat="38.33866723" lon="-2.70629209"><ele>2187</ele><speed>16.55</speed><time>2016-06-02T11:49:25Z</time><pdop>10.0</pdop><geoidheight>51.00</geoidheight><course>356.6</course><type>1</type></trkpt>
      <trkpt lat="38.33896202" lon="-2.70633101"><ele>2186</ele><speed>16.03</speed><time>2016-06-02T11:49:27Z</time><pdop>10.0</pdop><geoidheight>51.00</geoidheight><course>352.7</course><type>1</type></trkpt>
      <trkpt lat="38.33923863" lon="-2.70640512"><ele>2186</ele><speed>15.88</speed><time>2016-06-02T11:49:29Z</time><pdop>10.0</pdop><geoidheight>51.00</geoidheight><course>347.7</course><type>1</type></trkpt>
      <trkpt lat="38.3395507" lon="-2.70642716"><ele>2180</ele><speed>17.05</speed><time>2016-06-02T11:49:31Z</time><pdop>11.0</pdop><geoidheight>51.00</geoidheight><course>351.4</course><type>1</type></trkpt>
      <trkpt lat="38.33983877" lon="-2.70645622"><ele>2175</ele><speed>16.95</speed><time>2016-06-02T11:49:33Z</time><pdop>12.0</pdop><geoidheight>51.00</geoidheight><course>352.1</course><type>1</type></trkpt>
      <trkpt lat="38.34012586" lon="-2.70651262"><ele>2171</ele><speed>16.94</speed><time>2016-06-02T11:49:35Z</time><pdop>12.0</pdop><geoidheight>51.00</geoidheight><course>349.0</course><type>1</type></trkpt>
      <trkpt lat="38.34036621" lon="-2.70658505"><ele>2168</ele><speed>15.86</speed><time>2016-06-02T11:49:37Z</time><pdop>14.0</pdop><geoidheight>51.00</geoidheight><course>348.6</course><type>1</type></trkpt>
      <trkpt lat="38.34070804" lon="-2.70662786"><ele>2166</ele><speed>17.04</speed><time>2016-06-02T11:49:39Z</time><pdop>14.0</pdop><geoidheight>51.00</geoidheight><course>352.6</course><type>1</type></trkpt>
      <trkpt lat="38.34098503" lon="-2.70658948"><ele>2160</ele><speed>16.64</speed><time>2016-06-02T11:49:41Z</time><pdop>14.0</pdop><geoidheight>51.00</geoidheight><course>356.0</course><type>1</type></trkpt>
      <trkpt lat="38.34133477" lon="-2.70667839"><ele>2155</ele><speed>18.59</speed><time>2016-06-02T11:49:43Z</time><pdop>14.0</pdop><geoidheight>51.00</geoidheight><course>348.8</course><type>1</type></trkpt>
      <trkpt lat="38.34162393" lon="-2.70673257"><ele>2149</ele><speed>17.83</speed><time>2016-06-02T11:49:45Z</time><pdop>13.0</pdop><geoidheight>51.00</geoidheight><course>352.7</course><type>1</type></trkpt>
      <trkpt lat="38.34187806" lon="-2.70677304"><ele>2143</ele><speed>16.27</speed><time>2016-06-02T11:49:47Z</time><pdop>12.0</pdop><geoidheight>51.00</geoidheight><course>352.5</course><type>1</type></trkpt>
      <trkpt lat="38.34216612" lon="-2.70680698"><ele>2135</ele><speed>17.16</speed><time>2016-06-02T11:49:49Z</time><pdop>12.0</pdop><geoidheight>51.00</geoidheight><course>353.9</course><type>1</type></trkpt>
      <trkpt lat="38.34247226" lon="-2.70682595"><ele>2130</ele><speed>16.70</speed><time>2016-06-02T11:49:51Z</time><pdop>12.0</pdop><geoidheight>51.00</geoidheight><course>355.0</course><type>1</type></trkpt>
      <trkpt lat="38.34273953" lon="-2.70689354"><ele>2126</ele><speed>15.43</speed><time>2016-06-02T11:49:53Z</time><pdop>11.0</pdop><geoidheight>51.00</geoidheight><course>350.2</course><type>1</type></trkpt>
      <trkpt lat="38.34295766" lon="-2.70690665"><ele>2120</ele><speed>13.87</speed><time>2016-06-02T11:49:55Z</time><pdop>12.0</pdop><geoidheight>51.00</geoidheight><course>352.6</course><type>1</type></trkpt>
      <trkpt lat="38.34323671" lon="-2.7069703"><ele>2118</ele><speed>15.35</speed><time>2016-06-02T11:49:57Z</time><pdop>13.0</pdop><geoidheight>51.00</geoidheight><course>349.7</course><type>1</type></trkpt>
      <trkpt lat="38.34350878" lon="-2.70704581"><ele>2114</ele><speed>15.80</speed><time>2016-06-02T11:49:59Z</time><pdop>13.0</pdop><geoidheight>51.00</geoidheight><course>349.9</course><type>1</type></trkpt>
      <trkpt lat="38.34376545" lon="-2.70710776"><ele>2112</ele><speed>14.72</speed><time>2016-06-02T11:50:01Z</time><pdop>12.0</pdop><geoidheight>51.00</geoidheight><course>351.8</course><type>1</type></trkpt>
      <trkpt lat="38.34398943" lon="-2.70713322"><ele>2105</ele><speed>14.79</speed><time>2016-06-02T11:50:03Z</time><pdop>11.0</pdop><geoidheight>51.00</geoidheight><course>346.8</course><type>1</type></trkpt>
      <trkpt lat="38.34423629" lon="-2.70720562"><ele>2100</ele><speed>15.20</speed><time>2016-06-02T11:50:05Z</time><pdop>11.0</pdop><geoidheight>51.00</geoidheight><course>345.2</course><type>1</type></trkpt>
      <trkpt lat="38.34450067" lon="-2.70725574"><ele>2096</ele><speed>15.24</speed><time>2016-06-02T11:50:07Z</time><pdop>10.0</pdop><geoidheight>51.00</geoidheight><course>346.0</course><type>1</type></trkpt>
      <trkpt lat="38.34472909" lon="-2.70730852"><ele>2090</ele><speed>13.29</speed><time>2016-06-02T11:50:09Z</time><pdop>10.0</pdop><geoidheight>51.00</geoidheight><course>346.0</course><type>1</type></trkpt>
      <trkpt lat="38.34497341" lon="-2.70740058"><ele>2086</ele><speed>14.13</speed><time>2016-06-02T11:50:11Z</time><pdop>10.0</pdop><geoidheight>51.00</geoidheight><course>344.8</course><type>1</type></trkpt>
      <trkpt lat="38.34523123" lon="-2.70747224"><ele>2081</ele><speed>15.22</speed><time>2016-06-02T11:50:13Z</time><pdop>10.0</pdop><geoidheight>51.00</geoidheight><course>346.1</course><type>1</type></trkpt>
      <trkpt lat="38.34552163" lon="-2.70751953"><ele>2075</ele><speed>16.56</speed><time>2016-06-02T11:50:15Z</time><pdop>10.0</pdop><geoidheight>51.00</geoidheight><course>351.9</course><type>1</type></trkpt>
      <trkpt lat="38.34578702" lon="-2.70759787"><ele>2075</ele><speed>14.86</speed><time>2016-06-02T11:50:17Z</time><pdop>10.0</pdop><geoidheight>51.00</geoidheight><course>347.7</course><type>1</type></trkpt>
      <trkpt lat="38.34603146" lon="-2.70764954"><ele>2075</ele><speed>13.72</speed><time>2016-06-02T11:50:19Z</time><pdop>9.0</pdop><geoidheight>51.00</geoidheight><course>353.5</course><type>1</type></trkpt>
      <trkpt lat="38.34625845" lon="-2.70766764"><ele>2072</ele><speed>13.33</speed><time>2016-06-02T11:50:21Z</time><pdop>9.0</pdop><geoidheight>51.00</geoidheight><course>355.5</course><type>1</type></trkpt>
      <trkpt lat="38.34648658" lon="-2.70771169"><ele>2068</ele><speed>13.57</speed><time>2016-06-02T11:50:23Z</time><pdop>10.0</pdop><geoidheight>51.00</geoidheight><course>351.3</course><type>1</type></trkpt>
      <trkpt lat="38.3467555" lon="-2.70777576"><ele>2065</ele><speed>14.73</speed><time>2016-06-02T11:50:25Z</time><pdop>10.0</pdop><geoidheight>51.00</geoidheight><course>348.4</course><type>1</type></trkpt>
      <trkpt lat="38.34704384" lon="-2.70774403"><ele>2062</ele><speed>15.38</speed><time>2016-06-02T11:50:27Z</time><pdop>9.0</pdop><geoidheight>51.00</geoidheight><course>358.9</course><type>1</type></trkpt>
      <trkpt lat="38.34729065" lon="-2.70776006"><ele>2060</ele><speed>14.08</speed><time>2016-06-02T11:50:29Z</time><pdop>9.0</pdop><geoidheight>51.00</geoidheight><course>354.9</course><type>1</type></trkpt>
      <trkpt lat="38.34755453" lon="-2.70779879"><ele>2059</ele><speed>14.55</speed><time>2016-06-02T11:50:31Z</time><pdop>10.0</pdop><geoidheight>51.00</geoidheight><course>353.4</course><type>1</type></trkpt>
      <trkpt lat="38.34778434" lon="-2.70779455"><ele>2053</ele><speed>15.00</speed><time>2016-06-02T11:50:33Z</time><pdop>10.0</pdop><geoidheight>51.00</geoidheight><course>356.1</course><type>1</type></trkpt>
      <trkpt lat="38.34803592" lon="-2.70779849"><ele>2049</ele><speed>14.61</speed><time>2016-06-02T11:50:35Z</time><pdop>10.0</pdop><geoidheight>51.00</geoidheight><course>358.4</course><type>1</type></trkpt>
      <trkpt lat="38.34831697" lon="-2.70782447"><ele>2046</ele><speed>15.85</speed><time>2016-06-02T11:50:37Z</time><pdop>10.0</pdop><geoidheight>51.00</geoidheight><course>356.3</course><type>1</type></trkpt>
      <trkpt lat="38.34856641" lon="-2.70783656"><ele>2042</ele><speed>15.50</speed><time>2016-06-02T11:50:39Z</time><pdop>10.0</pdop><geoidheight>51.00</geoidheight><course>356.0</course><type>1</type></trkpt>
      <trkpt lat="38.34882271" lon="-2.70785626"><ele>2039</ele><speed>15.72</speed><time>2016-06-02T11:50:41Z</time><pdop>10.0</pdop><geoidheight>51.00</geoidheight><course>355.4</course><type>1</type></trkpt>
      <trkpt lat="38.34910723" lon="-2.70789086"><ele>2037</ele><speed>16.10</speed><time>2016-06-02T11:50:43Z</time><pdop>11.0</pdop><geoidheight>51.00</geoidheight><course>356.9</course><type>1</type></trkpt>
      <trkpt lat="38.34936054" lon="-2.70785286"><ele>2033</ele><speed>15.07</speed><time>2016-06-02T11:50:45Z</time><pdop>11.0</pdop><geoidheight>51.00</geoidheight><course>1.8</course><type>1</type></trkpt>
      <trkpt lat="38.34963388" lon="-2.70783804"><ele>2028</ele><speed>15.48</speed><time>2016-06-02T11:50:47Z</time><pdop>10.0</pdop><geoidheight>51.00</geoidheight><course>357.4</course><type>1</type></trkpt>
      <trkpt lat="38.34991688" lon="-2.70787989"><ele>2027</ele><speed>15.81</speed><time>2016-06-02T11:50:49Z</time><pdop>11.0</pdop><geoidheight>51.00</geoidheight><course>354.3</course><type>1</type></trkpt>
      <trkpt lat="38.35023946" lon="-2.7078931"><ele>2022</ele><speed>17.35</speed><time>2016-06-02T11:50:51Z</time><pdop>11.0</pdop><geoidheight>51.00</geoidheight><course>358.4</course><type>1</type></trkpt>
      <trkpt lat="38.35049691" lon="-2.70793082"><ele>2020</ele><speed>15.59</speed><time>2016-06-02T11:50:53Z</time><pdop>10.0</pdop><geoidheight>51.00</geoidheight><course>352.7</course><type>1</type></trkpt>
      <trkpt lat="38.35069779" lon="-2.70795249"><ele>2015</ele><speed>14.79</speed><time>2016-06-02T11:50:55Z</time><pdop>10.0</pdop><geoidheight>51.00</geoidheight><course>355.7</course><type>1</type></trkpt>
      <trkpt lat="38.35095691" lon="-2.7079836"><ele>2013</ele><speed>14.76</speed><time>2016-06-02T11:50:57Z</time><pdop>10.0</pdop><geoidheight>51.00</geoidheight><course>354.9</course><type>1</type></trkpt>
      <trkpt lat="38.35120574" lon="-2.70802666"><ele>2011</ele><speed>14.31</speed><time>2016-06-02T11:50:59Z</time><pdop>10.0</pdop><geoidheight>51.00</geoidheight><course>348.5</course><type>1</type></trkpt>
      <trkpt lat="38.3514558" lon="-2.70806902"><ele>2009</ele><speed>14.21</speed><time>2016-06-02T11:51:01Z</time><pdop>10.0</pdop><geoidheight>51.00</geoidheight><course>353.8</course><type>1</type></trkpt>
      <trkpt lat="38.35171931" lon="-2.70808801"><ele>2007</ele><speed>14.42</speed><time>2016-06-02T11:51:03Z</time><pdop>10.0</pdop><geoidheight>51.00</geoidheight><course>356.0</course><type>1</type></trkpt>
      <trkpt lat="38.35199208" lon="-2.70811761"><ele>2006</ele><speed>14.58</speed><time>2016-06-02T11:51:05Z</time><pdop>10.0</pdop><geoidheight>51.00</geoidheight><course>356.1</course><type>1</type></trkpt>
      <trkpt lat="38.35222192" lon="-2.7081381"><ele>2002</ele><speed>14.10</speed><time>2016-06-02T11:51:07Z</time><pdop>10.0</pdop><geoidheight>51.00</geoidheight><course>353.2</course><type>1</type></trkpt>
      <trkpt lat="38.35251" lon="-2.70817486"><ele>1998</ele><speed>16.74</speed><time>2016-06-02T11:51:09Z</time><pdop>10.0</pdop><geoidheight>51.00</geoidheight><course>353.1</course><type>1</type></trkpt>
      <trkpt lat="38.3528007" lon="-2.70815248"><ele>1995</ele><speed>16.48</speed><time>2016-06-02T11:51:11Z</time><pdop>9.0</pdop><geoidheight>51.00</geoidheight><course>1.5</course><type>1</type></trkpt>
      <trkpt lat="38.35308091" lon="-2.70815288"><ele>1995</ele><speed>14.74</speed><time>2016-06-02T11:51:13Z</time><pdop>9.0</pdop><geoidheight>51.00</geoidheight><course>358.1</course><type>1</type></trkpt>
      <trkpt lat="38.35331907" lon="-2.7081855"><ele>1993</ele><speed>13.74</speed><time>2016-06-02T11:51:15Z</time><pdop>9.0</pdop><geoidheight>51.00</geoidheight><course>355.5</course><type>1</type></trkpt>
      <trkpt lat="38.35358864" lon="-2.70823602"><ele>1990</ele><speed>15.92</speed><time>2016-06-02T11:51:17Z</time><pdop>9.0</pdop><geoidheight>51.00</geoidheight><course>352.1</course><type>1</type></trkpt>
      <trkpt lat="38.35386108" lon="-2.70826973"><ele>1988</ele><speed>15.63</speed><time>2016-06-02T11:51:19Z</time><pdop>9.0</pdop><geoidheight>51.00</geoidheight><course>354.1</course><type>1</type></trkpt>
      <trkpt lat="38.35409974" lon="-2.7082938"><ele>1988</ele><speed>14.08</speed><time>2016-06-02T11:51:21Z</time><pdop>9.0</pdop><geoidheight>51.00</geoidheight><course>357.6</course><type>1</type></trkpt>
      <trkpt lat="38.35435276" lon="-2.70830495"><ele>2043</ele><speed>14.15</speed><time>2016-06-02T11:51:23Z</time><pdop>9.0</pdop><geoidheight>51.00</geoidheight><course>358.7</course><type>1</type></trkpt>
      <trkpt lat="38.35461989" lon="-2.70828084"><ele>2022</ele><speed>14.64</speed><time>2016-06-02T11:51:25Z</time><pdop>9.0</pdop><geoidheight>51.00</geoidheight><course>2.7</course><type>1</type></trkpt>
      <trkpt lat="38.35484477" lon="-2.70826521"><ele>2012</ele><speed>13.47</speed><time>2016-06-02T11:51:27Z</time><pdop>10.0</pdop><geoidheight>51.00</geoidheight><course>4.5</course><type>1</type></trkpt>
      <trkpt lat="38.355102" lon="-2.70820959"><ele>2002</ele><speed>14.18</speed><time>2016-06-02T11:51:29Z</time><pdop>9.0</pdop><geoidheight>51.00</geoidheight><course>4.8</course><type>1</type></trkpt>
      <trkpt lat="38.35536682" lon="-2.70821086"><ele>1995</ele><speed>14.67</speed><time>2016-06-02T11:51:31Z</time><pdop>9.0</pdop><geoidheight>51.00</geoidheight><course>357.4</course><type>1</type></trkpt>
      <trkpt lat="38.35563427" lon="-2.70820416"><ele>1991</ele><speed>15.15</speed><time>2016-06-02T11:51:33Z</time><pdop>10.0</pdop><geoidheight>51.00</geoidheight><course>2.4</course><type>1</type></trkpt>
      <trkpt lat="38.3558529" lon="-2.70815839"><ele>1992</ele><speed>12.95</speed><time>2016-06-02T11:51:35Z</time><pdop>10.0</pdop><geoidheight>51.00</geoidheight><course>6.9</course><type>1</type></trkpt>
      <trkpt lat="38.35610035" lon="-2.70816133"><ele>1988</ele><speed>13.30</speed><time>2016-06-02T11:51:37Z</time><pdop>9.0</pdop><geoidheight>51.00</geoidheight><course>1.9</course><type>1</type></trkpt>
      <trkpt lat="38.35632813" lon="-2.70811091"><ele>1985</ele><speed>13.53</speed><time>2016-06-02T11:51:39Z</time><pdop>10.0</pdop><geoidheight>51.00</geoidheight><course>6.3</course><type>1</type></trkpt>
      <trkpt lat="38.35657972" lon="-2.70804934"><ele>1985</ele><speed>13.79</speed><time>2016-06-02T11:51:41Z</time><pdop>9.0</pdop><geoidheight>51.00</geoidheight><course>12.1</course><type>1</type></trkpt>
      <trkpt lat="38.35680702" lon="-2.7079848"><ele>1981</ele><speed>12.67</speed><time>2016-06-02T11:51:43Z</time><pdop>9.0</pdop><geoidheight>51.00</geoidheight><course>11.1</course><type>1</type></trkpt>
      <trkpt lat="38.3570324" lon="-2.70794163"><ele>1978</ele><speed>12.91</speed><time>2016-06-02T11:51:45Z</time><pdop>9.0</pdop><geoidheight>51.00</geoidheight><course>8.6</course><type>1</type></trkpt>
      <trkpt lat="38.35728026" lon="-2.70789582"><ele>1976</ele><speed>13.69</speed><time>2016-06-02T11:51:47Z</time><pdop>9.0</pdop><geoidheight>51.00</geoidheight><course>8.8</course><type>1</type></trkpt>
      <trkpt lat="38.35753817" lon="-2.7078582"><ele>1976</ele><speed>14.24</speed><time>2016-06-02T11:51:49Z</time><pdop>9.0</pdop><geoidheight>51.00</geoidheight><course>9.2</course><type>1</type></trkpt>
      <trkpt lat="38.35778437" lon="-2.70781058"><ele>1976</ele><speed>13.60</speed><time>2016-06-02T11:51:51Z</time><pdop>9.0</pdop><geoidheight>51.00</geoidheight><course>6.9</course><type>1</type></trkpt>
      <trkpt lat="38.35802352" lon="-2.70776415"><ele>1973</ele><speed>13.67</speed><time>2016-06-02T11:51:53Z</time><pdop>9.0</pdop><geoidheight>51.00</geoidheight><course>9.1</course><type>1</type></trkpt>
      <trkpt lat="38.35828869" lon="-2.70772341"><ele>1970</ele><speed>14.26</speed><time>2016-06-02T11:51:55Z</time><pdop>9.0</pdop><geoidheight>51.00</geoidheight><course>4.4</course><type>1</type></trkpt>
      <trkpt lat="38.35852869" lon="-2.70768416"><ele>1968</ele><speed>13.56</speed><time>2016-06-02T11:51:57Z</time><pdop>9.0</pdop><geoidheight>51.00</geoidheight><course>4.4</course><type>1</type></trkpt>
      <trkpt lat="38.35874259" lon="-2.70766186"><ele>1966</ele><speed>13.12</speed><time>2016-06-02T11:51:59Z</time><pdop>10.0</pdop><geoidheight>51.00</geoidheight><course>4.3</course><type>1</type></trkpt>
      <trkpt lat="38.35898714" lon="-2.70768114"><ele>1963</ele><speed>13.73</speed><time>2016-06-02T11:52:01Z</time><pdop>9.0</pdop><geoidheight>51.00</geoidheight><course>1.1</course><type>1</type></trkpt>
      <trkpt lat="38.35925946" lon="-2.70766525"><ele>1963</ele><speed>14.60</speed><time>2016-06-02T11:52:03Z</time><pdop>10.0</pdop><geoidheight>51.00</geoidheight><course>0.4</course><type>1</type></trkpt>
      <trkpt lat="38.35952559" lon="-2.70766197"><ele>1963</ele><speed>14.67</speed><time>2016-06-02T11:52:05Z</time><pdop>11.0</pdop><geoidheight>51.00</geoidheight><course>0.6</course><type>1</type></trkpt>
      <trkpt lat="38.3597676" lon="-2.70764915"><ele>1958</ele><speed>14.80</speed><time>2016-06-02T11:52:07Z</time><pdop>10.0</pdop><geoidheight>51.00</geoidheight><course>0.3</course><type>1</type></trkpt>
      <trkpt lat="38.35995253" lon="-2.70769358"><ele>1953</ele><speed>13.18</speed><time>2016-06-02T11:52:09Z</time><pdop>10.0</pdop><geoidheight>51.00</geoidheight><course>351.8</course><type>1</type></trkpt>
      <trkpt lat="38.36013769" lon="-2.70775734"><ele>1951</ele><speed>12.01</speed><time>2016-06-02T11:52:11Z</time><pdop>10.0</pdop><geoidheight>51.00</geoidheight><course>347.4</course><type>1</type></trkpt>
      <trkpt lat="38.36035219" lon="-2.70783775"><ele>1949</ele><speed>12.87</speed><time>2016-06-02T11:52:13Z</time><pdop>10.0</pdop><geoidheight>51.00</geoidheight><course>344.6</course><type>1</type></trkpt>
      <trkpt lat="38.3605558" lon="-2.70792326"><ele>1945</ele><speed>13.36</speed><time>2016-06-02T11:52:15Z</time><pdop>10.0</pdop><geoidheight>51.00</geoidheight><course>340.3</course><type>1</type></trkpt>
      <trkpt lat="38.36078501" lon="-2.70801262"><ele>1944</ele><speed>13.43</speed><time>2016-06-02T11:52:17Z</time><pdop>10.0</pdop><geoidheight>51.00</geoidheight><course>341.8</course><type>1</type></trkpt>
      <trkpt lat="38.3609805" lon="-2.70808577"><ele>1942</ele><speed>13.01</speed><time>2016-06-02T11:52:19Z</time><pdop>10.0</pdop><geoidheight>51.00</geoidheight><course>343.3</course><type>1</type></trkpt>
      <trkpt lat="38.36119726" lon="-2.70819321"><ele>1938</ele><speed>13.56</speed><time>2016-06-02T11:52:21Z</time><pdop>10.0</pdop><geoidheight>51.00</geoidheight><course>341.4</course><type>1</type></trkpt>
      <trkpt lat="38.36142746" lon="-2.70824651"><ele>1935</ele><speed>13.18</speed><time>2016-06-02T11:52:23Z</time><pdop>10.0</pdop><geoidheight>51.00</geoidheight><course>344.9</course><type>1</type></trkpt>
      <trkpt lat="38.36163073" lon="-2.70833311"><ele>1932</ele><speed>12.61</speed><time>2016-06-02T11:52:25Z</time><pdop>10.0</pdop><geoidheight>51.00</geoidheight><course>345.2</course><type>1</type></trkpt>
      <trkpt lat="38.36184736" lon="-2.70841442"><ele>1929</ele><speed>13.44</speed><time>2016-06-02T11:52:27Z</time><pdop>10.0</pdop><geoidheight>51.00</geoidheight><course>344.5</course><type>1</type></trkpt>
      <trkpt lat="38.36202931" lon="-2.7084945"><ele>1922</ele><speed>11.96</speed><time>2016-06-02T11:52:29Z</time><pdop>10.0</pdop><geoidheight>51.00</geoidheight><course>337.7</course><type>1</type></trkpt>
      <trkpt lat="38.36221169" lon="-2.70856509"><ele>1916</ele><speed>12.51</speed><time>2016-06-02T11:52:31Z</time><pdop>9.0</pdop><geoidheight>51.00</geoidheight><course>341.0</course><type>1</type></trkpt>
      <trkpt lat="38.3624338" lon="-2.70863113"><ele>1914</ele><speed>12.70</speed><time>2016-06-02T11:52:33Z</time><pdop>9.0</pdop><geoidheight>51.00</geoidheight><course>346.6</course><type>1</type></trkpt>
      <trkpt lat="38.36266926" lon="-2.70869717"><ele>1911</ele><speed>13.48</speed><time>2016-06-02T11:52:35Z</time><pdop>9.0</pdop><geoidheight>51.00</geoidheight><course>348.6</course><type>1</type></trkpt>
      <trkpt lat="38.36293244" lon="-2.70875094"><ele>1911</ele><speed>14.28</speed><time>2016-06-02T11:52:37Z</time><pdop>9.0</pdop><geoidheight>51.00</geoidheight><course>353.4</course><type>1</type></trkpt>
      <trkpt lat="38.36314681" lon="-2.70878232"><ele>1908</ele><speed>12.34</speed><time>2016-06-02T11:52:39Z</time><pdop>9.0</pdop><geoidheight>51.00</geoidheight><course>349.5</course><type>1</type></trkpt>
      <trkpt lat="38.36336579" lon="-2.70881052"><ele>1905</ele><speed>12.54</speed><time>2016-06-02T11:52:41Z</time><pdop>9.0</pdop><geoidheight>51.00</geoidheight><course>353.0</course><type>1</type></trkpt>
      <trkpt lat="38.36358315" lon="-2.70885318"><ele>1898</ele><speed>13.00</speed><time>2016-06-02T11:52:43Z</time><pdop>9.0</pdop><geoidheight>51.00</geoidheight><course>349.2</course><type>1</type></trkpt>
      <trkpt lat="38.36380125" lon="-2.7089299"><ele>1894</ele><speed>12.31</speed><time>2016-06-02T11:52:45Z</time><pdop>9.0</pdop><geoidheight>51.00</geoidheight><course>344.9</course><type>1</type></trkpt>
      <trkpt lat="38.36402592" lon="-2.7090019"><ele>1891</ele><speed>13.14</speed><time>2016-06-02T11:52:47Z</time><pdop>9.0</pdop><geoidheight>51.00</geoidheight><course>345.5</course><type>1</type></trkpt>
      <trkpt lat="38.36424231" lon="-2.70902495"><ele>1889</ele><speed>12.95</speed><time>2016-06-02T11:52:49Z</time><pdop>9.0</pdop><geoidheight>51.00</geoidheight><course>356.7</course><type>1</type></trkpt>
      <trkpt lat="38.36445811" lon="-2.70904295"><ele>1886</ele><speed>12.38</speed><time>2016-06-02T11:52:51Z</time><pdop>9.0</pdop><geoidheight>51.00</geoidheight><course>356.1</course><type>1</type></trkpt>
      <trkpt lat="38.36469965" lon="-2.70906387"><ele>1881</ele><speed>13.53</speed><time>2016-06-02T11:52:53Z</time><pdop>9.0</pdop><geoidheight>51.00</geoidheight><course>353.6</course><type>1</type></trkpt>
      <trkpt lat="38.36494512" lon="-2.7091136"><ele>1877</ele><speed>14.06</speed><time>2016-06-02T11:52:55Z</time><pdop>9.0</pdop><geoidheight>51.00</geoidheight><course>350.6</course><type>1</type></trkpt>
      <trkpt lat="38.3651687" lon="-2.70919653"><ele>1874</ele><speed>13.52</speed><time>2016-06-02T11:52:57Z</time><pdop>9.0</pdop><geoidheight>51.00</geoidheight><course>344.6</course><type>1</type></trkpt>
      <trkpt lat="38.36539476" lon="-2.70927758"><ele>1871</ele><speed>13.83</speed><time>2016-06-02T11:52:59Z</time><pdop>9.0</pdop><geoidheight>51.00</geoidheight><course>343.3</course><type>1</type></trkpt>
      <trkpt lat="38.36563593" lon="-2.70937162"><ele>1870</ele><speed>13.99</speed><time>2016-06-02T11:53:01Z</time><pdop>10.0</pdop><geoidheight>51.00</geoidheight><course>343.1</course><type>1</type></trkpt>
      <trkpt lat="38.36582966" lon="-2.70943257"><ele>1867</ele><speed>13.52</speed><time>2016-06-02T11:53:03Z</time><pdop>10.0</pdop><geoidheight>51.00</geoidheight><course>347.5</course><type>1</type></trkpt>
      <trkpt lat="38.36604186" lon="-2.70950137"><ele>1864</ele><speed>13.33</speed><time>2016-06-02T11:53:05Z</time><pdop>10.0</pdop><geoidheight>51.00</geoidheight><course>346.2</course><type>1</type></trkpt>
      <trkpt lat="38.3662729" lon="-2.70955852"><ele>1860</ele><speed>13.39</speed><time>2016-06-02T11:53:07Z</time><pdop>10.0</pdop><geoidheight>51.00</geoidheight><course>347.5</course><type>1</type></trkpt>
      <trkpt lat="38.36650397" lon="-2.70962973"><ele>1857</ele><speed>13.81</speed><time>2016-06-02T11:53:09Z</time><pdop>10.0</pdop><geoidheight>51.00</geoidheight><course>346.7</course><type>1</type></trkpt>
      <trkpt lat="38.3667415" lon="-2.70966928"><ele>1853</ele><speed>13.68</speed><time>2016-06-02T11:53:11Z</time><pdop>10.0</pdop><geoidheight>51.00</geoidheight><course>351.4</course><type>1</type></trkpt>
      <trkpt lat="38.36693167" lon="-2.70968297"><ele>1850</ele><speed>12.40</speed><time>2016-06-02T11:53:13Z</time><pdop>10.0</pdop><geoidheight>51.00</geoidheight><course>354.3</course><type>1</type></trkpt>
      <trkpt lat="38.36714384" lon="-2.70964831"><ele>1849</ele><speed>12.17</speed><time>2016-06-02T11:53:15Z</time><pdop>11.0</pdop><geoidheight>51.00</geoidheight><course>0.2</course><type>1</type></trkpt>
      <trkpt lat="38.36742011" lon="-2.70966635"><ele>1846</ele><speed>15.40</speed><time>2016-06-02T11:53:17Z</time><pdop>10.0</pdop><geoidheight>51.00</geoidheight><course>354.1</course><type>1</type></trkpt>
      <trkpt lat="38.36768357" lon="-2.70970124"><ele>1845</ele><speed>13.79</speed><time>2016-06-02T11:53:19Z</time><pdop>10.0</pdop><geoidheight>51.00</geoidheight><course>353.7</course><type>1</type></trkpt>
      <trkpt lat="38.36789443" lon="-2.70971549"><ele>1843</ele><speed>12.44</speed><time>2016-06-02T11:53:21Z</time><pdop>11.0</pdop><geoidheight>51.00</geoidheight><course>357.8</course><type>1</type></trkpt>
      <trkpt lat="38.36817919" lon="-2.70972422"><ele>1841</ele><speed>11.95</speed><time>2016-06-02T11:53:24Z</time><pdop>11.0</pdop><geoidheight>51.00</geoidheight><course>357.2</course><type>1</type></trkpt>
      <trkpt lat="38.36837709" lon="-2.70970023"><ele>1835</ele><speed>13.57</speed><time>2016-06-02T11:53:26Z</time><pdop>10.0</pdop><geoidheight>51.00</geoidheight><course>356.6</course><type>1</type></trkpt>
      <trkpt lat="38.36862414" lon="-2.709692"><ele>1833</ele><speed>13.31</speed><time>2016-06-02T11:53:28Z</time><pdop>11.0</pdop><geoidheight>51.00</geoidheight><course>358.8</course><type>1</type></trkpt>
      <trkpt lat="38.36888672" lon="-2.70966595"><ele>1834</ele><speed>10.15</speed><time>2016-06-02T11:53:31Z</time><pdop>10.0</pdop><geoidheight>51.00</geoidheight><course>6.4</course><type>1</type></trkpt>
      <trkpt lat="38.36913605" lon="-2.70965989"><ele>1835</ele><speed>8.97</speed><time>2016-06-02T11:53:34Z</time><pdop>9.0</pdop><geoidheight>51.00</geoidheight><course>356.3</course><type>1</type></trkpt>
      <trkpt lat="38.36932541" lon="-2.70972716"><ele>1837</ele><speed>6.78</speed><time>2016-06-02T11:53:37Z</time><pdop>10.0</pdop><geoidheight>51.00</geoidheight><course>338.9</course><type>1</type></trkpt>
      <trkpt lat="38.36923699" lon="-2.70992931"><ele>1840</ele><speed>5.64</speed><time>2016-06-02T11:53:44Z</time><pdop>9.0</pdop><geoidheight>51.00</geoidheight><course>192.9</course><type>1</type></trkpt>
      <trkpt lat="38.36905573" lon="-2.70994575"><ele>1840</ele><speed>6.35</speed><time>2016-06-02T11:53:47Z</time><pdop>11.0</pdop><geoidheight>51.00</geoidheight><course>183.8</course><type>1</type></trkpt>
      <trkpt lat="38.36892809" lon="-2.70970073"><ele>1840</ele><speed>8.86</speed><time>2016-06-02T11:53:49Z</time><pdop>12.0</pdop><geoidheight>51.00</geoidheight><course>136.3</course><type>1</type></trkpt>
      <trkpt lat="38.3688001" lon="-2.70947503"><ele>1840</ele><speed>13.83</speed><time>2016-06-02T11:53:50Z</time><pdop>11.0</pdop><geoidheight>51.00</geoidheight><course>129.3</course><type>1</type></trkpt>
      <trkpt lat="38.36885819" lon="-2.70906853"><ele>1842</ele><speed>13.95</speed><time>2016-06-02T11:53:52Z</time><pdop>11.0</pdop><geoidheight>51.00</geoidheight><course>97.2</course><type>1</type></trkpt>
      <trkpt lat="38.36897143" lon="-2.70871422"><ele>1842</ele><speed>14.01</speed><time>2016-06-02T11:53:54Z</time><pdop>11.0</pdop><geoidheight>51.00</geoidheight><course>80.5</course><type>1</type></trkpt>
      <trkpt lat="38.36925983" lon="-2.70856392"><ele>1841</ele><speed>8.23</speed><time>2016-06-02T11:53:57Z</time><pdop>12.0</pdop><geoidheight>51.00</geoidheight><course>30.1</course><type>1</type></trkpt>
      <trkpt lat="38.36953235" lon="-2.70854791"><ele>1845</ele><speed>10.10</speed><time>2016-06-02T11:53:59Z</time><pdop>10.0</pdop><geoidheight>51.00</geoidheight><course>7.5</course><type>1</type></trkpt>
      <trkpt lat="38.36973197" lon="-2.70855344"><ele>1846</ele><speed>8.15</speed><time>2016-06-02T11:54:01Z</time><pdop>10.0</pdop><geoidheight>51.00</geoidheight><course>353.3</course><type>1</type></trkpt>
      <trkpt lat="38.36986207" lon="-2.7086358"><ele>1849</ele><speed>3.85</speed><time>2016-06-02T11:54:04Z</time><pdop>4.0</pdop><geoidheight>51.00</geoidheight><course>325.8</course><type>1</type></trkpt>
      <trkpt lat="38.36985418" lon="-2.70873076"><ele>1850</ele><speed>2.81</speed><time>2016-06-02T11:54:07Z</time><pdop>4.0</pdop><geoidheight>51.00</geoidheight><course>234.0</course><type>1</type></trkpt>
      <trkpt lat="38.36976274" lon="-2.70876257"><ele>1851</ele><speed>5.36</speed><time>2016-06-02T11:54:09Z</time><pdop>5.0</pdop><geoidheight>51.00</geoidheight><course>184.7</course><type>1</type></trkpt>
      <trkpt lat="38.3696177" lon="-2.70865332"><ele>1850</ele><speed>8.58</speed><time>2016-06-02T11:54:11Z</time><pdop>7.0</pdop><geoidheight>51.00</geoidheight><course>158.5</course><type>1</type></trkpt>
      <trkpt lat="38.36947959" lon="-2.70844968"><ele>1851</ele><speed>11.62</speed><time>2016-06-02T11:54:13Z</time><pdop>7.0</pdop><geoidheight>51.00</geoidheight><course>137.7</course><type>1</type></trkpt>
      <trkpt lat="38.36939989" lon="-2.70815698"><ele>1852</ele><speed>12.43</speed><time>2016-06-02T11:54:15Z</time><pdop>8.0</pdop><geoidheight>51.00</geoidheight><course>119.5</course><type>1</type></trkpt>
      <trkpt lat="38.36933553" lon="-2.70797303"><ele>1853</ele><speed>15.02</speed><time>2016-06-02T11:54:16Z</time><pdop>6.0</pdop><geoidheight>51.00</geoidheight><course>112.3</course><type>1</type></trkpt>
      <trkpt lat="38.36931725" lon="-2.70779907"><ele>1853</ele><speed>15.93</speed><time>2016-06-02T11:54:17Z</time><pdop>6.0</pdop><geoidheight>51.00</geoidheight><course>101.5</course><type>1</type></trkpt>
      <trkpt lat="38.36929767" lon="-2.70760551"><ele>1855</ele><speed>16.50</speed><time>2016-06-02T11:54:18Z</time><pdop>6.0</pdop><geoidheight>51.00</geoidheight><course>97.9</course><type>1</type></trkpt>
      <trkpt lat="38.36937667" lon="-2.70740653"><ele>1859</ele><speed>17.23</speed><time>2016-06-02T11:54:19Z</time><pdop>4.0</pdop><geoidheight>51.00</geoidheight><course>76.7</course><type>1</type></trkpt>
      <trkpt lat="38.36942453" lon="-2.70723787"><ele>1859</ele><speed>16.61</speed><time>2016-06-02T11:54:20Z</time><pdop>4.0</pdop><geoidheight>51.00</geoidheight><course>67.9</course><type>1</type></trkpt>
      <trkpt lat="38.36949392" lon="-2.70709242"><ele>1860</ele><speed>15.80</speed><time>2016-06-02T11:54:21Z</time><pdop>4.0</pdop><geoidheight>51.00</geoidheight><course>61.5</course><type>1</type></trkpt>
      <trkpt lat="38.36958941" lon="-2.70695214"><ele>1861</ele><speed>15.14</speed><time>2016-06-02T11:54:22Z</time><pdop>4.0</pdop><geoidheight>51.00</geoidheight><course>53.6</course><type>1</type></trkpt>
      <trkpt lat="38.36967459" lon="-2.70681321"><ele>1862</ele><speed>14.73</speed><time>2016-06-02T11:54:23Z</time><pdop>4.0</pdop><geoidheight>51.00</geoidheight><course>52.2</course><type>1</type></trkpt>
      <trkpt lat="38.36976663" lon="-2.70671571"><ele>1862</ele><speed>13.57</speed><time>2016-06-02T11:54:24Z</time><pdop>5.0</pdop><geoidheight>51.00</geoidheight><course>44.5</course><type>1</type></trkpt>
      <trkpt lat="38.3698893" lon="-2.70668832"><ele>1862</ele><speed>12.35</speed><time>2016-06-02T11:54:25Z</time><pdop>4.0</pdop><geoidheight>51.00</geoidheight><course>24.3</course><type>1</type></trkpt>
      <trkpt lat="38.36998234" lon="-2.70666489"><ele>1862</ele><speed>11.28</speed><time>2016-06-02T11:54:26Z</time><pdop>4.0</pdop><geoidheight>51.00</geoidheight><course>14.8</course><type>1</type></trkpt>
      <trkpt lat="38.37007401" lon="-2.70663583"><ele>1862</ele><speed>11.01</speed><time>2016-06-02T11:54:27Z</time><pdop>4.0</pdop><geoidheight>51.00</geoidheight><course>11.5</course><type>1</type></trkpt>
      <trkpt lat="38.37017591" lon="-2.70661439"><ele>1861</ele><speed>10.77</speed><time>2016-06-02T11:54:28Z</time><pdop>3.0</pdop><geoidheight>51.00</geoidheight><course>11.0</course><type>1</type></trkpt>
      <trkpt lat="38.37027921" lon="-2.70660375"><ele>1861</ele><speed>10.40</speed><time>2016-06-02T11:54:29Z</time><pdop>3.0</pdop><geoidheight>51.00</geoidheight><course>6.5</course><type>1</type></trkpt>
      <trkpt lat="38.3703594" lon="-2.70661603"><ele>1862</ele><speed>9.32</speed><time>2016-06-02T11:54:30Z</time><pdop>3.0</pdop><geoidheight>51.00</geoidheight><course>358.4</course><type>1</type></trkpt>
      <trkpt lat="38.37042663" lon="-2.70662169"><ele>1862</ele><speed>7.87</speed><time>2016-06-02T11:54:31Z</time><pdop>3.0</pdop><geoidheight>51.00</geoidheight><course>352.3</course><type>1</type></trkpt>
      <trkpt lat="38.37048758" lon="-2.7066371"><ele>1862</ele><speed>6.80</speed><time>2016-06-02T11:54:32Z</time><pdop>3.0</pdop><geoidheight>51.00</geoidheight><course>346.6</course><type>1</type></trkpt>
      <trkpt lat="38.37056917" lon="-2.70669299"><ele>1862</ele><speed>5.55</speed><time>2016-06-02T11:54:34Z</time><pdop>4.0</pdop><geoidheight>51.00</geoidheight><course>337.7</course><type>1</type></trkpt>
      <trkpt lat="38.37056213" lon="-2.70679666"><ele>1857</ele><speed>4.23</speed><time>2016-06-02T11:54:37Z</time><pdop>3.0</pdop><geoidheight>51.00</geoidheight><course>257.3</course><type>1</type></trkpt>
      <trkpt lat="38.37050194" lon="-2.70686241"><ele>1854</ele><speed>4.80</speed><time>2016-06-02T11:54:39Z</time><pdop>3.0</pdop><geoidheight>51.00</geoidheight><course>221.2</course><type>1</type></trkpt>
      <trkpt lat="38.37037549" lon="-2.70690782"><ele>1855</ele><speed>7.15</speed><time>2016-06-02T11:54:41Z</time><pdop>5.0</pdop><geoidheight>51.00</geoidheight><course>190.8</course><type>1</type></trkpt>
      <trkpt lat="38.37019337" lon="-2.70687857"><ele>1856</ele><speed>9.07</speed><time>2016-06-02T11:54:43Z</time><pdop>7.0</pdop><geoidheight>51.00</geoidheight><course>173.0</course><type>1</type></trkpt>
      <trkpt lat="38.37016225" lon="-2.70669132"><ele>1856</ele><speed>9.67</speed><time>2016-06-02T11:54:44Z</time><pdop>6.0</pdop><geoidheight>51.00</geoidheight><course>136.5</course><type>1</type></trkpt>
      <trkpt lat="38.37009268" lon="-2.70658996"><ele>1857</ele><speed>10.14</speed><time>2016-06-02T11:54:45Z</time><pdop>5.0</pdop><geoidheight>51.00</geoidheight><course>135.9</course><type>1</type></trkpt>
      <trkpt lat="38.37004131" lon="-2.70647178"><ele>1857</ele><speed>10.38</speed><time>2016-06-02T11:54:46Z</time><pdop>4.0</pdop><geoidheight>51.00</geoidheight><course>132.7</course><type>1</type></trkpt>
      <trkpt lat="38.36997118" lon="-2.70638675"><ele>1857</ele><speed>10.26</speed><time>2016-06-02T11:54:47Z</time><pdop>4.0</pdop><geoidheight>51.00</geoidheight><course>133.5</course><type>1</type></trkpt>
      <trkpt lat="38.36989981" lon="-2.70632352"><ele>1857</ele><speed>9.66</speed><time>2016-06-02T11:54:48Z</time><pdop>4.0</pdop><geoidheight>51.00</geoidheight><course>137.9</course><type>1</type></trkpt>
      <trkpt lat="38.369833" lon="-2.70625781"><ele>1857</ele><speed>8.57</speed><time>2016-06-02T11:54:49Z</time><pdop>3.0</pdop><geoidheight>51.00</geoidheight><course>148.7</course><type>1</type></trkpt>
      <trkpt lat="38.36976144" lon="-2.70625187"><ele>1856</ele><speed>7.29</speed><time>2016-06-02T11:54:50Z</time><pdop>3.0</pdop><geoidheight>51.00</geoidheight><course>168.6</course><type>1</type></trkpt>
      <trkpt lat="38.36968096" lon="-2.70632703"><ele>1857</ele><speed>5.56</speed><time>2016-06-02T11:54:52Z</time><pdop>3.0</pdop><geoidheight>51.00</geoidheight><course>226.9</course><type>1</type></trkpt>
      <trkpt lat="38.36971051" lon="-2.70642152"><ele>1862</ele><speed>4.51</speed><time>2016-06-02T11:54:54Z</time><pdop>3.0</pdop><geoidheight>51.00</geoidheight><course>299.1</course><type>1</type></trkpt>
      <trkpt lat="38.36979351" lon="-2.70642551"><ele>1864</ele><speed>7.03</speed><time>2016-06-02T11:54:55Z</time><pdop>3.0</pdop><geoidheight>51.00</geoidheight><course>350.1</course><type>1</type></trkpt>
      <trkpt lat="38.36986648" lon="-2.70642591"><ele>1864</ele><speed>8.32</speed><time>2016-06-02T11:54:56Z</time><pdop>3.0</pdop><geoidheight>51.00</geoidheight><course>359.4</course><type>1</type></trkpt>
      <trkpt lat="38.36994587" lon="-2.70641751"><ele>1865</ele><speed>8.89</speed><time>2016-06-02T11:54:57Z</time><pdop>3.0</pdop><geoidheight>51.00</geoidheight><course>1.2</course><type>1</type></trkpt>
      <trkpt lat="38.37002862" lon="-2.70640869"><ele>1864</ele><speed>9.10</speed><time>2016-06-02T11:54:58Z</time><pdop>4.0</pdop><geoidheight>51.00</geoidheight><course>2.2</course><type>1</type></trkpt>
      <trkpt lat="38.37013052" lon="-2.70640609"><ele>1864</ele><speed>9.96</speed><time>2016-06-02T11:54:59Z</time><pdop>5.0</pdop><geoidheight>51.00</geoidheight><course>2.1</course><type>1</type></trkpt>
      <trkpt lat="38.37027101" lon="-2.70636757"><ele>1865</ele><speed>11.94</speed><time>2016-06-02T11:55:00Z</time><pdop>4.0</pdop><geoidheight>51.00</geoidheight><course>7.7</course><type>1</type></trkpt>
      <trkpt lat="38.37037937" lon="-2.70632774"><ele>1863</ele><speed>11.81</speed><time>2016-06-02T11:55:01Z</time><pdop>4.0</pdop><geoidheight>51.00</geoidheight><course>10.7</course><type>1</type></trkpt>
      <trkpt lat="38.37048024" lon="-2.70629621"><ele>1863</ele><speed>11.55</speed><time>2016-06-02T11:55:02Z</time><pdop>4.0</pdop><geoidheight>51.00</geoidheight><course>9.5</course><type>1</type></trkpt>
      <trkpt lat="38.37056683" lon="-2.70629079"><ele>1863</ele><speed>10.88</speed><time>2016-06-02T11:55:03Z</time><pdop>4.0</pdop><geoidheight>51.00</geoidheight><course>5.2</course><type>1</type></trkpt>
      <trkpt lat="38.37065487" lon="-2.70627916"><ele>1863</ele><speed>10.17</speed><time>2016-06-02T11:55:04Z</time><pdop>5.0</pdop><geoidheight>51.00</geoidheight><course>4.1</course><type>1</type></trkpt>
      <trkpt lat="38.37084271" lon="-2.70628654"><ele>1863</ele><speed>10.08</speed><time>2016-06-02T11:55:06Z</time><pdop>8.0</pdop><geoidheight>51.00</geoidheight><course>1.3</course><type>1</type></trkpt>
      <trkpt lat="38.3710026" lon="-2.70632071"><ele>1863</ele><speed>9.65</speed><time>2016-06-02T11:55:08Z</time><pdop>8.0</pdop><geoidheight>51.00</geoidheight><course>356.2</course><type>1</type></trkpt>
      <trkpt lat="38.37118879" lon="-2.70639725"><ele>1859</ele><speed>8.42</speed><time>2016-06-02T11:55:11Z</time><pdop>5.0</pdop><geoidheight>51.00</geoidheight><course>332.3</course><type>1</type></trkpt>
      <trkpt lat="38.37127255" lon="-2.70648291"><ele>1855</ele><speed>7.98</speed><time>2016-06-02T11:55:13Z</time><pdop>5.0</pdop><geoidheight>51.00</geoidheight><course>331.9</course><type>1</type></trkpt>
      <trkpt lat="38.37140199" lon="-2.70654005"><ele>1856</ele><speed>7.85</speed><time>2016-06-02T11:55:15Z</time><pdop>4.0</pdop><geoidheight>51.00</geoidheight><course>345.9</course><type>1</type></trkpt>
      <trkpt lat="38.37148363" lon="-2.70655306"><ele>1855</ele><speed>8.59</speed><time>2016-06-02T11:55:16Z</time><pdop>4.0</pdop><geoidheight>51.00</geoidheight><course>348.4</course><type>1</type></trkpt>
      <trkpt lat="38.37156415" lon="-2.70657139"><ele>1854</ele><speed>9.18</speed><time>2016-06-02T11:55:17Z</time><pdop>4.0</pdop><geoidheight>51.00</geoidheight><course>349.2</course><type>1</type></trkpt>
      <trkpt lat="38.37166465" lon="-2.70657931"><ele>1855</ele><speed>9.90</speed><time>2016-06-02T11:55:18Z</time><pdop>4.0</pdop><geoidheight>51.00</geoidheight><course>351.7</course><type>1</type></trkpt>
      <trkpt lat="38.37176447" lon="-2.7065939"><ele>1855</ele><speed>9.92</speed><time>2016-06-02T11:55:19Z</time><pdop>4.0</pdop><geoidheight>51.00</geoidheight><course>349.7</course><type>1</type></trkpt>
      <trkpt lat="38.37185218" lon="-2.70661294"><ele>1854</ele><speed>9.83</speed><time>2016-06-02T11:55:20Z</time><pdop>4.0</pdop><geoidheight>51.00</geoidheight><course>348.8</course><type>1</type></trkpt>
      <trkpt lat="38.37202867" lon="-2.70662998"><ele>1856</ele><speed>10.16</speed><time>2016-06-02T11:55:22Z</time><pdop>4.0</pdop><geoidheight>51.00</geoidheight><course>357.2</course><type>1</type></trkpt>
      <trkpt lat="38.37212454" lon="-2.70660962"><ele>1855</ele><speed>9.94</speed><time>2016-06-02T11:55:23Z</time><pdop>4.0</pdop><geoidheight>51.00</geoidheight><course>4.7</course><type>1</type></trkpt>
      <trkpt lat="38.37220508" lon="-2.70659273"><ele>1855</ele><speed>9.38</speed><time>2016-06-02T11:55:24Z</time><pdop>4.0</pdop><geoidheight>51.00</geoidheight><course>10.9</course><type>1</type></trkpt>
      <trkpt lat="38.37229205" lon="-2.70657466"><ele>1854</ele><speed>9.91</speed><time>2016-06-02T11:55:25Z</time><pdop>4.0</pdop><geoidheight>51.00</geoidheight><course>9.0</course><type>1</type></trkpt>
      <trkpt lat="38.37237673" lon="-2.70657221"><ele>1853</ele><speed>9.90</speed><time>2016-06-02T11:55:26Z</time><pdop>4.0</pdop><geoidheight>51.00</geoidheight><course>3.7</course><type>1</type></trkpt>
      <trkpt lat="38.37247934" lon="-2.70658178"><ele>1852</ele><speed>10.74</speed><time>2016-06-02T11:55:27Z</time><pdop>5.0</pdop><geoidheight>51.00</geoidheight><course>355.8</course><type>1</type></trkpt>
      <trkpt lat="38.37258345" lon="-2.70661812"><ele>1850</ele><speed>11.58</speed><time>2016-06-02T11:55:28Z</time><pdop>6.0</pdop><geoidheight>51.00</geoidheight><course>348.9</course><type>1</type></trkpt>
      <trkpt lat="38.37272115" lon="-2.70665377"><ele>1849</ele><speed>12.88</speed><time>2016-06-02T11:55:29Z</time><pdop>5.0</pdop><geoidheight>51.00</geoidheight><course>349.0</course><type>1</type></trkpt>
      <trkpt lat="38.37282778" lon="-2.70666088"><ele>1848</ele><speed>12.14</speed><time>2016-06-02T11:55:30Z</time><pdop>5.0</pdop><geoidheight>51.00</geoidheight><course>352.1</course><type>1</type></trkpt>
      <trkpt lat="38.37292051" lon="-2.70669121"><ele>1848</ele><speed>11.28</speed><time>2016-06-02T11:55:31Z</time><pdop>5.0</pdop><geoidheight>51.00</geoidheight><course>353.8</course><type>1</type></trkpt>
      <trkpt lat="38.37311507" lon="-2.70672873"><ele>1849</ele><speed>11.64</speed><time>2016-06-02T11:55:33Z</time><pdop>5.0</pdop><geoidheight>51.00</geoidheight><course>355.4</course><type>1</type></trkpt>
      <trkpt lat="38.37323126" lon="-2.70672487"><ele>1849</ele><speed>12.47</speed><time>2016-06-02T11:55:34Z</time><pdop>6.0</pdop><geoidheight>51.00</geoidheight><course>356.3</course><type>1</type></trkpt>
      <trkpt lat="38.37334526" lon="-2.70672453"><ele>1847</ele><speed>13.17</speed><time>2016-06-02T11:55:35Z</time><pdop>5.0</pdop><geoidheight>51.00</geoidheight><course>353.9</course><type>1</type></trkpt>
      <trkpt lat="38.3734493" lon="-2.70671194"><ele>1844</ele><speed>12.06</speed><time>2016-06-02T11:55:36Z</time><pdop>4.0</pdop><geoidheight>51.00</geoidheight><course>352.2</course><type>1</type></trkpt>
      <trkpt lat="38.37355276" lon="-2.70672816"><ele>1843</ele><speed>11.74</speed><time>2016-06-02T11:55:37Z</time><pdop>4.0</pdop><geoidheight>51.00</geoidheight><course>350.6</course><type>1</type></trkpt>
      <trkpt lat="38.37363365" lon="-2.70676069"><ele>1840</ele><speed>11.25</speed><time>2016-06-02T11:55:38Z</time><pdop>4.0</pdop><geoidheight>51.00</geoidheight><course>347.3</course><type>1</type></trkpt>
      <trkpt lat="38.37372686" lon="-2.70678653"><ele>1838</ele><speed>11.38</speed><time>2016-06-02T11:55:39Z</time><pdop>4.0</pdop><geoidheight>51.00</geoidheight><course>347.1</course><type>1</type></trkpt>
      <trkpt lat="38.37394498" lon="-2.70686504"><ele>1836</ele><speed>12.35</speed><time>2016-06-02T11:55:41Z</time><pdop>10.0</pdop><geoidheight>51.00</geoidheight><course>343.3</course><type>1</type></trkpt>
      <trkpt lat="38.37426847" lon="-2.70698795"><ele>1833</ele><speed>12.59</speed><time>2016-06-02T11:55:44Z</time><pdop>12.0</pdop><geoidheight>51.00</geoidheight><course>342.2</course><type>1</type></trkpt>
      <trkpt lat="38.37452613" lon="-2.70700304"><ele>1828</ele><speed>13.47</speed><time>2016-06-02T11:55:46Z</time><pdop>11.0</pdop><geoidheight>51.00</geoidheight><course>348.8</course><type>1</type></trkpt>
      <trkpt lat="38.37476394" lon="-2.70710106"><ele>1825</ele><speed>14.07</speed><time>2016-06-02T11:55:48Z</time><pdop>10.0</pdop><geoidheight>51.00</geoidheight><course>344.8</course><type>1</type></trkpt>
      <trkpt lat="38.37499965" lon="-2.70716354"><ele>1821</ele><speed>14.43</speed><time>2016-06-02T11:55:50Z</time><pdop>10.0</pdop><geoidheight>51.00</geoidheight><course>347.2</course><type>1</type></trkpt>
      <trkpt lat="38.375263" lon="-2.70720208"><ele>1819</ele><speed>14.55</speed><time>2016-06-02T11:55:52Z</time><pdop>11.0</pdop><geoidheight>51.00</geoidheight><course>353.8</course><type>1</type></trkpt>
      <trkpt lat="38.37552984" lon="-2.70713983"><ele>1816</ele><speed>14.34</speed><time>2016-06-02T11:55:54Z</time><pdop>11.0</pdop><geoidheight>51.00</geoidheight><course>6.3</course><type>1</type></trkpt>
      <trkpt lat="38.37577393" lon="-2.70711369"><ele>1813</ele><speed>13.63</speed><time>2016-06-02T11:55:56Z</time><pdop>11.0</pdop><geoidheight>51.00</geoidheight><course>2.6</course><type>1</type></trkpt>
      <trkpt lat="38.37597999" lon="-2.70714482"><ele>1809</ele><speed>12.54</speed><time>2016-06-02T11:55:58Z</time><pdop>11.0</pdop><geoidheight>51.00</geoidheight><course>353.5</course><type>1</type></trkpt>
      <trkpt lat="38.37617051" lon="-2.7072556"><ele>1805</ele><speed>12.57</speed><time>2016-06-02T11:56:00Z</time><pdop>10.0</pdop><geoidheight>51.00</geoidheight><course>344.3</course><type>1</type></trkpt>
      <trkpt lat="38.37636677" lon="-2.70732434"><ele>1801</ele><speed>12.50</speed><time>2016-06-02T11:56:02Z</time><pdop>10.0</pdop><geoidheight>51.00</geoidheight><course>341.7</course><type>1</type></trkpt>
      <trkpt lat="38.37655894" lon="-2.70742524"><ele>1798</ele><speed>11.63</speed><time>2016-06-02T11:56:04Z</time><pdop>10.0</pdop><geoidheight>51.00</geoidheight><course>337.4</course><type>1</type></trkpt>
      <trkpt lat="38.37672808" lon="-2.70751073"><ele>1794</ele><speed>11.07</speed><time>2016-06-02T11:56:06Z</time><pdop>10.0</pdop><geoidheight>51.00</geoidheight><course>340.8</course><type>1</type></trkpt>
      <trkpt lat="38.37692538" lon="-2.70758491"><ele>1792</ele><speed>11.57</speed><time>2016-06-02T11:56:08Z</time><pdop>10.0</pdop><geoidheight>51.00</geoidheight><course>344.5</course><type>1</type></trkpt>
      <trkpt lat="38.37708969" lon="-2.70766106"><ele>1788</ele><speed>10.99</speed><time>2016-06-02T11:56:10Z</time><pdop>9.0</pdop><geoidheight>51.00</geoidheight><course>342.9</course><type>1</type></trkpt>
      <trkpt lat="38.37727064" lon="-2.70773813"><ele>1786</ele><speed>11.54</speed><time>2016-06-02T11:56:12Z</time><pdop>10.0</pdop><geoidheight>51.00</geoidheight><course>342.5</course><type>1</type></trkpt>
      <trkpt lat="38.37747617" lon="-2.70772893"><ele>1780</ele><speed>12.09</speed><time>2016-06-02T11:56:14Z</time><pdop>9.0</pdop><geoidheight>51.00</geoidheight><course>351.0</course><type>1</type></trkpt>
      <trkpt lat="38.37769175" lon="-2.70777384"><ele>1778</ele><speed>12.12</speed><time>2016-06-02T11:56:16Z</time><pdop>9.0</pdop><geoidheight>51.00</geoidheight><course>352.3</course><type>1</type></trkpt>
      <trkpt lat="38.37789262" lon="-2.70781027"><ele>1775</ele><speed>11.77</speed><time>2016-06-02T11:56:18Z</time><pdop>9.0</pdop><geoidheight>51.00</geoidheight><course>352.8</course><type>1</type></trkpt>
      <trkpt lat="38.3781194" lon="-2.7078248"><ele>1774</ele><speed>12.40</speed><time>2016-06-02T11:56:20Z</time><pdop>10.0</pdop><geoidheight>51.00</geoidheight><course>354.5</course><type>1</type></trkpt>
      <trkpt lat="38.37833939" lon="-2.70787226"><ele>1772</ele><speed>12.90</speed><time>2016-06-02T11:56:22Z</time><pdop>10.0</pdop><geoidheight>51.00</geoidheight><course>352.4</course><type>1</type></trkpt>
      <trkpt lat="38.37859511" lon="-2.70788088"><ele>1768</ele><speed>13.20</speed><time>2016-06-02T11:56:24Z</time><pdop>9.0</pdop><geoidheight>51.00</geoidheight><course>356.5</course><type>1</type></trkpt>
      <trkpt lat="38.37881665" lon="-2.70788586"><ele>1764</ele><speed>12.61</speed><time>2016-06-02T11:56:26Z</time><pdop>10.0</pdop><geoidheight>51.00</geoidheight><course>356.8</course><type>1</type></trkpt>
      <trkpt lat="38.37904209" lon="-2.70792869"><ele>1763</ele><speed>12.41</speed><time>2016-06-02T11:56:28Z</time><pdop>10.0</pdop><geoidheight>51.00</geoidheight><course>352.0</course><type>1</type></trkpt>
      <trkpt lat="38.37925699" lon="-2.70794685"><ele>1762</ele><speed>12.57</speed><time>2016-06-02T11:56:30Z</time><pdop>10.0</pdop><geoidheight>51.00</geoidheight><course>355.8</course><type>1</type></trkpt>
      <trkpt lat="38.3794461" lon="-2.70796883"><ele>1760</ele><speed>11.91</speed><time>2016-06-02T11:56:32Z</time><pdop>10.0</pdop><geoidheight>51.00</geoidheight><course>356.5</course><type>1</type></trkpt>
      <trkpt lat="38.37963301" lon="-2.70795202"><ele>1754</ele><speed>11.36</speed><time>2016-06-02T11:56:34Z</time><pdop>10.0</pdop><geoidheight>51.00</geoidheight><course>357.4</course><type>1</type></trkpt>
      <trkpt lat="38.37986262" lon="-2.70793724"><ele>1751</ele><speed>12.04</speed><time>2016-06-02T11:56:36Z</time><pdop>9.0</pdop><geoidheight>51.00</geoidheight><course>357.8</course><type>1</type></trkpt>
      <trkpt lat="38.38009018" lon="-2.70796075"><ele>1747</ele><speed>12.83</speed><time>2016-06-02T11:56:38Z</time><pdop>9.0</pdop><geoidheight>51.00</geoidheight><course>355.9</course><type>1</type></trkpt>
      <trkpt lat="38.38028542" lon="-2.70798043"><ele>1743</ele><speed>12.03</speed><time>2016-06-02T11:56:40Z</time><pdop>9.0</pdop><geoidheight>51.00</geoidheight><course>355.7</course><type>1</type></trkpt>
      <trkpt lat="38.38048328" lon="-2.70801973"><ele>1739</ele><speed>11.82</speed><time>2016-06-02T11:56:42Z</time><pdop>10.0</pdop><geoidheight>51.00</geoidheight><course>350.9</course><type>1</type></trkpt>
      <trkpt lat="38.38069202" lon="-2.70802905"><ele>1736</ele><speed>12.35</speed><time>2016-06-02T11:56:44Z</time><pdop>10.0</pdop><geoidheight>51.00</geoidheight><course>354.7</course><type>1</type></trkpt>
      <trkpt lat="38.38091577" lon="-2.70805426"><ele>1734</ele><speed>12.83</speed><time>2016-06-02T11:56:46Z</time><pdop>10.0</pdop><geoidheight>51.00</geoidheight><course>352.7</course><type>1</type></trkpt>
      <trkpt lat="38.38113087" lon="-2.7080976"><ele>1732</ele><speed>12.80</speed><time>2016-06-02T11:56:48Z</time><pdop>11.0</pdop><geoidheight>51.00</geoidheight><course>352.1</course><type>1</type></trkpt>
      <trkpt lat="38.38141394" lon="-2.70805054"><ele>1729</ele><speed>14.46</speed><time>2016-06-02T11:56:50Z</time><pdop>12.0</pdop><geoidheight>51.00</geoidheight><course>1.4</course><type>1</type></trkpt>
      <trkpt lat="38.38168125" lon="-2.70798962"><ele>1724</ele><speed>15.13</speed><time>2016-06-02T11:56:52Z</time><pdop>11.0</pdop><geoidheight>51.00</geoidheight><course>6.7</course><type>1</type></trkpt>
      <trkpt lat="38.3819242" lon="-2.70783867"><ele>1720</ele><speed>15.56</speed><time>2016-06-02T11:56:54Z</time><pdop>11.0</pdop><geoidheight>51.00</geoidheight><course>16.0</course><type>1</type></trkpt>
      <trkpt lat="38.38218359" lon="-2.70772239"><ele>1719</ele><speed>15.28</speed><time>2016-06-02T11:56:56Z</time><pdop>11.0</pdop><geoidheight>51.00</geoidheight><course>17.7</course><type>1</type></trkpt>
      <trkpt lat="38.38242007" lon="-2.70746859"><ele>1715</ele><speed>16.31</speed><time>2016-06-02T11:56:58Z</time><pdop>11.0</pdop><geoidheight>51.00</geoidheight><course>28.0</course><type>1</type></trkpt>
      <trkpt lat="38.38273092" lon="-2.7073122"><ele>1705</ele><speed>17.75</speed><time>2016-06-02T11:57:00Z</time><pdop>10.0</pdop><geoidheight>51.00</geoidheight><course>26.2</course><type>1</type></trkpt>
      <trkpt lat="38.38299524" lon="-2.70712403"><ele>1697</ele><speed>17.75</speed><time>2016-06-02T11:57:02Z</time><pdop>11.0</pdop><geoidheight>51.00</geoidheight><course>28.2</course><type>1</type></trkpt>
      <trkpt lat="38.38327115" lon="-2.70693538"><ele>1693</ele><speed>17.68</speed><time>2016-06-02T11:57:04Z</time><pdop>11.0</pdop><geoidheight>51.00</geoidheight><course>28.7</course><type>1</type></trkpt>
      <trkpt lat="38.38348947" lon="-2.70676894"><ele>1680</ele><speed>17.14</speed><time>2016-06-02T11:57:06Z</time><pdop>10.0</pdop><geoidheight>51.00</geoidheight><course>32.7</course><type>1</type></trkpt>
      <trkpt lat="38.38375602" lon="-2.70655322"><ele>1671</ele><speed>18.46</speed><time>2016-06-02T11:57:08Z</time><pdop>10.0</pdop><geoidheight>51.00</geoidheight><course>33.2</course><type>1</type></trkpt>
      <trkpt lat="38.38401603" lon="-2.70632187"><ele>1664</ele><speed>17.78</speed><time>2016-06-02T11:57:10Z</time><pdop>9.0</pdop><geoidheight>51.00</geoidheight><course>35.6</course><type>1</type></trkpt>
      <trkpt lat="38.38425359" lon="-2.70608538"><ele>1657</ele><speed>16.58</speed><time>2016-06-02T11:57:12Z</time><pdop>9.0</pdop><geoidheight>51.00</geoidheight><course>39.0</course><type>1</type></trkpt>
      <trkpt lat="38.38447005" lon="-2.70582587"><ele>1650</ele><speed>16.81</speed><time>2016-06-02T11:57:14Z</time><pdop>10.0</pdop><geoidheight>51.00</geoidheight><course>42.6</course><type>1</type></trkpt>
      <trkpt lat="38.38467905" lon="-2.70558734"><ele>1640</ele><speed>16.50</speed><time>2016-06-02T11:57:16Z</time><pdop>9.0</pdop><geoidheight>51.00</geoidheight><course>40.6</course><type>1</type></trkpt>
      <trkpt lat="38.38491596" lon="-2.70538542"><ele>1634</ele><speed>17.13</speed><time>2016-06-02T11:57:18Z</time><pdop>9.0</pdop><geoidheight>51.00</geoidheight><course>33.9</course><type>1</type></trkpt>
      <trkpt lat="38.385158" lon="-2.70514842"><ele>1631</ele><speed>16.50</speed><time>2016-06-02T11:57:20Z</time><pdop>9.0</pdop><geoidheight>51.00</geoidheight><course>38.5</course><type>1</type></trkpt>
      <trkpt lat="38.38536366" lon="-2.70493589"><ele>1630</ele><speed>15.03</speed><time>2016-06-02T11:57:22Z</time><pdop>9.0</pdop><geoidheight>51.00</geoidheight><course>39.3</course><type>1</type></trkpt>
      <trkpt lat="38.3855779" lon="-2.70468938"><ele>1629</ele><speed>16.70</speed><time>2016-06-02T11:57:24Z</time><pdop>9.0</pdop><geoidheight>51.00</geoidheight><course>41.9</course><type>1</type></trkpt>
      <trkpt lat="38.38580339" lon="-2.70442915"><ele>1630</ele><speed>16.84</speed><time>2016-06-02T11:57:26Z</time><pdop>10.0</pdop><geoidheight>51.00</geoidheight><course>43.8</course><type>1</type></trkpt>
      <trkpt lat="38.38599109" lon="-2.70416716"><ele>1631</ele><speed>14.63</speed><time>2016-06-02T11:57:28Z</time><pdop>9.0</pdop><geoidheight>51.00</geoidheight><course>49.2</course><type>1</type></trkpt>
      <trkpt lat="38.38614413" lon="-2.70391795"><ele>1631</ele><speed>13.45</speed><time>2016-06-02T11:57:30Z</time><pdop>9.0</pdop><geoidheight>51.00</geoidheight><course>50.9</course><type>1</type></trkpt>
      <trkpt lat="38.38631308" lon="-2.70370198"><ele>1631</ele><speed>12.83</speed><time>2016-06-02T11:57:32Z</time><pdop>10.0</pdop><geoidheight>51.00</geoidheight><course>45.4</course><type>1</type></trkpt>
      <trkpt lat="38.38647519" lon="-2.70356618"><ele>1630</ele><speed>11.27</speed><time>2016-06-02T11:57:34Z</time><pdop>10.0</pdop><geoidheight>51.00</geoidheight><course>33.7</course><type>1</type></trkpt>
      <trkpt lat="38.38670762" lon="-2.70359161"><ele>1627</ele><speed>8.07</speed><time>2016-06-02T11:57:37Z</time><pdop>11.0</pdop><geoidheight>51.00</geoidheight><course>353.1</course><type>1</type></trkpt>
      <trkpt lat="38.38675173" lon="-2.70385012"><ele>1629</ele><speed>4.02</speed><time>2016-06-02T11:57:41Z</time><pdop>10.0</pdop><geoidheight>51.00</geoidheight><course>277.5</course><type>1</type></trkpt>
      <trkpt lat="38.38657023" lon="-2.70401672"><ele>1648</ele><speed>5.01</speed><time>2016-06-02T11:57:46Z</time><pdop>12.0</pdop><geoidheight>51.00</geoidheight><course>206.8</course><type>1</type></trkpt>
      <trkpt lat="38.38635564" lon="-2.70372679"><ele>1644</ele><speed>9.55</speed><time>2016-06-02T11:57:48Z</time><pdop>12.0</pdop><geoidheight>51.00</geoidheight><course>143.5</course><type>1</type></trkpt>
      <trkpt lat="38.38618909" lon="-2.70334207"><ele>1639</ele><speed>12.67</speed><time>2016-06-02T11:57:50Z</time><pdop>11.0</pdop><geoidheight>51.00</geoidheight><course>121.0</course><type>1</type></trkpt>
      <trkpt lat="38.38634535" lon="-2.70312126"><ele>1635</ele><speed>14.65</speed><time>2016-06-02T11:57:51Z</time><pdop>10.0</pdop><geoidheight>51.00</geoidheight><course>75.9</course><type>1</type></trkpt>
      <trkpt lat="38.38647575" lon="-2.70281989"><ele>1632</ele><speed>13.78</speed><time>2016-06-02T11:57:53Z</time><pdop>9.0</pdop><geoidheight>51.00</geoidheight><course>60.1</course><type>1</type></trkpt>
      <trkpt lat="38.38660576" lon="-2.70256659"><ele>1630</ele><speed>12.99</speed><time>2016-06-02T11:57:55Z</time><pdop>10.0</pdop><geoidheight>51.00</geoidheight><course>56.1</course><type>1</type></trkpt>
      <trkpt lat="38.38678086" lon="-2.70245385"><ele>1627</ele><speed>10.47</speed><time>2016-06-02T11:57:57Z</time><pdop>11.0</pdop><geoidheight>51.00</geoidheight><course>33.6</course><type>1</type></trkpt>
      <trkpt lat="38.38706397" lon="-2.70241826"><ele>1627</ele><speed>10.09</speed><time>2016-06-02T11:58:00Z</time><pdop>11.0</pdop><geoidheight>51.00</geoidheight><course>12.2</course><type>1</type></trkpt>
      <trkpt lat="38.38728016" lon="-2.70233151"><ele>1624</ele><speed>11.46</speed><time>2016-06-02T11:58:02Z</time><pdop>11.0</pdop><geoidheight>51.00</geoidheight><course>15.0</course><type>1</type></trkpt>
      <trkpt lat="38.38749501" lon="-2.7022585"><ele>1626</ele><speed>9.49</speed><time>2016-06-02T11:58:05Z</time><pdop>11.0</pdop><geoidheight>51.00</geoidheight><course>18.7</course><type>1</type></trkpt>
      <trkpt lat="38.38774453" lon="-2.70219853"><ele>1631</ele><speed>8.43</speed><time>2016-06-02T11:58:08Z</time><pdop>10.0</pdop><geoidheight>51.00</geoidheight><course>17.3</course><type>1</type></trkpt>
      <trkpt lat="38.38795438" lon="-2.70221157"><ele>1629</ele><speed>8.01</speed><time>2016-06-02T11:58:11Z</time><pdop>10.0</pdop><geoidheight>51.00</geoidheight><course>351.7</course><type>1</type></trkpt>
      <trkpt lat="38.38811763" lon="-2.70234405"><ele>1628</ele><speed>5.22</speed><time>2016-06-02T11:58:15Z</time><pdop>9.0</pdop><geoidheight>51.00</geoidheight><course>300.4</course><type>1</type></trkpt>
      <trkpt lat="38.38808428" lon="-2.70256122"><ele>1626</ele><speed>6.02</speed><time>2016-06-02T11:58:18Z</time><pdop>9.0</pdop><geoidheight>51.00</geoidheight><course>240.4</course><type>1</type></trkpt>
      <trkpt lat="38.38788649" lon="-2.70261306"><ele>1626</ele><speed>6.22</speed><time>2016-06-02T11:58:21Z</time><pdop>10.0</pdop><geoidheight>51.00</geoidheight><course>192.1</course><type>1</type></trkpt>
      <trkpt lat="38.38774836" lon="-2.70232156"><ele>1625</ele><speed>12.44</speed><time>2016-06-02T11:58:23Z</time><pdop>10.0</pdop><geoidheight>51.00</geoidheight><course>124.1</course><type>1</type></trkpt>
      <trkpt lat="38.38763569" lon="-2.70203177"><ele>1625</ele><speed>13.62</speed><time>2016-06-02T11:58:25Z</time><pdop>9.0</pdop><geoidheight>51.00</geoidheight><course>109.1</course><type>1</type></trkpt>
      <trkpt lat="38.38770939" lon="-2.70169057"><ele>1623</ele><speed>14.53</speed><time>2016-06-02T11:58:27Z</time><pdop>9.0</pdop><geoidheight>51.00</geoidheight><course>73.2</course><type>1</type></trkpt>
      <trkpt lat="38.38783867" lon="-2.70142889"><ele>1624</ele><speed>13.31</speed><time>2016-06-02T11:58:29Z</time><pdop>9.0</pdop><geoidheight>51.00</geoidheight><course>57.4</course><type>1</type></trkpt>
      <trkpt lat="38.38798245" lon="-2.70121341"><ele>1625</ele><speed>12.65</speed><time>2016-06-02T11:58:31Z</time><pdop>9.0</pdop><geoidheight>51.00</geoidheight><course>49.5</course><type>1</type></trkpt>
      <trkpt lat="38.38815033" lon="-2.70098713"><ele>1626</ele><speed>13.38</speed><time>2016-06-02T11:58:33Z</time><pdop>9.0</pdop><geoidheight>51.00</geoidheight><course>44.5</course><type>1</type></trkpt>
      <trkpt lat="38.38831019" lon="-2.70078165"><ele>1624</ele><speed>12.61</speed><time>2016-06-02T11:58:35Z</time><pdop>10.0</pdop><geoidheight>51.00</geoidheight><course>47.1</course><type>1</type></trkpt>
      <trkpt lat="38.38845899" lon="-2.70055633"><ele>1625</ele><speed>12.21</speed><time>2016-06-02T11:58:37Z</time><pdop>9.0</pdop><geoidheight>51.00</geoidheight><course>50.8</course><type>1</type></trkpt>
      <trkpt lat="38.3886187" lon="-2.70033397"><ele>1625</ele><speed>12.99</speed><time>2016-06-02T11:58:39Z</time><pdop>9.0</pdop><geoidheight>51.00</geoidheight><course>47.0</course><type>1</type></trkpt>
      <trkpt lat="38.38876297" lon="-2.70014494"><ele>1626</ele><speed>11.86</speed><time>2016-06-02T11:58:41Z</time><pdop>9.0</pdop><geoidheight>51.00</geoidheight><course>43.5</course><type>1</type></trkpt>
      <trkpt lat="38.38892067" lon="-2.69998586"><ele>1628</ele><speed>11.42</speed><time>2016-06-02T11:58:43Z</time><pdop>9.0</pdop><geoidheight>51.00</geoidheight><course>40.4</course><type>1</type></trkpt>
      <trkpt lat="38.38906757" lon="-2.69979142"><ele>1628</ele><speed>11.94</speed><time>2016-06-02T11:58:45Z</time><pdop>9.0</pdop><geoidheight>51.00</geoidheight><course>45.3</course><type>1</type></trkpt>
      <trkpt lat="38.38921939" lon="-2.69963116"><ele>1631</ele><speed>10.54</speed><time>2016-06-02T11:58:47Z</time><pdop>9.0</pdop><geoidheight>51.00</geoidheight><course>39.5</course><type>1</type></trkpt>
      <trkpt lat="38.3893782" lon="-2.69950612"><ele>1632</ele><speed>9.81</speed><time>2016-06-02T11:58:49Z</time><pdop>10.0</pdop><geoidheight>51.00</geoidheight><course>32.7</course><type>1</type></trkpt>
      <trkpt lat="38.38963567" lon="-2.69939895"><ele>1633</ele><speed>9.37</speed><time>2016-06-02T11:58:52Z</time><pdop>11.0</pdop><geoidheight>51.00</geoidheight><course>16.6</course><type>1</type></trkpt>
      <trkpt lat="38.38984393" lon="-2.69951479"><ele>1631</ele><speed>7.43</speed><time>2016-06-02T11:58:55Z</time><pdop>11.0</pdop><geoidheight>51.00</geoidheight><course>330.6</course><type>1</type></trkpt>
      <trkpt lat="38.3897229" lon="-2.69973685"><ele>1630</ele><speed>4.93</speed><time>2016-06-02T11:58:59Z</time><pdop>12.0</pdop><geoidheight>51.00</geoidheight><course>230.4</course><type>1</type></trkpt>
      <trkpt lat="38.38950142" lon="-2.69974487"><ele>1628</ele><speed>6.82</speed><time>2016-06-02T11:59:02Z</time><pdop>10.0</pdop><geoidheight>51.00</geoidheight><course>183.0</course><type>1</type></trkpt>
      <trkpt lat="38.38927729" lon="-2.69962234"><ele>1628</ele><speed>9.76</speed><time>2016-06-02T11:59:05Z</time><pdop>10.0</pdop><geoidheight>51.00</geoidheight><course>150.8</course><type>1</type></trkpt>
      <trkpt lat="38.38915198" lon="-2.6993601"><ele>1626</ele><speed>12.64</speed><time>2016-06-02T11:59:07Z</time><pdop>10.0</pdop><geoidheight>51.00</geoidheight><course>123.7</course><type>1</type></trkpt>
      <trkpt lat="38.38908395" lon="-2.69904673"><ele>1627</ele><speed>13.25</speed><time>2016-06-02T11:59:09Z</time><pdop>9.0</pdop><geoidheight>51.00</geoidheight><course>102.0</course><type>1</type></trkpt>
      <trkpt lat="38.38906355" lon="-2.69873078"><ele>1624</ele><speed>14.68</speed><time>2016-06-02T11:59:11Z</time><pdop>9.0</pdop><geoidheight>51.00</geoidheight><course>87.7</course><type>1</type></trkpt>
      <trkpt lat="38.38911894" lon="-2.69840545"><ele>1626</ele><speed>14.55</speed><time>2016-06-02T11:59:13Z</time><pdop>9.0</pdop><geoidheight>51.00</geoidheight><course>75.4</course><type>1</type></trkpt>
      <trkpt lat="38.38921928" lon="-2.69813325"><ele>1627</ele><speed>13.30</speed><time>2016-06-02T11:59:15Z</time><pdop>9.0</pdop><geoidheight>51.00</geoidheight><course>64.0</course><type>1</type></trkpt>
      <trkpt lat="38.38933113" lon="-2.69789725"><ele>1627</ele><speed>12.52</speed><time>2016-06-02T11:59:17Z</time><pdop>9.0</pdop><geoidheight>51.00</geoidheight><course>58.6</course><type>1</type></trkpt>
      <trkpt lat="38.38946098" lon="-2.69769654"><ele>1627</ele><speed>11.17</speed><time>2016-06-02T11:59:19Z</time><pdop>9.0</pdop><geoidheight>51.00</geoidheight><course>52.3</course><type>1</type></trkpt>
      <trkpt lat="38.38960107" lon="-2.69752328"><ele>1628</ele><speed>11.16</speed><time>2016-06-02T11:59:21Z</time><pdop>9.0</pdop><geoidheight>51.00</geoidheight><course>44.1</course><type>1</type></trkpt>
      <trkpt lat="38.38983043" lon="-2.69742706"><ele>1630</ele><speed>8.58</speed><time>2016-06-02T11:59:24Z</time><pdop>10.0</pdop><geoidheight>51.00</geoidheight><course>7.5</course><type>1</type></trkpt>
      <trkpt lat="38.38999355" lon="-2.69760181"><ele>1627</ele><speed>7.57</speed><time>2016-06-02T11:59:27Z</time><pdop>10.0</pdop><geoidheight>51.00</geoidheight><course>310.5</course><type>1</type></trkpt>
      <trkpt lat="38.38987994" lon="-2.69778663"><ele>1626</ele><speed>6.97</speed><time>2016-06-02T11:59:30Z</time><pdop>9.0</pdop><geoidheight>51.00</geoidheight><course>211.3</course><type>1</type></trkpt>
      <trkpt lat="38.38968158" lon="-2.69781612"><ele>1626</ele><speed>8.46</speed><time>2016-06-02T11:59:33Z</time><pdop>10.0</pdop><geoidheight>51.00</geoidheight><course>182.0</course><type>1</type></trkpt>
      <trkpt lat="38.38952149" lon="-2.69762361"><ele>1626</ele><speed>11.60</speed><time>2016-06-02T11:59:35Z</time><pdop>10.0</pdop><geoidheight>51.00</geoidheight><course>139.7</course><type>1</type></trkpt>
      <trkpt lat="38.38939033" lon="-2.69735732"><ele>1624</ele><speed>13.24</speed><time>2016-06-02T11:59:37Z</time><pdop>9.0</pdop><geoidheight>51.00</geoidheight><course>118.5</course><type>1</type></trkpt>
      <trkpt lat="38.38931827" lon="-2.69704625"><ele>1623</ele><speed>14.62</speed><time>2016-06-02T11:59:39Z</time><pdop>9.0</pdop><geoidheight>51.00</geoidheight><course>105.8</course><type>1</type></trkpt>
      <trkpt lat="38.38935554" lon="-2.69684291"><ele>1731</ele><speed>16.08</speed><time>2016-06-02T11:59:40Z</time><pdop>9.0</pdop><geoidheight>51.00</geoidheight><course>84.0</course><type>1</type></trkpt>
      <trkpt lat="38.38942905" lon="-2.69649765"><ele>1670</ele><speed>14.86</speed><time>2016-06-02T11:59:42Z</time><pdop>9.0</pdop><geoidheight>51.00</geoidheight><course>77.5</course><type>1</type></trkpt>
      <trkpt lat="38.38949006" lon="-2.6961683"><ele>1657</ele><speed>14.69</speed><time>2016-06-02T11:59:44Z</time><pdop>9.0</pdop><geoidheight>51.00</geoidheight><course>76.8</course><type>1</type></trkpt>
      <trkpt lat="38.38959103" lon="-2.69583533"><ele>1647</ele><speed>14.84</speed><time>2016-06-02T11:59:46Z</time><pdop>9.0</pdop><geoidheight>51.00</geoidheight><course>69.7</course><type>1</type></trkpt>
      <trkpt lat="38.38968646" lon="-2.69552412"><ele>1644</ele><speed>14.43</speed><time>2016-06-02T11:59:48Z</time><pdop>9.0</pdop><geoidheight>51.00</geoidheight><course>69.0</course><type>1</type></trkpt>
      <trkpt lat="38.38976531" lon="-2.69522913"><ele>1643</ele><speed>12.92</speed><time>2016-06-02T11:59:50Z</time><pdop>9.0</pdop><geoidheight>51.00</geoidheight><course>71.2</course><type>1</type></trkpt>
      <trkpt lat="38.38985924" lon="-2.69496812"><ele>1642</ele><speed>13.11</speed><time>2016-06-02T11:59:52Z</time><pdop>9.0</pdop><geoidheight>51.00</geoidheight><course>65.2</course><type>1</type></trkpt>
      <trkpt lat="38.39001044" lon="-2.69472974"><ele>1640</ele><speed>13.73</speed><time>2016-06-02T11:59:54Z</time><pdop>9.0</pdop><geoidheight>51.00</geoidheight><course>48.3</course><type>1</type></trkpt>
      <trkpt lat="38.39018158" lon="-2.69457732"><ele>1639</ele><speed>11.55</speed><time>2016-06-02T11:59:56Z</time><pdop>10.0</pdop><geoidheight>51.00</geoidheight><course>31.9</course><type>1</type></trkpt>
      <trkpt lat="38.39037118" lon="-2.69453612"><ele>1636</ele><speed>10.84</speed><time>2016-06-02T11:59:58Z</time><pdop>11.0</pdop><geoidheight>51.00</geoidheight><course>11.0</course><type>1</type></trkpt>
      <trkpt lat="38.39052154" lon="-2.69475832"><ele>1636</ele><speed>8.00</speed><time>2016-06-02T12:00:01Z</time><pdop>12.0</pdop><geoidheight>51.00</geoidheight><course>321.5</course><type>1</type></trkpt>
      <trkpt lat="38.39021319" lon="-2.69483122"><ele>1635</ele><speed>6.32</speed><time>2016-06-02T12:00:05Z</time><pdop>12.0</pdop><geoidheight>51.00</geoidheight><course>165.0</course><type>1</type></trkpt>
      <trkpt lat="38.3899865" lon="-2.69483936"><ele>1635</ele><speed>5.36</speed><time>2016-06-02T12:00:09Z</time><pdop>10.0</pdop><geoidheight>51.00</geoidheight><course>211.0</course><type>1</type></trkpt>
      <trkpt lat="38.39002797" lon="-2.69507193"><ele>1637</ele><speed>6.38</speed><time>2016-06-02T12:00:13Z</time><pdop>10.0</pdop><geoidheight>51.00</geoidheight><course>313.0</course><type>1</type></trkpt>
      <trkpt lat="38.39029431" lon="-2.6950305"><ele>1637</ele><speed>7.73</speed><time>2016-06-02T12:00:16Z</time><pdop>11.0</pdop><geoidheight>51.00</geoidheight><course>8.1</course><type>1</type></trkpt>
      <trkpt lat="38.39048663" lon="-2.69468927"><ele>1639</ele><speed>13.97</speed><time>2016-06-02T12:00:18Z</time><pdop>10.0</pdop><geoidheight>51.00</geoidheight><course>50.2</course><type>1</type></trkpt>
      <trkpt lat="38.39047526" lon="-2.6944513"><ele>1639</ele><speed>15.29</speed><time>2016-06-02T12:00:19Z</time><pdop>10.0</pdop><geoidheight>51.00</geoidheight><course>79.8</course><type>1</type></trkpt>
      <trkpt lat="38.39042054" lon="-2.69411119"><ele>1638</ele><speed>14.72</speed><time>2016-06-02T12:00:21Z</time><pdop>9.0</pdop><geoidheight>51.00</geoidheight><course>110.3</course><type>1</type></trkpt>
      <trkpt lat="38.39028885" lon="-2.69385187"><ele>1638</ele><speed>12.92</speed><time>2016-06-02T12:00:23Z</time><pdop>10.0</pdop><geoidheight>51.00</geoidheight><course>121.6</course><type>1</type></trkpt>
      <trkpt lat="38.39008419" lon="-2.69368877"><ele>1636</ele><speed>8.29</speed><time>2016-06-02T12:00:26Z</time><pdop>11.0</pdop><geoidheight>51.00</geoidheight><course>139.3</course><type>1</type></trkpt>
      <trkpt lat="38.39000042" lon="-2.69394479"><ele>1637</ele><speed>5.83</speed><time>2016-06-02T12:00:29Z</time><pdop>10.0</pdop><geoidheight>51.00</geoidheight><course>259.4</course><type>1</type></trkpt>
      <trkpt lat="38.39003572" lon="-2.69422582"><ele>1641</ele><speed>7.72</speed><time>2016-06-02T12:00:32Z</time><pdop>10.0</pdop><geoidheight>51.00</geoidheight><course>283.3</course><type>1</type></trkpt>
      <trkpt lat="38.39024444" lon="-2.69432606"><ele>1647</ele><speed>7.04</speed><time>2016-06-02T12:00:35Z</time><pdop>10.0</pdop><geoidheight>51.00</geoidheight><course>344.7</course><type>1</type></trkpt>
      <trkpt lat="38.39049218" lon="-2.69415904"><ele>1651</ele><speed>11.22</speed><time>2016-06-02T12:00:38Z</time><pdop>10.0</pdop><geoidheight>51.00</geoidheight><course>39.3</course><type>1</type></trkpt>
      <trkpt lat="38.39064625" lon="-2.69391707"><ele>1653</ele><speed>13.47</speed><time>2016-06-02T12:00:40Z</time><pdop>9.0</pdop><geoidheight>51.00</geoidheight><course>54.3</course><type>1</type></trkpt>
      <trkpt lat="38.39074501" lon="-2.69362347"><ele>1655</ele><speed>14.28</speed><time>2016-06-02T12:00:42Z</time><pdop>5.0</pdop><geoidheight>51.00</geoidheight><course>73.0</course><type>1</type></trkpt>
      <trkpt lat="38.39076831" lon="-2.69346978"><ele>1654</ele><speed>14.29</speed><time>2016-06-02T12:00:43Z</time><pdop>4.0</pdop><geoidheight>51.00</geoidheight><course>81.7</course><type>1</type></trkpt>
      <trkpt lat="38.39076898" lon="-2.69330455"><ele>1656</ele><speed>13.92</speed><time>2016-06-02T12:00:44Z</time><pdop>4.0</pdop><geoidheight>51.00</geoidheight><course>91.2</course><type>1</type></trkpt>
      <trkpt lat="38.39075507" lon="-2.69316455"><ele>1656</ele><speed>13.55</speed><time>2016-06-02T12:00:45Z</time><pdop>4.0</pdop><geoidheight>51.00</geoidheight><course>96.9</course><type>1</type></trkpt>
      <trkpt lat="38.39073258" lon="-2.69300913"><ele>1657</ele><speed>13.79</speed><time>2016-06-02T12:00:46Z</time><pdop>4.0</pdop><geoidheight>51.00</geoidheight><course>101.0</course><type>1</type></trkpt>
      <trkpt lat="38.39070529" lon="-2.69284775"><ele>1658</ele><speed>13.77</speed><time>2016-06-02T12:00:47Z</time><pdop>3.0</pdop><geoidheight>51.00</geoidheight><course>103.9</course><type>1</type></trkpt>
      <trkpt lat="38.39067312" lon="-2.69270336"><ele>1660</ele><speed>13.04</speed><time>2016-06-02T12:00:48Z</time><pdop>3.0</pdop><geoidheight>51.00</geoidheight><course>107.9</course><type>1</type></trkpt>
      <trkpt lat="38.39062193" lon="-2.69257916"><ele>1661</ele><speed>11.98</speed><time>2016-06-02T12:00:49Z</time><pdop>3.0</pdop><geoidheight>51.00</geoidheight><course>115.3</course><type>1</type></trkpt>
      <trkpt lat="38.3905601" lon="-2.69247466"><ele>1662</ele><speed>11.48</speed><time>2016-06-02T12:00:50Z</time><pdop>3.0</pdop><geoidheight>51.00</geoidheight><course>125.7</course><type>1</type></trkpt>
      <trkpt lat="38.3905046" lon="-2.69237154"><ele>1663</ele><speed>11.28</speed><time>2016-06-02T12:00:51Z</time><pdop>4.0</pdop><geoidheight>51.00</geoidheight><course>128.4</course><type>1</type></trkpt>
      <trkpt lat="38.39041976" lon="-2.69227768"><ele>1663</ele><speed>11.75</speed><time>2016-06-02T12:00:52Z</time><pdop>4.0</pdop><geoidheight>51.00</geoidheight><course>132.7</course><type>1</type></trkpt>
      <trkpt lat="38.39034114" lon="-2.69219619"><ele>1663</ele><speed>11.22</speed><time>2016-06-02T12:00:53Z</time><pdop>5.0</pdop><geoidheight>51.00</geoidheight><course>137.2</course><type>1</type></trkpt>
      <trkpt lat="38.39019365" lon="-2.69210974"><ele>1666</ele><speed>9.28</speed><time>2016-06-02T12:00:55Z</time><pdop>7.0</pdop><geoidheight>51.00</geoidheight><course>158.4</course><type>1</type></trkpt>
      <trkpt lat="38.39003167" lon="-2.69210404"><ele>1668</ele><speed>7.92</speed><time>2016-06-02T12:00:57Z</time><pdop>8.0</pdop><geoidheight>51.00</geoidheight><course>178.1</course><type>1</type></trkpt>
      <trkpt lat="38.39005477" lon="-2.69238939"><ele>1668</ele><speed>5.46</speed><time>2016-06-02T12:01:01Z</time><pdop>15.0</pdop><geoidheight>51.00</geoidheight><course>275.4</course><type>1</type></trkpt>
      <trkpt lat="38.39036916" lon="-2.69244835"><ele>1672</ele><speed>9.67</speed><time>2016-06-02T12:01:03Z</time><pdop>8.0</pdop><geoidheight>51.00</geoidheight><course>355.6</course><type>1</type></trkpt>
      <trkpt lat="38.39059093" lon="-2.69246773"><ele>1675</ele><speed>11.55</speed><time>2016-06-02T12:01:05Z</time><pdop>5.0</pdop><geoidheight>51.00</geoidheight><course>6.6</course><type>1</type></trkpt>
      <trkpt lat="38.39071395" lon="-2.6924494"><ele>1676</ele><speed>11.86</speed><time>2016-06-02T12:01:06Z</time><pdop>5.0</pdop><geoidheight>51.00</geoidheight><course>10.1</course><type>1</type></trkpt>
      <trkpt lat="38.39082149" lon="-2.69238738"><ele>1678</ele><speed>12.22</speed><time>2016-06-02T12:01:07Z</time><pdop>5.0</pdop><geoidheight>51.00</geoidheight><course>21.6</course><type>1</type></trkpt>
      <trkpt lat="38.3909321" lon="-2.69233862"><ele>1680</ele><speed>12.20</speed><time>2016-06-02T12:01:08Z</time><pdop>5.0</pdop><geoidheight>51.00</geoidheight><course>24.2</course><type>1</type></trkpt>
      <trkpt lat="38.39102346" lon="-2.69225415"><ele>1680</ele><speed>12.33</speed><time>2016-06-02T12:01:09Z</time><pdop>6.0</pdop><geoidheight>51.00</geoidheight><course>32.5</course><type>1</type></trkpt>
      <trkpt lat="38.39110886" lon="-2.69213097"><ele>1681</ele><speed>12.76</speed><time>2016-06-02T12:01:10Z</time><pdop>4.0</pdop><geoidheight>51.00</geoidheight><course>45.5</course><type>1</type></trkpt>
      <trkpt lat="38.39119438" lon="-2.6920014"><ele>1681</ele><speed>14.15</speed><time>2016-06-02T12:01:11Z</time><pdop>4.0</pdop><geoidheight>51.00</geoidheight><course>52.9</course><type>1</type></trkpt>
      <trkpt lat="38.39127656" lon="-2.69185096"><ele>1681</ele><speed>14.89</speed><time>2016-06-02T12:01:12Z</time><pdop>4.0</pdop><geoidheight>51.00</geoidheight><course>59.9</course><type>1</type></trkpt>
      <trkpt lat="38.39131582" lon="-2.69169524"><ele>1682</ele><speed>14.91</speed><time>2016-06-02T12:01:13Z</time><pdop>4.0</pdop><geoidheight>51.00</geoidheight><course>71.2</course><type>1</type></trkpt>
      <trkpt lat="38.39132553" lon="-2.69152913"><ele>1683</ele><speed>14.55</speed><time>2016-06-02T12:01:14Z</time><pdop>4.0</pdop><geoidheight>51.00</geoidheight><course>83.0</course><type>1</type></trkpt>
      <trkpt lat="38.39132306" lon="-2.69136435"><ele>1683</ele><speed>14.13</speed><time>2016-06-02T12:01:15Z</time><pdop>3.0</pdop><geoidheight>51.00</geoidheight><course>91.7</course><type>1</type></trkpt>
      <trkpt lat="38.3913036" lon="-2.69121277"><ele>1684</ele><speed>13.52</speed><time>2016-06-02T12:01:16Z</time><pdop>3.0</pdop><geoidheight>51.00</geoidheight><course>97.2</course><type>1</type></trkpt>
      <trkpt lat="38.39128045" lon="-2.69107737"><ele>1684</ele><speed>12.56</speed><time>2016-06-02T12:01:17Z</time><pdop>3.0</pdop><geoidheight>51.00</geoidheight><course>100.7</course><type>1</type></trkpt>
      <trkpt lat="38.39124829" lon="-2.69094488"><ele>1686</ele><speed>12.33</speed><time>2016-06-02T12:01:18Z</time><pdop>3.0</pdop><geoidheight>51.00</geoidheight><course>105.3</course><type>1</type></trkpt>
      <trkpt lat="38.39121226" lon="-2.69081884"><ele>1687</ele><speed>12.60</speed><time>2016-06-02T12:01:19Z</time><pdop>3.0</pdop><geoidheight>51.00</geoidheight><course>109.0</course><type>1</type></trkpt>
      <trkpt lat="38.39117054" lon="-2.69068284"><ele>1687</ele><speed>12.88</speed><time>2016-06-02T12:01:20Z</time><pdop>3.0</pdop><geoidheight>51.00</geoidheight><course>110.9</course><type>1</type></trkpt>
      <trkpt lat="38.39111556" lon="-2.69056773"><ele>1688</ele><speed>11.94</speed><time>2016-06-02T12:01:21Z</time><pdop>3.0</pdop><geoidheight>51.00</geoidheight><course>118.4</course><type>1</type></trkpt>
      <trkpt lat="38.39105634" lon="-2.69045635"><ele>1688</ele><speed>11.44</speed><time>2016-06-02T12:01:22Z</time><pdop>4.0</pdop><geoidheight>51.00</geoidheight><course>124.0</course><type>1</type></trkpt>
      <trkpt lat="38.39099335" lon="-2.69037538"><ele>1689</ele><speed>10.57</speed><time>2016-06-02T12:01:23Z</time><pdop>5.0</pdop><geoidheight>51.00</geoidheight><course>134.5</course><type>1</type></trkpt>
      <trkpt lat="38.39085651" lon="-2.69034522"><ele>1689</ele><speed>8.43</speed><time>2016-06-02T12:01:25Z</time><pdop>6.0</pdop><geoidheight>51.00</geoidheight><course>159.9</course><type>1</type></trkpt>
      <trkpt lat="38.39086721" lon="-2.69055777"><ele>1694</ele><speed>5.11</speed><time>2016-06-02T12:01:28Z</time><pdop>7.0</pdop><geoidheight>51.00</geoidheight><course>277.5</course><type>1</type></trkpt>
      <trkpt lat="38.39095837" lon="-2.69070816"><ele>1696</ele><speed>7.15</speed><time>2016-06-02T12:01:30Z</time><pdop>7.0</pdop><geoidheight>51.00</geoidheight><course>301.1</course><type>1</type></trkpt>
      <trkpt lat="38.39116109" lon="-2.69066129"><ele>1697</ele><speed>6.20</speed><time>2016-06-02T12:01:32Z</time><pdop>7.0</pdop><geoidheight>51.00</geoidheight><course>358.3</course><type>1</type></trkpt>
      <trkpt lat="38.39132767" lon="-2.69051391"><ele>1699</ele><speed>10.88</speed><time>2016-06-02T12:01:33Z</time><pdop>6.0</pdop><geoidheight>51.00</geoidheight><course>32.7</course><type>1</type></trkpt>
      <trkpt lat="38.39146025" lon="-2.69035973"><ele>1702</ele><speed>14.78</speed><time>2016-06-02T12:01:34Z</time><pdop>5.0</pdop><geoidheight>51.00</geoidheight><course>42.3</course><type>1</type></trkpt>
      <trkpt lat="38.39149247" lon="-2.69015298"><ele>1704</ele><speed>15.56</speed><time>2016-06-02T12:01:35Z</time><pdop>4.0</pdop><geoidheight>51.00</geoidheight><course>69.1</course><type>1</type></trkpt>
      <trkpt lat="38.39151191" lon="-2.68997537"><ele>1707</ele><speed>14.77</speed><time>2016-06-02T12:01:36Z</time><pdop>4.0</pdop><geoidheight>51.00</geoidheight><course>80.9</course><type>1</type></trkpt>
      <trkpt lat="38.39152166" lon="-2.68980876"><ele>1708</ele><speed>14.09</speed><time>2016-06-02T12:01:37Z</time><pdop>4.0</pdop><geoidheight>51.00</geoidheight><course>85.6</course><type>1</type></trkpt>
      <trkpt lat="38.39150141" lon="-2.68968662"><ele>1711</ele><speed>12.50</speed><time>2016-06-02T12:01:38Z</time><pdop>3.0</pdop><geoidheight>51.00</geoidheight><course>105.9</course><type>1</type></trkpt>
      <trkpt lat="38.39146278" lon="-2.68957474"><ele>1712</ele><speed>11.64</speed><time>2016-06-02T12:01:39Z</time><pdop>3.0</pdop><geoidheight>51.00</geoidheight><course>117.0</course><type>1</type></trkpt>
      <trkpt lat="38.39140454" lon="-2.6894834"><ele>1713</ele><speed>10.26</speed><time>2016-06-02T12:01:40Z</time><pdop>3.0</pdop><geoidheight>51.00</geoidheight><course>126.8</course><type>1</type></trkpt>
      <trkpt lat="38.3913483" lon="-2.68940642"><ele>1713</ele><speed>9.41</speed><time>2016-06-02T12:01:41Z</time><pdop>4.0</pdop><geoidheight>51.00</geoidheight><course>132.3</course><type>1</type></trkpt>
      <trkpt lat="38.39121714" lon="-2.68934351"><ele>1714</ele><speed>7.19</speed><time>2016-06-02T12:01:43Z</time><pdop>4.0</pdop><geoidheight>51.00</geoidheight><course>160.5</course><type>1</type></trkpt>
      <trkpt lat="38.39112393" lon="-2.68935989"><ele>1719</ele><speed>5.65</speed><time>2016-06-02T12:01:45Z</time><pdop>3.0</pdop><geoidheight>51.00</geoidheight><course>204.0</course><type>1</type></trkpt>
      <trkpt lat="38.39106696" lon="-2.68946492"><ele>1721</ele><speed>6.01</speed><time>2016-06-02T12:01:47Z</time><pdop>4.0</pdop><geoidheight>51.00</geoidheight><course>240.0</course><type>1</type></trkpt>
      <trkpt lat="38.39107774" lon="-2.68963053"><ele>1722</ele><speed>7.56</speed><time>2016-06-02T12:01:49Z</time><pdop>5.0</pdop><geoidheight>51.00</geoidheight><course>275.7</course><type>1</type></trkpt>
      <trkpt lat="38.39118999" lon="-2.68978799"><ele>1722</ele><speed>8.70</speed><time>2016-06-02T12:01:51Z</time><pdop>8.0</pdop><geoidheight>51.00</geoidheight><course>299.5</course><type>1</type></trkpt>
      <trkpt lat="38.39142395" lon="-2.68975407"><ele>1724</ele><speed>8.74</speed><time>2016-06-02T12:01:53Z</time><pdop>6.0</pdop><geoidheight>51.00</geoidheight><course>351.7</course><type>1</type></trkpt>
      <trkpt lat="38.39155494" lon="-2.68971428"><ele>1726</ele><speed>10.55</speed><time>2016-06-02T12:01:54Z</time><pdop>6.0</pdop><geoidheight>51.00</geoidheight><course>6.0</course><type>1</type></trkpt>
      <trkpt lat="38.39167445" lon="-2.68967883"><ele>1727</ele><speed>11.42</speed><time>2016-06-02T12:01:55Z</time><pdop>5.0</pdop><geoidheight>51.00</geoidheight><course>12.1</course><type>1</type></trkpt>
      <trkpt lat="38.39180368" lon="-2.68962789"><ele>1729</ele><speed>13.64</speed><time>2016-06-02T12:01:56Z</time><pdop>4.0</pdop><geoidheight>51.00</geoidheight><course>20.2</course><type>1</type></trkpt>
      <trkpt lat="38.39193323" lon="-2.68955786"><ele>1730</ele><speed>14.12</speed><time>2016-06-02T12:01:57Z</time><pdop>4.0</pdop><geoidheight>51.00</geoidheight><course>24.9</course><type>1</type></trkpt>
      <trkpt lat="38.39205647" lon="-2.68945929"><ele>1732</ele><speed>14.63</speed><time>2016-06-02T12:01:58Z</time><pdop>4.0</pdop><geoidheight>51.00</geoidheight><course>31.8</course><type>1</type></trkpt>
      <trkpt lat="38.39214565" lon="-2.68936024"><ele>1734</ele><speed>14.18</speed><time>2016-06-02T12:01:59Z</time><pdop>4.0</pdop><geoidheight>51.00</geoidheight><course>37.4</course><type>1</type></trkpt>
      <trkpt lat="38.39223868" lon="-2.68926453"><ele>1735</ele><speed>13.67</speed><time>2016-06-02T12:02:00Z</time><pdop>4.0</pdop><geoidheight>51.00</geoidheight><course>41.8</course><type>1</type></trkpt>
      <trkpt lat="38.39230129" lon="-2.68915786"><ele>1735</ele><speed>12.98</speed><time>2016-06-02T12:02:01Z</time><pdop>4.0</pdop><geoidheight>51.00</geoidheight><course>49.3</course><type>1</type></trkpt>
      <trkpt lat="38.39236664" lon="-2.68902476"><ele>1736</ele><speed>13.41</speed><time>2016-06-02T12:02:02Z</time><pdop>3.0</pdop><geoidheight>51.00</geoidheight><course>56.5</course><type>1</type></trkpt>
      <trkpt lat="38.39241124" lon="-2.68888236"><ele>1737</ele><speed>13.75</speed><time>2016-06-02T12:02:03Z</time><pdop>3.0</pdop><geoidheight>51.00</geoidheight><course>62.8</course><type>1</type></trkpt>
      <trkpt lat="38.39244545" lon="-2.68872401"><ele>1737</ele><speed>14.07</speed><time>2016-06-02T12:02:04Z</time><pdop>3.0</pdop><geoidheight>51.00</geoidheight><course>73.5</course><type>1</type></trkpt>
      <trkpt lat="38.39245032" lon="-2.68856605"><ele>1736</ele><speed>14.33</speed><time>2016-06-02T12:02:05Z</time><pdop>3.0</pdop><geoidheight>51.00</geoidheight><course>84.9</course><type>1</type></trkpt>
      <trkpt lat="38.39244834" lon="-2.68840212"><ele>1737</ele><speed>14.11</speed><time>2016-06-02T12:02:06Z</time><pdop>3.0</pdop><geoidheight>51.00</geoidheight><course>91.8</course><type>1</type></trkpt>
      <trkpt lat="38.39243512" lon="-2.68824732"><ele>1736</ele><speed>13.72</speed><time>2016-06-02T12:02:07Z</time><pdop>3.0</pdop><geoidheight>51.00</geoidheight><course>95.4</course><type>1</type></trkpt>
      <trkpt lat="38.39241383" lon="-2.68810457"><ele>1736</ele><speed>12.97</speed><time>2016-06-02T12:02:08Z</time><pdop>3.0</pdop><geoidheight>51.00</geoidheight><course>99.7</course><type>1</type></trkpt>
      <trkpt lat="38.39238495" lon="-2.68797195"><ele>1737</ele><speed>12.00</speed><time>2016-06-02T12:02:09Z</time><pdop>3.0</pdop><geoidheight>51.00</geoidheight><course>106.4</course><type>1</type></trkpt>
      <trkpt lat="38.39235203" lon="-2.68786093"><ele>1737</ele><speed>11.27</speed><time>2016-06-02T12:02:10Z</time><pdop>3.0</pdop><geoidheight>51.00</geoidheight><course>110.4</course><type>1</type></trkpt>
      <trkpt lat="38.39232369" lon="-2.68774368"><ele>1736</ele><speed>10.72</speed><time>2016-06-02T12:02:11Z</time><pdop>3.0</pdop><geoidheight>51.00</geoidheight><course>108.2</course><type>1</type></trkpt>
      <trkpt lat="38.39230608" lon="-2.68762041"><ele>1737</ele><speed>10.51</speed><time>2016-06-02T12:02:12Z</time><pdop>3.0</pdop><geoidheight>51.00</geoidheight><course>101.8</course><type>1</type></trkpt>
      <trkpt lat="38.39228948" lon="-2.68750132"><ele>1736</ele><speed>10.39</speed><time>2016-06-02T12:02:13Z</time><pdop>3.0</pdop><geoidheight>51.00</geoidheight><course>102.8</course><type>1</type></trkpt>
      <trkpt lat="38.39225587" lon="-2.68739758"><ele>1735</ele><speed>10.27</speed><time>2016-06-02T12:02:14Z</time><pdop>3.0</pdop><geoidheight>51.00</geoidheight><course>111.5</course><type>1</type></trkpt>
      <trkpt lat="38.39222304" lon="-2.68728864"><ele>1735</ele><speed>10.08</speed><time>2016-06-02T12:02:15Z</time><pdop>4.0</pdop><geoidheight>51.00</geoidheight><course>110.9</course><type>1</type></trkpt>
      <trkpt lat="38.392147" lon="-2.68722682"><ele>1734</ele><speed>9.37</speed><time>2016-06-02T12:02:16Z</time><pdop>3.0</pdop><geoidheight>51.00</geoidheight><course>131.7</course><type>1</type></trkpt>
      <trkpt lat="38.3920871" lon="-2.68715342"><ele>1734</ele><speed>9.24</speed><time>2016-06-02T12:02:17Z</time><pdop>4.0</pdop><geoidheight>51.00</geoidheight><course>132.8</course><type>1</type></trkpt>
      <trkpt lat="38.39201305" lon="-2.68708542"><ele>1733</ele><speed>9.44</speed><time>2016-06-02T12:02:18Z</time><pdop>4.0</pdop><geoidheight>51.00</geoidheight><course>139.2</course><type>1</type></trkpt>
      <trkpt lat="38.39193576" lon="-2.68704185"><ele>1733</ele><speed>9.35</speed><time>2016-06-02T12:02:19Z</time><pdop>3.0</pdop><geoidheight>51.00</geoidheight><course>146.3</course><type>1</type></trkpt>
      <trkpt lat="38.39186921" lon="-2.68698328"><ele>1735</ele><speed>8.87</speed><time>2016-06-02T12:02:20Z</time><pdop>3.0</pdop><geoidheight>51.00</geoidheight><course>149.8</course><type>1</type></trkpt>
      <trkpt lat="38.39180816" lon="-2.68694066"><ele>1736</ele><speed>8.15</speed><time>2016-06-02T12:02:21Z</time><pdop>3.0</pdop><geoidheight>51.00</geoidheight><course>152.9</course><type>1</type></trkpt>
      <trkpt lat="38.39173665" lon="-2.68690102"><ele>1736</ele><speed>7.78</speed><time>2016-06-02T12:02:22Z</time><pdop>4.0</pdop><geoidheight>51.00</geoidheight><course>157.8</course><type>1</type></trkpt>
      <trkpt lat="38.39163089" lon="-2.68691664"><ele>1736</ele><speed>6.13</speed><time>2016-06-02T12:02:24Z</time><pdop>5.0</pdop><geoidheight>51.00</geoidheight><course>181.0</course><type>1</type></trkpt>
      <trkpt lat="38.39155756" lon="-2.68708321"><ele>1737</ele><speed>5.35</speed><time>2016-06-02T12:02:27Z</time><pdop>5.0</pdop><geoidheight>51.00</geoidheight><course>251.7</course><type>1</type></trkpt>
      <trkpt lat="38.39155281" lon="-2.68722847"><ele>1737</ele><speed>5.73</speed><time>2016-06-02T12:02:29Z</time><pdop>5.0</pdop><geoidheight>51.00</geoidheight><course>274.7</course><type>1</type></trkpt>
      <trkpt lat="38.39162708" lon="-2.68737976"><ele>1736</ele><speed>8.29</speed><time>2016-06-02T12:02:31Z</time><pdop>6.0</pdop><geoidheight>51.00</geoidheight><course>304.6</course><type>1</type></trkpt>
      <trkpt lat="38.39173854" lon="-2.68753752"><ele>1736</ele><speed>8.75</speed><time>2016-06-02T12:02:33Z</time><pdop>8.0</pdop><geoidheight>51.00</geoidheight><course>310.6</course><type>1</type></trkpt>
      <trkpt lat="38.39194155" lon="-2.68753611"><ele>1738</ele><speed>8.81</speed><time>2016-06-02T12:02:35Z</time><pdop>9.0</pdop><geoidheight>51.00</geoidheight><course>350.8</course><type>1</type></trkpt>
      <trkpt lat="38.39215535" lon="-2.68749847"><ele>1740</ele><speed>9.59</speed><time>2016-06-02T12:02:37Z</time><pdop>7.0</pdop><geoidheight>51.00</geoidheight><course>15.3</course><type>1</type></trkpt>
      <trkpt lat="38.39228288" lon="-2.68742721"><ele>1738</ele><speed>11.44</speed><time>2016-06-02T12:02:38Z</time><pdop>6.0</pdop><geoidheight>51.00</geoidheight><course>24.8</course><type>1</type></trkpt>
      <trkpt lat="38.39238588" lon="-2.68735122"><ele>1739</ele><speed>12.82</speed><time>2016-06-02T12:02:39Z</time><pdop>5.0</pdop><geoidheight>51.00</geoidheight><course>27.3</course><type>1</type></trkpt>
      <trkpt lat="38.39250666" lon="-2.68726232"><ele>1739</ele><speed>13.68</speed><time>2016-06-02T12:02:40Z</time><pdop>6.0</pdop><geoidheight>51.00</geoidheight><course>32.5</course><type>1</type></trkpt>
      <trkpt lat="38.39262334" lon="-2.68713322"><ele>1741</ele><speed>14.39</speed><time>2016-06-02T12:02:41Z</time><pdop>4.0</pdop><geoidheight>51.00</geoidheight><course>44.7</course><type>1</type></trkpt>
      <trkpt lat="38.39272415" lon="-2.68701145"><ele>1741</ele><speed>14.23</speed><time>2016-06-02T12:02:42Z</time><pdop>4.0</pdop><geoidheight>51.00</geoidheight><course>47.0</course><type>1</type></trkpt>
      <trkpt lat="38.39275381" lon="-2.68685247"><ele>1742</ele><speed>13.86</speed><time>2016-06-02T12:02:43Z</time><pdop>4.0</pdop><geoidheight>51.00</geoidheight><course>70.7</course><type>1</type></trkpt>
      <trkpt lat="38.39277778" lon="-2.68669942"><ele>1741</ele><speed>13.73</speed><time>2016-06-02T12:02:44Z</time><pdop>4.0</pdop><geoidheight>51.00</geoidheight><course>79.5</course><type>1</type></trkpt>
      <trkpt lat="38.39278663" lon="-2.68654987"><ele>1743</ele><speed>12.83</speed><time>2016-06-02T12:02:45Z</time><pdop>3.0</pdop><geoidheight>51.00</geoidheight><course>85.3</course><type>1</type></trkpt>
      <trkpt lat="38.39278208" lon="-2.68641594"><ele>1743</ele><speed>11.46</speed><time>2016-06-02T12:02:46Z</time><pdop>3.0</pdop><geoidheight>51.00</geoidheight><course>92.7</course><type>1</type></trkpt>
      <trkpt lat="38.39276789" lon="-2.68629801"><ele>1744</ele><speed>10.39</speed><time>2016-06-02T12:02:47Z</time><pdop>3.0</pdop><geoidheight>51.00</geoidheight><course>100.1</course><type>1</type></trkpt>
      <trkpt lat="38.39273234" lon="-2.68622303"><ele>1743</ele><speed>9.09</speed><time>2016-06-02T12:02:48Z</time><pdop>3.0</pdop><geoidheight>51.00</geoidheight><course>114.8</course><type>1</type></trkpt>
      <trkpt lat="38.39269455" lon="-2.68613641"><ele>1742</ele><speed>9.22</speed><time>2016-06-02T12:02:49Z</time><pdop>3.0</pdop><geoidheight>51.00</geoidheight><course>121.3</course><type>1</type></trkpt>
      <trkpt lat="38.39264766" lon="-2.68604809"><ele>1741</ele><speed>9.35</speed><time>2016-06-02T12:02:50Z</time><pdop>3.0</pdop><geoidheight>51.00</geoidheight><course>125.6</course><type>1</type></trkpt>
      <trkpt lat="38.39258896" lon="-2.6859752"><ele>1741</ele><speed>9.07</speed><time>2016-06-02T12:02:51Z</time><pdop>4.0</pdop><geoidheight>51.00</geoidheight><course>133.6</course><type>1</type></trkpt>
      <trkpt lat="38.39251681" lon="-2.68592049"><ele>1742</ele><speed>9.04</speed><time>2016-06-02T12:02:52Z</time><pdop>4.0</pdop><geoidheight>51.00</geoidheight><course>148.2</course><type>1</type></trkpt>
      <trkpt lat="38.39245031" lon="-2.68587662"><ele>1743</ele><speed>8.65</speed><time>2016-06-02T12:02:53Z</time><pdop>3.0</pdop><geoidheight>51.00</geoidheight><course>150.5</course><type>1</type></trkpt>
      <trkpt lat="38.39239506" lon="-2.68581947"><ele>1745</ele><speed>8.04</speed><time>2016-06-02T12:02:54Z</time><pdop>3.0</pdop><geoidheight>51.00</geoidheight><course>143.9</course><type>1</type></trkpt>
      <trkpt lat="38.39234857" lon="-2.68576389"><ele>1745</ele><speed>6.66</speed><time>2016-06-02T12:02:55Z</time><pdop>3.0</pdop><geoidheight>51.00</geoidheight><course>142.5</course><type>1</type></trkpt>
      <trkpt lat="38.3922429" lon="-2.68575921"><ele>1744</ele><speed>5.21</speed><time>2016-06-02T12:02:57Z</time><pdop>3.0</pdop><geoidheight>51.00</geoidheight><course>185.3</course><type>1</type></trkpt>
      <trkpt lat="38.39215588" lon="-2.68581394"><ele>1743</ele><speed>5.72</speed><time>2016-06-02T12:02:59Z</time><pdop>4.0</pdop><geoidheight>51.00</geoidheight><course>208.6</course><type>1</type></trkpt>
      <trkpt lat="38.39211863" lon="-2.68601983"><ele>1745</ele><speed>6.74</speed><time>2016-06-02T12:03:02Z</time><pdop>10.0</pdop><geoidheight>51.00</geoidheight><course>260.7</course><type>1</type></trkpt>
      <trkpt lat="38.39222037" lon="-2.68634039"><ele>1744</ele><speed>10.18</speed><time>2016-06-02T12:03:05Z</time><pdop>10.0</pdop><geoidheight>51.00</geoidheight><course>294.2</course><type>1</type></trkpt>
      <trkpt lat="38.39239436" lon="-2.68656908"><ele>1746</ele><speed>8.96</speed><time>2016-06-02T12:03:08Z</time><pdop>10.0</pdop><geoidheight>51.00</geoidheight><course>318.5</course><type>1</type></trkpt>
      <trkpt lat="38.39261512" lon="-2.68673597"><ele>1744</ele><speed>10.22</speed><time>2016-06-02T12:03:11Z</time><pdop>9.0</pdop><geoidheight>51.00</geoidheight><course>329.4</course><type>1</type></trkpt>
      <trkpt lat="38.39281219" lon="-2.68682096"><ele>1744</ele><speed>11.49</speed><time>2016-06-02T12:03:13Z</time><pdop>9.0</pdop><geoidheight>51.00</geoidheight><course>344.9</course><type>1</type></trkpt>
      <trkpt lat="38.39302355" lon="-2.68683916"><ele>1743</ele><speed>11.86</speed><time>2016-06-02T12:03:15Z</time><pdop>10.0</pdop><geoidheight>51.00</geoidheight><course>359.0</course><type>1</type></trkpt>
      <trkpt lat="38.39323736" lon="-2.6867419"><ele>1742</ele><speed>12.66</speed><time>2016-06-02T12:03:17Z</time><pdop>10.0</pdop><geoidheight>51.00</geoidheight><course>17.4</course><type>1</type></trkpt>
      <trkpt lat="38.3934763" lon="-2.68657368"><ele>1741</ele><speed>13.91</speed><time>2016-06-02T12:03:19Z</time><pdop>10.0</pdop><geoidheight>51.00</geoidheight><course>28.7</course><type>1</type></trkpt>
      <trkpt lat="38.39367281" lon="-2.68633448"><ele>1739</ele><speed>14.50</speed><time>2016-06-02T12:03:21Z</time><pdop>10.0</pdop><geoidheight>51.00</geoidheight><course>43.2</course><type>1</type></trkpt>
      <trkpt lat="38.39373407" lon="-2.68601678"><ele>1739</ele><speed>14.65</speed><time>2016-06-02T12:03:23Z</time><pdop>9.0</pdop><geoidheight>51.00</geoidheight><course>69.2</course><type>1</type></trkpt>
      <trkpt lat="38.39377362" lon="-2.68571474"><ele>1738</ele><speed>13.11</speed><time>2016-06-02T12:03:25Z</time><pdop>9.0</pdop><geoidheight>51.00</geoidheight><course>85.3</course><type>1</type></trkpt>
      <trkpt lat="38.39373604" lon="-2.68546147"><ele>1739</ele><speed>11.07</speed><time>2016-06-02T12:03:27Z</time><pdop>9.0</pdop><geoidheight>51.00</geoidheight><course>101.7</course><type>1</type></trkpt>
      <trkpt lat="38.393699" lon="-2.68521615"><ele>1739</ele><speed>10.55</speed><time>2016-06-02T12:03:29Z</time><pdop>10.0</pdop><geoidheight>51.00</geoidheight><course>102.4</course><type>1</type></trkpt>
      <trkpt lat="38.39353952" lon="-2.68504337"><ele>1737</ele><speed>7.43</speed><time>2016-06-02T12:03:32Z</time><pdop>9.0</pdop><geoidheight>51.00</geoidheight><course>139.8</course><type>1</type></trkpt>
      <trkpt lat="38.39332866" lon="-2.6850707"><ele>1735</ele><speed>7.19</speed><time>2016-06-02T12:03:35Z</time><pdop>10.0</pdop><geoidheight>51.00</geoidheight><course>182.6</course><type>1</type></trkpt>
      <trkpt lat="38.39341582" lon="-2.68535637"><ele>1734</ele><speed>8.39</speed><time>2016-06-02T12:03:38Z</time><pdop>10.0</pdop><geoidheight>51.00</geoidheight><course>298.1</course><type>1</type></trkpt>
      <trkpt lat="38.393607" lon="-2.68554608"><ele>1733</ele><speed>9.06</speed><time>2016-06-02T12:03:41Z</time><pdop>10.0</pdop><geoidheight>51.00</geoidheight><course>333.5</course><type>1</type></trkpt>
      <trkpt lat="38.39376888" lon="-2.68565253"><ele>1731</ele><speed>10.50</speed><time>2016-06-02T12:03:43Z</time><pdop>10.0</pdop><geoidheight>51.00</geoidheight><course>337.2</course><type>1</type></trkpt>
      <trkpt lat="38.39394637" lon="-2.68576361"><ele>1729</ele><speed>11.26</speed><time>2016-06-02T12:03:45Z</time><pdop>10.0</pdop><geoidheight>51.00</geoidheight><course>338.7</course><type>1</type></trkpt>
      <trkpt lat="38.3942335" lon="-2.68580725"><ele>1726</ele><speed>11.60</speed><time>2016-06-02T12:03:48Z</time><pdop>11.0</pdop><geoidheight>51.00</geoidheight><course>352.9</course><type>1</type></trkpt>
      <trkpt lat="38.39450191" lon="-2.68580847"><ele>1725</ele><speed>12.78</speed><time>2016-06-02T12:03:50Z</time><pdop>12.0</pdop><geoidheight>51.00</geoidheight><course>357.5</course><type>1</type></trkpt>
      <trkpt lat="38.39470936" lon="-2.68581928"><ele>1688</ele><speed>12.15</speed><time>2016-06-02T12:03:52Z</time><pdop>10.0</pdop><geoidheight>51.00</geoidheight><course>355.5</course><type>1</type></trkpt>
      <trkpt lat="38.39492744" lon="-2.68586517"><ele>1696</ele><speed>13.01</speed><time>2016-06-02T12:03:54Z</time><pdop>10.0</pdop><geoidheight>51.00</geoidheight><course>348.7</course><type>1</type></trkpt>
      <trkpt lat="38.39513612" lon="-2.68592826"><ele>1701</ele><speed>12.84</speed><time>2016-06-02T12:03:56Z</time><pdop>11.0</pdop><geoidheight>51.00</geoidheight><course>351.3</course><type>1</type></trkpt>
      <trkpt lat="38.39536855" lon="-2.68591366"><ele>1706</ele><speed>12.71</speed><time>2016-06-02T12:03:58Z</time><pdop>11.0</pdop><geoidheight>51.00</geoidheight><course>357.8</course><type>1</type></trkpt>
      <trkpt lat="38.39563298" lon="-2.68596396"><ele>1707</ele><speed>14.30</speed><time>2016-06-02T12:04:00Z</time><pdop>11.0</pdop><geoidheight>51.00</geoidheight><course>349.2</course><type>1</type></trkpt>
      <trkpt lat="38.39589535" lon="-2.68598622"><ele>1703</ele><speed>12.17</speed><time>2016-06-02T12:04:03Z</time><pdop>11.0</pdop><geoidheight>51.00</geoidheight><course>355.9</course><type>1</type></trkpt>
      <trkpt lat="38.39611237" lon="-2.68595656"><ele>1700</ele><speed>11.90</speed><time>2016-06-02T12:04:05Z</time><pdop>11.0</pdop><geoidheight>51.00</geoidheight><course>0.3</course><type>1</type></trkpt>
      <trkpt lat="38.39633574" lon="-2.68592335"><ele>1698</ele><speed>12.57</speed><time>2016-06-02T12:04:07Z</time><pdop>10.0</pdop><geoidheight>51.00</geoidheight><course>6.5</course><type>1</type></trkpt>
      <trkpt lat="38.39665109" lon="-2.68587537"><ele>1693</ele><speed>16.13</speed><time>2016-06-02T12:04:09Z</time><pdop>10.0</pdop><geoidheight>51.00</geoidheight><course>5.6</course><type>1</type></trkpt>
      <trkpt lat="38.39690901" lon="-2.68582338"><ele>1688</ele><speed>16.20</speed><time>2016-06-02T12:04:11Z</time><pdop>10.0</pdop><geoidheight>51.00</geoidheight><course>9.3</course><type>1</type></trkpt>
      <trkpt lat="38.39719687" lon="-2.68575209"><ele>1685</ele><speed>16.63</speed><time>2016-06-02T12:04:13Z</time><pdop>11.0</pdop><geoidheight>51.00</geoidheight><course>11.0</course><type>1</type></trkpt>
      <trkpt lat="38.3975172" lon="-2.68570279"><ele>1683</ele><speed>17.56</speed><time>2016-06-02T12:04:15Z</time><pdop>12.0</pdop><geoidheight>51.00</geoidheight><course>8.5</course><type>1</type></trkpt>
      <trkpt lat="38.39779588" lon="-2.68555004"><ele>1680</ele><speed>17.25</speed><time>2016-06-02T12:04:17Z</time><pdop>13.0</pdop><geoidheight>51.00</geoidheight><course>15.1</course><type>1</type></trkpt>
      <trkpt lat="38.39817106" lon="-2.68550763"><ele>1677</ele><speed>18.59</speed><time>2016-06-02T12:04:19Z</time><pdop>12.0</pdop><geoidheight>51.00</geoidheight><course>9.2</course><type>1</type></trkpt>
      <trkpt lat="38.398485" lon="-2.68542529"><ele>1671</ele><speed>18.68</speed><time>2016-06-02T12:04:21Z</time><pdop>12.0</pdop><geoidheight>51.00</geoidheight><course>8.7</course><type>1</type></trkpt>
      <trkpt lat="38.39873939" lon="-2.68521196"><ele>1663</ele><speed>14.89</speed><time>2016-06-02T12:04:24Z</time><pdop>10.0</pdop><geoidheight>51.00</geoidheight><course>21.9</course><type>1</type></trkpt>
      <trkpt lat="38.39894734" lon="-2.68511298"><ele>1663</ele><speed>11.97</speed><time>2016-06-02T12:04:26Z</time><pdop>10.0</pdop><geoidheight>51.00</geoidheight><course>25.8</course><type>1</type></trkpt>
      <trkpt lat="38.39911755" lon="-2.68496403"><ele>1661</ele><speed>11.95</speed><time>2016-06-02T12:04:28Z</time><pdop>10.0</pdop><geoidheight>51.00</geoidheight><course>32.9</course><type>1</type></trkpt>
      <trkpt lat="38.39930382" lon="-2.68480428"><ele>1658</ele><speed>12.59</speed><time>2016-06-02T12:04:30Z</time><pdop>10.0</pdop><geoidheight>51.00</geoidheight><course>34.2</course><type>1</type></trkpt>
      <trkpt lat="38.3994913" lon="-2.68468411"><ele>1653</ele><speed>11.91</speed><time>2016-06-02T12:04:32Z</time><pdop>11.0</pdop><geoidheight>51.00</geoidheight><course>25.0</course><type>1</type></trkpt>
      <trkpt lat="38.39969548" lon="-2.68468852"><ele>1652</ele><speed>10.59</speed><time>2016-06-02T12:04:34Z</time><pdop>11.0</pdop><geoidheight>51.00</geoidheight><course>0.3</course><type>1</type></trkpt>
      <trkpt lat="38.3999109" lon="-2.68480342"><ele>1646</ele><speed>7.69</speed><time>2016-06-02T12:04:38Z</time><pdop>10.0</pdop><geoidheight>51.00</geoidheight><course>336.9</course><type>1</type></trkpt>
      <trkpt lat="38.40014331" lon="-2.68486115"><ele>1645</ele><speed>8.65</speed><time>2016-06-02T12:04:41Z</time><pdop>10.0</pdop><geoidheight>51.00</geoidheight><course>348.4</course><type>1</type></trkpt>
      <trkpt lat="38.40036455" lon="-2.68484966"><ele>1643</ele><speed>8.28</speed><time>2016-06-02T12:04:44Z</time><pdop>11.0</pdop><geoidheight>51.00</geoidheight><course>357.7</course><type>1</type></trkpt>
      <trkpt lat="38.40056595" lon="-2.68477403"><ele>1642</ele><speed>9.81</speed><time>2016-06-02T12:04:46Z</time><pdop>11.0</pdop><geoidheight>51.00</geoidheight><course>9.4</course><type>1</type></trkpt>
      <trkpt lat="38.40084976" lon="-2.68467603"><ele>1639</ele><speed>13.18</speed><time>2016-06-02T12:04:48Z</time><pdop>10.0</pdop><geoidheight>51.00</geoidheight><course>15.0</course><type>1</type></trkpt>
      <trkpt lat="38.40106349" lon="-2.68458878"><ele>1639</ele><speed>12.96</speed><time>2016-06-02T12:04:50Z</time><pdop>10.0</pdop><geoidheight>51.00</geoidheight><course>17.5</course><type>1</type></trkpt>
      <trkpt lat="38.40124776" lon="-2.68449477"><ele>1638</ele><speed>11.65</speed><time>2016-06-02T12:04:52Z</time><pdop>10.0</pdop><geoidheight>51.00</geoidheight><course>21.0</course><type>1</type></trkpt>
      <trkpt lat="38.40147789" lon="-2.68436442"><ele>1637</ele><speed>10.60</speed><time>2016-06-02T12:04:55Z</time><pdop>11.0</pdop><geoidheight>51.00</geoidheight><course>22.7</course><type>1</type></trkpt>
      <trkpt lat="38.40173475" lon="-2.68421427"><ele>1636</ele><speed>12.76</speed><time>2016-06-02T12:04:57Z</time><pdop>11.0</pdop><geoidheight>51.00</geoidheight><course>21.8</course><type>1</type></trkpt>
      <trkpt lat="38.40197049" lon="-2.6842746"><ele>1633</ele><speed>11.04</speed><time>2016-06-02T12:05:00Z</time><pdop>10.0</pdop><geoidheight>51.00</geoidheight><course>6.0</course><type>1</type></trkpt>
      <trkpt lat="38.40221427" lon="-2.68415008"><ele>1632</ele><speed>10.48</speed><time>2016-06-02T12:05:03Z</time><pdop>9.0</pdop><geoidheight>51.00</geoidheight><course>26.4</course><type>1</type></trkpt>
      <trkpt lat="38.40239129" lon="-2.68402099"><ele>1631</ele><speed>11.20</speed><time>2016-06-02T12:05:05Z</time><pdop>10.0</pdop><geoidheight>51.00</geoidheight><course>28.9</course><type>1</type></trkpt>
      <trkpt lat="38.40262111" lon="-2.68390533"><ele>1631</ele><speed>12.83</speed><time>2016-06-02T12:05:07Z</time><pdop>12.0</pdop><geoidheight>51.00</geoidheight><course>24.7</course><type>1</type></trkpt>
      <trkpt lat="38.40281542" lon="-2.68377656"><ele>1866</ele><speed>13.66</speed><time>2016-06-02T12:05:09Z</time><pdop>11.0</pdop><geoidheight>51.00</geoidheight><course>25.8</course><type>1</type></trkpt>
      <trkpt lat="38.40302472" lon="-2.68366011"><ele>1765</ele><speed>12.99</speed><time>2016-06-02T12:05:11Z</time><pdop>10.0</pdop><geoidheight>51.00</geoidheight><course>25.2</course><type>1</type></trkpt>
      <trkpt lat="38.40319737" lon="-2.68355517"><ele>1699</ele><speed>11.54</speed><time>2016-06-02T12:05:13Z</time><pdop>10.0</pdop><geoidheight>51.00</geoidheight><course>26.7</course><type>1</type></trkpt>
      <trkpt lat="38.4033956" lon="-2.68346711"><ele>1672</ele><speed>12.13</speed><time>2016-06-02T12:05:15Z</time><pdop>10.0</pdop><geoidheight>51.00</geoidheight><course>25.6</course><type>1</type></trkpt>
      <trkpt lat="38.40363018" lon="-2.68332885"><ele>1654</ele><speed>13.08</speed><time>2016-06-02T12:05:17Z</time><pdop>11.0</pdop><geoidheight>51.00</geoidheight><course>24.2</course><type>1</type></trkpt>
      <trkpt lat="38.40387589" lon="-2.68325216"><ele>1647</ele><speed>13.61</speed><time>2016-06-02T12:05:19Z</time><pdop>10.0</pdop><geoidheight>51.00</geoidheight><course>17.7</course><type>1</type></trkpt>
      <trkpt lat="38.4041025" lon="-2.68317493"><ele>1637</ele><speed>12.38</speed><time>2016-06-02T12:05:21Z</time><pdop>9.0</pdop><geoidheight>51.00</geoidheight><course>12.4</course><type>1</type></trkpt>
      <trkpt lat="38.40431686" lon="-2.6831025"><ele>1630</ele><speed>12.99</speed><time>2016-06-02T12:05:23Z</time><pdop>9.0</pdop><geoidheight>51.00</geoidheight><course>13.8</course><type>1</type></trkpt>
      <trkpt lat="38.40452546" lon="-2.68303142"><ele>1626</ele><speed>12.90</speed><time>2016-06-02T12:05:25Z</time><pdop>9.0</pdop><geoidheight>51.00</geoidheight><course>13.4</course><type>1</type></trkpt>
      <trkpt lat="38.40472668" lon="-2.68295239"><ele>1625</ele><speed>11.88</speed><time>2016-06-02T12:05:27Z</time><pdop>10.0</pdop><geoidheight>51.00</geoidheight><course>14.9</course><type>1</type></trkpt>
      <trkpt lat="38.40495719" lon="-2.68289135"><ele>1621</ele><speed>12.27</speed><time>2016-06-02T12:05:29Z</time><pdop>11.0</pdop><geoidheight>51.00</geoidheight><course>13.4</course><type>1</type></trkpt>
      <trkpt lat="38.40521383" lon="-2.68281531"><ele>1618</ele><speed>13.69</speed><time>2016-06-02T12:05:31Z</time><pdop>12.0</pdop><geoidheight>51.00</geoidheight><course>13.3</course><type>1</type></trkpt>
      <trkpt lat="38.40548946" lon="-2.68275475"><ele>1614</ele><speed>14.45</speed><time>2016-06-02T12:05:33Z</time><pdop>11.0</pdop><geoidheight>51.00</geoidheight><course>9.1</course><type>1</type></trkpt>
      <trkpt lat="38.4057723" lon="-2.68267703"><ele>1614</ele><speed>14.62</speed><time>2016-06-02T12:05:35Z</time><pdop>12.0</pdop><geoidheight>51.00</geoidheight><course>10.9</course><type>1</type></trkpt>
      <trkpt lat="38.4060128" lon="-2.68260128"><ele>1608</ele><speed>16.17</speed><time>2016-06-02T12:05:37Z</time><pdop>11.0</pdop><geoidheight>51.00</geoidheight><course>13.2</course><type>1</type></trkpt>
      <trkpt lat="38.40628797" lon="-2.68255228"><ele>1605</ele><speed>15.65</speed><time>2016-06-02T12:05:39Z</time><pdop>12.0</pdop><geoidheight>51.00</geoidheight><course>9.6</course><type>1</type></trkpt>
      <trkpt lat="38.4065452" lon="-2.68247082"><ele>1599</ele><speed>15.30</speed><time>2016-06-02T12:05:41Z</time><pdop>13.0</pdop><geoidheight>51.00</geoidheight><course>12.2</course><type>1</type></trkpt>
      <trkpt lat="38.40679881" lon="-2.68239627"><ele>1596</ele><speed>15.37</speed><time>2016-06-02T12:05:43Z</time><pdop>14.0</pdop><geoidheight>51.00</geoidheight><course>11.7</course><type>1</type></trkpt>
      <trkpt lat="38.40707859" lon="-2.68233959"><ele>1590</ele><speed>15.85</speed><time>2016-06-02T12:05:45Z</time><pdop>14.0</pdop><geoidheight>51.00</geoidheight><course>10.1</course><type>1</type></trkpt>
      <trkpt lat="38.4074914" lon="-2.68228784"><ele>1588</ele><speed>19.04</speed><time>2016-06-02T12:05:47Z</time><pdop>16.0</pdop><geoidheight>51.00</geoidheight><course>7.4</course><type>1</type></trkpt>
      <trkpt lat="38.40777405" lon="-2.6822708"><ele>1583</ele><speed>17.77</speed><time>2016-06-02T12:05:49Z</time><pdop>13.0</pdop><geoidheight>51.00</geoidheight><course>5.1</course><type>1</type></trkpt>
      <trkpt lat="38.40807756" lon="-2.68225537"><ele>1570</ele><speed>16.39</speed><time>2016-06-02T12:05:51Z</time><pdop>12.0</pdop><geoidheight>51.00</geoidheight><course>4.3</course><type>1</type></trkpt>
      <trkpt lat="38.40832" lon="-2.68224186"><ele>1555</ele><speed>15.50</speed><time>2016-06-02T12:05:53Z</time><pdop>12.0</pdop><geoidheight>51.00</geoidheight><course>2.9</course><type>1</type></trkpt>
      <trkpt lat="38.40859342" lon="-2.68223054"><ele>1546</ele><speed>16.13</speed><time>2016-06-02T12:05:55Z</time><pdop>12.0</pdop><geoidheight>51.00</geoidheight><course>1.7</course><type>1</type></trkpt>
      <trkpt lat="38.40888355" lon="-2.68224467"><ele>1542</ele><speed>16.44</speed><time>2016-06-02T12:05:57Z</time><pdop>12.0</pdop><geoidheight>51.00</geoidheight><course>358.4</course><type>1</type></trkpt>
      <trkpt lat="38.40915234" lon="-2.68222119"><ele>1533</ele><speed>16.01</speed><time>2016-06-02T12:05:59Z</time><pdop>13.0</pdop><geoidheight>51.00</geoidheight><course>2.9</course><type>1</type></trkpt>
      <trkpt lat="38.40946697" lon="-2.68219463"><ele>1526</ele><speed>17.21</speed><time>2016-06-02T12:06:01Z</time><pdop>12.0</pdop><geoidheight>51.00</geoidheight><course>2.0</course><type>1</type></trkpt>
      <trkpt lat="38.40971534" lon="-2.68215669"><ele>1520</ele><speed>16.20</speed><time>2016-06-02T12:06:03Z</time><pdop>13.0</pdop><geoidheight>51.00</geoidheight><course>4.8</course><type>1</type></trkpt>
      <trkpt lat="38.40997861" lon="-2.68213985"><ele>1510</ele><speed>15.47</speed><time>2016-06-02T12:06:05Z</time><pdop>12.0</pdop><geoidheight>51.00</geoidheight><course>2.2</course><type>1</type></trkpt>
      <trkpt lat="38.41023924" lon="-2.6821278"><ele>1507</ele><speed>14.96</speed><time>2016-06-02T12:06:07Z</time><pdop>13.0</pdop><geoidheight>51.00</geoidheight><course>2.2</course><type>1</type></trkpt>
      <trkpt lat="38.4105472" lon="-2.68210638"><ele>1505</ele><speed>16.09</speed><time>2016-06-02T12:06:09Z</time><pdop>17.0</pdop><geoidheight>51.00</geoidheight><course>2.7</course><type>1</type></trkpt>
      <trkpt lat="38.41090741" lon="-2.68203679"><ele>1498</ele><speed>15.20</speed><time>2016-06-02T12:06:12Z</time><pdop>14.0</pdop><geoidheight>51.00</geoidheight><course>9.7</course><type>1</type></trkpt>
      <trkpt lat="38.4111428" lon="-2.68190266"><ele>1490</ele><speed>15.32</speed><time>2016-06-02T12:06:14Z</time><pdop>13.0</pdop><geoidheight>51.00</geoidheight><course>14.9</course><type>1</type></trkpt>
      <trkpt lat="38.41148496" lon="-2.68178725"><ele>1479</ele><speed>14.17</speed><time>2016-06-02T12:06:17Z</time><pdop>15.0</pdop><geoidheight>51.00</geoidheight><course>11.4</course><type>1</type></trkpt>
      <trkpt lat="38.41187865" lon="-2.68169762"><ele>1472</ele><speed>18.27</speed><time>2016-06-02T12:06:19Z</time><pdop>16.0</pdop><geoidheight>51.00</geoidheight><course>10.3</course><type>1</type></trkpt>
      <trkpt lat="38.41216083" lon="-2.68165918"><ele>1466</ele><speed>17.32</speed><time>2016-06-02T12:06:21Z</time><pdop>13.0</pdop><geoidheight>51.00</geoidheight><course>6.2</course><type>1</type></trkpt>
      <trkpt lat="38.4124102" lon="-2.68156908"><ele>1462</ele><speed>15.37</speed><time>2016-06-02T12:06:23Z</time><pdop>12.0</pdop><geoidheight>51.00</geoidheight><course>13.8</course><type>1</type></trkpt>
      <trkpt lat="38.41263574" lon="-2.68147102"><ele>1457</ele><speed>13.82</speed><time>2016-06-02T12:06:25Z</time><pdop>12.0</pdop><geoidheight>51.00</geoidheight><course>15.1</course><type>1</type></trkpt>
      <trkpt lat="38.4128604" lon="-2.68137661"><ele>1448</ele><speed>13.34</speed><time>2016-06-02T12:06:27Z</time><pdop>11.0</pdop><geoidheight>51.00</geoidheight><course>19.4</course><type>1</type></trkpt>
      <trkpt lat="38.41305101" lon="-2.68125411"><ele>1445</ele><speed>12.90</speed><time>2016-06-02T12:06:29Z</time><pdop>11.0</pdop><geoidheight>51.00</geoidheight><course>23.3</course><type>1</type></trkpt>
      <trkpt lat="38.41324625" lon="-2.68116416"><ele>1439</ele><speed>12.97</speed><time>2016-06-02T12:06:31Z</time><pdop>11.0</pdop><geoidheight>51.00</geoidheight><course>17.8</course><type>1</type></trkpt>
      <trkpt lat="38.41347482" lon="-2.68108801"><ele>1436</ele><speed>13.83</speed><time>2016-06-02T12:06:33Z</time><pdop>12.0</pdop><geoidheight>51.00</geoidheight><course>13.3</course><type>1</type></trkpt>
      <trkpt lat="38.41373337" lon="-2.68110003"><ele>1432</ele><speed>13.84</speed><time>2016-06-02T12:06:35Z</time><pdop>12.0</pdop><geoidheight>51.00</geoidheight><course>1.9</course><type>1</type></trkpt>
      <trkpt lat="38.41404292" lon="-2.68104696"><ele>1429</ele><speed>11.40</speed><time>2016-06-02T12:06:38Z</time><pdop>11.0</pdop><geoidheight>51.00</geoidheight><course>9.5</course><type>1</type></trkpt>
      <trkpt lat="38.41426267" lon="-2.68100175"><ele>1427</ele><speed>12.90</speed><time>2016-06-02T12:06:40Z</time><pdop>12.0</pdop><geoidheight>51.00</geoidheight><course>9.4</course><type>1</type></trkpt>
      <trkpt lat="38.41448652" lon="-2.68099195"><ele>1427</ele><speed>12.88</speed><time>2016-06-02T12:06:42Z</time><pdop>12.0</pdop><geoidheight>51.00</geoidheight><course>8.7</course><type>1</type></trkpt>
      <trkpt lat="38.41477919" lon="-2.68091785"><ele>1424</ele><speed>11.97</speed><time>2016-06-02T12:06:45Z</time><pdop>12.0</pdop><geoidheight>51.00</geoidheight><course>14.4</course><type>1</type></trkpt>
      <trkpt lat="38.41498551" lon="-2.68075404"><ele>1421</ele><speed>12.80</speed><time>2016-06-02T12:06:47Z</time><pdop>13.0</pdop><geoidheight>51.00</geoidheight><course>21.3</course><type>1</type></trkpt>
      <trkpt lat="38.41531917" lon="-2.68067303"><ele>1416</ele><speed>13.38</speed><time>2016-06-02T12:06:50Z</time><pdop>12.0</pdop><geoidheight>51.00</geoidheight><course>9.3</course><type>1</type></trkpt>
      <trkpt lat="38.41561734" lon="-2.68067694"><ele>1408</ele><speed>12.23</speed><time>2016-06-02T12:06:53Z</time><pdop>11.0</pdop><geoidheight>51.00</geoidheight><course>355.3</course><type>1</type></trkpt>
      <trkpt lat="38.4158186" lon="-2.68073726"><ele>1406</ele><speed>12.17</speed><time>2016-06-02T12:06:55Z</time><pdop>11.0</pdop><geoidheight>51.00</geoidheight><course>352.5</course><type>1</type></trkpt>
      <trkpt lat="38.41612206" lon="-2.68078394"><ele>1400</ele><speed>13.41</speed><time>2016-06-02T12:06:58Z</time><pdop>11.0</pdop><geoidheight>51.00</geoidheight><course>353.8</course><type>1</type></trkpt>
      <trkpt lat="38.4163404" lon="-2.68079765"><ele>1396</ele><speed>12.84</speed><time>2016-06-02T12:07:00Z</time><pdop>11.0</pdop><geoidheight>51.00</geoidheight><course>358.6</course><type>1</type></trkpt>
      <trkpt lat="38.41665169" lon="-2.68081154"><ele>1393</ele><speed>12.10</speed><time>2016-06-02T12:07:03Z</time><pdop>13.0</pdop><geoidheight>51.00</geoidheight><course>359.5</course><type>1</type></trkpt>
      <trkpt lat="38.41693673" lon="-2.68077454"><ele>1386</ele><speed>12.48</speed><time>2016-06-02T12:07:06Z</time><pdop>12.0</pdop><geoidheight>51.00</geoidheight><course>359.5</course><type>1</type></trkpt>
      <trkpt lat="38.4172319" lon="-2.68068573"><ele>1380</ele><speed>11.97</speed><time>2016-06-02T12:07:09Z</time><pdop>12.0</pdop><geoidheight>51.00</geoidheight><course>9.7</course><type>1</type></trkpt>
      <trkpt lat="38.41754405" lon="-2.68055259"><ele>1373</ele><speed>13.04</speed><time>2016-06-02T12:07:12Z</time><pdop>14.0</pdop><geoidheight>51.00</geoidheight><course>11.3</course><type>1</type></trkpt>
      <trkpt lat="38.41786224" lon="-2.6805314"><ele>1367</ele><speed>14.72</speed><time>2016-06-02T12:07:14Z</time><pdop>13.0</pdop><geoidheight>51.00</geoidheight><course>7.7</course><type>1</type></trkpt>
      <trkpt lat="38.41810571" lon="-2.68048744"><ele>1362</ele><speed>14.44</speed><time>2016-06-02T12:07:16Z</time><pdop>12.0</pdop><geoidheight>51.00</geoidheight><course>6.3</course><type>1</type></trkpt>
      <trkpt lat="38.41838912" lon="-2.68039945"><ele>1354</ele><speed>13.85</speed><time>2016-06-02T12:07:19Z</time><pdop>12.0</pdop><geoidheight>51.00</geoidheight><course>8.4</course><type>1</type></trkpt>
      <trkpt lat="38.41860471" lon="-2.68035512"><ele>1350</ele><speed>12.66</speed><time>2016-06-02T12:07:21Z</time><pdop>12.0</pdop><geoidheight>51.00</geoidheight><course>7.4</course><type>1</type></trkpt>
      <trkpt lat="38.41886655" lon="-2.68033783"><ele>1344</ele><speed>11.26</speed><time>2016-06-02T12:07:24Z</time><pdop>14.0</pdop><geoidheight>51.00</geoidheight><course>2.7</course><type>1</type></trkpt>
      <trkpt lat="38.41915879" lon="-2.68036518"><ele>1334</ele><speed>10.84</speed><time>2016-06-02T12:07:27Z</time><pdop>13.0</pdop><geoidheight>51.00</geoidheight><course>4.0</course><type>1</type></trkpt>
      <trkpt lat="38.41939206" lon="-2.68033609"><ele>1322</ele><speed>10.68</speed><time>2016-06-02T12:07:30Z</time><pdop>12.0</pdop><geoidheight>51.00</geoidheight><course>3.1</course><type>1</type></trkpt>
      <trkpt lat="38.41960753" lon="-2.6803067"><ele>1316</ele><speed>11.95</speed><time>2016-06-02T12:07:32Z</time><pdop>12.0</pdop><geoidheight>51.00</geoidheight><course>7.7</course><type>1</type></trkpt>
      <trkpt lat="38.41983728" lon="-2.68025154"><ele>1304</ele><speed>9.43</speed><time>2016-06-02T12:07:35Z</time><pdop>11.0</pdop><geoidheight>51.00</geoidheight><course>1.8</course><type>1</type></trkpt>
      <trkpt lat="38.42005327" lon="-2.68026634"><ele>1290</ele><speed>5.41</speed><time>2016-06-02T12:07:40Z</time><pdop>13.0</pdop><geoidheight>51.00</geoidheight><course>355.9</course><type>1</type></trkpt>
      <trkpt lat="38.41977876" lon="-2.6801466"><ele>1287</ele><speed>6.45</speed><time>2016-06-02T12:07:44Z</time><pdop>18.0</pdop><geoidheight>51.00</geoidheight><course>139.2</course><type>1</type></trkpt>
      <trkpt lat="38.41946218" lon="-2.67986178"><ele>1285</ele><speed>10.23</speed><time>2016-06-02T12:07:47Z</time><pdop>14.0</pdop><geoidheight>51.00</geoidheight><course>135.5</course><type>1</type></trkpt>
      <trkpt lat="38.41919807" lon="-2.67956874"><ele>1284</ele><speed>10.88</speed><time>2016-06-02T12:07:50Z</time><pdop>12.0</pdop><geoidheight>51.00</geoidheight><course>134.2</course><type>1</type></trkpt>
      <trkpt lat="38.41904416" lon="-2.67932852"><ele>1278</ele><speed>9.03</speed><time>2016-06-02T12:07:53Z</time><pdop>12.0</pdop><geoidheight>51.00</geoidheight><course>126.0</course><type>1</type></trkpt>
      <trkpt lat="38.41886878" lon="-2.67889826"><ele>1274</ele><speed>14.73</speed><time>2016-06-02T12:07:56Z</time><pdop>12.0</pdop><geoidheight>51.00</geoidheight><course>107.7</course><type>1</type></trkpt>
      <trkpt lat="38.41883714" lon="-2.67861902"><ele>1267</ele><speed>12.34</speed><time>2016-06-02T12:07:58Z</time><pdop>12.0</pdop><geoidheight>51.00</geoidheight><course>100.3</course><type>1</type></trkpt>
      <trkpt lat="38.41878908" lon="-2.6783"><ele>1258</ele><speed>15.65</speed><time>2016-06-02T12:08:00Z</time><pdop>11.0</pdop><geoidheight>51.00</geoidheight><course>96.4</course><type>1</type></trkpt>
      <trkpt lat="38.41874738" lon="-2.6779264"><ele>1244</ele><speed>18.38</speed><time>2016-06-02T12:08:02Z</time><pdop>11.0</pdop><geoidheight>51.00</geoidheight><course>94.3</course><type>1</type></trkpt>
      <trkpt lat="38.41872425" lon="-2.67758252"><ele>1237</ele><speed>16.56</speed><time>2016-06-02T12:08:04Z</time><pdop>11.0</pdop><geoidheight>51.00</geoidheight><course>95.3</course><type>1</type></trkpt>
      <trkpt lat="38.41866577" lon="-2.67723714"><ele>1231</ele><speed>15.47</speed><time>2016-06-02T12:08:06Z</time><pdop>11.0</pdop><geoidheight>51.00</geoidheight><course>97.5</course><type>1</type></trkpt>
      <trkpt lat="38.41861591" lon="-2.67685957"><ele>1227</ele><speed>17.31</speed><time>2016-06-02T12:08:08Z</time><pdop>10.0</pdop><geoidheight>51.00</geoidheight><course>98.1</course><type>1</type></trkpt>
      <trkpt lat="38.41853629" lon="-2.67645657"><ele>1222</ele><speed>17.51</speed><time>2016-06-02T12:08:10Z</time><pdop>10.0</pdop><geoidheight>51.00</geoidheight><course>103.0</course><type>1</type></trkpt>
      <trkpt lat="38.4184568" lon="-2.67605651"><ele>1219</ele><speed>17.75</speed><time>2016-06-02T12:08:12Z</time><pdop>10.0</pdop><geoidheight>51.00</geoidheight><course>101.1</course><type>1</type></trkpt>
      <trkpt lat="38.41839561" lon="-2.67565934"><ele>1216</ele><speed>18.22</speed><time>2016-06-02T12:08:14Z</time><pdop>12.0</pdop><geoidheight>51.00</geoidheight><course>98.4</course><type>1</type></trkpt>
      <trkpt lat="38.41838503" lon="-2.67527833"><ele>1212</ele><speed>17.39</speed><time>2016-06-02T12:08:16Z</time><pdop>11.0</pdop><geoidheight>51.00</geoidheight><course>92.8</course><type>1</type></trkpt>
      <trkpt lat="38.41837729" lon="-2.67490275"><ele>1208</ele><speed>16.04</speed><time>2016-06-02T12:08:18Z</time><pdop>11.0</pdop><geoidheight>51.00</geoidheight><course>94.1</course><type>1</type></trkpt>
      <trkpt lat="38.41835056" lon="-2.67454827"><ele>1205</ele><speed>16.07</speed><time>2016-06-02T12:08:20Z</time><pdop>10.0</pdop><geoidheight>51.00</geoidheight><course>92.0</course><type>1</type></trkpt>
      <trkpt lat="38.41830527" lon="-2.67414485"><ele>1197</ele><speed>17.84</speed><time>2016-06-02T12:08:22Z</time><pdop>10.0</pdop><geoidheight>51.00</geoidheight><course>95.5</course><type>1</type></trkpt>
      <trkpt lat="38.41825229" lon="-2.67373932"><ele>1192</ele><speed>17.97</speed><time>2016-06-02T12:08:24Z</time><pdop>10.0</pdop><geoidheight>51.00</geoidheight><course>99.7</course><type>1</type></trkpt>
      <trkpt lat="38.41818821" lon="-2.67336429"><ele>1188</ele><speed>16.93</speed><time>2016-06-02T12:08:26Z</time><pdop>10.0</pdop><geoidheight>51.00</geoidheight><course>100.1</course><type>1</type></trkpt>
      <trkpt lat="38.41813728" lon="-2.67300408"><ele>1184</ele><speed>16.51</speed><time>2016-06-02T12:08:28Z</time><pdop>10.0</pdop><geoidheight>51.00</geoidheight><course>97.9</course><type>1</type></trkpt>
      <trkpt lat="38.41809132" lon="-2.67262415"><ele>1179</ele><speed>16.56</speed><time>2016-06-02T12:08:30Z</time><pdop>10.0</pdop><geoidheight>51.00</geoidheight><course>97.3</course><type>1</type></trkpt>
      <trkpt lat="38.41804706" lon="-2.67227615"><ele>1175</ele><speed>15.59</speed><time>2016-06-02T12:08:32Z</time><pdop>11.0</pdop><geoidheight>51.00</geoidheight><course>99.7</course><type>1</type></trkpt>
      <trkpt lat="38.41797754" lon="-2.67191016"><ele>1174</ele><speed>15.69</speed><time>2016-06-02T12:08:34Z</time><pdop>11.0</pdop><geoidheight>51.00</geoidheight><course>103.7</course><type>1</type></trkpt>
      <trkpt lat="38.41790652" lon="-2.67158472"><ele>1172</ele><speed>15.25</speed><time>2016-06-02T12:08:36Z</time><pdop>11.0</pdop><geoidheight>51.00</geoidheight><course>104.4</course><type>1</type></trkpt>
      <trkpt lat="38.41780449" lon="-2.67126244"><ele>1170</ele><speed>15.26</speed><time>2016-06-02T12:08:38Z</time><pdop>14.0</pdop><geoidheight>51.00</geoidheight><course>108.0</course><type>1</type></trkpt>
      <trkpt lat="38.41766788" lon="-2.67085989"><ele>1169</ele><speed>17.12</speed><time>2016-06-02T12:08:40Z</time><pdop>14.0</pdop><geoidheight>51.00</geoidheight><course>110.2</course><type>1</type></trkpt>
      <trkpt lat="38.41756713" lon="-2.67048928"><ele>1165</ele><speed>17.92</speed><time>2016-06-02T12:08:42Z</time><pdop>13.0</pdop><geoidheight>51.00</geoidheight><course>105.7</course><type>1</type></trkpt>
      <trkpt lat="38.41747596" lon="-2.67013627"><ele>1157</ele><speed>16.53</speed><time>2016-06-02T12:08:44Z</time><pdop>13.0</pdop><geoidheight>51.00</geoidheight><course>109.0</course><type>1</type></trkpt>
      <trkpt lat="38.41737372" lon="-2.6698229"><ele>1152</ele><speed>16.20</speed><time>2016-06-02T12:08:46Z</time><pdop>14.0</pdop><geoidheight>51.00</geoidheight><course>110.3</course><type>1</type></trkpt>
      <trkpt lat="38.41722878" lon="-2.66948164"><ele>1150</ele><speed>16.41</speed><time>2016-06-02T12:08:48Z</time><pdop>16.0</pdop><geoidheight>51.00</geoidheight><course>113.3</course><type>1</type></trkpt>
      <trkpt lat="38.41709534" lon="-2.66903739"><ele>1142</ele><speed>15.12</speed><time>2016-06-02T12:08:51Z</time><pdop>15.0</pdop><geoidheight>51.00</geoidheight><course>119.9</course><type>1</type></trkpt>
      <trkpt lat="38.41692486" lon="-2.66875476"><ele>1138</ele><speed>15.99</speed><time>2016-06-02T12:08:53Z</time><pdop>15.0</pdop><geoidheight>51.00</geoidheight><course>119.0</course><type>1</type></trkpt>
      <trkpt lat="38.41683268" lon="-2.66838097"><ele>1135</ele><speed>16.11</speed><time>2016-06-02T12:08:55Z</time><pdop>13.0</pdop><geoidheight>51.00</geoidheight><course>104.4</course><type>1</type></trkpt>
      <trkpt lat="38.41676154" lon="-2.66801491"><ele>1132</ele><speed>16.32</speed><time>2016-06-02T12:08:57Z</time><pdop>13.0</pdop><geoidheight>51.00</geoidheight><course>102.5</course><type>1</type></trkpt>
      <trkpt lat="38.41665481" lon="-2.66763483"><ele>1128</ele><speed>17.73</speed><time>2016-06-02T12:08:59Z</time><pdop>14.0</pdop><geoidheight>51.00</geoidheight><course>105.7</course><type>1</type></trkpt>
      <trkpt lat="38.41652777" lon="-2.66722166"><ele>1125</ele><speed>18.71</speed><time>2016-06-02T12:09:01Z</time><pdop>17.0</pdop><geoidheight>51.00</geoidheight><course>107.2</course><type>1</type></trkpt>
      <trkpt lat="38.41644336" lon="-2.6668458"><ele>1122</ele><speed>16.84</speed><time>2016-06-02T12:09:03Z</time><pdop>14.0</pdop><geoidheight>51.00</geoidheight><course>103.0</course><type>1</type></trkpt>
      <trkpt lat="38.41638767" lon="-2.66647246"><ele>1118</ele><speed>17.15</speed><time>2016-06-02T12:09:05Z</time><pdop>13.0</pdop><geoidheight>51.00</geoidheight><course>99.0</course><type>1</type></trkpt>
      <trkpt lat="38.416346" lon="-2.66607156"><ele>1113</ele><speed>18.30</speed><time>2016-06-02T12:09:07Z</time><pdop>13.0</pdop><geoidheight>51.00</geoidheight><course>98.0</course><type>1</type></trkpt>
      <trkpt lat="38.41628068" lon="-2.66562277"><ele>1108</ele><speed>20.40</speed><time>2016-06-02T12:09:09Z</time><pdop>13.0</pdop><geoidheight>51.00</geoidheight><course>96.0</course><type>1</type></trkpt>
      <trkpt lat="38.416269" lon="-2.66517444"><ele>1102</ele><speed>20.30</speed><time>2016-06-02T12:09:11Z</time><pdop>13.0</pdop><geoidheight>51.00</geoidheight><course>93.8</course><type>1</type></trkpt>
      <trkpt lat="38.4162183" lon="-2.6647705"><ele>1096</ele><speed>18.05</speed><time>2016-06-02T12:09:13Z</time><pdop>12.0</pdop><geoidheight>51.00</geoidheight><course>97.5</course><type>1</type></trkpt>
      <trkpt lat="38.41616509" lon="-2.664373"><ele>1091</ele><speed>17.44</speed><time>2016-06-02T12:09:15Z</time><pdop>11.0</pdop><geoidheight>51.00</geoidheight><course>96.9</course><type>1</type></trkpt>
      <trkpt lat="38.41609581" lon="-2.66399259"><ele>1084</ele><speed>17.12</speed><time>2016-06-02T12:09:17Z</time><pdop>11.0</pdop><geoidheight>51.00</geoidheight><course>102.1</course><type>1</type></trkpt>
      <trkpt lat="38.41600435" lon="-2.6636786"><ele>1078</ele><speed>14.81</speed><time>2016-06-02T12:09:19Z</time><pdop>11.0</pdop><geoidheight>51.00</geoidheight><course>106.9</course><type>1</type></trkpt>
      <trkpt lat="38.41592294" lon="-2.66338252"><ele>1075</ele><speed>14.00</speed><time>2016-06-02T12:09:21Z</time><pdop>13.0</pdop><geoidheight>51.00</geoidheight><course>106.1</course><type>1</type></trkpt>
      <trkpt lat="38.41578772" lon="-2.66309417"><ele>1068</ele><speed>9.97</speed><time>2016-06-02T12:09:24Z</time><pdop>11.0</pdop><geoidheight>51.00</geoidheight><course>118.1</course><type>1</type></trkpt>
      <trkpt lat="38.41562154" lon="-2.66295284"><ele>1056</ele><speed>6.34</speed><time>2016-06-02T12:09:27Z</time><pdop>11.0</pdop><geoidheight>51.00</geoidheight><course>149.1</course><type>1</type></trkpt>
      <trkpt lat="38.41562683" lon="-2.66323032"><ele>1043</ele><speed>5.36</speed><time>2016-06-02T12:09:32Z</time><pdop>12.0</pdop><geoidheight>51.00</geoidheight><course>296.0</course><type>1</type></trkpt>
      <trkpt lat="38.41590224" lon="-2.66325526"><ele>1031</ele><speed>9.07</speed><time>2016-06-02T12:09:35Z</time><pdop>12.0</pdop><geoidheight>51.00</geoidheight><course>356.3</course><type>1</type></trkpt>
      <trkpt lat="38.41615086" lon="-2.66296566"><ele>1025</ele><speed>14.77</speed><time>2016-06-02T12:09:37Z</time><pdop>12.0</pdop><geoidheight>51.00</geoidheight><course>38.6</course><type>1</type></trkpt>
      <trkpt lat="38.41632003" lon="-2.66264605"><ele>1024</ele><speed>16.36</speed><time>2016-06-02T12:09:39Z</time><pdop>10.0</pdop><geoidheight>51.00</geoidheight><course>58.6</course><type>1</type></trkpt>
      <trkpt lat="38.41646305" lon="-2.66228068"><ele>1023</ele><speed>17.46</speed><time>2016-06-02T12:09:41Z</time><pdop>10.0</pdop><geoidheight>51.00</geoidheight><course>65.6</course><type>1</type></trkpt>
      <trkpt lat="38.41655672" lon="-2.66191355"><ele>1024</ele><speed>16.40</speed><time>2016-06-02T12:09:43Z</time><pdop>9.0</pdop><geoidheight>51.00</geoidheight><course>72.5</course><type>1</type></trkpt>
      <trkpt lat="38.41655231" lon="-2.66159011"><ele>1024</ele><speed>13.58</speed><time>2016-06-02T12:09:45Z</time><pdop>9.0</pdop><geoidheight>51.00</geoidheight><course>93.2</course><type>1</type></trkpt>
      <trkpt lat="38.416485" lon="-2.66131188"><ele>1024</ele><speed>12.04</speed><time>2016-06-02T12:09:47Z</time><pdop>10.0</pdop><geoidheight>51.00</geoidheight><course>105.3</course><type>1</type></trkpt>
      <trkpt lat="38.41633581" lon="-2.66117179"><ele>1023</ele><speed>8.79</speed><time>2016-06-02T12:09:49Z</time><pdop>9.0</pdop><geoidheight>51.00</geoidheight><course>141.8</course><type>1</type></trkpt>
      <trkpt lat="38.41654811" lon="-2.66126154"><ele>1020</ele><speed>10.23</speed><time>2016-06-02T12:09:57Z</time><pdop>9.0</pdop><geoidheight>51.00</geoidheight><course>359.1</course><type>1</type></trkpt>
      <trkpt lat="38.41676552" lon="-2.66116292"><ele>1022</ele><speed>13.12</speed><time>2016-06-02T12:09:59Z</time><pdop>10.0</pdop><geoidheight>51.00</geoidheight><course>22.9</course><type>1</type></trkpt>
      <trkpt lat="38.41696092" lon="-2.66099975"><ele>1024</ele><speed>13.22</speed><time>2016-06-02T12:10:01Z</time><pdop>9.0</pdop><geoidheight>51.00</geoidheight><course>31.7</course><type>1</type></trkpt>
      <trkpt lat="38.41714643" lon="-2.66080767"><ele>1026</ele><speed>14.24</speed><time>2016-06-02T12:10:03Z</time><pdop>9.0</pdop><geoidheight>51.00</geoidheight><course>42.3</course><type>1</type></trkpt>
      <trkpt lat="38.41730042" lon="-2.66049479"><ele>1024</ele><speed>15.37</speed><time>2016-06-02T12:10:05Z</time><pdop>9.0</pdop><geoidheight>51.00</geoidheight><course>58.1</course><type>1</type></trkpt>
      <trkpt lat="38.41732016" lon="-2.66015188"><ele>1023</ele><speed>14.62</speed><time>2016-06-02T12:10:07Z</time><pdop>9.0</pdop><geoidheight>51.00</geoidheight><course>85.4</course><type>1</type></trkpt>
      <trkpt lat="38.4172884" lon="-2.65984553"><ele>1024</ele><speed>12.68</speed><time>2016-06-02T12:10:09Z</time><pdop>9.0</pdop><geoidheight>51.00</geoidheight><course>102.0</course><type>1</type></trkpt>
      <trkpt lat="38.41721929" lon="-2.65960031"><ele>1024</ele><speed>10.84</speed><time>2016-06-02T12:10:11Z</time><pdop>9.0</pdop><geoidheight>51.00</geoidheight><course>112.3</course><type>1</type></trkpt>
      <trkpt lat="38.41709597" lon="-2.65941995"><ele>1023</ele><speed>10.31</speed><time>2016-06-02T12:10:13Z</time><pdop>9.0</pdop><geoidheight>51.00</geoidheight><course>131.7</course><type>1</type></trkpt>
      <trkpt lat="38.41698452" lon="-2.65921454"><ele>1024</ele><speed>10.88</speed><time>2016-06-02T12:10:15Z</time><pdop>9.0</pdop><geoidheight>51.00</geoidheight><course>126.7</course><type>1</type></trkpt>
      <trkpt lat="38.41688967" lon="-2.65904109"><ele>1023</ele><speed>9.18</speed><time>2016-06-02T12:10:17Z</time><pdop>9.0</pdop><geoidheight>51.00</geoidheight><course>128.8</course><type>1</type></trkpt>
      <trkpt lat="38.41671777" lon="-2.65883416"><ele>1024</ele><speed>9.78</speed><time>2016-06-02T12:10:20Z</time><pdop>9.0</pdop><geoidheight>51.00</geoidheight><course>136.5</course><type>1</type></trkpt>
      <trkpt lat="38.41656995" lon="-2.65864101"><ele>1024</ele><speed>12.26</speed><time>2016-06-02T12:10:22Z</time><pdop>9.0</pdop><geoidheight>51.00</geoidheight><course>129.8</course><type>1</type></trkpt>
      <trkpt lat="38.41643256" lon="-2.65844921"><ele>1022</ele><speed>10.93</speed><time>2016-06-02T12:10:24Z</time><pdop>10.0</pdop><geoidheight>51.00</geoidheight><course>132.7</course><type>1</type></trkpt>
      <trkpt lat="38.41627132" lon="-2.65826765"><ele>1023</ele><speed>7.12</speed><time>2016-06-02T12:10:27Z</time><pdop>11.0</pdop><geoidheight>51.00</geoidheight><course>138.1</course><type>1</type></trkpt>
      <trkpt lat="38.4160291" lon="-2.6583035"><ele>1025</ele><speed>5.19</speed><time>2016-06-02T12:10:32Z</time><pdop>11.0</pdop><geoidheight>51.00</geoidheight><course>171.5</course><type>1</type></trkpt>
      <trkpt lat="38.41613912" lon="-2.65856942"><ele>1290</ele><speed>6.00</speed><time>2016-06-02T12:10:40Z</time><pdop>10.0</pdop><geoidheight>51.00</geoidheight><course>315.7</course><type>1</type></trkpt>
      <trkpt lat="38.41636832" lon="-2.65847562"><ele>1175</ele><speed>9.21</speed><time>2016-06-02T12:10:42Z</time><pdop>10.0</pdop><geoidheight>51.00</geoidheight><course>7.4</course><type>1</type></trkpt>
      <trkpt lat="38.41655102" lon="-2.6582263"><ele>1137</ele><speed>16.58</speed><time>2016-06-02T12:10:43Z</time><pdop>9.0</pdop><geoidheight>51.00</geoidheight><course>42.6</course><type>1</type></trkpt>
      <trkpt lat="38.41676225" lon="-2.657913"><ele>1105</ele><speed>17.07</speed><time>2016-06-02T12:10:45Z</time><pdop>10.0</pdop><geoidheight>51.00</geoidheight><course>51.3</course><type>1</type></trkpt>
      <trkpt lat="38.41680913" lon="-2.65772909"><ele>1092</ele><speed>16.62</speed><time>2016-06-02T12:10:46Z</time><pdop>5.0</pdop><geoidheight>51.00</geoidheight><course>60.6</course><type>1</type></trkpt>
      <trkpt lat="38.416793" lon="-2.65755144"><ele>1089</ele><speed>14.51</speed><time>2016-06-02T12:10:47Z</time><pdop>4.0</pdop><geoidheight>51.00</geoidheight><course>81.9</course><type>1</type></trkpt>
      <trkpt lat="38.41678587" lon="-2.65739041"><ele>1088</ele><speed>14.15</speed><time>2016-06-02T12:10:48Z</time><pdop>4.0</pdop><geoidheight>51.00</geoidheight><course>92.4</course><type>1</type></trkpt>
      <trkpt lat="38.41675889" lon="-2.65722778"><ele>1086</ele><speed>13.93</speed><time>2016-06-02T12:10:49Z</time><pdop>4.0</pdop><geoidheight>51.00</geoidheight><course>98.9</course><type>1</type></trkpt>
      <trkpt lat="38.41673074" lon="-2.65706378"><ele>1080</ele><speed>14.20</speed><time>2016-06-02T12:10:50Z</time><pdop>4.0</pdop><geoidheight>51.00</geoidheight><course>102.1</course><type>1</type></trkpt>
      <trkpt lat="38.41670259" lon="-2.65690441"><ele>1071</ele><speed>14.20</speed><time>2016-06-02T12:10:51Z</time><pdop>4.0</pdop><geoidheight>51.00</geoidheight><course>103.4</course><type>1</type></trkpt>
      <trkpt lat="38.41666884" lon="-2.6567558"><ele>1065</ele><speed>13.22</speed><time>2016-06-02T12:10:52Z</time><pdop>4.0</pdop><geoidheight>51.00</geoidheight><course>104.8</course><type>1</type></trkpt>
      <trkpt lat="38.41663644" lon="-2.65662909"><ele>1060</ele><speed>12.14</speed><time>2016-06-02T12:10:53Z</time><pdop>4.0</pdop><geoidheight>51.00</geoidheight><course>108.0</course><type>1</type></trkpt>
      <trkpt lat="38.41658329" lon="-2.65651442"><ele>1058</ele><speed>11.57</speed><time>2016-06-02T12:10:54Z</time><pdop>4.0</pdop><geoidheight>51.00</geoidheight><course>117.7</course><type>1</type></trkpt>
      <trkpt lat="38.41653127" lon="-2.6564254"><ele>1058</ele><speed>11.09</speed><time>2016-06-02T12:10:55Z</time><pdop>4.0</pdop><geoidheight>51.00</geoidheight><course>124.0</course><type>1</type></trkpt>
      <trkpt lat="38.41647384" lon="-2.6563257"><ele>1053</ele><speed>10.94</speed><time>2016-06-02T12:10:56Z</time><pdop>4.0</pdop><geoidheight>51.00</geoidheight><course>124.7</course><type>1</type></trkpt>
      <trkpt lat="38.4163761" lon="-2.6562408"><ele>1056</ele><speed>11.69</speed><time>2016-06-02T12:10:57Z</time><pdop>4.0</pdop><geoidheight>51.00</geoidheight><course>138.6</course><type>1</type></trkpt>
      <trkpt lat="38.41626165" lon="-2.65615993"><ele>1055</ele><speed>12.66</speed><time>2016-06-02T12:10:58Z</time><pdop>4.0</pdop><geoidheight>51.00</geoidheight><course>145.2</course><type>1</type></trkpt>
      <trkpt lat="38.41615938" lon="-2.6560831"><ele>1053</ele><speed>12.47</speed><time>2016-06-02T12:10:59Z</time><pdop>4.0</pdop><geoidheight>51.00</geoidheight><course>145.2</course><type>1</type></trkpt>
      <trkpt lat="38.41607685" lon="-2.65601068"><ele>1053</ele><speed>11.57</speed><time>2016-06-02T12:11:00Z</time><pdop>4.0</pdop><geoidheight>51.00</geoidheight><course>146.1</course><type>1</type></trkpt>
      <trkpt lat="38.41600477" lon="-2.65594836"><ele>1050</ele><speed>10.32</speed><time>2016-06-02T12:11:01Z</time><pdop>4.0</pdop><geoidheight>51.00</geoidheight><course>144.2</course><type>1</type></trkpt>
      <trkpt lat="38.41593956" lon="-2.65588725"><ele>1049</ele><speed>9.32</speed><time>2016-06-02T12:11:02Z</time><pdop>4.0</pdop><geoidheight>51.00</geoidheight><course>145.7</course><type>1</type></trkpt>
      <trkpt lat="38.41580908" lon="-2.65577849"><ele>1046</ele><speed>8.72</speed><time>2016-06-02T12:11:04Z</time><pdop>5.0</pdop><geoidheight>51.00</geoidheight><course>152.0</course><type>1</type></trkpt>
      <trkpt lat="38.41565752" lon="-2.65569561"><ele>1048</ele><speed>9.35</speed><time>2016-06-02T12:11:06Z</time><pdop>5.0</pdop><geoidheight>51.00</geoidheight><course>151.6</course><type>1</type></trkpt>
      <trkpt lat="38.4155666" lon="-2.65562577"><ele>1047</ele><speed>11.08</speed><time>2016-06-02T12:11:07Z</time><pdop>5.0</pdop><geoidheight>51.00</geoidheight><course>141.7</course><type>1</type></trkpt>
      <trkpt lat="38.4154917" lon="-2.65553967"><ele>1045</ele><speed>10.96</speed><time>2016-06-02T12:11:08Z</time><pdop>6.0</pdop><geoidheight>51.00</geoidheight><course>140.3</course><type>1</type></trkpt>
      <trkpt lat="38.41539643" lon="-2.65538667"><ele>1044</ele><speed>8.66</speed><time>2016-06-02T12:11:10Z</time><pdop>5.0</pdop><geoidheight>51.00</geoidheight><course>135.3</course><type>1</type></trkpt>
      <trkpt lat="38.41528901" lon="-2.65526969"><ele>1042</ele><speed>7.94</speed><time>2016-06-02T12:11:12Z</time><pdop>4.0</pdop><geoidheight>51.00</geoidheight><course>145.0</course><type>1</type></trkpt>
      <trkpt lat="38.41520894" lon="-2.65521683"><ele>1043</ele><speed>9.13</speed><time>2016-06-02T12:11:13Z</time><pdop>4.0</pdop><geoidheight>51.00</geoidheight><course>147.3</course><type>1</type></trkpt>
      <trkpt lat="38.41513939" lon="-2.65514299"><ele>1040</ele><speed>9.98</speed><time>2016-06-02T12:11:14Z</time><pdop>5.0</pdop><geoidheight>51.00</geoidheight><course>142.6</course><type>1</type></trkpt>
      <trkpt lat="38.41506186" lon="-2.65507807"><ele>1038</ele><speed>10.04</speed><time>2016-06-02T12:11:15Z</time><pdop>5.0</pdop><geoidheight>51.00</geoidheight><course>141.9</course><type>1</type></trkpt>
      <trkpt lat="38.41497687" lon="-2.65491908"><ele>1041</ele><speed>8.88</speed><time>2016-06-02T12:11:17Z</time><pdop>6.0</pdop><geoidheight>51.00</geoidheight><course>129.2</course><type>1</type></trkpt>
      <trkpt lat="38.41492763" lon="-2.65468614"><ele>1038</ele><speed>10.51</speed><time>2016-06-02T12:11:19Z</time><pdop>5.0</pdop><geoidheight>51.00</geoidheight><course>113.3</course><type>1</type></trkpt>
      <trkpt lat="38.41489012" lon="-2.65457455"><ele>1036</ele><speed>10.81</speed><time>2016-06-02T12:11:20Z</time><pdop>5.0</pdop><geoidheight>51.00</geoidheight><course>111.7</course><type>1</type></trkpt>
      <trkpt lat="38.41486339" lon="-2.65445375"><ele>1033</ele><speed>11.12</speed><time>2016-06-02T12:11:21Z</time><pdop>4.0</pdop><geoidheight>51.00</geoidheight><course>107.3</course><type>1</type></trkpt>
      <trkpt lat="38.41484357" lon="-2.65434097"><ele>1032</ele><speed>11.18</speed><time>2016-06-02T12:11:22Z</time><pdop>4.0</pdop><geoidheight>51.00</geoidheight><course>103.6</course><type>1</type></trkpt>
      <trkpt lat="38.41482028" lon="-2.65421045"><ele>1029</ele><speed>11.11</speed><time>2016-06-02T12:11:23Z</time><pdop>4.0</pdop><geoidheight>51.00</geoidheight><course>98.8</course><type>1</type></trkpt>
      <trkpt lat="38.41482608" lon="-2.65408056"><ele>1030</ele><speed>10.71</speed><time>2016-06-02T12:11:24Z</time><pdop>4.0</pdop><geoidheight>51.00</geoidheight><course>88.6</course><type>1</type></trkpt>
      <trkpt lat="38.41483978" lon="-2.65396316"><ele>1029</ele><speed>10.18</speed><time>2016-06-02T12:11:25Z</time><pdop>4.0</pdop><geoidheight>51.00</geoidheight><course>83.6</course><type>1</type></trkpt>
      <trkpt lat="38.41485718" lon="-2.65385105"><ele>1029</ele><speed>9.72</speed><time>2016-06-02T12:11:26Z</time><pdop>4.0</pdop><geoidheight>51.00</geoidheight><course>78.8</course><type>1</type></trkpt>
      <trkpt lat="38.41488082" lon="-2.6537527"><ele>1029</ele><speed>9.78</speed><time>2016-06-02T12:11:27Z</time><pdop>3.0</pdop><geoidheight>51.00</geoidheight><course>72.4</course><type>1</type></trkpt>
      <trkpt lat="38.41493193" lon="-2.6536356"><ele>1029</ele><speed>10.39</speed><time>2016-06-02T12:11:28Z</time><pdop>3.0</pdop><geoidheight>51.00</geoidheight><course>65.9</course><type>1</type></trkpt>
      <trkpt lat="38.41499624" lon="-2.65353322"><ele>1027</ele><speed>10.97</speed><time>2016-06-02T12:11:29Z</time><pdop>3.0</pdop><geoidheight>51.00</geoidheight><course>56.5</course><type>1</type></trkpt>
      <trkpt lat="38.41506317" lon="-2.65343547"><ele>1027</ele><speed>11.63</speed><time>2016-06-02T12:11:30Z</time><pdop>3.0</pdop><geoidheight>51.00</geoidheight><course>48.5</course><type>1</type></trkpt>
      <trkpt lat="38.41513962" lon="-2.65335922"><ele>1027</ele><speed>11.53</speed><time>2016-06-02T12:11:31Z</time><pdop>3.0</pdop><geoidheight>51.00</geoidheight><course>38.8</course><type>1</type></trkpt>
      <trkpt lat="38.41523222" lon="-2.65330347"><ele>1026</ele><speed>10.96</speed><time>2016-06-02T12:11:32Z</time><pdop>4.0</pdop><geoidheight>51.00</geoidheight><course>25.4</course><type>1</type></trkpt>
      <trkpt lat="38.41531594" lon="-2.6532561"><ele>1026</ele><speed>10.64</speed><time>2016-06-02T12:11:33Z</time><pdop>5.0</pdop><geoidheight>51.00</geoidheight><course>19.8</course><type>1</type></trkpt>
      <trkpt lat="38.41551203" lon="-2.6533036"><ele>1024</ele><speed>11.03</speed><time>2016-06-02T12:11:35Z</time><pdop>6.0</pdop><geoidheight>51.00</geoidheight><course>351.7</course><type>1</type></trkpt>
      <trkpt lat="38.41559667" lon="-2.65337199"><ele>1026</ele><speed>10.06</speed><time>2016-06-02T12:11:36Z</time><pdop>5.0</pdop><geoidheight>51.00</geoidheight><course>337.9</course><type>1</type></trkpt>
      <trkpt lat="38.41569707" lon="-2.65349746"><ele>1026</ele><speed>7.02</speed><time>2016-06-02T12:11:38Z</time><pdop>5.0</pdop><geoidheight>51.00</geoidheight><course>310.5</course><type>1</type></trkpt>
      <trkpt lat="38.41571185" lon="-2.65366976"><ele>1024</ele><speed>7.39</speed><time>2016-06-02T12:11:40Z</time><pdop>4.0</pdop><geoidheight>51.00</geoidheight><course>280.4</course><type>1</type></trkpt>
      <trkpt lat="38.41567132" lon="-2.65375833"><ele>1023</ele><speed>7.92</speed><time>2016-06-02T12:11:41Z</time><pdop>4.0</pdop><geoidheight>51.00</geoidheight><course>257.5</course><type>1</type></trkpt>
      <trkpt lat="38.4156148" lon="-2.65382437"><ele>1023</ele><speed>8.12</speed><time>2016-06-02T12:11:42Z</time><pdop>4.0</pdop><geoidheight>51.00</geoidheight><course>229.3</course><type>1</type></trkpt>
      <trkpt lat="38.41554972" lon="-2.65387375"><ele>1022</ele><speed>8.00</speed><time>2016-06-02T12:11:43Z</time><pdop>4.0</pdop><geoidheight>51.00</geoidheight><course>219.8</course><type>1</type></trkpt>
      <trkpt lat="38.41542813" lon="-2.65389912"><ele>1023</ele><speed>7.41</speed><time>2016-06-02T12:11:45Z</time><pdop>5.0</pdop><geoidheight>51.00</geoidheight><course>186.2</course><type>1</type></trkpt>
      <trkpt lat="38.41530295" lon="-2.65374199"><ele>1023</ele><speed>7.10</speed><time>2016-06-02T12:11:47Z</time><pdop>5.0</pdop><geoidheight>51.00</geoidheight><course>138.4</course><type>1</type></trkpt>
      <trkpt lat="38.41522827" lon="-2.65357731"><ele>1024</ele><speed>8.38</speed><time>2016-06-02T12:11:49Z</time><pdop>9.0</pdop><geoidheight>51.00</geoidheight><course>125.0</course><type>1</type></trkpt>
      <trkpt lat="38.41516965" lon="-2.65330536"><ele>1026</ele><speed>10.83</speed><time>2016-06-02T12:11:51Z</time><pdop>9.0</pdop><geoidheight>51.00</geoidheight><course>103.6</course><type>1</type></trkpt>
      <trkpt lat="38.41519656" lon="-2.65302199"><ele>1026</ele><speed>12.09</speed><time>2016-06-02T12:11:53Z</time><pdop>9.0</pdop><geoidheight>51.00</geoidheight><course>82.5</course><type>1</type></trkpt>
      <trkpt lat="38.41529325" lon="-2.65277495"><ele>1026</ele><speed>11.66</speed><time>2016-06-02T12:11:55Z</time><pdop>9.0</pdop><geoidheight>51.00</geoidheight><course>58.7</course><type>1</type></trkpt>
      <trkpt lat="38.41541745" lon="-2.65258012"><ele>1025</ele><speed>11.00</speed><time>2016-06-02T12:11:57Z</time><pdop>10.0</pdop><geoidheight>51.00</geoidheight><course>49.4</course><type>1</type></trkpt>
      <trkpt lat="38.41562914" lon="-2.65248572"><ele>1027</ele><speed>11.13</speed><time>2016-06-02T12:11:59Z</time><pdop>10.0</pdop><geoidheight>51.00</geoidheight><course>20.5</course><type>1</type></trkpt>
      <trkpt lat="38.41582479" lon="-2.65248078"><ele>1026</ele><speed>10.73</speed><time>2016-06-02T12:12:01Z</time><pdop>9.0</pdop><geoidheight>51.00</geoidheight><course>351.6</course><type>1</type></trkpt>
      <trkpt lat="38.41597401" lon="-2.65269271"><ele>1025</ele><speed>8.55</speed><time>2016-06-02T12:12:04Z</time><pdop>10.0</pdop><geoidheight>51.00</geoidheight><course>298.8</course><type>1</type></trkpt>
      <trkpt lat="38.41594439" lon="-2.65302374"><ele>1026</ele><speed>8.91</speed><time>2016-06-02T12:12:07Z</time><pdop>10.0</pdop><geoidheight>51.00</geoidheight><course>263.1</course><type>1</type></trkpt>
      <trkpt lat="38.41588152" lon="-2.6532742"><ele>1028</ele><speed>7.02</speed><time>2016-06-02T12:12:10Z</time><pdop>10.0</pdop><geoidheight>51.00</geoidheight><course>241.3</course><type>1</type></trkpt>
      <trkpt lat="38.41572669" lon="-2.65349611"><ele>1028</ele><speed>6.75</speed><time>2016-06-02T12:12:14Z</time><pdop>12.0</pdop><geoidheight>51.00</geoidheight><course>224.7</course><type>1</type></trkpt>
      <trkpt lat="38.41549209" lon="-2.65342152"><ele>1027</ele><speed>6.21</speed><time>2016-06-02T12:12:18Z</time><pdop>12.0</pdop><geoidheight>51.00</geoidheight><course>166.8</course><type>1</type></trkpt>
      <trkpt lat="38.41539008" lon="-2.65308243"><ele>1027</ele><speed>11.30</speed><time>2016-06-02T12:12:20Z</time><pdop>12.0</pdop><geoidheight>51.00</geoidheight><course>117.6</course><type>1</type></trkpt>
      <trkpt lat="38.4154941" lon="-2.65276138"><ele>1027</ele><speed>12.65</speed><time>2016-06-02T12:12:22Z</time><pdop>10.0</pdop><geoidheight>51.00</geoidheight><course>76.6</course><type>1</type></trkpt>
      <trkpt lat="38.41559193" lon="-2.65250124"><ele>1026</ele><speed>11.40</speed><time>2016-06-02T12:12:24Z</time><pdop>10.0</pdop><geoidheight>51.00</geoidheight><course>60.9</course><type>1</type></trkpt>
      <trkpt lat="38.41571145" lon="-2.65226291"><ele>1024</ele><speed>11.75</speed><time>2016-06-02T12:12:26Z</time><pdop>9.0</pdop><geoidheight>51.00</geoidheight><course>58.6</course><type>1</type></trkpt>
      <trkpt lat="38.41577839" lon="-2.65199465"><ele>1025</ele><speed>11.49</speed><time>2016-06-02T12:12:28Z</time><pdop>9.0</pdop><geoidheight>51.00</geoidheight><course>75.6</course><type>1</type></trkpt>
      <trkpt lat="38.41577369" lon="-2.65172856"><ele>1023</ele><speed>11.61</speed><time>2016-06-02T12:12:30Z</time><pdop>10.0</pdop><geoidheight>51.00</geoidheight><course>90.4</course><type>1</type></trkpt>
      <trkpt lat="38.41563756" lon="-2.65146697"><ele>1023</ele><speed>7.17</speed><time>2016-06-02T12:12:33Z</time><pdop>11.0</pdop><geoidheight>51.00</geoidheight><course>120.0</course><type>1</type></trkpt>
      <trkpt lat="38.41540379" lon="-2.65151103"><ele>1022</ele><speed>5.29</speed><time>2016-06-02T12:12:36Z</time><pdop>10.0</pdop><geoidheight>51.00</geoidheight><course>185.5</course><type>1</type></trkpt>
      <trkpt lat="38.41523087" lon="-2.65170087"><ele>1021</ele><speed>6.42</speed><time>2016-06-02T12:12:40Z</time><pdop>10.0</pdop><geoidheight>51.00</geoidheight><course>226.4</course><type>1</type></trkpt>
      <trkpt lat="38.41515329" lon="-2.65191683"><ele>1020</ele><speed>6.53</speed><time>2016-06-02T12:12:43Z</time><pdop>10.0</pdop><geoidheight>51.00</geoidheight><course>244.1</course><type>1</type></trkpt>
      <trkpt lat="38.41505311" lon="-2.65218263"><ele>1017</ele><speed>6.58</speed><time>2016-06-02T12:12:47Z</time><pdop>9.0</pdop><geoidheight>51.00</geoidheight><course>247.8</course><type>1</type></trkpt>
      <trkpt lat="38.41502513" lon="-2.65242522"><ele>1018</ele><speed>7.18</speed><time>2016-06-02T12:12:50Z</time><pdop>9.0</pdop><geoidheight>51.00</geoidheight><course>269.7</course><type>1</type></trkpt>
      <trkpt lat="38.41503153" lon="-2.6526578"><ele>1018</ele><speed>6.99</speed><time>2016-06-02T12:12:53Z</time><pdop>10.0</pdop><geoidheight>51.00</geoidheight><course>271.2</course><type>1</type></trkpt>
      <trkpt lat="38.41502939" lon="-2.65288039"><ele>1023</ele><speed>6.04</speed><time>2016-06-02T12:12:56Z</time><pdop>9.0</pdop><geoidheight>51.00</geoidheight><course>265.1</course><type>1</type></trkpt>
      <trkpt lat="38.41506149" lon="-2.65311834"><ele>1031</ele><speed>2.59</speed><time>2016-06-02T12:13:02Z</time><pdop>11.0</pdop><geoidheight>51.00</geoidheight><course>294.6</course><type>1</type></trkpt>
      <trkpt lat="38.41529027" lon="-2.65312559"><ele>1033</ele><speed>4.94</speed><time>2016-06-02T12:13:06Z</time><pdop>10.0</pdop><geoidheight>51.00</geoidheight><course>8.1</course><type>1</type></trkpt>
      <trkpt lat="38.41550993" lon="-2.65291411"><ele>1033</ele><speed>10.80</speed><time>2016-06-02T12:13:08Z</time><pdop>11.0</pdop><geoidheight>51.00</geoidheight><course>37.3</course><type>1</type></trkpt>
      <trkpt lat="38.41553418" lon="-2.65249753"><ele>1033</ele><speed>13.77</speed><time>2016-06-02T12:13:10Z</time><pdop>11.0</pdop><geoidheight>51.00</geoidheight><course>69.0</course><type>1</type></trkpt>
      <trkpt lat="38.4153862" lon="-2.65226679"><ele>1034</ele><speed>10.05</speed><time>2016-06-02T12:13:12Z</time><pdop>11.0</pdop><geoidheight>51.00</geoidheight><course>103.8</course><type>1</type></trkpt>
      <trkpt lat="38.41522493" lon="-2.6520865"><ele>1036</ele><speed>10.02</speed><time>2016-06-02T12:13:14Z</time><pdop>11.0</pdop><geoidheight>51.00</geoidheight><course>123.9</course><type>1</type></trkpt>
      <trkpt lat="38.41496786" lon="-2.65197624"><ele>1040</ele><speed>11.98</speed><time>2016-06-02T12:13:16Z</time><pdop>10.0</pdop><geoidheight>51.00</geoidheight><course>154.7</course><type>1</type></trkpt>
      <trkpt lat="38.41475174" lon="-2.65194881"><ele>1045</ele><speed>6.98</speed><time>2016-06-02T12:13:19Z</time><pdop>11.0</pdop><geoidheight>51.00</geoidheight><course>185.0</course><type>1</type></trkpt>
      <trkpt lat="38.41502618" lon="-2.65188301"><ele>1053</ele><speed>10.36</speed><time>2016-06-02T12:13:26Z</time><pdop>11.0</pdop><geoidheight>51.00</geoidheight><course>42.7</course><type>1</type></trkpt>
      <trkpt lat="38.41522478" lon="-2.65159139"><ele>1059</ele><speed>14.63</speed><time>2016-06-02T12:13:28Z</time><pdop>11.0</pdop><geoidheight>51.00</geoidheight><course>55.7</course><type>1</type></trkpt>
      <trkpt lat="38.41529474" lon="-2.65128635"><ele>1063</ele><speed>13.32</speed><time>2016-06-02T12:13:30Z</time><pdop>11.0</pdop><geoidheight>51.00</geoidheight><course>72.7</course><type>1</type></trkpt>
      <trkpt lat="38.41530985" lon="-2.65101295"><ele>1067</ele><speed>12.10</speed><time>2016-06-02T12:13:32Z</time><pdop>12.0</pdop><geoidheight>51.00</geoidheight><course>83.6</course><type>1</type></trkpt>
      <trkpt lat="38.41504163" lon="-2.65073345"><ele>1069</ele><speed>10.44</speed><time>2016-06-02T12:13:36Z</time><pdop>11.0</pdop><geoidheight>51.00</geoidheight><course>147.2</course><type>1</type></trkpt>
      <trkpt lat="38.41484417" lon="-2.65070255"><ele>1070</ele><speed>9.70</speed><time>2016-06-02T12:13:38Z</time><pdop>11.0</pdop><geoidheight>51.00</geoidheight><course>174.5</course><type>1</type></trkpt>
      <trkpt lat="38.4146546" lon="-2.6508098"><ele>1075</ele><speed>6.23</speed><time>2016-06-02T12:13:41Z</time><pdop>10.0</pdop><geoidheight>51.00</geoidheight><course>225.4</course><type>1</type></trkpt>
      <trkpt lat="38.41486419" lon="-2.65072746"><ele>1085</ele><speed>6.81</speed><time>2016-06-02T12:13:48Z</time><pdop>13.0</pdop><geoidheight>51.00</geoidheight><course>45.8</course><type>1</type></trkpt>
      <trkpt lat="38.4150272" lon="-2.65033501"><ele>1093</ele><speed>14.10</speed><time>2016-06-02T12:13:50Z</time><pdop>8.0</pdop><geoidheight>51.00</geoidheight><course>77.7</course><type>1</type></trkpt>
      <trkpt lat="38.41506932" lon="-2.65004011"><ele>1100</ele><speed>11.78</speed><time>2016-06-02T12:13:52Z</time><pdop>5.0</pdop><geoidheight>51.00</geoidheight><course>94.8</course><type>1</type></trkpt>
      <trkpt lat="38.41507478" lon="-2.64978778"><ele>1103</ele><speed>11.25</speed><time>2016-06-02T12:13:54Z</time><pdop>7.0</pdop><geoidheight>51.00</geoidheight><course>95.3</course><type>1</type></trkpt>
      <trkpt lat="38.41490015" lon="-2.64971216"><ele>1103</ele><speed>9.15</speed><time>2016-06-02T12:13:56Z</time><pdop>5.0</pdop><geoidheight>51.00</geoidheight><course>148.3</course><type>1</type></trkpt>
      <trkpt lat="38.41473115" lon="-2.64964997"><ele>1104</ele><speed>9.26</speed><time>2016-06-02T12:13:58Z</time><pdop>5.0</pdop><geoidheight>51.00</geoidheight><course>166.2</course><type>1</type></trkpt>
      <trkpt lat="38.41455416" lon="-2.64970615"><ele>1104</ele><speed>9.98</speed><time>2016-06-02T12:14:00Z</time><pdop>6.0</pdop><geoidheight>51.00</geoidheight><course>190.1</course><type>1</type></trkpt>
      <trkpt lat="38.41451468" lon="-2.64983625"><ele>1105</ele><speed>9.90</speed><time>2016-06-02T12:14:01Z</time><pdop>5.0</pdop><geoidheight>51.00</geoidheight><course>219.7</course><type>1</type></trkpt>
      <trkpt lat="38.41441925" lon="-2.6499714"><ele>1111</ele><speed>7.88</speed><time>2016-06-02T12:14:03Z</time><pdop>5.0</pdop><geoidheight>51.00</geoidheight><course>229.7</course><type>1</type></trkpt>
      <trkpt lat="38.41433311" lon="-2.65007583"><ele>1114</ele><speed>6.37</speed><time>2016-06-02T12:14:05Z</time><pdop>5.0</pdop><geoidheight>51.00</geoidheight><course>221.7</course><type>1</type></trkpt>
      <trkpt lat="38.41421348" lon="-2.65014228"><ele>1119</ele><speed>6.33</speed><time>2016-06-02T12:14:07Z</time><pdop>5.0</pdop><geoidheight>51.00</geoidheight><course>213.6</course><type>1</type></trkpt>
      <trkpt lat="38.41413141" lon="-2.6502374"><ele>1122</ele><speed>4.01</speed><time>2016-06-02T12:14:10Z</time><pdop>5.0</pdop><geoidheight>51.00</geoidheight><course>232.1</course><type>1</type></trkpt>
      <trkpt lat="38.41419658" lon="-2.65038004"><ele>1123</ele><speed>5.85</speed><time>2016-06-02T12:14:13Z</time><pdop>6.0</pdop><geoidheight>51.00</geoidheight><course>303.3</course><type>1</type></trkpt>
      <trkpt lat="38.41439297" lon="-2.65041282"><ele>1125</ele><speed>8.10</speed><time>2016-06-02T12:14:15Z</time><pdop>7.0</pdop><geoidheight>51.00</geoidheight><course>343.6</course><type>1</type></trkpt>
      <trkpt lat="38.41452016" lon="-2.6503354"><ele>1129</ele><speed>9.54</speed><time>2016-06-02T12:14:16Z</time><pdop>8.0</pdop><geoidheight>51.00</geoidheight><course>7.0</course><type>1</type></trkpt>
      <trkpt lat="38.41466071" lon="-2.65020697"><ele>1132</ele><speed>12.74</speed><time>2016-06-02T12:14:17Z</time><pdop>8.0</pdop><geoidheight>51.00</geoidheight><course>26.0</course><type>1</type></trkpt>
      <trkpt lat="38.41484577" lon="-2.64999658"><ele>1133</ele><speed>13.23</speed><time>2016-06-02T12:14:19Z</time><pdop>7.0</pdop><geoidheight>51.00</geoidheight><course>41.6</course><type>1</type></trkpt>
      <trkpt lat="38.41486562" lon="-2.64966161"><ele>1138</ele><speed>13.46</speed><time>2016-06-02T12:14:21Z</time><pdop>5.0</pdop><geoidheight>51.00</geoidheight><course>79.0</course><type>1</type></trkpt>
      <trkpt lat="38.41486257" lon="-2.64949709"><ele>1139</ele><speed>13.74</speed><time>2016-06-02T12:14:22Z</time><pdop>4.0</pdop><geoidheight>51.00</geoidheight><course>90.7</course><type>1</type></trkpt>
      <trkpt lat="38.41484432" lon="-2.64934557"><ele>1139</ele><speed>13.12</speed><time>2016-06-02T12:14:23Z</time><pdop>4.0</pdop><geoidheight>51.00</geoidheight><course>92.7</course><type>1</type></trkpt>
      <trkpt lat="38.41478738" lon="-2.64919386"><ele>1144</ele><speed>13.83</speed><time>2016-06-02T12:14:24Z</time><pdop>4.0</pdop><geoidheight>51.00</geoidheight><course>111.5</course><type>1</type></trkpt>
      <trkpt lat="38.41473501" lon="-2.6490659"><ele>1145</ele><speed>12.82</speed><time>2016-06-02T12:14:25Z</time><pdop>4.0</pdop><geoidheight>51.00</geoidheight><course>118.9</course><type>1</type></trkpt>
      <trkpt lat="38.41466018" lon="-2.64897221"><ele>1147</ele><speed>11.57</speed><time>2016-06-02T12:14:26Z</time><pdop>4.0</pdop><geoidheight>51.00</geoidheight><course>133.5</course><type>1</type></trkpt>
      <trkpt lat="38.41457587" lon="-2.64890858"><ele>1147</ele><speed>10.64</speed><time>2016-06-02T12:14:27Z</time><pdop>4.0</pdop><geoidheight>51.00</geoidheight><course>148.6</course><type>1</type></trkpt>
      <trkpt lat="38.41448804" lon="-2.64889763"><ele>1149</ele><speed>9.85</speed><time>2016-06-02T12:14:28Z</time><pdop>3.0</pdop><geoidheight>51.00</geoidheight><course>173.9</course><type>1</type></trkpt>
      <trkpt lat="38.41440157" lon="-2.64891663"><ele>1147</ele><speed>9.95</speed><time>2016-06-02T12:14:29Z</time><pdop>4.0</pdop><geoidheight>51.00</geoidheight><course>183.4</course><type>1</type></trkpt>
      <trkpt lat="38.41434376" lon="-2.64898885"><ele>1147</ele><speed>9.22</speed><time>2016-06-02T12:14:30Z</time><pdop>4.0</pdop><geoidheight>51.00</geoidheight><course>208.4</course><type>1</type></trkpt>
      <trkpt lat="38.41426289" lon="-2.64908068"><ele>1152</ele><speed>5.64</speed><time>2016-06-02T12:14:32Z</time><pdop>3.0</pdop><geoidheight>51.00</geoidheight><course>224.9</course><type>1</type></trkpt>
      <trkpt lat="38.41423074" lon="-2.64917722"><ele>1156</ele><speed>4.96</speed><time>2016-06-02T12:14:34Z</time><pdop>5.0</pdop><geoidheight>51.00</geoidheight><course>246.7</course><type>1</type></trkpt>
      <trkpt lat="38.41437167" lon="-2.64926122"><ele>1154</ele><speed>5.25</speed><time>2016-06-02T12:14:37Z</time><pdop>7.0</pdop><geoidheight>51.00</geoidheight><course>336.1</course><type>1</type></trkpt>
      <trkpt lat="38.41454874" lon="-2.64925334"><ele>1158</ele><speed>7.75</speed><time>2016-06-02T12:14:39Z</time><pdop>7.0</pdop><geoidheight>51.00</geoidheight><course>8.3</course><type>1</type></trkpt>
      <trkpt lat="38.41470064" lon="-2.64912679"><ele>1163</ele><speed>9.41</speed><time>2016-06-02T12:14:41Z</time><pdop>7.0</pdop><geoidheight>51.00</geoidheight><course>37.3</course><type>1</type></trkpt>
      <trkpt lat="38.41483275" lon="-2.6488948"><ele>1167</ele><speed>12.04</speed><time>2016-06-02T12:14:43Z</time><pdop>6.0</pdop><geoidheight>51.00</geoidheight><course>57.6</course><type>1</type></trkpt>
      <trkpt lat="38.41490668" lon="-2.64876585"><ele>1169</ele><speed>13.16</speed><time>2016-06-02T12:14:44Z</time><pdop>6.0</pdop><geoidheight>51.00</geoidheight><course>64.1</course><type>1</type></trkpt>
      <trkpt lat="38.41488801" lon="-2.64860469"><ele>1170</ele><speed>13.19</speed><time>2016-06-02T12:14:45Z</time><pdop>6.0</pdop><geoidheight>51.00</geoidheight><course>78.2</course><type>1</type></trkpt>
      <trkpt lat="38.41485304" lon="-2.64844143"><ele>1172</ele><speed>13.47</speed><time>2016-06-02T12:14:46Z</time><pdop>6.0</pdop><geoidheight>51.00</geoidheight><course>89.1</course><type>1</type></trkpt>
      <trkpt lat="38.41481568" lon="-2.64831103"><ele>1173</ele><speed>12.08</speed><time>2016-06-02T12:14:47Z</time><pdop>6.0</pdop><geoidheight>51.00</geoidheight><course>96.3</course><type>1</type></trkpt>
      <trkpt lat="38.4146728" lon="-2.64813649"><ele>1174</ele><speed>9.46</speed><time>2016-06-02T12:14:49Z</time><pdop>6.0</pdop><geoidheight>51.00</geoidheight><course>126.2</course><type>1</type></trkpt>
      <trkpt lat="38.41447918" lon="-2.64810271"><ele>1176</ele><speed>8.76</speed><time>2016-06-02T12:14:51Z</time><pdop>5.0</pdop><geoidheight>51.00</geoidheight><course>166.2</course><type>1</type></trkpt>
      <trkpt lat="38.41440229" lon="-2.64818361"><ele>1177</ele><speed>8.52</speed><time>2016-06-02T12:14:52Z</time><pdop>5.0</pdop><geoidheight>51.00</geoidheight><course>201.5</course><type>1</type></trkpt>
      <trkpt lat="38.4143147" lon="-2.64831173"><ele>1177</ele><speed>7.94</speed><time>2016-06-02T12:14:54Z</time><pdop>4.0</pdop><geoidheight>51.00</geoidheight><course>243.4</course><type>1</type></trkpt>
      <trkpt lat="38.41428748" lon="-2.64841358"><ele>1179</ele><speed>8.52</speed><time>2016-06-02T12:14:55Z</time><pdop>5.0</pdop><geoidheight>51.00</geoidheight><course>249.3</course><type>1</type></trkpt>
      <trkpt lat="38.41426735" lon="-2.64856286"><ele>1181</ele><speed>6.98</speed><time>2016-06-02T12:14:57Z</time><pdop>5.0</pdop><geoidheight>51.00</geoidheight><course>258.7</course><type>1</type></trkpt>
      <trkpt lat="38.41421749" lon="-2.64869443"><ele>1188</ele><speed>5.98</speed><time>2016-06-02T12:14:59Z</time><pdop>5.0</pdop><geoidheight>51.00</geoidheight><course>239.0</course><type>1</type></trkpt>
      <trkpt lat="38.41416144" lon="-2.64882851"><ele>1194</ele><speed>7.25</speed><time>2016-06-02T12:15:01Z</time><pdop>5.0</pdop><geoidheight>51.00</geoidheight><course>247.0</course><type>1</type></trkpt>
      <trkpt lat="38.41415524" lon="-2.64900761"><ele>1199</ele><speed>7.56</speed><time>2016-06-02T12:15:03Z</time><pdop>7.0</pdop><geoidheight>51.00</geoidheight><course>263.7</course><type>1</type></trkpt>
      <trkpt lat="38.41436606" lon="-2.6489869"><ele>1204</ele><speed>5.75</speed><time>2016-06-02T12:15:05Z</time><pdop>9.0</pdop><geoidheight>51.00</geoidheight><course>337.6</course><type>1</type></trkpt>
      <trkpt lat="38.41461028" lon="-2.64871139"><ele>1207</ele><speed>10.69</speed><time>2016-06-02T12:15:07Z</time><pdop>8.0</pdop><geoidheight>51.00</geoidheight><course>40.0</course><type>1</type></trkpt>
      <trkpt lat="38.41466249" lon="-2.6484129"><ele>1211</ele><speed>11.35</speed><time>2016-06-02T12:15:09Z</time><pdop>6.0</pdop><geoidheight>51.00</geoidheight><course>73.4</course><type>1</type></trkpt>
      <trkpt lat="38.41470699" lon="-2.64826032"><ele>1215</ele><speed>12.43</speed><time>2016-06-02T12:15:10Z</time><pdop>8.0</pdop><geoidheight>51.00</geoidheight><course>77.7</course><type>1</type></trkpt>
      <trkpt lat="38.4146772" lon="-2.64796775"><ele>1215</ele><speed>12.13</speed><time>2016-06-02T12:15:12Z</time><pdop>10.0</pdop><geoidheight>51.00</geoidheight><course>87.9</course><type>1</type></trkpt>
      <trkpt lat="38.41449335" lon="-2.647875"><ele>1216</ele><speed>11.78</speed><time>2016-06-02T12:15:13Z</time><pdop>9.0</pdop><geoidheight>51.00</geoidheight><course>120.4</course><type>1</type></trkpt>
      <trkpt lat="38.41424727" lon="-2.64778378"><ele>1219</ele><speed>10.92</speed><time>2016-06-02T12:15:15Z</time><pdop>11.0</pdop><geoidheight>51.00</geoidheight><course>144.6</course><type>1</type></trkpt>
      <trkpt lat="38.4140864" lon="-2.64792788"><ele>1222</ele><speed>5.25</speed><time>2016-06-02T12:15:18Z</time><pdop>10.0</pdop><geoidheight>51.00</geoidheight><course>203.1</course><type>1</type></trkpt>
      <trkpt lat="38.41410541" lon="-2.64819092"><ele>1229</ele><speed>5.90</speed><time>2016-06-02T12:15:21Z</time><pdop>12.0</pdop><geoidheight>51.00</geoidheight><course>271.4</course><type>1</type></trkpt>
      <trkpt lat="38.41445297" lon="-2.64813123"><ele>1246</ele><speed>7.14</speed><time>2016-06-02T12:15:26Z</time><pdop>14.0</pdop><geoidheight>51.00</geoidheight><course>29.9</course><type>1</type></trkpt>
      <trkpt lat="38.41460662" lon="-2.64782895"><ele>1255</ele><speed>10.49</speed><time>2016-06-02T12:15:28Z</time><pdop>15.0</pdop><geoidheight>51.00</geoidheight><course>66.5</course><type>1</type></trkpt>
      <trkpt lat="38.41467819" lon="-2.64744031"><ele>1265</ele><speed>13.56</speed><time>2016-06-02T12:15:30Z</time><pdop>13.0</pdop><geoidheight>51.00</geoidheight><course>84.4</course><type>1</type></trkpt>
      <trkpt lat="38.41461971" lon="-2.64711988"><ele>1273</ele><speed>13.84</speed><time>2016-06-02T12:15:32Z</time><pdop>8.0</pdop><geoidheight>51.00</geoidheight><course>109.7</course><type>1</type></trkpt>
      <trkpt lat="38.41454614" lon="-2.64684171"><ele>1276</ele><speed>12.13</speed><time>2016-06-02T12:15:34Z</time><pdop>8.0</pdop><geoidheight>51.00</geoidheight><course>118.6</course><type>1</type></trkpt>
      <trkpt lat="38.41436574" lon="-2.6466785"><ele>1281</ele><speed>11.46</speed><time>2016-06-02T12:15:36Z</time><pdop>7.0</pdop><geoidheight>51.00</geoidheight><course>148.7</course><type>1</type></trkpt>
      <trkpt lat="38.41418697" lon="-2.64662962"><ele>1284</ele><speed>8.76</speed><time>2016-06-02T12:15:38Z</time><pdop>6.0</pdop><geoidheight>51.00</geoidheight><course>171.7</course><type>1</type></trkpt>
      <trkpt lat="38.41406425" lon="-2.64668586"><ele>1287</ele><speed>7.75</speed><time>2016-06-02T12:15:40Z</time><pdop>7.0</pdop><geoidheight>51.00</geoidheight><course>202.0</course><type>1</type></trkpt>
      <trkpt lat="38.41406009" lon="-2.64686707"><ele>1299</ele><speed>6.08</speed><time>2016-06-02T12:15:43Z</time><pdop>7.0</pdop><geoidheight>51.00</geoidheight><course>259.7</course><type>1</type></trkpt>
      <trkpt lat="38.41415969" lon="-2.64701334"><ele>1306</ele><speed>4.48</speed><time>2016-06-02T12:15:46Z</time><pdop>9.0</pdop><geoidheight>51.00</geoidheight><course>296.8</course><type>1</type></trkpt>
      <trkpt lat="38.41436374" lon="-2.64692456"><ele>1311</ele><speed>5.26</speed><time>2016-06-02T12:15:48Z</time><pdop>9.0</pdop><geoidheight>51.00</geoidheight><course>13.2</course><type>1</type></trkpt>
      <trkpt lat="38.41451921" lon="-2.64679508"><ele>1315</ele><speed>10.42</speed><time>2016-06-02T12:15:49Z</time><pdop>8.0</pdop><geoidheight>51.00</geoidheight><course>35.3</course><type>1</type></trkpt>
      <trkpt lat="38.41462219" lon="-2.64662814"><ele>1322</ele><speed>13.16</speed><time>2016-06-02T12:15:50Z</time><pdop>7.0</pdop><geoidheight>51.00</geoidheight><course>55.5</course><type>1</type></trkpt>
      <trkpt lat="38.41467935" lon="-2.64648335"><ele>1327</ele><speed>13.54</speed><time>2016-06-02T12:15:51Z</time><pdop>6.0</pdop><geoidheight>51.00</geoidheight><course>70.7</course><type>1</type></trkpt>
      <trkpt lat="38.41470914" lon="-2.64632396"><ele>1329</ele><speed>13.38</speed><time>2016-06-02T12:15:52Z</time><pdop>5.0</pdop><geoidheight>51.00</geoidheight><course>88.3</course><type>1</type></trkpt>
      <trkpt lat="38.41469534" lon="-2.64617539"><ele>1332</ele><speed>13.53</speed><time>2016-06-02T12:15:53Z</time><pdop>4.0</pdop><geoidheight>51.00</geoidheight><course>99.1</course><type>1</type></trkpt>
      <trkpt lat="38.41467564" lon="-2.64602623"><ele>1335</ele><speed>13.62</speed><time>2016-06-02T12:15:54Z</time><pdop>4.0</pdop><geoidheight>51.00</geoidheight><course>106.5</course><type>1</type></trkpt>
      <trkpt lat="38.41464669" lon="-2.64586712"><ele>1337</ele><speed>13.81</speed><time>2016-06-02T12:15:55Z</time><pdop>6.0</pdop><geoidheight>51.00</geoidheight><course>106.5</course><type>1</type></trkpt>
      <trkpt lat="38.41458079" lon="-2.64575762"><ele>1338</ele><speed>12.07</speed><time>2016-06-02T12:15:56Z</time><pdop>6.0</pdop><geoidheight>51.00</geoidheight><course>116.4</course><type>1</type></trkpt>
      <trkpt lat="38.41439218" lon="-2.64559738"><ele>1341</ele><speed>11.22</speed><time>2016-06-02T12:15:58Z</time><pdop>6.0</pdop><geoidheight>51.00</geoidheight><course>146.3</course><type>1</type></trkpt>
      <trkpt lat="38.41419895" lon="-2.64556061"><ele>1342</ele><speed>10.38</speed><time>2016-06-02T12:16:00Z</time><pdop>6.0</pdop><geoidheight>51.00</geoidheight><course>171.9</course><type>1</type></trkpt>
      <trkpt lat="38.41408174" lon="-2.64574574"><ele>1345</ele><speed>7.27</speed><time>2016-06-02T12:16:03Z</time><pdop>7.0</pdop><geoidheight>51.00</geoidheight><course>225.6</course><type>1</type></trkpt>
      <trkpt lat="38.41403995" lon="-2.64593563"><ele>1349</ele><speed>5.66</speed><time>2016-06-02T12:16:06Z</time><pdop>10.0</pdop><geoidheight>51.00</geoidheight><course>255.7</course><type>1</type></trkpt>
      <trkpt lat="38.41431227" lon="-2.64581901"><ele>1366</ele><speed>8.09</speed><time>2016-06-02T12:16:12Z</time><pdop>16.0</pdop><geoidheight>51.00</geoidheight><course>51.7</course><type>1</type></trkpt>
      <trkpt lat="38.41452301" lon="-2.64543367"><ele>1375</ele><speed>12.32</speed><time>2016-06-02T12:16:15Z</time><pdop>15.0</pdop><geoidheight>51.00</geoidheight><course>69.1</course><type>1</type></trkpt>
      <trkpt lat="38.41459503" lon="-2.64512389"><ele>1389</ele><speed>13.25</speed><time>2016-06-02T12:16:17Z</time><pdop>12.0</pdop><geoidheight>51.00</geoidheight><course>92.4</course><type>1</type></trkpt>
      <trkpt lat="38.41455745" lon="-2.64484024"><ele>1396</ele><speed>13.78</speed><time>2016-06-02T12:16:19Z</time><pdop>11.0</pdop><geoidheight>51.00</geoidheight><course>112.2</course><type>1</type></trkpt>
      <trkpt lat="38.41447308" lon="-2.64459467"><ele>1399</ele><speed>12.49</speed><time>2016-06-02T12:16:21Z</time><pdop>11.0</pdop><geoidheight>51.00</geoidheight><course>120.3</course><type>1</type></trkpt>
      <trkpt lat="38.4142994" lon="-2.64444154"><ele>1403</ele><speed>11.75</speed><time>2016-06-02T12:16:23Z</time><pdop>10.0</pdop><geoidheight>51.00</geoidheight><course>148.3</course><type>1</type></trkpt>
      <trkpt lat="38.4141109" lon="-2.64432903"><ele>1404</ele><speed>11.46</speed><time>2016-06-02T12:16:25Z</time><pdop>11.0</pdop><geoidheight>51.00</geoidheight><course>153.1</course><type>1</type></trkpt>
      <trkpt lat="38.41384422" lon="-2.64430345"><ele>1408</ele><speed>11.17</speed><time>2016-06-02T12:16:28Z</time><pdop>12.0</pdop><geoidheight>51.00</geoidheight><course>179.3</course><type>1</type></trkpt>
      <trkpt lat="38.41382009" lon="-2.64462202"><ele>1417</ele><speed>7.21</speed><time>2016-06-02T12:16:32Z</time><pdop>11.0</pdop><geoidheight>51.00</geoidheight><course>258.2</course><type>1</type></trkpt>
      <trkpt lat="38.4140528" lon="-2.64474593"><ele>1429</ele><speed>5.15</speed><time>2016-06-02T12:16:37Z</time><pdop>12.0</pdop><geoidheight>51.00</geoidheight><course>348.3</course><type>1</type></trkpt>
      <trkpt lat="38.41433389" lon="-2.64466799"><ele>1443</ele><speed>10.30</speed><time>2016-06-02T12:16:39Z</time><pdop>10.0</pdop><geoidheight>51.00</geoidheight><course>18.7</course><type>1</type></trkpt>
      <trkpt lat="38.41451977" lon="-2.64449935"><ele>1455</ele><speed>12.19</speed><time>2016-06-02T12:16:41Z</time><pdop>10.0</pdop><geoidheight>51.00</geoidheight><course>44.6</course><type>1</type></trkpt>
      <trkpt lat="38.41466218" lon="-2.64426529"><ele>1462</ele><speed>12.54</speed><time>2016-06-02T12:16:43Z</time><pdop>10.0</pdop><geoidheight>51.00</geoidheight><course>52.8</course><type>1</type></trkpt>
      <trkpt lat="38.41473918" lon="-2.64399075"><ele>1465</ele><speed>12.80</speed><time>2016-06-02T12:16:45Z</time><pdop>9.0</pdop><geoidheight>51.00</geoidheight><course>74.1</course><type>1</type></trkpt>
      <trkpt lat="38.41476632" lon="-2.64368683"><ele>1470</ele><speed>13.30</speed><time>2016-06-02T12:16:47Z</time><pdop>9.0</pdop><geoidheight>51.00</geoidheight><course>89.9</course><type>1</type></trkpt>
      <trkpt lat="38.41470918" lon="-2.64338088"><ele>1474</ele><speed>13.61</speed><time>2016-06-02T12:16:49Z</time><pdop>9.0</pdop><geoidheight>51.00</geoidheight><course>107.5</course><type>1</type></trkpt>
      <trkpt lat="38.41461309" lon="-2.64312492"><ele>1478</ele><speed>12.47</speed><time>2016-06-02T12:16:51Z</time><pdop>9.0</pdop><geoidheight>51.00</geoidheight><course>119.9</course><type>1</type></trkpt>
      <trkpt lat="38.41445772" lon="-2.64295802"><ele>1479</ele><speed>11.72</speed><time>2016-06-02T12:16:53Z</time><pdop>9.0</pdop><geoidheight>51.00</geoidheight><course>140.0</course><type>1</type></trkpt>
      <trkpt lat="38.41429655" lon="-2.64279198"><ele>1482</ele><speed>11.28</speed><time>2016-06-02T12:16:55Z</time><pdop>10.0</pdop><geoidheight>51.00</geoidheight><course>144.3</course><type>1</type></trkpt>
      <trkpt lat="38.41415436" lon="-2.64266318"><ele>1484</ele><speed>9.62</speed><time>2016-06-02T12:16:57Z</time><pdop>9.0</pdop><geoidheight>51.00</geoidheight><course>150.3</course><type>1</type></trkpt>
      <trkpt lat="38.41396275" lon="-2.64267713"><ele>1488</ele><speed>8.08</speed><time>2016-06-02T12:17:00Z</time><pdop>9.0</pdop><geoidheight>51.00</geoidheight><course>199.4</course><type>1</type></trkpt>
      <trkpt lat="38.41383103" lon="-2.64285267"><ele>1494</ele><speed>6.32</speed><time>2016-06-02T12:17:03Z</time><pdop>9.0</pdop><geoidheight>51.00</geoidheight><course>241.5</course><type>1</type></trkpt>
      <trkpt lat="38.41396072" lon="-2.64304479"><ele>1504</ele><speed>8.14</speed><time>2016-06-02T12:17:07Z</time><pdop>9.0</pdop><geoidheight>51.00</geoidheight><course>341.2</course><type>1</type></trkpt>
      <trkpt lat="38.41417351" lon="-2.64297341"><ele>1516</ele><speed>9.75</speed><time>2016-06-02T12:17:10Z</time><pdop>9.0</pdop><geoidheight>51.00</geoidheight><course>23.9</course><type>1</type></trkpt>
      <trkpt lat="38.41433192" lon="-2.64280875"><ele>1521</ele><speed>11.65</speed><time>2016-06-02T12:17:12Z</time><pdop>3.0</pdop><geoidheight>51.00</geoidheight><course>46.3</course><type>1</type></trkpt>
      <trkpt lat="38.4143973" lon="-2.6426962"><ele>1523</ele><speed>12.32</speed><time>2016-06-02T12:17:13Z</time><pdop>3.0</pdop><geoidheight>51.00</geoidheight><course>55.6</course><type>1</type></trkpt>
      <trkpt lat="38.41445236" lon="-2.64257008"><ele>1524</ele><speed>12.66</speed><time>2016-06-02T12:17:14Z</time><pdop>3.0</pdop><geoidheight>51.00</geoidheight><course>58.6</course><type>1</type></trkpt>
      <trkpt lat="38.41446574" lon="-2.64240823"><ele>1526</ele><speed>13.39</speed><time>2016-06-02T12:17:15Z</time><pdop>3.0</pdop><geoidheight>51.00</geoidheight><course>76.0</course><type>1</type></trkpt>
      <trkpt lat="38.41447452" lon="-2.64225466"><ele>1528</ele><speed>13.81</speed><time>2016-06-02T12:17:16Z</time><pdop>3.0</pdop><geoidheight>51.00</geoidheight><course>82.5</course><type>1</type></trkpt>
      <trkpt lat="38.41448588" lon="-2.6421"><ele>1531</ele><speed>13.63</speed><time>2016-06-02T12:17:17Z</time><pdop>3.0</pdop><geoidheight>51.00</geoidheight><course>85.4</course><type>1</type></trkpt>
      <trkpt lat="38.41448616" lon="-2.64195285"><ele>1533</ele><speed>13.05</speed><time>2016-06-02T12:17:18Z</time><pdop>3.0</pdop><geoidheight>51.00</geoidheight><course>90.2</course><type>1</type></trkpt>
      <trkpt lat="38.41447294" lon="-2.64180419"><ele>1535</ele><speed>12.82</speed><time>2016-06-02T12:17:19Z</time><pdop>3.0</pdop><geoidheight>51.00</geoidheight><course>96.5</course><type>1</type></trkpt>
      <trkpt lat="38.41443641" lon="-2.64166614"><ele>1536</ele><speed>12.68</speed><time>2016-06-02T12:17:20Z</time><pdop>3.0</pdop><geoidheight>51.00</geoidheight><course>108.7</course><type>1</type></trkpt>
      <trkpt lat="38.41440597" lon="-2.64153385"><ele>1538</ele><speed>12.49</speed><time>2016-06-02T12:17:21Z</time><pdop>3.0</pdop><geoidheight>51.00</geoidheight><course>108.7</course><type>1</type></trkpt>
      <trkpt lat="38.41433881" lon="-2.64143743"><ele>1537</ele><speed>11.62</speed><time>2016-06-02T12:17:22Z</time><pdop>5.0</pdop><geoidheight>51.00</geoidheight><course>119.3</course><type>1</type></trkpt>
      <trkpt lat="38.4142135" lon="-2.64136569"><ele>1537</ele><speed>12.16</speed><time>2016-06-02T12:17:23Z</time><pdop>4.0</pdop><geoidheight>51.00</geoidheight><course>141.8</course><type>1</type></trkpt>
      <trkpt lat="38.41412406" lon="-2.64129396"><ele>1537</ele><speed>10.84</speed><time>2016-06-02T12:17:24Z</time><pdop>4.0</pdop><geoidheight>51.00</geoidheight><course>151.3</course><type>1</type></trkpt>
      <trkpt lat="38.41405317" lon="-2.64126611"><ele>1539</ele><speed>9.55</speed><time>2016-06-02T12:17:25Z</time><pdop>4.0</pdop><geoidheight>51.00</geoidheight><course>162.8</course><type>1</type></trkpt>
      <trkpt lat="38.41397474" lon="-2.64124665"><ele>1540</ele><speed>8.16</speed><time>2016-06-02T12:17:26Z</time><pdop>4.0</pdop><geoidheight>51.00</geoidheight><course>173.6</course><type>1</type></trkpt>
      <trkpt lat="38.41389616" lon="-2.64124869"><ele>1541</ele><speed>7.88</speed><time>2016-06-02T12:17:27Z</time><pdop>4.0</pdop><geoidheight>51.00</geoidheight><course>179.7</course><type>1</type></trkpt>
      <trkpt lat="38.41376949" lon="-2.64130921"><ele>1541</ele><speed>7.16</speed><time>2016-06-02T12:17:29Z</time><pdop>4.0</pdop><geoidheight>51.00</geoidheight><course>206.8</course><type>1</type></trkpt>
      <trkpt lat="38.41372358" lon="-2.6414358"><ele>1543</ele><speed>5.95</speed><time>2016-06-02T12:17:31Z</time><pdop>4.0</pdop><geoidheight>51.00</geoidheight><course>257.9</course><type>1</type></trkpt>
      <trkpt lat="38.41374191" lon="-2.64155039"><ele>1548</ele><speed>4.63</speed><time>2016-06-02T12:17:33Z</time><pdop>3.0</pdop><geoidheight>51.00</geoidheight><course>267.7</course><type>1</type></trkpt>
      <trkpt lat="38.41373078" lon="-2.64165189"><ele>1551</ele><speed>4.32</speed><time>2016-06-02T12:17:35Z</time><pdop>4.0</pdop><geoidheight>51.00</geoidheight><course>265.3</course><type>1</type></trkpt>
      <trkpt lat="38.41398916" lon="-2.64167917"><ele>1556</ele><speed>10.73</speed><time>2016-06-02T12:17:38Z</time><pdop>5.0</pdop><geoidheight>51.00</geoidheight><course>7.5</course><type>1</type></trkpt>
      <trkpt lat="38.41408905" lon="-2.64162496"><ele>1561</ele><speed>11.05</speed><time>2016-06-02T12:17:39Z</time><pdop>4.0</pdop><geoidheight>51.00</geoidheight><course>27.7</course><type>1</type></trkpt>
      <trkpt lat="38.41418234" lon="-2.64155817"><ele>1563</ele><speed>11.27</speed><time>2016-06-02T12:17:40Z</time><pdop>5.0</pdop><geoidheight>51.00</geoidheight><course>35.0</course><type>1</type></trkpt>
      <trkpt lat="38.41425433" lon="-2.64145679"><ele>1570</ele><speed>11.61</speed><time>2016-06-02T12:17:41Z</time><pdop>4.0</pdop><geoidheight>51.00</geoidheight><course>48.4</course><type>1</type></trkpt>
      <trkpt lat="38.41431173" lon="-2.64135686"><ele>1574</ele><speed>11.01</speed><time>2016-06-02T12:17:42Z</time><pdop>4.0</pdop><geoidheight>51.00</geoidheight><course>57.2</course><type>1</type></trkpt>
      <trkpt lat="38.41435658" lon="-2.64123279"><ele>1576</ele><speed>11.52</speed><time>2016-06-02T12:17:43Z</time><pdop>4.0</pdop><geoidheight>51.00</geoidheight><course>67.6</course><type>1</type></trkpt>
      <trkpt lat="38.41439869" lon="-2.64109681"><ele>1578</ele><speed>12.51</speed><time>2016-06-02T12:17:44Z</time><pdop>4.0</pdop><geoidheight>51.00</geoidheight><course>72.4</course><type>1</type></trkpt>
      <trkpt lat="38.41442364" lon="-2.64095388"><ele>1580</ele><speed>12.75</speed><time>2016-06-02T12:17:45Z</time><pdop>5.0</pdop><geoidheight>51.00</geoidheight><course>77.5</course><type>1</type></trkpt>
      <trkpt lat="38.41441209" lon="-2.64080984"><ele>1580</ele><speed>12.58</speed><time>2016-06-02T12:17:46Z</time><pdop>5.0</pdop><geoidheight>51.00</geoidheight><course>88.6</course><type>1</type></trkpt>
      <trkpt lat="38.41437885" lon="-2.64065974"><ele>1580</ele><speed>13.14</speed><time>2016-06-02T12:17:47Z</time><pdop>6.0</pdop><geoidheight>51.00</geoidheight><course>96.6</course><type>1</type></trkpt>
      <trkpt lat="38.41429337" lon="-2.64038053"><ele>1582</ele><speed>12.61</speed><time>2016-06-02T12:17:49Z</time><pdop>8.0</pdop><geoidheight>51.00</geoidheight><course>107.2</course><type>1</type></trkpt>
      <trkpt lat="38.41409646" lon="-2.64015115"><ele>1583</ele><speed>12.40</speed><time>2016-06-02T12:17:51Z</time><pdop>10.0</pdop><geoidheight>51.00</geoidheight><course>125.2</course><type>1</type></trkpt>
      <trkpt lat="38.41396054" lon="-2.64027121"><ele>1584</ele><speed>9.19</speed><time>2016-06-02T12:17:52Z</time><pdop>7.0</pdop><geoidheight>51.00</geoidheight><course>173.8</course><type>1</type></trkpt>
      <trkpt lat="38.41379441" lon="-2.64038251"><ele>1583</ele><speed>7.97</speed><time>2016-06-02T12:17:54Z</time><pdop>7.0</pdop><geoidheight>51.00</geoidheight><course>201.6</course><type>1</type></trkpt>
      <trkpt lat="38.41370955" lon="-2.64050051"><ele>1584</ele><speed>5.48</speed><time>2016-06-02T12:17:56Z</time><pdop>6.0</pdop><geoidheight>51.00</geoidheight><course>227.9</course><type>1</type></trkpt>
      <trkpt lat="38.41370056" lon="-2.64065997"><ele>1587</ele><speed>5.28</speed><time>2016-06-02T12:17:58Z</time><pdop>5.0</pdop><geoidheight>51.00</geoidheight><course>266.0</course><type>1</type></trkpt>
      <trkpt lat="38.41374835" lon="-2.640833"><ele>1590</ele><speed>3.66</speed><time>2016-06-02T12:18:01Z</time><pdop>8.0</pdop><geoidheight>51.00</geoidheight><course>304.6</course><type>1</type></trkpt>
      <trkpt lat="38.41390275" lon="-2.64084191"><ele>1598</ele><speed>6.20</speed><time>2016-06-02T12:18:03Z</time><pdop>7.0</pdop><geoidheight>51.00</geoidheight><course>14.1</course><type>1</type></trkpt>
      <trkpt lat="38.4141062" lon="-2.64072572"><ele>1610</ele><speed>10.80</speed><time>2016-06-02T12:18:05Z</time><pdop>5.0</pdop><geoidheight>51.00</geoidheight><course>38.5</course><type>1</type></trkpt>
      <trkpt lat="38.4141858" lon="-2.64063421"><ele>1616</ele><speed>11.21</speed><time>2016-06-02T12:18:06Z</time><pdop>5.0</pdop><geoidheight>51.00</geoidheight><course>47.4</course><type>1</type></trkpt>
      <trkpt lat="38.41424078" lon="-2.64052964"><ele>1619</ele><speed>11.65</speed><time>2016-06-02T12:18:07Z</time><pdop>4.0</pdop><geoidheight>51.00</geoidheight><course>58.4</course><type>1</type></trkpt>
      <trkpt lat="38.41427896" lon="-2.64040265"><ele>1621</ele><speed>12.16</speed><time>2016-06-02T12:18:08Z</time><pdop>4.0</pdop><geoidheight>51.00</geoidheight><course>68.8</course><type>1</type></trkpt>
      <trkpt lat="38.41431466" lon="-2.64026059"><ele>1623</ele><speed>12.44</speed><time>2016-06-02T12:18:09Z</time><pdop>4.0</pdop><geoidheight>51.00</geoidheight><course>78.0</course><type>1</type></trkpt>
      <trkpt lat="38.41432933" lon="-2.64011454"><ele>1627</ele><speed>13.22</speed><time>2016-06-02T12:18:10Z</time><pdop>3.0</pdop><geoidheight>51.00</geoidheight><course>87.2</course><type>1</type></trkpt>
      <trkpt lat="38.41432809" lon="-2.63996971"><ele>1630</ele><speed>12.99</speed><time>2016-06-02T12:18:11Z</time><pdop>3.0</pdop><geoidheight>51.00</geoidheight><course>97.2</course><type>1</type></trkpt>
      <trkpt lat="38.41431691" lon="-2.6398177"><ele>1633</ele><speed>13.04</speed><time>2016-06-02T12:18:12Z</time><pdop>4.0</pdop><geoidheight>51.00</geoidheight><course>100.9</course><type>1</type></trkpt>
      <trkpt lat="38.41428957" lon="-2.63969114"><ele>1636</ele><speed>12.15</speed><time>2016-06-02T12:18:13Z</time><pdop>4.0</pdop><geoidheight>51.00</geoidheight><course>108.5</course><type>1</type></trkpt>
      <trkpt lat="38.41424781" lon="-2.63958399"><ele>1638</ele><speed>11.51</speed><time>2016-06-02T12:18:14Z</time><pdop>5.0</pdop><geoidheight>51.00</geoidheight><course>112.3</course><type>1</type></trkpt>
      <trkpt lat="38.41417089" lon="-2.6395001"><ele>1639</ele><speed>11.36</speed><time>2016-06-02T12:18:15Z</time><pdop>4.0</pdop><geoidheight>51.00</geoidheight><course>130.8</course><type>1</type></trkpt>
      <trkpt lat="38.41409356" lon="-2.63940929"><ele>1640</ele><speed>11.42</speed><time>2016-06-02T12:18:16Z</time><pdop>3.0</pdop><geoidheight>51.00</geoidheight><course>138.1</course><type>1</type></trkpt>
      <trkpt lat="38.41402465" lon="-2.6393372"><ele>1641</ele><speed>10.60</speed><time>2016-06-02T12:18:17Z</time><pdop>4.0</pdop><geoidheight>51.00</geoidheight><course>142.3</course><type>1</type></trkpt>
      <trkpt lat="38.41393929" lon="-2.63931286"><ele>1643</ele><speed>9.41</speed><time>2016-06-02T12:18:18Z</time><pdop>4.0</pdop><geoidheight>51.00</geoidheight><course>162.7</course><type>1</type></trkpt>
      <trkpt lat="38.41384176" lon="-2.63932798"><ele>1643</ele><speed>9.40</speed><time>2016-06-02T12:18:19Z</time><pdop>4.0</pdop><geoidheight>51.00</geoidheight><course>187.1</course><type>1</type></trkpt>
      <trkpt lat="38.41377304" lon="-2.63937354"><ele>1643</ele><speed>9.11</speed><time>2016-06-02T12:18:20Z</time><pdop>4.0</pdop><geoidheight>51.00</geoidheight><course>202.9</course><type>1</type></trkpt>
      <trkpt lat="38.4137056" lon="-2.63941206"><ele>1644</ele><speed>8.29</speed><time>2016-06-02T12:18:21Z</time><pdop>4.0</pdop><geoidheight>51.00</geoidheight><course>208.0</course><type>1</type></trkpt>
      <trkpt lat="38.41362691" lon="-2.63951773"><ele>1647</ele><speed>6.36</speed><time>2016-06-02T12:18:23Z</time><pdop>4.0</pdop><geoidheight>51.00</geoidheight><course>228.9</course><type>1</type></trkpt>
      <trkpt lat="38.41356405" lon="-2.63965695"><ele>1648</ele><speed>6.58</speed><time>2016-06-02T12:18:25Z</time><pdop>7.0</pdop><geoidheight>51.00</geoidheight><course>241.0</course><type>1</type></trkpt>
      <trkpt lat="38.41374226" lon="-2.63978501"><ele>1656</ele><speed>4.11</speed><time>2016-06-02T12:18:30Z</time><pdop>10.0</pdop><geoidheight>51.00</geoidheight><course>6.2</course><type>1</type></trkpt>
      <trkpt lat="38.41402759" lon="-2.63959249"><ele>1669</ele><speed>12.20</speed><time>2016-06-02T12:18:32Z</time><pdop>8.0</pdop><geoidheight>51.00</geoidheight><course>41.5</course><type>1</type></trkpt>
      <trkpt lat="38.41421268" lon="-2.63936221"><ele>1678</ele><speed>12.20</speed><time>2016-06-02T12:18:34Z</time><pdop>5.0</pdop><geoidheight>51.00</geoidheight><course>63.2</course><type>1</type></trkpt>
      <trkpt lat="38.41426381" lon="-2.63922843"><ele>1682</ele><speed>12.13</speed><time>2016-06-02T12:18:35Z</time><pdop>5.0</pdop><geoidheight>51.00</geoidheight><course>72.5</course><type>1</type></trkpt>
      <trkpt lat="38.41428793" lon="-2.63908981"><ele>1685</ele><speed>11.80</speed><time>2016-06-02T12:18:36Z</time><pdop>4.0</pdop><geoidheight>51.00</geoidheight><course>84.9</course><type>1</type></trkpt>
      <trkpt lat="38.41428602" lon="-2.6389431"><ele>1688</ele><speed>12.42</speed><time>2016-06-02T12:18:37Z</time><pdop>4.0</pdop><geoidheight>51.00</geoidheight><course>95.1</course><type>1</type></trkpt>
      <trkpt lat="38.41427664" lon="-2.63880995"><ele>1690</ele><speed>12.71</speed><time>2016-06-02T12:18:38Z</time><pdop>4.0</pdop><geoidheight>51.00</geoidheight><course>103.5</course><type>1</type></trkpt>
      <trkpt lat="38.4142377" lon="-2.63868347"><ele>1694</ele><speed>12.72</speed><time>2016-06-02T12:18:39Z</time><pdop>4.0</pdop><geoidheight>51.00</geoidheight><course>112.4</course><type>1</type></trkpt>
      <trkpt lat="38.41418347" lon="-2.63857224"><ele>1697</ele><speed>12.48</speed><time>2016-06-02T12:18:40Z</time><pdop>3.0</pdop><geoidheight>51.00</geoidheight><course>120.4</course><type>1</type></trkpt>
      <trkpt lat="38.41413532" lon="-2.63847174"><ele>1701</ele><speed>11.23</speed><time>2016-06-02T12:18:41Z</time><pdop>3.0</pdop><geoidheight>51.00</geoidheight><course>131.0</course><type>1</type></trkpt>
      <trkpt lat="38.4140682" lon="-2.63840133"><ele>1703</ele><speed>9.87</speed><time>2016-06-02T12:18:42Z</time><pdop>3.0</pdop><geoidheight>51.00</geoidheight><course>141.9</course><type>1</type></trkpt>
      <trkpt lat="38.41400192" lon="-2.63834508"><ele>1704</ele><speed>8.87</speed><time>2016-06-02T12:18:43Z</time><pdop>4.0</pdop><geoidheight>51.00</geoidheight><course>146.9</course><type>1</type></trkpt>
      <trkpt lat="38.41384246" lon="-2.6383489"><ele>1704</ele><speed>8.34</speed><time>2016-06-02T12:18:45Z</time><pdop>4.0</pdop><geoidheight>51.00</geoidheight><course>191.1</course><type>1</type></trkpt>
      <trkpt lat="38.41370749" lon="-2.63845139"><ele>1706</ele><speed>8.50</speed><time>2016-06-02T12:18:47Z</time><pdop>6.0</pdop><geoidheight>51.00</geoidheight><course>213.5</course><type>1</type></trkpt>
      <trkpt lat="38.41361963" lon="-2.63860235"><ele>1707</ele><speed>7.59</speed><time>2016-06-02T12:18:49Z</time><pdop>8.0</pdop><geoidheight>51.00</geoidheight><course>228.9</course><type>1</type></trkpt>
      <trkpt lat="38.41379788" lon="-2.6387829"><ele>1714</ele><speed>6.98</speed><time>2016-06-02T12:18:53Z</time><pdop>6.0</pdop><geoidheight>51.00</geoidheight><course>345.3</course><type>1</type></trkpt>
      <trkpt lat="38.41396457" lon="-2.63878397"><ele>1721</ele><speed>7.75</speed><time>2016-06-02T12:18:55Z</time><pdop>4.0</pdop><geoidheight>51.00</geoidheight><course>6.8</course><type>1</type></trkpt>
      <trkpt lat="38.4140377" lon="-2.63877211"><ele>1725</ele><speed>8.89</speed><time>2016-06-02T12:18:56Z</time><pdop>4.0</pdop><geoidheight>51.00</geoidheight><course>11.6</course><type>1</type></trkpt>
      <trkpt lat="38.41413075" lon="-2.63874514"><ele>1727</ele><speed>9.81</speed><time>2016-06-02T12:18:57Z</time><pdop>4.0</pdop><geoidheight>51.00</geoidheight><course>19.1</course><type>1</type></trkpt>
      <trkpt lat="38.41423033" lon="-2.63869775"><ele>1732</ele><speed>10.83</speed><time>2016-06-02T12:18:58Z</time><pdop>4.0</pdop><geoidheight>51.00</geoidheight><course>28.3</course><type>1</type></trkpt>
      <trkpt lat="38.4143116" lon="-2.63862107"><ele>1734</ele><speed>11.39</speed><time>2016-06-02T12:18:59Z</time><pdop>4.0</pdop><geoidheight>51.00</geoidheight><course>35.6</course><type>1</type></trkpt>
      <trkpt lat="38.41440215" lon="-2.63854015"><ele>1737</ele><speed>11.70</speed><time>2016-06-02T12:19:00Z</time><pdop>4.0</pdop><geoidheight>51.00</geoidheight><course>38.5</course><type>1</type></trkpt>
      <trkpt lat="38.41447956" lon="-2.63845454"><ele>1740</ele><speed>11.37</speed><time>2016-06-02T12:19:01Z</time><pdop>4.0</pdop><geoidheight>51.00</geoidheight><course>39.4</course><type>1</type></trkpt>
      <trkpt lat="38.41455146" lon="-2.63836471"><ele>1742</ele><speed>11.30</speed><time>2016-06-02T12:19:02Z</time><pdop>3.0</pdop><geoidheight>51.00</geoidheight><course>43.1</course><type>1</type></trkpt>
      <trkpt lat="38.4146127" lon="-2.6382594"><ele>1745</ele><speed>10.90</speed><time>2016-06-02T12:19:03Z</time><pdop>3.0</pdop><geoidheight>51.00</geoidheight><course>51.7</course><type>1</type></trkpt>
      <trkpt lat="38.41465505" lon="-2.63815469"><ele>1747</ele><speed>10.17</speed><time>2016-06-02T12:19:04Z</time><pdop>3.0</pdop><geoidheight>51.00</geoidheight><course>64.7</course><type>1</type></trkpt>
      <trkpt lat="38.41467851" lon="-2.63803605"><ele>1748</ele><speed>10.29</speed><time>2016-06-02T12:19:05Z</time><pdop>3.0</pdop><geoidheight>51.00</geoidheight><course>76.1</course><type>1</type></trkpt>
      <trkpt lat="38.41467781" lon="-2.63790861"><ele>1749</ele><speed>10.74</speed><time>2016-06-02T12:19:06Z</time><pdop>3.0</pdop><geoidheight>51.00</geoidheight><course>87.3</course><type>1</type></trkpt>
      <trkpt lat="38.41467031" lon="-2.63777704"><ele>1749</ele><speed>11.21</speed><time>2016-06-02T12:19:07Z</time><pdop>3.0</pdop><geoidheight>51.00</geoidheight><course>93.8</course><type>1</type></trkpt>
      <trkpt lat="38.4146667" lon="-2.63764459"><ele>1750</ele><speed>11.87</speed><time>2016-06-02T12:19:08Z</time><pdop>3.0</pdop><geoidheight>51.00</geoidheight><course>98.5</course><type>1</type></trkpt>
      <trkpt lat="38.41464514" lon="-2.63750625"><ele>1750</ele><speed>12.50</speed><time>2016-06-02T12:19:09Z</time><pdop>3.0</pdop><geoidheight>51.00</geoidheight><course>102.2</course><type>1</type></trkpt>
      <trkpt lat="38.4146227" lon="-2.63736868"><ele>1752</ele><speed>12.38</speed><time>2016-06-02T12:19:10Z</time><pdop>4.0</pdop><geoidheight>51.00</geoidheight><course>104.3</course><type>1</type></trkpt>
      <trkpt lat="38.41460683" lon="-2.63724357"><ele>1752</ele><speed>11.96</speed><time>2016-06-02T12:19:11Z</time><pdop>5.0</pdop><geoidheight>51.00</geoidheight><course>103.2</course><type>1</type></trkpt>
      <trkpt lat="38.41449855" lon="-2.63704509"><ele>1752</ele><speed>10.70</speed><time>2016-06-02T12:19:13Z</time><pdop>9.0</pdop><geoidheight>51.00</geoidheight><course>121.7</course><type>1</type></trkpt>
      <trkpt lat="38.41436249" lon="-2.63686327"><ele>1753</ele><speed>9.86</speed><time>2016-06-02T12:19:15Z</time><pdop>9.0</pdop><geoidheight>51.00</geoidheight><course>130.7</course><type>1</type></trkpt>
      <trkpt lat="38.41421379" lon="-2.63672315"><ele>1756</ele><speed>9.65</speed><time>2016-06-02T12:19:17Z</time><pdop>6.0</pdop><geoidheight>51.00</geoidheight><course>141.7</course><type>1</type></trkpt>
      <trkpt lat="38.41412006" lon="-2.63668021"><ele>1756</ele><speed>9.69</speed><time>2016-06-02T12:19:18Z</time><pdop>5.0</pdop><geoidheight>51.00</geoidheight><course>153.4</course><type>1</type></trkpt>
      <trkpt lat="38.41402926" lon="-2.63665825"><ele>1756</ele><speed>9.71</speed><time>2016-06-02T12:19:19Z</time><pdop>5.0</pdop><geoidheight>51.00</geoidheight><course>166.3</course><type>1</type></trkpt>
      <trkpt lat="38.41393165" lon="-2.63665194"><ele>1756</ele><speed>9.60</speed><time>2016-06-02T12:19:20Z</time><pdop>5.0</pdop><geoidheight>51.00</geoidheight><course>178.8</course><type>1</type></trkpt>
      <trkpt lat="38.4137944" lon="-2.63670744"><ele>1762</ele><speed>8.52</speed><time>2016-06-02T12:19:22Z</time><pdop>4.0</pdop><geoidheight>51.00</geoidheight><course>199.9</course><type>1</type></trkpt>
      <trkpt lat="38.41368282" lon="-2.63678572"><ele>1766</ele><speed>7.45</speed><time>2016-06-02T12:19:24Z</time><pdop>4.0</pdop><geoidheight>51.00</geoidheight><course>212.3</course><type>1</type></trkpt>
      <trkpt lat="38.41366126" lon="-2.63692232"><ele>1765</ele><speed>6.08</speed><time>2016-06-02T12:19:26Z</time><pdop>6.0</pdop><geoidheight>51.00</geoidheight><course>254.4</course><type>1</type></trkpt>
      <trkpt lat="38.41373286" lon="-2.63705172"><ele>1766</ele><speed>5.85</speed><time>2016-06-02T12:19:28Z</time><pdop>6.0</pdop><geoidheight>51.00</geoidheight><course>294.9</course><type>1</type></trkpt>
      <trkpt lat="38.41388501" lon="-2.63711921"><ele>1980</ele><speed>7.01</speed><time>2016-06-02T12:19:30Z</time><pdop>5.0</pdop><geoidheight>51.00</geoidheight><course>342.6</course><type>1</type></trkpt>
      <trkpt lat="38.41405022" lon="-2.63713069"><ele>1893</ele><speed>7.74</speed><time>2016-06-02T12:19:32Z</time><pdop>4.0</pdop><geoidheight>51.00</geoidheight><course>2.5</course><type>1</type></trkpt>
      <trkpt lat="38.41413109" lon="-2.63712373"><ele>1884</ele><speed>8.00</speed><time>2016-06-02T12:19:33Z</time><pdop>4.0</pdop><geoidheight>51.00</geoidheight><course>5.3</course><type>1</type></trkpt>
      <trkpt lat="38.41420159" lon="-2.63710298"><ele>1861</ele><speed>8.01</speed><time>2016-06-02T12:19:34Z</time><pdop>4.0</pdop><geoidheight>51.00</geoidheight><course>9.3</course><type>1</type></trkpt>
      <trkpt lat="38.41427773" lon="-2.63706282"><ele>1856</ele><speed>8.30</speed><time>2016-06-02T12:19:35Z</time><pdop>5.0</pdop><geoidheight>51.00</geoidheight><course>22.1</course><type>1</type></trkpt>
      <trkpt lat="38.41435296" lon="-2.6369825"><ele>1847</ele><speed>9.00</speed><time>2016-06-02T12:19:36Z</time><pdop>5.0</pdop><geoidheight>51.00</geoidheight><course>39.6</course><type>1</type></trkpt>
      <trkpt lat="38.41440016" lon="-2.63686202"><ele>1844</ele><speed>10.06</speed><time>2016-06-02T12:19:37Z</time><pdop>5.0</pdop><geoidheight>51.00</geoidheight><course>62.9</course><type>1</type></trkpt>
      <trkpt lat="38.41441041" lon="-2.63673422"><ele>1833</ele><speed>10.58</speed><time>2016-06-02T12:19:38Z</time><pdop>4.0</pdop><geoidheight>51.00</geoidheight><course>77.8</course><type>1</type></trkpt>
      <trkpt lat="38.41442217" lon="-2.63661291"><ele>1826</ele><speed>11.24</speed><time>2016-06-02T12:19:39Z</time><pdop>4.0</pdop><geoidheight>51.00</geoidheight><course>88.4</course><type>1</type></trkpt>
      <trkpt lat="38.41441718" lon="-2.6364758"><ele>1817</ele><speed>11.64</speed><time>2016-06-02T12:19:40Z</time><pdop>4.0</pdop><geoidheight>51.00</geoidheight><course>95.1</course><type>1</type></trkpt>
      <trkpt lat="38.41439382" lon="-2.63634145"><ele>1815</ele><speed>12.10</speed><time>2016-06-02T12:19:41Z</time><pdop>4.0</pdop><geoidheight>51.00</geoidheight><course>102.7</course><type>1</type></trkpt>
      <trkpt lat="38.41435386" lon="-2.63620639"><ele>1814</ele><speed>12.77</speed><time>2016-06-02T12:19:42Z</time><pdop>4.0</pdop><geoidheight>51.00</geoidheight><course>112.2</course><type>1</type></trkpt>
      <trkpt lat="38.41430631" lon="-2.63607204"><ele>1810</ele><speed>12.80</speed><time>2016-06-02T12:19:43Z</time><pdop>4.0</pdop><geoidheight>51.00</geoidheight><course>115.0</course><type>1</type></trkpt>
      <trkpt lat="38.41421781" lon="-2.63596462"><ele>1814</ele><speed>13.19</speed><time>2016-06-02T12:19:44Z</time><pdop>4.0</pdop><geoidheight>51.00</geoidheight><course>128.7</course><type>1</type></trkpt>
      <trkpt lat="38.41412976" lon="-2.63586286"><ele>1814</ele><speed>12.81</speed><time>2016-06-02T12:19:45Z</time><pdop>4.0</pdop><geoidheight>51.00</geoidheight><course>134.3</course><type>1</type></trkpt>
      <trkpt lat="38.41405997" lon="-2.63578581"><ele>1818</ele><speed>10.59</speed><time>2016-06-02T12:19:46Z</time><pdop>4.0</pdop><geoidheight>51.00</geoidheight><course>136.8</course><type>1</type></trkpt>
      <trkpt lat="38.41398832" lon="-2.63571484"><ele>1816</ele><speed>9.77</speed><time>2016-06-02T12:19:47Z</time><pdop>4.0</pdop><geoidheight>51.00</geoidheight><course>140.5</course><type>1</type></trkpt>
      <trkpt lat="38.41390751" lon="-2.63565816"><ele>1815</ele><speed>10.27</speed><time>2016-06-02T12:19:48Z</time><pdop>4.0</pdop><geoidheight>51.00</geoidheight><course>156.1</course><type>1</type></trkpt>
      <trkpt lat="38.4138165" lon="-2.63562394"><ele>1814</ele><speed>10.91</speed><time>2016-06-02T12:19:49Z</time><pdop>4.0</pdop><geoidheight>51.00</geoidheight><course>164.7</course><type>1</type></trkpt>
      <trkpt lat="38.41372378" lon="-2.6356115"><ele>1813</ele><speed>10.79</speed><time>2016-06-02T12:19:50Z</time><pdop>4.0</pdop><geoidheight>51.00</geoidheight><course>175.4</course><type>1</type></trkpt>
      <trkpt lat="38.41363049" lon="-2.6356169"><ele>1812</ele><speed>10.14</speed><time>2016-06-02T12:19:51Z</time><pdop>4.0</pdop><geoidheight>51.00</geoidheight><course>181.1</course><type>1</type></trkpt>
      <trkpt lat="38.41353901" lon="-2.63561912"><ele>1807</ele><speed>10.15</speed><time>2016-06-02T12:19:52Z</time><pdop>5.0</pdop><geoidheight>51.00</geoidheight><course>181.1</course><type>1</type></trkpt>
      <trkpt lat="38.41346772" lon="-2.6356685"><ele>1806</ele><speed>8.82</speed><time>2016-06-02T12:19:53Z</time><pdop>4.0</pdop><geoidheight>51.00</geoidheight><course>198.4</course><type>1</type></trkpt>
      <trkpt lat="38.41336953" lon="-2.63574548"><ele>1807</ele><speed>6.35</speed><time>2016-06-02T12:19:55Z</time><pdop>4.0</pdop><geoidheight>51.00</geoidheight><course>221.0</course><type>1</type></trkpt>
      <trkpt lat="38.41333235" lon="-2.63587782"><ele>1806</ele><speed>6.19</speed><time>2016-06-02T12:19:57Z</time><pdop>5.0</pdop><geoidheight>51.00</geoidheight><course>253.6</course><type>1</type></trkpt>
      <trkpt lat="38.41340436" lon="-2.63599938"><ele>1811</ele><speed>6.15</speed><time>2016-06-02T12:19:59Z</time><pdop>5.0</pdop><geoidheight>51.00</geoidheight><course>308.4</course><type>1</type></trkpt>
      <trkpt lat="38.41351342" lon="-2.63604516"><ele>1812</ele><speed>6.24</speed><time>2016-06-02T12:20:01Z</time><pdop>4.0</pdop><geoidheight>51.00</geoidheight><course>355.2</course><type>1</type></trkpt>
      <trkpt lat="38.4136222" lon="-2.63603439"><ele>1815</ele><speed>6.96</speed><time>2016-06-02T12:20:03Z</time><pdop>6.0</pdop><geoidheight>51.00</geoidheight><course>13.5</course><type>1</type></trkpt>
      <trkpt lat="38.41376357" lon="-2.63591703"><ele>1818</ele><speed>8.66</speed><time>2016-06-02T12:20:05Z</time><pdop>6.0</pdop><geoidheight>51.00</geoidheight><course>37.9</course><type>1</type></trkpt>
      <trkpt lat="38.41388809" lon="-2.63576918"><ele>1822</ele><speed>9.20</speed><time>2016-06-02T12:20:07Z</time><pdop>6.0</pdop><geoidheight>51.00</geoidheight><course>53.6</course><type>1</type></trkpt>
      <trkpt lat="38.41396404" lon="-2.63557604"><ele>1825</ele><speed>10.00</speed><time>2016-06-02T12:20:09Z</time><pdop>5.0</pdop><geoidheight>51.00</geoidheight><course>67.7</course><type>1</type></trkpt>
      <trkpt lat="38.41398333" lon="-2.63545989"><ele>1825</ele><speed>10.46</speed><time>2016-06-02T12:20:10Z</time><pdop>5.0</pdop><geoidheight>51.00</geoidheight><course>78.1</course><type>1</type></trkpt>
      <trkpt lat="38.41399933" lon="-2.63532974"><ele>1825</ele><speed>11.22</speed><time>2016-06-02T12:20:11Z</time><pdop>5.0</pdop><geoidheight>51.00</geoidheight><course>84.9</course><type>1</type></trkpt>
      <trkpt lat="38.41400816" lon="-2.63520183"><ele>1825</ele><speed>11.21</speed><time>2016-06-02T12:20:12Z</time><pdop>6.0</pdop><geoidheight>51.00</geoidheight><course>85.0</course><type>1</type></trkpt>
      <trkpt lat="38.41400158" lon="-2.63506112"><ele>1828</ele><speed>12.04</speed><time>2016-06-02T12:20:13Z</time><pdop>5.0</pdop><geoidheight>51.00</geoidheight><course>94.0</course><type>1</type></trkpt>
      <trkpt lat="38.4139864" lon="-2.63491766"><ele>1829</ele><speed>12.39</speed><time>2016-06-02T12:20:14Z</time><pdop>5.0</pdop><geoidheight>51.00</geoidheight><course>100.1</course><type>1</type></trkpt>
      <trkpt lat="38.41396159" lon="-2.63477971"><ele>1829</ele><speed>12.70</speed><time>2016-06-02T12:20:15Z</time><pdop>4.0</pdop><geoidheight>51.00</geoidheight><course>106.2</course><type>1</type></trkpt>
      <trkpt lat="38.41392966" lon="-2.63464022"><ele>1829</ele><speed>12.69</speed><time>2016-06-02T12:20:16Z</time><pdop>5.0</pdop><geoidheight>51.00</geoidheight><course>106.2</course><type>1</type></trkpt>
      <trkpt lat="38.41386187" lon="-2.6345166"><ele>1829</ele><speed>13.31</speed><time>2016-06-02T12:20:17Z</time><pdop>4.0</pdop><geoidheight>51.00</geoidheight><course>117.9</course><type>1</type></trkpt>
      <trkpt lat="38.41380597" lon="-2.63438542"><ele>1830</ele><speed>12.80</speed><time>2016-06-02T12:20:18Z</time><pdop>4.0</pdop><geoidheight>51.00</geoidheight><course>122.6</course><type>1</type></trkpt>
      <trkpt lat="38.41374392" lon="-2.63426213"><ele>1830</ele><speed>12.78</speed><time>2016-06-02T12:20:19Z</time><pdop>5.0</pdop><geoidheight>51.00</geoidheight><course>122.6</course><type>1</type></trkpt>
      <trkpt lat="38.41365209" lon="-2.63416734"><ele>1830</ele><speed>12.22</speed><time>2016-06-02T12:20:20Z</time><pdop>5.0</pdop><geoidheight>51.00</geoidheight><course>134.1</course><type>1</type></trkpt>
      <trkpt lat="38.41349987" lon="-2.63395194"><ele>1831</ele><speed>12.61</speed><time>2016-06-02T12:20:22Z</time><pdop>10.0</pdop><geoidheight>51.00</geoidheight><course>132.7</course><type>1</type></trkpt>
      <trkpt lat="38.41329219" lon="-2.63364967"><ele>1835</ele><speed>15.76</speed><time>2016-06-02T12:20:24Z</time><pdop>6.0</pdop><geoidheight>51.00</geoidheight><course>122.9</course><type>1</type></trkpt>
      <trkpt lat="38.4132171" lon="-2.63350213"><ele>1839</ele><speed>15.76</speed><time>2016-06-02T12:20:25Z</time><pdop>6.0</pdop><geoidheight>51.00</geoidheight><course>122.9</course><type>1</type></trkpt>
      <trkpt lat="38.413166" lon="-2.63337432"><ele>1848</ele><speed>12.93</speed><time>2016-06-02T12:20:26Z</time><pdop>5.0</pdop><geoidheight>51.00</geoidheight><course>123.0</course><type>1</type></trkpt>
      <trkpt lat="38.41311576" lon="-2.63327234"><ele>1851</ele><speed>11.37</speed><time>2016-06-02T12:20:27Z</time><pdop>5.0</pdop><geoidheight>51.00</geoidheight><course>125.5</course><type>1</type></trkpt>
      <trkpt lat="38.41305951" lon="-2.63317115"><ele>1853</ele><speed>11.14</speed><time>2016-06-02T12:20:28Z</time><pdop>4.0</pdop><geoidheight>51.00</geoidheight><course>128.7</course><type>1</type></trkpt>
      <trkpt lat="38.41300447" lon="-2.63306984"><ele>1855</ele><speed>11.31</speed><time>2016-06-02T12:20:29Z</time><pdop>4.0</pdop><geoidheight>51.00</geoidheight><course>134.0</course><type>1</type></trkpt>
      <trkpt lat="38.4129335" lon="-2.6329726"><ele>1855</ele><speed>11.43</speed><time>2016-06-02T12:20:30Z</time><pdop>5.0</pdop><geoidheight>51.00</geoidheight><course>137.0</course><type>1</type></trkpt>
      <trkpt lat="38.41282941" lon="-2.63292585"><ele>1855</ele><speed>11.44</speed><time>2016-06-02T12:20:31Z</time><pdop>5.0</pdop><geoidheight>51.00</geoidheight><course>157.2</course><type>1</type></trkpt>
      <trkpt lat="38.41273438" lon="-2.63287516"><ele>1855</ele><speed>11.44</speed><time>2016-06-02T12:20:32Z</time><pdop>6.0</pdop><geoidheight>51.00</geoidheight><course>157.2</course><type>1</type></trkpt>
      <trkpt lat="38.41261887" lon="-2.63293661"><ele>1854</ele><speed>6.23</speed><time>2016-06-02T12:20:34Z</time><pdop>5.0</pdop><geoidheight>51.00</geoidheight><course>210.7</course><type>1</type></trkpt>
      <trkpt lat="38.41258836" lon="-2.63307839"><ele>1853</ele><speed>6.15</speed><time>2016-06-02T12:20:36Z</time><pdop>7.0</pdop><geoidheight>51.00</geoidheight><course>258.8</course><type>1</type></trkpt>
      <trkpt lat="38.41267409" lon="-2.63327019"><ele>1851</ele><speed>6.72</speed><time>2016-06-02T12:20:39Z</time><pdop>9.0</pdop><geoidheight>51.00</geoidheight><course>315.0</course><type>1</type></trkpt>
      <trkpt lat="38.41283041" lon="-2.63337796"><ele>1853</ele><speed>6.57</speed><time>2016-06-02T12:20:42Z</time><pdop>10.0</pdop><geoidheight>51.00</geoidheight><course>333.2</course><type>1</type></trkpt>
      <trkpt lat="38.41302467" lon="-2.63324324"><ele>1855</ele><speed>6.85</speed><time>2016-06-02T12:20:45Z</time><pdop>7.0</pdop><geoidheight>51.00</geoidheight><course>40.6</course><type>1</type></trkpt>
      <trkpt lat="38.41313944" lon="-2.63302513"><ele>1859</ele><speed>9.18</speed><time>2016-06-02T12:20:47Z</time><pdop>6.0</pdop><geoidheight>51.00</geoidheight><course>55.9</course><type>1</type></trkpt>
      <trkpt lat="38.41325788" lon="-2.63282014"><ele>1861</ele><speed>9.74</speed><time>2016-06-02T12:20:49Z</time><pdop>5.0</pdop><geoidheight>51.00</geoidheight><course>48.1</course><type>1</type></trkpt>
      <trkpt lat="38.41334444" lon="-2.63274115"><ele>1864</ele><speed>9.89</speed><time>2016-06-02T12:20:50Z</time><pdop>5.0</pdop><geoidheight>51.00</geoidheight><course>36.1</course><type>1</type></trkpt>
      <trkpt lat="38.41343283" lon="-2.63268621"><ele>1867</ele><speed>10.46</speed><time>2016-06-02T12:20:51Z</time><pdop>4.0</pdop><geoidheight>51.00</geoidheight><course>22.0</course><type>1</type></trkpt>
      <trkpt lat="38.41353564" lon="-2.63266794"><ele>1870</ele><speed>10.62</speed><time>2016-06-02T12:20:52Z</time><pdop>4.0</pdop><geoidheight>51.00</geoidheight><course>7.7</course><type>1</type></trkpt>
      <trkpt lat="38.41364942" lon="-2.63264709"><ele>1873</ele><speed>10.57</speed><time>2016-06-02T12:20:53Z</time><pdop>5.0</pdop><geoidheight>51.00</geoidheight><course>3.0</course><type>1</type></trkpt>
      <trkpt lat="38.41380112" lon="-2.63264776"><ele>1873</ele><speed>9.05</speed><time>2016-06-02T12:20:55Z</time><pdop>8.0</pdop><geoidheight>51.00</geoidheight><course>0.4</course><type>1</type></trkpt>
      <trkpt lat="38.41380637" lon="-2.63287307"><ele>1877</ele><speed>5.97</speed><time>2016-06-02T12:20:58Z</time><pdop>5.0</pdop><geoidheight>51.00</geoidheight><course>273.5</course><type>1</type></trkpt>
      <trkpt lat="38.41375866" lon="-2.63302763"><ele>1879</ele><speed>6.94</speed><time>2016-06-02T12:21:00Z</time><pdop>4.0</pdop><geoidheight>51.00</geoidheight><course>242.5</course><type>1</type></trkpt>
      <trkpt lat="38.41371934" lon="-2.63310063"><ele>1880</ele><speed>7.52</speed><time>2016-06-02T12:21:01Z</time><pdop>3.0</pdop><geoidheight>51.00</geoidheight><course>230.0</course><type>1</type></trkpt>
      <trkpt lat="38.41367986" lon="-2.63316811"><ele>1881</ele><speed>7.19</speed><time>2016-06-02T12:21:02Z</time><pdop>4.0</pdop><geoidheight>51.00</geoidheight><course>226.5</course><type>1</type></trkpt>
      <trkpt lat="38.41353872" lon="-2.63325455"><ele>1882</ele><speed>7.70</speed><time>2016-06-02T12:21:04Z</time><pdop>5.0</pdop><geoidheight>51.00</geoidheight><course>203.8</course><type>1</type></trkpt>
      <trkpt lat="38.41343946" lon="-2.63326455"><ele>1882</ele><speed>8.90</speed><time>2016-06-02T12:21:05Z</time><pdop>6.0</pdop><geoidheight>51.00</geoidheight><course>191.3</course><type>1</type></trkpt>
      <trkpt lat="38.4131557" lon="-2.63316541"><ele>1881</ele><speed>12.56</speed><time>2016-06-02T12:21:07Z</time><pdop>6.0</pdop><geoidheight>51.00</geoidheight><course>168.9</course><type>1</type></trkpt>
      <trkpt lat="38.41301163" lon="-2.63308403"><ele>1882</ele><speed>13.85</speed><time>2016-06-02T12:21:08Z</time><pdop>6.0</pdop><geoidheight>51.00</geoidheight><course>161.4</course><type>1</type></trkpt>
      <trkpt lat="38.4128541" lon="-2.63289225"><ele>1882</ele><speed>13.80</speed><time>2016-06-02T12:21:10Z</time><pdop>5.0</pdop><geoidheight>51.00</geoidheight><course>138.6</course><type>1</type></trkpt>
      <trkpt lat="38.41283279" lon="-2.63276836"><ele>1883</ele><speed>12.56</speed><time>2016-06-02T12:21:11Z</time><pdop>5.0</pdop><geoidheight>51.00</geoidheight><course>127.7</course><type>1</type></trkpt>
      <trkpt lat="38.41280154" lon="-2.63260884"><ele>1888</ele><speed>13.02</speed><time>2016-06-02T12:21:12Z</time><pdop>4.0</pdop><geoidheight>51.00</geoidheight><course>110.4</course><type>1</type></trkpt>
      <trkpt lat="38.4127593" lon="-2.63245284"><ele>1891</ele><speed>13.25</speed><time>2016-06-02T12:21:13Z</time><pdop>4.0</pdop><geoidheight>51.00</geoidheight><course>105.4</course><type>1</type></trkpt>
      <trkpt lat="38.41273806" lon="-2.63229548"><ele>1893</ele><speed>13.34</speed><time>2016-06-02T12:21:14Z</time><pdop>3.0</pdop><geoidheight>51.00</geoidheight><course>97.8</course><type>1</type></trkpt>
      <trkpt lat="38.41274009" lon="-2.63214706"><ele>1895</ele><speed>12.79</speed><time>2016-06-02T12:21:15Z</time><pdop>3.0</pdop><geoidheight>51.00</geoidheight><course>90.3</course><type>1</type></trkpt>
      <trkpt lat="38.41276127" lon="-2.63200437"><ele>1896</ele><speed>12.13</speed><time>2016-06-02T12:21:16Z</time><pdop>3.0</pdop><geoidheight>51.00</geoidheight><course>84.3</course><type>1</type></trkpt>
      <trkpt lat="38.41275471" lon="-2.63187276"><ele>1899</ele><speed>11.74</speed><time>2016-06-02T12:21:17Z</time><pdop>4.0</pdop><geoidheight>51.00</geoidheight><course>85.4</course><type>1</type></trkpt>
      <trkpt lat="38.41276206" lon="-2.63174649"><ele>1902</ele><speed>11.18</speed><time>2016-06-02T12:21:18Z</time><pdop>4.0</pdop><geoidheight>51.00</geoidheight><course>84.0</course><type>1</type></trkpt>
      <trkpt lat="38.41278399" lon="-2.63162045"><ele>1906</ele><speed>10.87</speed><time>2016-06-02T12:21:19Z</time><pdop>3.0</pdop><geoidheight>51.00</geoidheight><course>78.7</course><type>1</type></trkpt>
      <trkpt lat="38.4128094" lon="-2.63151152"><ele>1907</ele><speed>10.44</speed><time>2016-06-02T12:21:20Z</time><pdop>3.0</pdop><geoidheight>51.00</geoidheight><course>75.9</course><type>1</type></trkpt>
      <trkpt lat="38.4128439" lon="-2.6313865"><ele>1910</ele><speed>10.69</speed><time>2016-06-02T12:21:21Z</time><pdop>3.0</pdop><geoidheight>51.00</geoidheight><course>72.8</course><type>1</type></trkpt>
      <trkpt lat="38.41289254" lon="-2.63126272"><ele>1910</ele><speed>11.54</speed><time>2016-06-02T12:21:22Z</time><pdop>3.0</pdop><geoidheight>51.00</geoidheight><course>67.7</course><type>1</type></trkpt>
      <trkpt lat="38.4129483" lon="-2.63113963"><ele>1911</ele><speed>12.59</speed><time>2016-06-02T12:21:23Z</time><pdop>3.0</pdop><geoidheight>51.00</geoidheight><course>61.5</course><type>1</type></trkpt>
      <trkpt lat="38.41301859" lon="-2.63101113"><ele>1912</ele><speed>13.09</speed><time>2016-06-02T12:21:24Z</time><pdop>3.0</pdop><geoidheight>51.00</geoidheight><course>57.4</course><type>1</type></trkpt>
      <trkpt lat="38.4130842" lon="-2.63089438"><ele>1914</ele><speed>12.33</speed><time>2016-06-02T12:21:25Z</time><pdop>4.0</pdop><geoidheight>51.00</geoidheight><course>53.5</course><type>1</type></trkpt>
      <trkpt lat="38.41315135" lon="-2.63080026"><ele>1914</ele><speed>10.17</speed><time>2016-06-02T12:21:26Z</time><pdop>4.0</pdop><geoidheight>51.00</geoidheight><course>43.0</course><type>1</type></trkpt>
      <trkpt lat="38.41321294" lon="-2.63072577"><ele>1914</ele><speed>9.80</speed><time>2016-06-02T12:21:27Z</time><pdop>4.0</pdop><geoidheight>51.00</geoidheight><course>39.2</course><type>1</type></trkpt>
      <trkpt lat="38.41328859" lon="-2.63065818"><ele>1916</ele><speed>9.79</speed><time>2016-06-02T12:21:28Z</time><pdop>4.0</pdop><geoidheight>51.00</geoidheight><course>38.5</course><type>1</type></trkpt>
      <trkpt lat="38.41335743" lon="-2.63060462"><ele>1916</ele><speed>10.02</speed><time>2016-06-02T12:21:29Z</time><pdop>4.0</pdop><geoidheight>51.00</geoidheight><course>38.1</course><type>1</type></trkpt>
      <trkpt lat="38.41344262" lon="-2.63052895"><ele>1917</ele><speed>11.19</speed><time>2016-06-02T12:21:30Z</time><pdop>4.0</pdop><geoidheight>51.00</geoidheight><course>35.0</course><type>1</type></trkpt>
      <trkpt lat="38.413525" lon="-2.63045551"><ele>1917</ele><speed>11.18</speed><time>2016-06-02T12:21:31Z</time><pdop>4.0</pdop><geoidheight>51.00</geoidheight><course>35.0</course><type>1</type></trkpt>
      <trkpt lat="38.4136228" lon="-2.63039476"><ele>1918</ele><speed>11.38</speed><time>2016-06-02T12:21:32Z</time><pdop>5.0</pdop><geoidheight>51.00</geoidheight><course>30.3</course><type>1</type></trkpt>
      <trkpt lat="38.41380893" lon="-2.63031296"><ele>1921</ele><speed>10.26</speed><time>2016-06-02T12:21:34Z</time><pdop>6.0</pdop><geoidheight>51.00</geoidheight><course>27.3</course><type>1</type></trkpt>
      <trkpt lat="38.41389979" lon="-2.63021859"><ele>1928</ele><speed>11.24</speed><time>2016-06-02T12:21:35Z</time><pdop>5.0</pdop><geoidheight>51.00</geoidheight><course>42.7</course><type>1</type></trkpt>
      <trkpt lat="38.41395932" lon="-2.63012845"><ele>1931</ele><speed>11.50</speed><time>2016-06-02T12:21:36Z</time><pdop>5.0</pdop><geoidheight>51.00</geoidheight><course>50.7</course><type>1</type></trkpt>
      <trkpt lat="38.41407304" lon="-2.62994063"><ele>1932</ele><speed>11.45</speed><time>2016-06-02T12:21:38Z</time><pdop>6.0</pdop><geoidheight>51.00</geoidheight><course>48.6</course><type>1</type></trkpt>
      <trkpt lat="38.41416077" lon="-2.62984033"><ele>1934</ele><speed>11.35</speed><time>2016-06-02T12:21:39Z</time><pdop>5.0</pdop><geoidheight>51.00</geoidheight><course>45.3</course><type>1</type></trkpt>
      <trkpt lat="38.41423769" lon="-2.6297591"><ele>1936</ele><speed>10.45</speed><time>2016-06-02T12:21:40Z</time><pdop>4.0</pdop><geoidheight>51.00</geoidheight><course>39.7</course><type>1</type></trkpt>
      <trkpt lat="38.4142993" lon="-2.62967655"><ele>1938</ele><speed>9.94</speed><time>2016-06-02T12:21:41Z</time><pdop>4.0</pdop><geoidheight>51.00</geoidheight><course>40.7</course><type>1</type></trkpt>
      <trkpt lat="38.41443049" lon="-2.62954901"><ele>1942</ele><speed>8.80</speed><time>2016-06-02T12:21:43Z</time><pdop>5.0</pdop><geoidheight>51.00</geoidheight><course>31.3</course><type>1</type></trkpt>
      <trkpt lat="38.41456914" lon="-2.62945957"><ele>1943</ele><speed>8.43</speed><time>2016-06-02T12:21:45Z</time><pdop>7.0</pdop><geoidheight>51.00</geoidheight><course>22.4</course><type>1</type></trkpt>
      <trkpt lat="38.41472936" lon="-2.62942234"><ele>1943</ele><speed>8.71</speed><time>2016-06-02T12:21:47Z</time><pdop>11.0</pdop><geoidheight>51.00</geoidheight><course>10.0</course><type>1</type></trkpt>
      <trkpt lat="38.41481003" lon="-2.62963885"><ele>1947</ele><speed>5.02</speed><time>2016-06-02T12:21:52Z</time><pdop>7.0</pdop><geoidheight>51.00</geoidheight><course>296.7</course><type>1</type></trkpt>
      <trkpt lat="38.41489743" lon="-2.62975728"><ele>1951</ele><speed>5.81</speed><time>2016-06-02T12:21:54Z</time><pdop>5.0</pdop><geoidheight>51.00</geoidheight><course>292.3</course><type>1</type></trkpt>
      <trkpt lat="38.41485422" lon="-2.629939"><ele>1952</ele><speed>7.73</speed><time>2016-06-02T12:21:56Z</time><pdop>4.0</pdop><geoidheight>51.00</geoidheight><course>249.0</course><type>1</type></trkpt>
      <trkpt lat="38.41480629" lon="-2.63002522"><ele>1954</ele><speed>8.76</speed><time>2016-06-02T12:21:57Z</time><pdop>4.0</pdop><geoidheight>51.00</geoidheight><course>233.2</course><type>1</type></trkpt>
      <trkpt lat="38.41472325" lon="-2.63012624"><ele>1954</ele><speed>7.62</speed><time>2016-06-02T12:21:59Z</time><pdop>6.0</pdop><geoidheight>51.00</geoidheight><course>215.8</course><type>1</type></trkpt>
      <trkpt lat="38.41452226" lon="-2.63017687"><ele>1954</ele><speed>6.99</speed><time>2016-06-02T12:22:02Z</time><pdop>12.0</pdop><geoidheight>51.00</geoidheight><course>191.1</course><type>1</type></trkpt>
      <trkpt lat="38.41425513" lon="-2.6300542"><ele>1956</ele><speed>10.53</speed><time>2016-06-02T12:22:04Z</time><pdop>11.0</pdop><geoidheight>51.00</geoidheight><course>166.8</course><type>1</type></trkpt>
      <trkpt lat="38.41406731" lon="-2.62971338"><ele>1959</ele><speed>13.91</speed><time>2016-06-02T12:22:06Z</time><pdop>9.0</pdop><geoidheight>51.00</geoidheight><course>134.4</course><type>1</type></trkpt>
      <trkpt lat="38.41397746" lon="-2.62937894"><ele>1964</ele><speed>13.49</speed><time>2016-06-02T12:22:08Z</time><pdop>10.0</pdop><geoidheight>51.00</geoidheight><course>116.1</course><type>1</type></trkpt>
      <trkpt lat="38.41410084" lon="-2.62902699"><ele>1971</ele><speed>13.05</speed><time>2016-06-02T12:22:10Z</time><pdop>6.0</pdop><geoidheight>51.00</geoidheight><course>77.4</course><type>1</type></trkpt>
      <trkpt lat="38.41413269" lon="-2.62885859"><ele>1975</ele><speed>13.89</speed><time>2016-06-02T12:22:11Z</time><pdop>6.0</pdop><geoidheight>51.00</geoidheight><course>78.5</course><type>1</type></trkpt>
      <trkpt lat="38.41415845" lon="-2.62869718"><ele>1979</ele><speed>13.89</speed><time>2016-06-02T12:22:12Z</time><pdop>5.0</pdop><geoidheight>51.00</geoidheight><course>80.0</course><type>1</type></trkpt>
      <trkpt lat="38.41418638" lon="-2.62853791"><ele>1982</ele><speed>13.49</speed><time>2016-06-02T12:22:13Z</time><pdop>5.0</pdop><geoidheight>51.00</geoidheight><course>78.7</course><type>1</type></trkpt>
      <trkpt lat="38.41422" lon="-2.62838585"><ele>1985</ele><speed>13.02</speed><time>2016-06-02T12:22:14Z</time><pdop>4.0</pdop><geoidheight>51.00</geoidheight><course>74.6</course><type>1</type></trkpt>
      <trkpt lat="38.41427569" lon="-2.6282486"><ele>1988</ele><speed>12.78</speed><time>2016-06-02T12:22:15Z</time><pdop>4.0</pdop><geoidheight>51.00</geoidheight><course>68.0</course><type>1</type></trkpt>
      <trkpt lat="38.41433955" lon="-2.62813963"><ele>1989</ele><speed>12.38</speed><time>2016-06-02T12:22:16Z</time><pdop>4.0</pdop><geoidheight>51.00</geoidheight><course>61.1</course><type>1</type></trkpt>
      <trkpt lat="38.41442086" lon="-2.62800552"><ele>1993</ele><speed>12.88</speed><time>2016-06-02T12:22:17Z</time><pdop>4.0</pdop><geoidheight>51.00</geoidheight><course>53.8</course><type>1</type></trkpt>
      <trkpt lat="38.41450702" lon="-2.62789474"><ele>1996</ele><speed>12.98</speed><time>2016-06-02T12:22:18Z</time><pdop>4.0</pdop><geoidheight>51.00</geoidheight><course>49.4</course><type>1</type></trkpt>
      <trkpt lat="38.41458542" lon="-2.62779557"><ele>1997</ele><speed>11.75</speed><time>2016-06-02T12:22:19Z</time><pdop>4.0</pdop><geoidheight>51.00</geoidheight><course>46.4</course><type>1</type></trkpt>
      <trkpt lat="38.4146629" lon="-2.62774794"><ele>1997</ele><speed>10.46</speed><time>2016-06-02T12:22:20Z</time><pdop>5.0</pdop><geoidheight>51.00</geoidheight><course>34.4</course><type>1</type></trkpt>
      <trkpt lat="38.41484921" lon="-2.62768584"><ele>1998</ele><speed>10.09</speed><time>2016-06-02T12:22:22Z</time><pdop>8.0</pdop><geoidheight>51.00</geoidheight><course>20.8</course><type>1</type></trkpt>
      <trkpt lat="38.41501318" lon="-2.62764985"><ele>2002</ele><speed>6.31</speed><time>2016-06-02T12:22:25Z</time><pdop>8.0</pdop><geoidheight>51.00</geoidheight><course>4.1</course><type>1</type></trkpt>
      <trkpt lat="38.41513813" lon="-2.62770549"><ele>2005</ele><speed>5.94</speed><time>2016-06-02T12:22:27Z</time><pdop>6.0</pdop><geoidheight>51.00</geoidheight><course>332.2</course><type>1</type></trkpt>
      <trkpt lat="38.41521861" lon="-2.62782649"><ele>2008</ele><speed>6.81</speed><time>2016-06-02T12:22:29Z</time><pdop>6.0</pdop><geoidheight>51.00</geoidheight><course>311.9</course><type>1</type></trkpt>
      <trkpt lat="38.41534514" lon="-2.62796185"><ele>2005</ele><speed>7.12</speed><time>2016-06-02T12:22:31Z</time><pdop>8.0</pdop><geoidheight>51.00</geoidheight><course>313.3</course><type>1</type></trkpt>
      <trkpt lat="38.41545563" lon="-2.62812713"><ele>2012</ele><speed>5.96</speed><time>2016-06-02T12:22:34Z</time><pdop>7.0</pdop><geoidheight>51.00</geoidheight><course>317.8</course><type>1</type></trkpt>
      <trkpt lat="38.41557635" lon="-2.62824282"><ele>2015</ele><speed>5.78</speed><time>2016-06-02T12:22:36Z</time><pdop>8.0</pdop><geoidheight>51.00</geoidheight><course>311.1</course><type>1</type></trkpt>
      <trkpt lat="38.41564337" lon="-2.62852793"><ele>2022</ele><speed>7.63</speed><time>2016-06-02T12:22:39Z</time><pdop>9.0</pdop><geoidheight>51.00</geoidheight><course>268.3</course><type>1</type></trkpt>
      <trkpt lat="38.41558198" lon="-2.62871937"><ele>2030</ele><speed>7.48</speed><time>2016-06-02T12:22:41Z</time><pdop>8.0</pdop><geoidheight>51.00</geoidheight><course>250.7</course><type>1</type></trkpt>
      <trkpt lat="38.41556118" lon="-2.62896042"><ele>2041</ele><speed>6.82</speed><time>2016-06-02T12:22:44Z</time><pdop>7.0</pdop><geoidheight>51.00</geoidheight><course>259.4</course><type>1</type></trkpt>
      <trkpt lat="38.415533" lon="-2.62910895"><ele>2049</ele><speed>7.42</speed><time>2016-06-02T12:22:46Z</time><pdop>6.0</pdop><geoidheight>51.00</geoidheight><course>239.2</course><type>1</type></trkpt>
      <trkpt lat="38.41542978" lon="-2.6292524"><ele>2054</ele><speed>8.99</speed><time>2016-06-02T12:22:48Z</time><pdop>7.0</pdop><geoidheight>51.00</geoidheight><course>224.5</course><type>1</type></trkpt>
      <trkpt lat="38.41533103" lon="-2.62940332"><ele>2059</ele><speed>8.81</speed><time>2016-06-02T12:22:50Z</time><pdop>8.0</pdop><geoidheight>51.00</geoidheight><course>224.1</course><type>1</type></trkpt>
      <trkpt lat="38.41517089" lon="-2.62949091"><ele>2064</ele><speed>9.23</speed><time>2016-06-02T12:22:52Z</time><pdop>8.0</pdop><geoidheight>51.00</geoidheight><course>207.7</course><type>1</type></trkpt>
      <trkpt lat="38.41501016" lon="-2.62958579"><ele>2067</ele><speed>9.75</speed><time>2016-06-02T12:22:54Z</time><pdop>6.0</pdop><geoidheight>51.00</geoidheight><course>205.4</course><type>1</type></trkpt>
      <trkpt lat="38.41487367" lon="-2.62968275"><ele>2070</ele><speed>10.19</speed><time>2016-06-02T12:22:56Z</time><pdop>7.0</pdop><geoidheight>51.00</geoidheight><course>205.0</course><type>1</type></trkpt>
      <trkpt lat="38.41464789" lon="-2.62975753"><ele>2071</ele><speed>10.85</speed><time>2016-06-02T12:22:58Z</time><pdop>10.0</pdop><geoidheight>51.00</geoidheight><course>197.8</course><type>1</type></trkpt>
      <trkpt lat="38.41454725" lon="-2.62994352"><ele>2078</ele><speed>7.71</speed><time>2016-06-02T12:23:01Z</time><pdop>6.0</pdop><geoidheight>51.00</geoidheight><course>229.2</course><type>1</type></trkpt>
      <trkpt lat="38.41442138" lon="-2.63007783"><ele>2081</ele><speed>8.58</speed><time>2016-06-02T12:23:03Z</time><pdop>6.0</pdop><geoidheight>51.00</geoidheight><course>215.7</course><type>1</type></trkpt>
      <trkpt lat="38.41430086" lon="-2.63019187"><ele>2083</ele><speed>8.56</speed><time>2016-06-02T12:23:05Z</time><pdop>8.0</pdop><geoidheight>51.00</geoidheight><course>214.3</course><type>1</type></trkpt>
      <trkpt lat="38.41421763" lon="-2.63032178"><ele>2084</ele><speed>7.27</speed><time>2016-06-02T12:23:07Z</time><pdop>6.0</pdop><geoidheight>51.00</geoidheight><course>229.6</course><type>1</type></trkpt>
      <trkpt lat="38.4141502" lon="-2.63045827"><ele>2219</ele><speed>7.02</speed><time>2016-06-02T12:23:09Z</time><pdop>5.0</pdop><geoidheight>51.00</geoidheight><course>238.0</course><type>1</type></trkpt>
      <trkpt lat="38.41408613" lon="-2.63061563"><ele>2163</ele><speed>7.31</speed><time>2016-06-02T12:23:11Z</time><pdop>6.0</pdop><geoidheight>51.00</geoidheight><course>246.9</course><type>1</type></trkpt>
      <trkpt lat="38.41410999" lon="-2.63076627"><ele>2151</ele><speed>9.83</speed><time>2016-06-02T12:23:12Z</time><pdop>5.0</pdop><geoidheight>51.00</geoidheight><course>269.8</course><type>1</type></trkpt>
      <trkpt lat="38.41411556" lon="-2.63089806"><ele>2140</ele><speed>10.45</speed><time>2016-06-02T12:23:13Z</time><pdop>5.0</pdop><geoidheight>51.00</geoidheight><course>272.1</course><type>1</type></trkpt>
      <trkpt lat="38.41415911" lon="-2.63101013"><ele>2131</ele><speed>10.22</speed><time>2016-06-02T12:23:14Z</time><pdop>5.0</pdop><geoidheight>51.00</geoidheight><course>283.1</course><type>1</type></trkpt>
      <trkpt lat="38.41423209" lon="-2.63119541"><ele>2116</ele><speed>8.96</speed><time>2016-06-02T12:23:16Z</time><pdop>9.0</pdop><geoidheight>51.00</geoidheight><course>301.3</course><type>1</type></trkpt>
      <trkpt lat="38.41442061" lon="-2.63137466"><ele>2099</ele><speed>9.63</speed><time>2016-06-02T12:23:19Z</time><pdop>9.0</pdop><geoidheight>51.00</geoidheight><course>332.1</course><type>1</type></trkpt>
      <trkpt lat="38.41463061" lon="-2.63135889"><ele>2086</ele><speed>11.19</speed><time>2016-06-02T12:23:21Z</time><pdop>9.0</pdop><geoidheight>51.00</geoidheight><course>9.2</course><type>1</type></trkpt>
      <trkpt lat="38.41481267" lon="-2.63122182"><ele>2081</ele><speed>11.38</speed><time>2016-06-02T12:23:23Z</time><pdop>9.0</pdop><geoidheight>51.00</geoidheight><course>36.3</course><type>1</type></trkpt>
      <trkpt lat="38.41492592" lon="-2.63103204"><ele>2079</ele><speed>10.61</speed><time>2016-06-02T12:23:25Z</time><pdop>9.0</pdop><geoidheight>51.00</geoidheight><course>53.8</course><type>1</type></trkpt>
      <trkpt lat="38.41499272" lon="-2.6307933"><ele>2070</ele><speed>11.36</speed><time>2016-06-02T12:23:27Z</time><pdop>9.0</pdop><geoidheight>51.00</geoidheight><course>75.2</course><type>1</type></trkpt>
      <trkpt lat="38.41504732" lon="-2.63050193"><ele>2063</ele><speed>13.32</speed><time>2016-06-02T12:23:29Z</time><pdop>9.0</pdop><geoidheight>51.00</geoidheight><course>75.9</course><type>1</type></trkpt>
      <trkpt lat="38.4151248" lon="-2.63020977"><ele>2056</ele><speed>13.77</speed><time>2016-06-02T12:23:31Z</time><pdop>9.0</pdop><geoidheight>51.00</geoidheight><course>70.8</course><type>1</type></trkpt>
      <trkpt lat="38.41521169" lon="-2.62993604"><ele>2053</ele><speed>12.46</speed><time>2016-06-02T12:23:33Z</time><pdop>9.0</pdop><geoidheight>51.00</geoidheight><course>65.4</course><type>1</type></trkpt>
      <trkpt lat="38.41529487" lon="-2.6296861"><ele>2051</ele><speed>11.53</speed><time>2016-06-02T12:23:35Z</time><pdop>9.0</pdop><geoidheight>51.00</geoidheight><course>67.1</course><type>1</type></trkpt>
      <trkpt lat="38.41538763" lon="-2.62943203"><ele>2048</ele><speed>12.28</speed><time>2016-06-02T12:23:37Z</time><pdop>9.0</pdop><geoidheight>51.00</geoidheight><course>61.7</course><type>1</type></trkpt>
      <trkpt lat="38.4155047" lon="-2.62918842"><ele>2046</ele><speed>12.80</speed><time>2016-06-02T12:23:39Z</time><pdop>9.0</pdop><geoidheight>51.00</geoidheight><course>58.7</course><type>1</type></trkpt>
      <trkpt lat="38.41562209" lon="-2.62895145"><ele>2048</ele><speed>12.01</speed><time>2016-06-02T12:23:41Z</time><pdop>9.0</pdop><geoidheight>51.00</geoidheight><course>57.7</course><type>1</type></trkpt>
      <trkpt lat="38.41574442" lon="-2.62876358"><ele>2049</ele><speed>10.83</speed><time>2016-06-02T12:23:43Z</time><pdop>9.0</pdop><geoidheight>51.00</geoidheight><course>50.4</course><type>1</type></trkpt>
      <trkpt lat="38.41586204" lon="-2.62858127"><ele>2048</ele><speed>10.69</speed><time>2016-06-02T12:23:45Z</time><pdop>9.0</pdop><geoidheight>51.00</geoidheight><course>48.9</course><type>1</type></trkpt>
      <trkpt lat="38.41602047" lon="-2.62841321"><ele>2050</ele><speed>10.87</speed><time>2016-06-02T12:23:47Z</time><pdop>9.0</pdop><geoidheight>51.00</geoidheight><course>40.7</course><type>1</type></trkpt>
      <trkpt lat="38.41617642" lon="-2.62825398"><ele>2049</ele><speed>11.69</speed><time>2016-06-02T12:23:49Z</time><pdop>9.0</pdop><geoidheight>51.00</geoidheight><course>39.5</course><type>1</type></trkpt>
      <trkpt lat="38.41631295" lon="-2.62804637"><ele>2048</ele><speed>11.96</speed><time>2016-06-02T12:23:51Z</time><pdop>9.0</pdop><geoidheight>51.00</geoidheight><course>51.0</course><type>1</type></trkpt>
      <trkpt lat="38.41645017" lon="-2.62787032"><ele>2052</ele><speed>9.80</speed><time>2016-06-02T12:23:53Z</time><pdop>9.0</pdop><geoidheight>51.00</geoidheight><course>45.4</course><type>1</type></trkpt>
      <trkpt lat="38.41666696" lon="-2.62781811"><ele>2053</ele><speed>8.51</speed><time>2016-06-02T12:23:56Z</time><pdop>9.0</pdop><geoidheight>51.00</geoidheight><course>353.7</course><type>1</type></trkpt>
      <trkpt lat="38.41682438" lon="-2.62790817"><ele>2052</ele><speed>9.63</speed><time>2016-06-02T12:23:58Z</time><pdop>9.0</pdop><geoidheight>51.00</geoidheight><course>332.6</course><type>1</type></trkpt>
      <trkpt lat="38.41692737" lon="-2.62808553"><ele>2050</ele><speed>9.71</speed><time>2016-06-02T12:24:00Z</time><pdop>9.0</pdop><geoidheight>51.00</geoidheight><course>306.4</course><type>1</type></trkpt>
      <trkpt lat="38.4169531" lon="-2.62829488"><ele>2049</ele><speed>8.95</speed><time>2016-06-02T12:24:02Z</time><pdop>9.0</pdop><geoidheight>51.00</geoidheight><course>277.1</course><type>1</type></trkpt>
      <trkpt lat="38.41686808" lon="-2.62858026"><ele>2050</ele><speed>9.27</speed><time>2016-06-02T12:24:05Z</time><pdop>9.0</pdop><geoidheight>51.00</geoidheight><course>237.3</course><type>1</type></trkpt>
      <trkpt lat="38.41673867" lon="-2.62871291"><ele>2050</ele><speed>9.12</speed><time>2016-06-02T12:24:07Z</time><pdop>9.0</pdop><geoidheight>51.00</geoidheight><course>218.7</course><type>1</type></trkpt>
      <trkpt lat="38.41651585" lon="-2.62869452"><ele>2050</ele><speed>7.59</speed><time>2016-06-02T12:24:10Z</time><pdop>9.0</pdop><geoidheight>51.00</geoidheight><course>176.3</course><type>1</type></trkpt>
      <trkpt lat="38.41633577" lon="-2.62863344"><ele>2049</ele><speed>9.37</speed><time>2016-06-02T12:24:12Z</time><pdop>9.0</pdop><geoidheight>51.00</geoidheight><course>167.7</course><type>1</type></trkpt>
      <trkpt lat="38.41615318" lon="-2.62840664"><ele>2048</ele><speed>12.03</speed><time>2016-06-02T12:24:14Z</time><pdop>9.0</pdop><geoidheight>51.00</geoidheight><course>137.3</course><type>1</type></trkpt>
      <trkpt lat="38.41604657" lon="-2.62813678"><ele>2048</ele><speed>12.87</speed><time>2016-06-02T12:24:16Z</time><pdop>9.0</pdop><geoidheight>51.00</geoidheight><course>117.3</course><type>1</type></trkpt>
      <trkpt lat="38.41598014" lon="-2.62784948"><ele>2047</ele><speed>12.65</speed><time>2016-06-02T12:24:18Z</time><pdop>9.0</pdop><geoidheight>51.00</geoidheight><course>102.3</course><type>1</type></trkpt>
      <trkpt lat="38.41599151" lon="-2.62757884"><ele>2042</ele><speed>12.59</speed><time>2016-06-02T12:24:20Z</time><pdop>9.0</pdop><geoidheight>51.00</geoidheight><course>84.8</course><type>1</type></trkpt>
      <trkpt lat="38.41608854" lon="-2.62730832"><ele>2039</ele><speed>12.77</speed><time>2016-06-02T12:24:22Z</time><pdop>9.0</pdop><geoidheight>51.00</geoidheight><course>62.7</course><type>1</type></trkpt>
      <trkpt lat="38.41622467" lon="-2.62711104"><ele>2038</ele><speed>11.01</speed><time>2016-06-02T12:24:24Z</time><pdop>9.0</pdop><geoidheight>51.00</geoidheight><course>44.4</course><type>1</type></trkpt>
      <trkpt lat="38.41636821" lon="-2.6269844"><ele>2038</ele><speed>10.06</speed><time>2016-06-02T12:24:26Z</time><pdop>9.0</pdop><geoidheight>51.00</geoidheight><course>38.2</course><type>1</type></trkpt>
      <trkpt lat="38.4165111" lon="-2.62682068"><ele>2039</ele><speed>10.74</speed><time>2016-06-02T12:24:28Z</time><pdop>9.0</pdop><geoidheight>51.00</geoidheight><course>44.5</course><type>1</type></trkpt>
      <trkpt lat="38.416661" lon="-2.62663511"><ele>2041</ele><speed>11.04</speed><time>2016-06-02T12:24:30Z</time><pdop>9.0</pdop><geoidheight>51.00</geoidheight><course>45.7</course><type>1</type></trkpt>
      <trkpt lat="38.4167797" lon="-2.62645179"><ele>2041</ele><speed>9.97</speed><time>2016-06-02T12:24:32Z</time><pdop>3.0</pdop><geoidheight>51.00</geoidheight><course>52.7</course><type>1</type></trkpt>
      <trkpt lat="38.41683107" lon="-2.62636246"><ele>2039</ele><speed>9.98</speed><time>2016-06-02T12:24:33Z</time><pdop>3.0</pdop><geoidheight>51.00</geoidheight><course>54.0</course><type>1</type></trkpt>
      <trkpt lat="38.4168948" lon="-2.62626379"><ele>2038</ele><speed>10.43</speed><time>2016-06-02T12:24:34Z</time><pdop>3.0</pdop><geoidheight>51.00</geoidheight><course>50.1</course><type>1</type></trkpt>
      <trkpt lat="38.41696498" lon="-2.62617785"><ele>2038</ele><speed>10.81</speed><time>2016-06-02T12:24:35Z</time><pdop>3.0</pdop><geoidheight>51.00</geoidheight><course>46.3</course><type>1</type></trkpt>
      <trkpt lat="38.41703173" lon="-2.62608499"><ele>2038</ele><speed>10.81</speed><time>2016-06-02T12:24:36Z</time><pdop>4.0</pdop><geoidheight>51.00</geoidheight><course>46.1</course><type>1</type></trkpt>
      <trkpt lat="38.4171005" lon="-2.62599949"><ele>2038</ele><speed>10.39</speed><time>2016-06-02T12:24:37Z</time><pdop>4.0</pdop><geoidheight>51.00</geoidheight><course>43.2</course><type>1</type></trkpt>
      <trkpt lat="38.41716439" lon="-2.62592332"><ele>2039</ele><speed>9.89</speed><time>2016-06-02T12:24:38Z</time><pdop>4.0</pdop><geoidheight>51.00</geoidheight><course>44.7</course><type>1</type></trkpt>
      <trkpt lat="38.41722294" lon="-2.6258417"><ele>2039</ele><speed>9.82</speed><time>2016-06-02T12:24:39Z</time><pdop>4.0</pdop><geoidheight>51.00</geoidheight><course>45.6</course><type>1</type></trkpt>
      <trkpt lat="38.41728888" lon="-2.62575686"><ele>2039</ele><speed>10.28</speed><time>2016-06-02T12:24:40Z</time><pdop>4.0</pdop><geoidheight>51.00</geoidheight><course>44.9</course><type>1</type></trkpt>
      <trkpt lat="38.41736893" lon="-2.62568112"><ele>2040</ele><speed>10.88</speed><time>2016-06-02T12:24:41Z</time><pdop>3.0</pdop><geoidheight>51.00</geoidheight><course>41.7</course><type>1</type></trkpt>
      <trkpt lat="38.4174384" lon="-2.62560596"><ele>2039</ele><speed>10.86</speed><time>2016-06-02T12:24:42Z</time><pdop>3.0</pdop><geoidheight>51.00</geoidheight><course>37.6</course><type>1</type></trkpt>
      <trkpt lat="38.41752589" lon="-2.62554344"><ele>2040</ele><speed>10.43</speed><time>2016-06-02T12:24:43Z</time><pdop>3.0</pdop><geoidheight>51.00</geoidheight><course>30.4</course><type>1</type></trkpt>
      <trkpt lat="38.41760297" lon="-2.62549522"><ele>2040</ele><speed>10.10</speed><time>2016-06-02T12:24:44Z</time><pdop>4.0</pdop><geoidheight>51.00</geoidheight><course>27.9</course><type>1</type></trkpt>
      <trkpt lat="38.41768154" lon="-2.62544715"><ele>2040</ele><speed>9.77</speed><time>2016-06-02T12:24:45Z</time><pdop>5.0</pdop><geoidheight>51.00</geoidheight><course>25.6</course><type>1</type></trkpt>
      <trkpt lat="38.41779005" lon="-2.62539433"><ele>2040</ele><speed>10.68</speed><time>2016-06-02T12:24:46Z</time><pdop>6.0</pdop><geoidheight>51.00</geoidheight><course>24.0</course><type>1</type></trkpt>
      <trkpt lat="38.41788007" lon="-2.62533563"><ele>2040</ele><speed>10.67</speed><time>2016-06-02T12:24:47Z</time><pdop>5.0</pdop><geoidheight>51.00</geoidheight><course>27.3</course><type>1</type></trkpt>
      <trkpt lat="38.41796733" lon="-2.625276"><ele>2042</ele><speed>10.61</speed><time>2016-06-02T12:24:48Z</time><pdop>4.0</pdop><geoidheight>51.00</geoidheight><course>30.1</course><type>1</type></trkpt>
      <trkpt lat="38.41805092" lon="-2.62521813"><ele>2043</ele><speed>10.28</speed><time>2016-06-02T12:24:49Z</time><pdop>4.0</pdop><geoidheight>51.00</geoidheight><course>29.9</course><type>1</type></trkpt>
      <trkpt lat="38.41813215" lon="-2.62516423"><ele>2043</ele><speed>9.87</speed><time>2016-06-02T12:24:50Z</time><pdop>4.0</pdop><geoidheight>51.00</geoidheight><course>30.4</course><type>1</type></trkpt>
      <trkpt lat="38.41819712" lon="-2.62510462"><ele>2044</ele><speed>9.63</speed><time>2016-06-02T12:24:51Z</time><pdop>4.0</pdop><geoidheight>51.00</geoidheight><course>34.5</course><type>1</type></trkpt>
      <trkpt lat="38.41827474" lon="-2.62503106"><ele>2045</ele><speed>9.79</speed><time>2016-06-02T12:24:52Z</time><pdop>4.0</pdop><geoidheight>51.00</geoidheight><course>38.4</course><type>1</type></trkpt>
      <trkpt lat="38.41834593" lon="-2.6249731"><ele>2045</ele><speed>9.43</speed><time>2016-06-02T12:24:53Z</time><pdop>4.0</pdop><geoidheight>51.00</geoidheight><course>35.6</course><type>1</type></trkpt>
      <trkpt lat="38.4184695" lon="-2.62490939"><ele>2045</ele><speed>7.67</speed><time>2016-06-02T12:24:55Z</time><pdop>4.0</pdop><geoidheight>51.00</geoidheight><course>14.6</course><type>1</type></trkpt>
      <trkpt lat="38.41859791" lon="-2.62492641"><ele>2045</ele><speed>7.10</speed><time>2016-06-02T12:24:57Z</time><pdop>5.0</pdop><geoidheight>51.00</geoidheight><course>352.8</course><type>1</type></trkpt>
      <trkpt lat="38.41867447" lon="-2.62503553"><ele>2045</ele><speed>6.77</speed><time>2016-06-02T12:24:59Z</time><pdop>5.0</pdop><geoidheight>51.00</geoidheight><course>318.7</course><type>1</type></trkpt>
      <trkpt lat="38.41872226" lon="-2.62518803"><ele>2044</ele><speed>7.13</speed><time>2016-06-02T12:25:01Z</time><pdop>4.0</pdop><geoidheight>51.00</geoidheight><course>293.0</course><type>1</type></trkpt>
      <trkpt lat="38.41872972" lon="-2.62535983"><ele>2044</ele><speed>7.82</speed><time>2016-06-02T12:25:03Z</time><pdop>3.0</pdop><geoidheight>51.00</geoidheight><course>269.9</course><type>1</type></trkpt>
      <trkpt lat="38.41873012" lon="-2.62544407"><ele>2045</ele><speed>7.84</speed><time>2016-06-02T12:25:04Z</time><pdop>3.0</pdop><geoidheight>51.00</geoidheight><course>265.6</course><type>1</type></trkpt>
      <trkpt lat="38.41870122" lon="-2.6255349"><ele>2046</ele><speed>7.92</speed><time>2016-06-02T12:25:05Z</time><pdop>3.0</pdop><geoidheight>51.00</geoidheight><course>251.6</course><type>1</type></trkpt>
      <trkpt lat="38.41865676" lon="-2.62561582"><ele>2045</ele><speed>8.32</speed><time>2016-06-02T12:25:06Z</time><pdop>3.0</pdop><geoidheight>51.00</geoidheight><course>244.1</course><type>1</type></trkpt>
      <trkpt lat="38.41861361" lon="-2.62570844"><ele>2046</ele><speed>8.91</speed><time>2016-06-02T12:25:07Z</time><pdop>3.0</pdop><geoidheight>51.00</geoidheight><course>238.1</course><type>1</type></trkpt>
      <trkpt lat="38.4185652" lon="-2.62578759"><ele>2046</ele><speed>8.73</speed><time>2016-06-02T12:25:08Z</time><pdop>4.0</pdop><geoidheight>51.00</geoidheight><course>232.1</course><type>1</type></trkpt>
      <trkpt lat="38.41850588" lon="-2.6258551"><ele>2045</ele><speed>8.78</speed><time>2016-06-02T12:25:09Z</time><pdop>4.0</pdop><geoidheight>51.00</geoidheight><course>223.1</course><type>1</type></trkpt>
      <trkpt lat="38.41837991" lon="-2.62595102"><ele>2045</ele><speed>8.07</speed><time>2016-06-02T12:25:11Z</time><pdop>6.0</pdop><geoidheight>51.00</geoidheight><course>213.6</course><type>1</type></trkpt>
      <trkpt lat="38.41824299" lon="-2.62593394"><ele>2045</ele><speed>9.20</speed><time>2016-06-02T12:25:12Z</time><pdop>5.0</pdop><geoidheight>51.00</geoidheight><course>190.6</course><type>1</type></trkpt>
      <trkpt lat="38.41810585" lon="-2.62590682"><ele>2044</ele><speed>11.55</speed><time>2016-06-02T12:25:13Z</time><pdop>5.0</pdop><geoidheight>51.00</geoidheight><course>173.8</course><type>1</type></trkpt>
      <trkpt lat="38.41799185" lon="-2.62584878"><ele>2045</ele><speed>12.58</speed><time>2016-06-02T12:25:14Z</time><pdop>4.0</pdop><geoidheight>51.00</geoidheight><course>161.9</course><type>1</type></trkpt>
      <trkpt lat="38.41791407" lon="-2.62573891"><ele>2043</ele><speed>12.45</speed><time>2016-06-02T12:25:15Z</time><pdop>4.0</pdop><geoidheight>51.00</geoidheight><course>141.8</course><type>1</type></trkpt>
      <trkpt lat="38.41784819" lon="-2.62563079"><ele>2042</ele><speed>12.12</speed><time>2016-06-02T12:25:16Z</time><pdop>4.0</pdop><geoidheight>51.00</geoidheight><course>132.8</course><type>1</type></trkpt>
      <trkpt lat="38.41779039" lon="-2.62552348"><ele>2041</ele><speed>11.17</speed><time>2016-06-02T12:25:17Z</time><pdop>5.0</pdop><geoidheight>51.00</geoidheight><course>129.7</course><type>1</type></trkpt>
      <trkpt lat="38.41778318" lon="-2.62537124"><ele>2039</ele><speed>11.45</speed><time>2016-06-02T12:25:18Z</time><pdop>5.0</pdop><geoidheight>51.00</geoidheight><course>108.4</course><type>1</type></trkpt>
      <trkpt lat="38.41785574" lon="-2.62523293"><ele>2038</ele><speed>11.76</speed><time>2016-06-02T12:25:19Z</time><pdop>4.0</pdop><geoidheight>51.00</geoidheight><course>76.9</course><type>1</type></trkpt>
      <trkpt lat="38.41790481" lon="-2.62511974"><ele>2037</ele><speed>11.23</speed><time>2016-06-02T12:25:20Z</time><pdop>4.0</pdop><geoidheight>51.00</geoidheight><course>66.3</course><type>1</type></trkpt>
      <trkpt lat="38.41795631" lon="-2.62500452"><ele>2037</ele><speed>10.89</speed><time>2016-06-02T12:25:21Z</time><pdop>4.0</pdop><geoidheight>51.00</geoidheight><course>60.8</course><type>1</type></trkpt>
      <trkpt lat="38.4180181" lon="-2.62488817"><ele>2036</ele><speed>11.17</speed><time>2016-06-02T12:25:22Z</time><pdop>4.0</pdop><geoidheight>51.00</geoidheight><course>56.9</course><type>1</type></trkpt>
      <trkpt lat="38.41808301" lon="-2.62477907"><ele>2034</ele><speed>11.64</speed><time>2016-06-02T12:25:23Z</time><pdop>3.0</pdop><geoidheight>51.00</geoidheight><course>52.8</course><type>1</type></trkpt>
      <trkpt lat="38.41815199" lon="-2.62466942"><ele>2033</ele><speed>12.09</speed><time>2016-06-02T12:25:24Z</time><pdop>3.0</pdop><geoidheight>51.00</geoidheight><course>50.6</course><type>1</type></trkpt>
      <trkpt lat="38.41822285" lon="-2.62456952"><ele>2033</ele><speed>12.09</speed><time>2016-06-02T12:25:25Z</time><pdop>4.0</pdop><geoidheight>51.00</geoidheight><course>50.3</course><type>1</type></trkpt>
      <trkpt lat="38.41829674" lon="-2.62446949"><ele>2034</ele><speed>11.95</speed><time>2016-06-02T12:25:26Z</time><pdop>4.0</pdop><geoidheight>51.00</geoidheight><course>50.1</course><type>1</type></trkpt>
      <trkpt lat="38.41836079" lon="-2.62437006"><ele>2034</ele><speed>11.30</speed><time>2016-06-02T12:25:27Z</time><pdop>3.0</pdop><geoidheight>51.00</geoidheight><course>51.3</course><type>1</type></trkpt>
      <trkpt lat="38.41842199" lon="-2.62427882"><ele>2034</ele><speed>10.66</speed><time>2016-06-02T12:25:28Z</time><pdop>3.0</pdop><geoidheight>51.00</geoidheight><course>51.1</course><type>1</type></trkpt>
      <trkpt lat="38.41848384" lon="-2.6241925"><ele>2034</ele><speed>9.91</speed><time>2016-06-02T12:25:29Z</time><pdop>3.0</pdop><geoidheight>51.00</geoidheight><course>50.2</course><type>1</type></trkpt>
      <trkpt lat="38.41854699" lon="-2.62411681"><ele>2034</ele><speed>9.71</speed><time>2016-06-02T12:25:30Z</time><pdop>3.0</pdop><geoidheight>51.00</geoidheight><course>44.9</course><type>1</type></trkpt>
      <trkpt lat="38.41861098" lon="-2.62404097"><ele>2033</ele><speed>9.73</speed><time>2016-06-02T12:25:31Z</time><pdop>4.0</pdop><geoidheight>51.00</geoidheight><course>43.0</course><type>1</type></trkpt>
      <trkpt lat="38.41871186" lon="-2.62398428"><ele>2033</ele><speed>11.66</speed><time>2016-06-02T12:25:32Z</time><pdop>4.0</pdop><geoidheight>51.00</geoidheight><course>29.8</course><type>1</type></trkpt>
      <trkpt lat="38.41880413" lon="-2.62391561"><ele>2032</ele><speed>12.69</speed><time>2016-06-02T12:25:33Z</time><pdop>4.0</pdop><geoidheight>51.00</geoidheight><course>28.4</course><type>1</type></trkpt>
      <trkpt lat="38.41891021" lon="-2.62383042"><ele>2032</ele><speed>13.21</speed><time>2016-06-02T12:25:34Z</time><pdop>9.0</pdop><geoidheight>51.00</geoidheight><course>31.2</course><type>1</type></trkpt>
      <trkpt lat="38.41907443" lon="-2.62364611"><ele>2031</ele><speed>12.37</speed><time>2016-06-02T12:25:36Z</time><pdop>9.0</pdop><geoidheight>51.00</geoidheight><course>40.5</course><type>1</type></trkpt>
      <trkpt lat="38.41920469" lon="-2.62343541"><ele>2033</ele><speed>10.91</speed><time>2016-06-02T12:25:38Z</time><pdop>9.0</pdop><geoidheight>51.00</geoidheight><course>54.1</course><type>1</type></trkpt>
      <trkpt lat="38.41933307" lon="-2.62321419"><ele>2032</ele><speed>11.13</speed><time>2016-06-02T12:25:40Z</time><pdop>9.0</pdop><geoidheight>51.00</geoidheight><course>58.7</course><type>1</type></trkpt>
      <trkpt lat="38.41941251" lon="-2.62301608"><ele>2030</ele><speed>10.77</speed><time>2016-06-02T12:25:42Z</time><pdop>9.0</pdop><geoidheight>51.00</geoidheight><course>63.8</course><type>1</type></trkpt>
      <trkpt lat="38.41950947" lon="-2.62277257"><ele>2027</ele><speed>12.16</speed><time>2016-06-02T12:25:44Z</time><pdop>9.0</pdop><geoidheight>51.00</geoidheight><course>62.5</course><type>1</type></trkpt>
      <trkpt lat="38.41964207" lon="-2.62255391"><ele>2027</ele><speed>11.21</speed><time>2016-06-02T12:25:46Z</time><pdop>9.0</pdop><geoidheight>51.00</geoidheight><course>52.3</course><type>1</type></trkpt>
      <trkpt lat="38.41976184" lon="-2.62238992"><ele>2029</ele><speed>9.18</speed><time>2016-06-02T12:25:48Z</time><pdop>9.0</pdop><geoidheight>51.00</geoidheight><course>47.0</course><type>1</type></trkpt>
      <trkpt lat="38.41992668" lon="-2.62217822"><ele>2027</ele><speed>9.33</speed><time>2016-06-02T12:25:51Z</time><pdop>9.0</pdop><geoidheight>51.00</geoidheight><course>38.2</course><type>1</type></trkpt>
      <trkpt lat="38.42007808" lon="-2.6220617"><ele>2027</ele><speed>9.27</speed><time>2016-06-02T12:25:53Z</time><pdop>9.0</pdop><geoidheight>51.00</geoidheight><course>34.7</course><type>1</type></trkpt>
      <trkpt lat="38.42019971" lon="-2.621923"><ele>2027</ele><speed>9.45</speed><time>2016-06-02T12:25:55Z</time><pdop>9.0</pdop><geoidheight>51.00</geoidheight><course>40.6</course><type>1</type></trkpt>
      <trkpt lat="38.42033142" lon="-2.62172736"><ele>2027</ele><speed>11.46</speed><time>2016-06-02T12:25:57Z</time><pdop>9.0</pdop><geoidheight>51.00</geoidheight><course>44.0</course><type>1</type></trkpt>
      <trkpt lat="38.42046338" lon="-2.62155743"><ele>2030</ele><speed>11.14</speed><time>2016-06-02T12:25:59Z</time><pdop>9.0</pdop><geoidheight>51.00</geoidheight><course>45.1</course><type>1</type></trkpt>
      <trkpt lat="38.42059753" lon="-2.62140107"><ele>2032</ele><speed>9.71</speed><time>2016-06-02T12:26:01Z</time><pdop>9.0</pdop><geoidheight>51.00</geoidheight><course>41.6</course><type>1</type></trkpt>
      <trkpt lat="38.4207437" lon="-2.62128519"><ele>2032</ele><speed>9.54</speed><time>2016-06-02T12:26:03Z</time><pdop>9.0</pdop><geoidheight>51.00</geoidheight><course>31.1</course><type>1</type></trkpt>
      <trkpt lat="38.42089341" lon="-2.62118817"><ele>2033</ele><speed>9.09</speed><time>2016-06-02T12:26:05Z</time><pdop>9.0</pdop><geoidheight>51.00</geoidheight><course>26.7</course><type>1</type></trkpt>
      <trkpt lat="38.42108664" lon="-2.62119408"><ele>2032</ele><speed>7.46</speed><time>2016-06-02T12:26:08Z</time><pdop>9.0</pdop><geoidheight>51.00</geoidheight><course>346.9</course><type>1</type></trkpt>
      <trkpt lat="38.42123771" lon="-2.62135584"><ele>2031</ele><speed>6.67</speed><time>2016-06-02T12:26:11Z</time><pdop>10.0</pdop><geoidheight>51.00</geoidheight><course>320.3</course><type>1</type></trkpt>
      <trkpt lat="38.42106314" lon="-2.6215418"><ele>2031</ele><speed>5.39</speed><time>2016-06-02T12:26:14Z</time><pdop>11.0</pdop><geoidheight>51.00</geoidheight><course>219.2</course><type>1</type></trkpt>
      <trkpt lat="38.42083129" lon="-2.62159818"><ele>2028</ele><speed>7.58</speed><time>2016-06-02T12:26:16Z</time><pdop>11.0</pdop><geoidheight>51.00</geoidheight><course>197.2</course><type>1</type></trkpt>
      <trkpt lat="38.42055905" lon="-2.62129499"><ele>2026</ele><speed>12.68</speed><time>2016-06-02T12:26:18Z</time><pdop>10.0</pdop><geoidheight>51.00</geoidheight><course>140.3</course><type>1</type></trkpt>
      <trkpt lat="38.42040315" lon="-2.62108158"><ele>2025</ele><speed>11.17</speed><time>2016-06-02T12:26:20Z</time><pdop>10.0</pdop><geoidheight>51.00</geoidheight><course>135.5</course><type>1</type></trkpt>
      <trkpt lat="38.42028312" lon="-2.62088992"><ele>2023</ele><speed>10.48</speed><time>2016-06-02T12:26:22Z</time><pdop>10.0</pdop><geoidheight>51.00</geoidheight><course>131.0</course><type>1</type></trkpt>
      <trkpt lat="38.42015454" lon="-2.62061567"><ele>2021</ele><speed>13.07</speed><time>2016-06-02T12:26:24Z</time><pdop>9.0</pdop><geoidheight>51.00</geoidheight><course>122.1</course><type>1</type></trkpt>
      <trkpt lat="38.42005058" lon="-2.62035938"><ele>2022</ele><speed>12.49</speed><time>2016-06-02T12:26:26Z</time><pdop>9.0</pdop><geoidheight>51.00</geoidheight><course>112.5</course><type>1</type></trkpt>
      <trkpt lat="38.41999265" lon="-2.62004537"><ele>2026</ele><speed>12.71</speed><time>2016-06-02T12:26:28Z</time><pdop>9.0</pdop><geoidheight>51.00</geoidheight><course>99.7</course><type>1</type></trkpt>
      <trkpt lat="38.4199619" lon="-2.61973635"><ele>2028</ele><speed>13.87</speed><time>2016-06-02T12:26:30Z</time><pdop>9.0</pdop><geoidheight>51.00</geoidheight><course>94.3</course><type>1</type></trkpt>
      <trkpt lat="38.41997053" lon="-2.61940424"><ele>2030</ele><speed>14.22</speed><time>2016-06-02T12:26:32Z</time><pdop>9.0</pdop><geoidheight>51.00</geoidheight><course>86.8</course><type>1</type></trkpt>
      <trkpt lat="38.41999694" lon="-2.61912113"><ele>2033</ele><speed>12.31</speed><time>2016-06-02T12:26:34Z</time><pdop>9.0</pdop><geoidheight>51.00</geoidheight><course>81.1</course><type>1</type></trkpt>
      <trkpt lat="38.42002377" lon="-2.61898321"><ele>2033</ele><speed>12.39</speed><time>2016-06-02T12:26:35Z</time><pdop>3.0</pdop><geoidheight>51.00</geoidheight><course>80.2</course><type>1</type></trkpt>
      <trkpt lat="38.42004655" lon="-2.6188287"><ele>2033</ele><speed>13.47</speed><time>2016-06-02T12:26:36Z</time><pdop>3.0</pdop><geoidheight>51.00</geoidheight><course>81.3</course><type>1</type></trkpt>
      <trkpt lat="38.4200625" lon="-2.61866889"><ele>2032</ele><speed>14.03</speed><time>2016-06-02T12:26:37Z</time><pdop>3.0</pdop><geoidheight>51.00</geoidheight><course>82.5</course><type>1</type></trkpt>
      <trkpt lat="38.42008159" lon="-2.61850031"><ele>2033</ele><speed>14.39</speed><time>2016-06-02T12:26:38Z</time><pdop>3.0</pdop><geoidheight>51.00</geoidheight><course>82.5</course><type>1</type></trkpt>
      <trkpt lat="38.42010709" lon="-2.61834724"><ele>2034</ele><speed>13.46</speed><time>2016-06-02T12:26:39Z</time><pdop>3.0</pdop><geoidheight>51.00</geoidheight><course>78.5</course><type>1</type></trkpt>
      <trkpt lat="38.42013886" lon="-2.6181967"><ele>2036</ele><speed>13.46</speed><time>2016-06-02T12:26:40Z</time><pdop>3.0</pdop><geoidheight>51.00</geoidheight><course>75.5</course><type>1</type></trkpt>
      <trkpt lat="38.42016841" lon="-2.61805612"><ele>2037</ele><speed>13.04</speed><time>2016-06-02T12:26:41Z</time><pdop>3.0</pdop><geoidheight>51.00</geoidheight><course>73.8</course><type>1</type></trkpt>
      <trkpt lat="38.42020472" lon="-2.61791244"><ele>2039</ele><speed>13.02</speed><time>2016-06-02T12:26:42Z</time><pdop>3.0</pdop><geoidheight>51.00</geoidheight><course>73.1</course><type>1</type></trkpt>
      <trkpt lat="38.42023744" lon="-2.61777833"><ele>2039</ele><speed>13.07</speed><time>2016-06-02T12:26:43Z</time><pdop>3.0</pdop><geoidheight>51.00</geoidheight><course>73.2</course><type>1</type></trkpt>
      <trkpt lat="38.42025997" lon="-2.61761171"><ele>2040</ele><speed>13.56</speed><time>2016-06-02T12:26:44Z</time><pdop>3.0</pdop><geoidheight>51.00</geoidheight><course>76.5</course><type>1</type></trkpt>
      <trkpt lat="38.42028321" lon="-2.61745679"><ele>2040</ele><speed>13.40</speed><time>2016-06-02T12:26:45Z</time><pdop>3.0</pdop><geoidheight>51.00</geoidheight><course>77.7</course><type>1</type></trkpt>
      <trkpt lat="38.42030934" lon="-2.61733369"><ele>2039</ele><speed>13.10</speed><time>2016-06-02T12:26:46Z</time><pdop>3.0</pdop><geoidheight>51.00</geoidheight><course>77.8</course><type>1</type></trkpt>
      <trkpt lat="38.42033621" lon="-2.61718943"><ele>2040</ele><speed>13.26</speed><time>2016-06-02T12:26:47Z</time><pdop>3.0</pdop><geoidheight>51.00</geoidheight><course>76.4</course><type>1</type></trkpt>
      <trkpt lat="38.42037543" lon="-2.61704738"><ele>2041</ele><speed>13.18</speed><time>2016-06-02T12:26:48Z</time><pdop>4.0</pdop><geoidheight>51.00</geoidheight><course>72.1</course><type>1</type></trkpt>
      <trkpt lat="38.42042689" lon="-2.61694278"><ele>2043</ele><speed>12.12</speed><time>2016-06-02T12:26:49Z</time><pdop>4.0</pdop><geoidheight>51.00</geoidheight><course>62.9</course><type>1</type></trkpt>
      <trkpt lat="38.42050556" lon="-2.61682862"><ele>2045</ele><speed>12.35</speed><time>2016-06-02T12:26:50Z</time><pdop>3.0</pdop><geoidheight>51.00</geoidheight><course>50.7</course><type>1</type></trkpt>
      <trkpt lat="38.4205872" lon="-2.61672797"><ele>2047</ele><speed>12.48</speed><time>2016-06-02T12:26:51Z</time><pdop>3.0</pdop><geoidheight>51.00</geoidheight><course>45.6</course><type>1</type></trkpt>
      <trkpt lat="38.42068036" lon="-2.61663647"><ele>2047</ele><speed>12.57</speed><time>2016-06-02T12:26:52Z</time><pdop>3.0</pdop><geoidheight>51.00</geoidheight><course>38.1</course><type>1</type></trkpt>
      <trkpt lat="38.42076268" lon="-2.61657757"><ele>2049</ele><speed>11.17</speed><time>2016-06-02T12:26:53Z</time><pdop>3.0</pdop><geoidheight>51.00</geoidheight><course>29.5</course><type>1</type></trkpt>
      <trkpt lat="38.42085909" lon="-2.61657294"><ele>2049</ele><speed>10.52</speed><time>2016-06-02T12:26:54Z</time><pdop>3.0</pdop><geoidheight>51.00</geoidheight><course>5.3</course><type>1</type></trkpt>
      <trkpt lat="38.42094854" lon="-2.61657433"><ele>2049</ele><speed>9.92</speed><time>2016-06-02T12:26:55Z</time><pdop>3.0</pdop><geoidheight>51.00</geoidheight><course>358.9</course><type>1</type></trkpt>
      <trkpt lat="38.42102888" lon="-2.61671924"><ele>2050</ele><speed>7.37</speed><time>2016-06-02T12:26:57Z</time><pdop>4.0</pdop><geoidheight>51.00</geoidheight><course>307.6</course><type>1</type></trkpt>
      <trkpt lat="38.4210443" lon="-2.6168955"><ele>2050</ele><speed>6.24</speed><time>2016-06-02T12:26:59Z</time><pdop>4.0</pdop><geoidheight>51.00</geoidheight><course>270.9</course><type>1</type></trkpt>
      <trkpt lat="38.42100391" lon="-2.61702443"><ele>2050</ele><speed>6.73</speed><time>2016-06-02T12:27:01Z</time><pdop>4.0</pdop><geoidheight>51.00</geoidheight><course>248.0</course><type>1</type></trkpt>
      <trkpt lat="38.42090739" lon="-2.6171332"><ele>2050</ele><speed>6.88</speed><time>2016-06-02T12:27:03Z</time><pdop>5.0</pdop><geoidheight>51.00</geoidheight><course>224.7</course><type>1</type></trkpt>
      <trkpt lat="38.42077657" lon="-2.61712003"><ele>2050</ele><speed>9.18</speed><time>2016-06-02T12:27:04Z</time><pdop>4.0</pdop><geoidheight>51.00</geoidheight><course>190.0</course><type>1</type></trkpt>
      <trkpt lat="38.42068755" lon="-2.61710928"><ele>2050</ele><speed>9.70</speed><time>2016-06-02T12:27:05Z</time><pdop>4.0</pdop><geoidheight>51.00</geoidheight><course>178.4</course><type>1</type></trkpt>
      <trkpt lat="38.42060761" lon="-2.61708113"><ele>2050</ele><speed>9.87</speed><time>2016-06-02T12:27:06Z</time><pdop>4.0</pdop><geoidheight>51.00</geoidheight><course>170.2</course><type>1</type></trkpt>
      <trkpt lat="38.42052566" lon="-2.61702409"><ele>2050</ele><speed>9.71</speed><time>2016-06-02T12:27:07Z</time><pdop>4.0</pdop><geoidheight>51.00</geoidheight><course>155.1</course><type>1</type></trkpt>
      <trkpt lat="38.42044539" lon="-2.61693236"><ele>2049</ele><speed>10.48</speed><time>2016-06-02T12:27:08Z</time><pdop>4.0</pdop><geoidheight>51.00</geoidheight><course>144.8</course><type>1</type></trkpt>
      <trkpt lat="38.42038583" lon="-2.61682754"><ele>2049</ele><speed>11.31</speed><time>2016-06-02T12:27:09Z</time><pdop>3.0</pdop><geoidheight>51.00</geoidheight><course>131.4</course><type>1</type></trkpt>
      <trkpt lat="38.42032463" lon="-2.61672503"><ele>2048</ele><speed>12.28</speed><time>2016-06-02T12:27:10Z</time><pdop>3.0</pdop><geoidheight>51.00</geoidheight><course>128.8</course><type>1</type></trkpt>
      <trkpt lat="38.42026415" lon="-2.61661019"><ele>2050</ele><speed>12.61</speed><time>2016-06-02T12:27:11Z</time><pdop>4.0</pdop><geoidheight>51.00</geoidheight><course>126.8</course><type>1</type></trkpt>
      <trkpt lat="38.42021031" lon="-2.61648388"><ele>2051</ele><speed>12.85</speed><time>2016-06-02T12:27:12Z</time><pdop>3.0</pdop><geoidheight>51.00</geoidheight><course>125.7</course><type>1</type></trkpt>
      <trkpt lat="38.42015292" lon="-2.61635499"><ele>2052</ele><speed>13.07</speed><time>2016-06-02T12:27:13Z</time><pdop>3.0</pdop><geoidheight>51.00</geoidheight><course>126.0</course><type>1</type></trkpt>
      <trkpt lat="38.42008843" lon="-2.61623712"><ele>2052</ele><speed>13.45</speed><time>2016-06-02T12:27:14Z</time><pdop>4.0</pdop><geoidheight>51.00</geoidheight><course>124.3</course><type>1</type></trkpt>
      <trkpt lat="38.42003271" lon="-2.61609482"><ele>2053</ele><speed>13.97</speed><time>2016-06-02T12:27:15Z</time><pdop>4.0</pdop><geoidheight>51.00</geoidheight><course>119.8</course><type>1</type></trkpt>
      <trkpt lat="38.41998254" lon="-2.61594003"><ele>2057</ele><speed>14.38</speed><time>2016-06-02T12:27:16Z</time><pdop>3.0</pdop><geoidheight>51.00</geoidheight><course>115.4</course><type>1</type></trkpt>
      <trkpt lat="38.41993765" lon="-2.61579539"><ele>2061</ele><speed>13.83</speed><time>2016-06-02T12:27:17Z</time><pdop>3.0</pdop><geoidheight>51.00</geoidheight><course>111.6</course><type>1</type></trkpt>
      <trkpt lat="38.41990624" lon="-2.61566885"><ele>2065</ele><speed>12.48</speed><time>2016-06-02T12:27:18Z</time><pdop>3.0</pdop><geoidheight>51.00</geoidheight><course>106.1</course><type>1</type></trkpt>
      <trkpt lat="38.41988075" lon="-2.61554463"><ele>2067</ele><speed>11.43</speed><time>2016-06-02T12:27:19Z</time><pdop>3.0</pdop><geoidheight>51.00</geoidheight><course>104.4</course><type>1</type></trkpt>
      <trkpt lat="38.41984985" lon="-2.61541757"><ele>2069</ele><speed>12.00</speed><time>2016-06-02T12:27:20Z</time><pdop>3.0</pdop><geoidheight>51.00</geoidheight><course>106.4</course><type>1</type></trkpt>
      <trkpt lat="38.41981419" lon="-2.61527919"><ele>2070</ele><speed>12.66</speed><time>2016-06-02T12:27:21Z</time><pdop>3.0</pdop><geoidheight>51.00</geoidheight><course>107.8</course><type>1</type></trkpt>
      <trkpt lat="38.419779" lon="-2.61513879"><ele>2073</ele><speed>13.07</speed><time>2016-06-02T12:27:22Z</time><pdop>3.0</pdop><geoidheight>51.00</geoidheight><course>106.3</course><type>1</type></trkpt>
      <trkpt lat="38.41975395" lon="-2.61498102"><ele>2075</ele><speed>13.47</speed><time>2016-06-02T12:27:23Z</time><pdop>3.0</pdop><geoidheight>51.00</geoidheight><course>101.5</course><type>1</type></trkpt>
      <trkpt lat="38.41975374" lon="-2.61482314"><ele>2077</ele><speed>13.59</speed><time>2016-06-02T12:27:24Z</time><pdop>3.0</pdop><geoidheight>51.00</geoidheight><course>92.0</course><type>1</type></trkpt>
      <trkpt lat="38.419769" lon="-2.61466571"><ele>2078</ele><speed>13.45</speed><time>2016-06-02T12:27:25Z</time><pdop>3.0</pdop><geoidheight>51.00</geoidheight><course>81.9</course><type>1</type></trkpt>
      <trkpt lat="38.41980822" lon="-2.61452221"><ele>2080</ele><speed>13.32</speed><time>2016-06-02T12:27:26Z</time><pdop>3.0</pdop><geoidheight>51.00</geoidheight><course>72.2</course><type>1</type></trkpt>
      <trkpt lat="38.41985775" lon="-2.61440594"><ele>2081</ele><speed>12.38</speed><time>2016-06-02T12:27:27Z</time><pdop>3.0</pdop><geoidheight>51.00</geoidheight><course>66.3</course><type>1</type></trkpt>
      <trkpt lat="38.41989926" lon="-2.61428151"><ele>2081</ele><speed>12.38</speed><time>2016-06-02T12:27:28Z</time><pdop>3.0</pdop><geoidheight>51.00</geoidheight><course>65.7</course><type>1</type></trkpt>
      <trkpt lat="38.41997048" lon="-2.61415233"><ele>2083</ele><speed>12.52</speed><time>2016-06-02T12:27:29Z</time><pdop>3.0</pdop><geoidheight>51.00</geoidheight><course>58.6</course><type>1</type></trkpt>
      <trkpt lat="38.42005486" lon="-2.61403859"><ele>2086</ele><speed>12.61</speed><time>2016-06-02T12:27:30Z</time><pdop>3.0</pdop><geoidheight>51.00</geoidheight><course>51.5</course><type>1</type></trkpt>
      <trkpt lat="38.42012799" lon="-2.61394878"><ele>2088</ele><speed>11.99</speed><time>2016-06-02T12:27:31Z</time><pdop>3.0</pdop><geoidheight>51.00</geoidheight><course>47.9</course><type>1</type></trkpt>
      <trkpt lat="38.42020885" lon="-2.61386253"><ele>2091</ele><speed>11.07</speed><time>2016-06-02T12:27:32Z</time><pdop>3.0</pdop><geoidheight>51.00</geoidheight><course>39.1</course><type>1</type></trkpt>
      <trkpt lat="38.42029194" lon="-2.61380631"><ele>2093</ele><speed>10.47</speed><time>2016-06-02T12:27:33Z</time><pdop>3.0</pdop><geoidheight>51.00</geoidheight><course>27.2</course><type>1</type></trkpt>
      <trkpt lat="38.42037851" lon="-2.61376685"><ele>2093</ele><speed>10.18</speed><time>2016-06-02T12:27:34Z</time><pdop>3.0</pdop><geoidheight>51.00</geoidheight><course>22.0</course><type>1</type></trkpt>
      <trkpt lat="38.42046658" lon="-2.6137467"><ele>2093</ele><speed>10.09</speed><time>2016-06-02T12:27:35Z</time><pdop>4.0</pdop><geoidheight>51.00</geoidheight><course>13.8</course><type>1</type></trkpt>
      <trkpt lat="38.42054335" lon="-2.61376387"><ele>2093</ele><speed>9.14</speed><time>2016-06-02T12:27:36Z</time><pdop>4.0</pdop><geoidheight>51.00</geoidheight><course>1.9</course><type>1</type></trkpt>
      <trkpt lat="38.42066885" lon="-2.61383116"><ele>2095</ele><speed>7.68</speed><time>2016-06-02T12:27:38Z</time><pdop>10.0</pdop><geoidheight>51.00</geoidheight><course>336.4</course><type>1</type></trkpt>
      <trkpt lat="38.42077917" lon="-2.61401246"><ele>2098</ele><speed>6.22</speed><time>2016-06-02T12:27:41Z</time><pdop>9.0</pdop><geoidheight>51.00</geoidheight><course>302.6</course><type>1</type></trkpt>
      <trkpt lat="38.42070075" lon="-2.61426247"><ele>2099</ele><speed>6.53</speed><time>2016-06-02T12:27:45Z</time><pdop>9.0</pdop><geoidheight>51.00</geoidheight><course>229.2</course><type>1</type></trkpt>
      <trkpt lat="38.42048795" lon="-2.61432887"><ele>2101</ele><speed>8.66</speed><time>2016-06-02T12:27:48Z</time><pdop>9.0</pdop><geoidheight>51.00</geoidheight><course>191.9</course><type>1</type></trkpt>
      <trkpt lat="38.4202109" lon="-2.6142527"><ele>2100</ele><speed>10.30</speed><time>2016-06-02T12:27:51Z</time><pdop>11.0</pdop><geoidheight>51.00</geoidheight><course>165.5</course><type>1</type></trkpt>
      <trkpt lat="38.42018992" lon="-2.61377234"><ele>2103</ele><speed>15.06</speed><time>2016-06-02T12:27:53Z</time><pdop>9.0</pdop><geoidheight>51.00</geoidheight><course>101.1</course><type>1</type></trkpt>
      <trkpt lat="38.4201489" lon="-2.61341465"><ele>2107</ele><speed>14.79</speed><time>2016-06-02T12:27:55Z</time><pdop>9.0</pdop><geoidheight>51.00</geoidheight><course>96.8</course><type>1</type></trkpt>
      <trkpt lat="38.42012886" lon="-2.61308546"><ele>2113</ele><speed>14.04</speed><time>2016-06-02T12:27:57Z</time><pdop>9.0</pdop><geoidheight>51.00</geoidheight><course>89.8</course><type>1</type></trkpt>
      <trkpt lat="38.42018698" lon="-2.61277377"><ele>2115</ele><speed>13.33</speed><time>2016-06-02T12:27:59Z</time><pdop>9.0</pdop><geoidheight>51.00</geoidheight><course>74.5</course><type>1</type></trkpt>
      <trkpt lat="38.42032851" lon="-2.61258637"><ele>2119</ele><speed>11.21</speed><time>2016-06-02T12:28:01Z</time><pdop>9.0</pdop><geoidheight>51.00</geoidheight><course>42.5</course><type>1</type></trkpt>
      <trkpt lat="38.42048711" lon="-2.61246715"><ele>2119</ele><speed>10.37</speed><time>2016-06-02T12:28:03Z</time><pdop>9.0</pdop><geoidheight>51.00</geoidheight><course>28.5</course><type>1</type></trkpt>
      <trkpt lat="38.4206552" lon="-2.61236596"><ele>2118</ele><speed>10.08</speed><time>2016-06-02T12:28:05Z</time><pdop>9.0</pdop><geoidheight>51.00</geoidheight><course>22.6</course><type>1</type></trkpt>
      <trkpt lat="38.42083145" lon="-2.61236661"><ele>2116</ele><speed>9.56</speed><time>2016-06-02T12:28:07Z</time><pdop>9.0</pdop><geoidheight>51.00</geoidheight><course>350.5</course><type>1</type></trkpt>
      <trkpt lat="38.42096601" lon="-2.61248001"><ele>2115</ele><speed>9.02</speed><time>2016-06-02T12:28:09Z</time><pdop>3.0</pdop><geoidheight>51.00</geoidheight><course>324.6</course><type>1</type></trkpt>
      <trkpt lat="38.42103197" lon="-2.61254043"><ele>2116</ele><speed>8.52</speed><time>2016-06-02T12:28:10Z</time><pdop>3.0</pdop><geoidheight>51.00</geoidheight><course>326.7</course><type>1</type></trkpt>
      <trkpt lat="38.4210933" lon="-2.61258078"><ele>2117</ele><speed>7.75</speed><time>2016-06-02T12:28:11Z</time><pdop>3.0</pdop><geoidheight>51.00</geoidheight><course>334.1</course><type>1</type></trkpt>
      <trkpt lat="38.42115068" lon="-2.61260463"><ele>2117</ele><speed>6.94</speed><time>2016-06-02T12:28:12Z</time><pdop>3.0</pdop><geoidheight>51.00</geoidheight><course>341.4</course><type>1</type></trkpt>
      <trkpt lat="38.42121356" lon="-2.61262294"><ele>2118</ele><speed>6.96</speed><time>2016-06-02T12:28:13Z</time><pdop>3.0</pdop><geoidheight>51.00</geoidheight><course>346.3</course><type>1</type></trkpt>
      <trkpt lat="38.42133993" lon="-2.61268693"><ele>2117</ele><speed>7.59</speed><time>2016-06-02T12:28:15Z</time><pdop>4.0</pdop><geoidheight>51.00</geoidheight><course>339.7</course><type>1</type></trkpt>
      <trkpt lat="38.42145447" lon="-2.61271764"><ele>2117</ele><speed>9.62</speed><time>2016-06-02T12:28:16Z</time><pdop>5.0</pdop><geoidheight>51.00</geoidheight><course>342.7</course><type>1</type></trkpt>
      <trkpt lat="38.4215525" lon="-2.61275464"><ele>2118</ele><speed>10.59</speed><time>2016-06-02T12:28:17Z</time><pdop>5.0</pdop><geoidheight>51.00</geoidheight><course>344.5</course><type>1</type></trkpt>
      <trkpt lat="38.42174846" lon="-2.61274297"><ele>2117</ele><speed>10.96</speed><time>2016-06-02T12:28:19Z</time><pdop>8.0</pdop><geoidheight>51.00</geoidheight><course>1.8</course><type>1</type></trkpt>
      <trkpt lat="38.4219779" lon="-2.61262517"><ele>2114</ele><speed>11.36</speed><time>2016-06-02T12:28:21Z</time><pdop>6.0</pdop><geoidheight>51.00</geoidheight><course>16.7</course><type>1</type></trkpt>
      <trkpt lat="38.42213644" lon="-2.61254949"><ele>2110</ele><speed>10.04</speed><time>2016-06-02T12:28:23Z</time><pdop>4.0</pdop><geoidheight>51.00</geoidheight><course>20.5</course><type>1</type></trkpt>
      <trkpt lat="38.42222546" lon="-2.61250173"><ele>2108</ele><speed>10.34</speed><time>2016-06-02T12:28:24Z</time><pdop>4.0</pdop><geoidheight>51.00</geoidheight><course>22.5</course><type>1</type></trkpt>
      <trkpt lat="38.42231795" lon="-2.61245935"><ele>2108</ele><speed>10.63</speed><time>2016-06-02T12:28:25Z</time><pdop>4.0</pdop><geoidheight>51.00</geoidheight><course>22.3</course><type>1</type></trkpt>
      <trkpt lat="38.4224216" lon="-2.61238539"><ele>2105</ele><speed>12.27</speed><time>2016-06-02T12:28:26Z</time><pdop>4.0</pdop><geoidheight>51.00</geoidheight><course>23.1</course><type>1</type></trkpt>
      <trkpt lat="38.42253223" lon="-2.61230979"><ele>2103</ele><speed>12.73</speed><time>2016-06-02T12:28:27Z</time><pdop>4.0</pdop><geoidheight>51.00</geoidheight><course>29.0</course><type>1</type></trkpt>
      <trkpt lat="38.42262681" lon="-2.61221146"><ele>2101</ele><speed>13.62</speed><time>2016-06-02T12:28:28Z</time><pdop>4.0</pdop><geoidheight>51.00</geoidheight><course>36.2</course><type>1</type></trkpt>
      <trkpt lat="38.42271175" lon="-2.61209005"><ele>2099</ele><speed>14.30</speed><time>2016-06-02T12:28:29Z</time><pdop>4.0</pdop><geoidheight>51.00</geoidheight><course>41.3</course><type>1</type></trkpt>
      <trkpt lat="38.42273146" lon="-2.61194525"><ele>2096</ele><speed>13.82</speed><time>2016-06-02T12:28:30Z</time><pdop>4.0</pdop><geoidheight>51.00</geoidheight><course>59.3</course><type>1</type></trkpt>
      <trkpt lat="38.42278212" lon="-2.61181039"><ele>2095</ele><speed>13.26</speed><time>2016-06-02T12:28:31Z</time><pdop>3.0</pdop><geoidheight>51.00</geoidheight><course>63.5</course><type>1</type></trkpt>
      <trkpt lat="38.42282633" lon="-2.61166972"><ele>2093</ele><speed>12.75</speed><time>2016-06-02T12:28:32Z</time><pdop>3.0</pdop><geoidheight>51.00</geoidheight><course>66.9</course><type>1</type></trkpt>
      <trkpt lat="38.42286943" lon="-2.61153487"><ele>2092</ele><speed>12.47</speed><time>2016-06-02T12:28:33Z</time><pdop>3.0</pdop><geoidheight>51.00</geoidheight><course>68.7</course><type>1</type></trkpt>
      <trkpt lat="38.42291035" lon="-2.61139056"><ele>2091</ele><speed>13.00</speed><time>2016-06-02T12:28:34Z</time><pdop>3.0</pdop><geoidheight>51.00</geoidheight><course>68.7</course><type>1</type></trkpt>
      <trkpt lat="38.42294018" lon="-2.61122163"><ele>2089</ele><speed>14.41</speed><time>2016-06-02T12:28:35Z</time><pdop>3.0</pdop><geoidheight>51.00</geoidheight><course>73.2</course><type>1</type></trkpt>
      <trkpt lat="38.42295978" lon="-2.61106112"><ele>2086</ele><speed>14.92</speed><time>2016-06-02T12:28:36Z</time><pdop>3.0</pdop><geoidheight>51.00</geoidheight><course>75.8</course><type>1</type></trkpt>
      <trkpt lat="38.42300151" lon="-2.61088868"><ele>2085</ele><speed>15.16</speed><time>2016-06-02T12:28:37Z</time><pdop>3.0</pdop><geoidheight>51.00</geoidheight><course>75.3</course><type>1</type></trkpt>
      <trkpt lat="38.42302352" lon="-2.61072829"><ele>2085</ele><speed>14.62</speed><time>2016-06-02T12:28:38Z</time><pdop>4.0</pdop><geoidheight>51.00</geoidheight><course>77.4</course><type>1</type></trkpt>
      <trkpt lat="38.42303923" lon="-2.61056551"><ele>2084</ele><speed>14.36</speed><time>2016-06-02T12:28:39Z</time><pdop>4.0</pdop><geoidheight>51.00</geoidheight><course>81.2</course><type>1</type></trkpt>
      <trkpt lat="38.42302714" lon="-2.61041782"><ele>2078</ele><speed>13.99</speed><time>2016-06-02T12:28:40Z</time><pdop>3.0</pdop><geoidheight>51.00</geoidheight><course>85.5</course><type>1</type></trkpt>
      <trkpt lat="38.42305462" lon="-2.61024886"><ele>2074</ele><speed>14.82</speed><time>2016-06-02T12:28:41Z</time><pdop>3.0</pdop><geoidheight>51.00</geoidheight><course>81.0</course><type>1</type></trkpt>
      <trkpt lat="38.42308629" lon="-2.6100831"><ele>2069</ele><speed>15.49</speed><time>2016-06-02T12:28:42Z</time><pdop>3.0</pdop><geoidheight>51.00</geoidheight><course>78.3</course><type>1</type></trkpt>
      <trkpt lat="38.42311166" lon="-2.60989403"><ele>2065</ele><speed>16.19</speed><time>2016-06-02T12:28:43Z</time><pdop>3.0</pdop><geoidheight>51.00</geoidheight><course>77.2</course><type>1</type></trkpt>
      <trkpt lat="38.42313789" lon="-2.60971231"><ele>2061</ele><speed>16.01</speed><time>2016-06-02T12:28:44Z</time><pdop>3.0</pdop><geoidheight>51.00</geoidheight><course>78.1</course><type>1</type></trkpt>
      <trkpt lat="38.42315634" lon="-2.60952856"><ele>2057</ele><speed>15.90</speed><time>2016-06-02T12:28:45Z</time><pdop>3.0</pdop><geoidheight>51.00</geoidheight><course>80.5</course><type>1</type></trkpt>
      <trkpt lat="38.42317275" lon="-2.60934582"><ele>2055</ele><speed>15.74</speed><time>2016-06-02T12:28:46Z</time><pdop>3.0</pdop><geoidheight>51.00</geoidheight><course>81.6</course><type>1</type></trkpt>
      <trkpt lat="38.42319633" lon="-2.60917476"><ele>2053</ele><speed>15.69</speed><time>2016-06-02T12:28:47Z</time><pdop>3.0</pdop><geoidheight>51.00</geoidheight><course>80.9</course><type>1</type></trkpt>
      <trkpt lat="38.42322449" lon="-2.60900256"><ele>2051</ele><speed>15.46</speed><time>2016-06-02T12:28:48Z</time><pdop>3.0</pdop><geoidheight>51.00</geoidheight><course>78.8</course><type>1</type></trkpt>
      <trkpt lat="38.42325527" lon="-2.60883741"><ele>2050</ele><speed>14.86</speed><time>2016-06-02T12:28:49Z</time><pdop>3.0</pdop><geoidheight>51.00</geoidheight><course>76.4</course><type>1</type></trkpt>
      <trkpt lat="38.42328791" lon="-2.60868843"><ele>2049</ele><speed>14.18</speed><time>2016-06-02T12:28:50Z</time><pdop>3.0</pdop><geoidheight>51.00</geoidheight><course>74.1</course><type>1</type></trkpt>
      <trkpt lat="38.4233248" lon="-2.60855147"><ele>2046</ele><speed>13.71</speed><time>2016-06-02T12:28:51Z</time><pdop>3.0</pdop><geoidheight>51.00</geoidheight><course>72.3</course><type>1</type></trkpt>
      <trkpt lat="38.42336466" lon="-2.60840911"><ele>2041</ele><speed>14.05</speed><time>2016-06-02T12:28:52Z</time><pdop>3.0</pdop><geoidheight>51.00</geoidheight><course>70.1</course><type>1</type></trkpt>
      <trkpt lat="38.42341731" lon="-2.60826"><ele>2038</ele><speed>14.82</speed><time>2016-06-02T12:28:53Z</time><pdop>3.0</pdop><geoidheight>51.00</geoidheight><course>67.2</course><type>1</type></trkpt>
      <trkpt lat="38.42347771" lon="-2.60809921"><ele>2035</ele><speed>15.54</speed><time>2016-06-02T12:28:54Z</time><pdop>3.0</pdop><geoidheight>51.00</geoidheight><course>65.5</course><type>1</type></trkpt>
      <trkpt lat="38.42353675" lon="-2.60794163"><ele>2033</ele><speed>15.80</speed><time>2016-06-02T12:28:55Z</time><pdop>3.0</pdop><geoidheight>51.00</geoidheight><course>63.5</course><type>1</type></trkpt>
      <trkpt lat="38.42359681" lon="-2.60778408"><ele>2032</ele><speed>15.50</speed><time>2016-06-02T12:28:56Z</time><pdop>3.0</pdop><geoidheight>51.00</geoidheight><course>63.6</course><type>1</type></trkpt>
      <trkpt lat="38.42365972" lon="-2.60764395"><ele>2031</ele><speed>14.98</speed><time>2016-06-02T12:28:57Z</time><pdop>3.0</pdop><geoidheight>51.00</geoidheight><course>62.1</course><type>1</type></trkpt>
      <trkpt lat="38.42372526" lon="-2.60748596"><ele>2030</ele><speed>15.23</speed><time>2016-06-02T12:28:58Z</time><pdop>4.0</pdop><geoidheight>51.00</geoidheight><course>62.6</course><type>1</type></trkpt>
      <trkpt lat="38.42377506" lon="-2.60732956"><ele>2027</ele><speed>14.97</speed><time>2016-06-02T12:28:59Z</time><pdop>3.0</pdop><geoidheight>51.00</geoidheight><course>64.3</course><type>1</type></trkpt>
      <trkpt lat="38.42381731" lon="-2.60716738"><ele>2024</ele><speed>15.33</speed><time>2016-06-02T12:29:00Z</time><pdop>3.0</pdop><geoidheight>51.00</geoidheight><course>64.8</course><type>1</type></trkpt>
      <trkpt lat="38.42387731" lon="-2.60701475"><ele>2021</ele><speed>15.68</speed><time>2016-06-02T12:29:01Z</time><pdop>3.0</pdop><geoidheight>51.00</geoidheight><course>64.2</course><type>1</type></trkpt>
      <trkpt lat="38.4239413" lon="-2.60685424"><ele>2021</ele><speed>15.81</speed><time>2016-06-02T12:29:02Z</time><pdop>4.0</pdop><geoidheight>51.00</geoidheight><course>63.9</course><type>1</type></trkpt>
      <trkpt lat="38.42400894" lon="-2.60669718"><ele>2019</ele><speed>15.80</speed><time>2016-06-02T12:29:03Z</time><pdop>3.0</pdop><geoidheight>51.00</geoidheight><course>63.6</course><type>1</type></trkpt>
      <trkpt lat="38.42408051" lon="-2.60654417"><ele>2018</ele><speed>15.71</speed><time>2016-06-02T12:29:04Z</time><pdop>3.0</pdop><geoidheight>51.00</geoidheight><course>62.0</course><type>1</type></trkpt>
      <trkpt lat="38.42414321" lon="-2.60638857"><ele>2016</ele><speed>15.34</speed><time>2016-06-02T12:29:05Z</time><pdop>3.0</pdop><geoidheight>51.00</geoidheight><course>62.3</course><type>1</type></trkpt>
      <trkpt lat="38.42420986" lon="-2.60623156"><ele>2016</ele><speed>15.43</speed><time>2016-06-02T12:29:06Z</time><pdop>4.0</pdop><geoidheight>51.00</geoidheight><course>62.2</course><type>1</type></trkpt>
      <trkpt lat="38.42427791" lon="-2.60607686"><ele>2015</ele><speed>15.56</speed><time>2016-06-02T12:29:07Z</time><pdop>4.0</pdop><geoidheight>51.00</geoidheight><course>62.0</course><type>1</type></trkpt>
      <trkpt lat="38.42433474" lon="-2.60591113"><ele>2012</ele><speed>15.89</speed><time>2016-06-02T12:29:08Z</time><pdop>4.0</pdop><geoidheight>51.00</geoidheight><course>63.1</course><type>1</type></trkpt>
      <trkpt lat="38.42438606" lon="-2.60573823"><ele>2007</ele><speed>16.05</speed><time>2016-06-02T12:29:09Z</time><pdop>4.0</pdop><geoidheight>51.00</geoidheight><course>63.9</course><type>1</type></trkpt>
      <trkpt lat="38.42444233" lon="-2.60556812"><ele>2005</ele><speed>16.05</speed><time>2016-06-02T12:29:10Z</time><pdop>9.0</pdop><geoidheight>51.00</geoidheight><course>64.0</course><type>1</type></trkpt>
      <trkpt lat="38.42455418" lon="-2.60522759"><ele>2001</ele><speed>15.85</speed><time>2016-06-02T12:29:12Z</time><pdop>9.0</pdop><geoidheight>51.00</geoidheight><course>67.0</course><type>1</type></trkpt>
      <trkpt lat="38.42468836" lon="-2.60488949"><ele>1997</ele><speed>17.18</speed><time>2016-06-02T12:29:14Z</time><pdop>9.0</pdop><geoidheight>51.00</geoidheight><course>64.8</course><type>1</type></trkpt>
      <trkpt lat="38.42477439" lon="-2.60469249"><ele>2027</ele><speed>19.14</speed><time>2016-06-02T12:29:15Z</time><pdop>9.0</pdop><geoidheight>51.00</geoidheight><course>63.1</course><type>1</type></trkpt>
      <trkpt lat="38.4248168" lon="-2.60445474"><ele>2018</ele><speed>20.96</speed><time>2016-06-02T12:29:16Z</time><pdop>9.0</pdop><geoidheight>51.00</geoidheight><course>71.7</course><type>1</type></trkpt>
      <trkpt lat="38.42488289" lon="-2.60421631"><ele>2011</ele><speed>21.74</speed><time>2016-06-02T12:29:17Z</time><pdop>9.0</pdop><geoidheight>51.00</geoidheight><course>70.7</course><type>1</type></trkpt>
      <trkpt lat="38.42491663" lon="-2.60396894"><ele>2006</ele><speed>21.77</speed><time>2016-06-02T12:29:18Z</time><pdop>10.0</pdop><geoidheight>51.00</geoidheight><course>72.9</course><type>1</type></trkpt>
      <trkpt lat="38.42494934" lon="-2.60374429"><ele>2001</ele><speed>20.87</speed><time>2016-06-02T12:29:19Z</time><pdop>9.0</pdop><geoidheight>51.00</geoidheight><course>76.6</course><type>1</type></trkpt>
      <trkpt lat="38.42498129" lon="-2.60349949"><ele>1998</ele><speed>20.82</speed><time>2016-06-02T12:29:20Z</time><pdop>9.0</pdop><geoidheight>51.00</geoidheight><course>78.4</course><type>1</type></trkpt>
      <trkpt lat="38.42502125" lon="-2.60326352"><ele>1994</ele><speed>20.94</speed><time>2016-06-02T12:29:21Z</time><pdop>9.0</pdop><geoidheight>51.00</geoidheight><course>79.0</course><type>1</type></trkpt>
      <trkpt lat="38.42505342" lon="-2.60300931"><ele>1992</ele><speed>21.44</speed><time>2016-06-02T12:29:22Z</time><pdop>9.0</pdop><geoidheight>51.00</geoidheight><course>79.1</course><type>1</type></trkpt>
      <trkpt lat="38.42509368" lon="-2.60280109"><ele>1987</ele><speed>20.61</speed><time>2016-06-02T12:29:23Z</time><pdop>9.0</pdop><geoidheight>51.00</geoidheight><course>79.9</course><type>1</type></trkpt>
      <trkpt lat="38.42512367" lon="-2.60255866"><ele>1983</ele><speed>20.78</speed><time>2016-06-02T12:29:24Z</time><pdop>9.0</pdop><geoidheight>51.00</geoidheight><course>81.3</course><type>1</type></trkpt>
      <trkpt lat="38.42516941" lon="-2.60232596"><ele>1978</ele><speed>21.07</speed><time>2016-06-02T12:29:25Z</time><pdop>9.0</pdop><geoidheight>51.00</geoidheight><course>80.0</course><type>1</type></trkpt>
      <trkpt lat="38.42521331" lon="-2.60209812"><ele>1976</ele><speed>20.71</speed><time>2016-06-02T12:29:26Z</time><pdop>9.0</pdop><geoidheight>51.00</geoidheight><course>79.7</course><type>1</type></trkpt>
      <trkpt lat="38.42527662" lon="-2.60176224"><ele>1975</ele><speed>15.71</speed><time>2016-06-02T12:29:28Z</time><pdop>9.0</pdop><geoidheight>51.00</geoidheight><course>80.4</course><type>1</type></trkpt>
      <trkpt lat="38.42529396" lon="-2.60147096"><ele>1972</ele><speed>13.69</speed><time>2016-06-02T12:29:30Z</time><pdop>9.0</pdop><geoidheight>51.00</geoidheight><course>86.3</course><type>1</type></trkpt>
      <trkpt lat="38.42528578" lon="-2.60115707"><ele>1970</ele><speed>13.91</speed><time>2016-06-02T12:29:32Z</time><pdop>9.0</pdop><geoidheight>51.00</geoidheight><course>93.8</course><type>1</type></trkpt>
      <trkpt lat="38.4252566" lon="-2.60081337"><ele>1971</ele><speed>14.91</speed><time>2016-06-02T12:29:34Z</time><pdop>10.0</pdop><geoidheight>51.00</geoidheight><course>97.4</course><type>1</type></trkpt>
      <trkpt lat="38.42512857" lon="-2.60051953"><ele>1969</ele><speed>14.78</speed><time>2016-06-02T12:29:36Z</time><pdop>10.0</pdop><geoidheight>51.00</geoidheight><course>108.2</course><type>1</type></trkpt>
      <trkpt lat="38.42507781" lon="-2.60016344"><ele>1968</ele><speed>15.86</speed><time>2016-06-02T12:29:38Z</time><pdop>9.0</pdop><geoidheight>51.00</geoidheight><course>97.8</course><type>1</type></trkpt>
      <trkpt lat="38.42504618" lon="-2.59983296"><ele>1968</ele><speed>14.65</speed><time>2016-06-02T12:29:40Z</time><pdop>9.0</pdop><geoidheight>51.00</geoidheight><course>91.9</course><type>1</type></trkpt>
      <trkpt lat="38.42509169" lon="-2.59947805"><ele>1965</ele><speed>16.29</speed><time>2016-06-02T12:29:42Z</time><pdop>9.0</pdop><geoidheight>51.00</geoidheight><course>77.6</course><type>1</type></trkpt>
      <trkpt lat="38.4251446" lon="-2.59927588"><ele>1964</ele><speed>17.86</speed><time>2016-06-02T12:29:43Z</time><pdop>9.0</pdop><geoidheight>51.00</geoidheight><course>73.2</course><type>1</type></trkpt>
      <trkpt lat="38.42523169" lon="-2.59891608"><ele>1967</ele><speed>16.46</speed><time>2016-06-02T12:29:45Z</time><pdop>9.0</pdop><geoidheight>51.00</geoidheight><course>74.2</course><type>1</type></trkpt>
      <trkpt lat="38.42530459" lon="-2.5986072"><ele>1970</ele><speed>13.61</speed><time>2016-06-02T12:29:47Z</time><pdop>9.0</pdop><geoidheight>51.00</geoidheight><course>73.2</course><type>1</type></trkpt>
      <trkpt lat="38.4254152" lon="-2.59839215"><ele>1970</ele><speed>12.24</speed><time>2016-06-02T12:29:49Z</time><pdop>10.0</pdop><geoidheight>51.00</geoidheight><course>58.1</course><type>1</type></trkpt>
      <trkpt lat="38.42564634" lon="-2.59824026"><ele>1972</ele><speed>13.12</speed><time>2016-06-02T12:29:51Z</time><pdop>10.0</pdop><geoidheight>51.00</geoidheight><course>27.0</course><type>1</type></trkpt>
      <trkpt lat="38.42585306" lon="-2.59821357"><ele>1972</ele><speed>10.60</speed><time>2016-06-02T12:29:53Z</time><pdop>9.0</pdop><geoidheight>51.00</geoidheight><course>355.7</course><type>1</type></trkpt>
      <trkpt lat="38.42599576" lon="-2.59832425"><ele>1967</ele><speed>8.29</speed><time>2016-06-02T12:29:55Z</time><pdop>9.0</pdop><geoidheight>51.00</geoidheight><course>322.5</course><type>1</type></trkpt>
      <trkpt lat="38.42577726" lon="-2.5982906"><ele>1970</ele><speed>8.62</speed><time>2016-06-02T12:30:01Z</time><pdop>10.0</pdop><geoidheight>51.00</geoidheight><course>141.8</course><type>1</type></trkpt>
      <trkpt lat="38.42569355" lon="-2.59801105"><ele>1970</ele><speed>11.51</speed><time>2016-06-02T12:30:03Z</time><pdop>10.0</pdop><geoidheight>51.00</geoidheight><course>117.9</course><type>1</type></trkpt>
      <trkpt lat="38.4256224" lon="-2.59767808"><ele>1973</ele><speed>14.66</speed><time>2016-06-02T12:30:05Z</time><pdop>9.0</pdop><geoidheight>51.00</geoidheight><course>105.2</course><type>1</type></trkpt>
      <trkpt lat="38.42559525" lon="-2.59748511"><ele>1972</ele><speed>15.59</speed><time>2016-06-02T12:30:06Z</time><pdop>4.0</pdop><geoidheight>51.00</geoidheight><course>96.5</course><type>1</type></trkpt>
      <trkpt lat="38.42559834" lon="-2.59730101"><ele>1975</ele><speed>15.37</speed><time>2016-06-02T12:30:07Z</time><pdop>4.0</pdop><geoidheight>51.00</geoidheight><course>91.2</course><type>1</type></trkpt>
      <trkpt lat="38.42560985" lon="-2.59715383"><ele>1979</ele><speed>13.87</speed><time>2016-06-02T12:30:08Z</time><pdop>3.0</pdop><geoidheight>51.00</geoidheight><course>87.4</course><type>1</type></trkpt>
      <trkpt lat="38.42561959" lon="-2.59701582"><ele>1982</ele><speed>12.26</speed><time>2016-06-02T12:30:09Z</time><pdop>3.0</pdop><geoidheight>51.00</geoidheight><course>82.8</course><type>1</type></trkpt>
      <trkpt lat="38.42564868" lon="-2.59688009"><ele>1983</ele><speed>11.94</speed><time>2016-06-02T12:30:10Z</time><pdop>3.0</pdop><geoidheight>51.00</geoidheight><course>77.4</course><type>1</type></trkpt>
      <trkpt lat="38.42568014" lon="-2.59675024"><ele>1984</ele><speed>12.08</speed><time>2016-06-02T12:30:11Z</time><pdop>3.0</pdop><geoidheight>51.00</geoidheight><course>74.5</course><type>1</type></trkpt>
      <trkpt lat="38.42572101" lon="-2.59663658"><ele>1983</ele><speed>11.34</speed><time>2016-06-02T12:30:12Z</time><pdop>3.0</pdop><geoidheight>51.00</geoidheight><course>68.5</course><type>1</type></trkpt>
      <trkpt lat="38.42576179" lon="-2.59653115"><ele>1983</ele><speed>10.89</speed><time>2016-06-02T12:30:13Z</time><pdop>4.0</pdop><geoidheight>51.00</geoidheight><course>64.4</course><type>1</type></trkpt>
      <trkpt lat="38.42580185" lon="-2.59643015"><ele>1983</ele><speed>10.57</speed><time>2016-06-02T12:30:14Z</time><pdop>5.0</pdop><geoidheight>51.00</geoidheight><course>63.4</course><type>1</type></trkpt>
      <trkpt lat="38.42599557" lon="-2.59634677"><ele>1980</ele><speed>9.42</speed><time>2016-06-02T12:30:16Z</time><pdop>8.0</pdop><geoidheight>51.00</geoidheight><course>31.7</course><type>1</type></trkpt>
      <trkpt lat="38.42626489" lon="-2.59643319"><ele>1979</ele><speed>11.96</speed><time>2016-06-02T12:30:18Z</time><pdop>6.0</pdop><geoidheight>51.00</geoidheight><course>353.2</course><type>1</type></trkpt>
      <trkpt lat="38.42637986" lon="-2.59645484"><ele>1979</ele><speed>11.71</speed><time>2016-06-02T12:30:19Z</time><pdop>6.0</pdop><geoidheight>51.00</geoidheight><course>355.8</course><type>1</type></trkpt>
      <trkpt lat="38.42658981" lon="-2.59635629"><ele>1978</ele><speed>11.84</speed><time>2016-06-02T12:30:21Z</time><pdop>7.0</pdop><geoidheight>51.00</geoidheight><course>20.8</course><type>1</type></trkpt>
      <trkpt lat="38.42671729" lon="-2.59628668"><ele>1978</ele><speed>13.26</speed><time>2016-06-02T12:30:22Z</time><pdop>6.0</pdop><geoidheight>51.00</geoidheight><course>24.0</course><type>1</type></trkpt>
      <trkpt lat="38.42685368" lon="-2.59621386"><ele>1978</ele><speed>13.80</speed><time>2016-06-02T12:30:23Z</time><pdop>6.0</pdop><geoidheight>51.00</geoidheight><course>23.5</course><type>1</type></trkpt>
      <trkpt lat="38.42698628" lon="-2.59614466"><ele>1978</ele><speed>13.95</speed><time>2016-06-02T12:30:24Z</time><pdop>6.0</pdop><geoidheight>51.00</geoidheight><course>23.7</course><type>1</type></trkpt>
      <trkpt lat="38.42708824" lon="-2.59608604"><ele>1977</ele><speed>13.46</speed><time>2016-06-02T12:30:25Z</time><pdop>5.0</pdop><geoidheight>51.00</geoidheight><course>24.0</course><type>1</type></trkpt>
      <trkpt lat="38.42720121" lon="-2.59603413"><ele>1977</ele><speed>13.61</speed><time>2016-06-02T12:30:26Z</time><pdop>5.0</pdop><geoidheight>51.00</geoidheight><course>20.3</course><type>1</type></trkpt>
      <trkpt lat="38.42731843" lon="-2.59596093"><ele>1976</ele><speed>13.63</speed><time>2016-06-02T12:30:27Z</time><pdop>7.0</pdop><geoidheight>51.00</geoidheight><course>19.3</course><type>1</type></trkpt>
      <trkpt lat="38.42746001" lon="-2.59591529"><ele>1976</ele><speed>14.32</speed><time>2016-06-02T12:30:28Z</time><pdop>8.0</pdop><geoidheight>51.00</geoidheight><course>16.7</course><type>1</type></trkpt>
      <trkpt lat="38.42762806" lon="-2.59585961"><ele>1975</ele><speed>12.13</speed><time>2016-06-02T12:30:30Z</time><pdop>8.0</pdop><geoidheight>51.00</geoidheight><course>16.5</course><type>1</type></trkpt>
      <trkpt lat="38.42790916" lon="-2.59579028"><ele>1974</ele><speed>13.62</speed><time>2016-06-02T12:30:32Z</time><pdop>10.0</pdop><geoidheight>51.00</geoidheight><course>14.0</course><type>1</type></trkpt>
      <trkpt lat="38.42810814" lon="-2.59568023"><ele>1972</ele><speed>13.23</speed><time>2016-06-02T12:30:34Z</time><pdop>10.0</pdop><geoidheight>51.00</geoidheight><course>23.0</course><type>1</type></trkpt>
      <trkpt lat="38.42833991" lon="-2.59553166"><ele>1968</ele><speed>15.35</speed><time>2016-06-02T12:30:36Z</time><pdop>6.0</pdop><geoidheight>51.00</geoidheight><course>25.3</course><type>1</type></trkpt>
      <trkpt lat="38.42847012" lon="-2.59543689"><ele>1967</ele><speed>15.62</speed><time>2016-06-02T12:30:37Z</time><pdop>5.0</pdop><geoidheight>51.00</geoidheight><course>30.8</course><type>1</type></trkpt>
      <trkpt lat="38.42852108" lon="-2.59532379"><ele>1962</ele><speed>15.36</speed><time>2016-06-02T12:30:38Z</time><pdop>5.0</pdop><geoidheight>51.00</geoidheight><course>38.6</course><type>1</type></trkpt>
      <trkpt lat="38.42862974" lon="-2.59520668"><ele>1960</ele><speed>15.67</speed><time>2016-06-02T12:30:39Z</time><pdop>5.0</pdop><geoidheight>51.00</geoidheight><course>39.9</course><type>1</type></trkpt>
      <trkpt lat="38.42873511" lon="-2.59507616"><ele>1959</ele><speed>15.75</speed><time>2016-06-02T12:30:40Z</time><pdop>6.0</pdop><geoidheight>51.00</geoidheight><course>42.5</course><type>1</type></trkpt>
      <trkpt lat="38.42873775" lon="-2.59491093"><ele>1954</ele><speed>13.45</speed><time>2016-06-02T12:30:41Z</time><pdop>4.0</pdop><geoidheight>51.00</geoidheight><course>67.6</course><type>1</type></trkpt>
      <trkpt lat="38.42877953" lon="-2.59476846"><ele>1950</ele><speed>13.98</speed><time>2016-06-02T12:30:42Z</time><pdop>4.0</pdop><geoidheight>51.00</geoidheight><course>69.5</course><type>1</type></trkpt>
      <trkpt lat="38.42882777" lon="-2.59460808"><ele>1946</ele><speed>14.83</speed><time>2016-06-02T12:30:43Z</time><pdop>4.0</pdop><geoidheight>51.00</geoidheight><course>70.3</course><type>1</type></trkpt>
      <trkpt lat="38.42888613" lon="-2.59444097"><ele>1942</ele><speed>15.70</speed><time>2016-06-02T12:30:44Z</time><pdop>3.0</pdop><geoidheight>51.00</geoidheight><course>69.8</course><type>1</type></trkpt>
      <trkpt lat="38.42894006" lon="-2.59427791"><ele>1939</ele><speed>15.53</speed><time>2016-06-02T12:30:45Z</time><pdop>3.0</pdop><geoidheight>51.00</geoidheight><course>69.5</course><type>1</type></trkpt>
      <trkpt lat="38.42899271" lon="-2.59412043"><ele>1936</ele><speed>15.16</speed><time>2016-06-02T12:30:46Z</time><pdop>3.0</pdop><geoidheight>51.00</geoidheight><course>69.0</course><type>1</type></trkpt>
      <trkpt lat="38.42903183" lon="-2.59396421"><ele>1934</ele><speed>15.21</speed><time>2016-06-02T12:30:47Z</time><pdop>3.0</pdop><geoidheight>51.00</geoidheight><course>71.0</course><type>1</type></trkpt>
      <trkpt lat="38.42906836" lon="-2.59379298"><ele>1932</ele><speed>15.31</speed><time>2016-06-02T12:30:48Z</time><pdop>3.0</pdop><geoidheight>51.00</geoidheight><course>73.3</course><type>1</type></trkpt>
      <trkpt lat="38.42911173" lon="-2.59362548"><ele>1927</ele><speed>15.92</speed><time>2016-06-02T12:30:49Z</time><pdop>3.0</pdop><geoidheight>51.00</geoidheight><course>73.4</course><type>1</type></trkpt>
      <trkpt lat="38.42914791" lon="-2.59344946"><ele>1925</ele><speed>16.01</speed><time>2016-06-02T12:30:50Z</time><pdop>3.0</pdop><geoidheight>51.00</geoidheight><course>74.1</course><type>1</type></trkpt>
      <trkpt lat="38.42917535" lon="-2.5932728"><ele>1923</ele><speed>15.95</speed><time>2016-06-02T12:30:51Z</time><pdop>3.0</pdop><geoidheight>51.00</geoidheight><course>77.4</course><type>1</type></trkpt>
      <trkpt lat="38.42920393" lon="-2.59310205"><ele>1917</ele><speed>15.84</speed><time>2016-06-02T12:30:52Z</time><pdop>3.0</pdop><geoidheight>51.00</geoidheight><course>80.3</course><type>1</type></trkpt>
      <trkpt lat="38.42922187" lon="-2.59292553"><ele>1915</ele><speed>15.67</speed><time>2016-06-02T12:30:53Z</time><pdop>3.0</pdop><geoidheight>51.00</geoidheight><course>82.4</course><type>1</type></trkpt>
      <trkpt lat="38.42924121" lon="-2.59274361"><ele>1912</ele><speed>16.68</speed><time>2016-06-02T12:30:54Z</time><pdop>3.0</pdop><geoidheight>51.00</geoidheight><course>82.0</course><type>1</type></trkpt>
      <trkpt lat="38.42926941" lon="-2.59255779"><ele>1909</ele><speed>16.72</speed><time>2016-06-02T12:30:55Z</time><pdop>3.0</pdop><geoidheight>51.00</geoidheight><course>80.8</course><type>1</type></trkpt>
      <trkpt lat="38.42929038" lon="-2.59236814"><ele>1908</ele><speed>16.57</speed><time>2016-06-02T12:30:56Z</time><pdop>3.0</pdop><geoidheight>51.00</geoidheight><course>81.2</course><type>1</type></trkpt>
      <trkpt lat="38.42930819" lon="-2.59218196"><ele>1907</ele><speed>16.31</speed><time>2016-06-02T12:30:57Z</time><pdop>3.0</pdop><geoidheight>51.00</geoidheight><course>82.9</course><type>1</type></trkpt>
      <trkpt lat="38.42931771" lon="-2.59199514"><ele>1906</ele><speed>15.94</speed><time>2016-06-02T12:30:58Z</time><pdop>4.0</pdop><geoidheight>51.00</geoidheight><course>82.2</course><type>1</type></trkpt>
      <trkpt lat="38.42934861" lon="-2.59181823"><ele>1906</ele><speed>15.56</speed><time>2016-06-02T12:30:59Z</time><pdop>4.0</pdop><geoidheight>51.00</geoidheight><course>80.2</course><type>1</type></trkpt>
      <trkpt lat="38.42937217" lon="-2.59164161"><ele>1904</ele><speed>16.04</speed><time>2016-06-02T12:31:00Z</time><pdop>4.0</pdop><geoidheight>51.00</geoidheight><course>80.8</course><type>1</type></trkpt>
      <trkpt lat="38.42940803" lon="-2.59145176"><ele>1902</ele><speed>16.49</speed><time>2016-06-02T12:31:01Z</time><pdop>4.0</pdop><geoidheight>51.00</geoidheight><course>79.7</course><type>1</type></trkpt>
      <trkpt lat="38.42947108" lon="-2.59127247"><ele>1901</ele><speed>17.00</speed><time>2016-06-02T12:31:02Z</time><pdop>4.0</pdop><geoidheight>51.00</geoidheight><course>74.0</course><type>1</type></trkpt>
      <trkpt lat="38.42951754" lon="-2.59108198"><ele>1900</ele><speed>16.86</speed><time>2016-06-02T12:31:03Z</time><pdop>5.0</pdop><geoidheight>51.00</geoidheight><course>72.7</course><type>1</type></trkpt>
      <trkpt lat="38.42956237" lon="-2.59086865"><ele>1899</ele><speed>18.48</speed><time>2016-06-02T12:31:04Z</time><pdop>5.0</pdop><geoidheight>51.00</geoidheight><course>73.4</course><type>1</type></trkpt>
      <trkpt lat="38.42962258" lon="-2.59068286"><ele>1897</ele><speed>18.88</speed><time>2016-06-02T12:31:05Z</time><pdop>5.0</pdop><geoidheight>51.00</geoidheight><course>72.3</course><type>1</type></trkpt>
      <trkpt lat="38.42965055" lon="-2.59046233"><ele>1895</ele><speed>19.53</speed><time>2016-06-02T12:31:06Z</time><pdop>5.0</pdop><geoidheight>51.00</geoidheight><course>78.4</course><type>1</type></trkpt>
      <trkpt lat="38.42970192" lon="-2.59025967"><ele>1893</ele><speed>19.32</speed><time>2016-06-02T12:31:07Z</time><pdop>4.0</pdop><geoidheight>51.00</geoidheight><course>77.6</course><type>1</type></trkpt>
      <trkpt lat="38.42975703" lon="-2.59005306"><ele>1887</ele><speed>19.75</speed><time>2016-06-02T12:31:08Z</time><pdop>4.0</pdop><geoidheight>51.00</geoidheight><course>76.9</course><type>1</type></trkpt>
      <trkpt lat="38.42980378" lon="-2.58983476"><ele>1885</ele><speed>19.31</speed><time>2016-06-02T12:31:09Z</time><pdop>4.0</pdop><geoidheight>51.00</geoidheight><course>76.9</course><type>1</type></trkpt>
      <trkpt lat="38.42983465" lon="-2.58961733"><ele>1883</ele><speed>19.20</speed><time>2016-06-02T12:31:10Z</time><pdop>4.0</pdop><geoidheight>51.00</geoidheight><course>78.2</course><type>1</type></trkpt>
      <trkpt lat="38.42986591" lon="-2.58940839"><ele>1880</ele><speed>19.12</speed><time>2016-06-02T12:31:11Z</time><pdop>4.0</pdop><geoidheight>51.00</geoidheight><course>79.1</course><type>1</type></trkpt>
      <trkpt lat="38.42990319" lon="-2.58920425"><ele>1874</ele><speed>18.81</speed><time>2016-06-02T12:31:12Z</time><pdop>4.0</pdop><geoidheight>51.00</geoidheight><course>78.5</course><type>1</type></trkpt>
      <trkpt lat="38.4299406" lon="-2.58900585"><ele>1868</ele><speed>19.04</speed><time>2016-06-02T12:31:13Z</time><pdop>4.0</pdop><geoidheight>51.00</geoidheight><course>78.6</course><type>1</type></trkpt>
      <trkpt lat="38.42997763" lon="-2.58879405"><ele>1864</ele><speed>18.89</speed><time>2016-06-02T12:31:14Z</time><pdop>4.0</pdop><geoidheight>51.00</geoidheight><course>78.7</course><type>1</type></trkpt>
      <trkpt lat="38.43001009" lon="-2.58856257"><ele>1859</ele><speed>19.96</speed><time>2016-06-02T12:31:15Z</time><pdop>4.0</pdop><geoidheight>51.00</geoidheight><course>81.2</course><type>1</type></trkpt>
      <trkpt lat="38.43003857" lon="-2.5883507"><ele>1855</ele><speed>19.65</speed><time>2016-06-02T12:31:16Z</time><pdop>4.0</pdop><geoidheight>51.00</geoidheight><course>80.2</course><type>1</type></trkpt>
      <trkpt lat="38.43007683" lon="-2.58812693"><ele>1855</ele><speed>19.48</speed><time>2016-06-02T12:31:17Z</time><pdop>4.0</pdop><geoidheight>51.00</geoidheight><course>79.1</course><type>1</type></trkpt>
      <trkpt lat="38.43011354" lon="-2.58792737"><ele>1851</ele><speed>18.62</speed><time>2016-06-02T12:31:18Z</time><pdop>4.0</pdop><geoidheight>51.00</geoidheight><course>77.0</course><type>1</type></trkpt>
      <trkpt lat="38.43014983" lon="-2.58773379"><ele>1849</ele><speed>18.58</speed><time>2016-06-02T12:31:19Z</time><pdop>4.0</pdop><geoidheight>51.00</geoidheight><course>77.2</course><type>1</type></trkpt>
      <trkpt lat="38.43018907" lon="-2.58754158"><ele>1846</ele><speed>18.30</speed><time>2016-06-02T12:31:20Z</time><pdop>3.0</pdop><geoidheight>51.00</geoidheight><course>77.2</course><type>1</type></trkpt>
      <trkpt lat="38.43022234" lon="-2.58733047"><ele>1844</ele><speed>18.93</speed><time>2016-06-02T12:31:21Z</time><pdop>3.0</pdop><geoidheight>51.00</geoidheight><course>78.6</course><type>1</type></trkpt>
      <trkpt lat="38.43025975" lon="-2.58713888"><ele>1840</ele><speed>18.90</speed><time>2016-06-02T12:31:22Z</time><pdop>4.0</pdop><geoidheight>51.00</geoidheight><course>78.2</course><type>1</type></trkpt>
      <trkpt lat="38.4302837" lon="-2.5869193"><ele>1838</ele><speed>19.76</speed><time>2016-06-02T12:31:23Z</time><pdop>3.0</pdop><geoidheight>51.00</geoidheight><course>82.2</course><type>1</type></trkpt>
      <trkpt lat="38.43031161" lon="-2.58669635"><ele>1835</ele><speed>19.68</speed><time>2016-06-02T12:31:24Z</time><pdop>4.0</pdop><geoidheight>51.00</geoidheight><course>81.4</course><type>1</type></trkpt>
      <trkpt lat="38.43033799" lon="-2.58648453"><ele>1834</ele><speed>19.00</speed><time>2016-06-02T12:31:25Z</time><pdop>4.0</pdop><geoidheight>51.00</geoidheight><course>80.8</course><type>1</type></trkpt>
      <trkpt lat="38.43035263" lon="-2.58630685"><ele>1832</ele><speed>17.68</speed><time>2016-06-02T12:31:26Z</time><pdop>6.0</pdop><geoidheight>51.00</geoidheight><course>81.8</course><type>1</type></trkpt>
      <trkpt lat="38.43035804" lon="-2.586115"><ele>1830</ele><speed>16.79</speed><time>2016-06-02T12:31:27Z</time><pdop>5.0</pdop><geoidheight>51.00</geoidheight><course>84.4</course><type>1</type></trkpt>
      <trkpt lat="38.43037842" lon="-2.58591923"><ele>1829</ele><speed>16.68</speed><time>2016-06-02T12:31:28Z</time><pdop>5.0</pdop><geoidheight>51.00</geoidheight><course>84.0</course><type>1</type></trkpt>
      <trkpt lat="38.43039952" lon="-2.58572531"><ele>1828</ele><speed>16.94</speed><time>2016-06-02T12:31:29Z</time><pdop>6.0</pdop><geoidheight>51.00</geoidheight><course>83.5</course><type>1</type></trkpt>
      <trkpt lat="38.43040886" lon="-2.58555083"><ele>1826</ele><speed>16.49</speed><time>2016-06-02T12:31:30Z</time><pdop>5.0</pdop><geoidheight>51.00</geoidheight><course>85.8</course><type>1</type></trkpt>
      <trkpt lat="38.43043028" lon="-2.58535864"><ele>1824</ele><speed>16.91</speed><time>2016-06-02T12:31:31Z</time><pdop>6.0</pdop><geoidheight>51.00</geoidheight><course>84.9</course><type>1</type></trkpt>
      <trkpt lat="38.4304659" lon="-2.58515319"><ele>1816</ele><speed>18.87</speed><time>2016-06-02T12:31:32Z</time><pdop>5.0</pdop><geoidheight>51.00</geoidheight><course>81.5</course><type>1</type></trkpt>
      <trkpt lat="38.43049387" lon="-2.58494856"><ele>1809</ele><speed>18.63</speed><time>2016-06-02T12:31:33Z</time><pdop>5.0</pdop><geoidheight>51.00</geoidheight><course>81.7</course><type>1</type></trkpt>
      <trkpt lat="38.4305145" lon="-2.58473968"><ele>1804</ele><speed>18.39</speed><time>2016-06-02T12:31:34Z</time><pdop>6.0</pdop><geoidheight>51.00</geoidheight><course>83.2</course><type>1</type></trkpt>
      <trkpt lat="38.43052515" lon="-2.58452968"><ele>1799</ele><speed>18.44</speed><time>2016-06-02T12:31:35Z</time><pdop>5.0</pdop><geoidheight>51.00</geoidheight><course>85.6</course><type>1</type></trkpt>
      <trkpt lat="38.43053813" lon="-2.58432255"><ele>1794</ele><speed>18.47</speed><time>2016-06-02T12:31:36Z</time><pdop>6.0</pdop><geoidheight>51.00</geoidheight><course>85.6</course><type>1</type></trkpt>
      <trkpt lat="38.4305448" lon="-2.58411578"><ele>1787</ele><speed>18.58</speed><time>2016-06-02T12:31:37Z</time><pdop>5.0</pdop><geoidheight>51.00</geoidheight><course>85.5</course><type>1</type></trkpt>
      <trkpt lat="38.43055407" lon="-2.58389627"><ele>1780</ele><speed>18.81</speed><time>2016-06-02T12:31:38Z</time><pdop>5.0</pdop><geoidheight>51.00</geoidheight><course>84.6</course><type>1</type></trkpt>
      <trkpt lat="38.43056229" lon="-2.58368507"><ele>1775</ele><speed>19.32</speed><time>2016-06-02T12:31:39Z</time><pdop>5.0</pdop><geoidheight>51.00</geoidheight><course>84.1</course><type>1</type></trkpt>
      <trkpt lat="38.43057889" lon="-2.58347233"><ele>1768</ele><speed>19.66</speed><time>2016-06-02T12:31:40Z</time><pdop>5.0</pdop><geoidheight>51.00</geoidheight><course>82.6</course><type>1</type></trkpt>
      <trkpt lat="38.43061014" lon="-2.58326762"><ele>1764</ele><speed>19.48</speed><time>2016-06-02T12:31:41Z</time><pdop>5.0</pdop><geoidheight>51.00</geoidheight><course>81.1</course><type>1</type></trkpt>
      <trkpt lat="38.43064276" lon="-2.58304558"><ele>1761</ele><speed>19.31</speed><time>2016-06-02T12:31:42Z</time><pdop>6.0</pdop><geoidheight>51.00</geoidheight><course>81.4</course><type>1</type></trkpt>
      <trkpt lat="38.43067164" lon="-2.58283508"><ele>1757</ele><speed>18.51</speed><time>2016-06-02T12:31:43Z</time><pdop>5.0</pdop><geoidheight>51.00</geoidheight><course>82.2</course><type>1</type></trkpt>
      <trkpt lat="38.43069656" lon="-2.58263012"><ele>1755</ele><speed>18.27</speed><time>2016-06-02T12:31:44Z</time><pdop>5.0</pdop><geoidheight>51.00</geoidheight><course>82.5</course><type>1</type></trkpt>
      <trkpt lat="38.43072741" lon="-2.58245786"><ele>1752</ele><speed>17.08</speed><time>2016-06-02T12:31:45Z</time><pdop>5.0</pdop><geoidheight>51.00</geoidheight><course>80.6</course><type>1</type></trkpt>
      <trkpt lat="38.43073654" lon="-2.58225954"><ele>1749</ele><speed>17.34</speed><time>2016-06-02T12:31:46Z</time><pdop>7.0</pdop><geoidheight>51.00</geoidheight><course>81.6</course><type>1</type></trkpt>
      <trkpt lat="38.43078232" lon="-2.58188548"><ele>1746</ele><speed>16.66</speed><time>2016-06-02T12:31:48Z</time><pdop>12.0</pdop><geoidheight>51.00</geoidheight><course>81.8</course><type>1</type></trkpt>
      <trkpt lat="38.43086889" lon="-2.58149822"><ele>1736</ele><speed>16.86</speed><time>2016-06-02T12:31:50Z</time><pdop>10.0</pdop><geoidheight>51.00</geoidheight><course>74.1</course><type>1</type></trkpt>
      <trkpt lat="38.43094495" lon="-2.58116806"><ele>1731</ele><speed>14.67</speed><time>2016-06-02T12:31:52Z</time><pdop>10.0</pdop><geoidheight>51.00</geoidheight><course>78.2</course><type>1</type></trkpt>
      <trkpt lat="38.43097253" lon="-2.58087458"><ele>1718</ele><speed>14.14</speed><time>2016-06-02T12:31:54Z</time><pdop>10.0</pdop><geoidheight>51.00</geoidheight><course>84.0</course><type>1</type></trkpt>
      <trkpt lat="38.43104475" lon="-2.58053879"><ele>1708</ele><speed>15.73</speed><time>2016-06-02T12:31:56Z</time><pdop>9.0</pdop><geoidheight>51.00</geoidheight><course>70.7</course><type>1</type></trkpt>
      <trkpt lat="38.43113795" lon="-2.58021013"><ele>1702</ele><speed>15.20</speed><time>2016-06-02T12:31:58Z</time><pdop>10.0</pdop><geoidheight>51.00</geoidheight><course>68.8</course><type>1</type></trkpt>
      <trkpt lat="38.43122885" lon="-2.57989073"><ele>1698</ele><speed>15.25</speed><time>2016-06-02T12:32:00Z</time><pdop>10.0</pdop><geoidheight>51.00</geoidheight><course>70.8</course><type>1</type></trkpt>
      <trkpt lat="38.4313173" lon="-2.57956872"><ele>1693</ele><speed>15.44</speed><time>2016-06-02T12:32:02Z</time><pdop>9.0</pdop><geoidheight>51.00</geoidheight><course>72.4</course><type>1</type></trkpt>
      <trkpt lat="38.4314402" lon="-2.5792349"><ele>1677</ele><speed>17.00</speed><time>2016-06-02T12:32:04Z</time><pdop>9.0</pdop><geoidheight>51.00</geoidheight><course>64.2</course><type>1</type></trkpt>
      <trkpt lat="38.43156593" lon="-2.57890239"><ele>1668</ele><speed>16.36</speed><time>2016-06-02T12:32:06Z</time><pdop>9.0</pdop><geoidheight>51.00</geoidheight><course>66.7</course><type>1</type></trkpt>
      <trkpt lat="38.43164313" lon="-2.57856497"><ele>1664</ele><speed>15.77</speed><time>2016-06-02T12:32:08Z</time><pdop>9.0</pdop><geoidheight>51.00</geoidheight><course>73.3</course><type>1</type></trkpt>
      <trkpt lat="38.43175398" lon="-2.57822589"><ele>1659</ele><speed>16.62</speed><time>2016-06-02T12:32:10Z</time><pdop>9.0</pdop><geoidheight>51.00</geoidheight><course>70.1</course><type>1</type></trkpt>
      <trkpt lat="38.43181463" lon="-2.57802442"><ele>1655</ele><speed>18.69</speed><time>2016-06-02T12:32:11Z</time><pdop>9.0</pdop><geoidheight>51.00</geoidheight><course>71.6</course><type>1</type></trkpt>
      <trkpt lat="38.4318828" lon="-2.57782557"><ele>1650</ele><speed>18.92</speed><time>2016-06-02T12:32:12Z</time><pdop>9.0</pdop><geoidheight>51.00</geoidheight><course>70.1</course><type>1</type></trkpt>
      <trkpt lat="38.43197938" lon="-2.57745185"><ele>1649</ele><speed>16.85</speed><time>2016-06-02T12:32:14Z</time><pdop>9.0</pdop><geoidheight>51.00</geoidheight><course>70.4</course><type>1</type></trkpt>
      <trkpt lat="38.432057" lon="-2.57712738"><ele>1646</ele><speed>14.38</speed><time>2016-06-02T12:32:16Z</time><pdop>9.0</pdop><geoidheight>51.00</geoidheight><course>73.8</course><type>1</type></trkpt>
      <trkpt lat="38.4321427" lon="-2.57684987"><ele>1643</ele><speed>13.10</speed><time>2016-06-02T12:32:18Z</time><pdop>10.0</pdop><geoidheight>51.00</geoidheight><course>70.1</course><type>1</type></trkpt>
      <trkpt lat="38.43219997" lon="-2.57656147"><ele>1639</ele><speed>13.22</speed><time>2016-06-02T12:32:20Z</time><pdop>10.0</pdop><geoidheight>51.00</geoidheight><course>74.3</course><type>1</type></trkpt>
      <trkpt lat="38.43225956" lon="-2.57619563"><ele>1634</ele><speed>16.89</speed><time>2016-06-02T12:32:22Z</time><pdop>10.0</pdop><geoidheight>51.00</geoidheight><course>80.7</course><type>1</type></trkpt>
      <trkpt lat="38.43232188" lon="-2.57579107"><ele>1630</ele><speed>18.54</speed><time>2016-06-02T12:32:24Z</time><pdop>10.0</pdop><geoidheight>51.00</geoidheight><course>79.2</course><type>1</type></trkpt>
      <trkpt lat="38.43237601" lon="-2.57541889"><ele>1626</ele><speed>16.57</speed><time>2016-06-02T12:32:26Z</time><pdop>9.0</pdop><geoidheight>51.00</geoidheight><course>80.2</course><type>1</type></trkpt>
      <trkpt lat="38.43240212" lon="-2.57507951"><ele>1621</ele><speed>15.29</speed><time>2016-06-02T12:32:28Z</time><pdop>9.0</pdop><geoidheight>51.00</geoidheight><course>84.9</course><type>1</type></trkpt>
      <trkpt lat="38.43242155" lon="-2.57490823"><ele>1614</ele><speed>15.77</speed><time>2016-06-02T12:32:29Z</time><pdop>3.0</pdop><geoidheight>51.00</geoidheight><course>83.2</course><type>1</type></trkpt>
      <trkpt lat="38.43244275" lon="-2.57472048"><ele>1607</ele><speed>17.08</speed><time>2016-06-02T12:32:30Z</time><pdop>3.0</pdop><geoidheight>51.00</geoidheight><course>82.6</course><type>1</type></trkpt>
      <trkpt lat="38.43247514" lon="-2.57451482"><ele>1601</ele><speed>18.45</speed><time>2016-06-02T12:32:31Z</time><pdop>4.0</pdop><geoidheight>51.00</geoidheight><course>81.5</course><type>1</type></trkpt>
      <trkpt lat="38.43249213" lon="-2.57427549"><ele>1594</ele><speed>20.76</speed><time>2016-06-02T12:32:32Z</time><pdop>4.0</pdop><geoidheight>51.00</geoidheight><course>82.7</course><type>1</type></trkpt>
      <trkpt lat="38.43251586" lon="-2.5740076"><ele>1596</ele><speed>21.95</speed><time>2016-06-02T12:32:33Z</time><pdop>3.0</pdop><geoidheight>51.00</geoidheight><course>81.3</course><type>1</type></trkpt>
      <trkpt lat="38.43256076" lon="-2.57379192"><ele>1595</ele><speed>20.24</speed><time>2016-06-02T12:32:34Z</time><pdop>4.0</pdop><geoidheight>51.00</geoidheight><course>77.3</course><type>1</type></trkpt>
      <trkpt lat="38.43259145" lon="-2.57359257"><ele>1594</ele><speed>18.45</speed><time>2016-06-02T12:32:35Z</time><pdop>3.0</pdop><geoidheight>51.00</geoidheight><course>79.6</course><type>1</type></trkpt>
      <trkpt lat="38.43261459" lon="-2.57339827"><ele>1591</ele><speed>18.04</speed><time>2016-06-02T12:32:36Z</time><pdop>4.0</pdop><geoidheight>51.00</geoidheight><course>84.1</course><type>1</type></trkpt>
      <trkpt lat="38.43262749" lon="-2.57318253"><ele>1588</ele><speed>18.67</speed><time>2016-06-02T12:32:37Z</time><pdop>3.0</pdop><geoidheight>51.00</geoidheight><course>85.0</course><type>1</type></trkpt>
      <trkpt lat="38.43265409" lon="-2.57297197"><ele>1587</ele><speed>18.61</speed><time>2016-06-02T12:32:38Z</time><pdop>4.0</pdop><geoidheight>51.00</geoidheight><course>82.5</course><type>1</type></trkpt>
      <trkpt lat="38.43267579" lon="-2.57277029"><ele>1585</ele><speed>17.94</speed><time>2016-06-02T12:32:39Z</time><pdop>4.0</pdop><geoidheight>51.00</geoidheight><course>81.4</course><type>1</type></trkpt>
      <trkpt lat="38.43270013" lon="-2.57257375"><ele>1584</ele><speed>17.25</speed><time>2016-06-02T12:32:40Z</time><pdop>4.0</pdop><geoidheight>51.00</geoidheight><course>81.0</course><type>1</type></trkpt>
      <trkpt lat="38.43271646" lon="-2.57237529"><ele>1585</ele><speed>16.96</speed><time>2016-06-02T12:32:41Z</time><pdop>4.0</pdop><geoidheight>51.00</geoidheight><course>83.3</course><type>1</type></trkpt>
      <trkpt lat="38.43273023" lon="-2.57217768"><ele>1583</ele><speed>17.10</speed><time>2016-06-02T12:32:42Z</time><pdop>3.0</pdop><geoidheight>51.00</geoidheight><course>87.2</course><type>1</type></trkpt>
      <trkpt lat="38.43274487" lon="-2.57199598"><ele>1583</ele><speed>17.11</speed><time>2016-06-02T12:32:43Z</time><pdop>4.0</pdop><geoidheight>51.00</geoidheight><course>87.1</course><type>1</type></trkpt>
      <trkpt lat="38.43274578" lon="-2.57179616"><ele>1583</ele><speed>17.48</speed><time>2016-06-02T12:32:44Z</time><pdop>4.0</pdop><geoidheight>51.00</geoidheight><course>88.9</course><type>1</type></trkpt>
      <trkpt lat="38.43274946" lon="-2.57160604"><ele>1583</ele><speed>16.70</speed><time>2016-06-02T12:32:45Z</time><pdop>3.0</pdop><geoidheight>51.00</geoidheight><course>87.7</course><type>1</type></trkpt>
      <trkpt lat="38.43276356" lon="-2.57141898"><ele>1585</ele><speed>15.73</speed><time>2016-06-02T12:32:46Z</time><pdop>3.0</pdop><geoidheight>51.00</geoidheight><course>82.4</course><type>1</type></trkpt>
      <trkpt lat="38.43278863" lon="-2.57125025"><ele>1584</ele><speed>15.27</speed><time>2016-06-02T12:32:47Z</time><pdop>3.0</pdop><geoidheight>51.00</geoidheight><course>78.9</course><type>1</type></trkpt>
      <trkpt lat="38.43282864" lon="-2.57108957"><ele>1585</ele><speed>14.68</speed><time>2016-06-02T12:32:48Z</time><pdop>3.0</pdop><geoidheight>51.00</geoidheight><course>73.1</course><type>1</type></trkpt>
      <trkpt lat="38.4328834" lon="-2.57094295"><ele>1585</ele><speed>14.04</speed><time>2016-06-02T12:32:49Z</time><pdop>4.0</pdop><geoidheight>51.00</geoidheight><course>66.5</course><type>1</type></trkpt>
      <trkpt lat="38.43294892" lon="-2.57083035"><ele>1584</ele><speed>13.12</speed><time>2016-06-02T12:32:50Z</time><pdop>4.0</pdop><geoidheight>51.00</geoidheight><course>59.4</course><type>1</type></trkpt>
      <trkpt lat="38.43305423" lon="-2.57075461"><ele>1580</ele><speed>12.80</speed><time>2016-06-02T12:32:51Z</time><pdop>4.0</pdop><geoidheight>51.00</geoidheight><course>46.6</course><type>1</type></trkpt>
      <trkpt lat="38.43317612" lon="-2.57070418"><ele>1577</ele><speed>13.00</speed><time>2016-06-02T12:32:52Z</time><pdop>4.0</pdop><geoidheight>51.00</geoidheight><course>29.5</course><type>1</type></trkpt>
      <trkpt lat="38.43328042" lon="-2.57066182"><ele>1577</ele><speed>12.06</speed><time>2016-06-02T12:32:53Z</time><pdop>3.0</pdop><geoidheight>51.00</geoidheight><course>16.8</course><type>1</type></trkpt>
      <trkpt lat="38.43337292" lon="-2.57064934"><ele>1578</ele><speed>10.47</speed><time>2016-06-02T12:32:54Z</time><pdop>3.0</pdop><geoidheight>51.00</geoidheight><course>6.0</course><type>1</type></trkpt>
      <trkpt lat="38.43344096" lon="-2.57066857"><ele>1578</ele><speed>8.22</speed><time>2016-06-02T12:32:55Z</time><pdop>3.0</pdop><geoidheight>51.00</geoidheight><course>351.7</course><type>1</type></trkpt>
      <trkpt lat="38.43348466" lon="-2.57074516"><ele>1577</ele><speed>4.07</speed><time>2016-06-02T12:32:57Z</time><pdop>3.0</pdop><geoidheight>51.00</geoidheight><course>298.2</course><type>1</type></trkpt>
      <trkpt lat="38.43345045" lon="-2.57083906"><ele>1576</ele><speed>4.07</speed><time>2016-06-02T12:32:59Z</time><pdop>3.0</pdop><geoidheight>51.00</geoidheight><course>235.8</course><type>1</type></trkpt>
      <trkpt lat="38.4333721" lon="-2.57085271"><ele>1577</ele><speed>4.29</speed><time>2016-06-02T12:33:01Z</time><pdop>5.0</pdop><geoidheight>51.00</geoidheight><course>186.5</course><type>1</type></trkpt>
      <trkpt lat="38.43318402" lon="-2.57074214"><ele>1577</ele><speed>9.56</speed><time>2016-06-02T12:33:03Z</time><pdop>4.0</pdop><geoidheight>51.00</geoidheight><course>153.3</course><type>1</type></trkpt>
      <trkpt lat="38.43310179" lon="-2.57067306"><ele>1577</ele><speed>10.32</speed><time>2016-06-02T12:33:04Z</time><pdop>4.0</pdop><geoidheight>51.00</geoidheight><course>145.6</course><type>1</type></trkpt>
      <trkpt lat="38.43303613" lon="-2.57059543"><ele>1576</ele><speed>11.15</speed><time>2016-06-02T12:33:05Z</time><pdop>4.0</pdop><geoidheight>51.00</geoidheight><course>140.8</course><type>1</type></trkpt>
      <trkpt lat="38.4329468" lon="-2.57050357"><ele>1577</ele><speed>12.01</speed><time>2016-06-02T12:33:06Z</time><pdop>5.0</pdop><geoidheight>51.00</geoidheight><course>139.5</course><type>1</type></trkpt>
      <trkpt lat="38.43285256" lon="-2.57039637"><ele>1578</ele><speed>12.73</speed><time>2016-06-02T12:33:07Z</time><pdop>5.0</pdop><geoidheight>51.00</geoidheight><course>138.3</course><type>1</type></trkpt>
      <trkpt lat="38.43276205" lon="-2.57028505"><ele>1580</ele><speed>13.18</speed><time>2016-06-02T12:33:08Z</time><pdop>5.0</pdop><geoidheight>51.00</geoidheight><course>134.8</course><type>1</type></trkpt>
      <trkpt lat="38.43273493" lon="-2.57014249"><ele>1581</ele><speed>12.93</speed><time>2016-06-02T12:33:09Z</time><pdop>4.0</pdop><geoidheight>51.00</geoidheight><course>120.7</course><type>1</type></trkpt>
      <trkpt lat="38.43270082" lon="-2.56999739"><ele>1583</ele><speed>12.80</speed><time>2016-06-02T12:33:10Z</time><pdop>5.0</pdop><geoidheight>51.00</geoidheight><course>112.9</course><type>1</type></trkpt>
      <trkpt lat="38.43268305" lon="-2.56981983"><ele>1580</ele><speed>14.00</speed><time>2016-06-02T12:33:11Z</time><pdop>4.0</pdop><geoidheight>51.00</geoidheight><course>91.6</course><type>1</type></trkpt>
      <trkpt lat="38.43267954" lon="-2.56965968"><ele>1579</ele><speed>13.99</speed><time>2016-06-02T12:33:12Z</time><pdop>5.0</pdop><geoidheight>51.00</geoidheight><course>91.6</course><type>1</type></trkpt>
      <trkpt lat="38.43271032" lon="-2.56948976"><ele>1580</ele><speed>14.54</speed><time>2016-06-02T12:33:13Z</time><pdop>4.0</pdop><geoidheight>51.00</geoidheight><course>80.1</course><type>1</type></trkpt>
      <trkpt lat="38.43273799" lon="-2.56932779"><ele>1581</ele><speed>14.39</speed><time>2016-06-02T12:33:14Z</time><pdop>4.0</pdop><geoidheight>51.00</geoidheight><course>76.3</course><type>1</type></trkpt>
      <trkpt lat="38.43278509" lon="-2.56917823"><ele>1582</ele><speed>14.04</speed><time>2016-06-02T12:33:15Z</time><pdop>4.0</pdop><geoidheight>51.00</geoidheight><course>69.7</course><type>1</type></trkpt>
      <trkpt lat="38.43283497" lon="-2.56904963"><ele>1583</ele><speed>13.29</speed><time>2016-06-02T12:33:16Z</time><pdop>4.0</pdop><geoidheight>51.00</geoidheight><course>64.9</course><type>1</type></trkpt>
      <trkpt lat="38.43290185" lon="-2.56893503"><ele>1584</ele><speed>12.44</speed><time>2016-06-02T12:33:17Z</time><pdop>5.0</pdop><geoidheight>51.00</geoidheight><course>57.4</course><type>1</type></trkpt>
      <trkpt lat="38.4329657" lon="-2.56883924"><ele>1582</ele><speed>11.37</speed><time>2016-06-02T12:33:18Z</time><pdop>5.0</pdop><geoidheight>51.00</geoidheight><course>51.9</course><type>1</type></trkpt>
      <trkpt lat="38.4331223" lon="-2.56867277"><ele>1581</ele><speed>11.48</speed><time>2016-06-02T12:33:20Z</time><pdop>6.0</pdop><geoidheight>51.00</geoidheight><course>38.2</course><type>1</type></trkpt>
      <trkpt lat="38.43326844" lon="-2.56849075"><ele>1576</ele><speed>12.74</speed><time>2016-06-02T12:33:22Z</time><pdop>6.0</pdop><geoidheight>51.00</geoidheight><course>46.6</course><type>1</type></trkpt>
      <trkpt lat="38.43332077" lon="-2.56836489"><ele>1574</ele><speed>13.72</speed><time>2016-06-02T12:33:23Z</time><pdop>6.0</pdop><geoidheight>51.00</geoidheight><course>57.5</course><type>1</type></trkpt>
      <trkpt lat="38.43338267" lon="-2.56821969"><ele>1572</ele><speed>15.07</speed><time>2016-06-02T12:33:24Z</time><pdop>5.0</pdop><geoidheight>51.00</geoidheight><course>70.4</course><type>1</type></trkpt>
      <trkpt lat="38.4334282" lon="-2.56804142"><ele>1572</ele><speed>16.68</speed><time>2016-06-02T12:33:25Z</time><pdop>6.0</pdop><geoidheight>51.00</geoidheight><course>74.0</course><type>1</type></trkpt>
      <trkpt lat="38.43346325" lon="-2.56784439"><ele>1570</ele><speed>17.55</speed><time>2016-06-02T12:33:26Z</time><pdop>5.0</pdop><geoidheight>51.00</geoidheight><course>81.0</course><type>1</type></trkpt>
      <trkpt lat="38.43347783" lon="-2.56764518"><ele>1569</ele><speed>16.72</speed><time>2016-06-02T12:33:27Z</time><pdop>5.0</pdop><geoidheight>51.00</geoidheight><course>83.8</course><type>1</type></trkpt>
      <trkpt lat="38.43349397" lon="-2.56745478"><ele>1569</ele><speed>16.72</speed><time>2016-06-02T12:33:28Z</time><pdop>6.0</pdop><geoidheight>51.00</geoidheight><course>83.8</course><type>1</type></trkpt>
      <trkpt lat="38.43350349" lon="-2.567295"><ele>1569</ele><speed>14.76</speed><time>2016-06-02T12:33:29Z</time><pdop>6.0</pdop><geoidheight>51.00</geoidheight><course>85.8</course><type>1</type></trkpt>
      <trkpt lat="38.43348395" lon="-2.56698093"><ele>1569</ele><speed>13.55</speed><time>2016-06-02T12:33:31Z</time><pdop>4.0</pdop><geoidheight>51.00</geoidheight><course>91.5</course><type>1</type></trkpt>
      <trkpt lat="38.4334906" lon="-2.56682213"><ele>1568</ele><speed>13.86</speed><time>2016-06-02T12:33:32Z</time><pdop>3.0</pdop><geoidheight>51.00</geoidheight><course>87.1</course><type>1</type></trkpt>
      <trkpt lat="38.43350109" lon="-2.56666242"><ele>1568</ele><speed>14.36</speed><time>2016-06-02T12:33:33Z</time><pdop>3.0</pdop><geoidheight>51.00</geoidheight><course>83.6</course><type>1</type></trkpt>
      <trkpt lat="38.43351995" lon="-2.56651276"><ele>1566</ele><speed>14.43</speed><time>2016-06-02T12:33:34Z</time><pdop>3.0</pdop><geoidheight>51.00</geoidheight><course>80.3</course><type>1</type></trkpt>
      <trkpt lat="38.43353901" lon="-2.56635537"><ele>1566</ele><speed>14.07</speed><time>2016-06-02T12:33:35Z</time><pdop>3.0</pdop><geoidheight>51.00</geoidheight><course>78.3</course><type>1</type></trkpt>
      <trkpt lat="38.43356944" lon="-2.56619722"><ele>1567</ele><speed>13.59</speed><time>2016-06-02T12:33:36Z</time><pdop>3.0</pdop><geoidheight>51.00</geoidheight><course>76.9</course><type>1</type></trkpt>
      <trkpt lat="38.43360415" lon="-2.56605373"><ele>1569</ele><speed>13.41</speed><time>2016-06-02T12:33:37Z</time><pdop>4.0</pdop><geoidheight>51.00</geoidheight><course>76.1</course><type>1</type></trkpt>
      <trkpt lat="38.43363743" lon="-2.5659061"><ele>1569</ele><speed>13.83</speed><time>2016-06-02T12:33:38Z</time><pdop>3.0</pdop><geoidheight>51.00</geoidheight><course>76.1</course><type>1</type></trkpt>
      <trkpt lat="38.43366408" lon="-2.56574641"><ele>1568</ele><speed>14.45</speed><time>2016-06-02T12:33:39Z</time><pdop>3.0</pdop><geoidheight>51.00</geoidheight><course>76.4</course><type>1</type></trkpt>
      <trkpt lat="38.4336947" lon="-2.56558563"><ele>1568</ele><speed>14.44</speed><time>2016-06-02T12:33:40Z</time><pdop>4.0</pdop><geoidheight>51.00</geoidheight><course>76.4</course><type>1</type></trkpt>
      <trkpt lat="38.43373782" lon="-2.56543862"><ele>1568</ele><speed>14.53</speed><time>2016-06-02T12:33:41Z</time><pdop>4.0</pdop><geoidheight>51.00</geoidheight><course>73.1</course><type>1</type></trkpt>
      <trkpt lat="38.43378906" lon="-2.56531212"><ele>1567</ele><speed>12.97</speed><time>2016-06-02T12:33:42Z</time><pdop>4.0</pdop><geoidheight>51.00</geoidheight><course>62.4</course><type>1</type></trkpt>
      <trkpt lat="38.43385588" lon="-2.56520393"><ele>1565</ele><speed>11.74</speed><time>2016-06-02T12:33:43Z</time><pdop>4.0</pdop><geoidheight>51.00</geoidheight><course>53.2</course><type>1</type></trkpt>
      <trkpt lat="38.43392376" lon="-2.56510753"><ele>1567</ele><speed>10.80</speed><time>2016-06-02T12:33:44Z</time><pdop>5.0</pdop><geoidheight>51.00</geoidheight><course>46.4</course><type>1</type></trkpt>
      <trkpt lat="38.43406825" lon="-2.56502237"><ele>1565</ele><speed>8.99</speed><time>2016-06-02T12:33:46Z</time><pdop>7.0</pdop><geoidheight>51.00</geoidheight><course>22.4</course><type>1</type></trkpt>
      <trkpt lat="38.43422601" lon="-2.56512414"><ele>1564</ele><speed>7.61</speed><time>2016-06-02T12:33:48Z</time><pdop>6.0</pdop><geoidheight>51.00</geoidheight><course>325.9</course><type>1</type></trkpt>
      <trkpt lat="38.43429267" lon="-2.56526975"><ele>1565</ele><speed>6.26</speed><time>2016-06-02T12:33:50Z</time><pdop>4.0</pdop><geoidheight>51.00</geoidheight><course>284.9</course><type>1</type></trkpt>
      <trkpt lat="38.43426716" lon="-2.56540005"><ele>1561</ele><speed>6.71</speed><time>2016-06-02T12:33:52Z</time><pdop>4.0</pdop><geoidheight>51.00</geoidheight><course>243.7</course><type>1</type></trkpt>
      <trkpt lat="38.43418438" lon="-2.56548737"><ele>1558</ele><speed>7.21</speed><time>2016-06-02T12:33:54Z</time><pdop>4.0</pdop><geoidheight>51.00</geoidheight><course>214.9</course><type>1</type></trkpt>
      <trkpt lat="38.43405866" lon="-2.56552156"><ele>1557</ele><speed>8.14</speed><time>2016-06-02T12:33:56Z</time><pdop>5.0</pdop><geoidheight>51.00</geoidheight><course>189.4</course><type>1</type></trkpt>
      <trkpt lat="38.43389404" lon="-2.56552929"><ele>1557</ele><speed>9.79</speed><time>2016-06-02T12:33:58Z</time><pdop>4.0</pdop><geoidheight>51.00</geoidheight><course>172.1</course><type>1</type></trkpt>
      <trkpt lat="38.43380691" lon="-2.56550578"><ele>1557</ele><speed>9.83</speed><time>2016-06-02T12:33:59Z</time><pdop>4.0</pdop><geoidheight>51.00</geoidheight><course>168.5</course><type>1</type></trkpt>
      <trkpt lat="38.43371624" lon="-2.56547071"><ele>1557</ele><speed>10.79</speed><time>2016-06-02T12:34:00Z</time><pdop>5.0</pdop><geoidheight>51.00</geoidheight><course>161.5</course><type>1</type></trkpt>
      <trkpt lat="38.4336229" lon="-2.5653732"><ele>1558</ele><speed>12.26</speed><time>2016-06-02T12:34:01Z</time><pdop>5.0</pdop><geoidheight>51.00</geoidheight><course>148.4</course><type>1</type></trkpt>
      <trkpt lat="38.43353261" lon="-2.56528439"><ele>1558</ele><speed>12.34</speed><time>2016-06-02T12:34:02Z</time><pdop>5.0</pdop><geoidheight>51.00</geoidheight><course>143.9</course><type>1</type></trkpt>
      <trkpt lat="38.43344317" lon="-2.56517902"><ele>1559</ele><speed>12.88</speed><time>2016-06-02T12:34:03Z</time><pdop>4.0</pdop><geoidheight>51.00</geoidheight><course>137.8</course><type>1</type></trkpt>
      <trkpt lat="38.43335813" lon="-2.565055"><ele>1559</ele><speed>13.97</speed><time>2016-06-02T12:34:04Z</time><pdop>5.0</pdop><geoidheight>51.00</geoidheight><course>134.1</course><type>1</type></trkpt>
      <trkpt lat="38.43326867" lon="-2.56491738"><ele>1558</ele><speed>14.90</speed><time>2016-06-02T12:34:05Z</time><pdop>5.0</pdop><geoidheight>51.00</geoidheight><course>130.0</course><type>1</type></trkpt>
      <trkpt lat="38.43322864" lon="-2.56475837"><ele>1559</ele><speed>13.99</speed><time>2016-06-02T12:34:06Z</time><pdop>4.0</pdop><geoidheight>51.00</geoidheight><course>114.9</course><type>1</type></trkpt>
      <trkpt lat="38.43320954" lon="-2.5645899"><ele>1562</ele><speed>13.62</speed><time>2016-06-02T12:34:07Z</time><pdop>4.0</pdop><geoidheight>51.00</geoidheight><course>103.5</course><type>1</type></trkpt>
      <trkpt lat="38.43317771" lon="-2.56443893"><ele>1563</ele><speed>13.53</speed><time>2016-06-02T12:34:08Z</time><pdop>4.0</pdop><geoidheight>51.00</geoidheight><course>102.8</course><type>1</type></trkpt>
      <trkpt lat="38.43313813" lon="-2.56426455"><ele>1564</ele><speed>13.70</speed><time>2016-06-02T12:34:09Z</time><pdop>4.0</pdop><geoidheight>51.00</geoidheight><course>96.3</course><type>1</type></trkpt>
      <trkpt lat="38.43312465" lon="-2.56410852"><ele>1564</ele><speed>13.70</speed><time>2016-06-02T12:34:10Z</time><pdop>6.0</pdop><geoidheight>51.00</geoidheight><course>96.3</course><type>1</type></trkpt>
      <trkpt lat="38.43313419" lon="-2.56393954"><ele>1563</ele><speed>13.80</speed><time>2016-06-02T12:34:11Z</time><pdop>4.0</pdop><geoidheight>51.00</geoidheight><course>88.6</course><type>1</type></trkpt>
      <trkpt lat="38.43313657" lon="-2.56379478"><ele>1561</ele><speed>13.72</speed><time>2016-06-02T12:34:12Z</time><pdop>4.0</pdop><geoidheight>51.00</geoidheight><course>80.7</course><type>1</type></trkpt>
      <trkpt lat="38.43315646" lon="-2.56363972"><ele>1561</ele><speed>13.72</speed><time>2016-06-02T12:34:13Z</time><pdop>5.0</pdop><geoidheight>51.00</geoidheight><course>80.7</course><type>1</type></trkpt>
      <trkpt lat="38.43320754" lon="-2.56350234"><ele>1561</ele><speed>13.33</speed><time>2016-06-02T12:34:14Z</time><pdop>5.0</pdop><geoidheight>51.00</geoidheight><course>67.4</course><type>1</type></trkpt>
      <trkpt lat="38.43327185" lon="-2.56338792"><ele>1559</ele><speed>13.13</speed><time>2016-06-02T12:34:15Z</time><pdop>5.0</pdop><geoidheight>51.00</geoidheight><course>58.1</course><type>1</type></trkpt>
      <trkpt lat="38.43333091" lon="-2.56326414"><ele>1560</ele><speed>13.21</speed><time>2016-06-02T12:34:16Z</time><pdop>5.0</pdop><geoidheight>51.00</geoidheight><course>59.0</course><type>1</type></trkpt>
      <trkpt lat="38.43340375" lon="-2.56313275"><ele>1561</ele><speed>13.45</speed><time>2016-06-02T12:34:17Z</time><pdop>6.0</pdop><geoidheight>51.00</geoidheight><course>59.3</course><type>1</type></trkpt>
      <trkpt lat="38.4334545" lon="-2.56299901"><ele>1561</ele><speed>13.05</speed><time>2016-06-02T12:34:18Z</time><pdop>6.0</pdop><geoidheight>51.00</geoidheight><course>64.5</course><type>1</type></trkpt>
      <trkpt lat="38.43351667" lon="-2.56288378"><ele>1562</ele><speed>12.87</speed><time>2016-06-02T12:34:19Z</time><pdop>6.0</pdop><geoidheight>51.00</geoidheight><course>67.4</course><type>1</type></trkpt>
      <trkpt lat="38.43356215" lon="-2.56273906"><ele>1561</ele><speed>13.23</speed><time>2016-06-02T12:34:20Z</time><pdop>6.0</pdop><geoidheight>51.00</geoidheight><course>68.1</course><type>1</type></trkpt>
      <trkpt lat="38.43361281" lon="-2.56261269"><ele>1560</ele><speed>13.28</speed><time>2016-06-02T12:34:21Z</time><pdop>6.0</pdop><geoidheight>51.00</geoidheight><course>66.2</course><type>1</type></trkpt>
      <trkpt lat="38.43366612" lon="-2.56247244"><ele>1560</ele><speed>12.93</speed><time>2016-06-02T12:34:22Z</time><pdop>6.0</pdop><geoidheight>51.00</geoidheight><course>64.2</course><type>1</type></trkpt>
      <trkpt lat="38.43377778" lon="-2.56225357"><ele>1555</ele><speed>11.93</speed><time>2016-06-02T12:34:24Z</time><pdop>7.0</pdop><geoidheight>51.00</geoidheight><course>53.9</course><type>1</type></trkpt>
      <trkpt lat="38.43387418" lon="-2.56200622"><ele>1552</ele><speed>13.04</speed><time>2016-06-02T12:34:26Z</time><pdop>7.0</pdop><geoidheight>51.00</geoidheight><course>58.7</course><type>1</type></trkpt>
      <trkpt lat="38.43395002" lon="-2.56187074"><ele>1552</ele><speed>15.01</speed><time>2016-06-02T12:34:27Z</time><pdop>6.0</pdop><geoidheight>51.00</geoidheight><course>60.0</course><type>1</type></trkpt>
      <trkpt lat="38.43402087" lon="-2.56172298"><ele>1549</ele><speed>16.23</speed><time>2016-06-02T12:34:28Z</time><pdop>5.0</pdop><geoidheight>51.00</geoidheight><course>67.3</course><type>1</type></trkpt>
      <trkpt lat="38.43408205" lon="-2.56155626"><ele>1550</ele><speed>15.59</speed><time>2016-06-02T12:34:29Z</time><pdop>5.0</pdop><geoidheight>51.00</geoidheight><course>73.1</course><type>1</type></trkpt>
      <trkpt lat="38.43412617" lon="-2.56139093"><ele>1550</ele><speed>14.32</speed><time>2016-06-02T12:34:30Z</time><pdop>5.0</pdop><geoidheight>51.00</geoidheight><course>72.6</course><type>1</type></trkpt>
      <trkpt lat="38.43416344" lon="-2.56124365"><ele>1550</ele><speed>12.83</speed><time>2016-06-02T12:34:31Z</time><pdop>5.0</pdop><geoidheight>51.00</geoidheight><course>72.7</course><type>1</type></trkpt>
      <trkpt lat="38.43420299" lon="-2.56113194"><ele>1546</ele><speed>11.75</speed><time>2016-06-02T12:34:32Z</time><pdop>5.0</pdop><geoidheight>51.00</geoidheight><course>74.2</course><type>1</type></trkpt>
      <trkpt lat="38.43422756" lon="-2.56099711"><ele>1544</ele><speed>12.05</speed><time>2016-06-02T12:34:33Z</time><pdop>5.0</pdop><geoidheight>51.00</geoidheight><course>75.6</course><type>1</type></trkpt>
      <trkpt lat="38.43425404" lon="-2.56069078"><ele>1541</ele><speed>13.85</speed><time>2016-06-02T12:34:35Z</time><pdop>5.0</pdop><geoidheight>51.00</geoidheight><course>86.6</course><type>1</type></trkpt>
      <trkpt lat="38.43427347" lon="-2.56052163"><ele>1540</ele><speed>15.28</speed><time>2016-06-02T12:34:36Z</time><pdop>6.0</pdop><geoidheight>51.00</geoidheight><course>86.6</course><type>1</type></trkpt>
      <trkpt lat="38.43428175" lon="-2.56034695"><ele>1539</ele><speed>15.28</speed><time>2016-06-02T12:34:37Z</time><pdop>9.0</pdop><geoidheight>51.00</geoidheight><course>86.6</course><type>1</type></trkpt>
      <trkpt lat="38.43421986" lon="-2.56018943"><ele>1537</ele><speed>13.71</speed><time>2016-06-02T12:34:38Z</time><pdop>5.0</pdop><geoidheight>51.00</geoidheight><course>101.3</course><type>1</type></trkpt>
      <trkpt lat="38.43418121" lon="-2.56004554"><ele>1538</ele><speed>12.73</speed><time>2016-06-02T12:34:39Z</time><pdop>6.0</pdop><geoidheight>51.00</geoidheight><course>102.4</course><type>1</type></trkpt>
      <trkpt lat="38.43415612" lon="-2.55976475"><ele>1533</ele><speed>12.42</speed><time>2016-06-02T12:34:41Z</time><pdop>5.0</pdop><geoidheight>51.00</geoidheight><course>101.0</course><type>1</type></trkpt>
      <trkpt lat="38.43413494" lon="-2.55962604"><ele>1532</ele><speed>12.35</speed><time>2016-06-02T12:34:42Z</time><pdop>6.0</pdop><geoidheight>51.00</geoidheight><course>101.0</course><type>1</type></trkpt>
      <trkpt lat="38.43405679" lon="-2.55928896"><ele>1526</ele><speed>15.97</speed><time>2016-06-02T12:34:44Z</time><pdop>4.0</pdop><geoidheight>51.00</geoidheight><course>107.7</course><type>1</type></trkpt>
      <trkpt lat="38.43402116" lon="-2.55912019"><ele>1527</ele><speed>14.76</speed><time>2016-06-02T12:34:45Z</time><pdop>4.0</pdop><geoidheight>51.00</geoidheight><course>106.5</course><type>1</type></trkpt>
      <trkpt lat="38.43398334" lon="-2.55895824"><ele>1526</ele><speed>14.75</speed><time>2016-06-02T12:34:46Z</time><pdop>5.0</pdop><geoidheight>51.00</geoidheight><course>106.5</course><type>1</type></trkpt>
      <trkpt lat="38.43395454" lon="-2.55881623"><ele>1524</ele><speed>13.24</speed><time>2016-06-02T12:34:47Z</time><pdop>4.0</pdop><geoidheight>51.00</geoidheight><course>101.5</course><type>1</type></trkpt>
      <trkpt lat="38.43393069" lon="-2.55866766"><ele>1524</ele><speed>13.24</speed><time>2016-06-02T12:34:48Z</time><pdop>6.0</pdop><geoidheight>51.00</geoidheight><course>101.5</course><type>1</type></trkpt>
      <trkpt lat="38.43388152" lon="-2.55851063"><ele>1521</ele><speed>14.28</speed><time>2016-06-02T12:34:49Z</time><pdop>5.0</pdop><geoidheight>51.00</geoidheight><course>103.1</course><type>1</type></trkpt>
      <trkpt lat="38.43385306" lon="-2.55835954"><ele>1516</ele><speed>15.59</speed><time>2016-06-02T12:34:50Z</time><pdop>5.0</pdop><geoidheight>51.00</geoidheight><course>100.5</course><type>1</type></trkpt>
      <trkpt lat="38.43382772" lon="-2.55818536"><ele>1515</ele><speed>15.50</speed><time>2016-06-02T12:34:51Z</time><pdop>6.0</pdop><geoidheight>51.00</geoidheight><course>100.5</course><type>1</type></trkpt>
      <trkpt lat="38.43380611" lon="-2.55799401"><ele>1511</ele><speed>15.42</speed><time>2016-06-02T12:34:52Z</time><pdop>4.0</pdop><geoidheight>51.00</geoidheight><course>99.2</course><type>1</type></trkpt>
      <trkpt lat="38.43378423" lon="-2.55782719"><ele>1508</ele><speed>14.70</speed><time>2016-06-02T12:34:53Z</time><pdop>4.0</pdop><geoidheight>51.00</geoidheight><course>100.7</course><type>1</type></trkpt>
      <trkpt lat="38.43376298" lon="-2.55765915"><ele>1507</ele><speed>13.98</speed><time>2016-06-02T12:34:54Z</time><pdop>5.0</pdop><geoidheight>51.00</geoidheight><course>100.8</course><type>1</type></trkpt>
      <trkpt lat="38.43373943" lon="-2.55750191"><ele>1507</ele><speed>13.97</speed><time>2016-06-02T12:34:55Z</time><pdop>6.0</pdop><geoidheight>51.00</geoidheight><course>100.8</course><type>1</type></trkpt>
      <trkpt lat="38.43372075" lon="-2.55734906"><ele>1502</ele><speed>13.75</speed><time>2016-06-02T12:34:56Z</time><pdop>5.0</pdop><geoidheight>51.00</geoidheight><course>93.2</course><type>1</type></trkpt>
      <trkpt lat="38.43371572" lon="-2.5571913"><ele>1501</ele><speed>14.46</speed><time>2016-06-02T12:34:57Z</time><pdop>5.0</pdop><geoidheight>51.00</geoidheight><course>91.5</course><type>1</type></trkpt>
      <trkpt lat="38.43370261" lon="-2.55703203"><ele>1499</ele><speed>14.29</speed><time>2016-06-02T12:34:58Z</time><pdop>5.0</pdop><geoidheight>51.00</geoidheight><course>93.2</course><type>1</type></trkpt>
      <trkpt lat="38.43369534" lon="-2.55686872"><ele>1499</ele><speed>14.28</speed><time>2016-06-02T12:34:59Z</time><pdop>8.0</pdop><geoidheight>51.00</geoidheight><course>93.2</course><type>1</type></trkpt>
      <trkpt lat="38.43368576" lon="-2.55668902"><ele>1496</ele><speed>15.27</speed><time>2016-06-02T12:35:00Z</time><pdop>5.0</pdop><geoidheight>51.00</geoidheight><course>93.6</course><type>1</type></trkpt>
      <trkpt lat="38.43369936" lon="-2.55651582"><ele>1494</ele><speed>15.93</speed><time>2016-06-02T12:35:01Z</time><pdop>5.0</pdop><geoidheight>51.00</geoidheight><course>92.5</course><type>1</type></trkpt>
      <trkpt lat="38.43368933" lon="-2.55633357"><ele>1491</ele><speed>15.10</speed><time>2016-06-02T12:35:02Z</time><pdop>5.0</pdop><geoidheight>51.00</geoidheight><course>88.0</course><type>1</type></trkpt>
      <trkpt lat="38.43369021" lon="-2.55616436"><ele>1491</ele><speed>14.42</speed><time>2016-06-02T12:35:03Z</time><pdop>4.0</pdop><geoidheight>51.00</geoidheight><course>88.9</course><type>1</type></trkpt>
      <trkpt lat="38.43369265" lon="-2.5559998"><ele>1490</ele><speed>14.38</speed><time>2016-06-02T12:35:04Z</time><pdop>5.0</pdop><geoidheight>51.00</geoidheight><course>88.9</course><type>1</type></trkpt>
      <trkpt lat="38.43367805" lon="-2.55584364"><ele>1490</ele><speed>14.09</speed><time>2016-06-02T12:35:05Z</time><pdop>6.0</pdop><geoidheight>51.00</geoidheight><course>91.5</course><type>1</type></trkpt>
      <trkpt lat="38.43366706" lon="-2.55566913"><ele>1488</ele><speed>14.99</speed><time>2016-06-02T12:35:06Z</time><pdop>5.0</pdop><geoidheight>51.00</geoidheight><course>93.4</course><type>1</type></trkpt>
      <trkpt lat="38.43364037" lon="-2.55550146"><ele>1487</ele><speed>15.08</speed><time>2016-06-02T12:35:07Z</time><pdop>5.0</pdop><geoidheight>51.00</geoidheight><course>94.1</course><type>1</type></trkpt>
      <trkpt lat="38.43360528" lon="-2.55532019"><ele>1485</ele><speed>15.00</speed><time>2016-06-02T12:35:08Z</time><pdop>5.0</pdop><geoidheight>51.00</geoidheight><course>93.0</course><type>1</type></trkpt>
      <trkpt lat="38.43364084" lon="-2.55515905"><ele>1483</ele><speed>14.78</speed><time>2016-06-02T12:35:09Z</time><pdop>6.0</pdop><geoidheight>51.00</geoidheight><course>88.5</course><type>1</type></trkpt>
      <trkpt lat="38.43364806" lon="-2.55499423"><ele>1483</ele><speed>14.55</speed><time>2016-06-02T12:35:10Z</time><pdop>6.0</pdop><geoidheight>51.00</geoidheight><course>92.9</course><type>1</type></trkpt>
      <trkpt lat="38.43365492" lon="-2.55482384"><ele>1483</ele><speed>14.58</speed><time>2016-06-02T12:35:11Z</time><pdop>6.0</pdop><geoidheight>51.00</geoidheight><course>92.6</course><type>1</type></trkpt>
      <trkpt lat="38.43364901" lon="-2.55465707"><ele>1482</ele><speed>14.57</speed><time>2016-06-02T12:35:12Z</time><pdop>7.0</pdop><geoidheight>51.00</geoidheight><course>92.6</course><type>1</type></trkpt>
      <trkpt lat="38.43365957" lon="-2.55448656"><ele>1478</ele><speed>15.38</speed><time>2016-06-02T12:35:13Z</time><pdop>5.0</pdop><geoidheight>51.00</geoidheight><course>90.7</course><type>1</type></trkpt>
      <trkpt lat="38.43365214" lon="-2.55431827"><ele>1477</ele><speed>15.28</speed><time>2016-06-02T12:35:14Z</time><pdop>5.0</pdop><geoidheight>51.00</geoidheight><course>93.3</course><type>1</type></trkpt>
      <trkpt lat="38.43364549" lon="-2.55413909"><ele>1475</ele><speed>15.13</speed><time>2016-06-02T12:35:15Z</time><pdop>5.0</pdop><geoidheight>51.00</geoidheight><course>91.1</course><type>1</type></trkpt>
      <trkpt lat="38.43364127" lon="-2.5539678"><ele>1475</ele><speed>15.09</speed><time>2016-06-02T12:35:16Z</time><pdop>5.0</pdop><geoidheight>51.00</geoidheight><course>90.5</course><type>1</type></trkpt>
      <trkpt lat="38.43364669" lon="-2.55379491"><ele>1475</ele><speed>15.17</speed><time>2016-06-02T12:35:17Z</time><pdop>5.0</pdop><geoidheight>51.00</geoidheight><course>89.3</course><type>1</type></trkpt>
      <trkpt lat="38.4336319" lon="-2.55364464"><ele>1472</ele><speed>14.86</speed><time>2016-06-02T12:35:18Z</time><pdop>5.0</pdop><geoidheight>51.00</geoidheight><course>90.0</course><type>1</type></trkpt>
      <trkpt lat="38.43362231" lon="-2.55348267"><ele>1470</ele><speed>14.86</speed><time>2016-06-02T12:35:19Z</time><pdop>5.0</pdop><geoidheight>51.00</geoidheight><course>91.2</course><type>1</type></trkpt>
      <trkpt lat="38.43361937" lon="-2.55331289"><ele>1469</ele><speed>14.83</speed><time>2016-06-02T12:35:20Z</time><pdop>7.0</pdop><geoidheight>51.00</geoidheight><course>91.3</course><type>1</type></trkpt>
      <trkpt lat="38.43361066" lon="-2.55312167"><ele>1464</ele><speed>15.95</speed><time>2016-06-02T12:35:21Z</time><pdop>6.0</pdop><geoidheight>51.00</geoidheight><course>93.9</course><type>1</type></trkpt>
      <trkpt lat="38.43360089" lon="-2.55294021"><ele>1463</ele><speed>15.90</speed><time>2016-06-02T12:35:22Z</time><pdop>7.0</pdop><geoidheight>51.00</geoidheight><course>93.9</course><type>1</type></trkpt>
      <trkpt lat="38.4335845" lon="-2.55276745"><ele>1462</ele><speed>15.08</speed><time>2016-06-02T12:35:23Z</time><pdop>5.0</pdop><geoidheight>51.00</geoidheight><course>93.5</course><type>1</type></trkpt>
      <trkpt lat="38.4335717" lon="-2.55259867"><ele>1461</ele><speed>14.72</speed><time>2016-06-02T12:35:24Z</time><pdop>6.0</pdop><geoidheight>51.00</geoidheight><course>93.7</course><type>1</type></trkpt>
      <trkpt lat="38.43356113" lon="-2.55245635"><ele>1459</ele><speed>14.08</speed><time>2016-06-02T12:35:25Z</time><pdop>6.0</pdop><geoidheight>51.00</geoidheight><course>94.7</course><type>1</type></trkpt>
      <trkpt lat="38.4335433" lon="-2.55229604"><ele>1456</ele><speed>14.51</speed><time>2016-06-02T12:35:26Z</time><pdop>6.0</pdop><geoidheight>51.00</geoidheight><course>97.2</course><type>1</type></trkpt>
      <trkpt lat="38.43352351" lon="-2.55213764"><ele>1453</ele><speed>15.45</speed><time>2016-06-02T12:35:27Z</time><pdop>6.0</pdop><geoidheight>51.00</geoidheight><course>99.6</course><type>1</type></trkpt>
      <trkpt lat="38.43349739" lon="-2.55195844"><ele>1448</ele><speed>15.91</speed><time>2016-06-02T12:35:28Z</time><pdop>6.0</pdop><geoidheight>51.00</geoidheight><course>98.9</course><type>1</type></trkpt>
      <trkpt lat="38.43346767" lon="-2.55177703"><ele>1445</ele><speed>15.96</speed><time>2016-06-02T12:35:29Z</time><pdop>6.0</pdop><geoidheight>51.00</geoidheight><course>96.7</course><type>1</type></trkpt>
      <trkpt lat="38.43344887" lon="-2.55160047"><ele>1442</ele><speed>15.82</speed><time>2016-06-02T12:35:30Z</time><pdop>7.0</pdop><geoidheight>51.00</geoidheight><course>96.1</course><type>1</type></trkpt>
      <trkpt lat="38.43344367" lon="-2.5514146"><ele>1440</ele><speed>15.58</speed><time>2016-06-02T12:35:31Z</time><pdop>7.0</pdop><geoidheight>51.00</geoidheight><course>91.8</course><type>1</type></trkpt>
      <trkpt lat="38.43343975" lon="-2.5512418"><ele>1438</ele><speed>16.17</speed><time>2016-06-02T12:35:32Z</time><pdop>7.0</pdop><geoidheight>51.00</geoidheight><course>91.2</course><type>1</type></trkpt>
      <trkpt lat="38.43343676" lon="-2.55105694"><ele>1437</ele><speed>16.14</speed><time>2016-06-02T12:35:33Z</time><pdop>9.0</pdop><geoidheight>51.00</geoidheight><course>91.2</course><type>1</type></trkpt>
      <trkpt lat="38.43344178" lon="-2.5506191"><ele>1433</ele><speed>19.06</speed><time>2016-06-02T12:35:35Z</time><pdop>8.0</pdop><geoidheight>51.00</geoidheight><course>88.9</course><type>1</type></trkpt>
      <trkpt lat="38.43344116" lon="-2.55040121"><ele>1431</ele><speed>18.94</speed><time>2016-06-02T12:35:36Z</time><pdop>8.0</pdop><geoidheight>51.00</geoidheight><course>87.6</course><type>1</type></trkpt>
      <trkpt lat="38.43344847" lon="-2.55020003"><ele>1429</ele><speed>18.11</speed><time>2016-06-02T12:35:37Z</time><pdop>7.0</pdop><geoidheight>51.00</geoidheight><course>87.8</course><type>1</type></trkpt>
      <trkpt lat="38.43346189" lon="-2.55000115"><ele>1428</ele><speed>17.03</speed><time>2016-06-02T12:35:38Z</time><pdop>6.0</pdop><geoidheight>51.00</geoidheight><course>86.9</course><type>1</type></trkpt>
      <trkpt lat="38.43347212" lon="-2.54981662"><ele>1425</ele><speed>16.36</speed><time>2016-06-02T12:35:39Z</time><pdop>6.0</pdop><geoidheight>51.00</geoidheight><course>87.2</course><type>1</type></trkpt>
      <trkpt lat="38.43347038" lon="-2.54962322"><ele>1421</ele><speed>16.52</speed><time>2016-06-02T12:35:40Z</time><pdop>6.0</pdop><geoidheight>51.00</geoidheight><course>89.1</course><type>1</type></trkpt>
      <trkpt lat="38.43345684" lon="-2.54943517"><ele>1418</ele><speed>16.63</speed><time>2016-06-02T12:35:41Z</time><pdop>6.0</pdop><geoidheight>51.00</geoidheight><course>91.0</course><type>1</type></trkpt>
      <trkpt lat="38.4334611" lon="-2.54921604"><ele>1415</ele><speed>17.97</speed><time>2016-06-02T12:35:42Z</time><pdop>6.0</pdop><geoidheight>51.00</geoidheight><course>90.9</course><type>1</type></trkpt>
      <trkpt lat="38.4334559" lon="-2.54899898"><ele>1411</ele><speed>18.67</speed><time>2016-06-02T12:35:43Z</time><pdop>6.0</pdop><geoidheight>51.00</geoidheight><course>90.0</course><type>1</type></trkpt>
      <trkpt lat="38.43344903" lon="-2.54878559"><ele>1408</ele><speed>18.71</speed><time>2016-06-02T12:35:44Z</time><pdop>5.0</pdop><geoidheight>51.00</geoidheight><course>89.2</course><type>1</type></trkpt>
      <trkpt lat="38.43346113" lon="-2.54858362"><ele>1406</ele><speed>18.05</speed><time>2016-06-02T12:35:45Z</time><pdop>5.0</pdop><geoidheight>51.00</geoidheight><course>88.0</course><type>1</type></trkpt>
      <trkpt lat="38.43345886" lon="-2.54838059"><ele>1403</ele><speed>17.37</speed><time>2016-06-02T12:35:46Z</time><pdop>5.0</pdop><geoidheight>51.00</geoidheight><course>89.4</course><type>1</type></trkpt>
      <trkpt lat="38.43346529" lon="-2.54818305"><ele>1400</ele><speed>17.36</speed><time>2016-06-02T12:35:47Z</time><pdop>4.0</pdop><geoidheight>51.00</geoidheight><course>90.2</course><type>1</type></trkpt>
      <trkpt lat="38.43346319" lon="-2.54798379"><ele>1398</ele><speed>17.61</speed><time>2016-06-02T12:35:48Z</time><pdop>4.0</pdop><geoidheight>51.00</geoidheight><course>90.2</course><type>1</type></trkpt>
      <trkpt lat="38.43346442" lon="-2.54777697"><ele>1396</ele><speed>17.89</speed><time>2016-06-02T12:35:49Z</time><pdop>4.0</pdop><geoidheight>51.00</geoidheight><course>89.2</course><type>1</type></trkpt>
      <trkpt lat="38.43347089" lon="-2.54756708"><ele>1390</ele><speed>18.36</speed><time>2016-06-02T12:35:50Z</time><pdop>4.0</pdop><geoidheight>51.00</geoidheight><course>88.6</course><type>1</type></trkpt>
      <trkpt lat="38.43347179" lon="-2.5473649"><ele>1387</ele><speed>17.98</speed><time>2016-06-02T12:35:51Z</time><pdop>4.0</pdop><geoidheight>51.00</geoidheight><course>90.2</course><type>1</type></trkpt>
      <trkpt lat="38.43346262" lon="-2.54715917"><ele>1385</ele><speed>17.77</speed><time>2016-06-02T12:35:52Z</time><pdop>5.0</pdop><geoidheight>51.00</geoidheight><course>93.2</course><type>1</type></trkpt>
      <trkpt lat="38.43344537" lon="-2.54695651"><ele>1384</ele><speed>17.79</speed><time>2016-06-02T12:35:53Z</time><pdop>5.0</pdop><geoidheight>51.00</geoidheight><course>94.4</course><type>1</type></trkpt>
      <trkpt lat="38.4334395" lon="-2.54675675"><ele>1382</ele><speed>17.57</speed><time>2016-06-02T12:35:54Z</time><pdop>6.0</pdop><geoidheight>51.00</geoidheight><course>94.1</course><type>1</type></trkpt>
      <trkpt lat="38.43343113" lon="-2.54655337"><ele>1381</ele><speed>17.87</speed><time>2016-06-02T12:35:55Z</time><pdop>8.0</pdop><geoidheight>51.00</geoidheight><course>94.0</course><type>1</type></trkpt>
      <trkpt lat="38.43344157" lon="-2.54634169"><ele>1378</ele><speed>18.27</speed><time>2016-06-02T12:35:56Z</time><pdop>8.0</pdop><geoidheight>51.00</geoidheight><course>90.6</course><type>1</type></trkpt>
      <trkpt lat="38.43345382" lon="-2.5461417"><ele>1377</ele><speed>18.05</speed><time>2016-06-02T12:35:57Z</time><pdop>8.0</pdop><geoidheight>51.00</geoidheight><course>90.1</course><type>1</type></trkpt>
      <trkpt lat="38.43346343" lon="-2.54575518"><ele>1374</ele><speed>17.26</speed><time>2016-06-02T12:35:59Z</time><pdop>8.0</pdop><geoidheight>51.00</geoidheight><course>89.4</course><type>1</type></trkpt>
      <trkpt lat="38.43347189" lon="-2.54534839"><ele>1371</ele><speed>17.66</speed><time>2016-06-02T12:36:01Z</time><pdop>7.0</pdop><geoidheight>51.00</geoidheight><course>89.8</course><type>1</type></trkpt>
      <trkpt lat="38.43343666" lon="-2.54511474"><ele>1369</ele><speed>18.52</speed><time>2016-06-02T12:36:02Z</time><pdop>7.0</pdop><geoidheight>51.00</geoidheight><course>92.7</course><type>1</type></trkpt>
      <trkpt lat="38.43343304" lon="-2.54493105"><ele>1362</ele><speed>18.08</speed><time>2016-06-02T12:36:03Z</time><pdop>7.0</pdop><geoidheight>51.00</geoidheight><course>90.3</course><type>1</type></trkpt>
      <trkpt lat="38.43342206" lon="-2.54472214"><ele>1358</ele><speed>18.50</speed><time>2016-06-02T12:36:04Z</time><pdop>6.0</pdop><geoidheight>51.00</geoidheight><course>89.4</course><type>1</type></trkpt>
      <trkpt lat="38.43343011" lon="-2.54450837"><ele>1354</ele><speed>18.60</speed><time>2016-06-02T12:36:05Z</time><pdop>6.0</pdop><geoidheight>51.00</geoidheight><course>88.5</course><type>1</type></trkpt>
      <trkpt lat="38.43343606" lon="-2.54430508"><ele>1350</ele><speed>18.23</speed><time>2016-06-02T12:36:06Z</time><pdop>5.0</pdop><geoidheight>51.00</geoidheight><course>89.2</course><type>1</type></trkpt>
      <trkpt lat="38.43343272" lon="-2.54410218"><ele>1345</ele><speed>17.82</speed><time>2016-06-02T12:36:07Z</time><pdop>6.0</pdop><geoidheight>51.00</geoidheight><course>89.4</course><type>1</type></trkpt>
      <trkpt lat="38.43344408" lon="-2.54390301"><ele>1342</ele><speed>17.43</speed><time>2016-06-02T12:36:08Z</time><pdop>5.0</pdop><geoidheight>51.00</geoidheight><course>87.3</course><type>1</type></trkpt>
      <trkpt lat="38.43345708" lon="-2.54371618"><ele>1339</ele><speed>17.06</speed><time>2016-06-02T12:36:09Z</time><pdop>5.0</pdop><geoidheight>51.00</geoidheight><course>85.5</course><type>1</type></trkpt>
      <trkpt lat="38.43346035" lon="-2.54352698"><ele>1332</ele><speed>17.50</speed><time>2016-06-02T12:36:10Z</time><pdop>5.0</pdop><geoidheight>51.00</geoidheight><course>83.8</course><type>1</type></trkpt>
      <trkpt lat="38.43347752" lon="-2.54333103"><ele>1327</ele><speed>17.88</speed><time>2016-06-02T12:36:11Z</time><pdop>4.0</pdop><geoidheight>51.00</geoidheight><course>82.0</course><type>1</type></trkpt>
      <trkpt lat="38.43351153" lon="-2.54313821"><ele>1321</ele><speed>18.41</speed><time>2016-06-02T12:36:12Z</time><pdop>5.0</pdop><geoidheight>51.00</geoidheight><course>79.1</course><type>1</type></trkpt>
      <trkpt lat="38.43354769" lon="-2.54293409"><ele>1316</ele><speed>19.07</speed><time>2016-06-02T12:36:13Z</time><pdop>5.0</pdop><geoidheight>51.00</geoidheight><course>77.4</course><type>1</type></trkpt>
      <trkpt lat="38.43358184" lon="-2.54270769"><ele>1312</ele><speed>19.70</speed><time>2016-06-02T12:36:14Z</time><pdop>6.0</pdop><geoidheight>51.00</geoidheight><course>77.9</course><type>1</type></trkpt>
      <trkpt lat="38.4336138" lon="-2.54249048"><ele>1312</ele><speed>19.19</speed><time>2016-06-02T12:36:15Z</time><pdop>5.0</pdop><geoidheight>51.00</geoidheight><course>77.7</course><type>1</type></trkpt>
      <trkpt lat="38.43365567" lon="-2.54230817"><ele>1309</ele><speed>17.99</speed><time>2016-06-02T12:36:16Z</time><pdop>5.0</pdop><geoidheight>51.00</geoidheight><course>78.1</course><type>1</type></trkpt>
      <trkpt lat="38.4336792" lon="-2.54211384"><ele>1306</ele><speed>17.63</speed><time>2016-06-02T12:36:17Z</time><pdop>5.0</pdop><geoidheight>51.00</geoidheight><course>80.6</course><type>1</type></trkpt>
      <trkpt lat="38.4336997" lon="-2.54191746"><ele>1306</ele><speed>17.43</speed><time>2016-06-02T12:36:18Z</time><pdop>5.0</pdop><geoidheight>51.00</geoidheight><course>81.4</course><type>1</type></trkpt>
      <trkpt lat="38.4337151" lon="-2.54171848"><ele>1305</ele><speed>17.75</speed><time>2016-06-02T12:36:19Z</time><pdop>6.0</pdop><geoidheight>51.00</geoidheight><course>82.6</course><type>1</type></trkpt>
      <trkpt lat="38.43375119" lon="-2.54148574"><ele>1303</ele><speed>19.41</speed><time>2016-06-02T12:36:20Z</time><pdop>6.0</pdop><geoidheight>51.00</geoidheight><course>81.6</course><type>1</type></trkpt>
      <trkpt lat="38.43377365" lon="-2.54127352"><ele>1302</ele><speed>19.39</speed><time>2016-06-02T12:36:21Z</time><pdop>6.0</pdop><geoidheight>51.00</geoidheight><course>81.1</course><type>1</type></trkpt>
      <trkpt lat="38.43378597" lon="-2.54105859"><ele>1299</ele><speed>18.85</speed><time>2016-06-02T12:36:22Z</time><pdop>6.0</pdop><geoidheight>51.00</geoidheight><course>81.9</course><type>1</type></trkpt>
      <trkpt lat="38.43380715" lon="-2.54083578"><ele>1298</ele><speed>18.89</speed><time>2016-06-02T12:36:23Z</time><pdop>5.0</pdop><geoidheight>51.00</geoidheight><course>83.1</course><type>1</type></trkpt>
      <trkpt lat="38.4338176" lon="-2.54063549"><ele>1296</ele><speed>18.75</speed><time>2016-06-02T12:36:24Z</time><pdop>5.0</pdop><geoidheight>51.00</geoidheight><course>84.4</course><type>1</type></trkpt>
      <trkpt lat="38.43383789" lon="-2.54043276"><ele>1293</ele><speed>18.43</speed><time>2016-06-02T12:36:25Z</time><pdop>5.0</pdop><geoidheight>51.00</geoidheight><course>84.9</course><type>1</type></trkpt>
      <trkpt lat="38.4338551" lon="-2.54021154"><ele>1291</ele><speed>18.61</speed><time>2016-06-02T12:36:26Z</time><pdop>6.0</pdop><geoidheight>51.00</geoidheight><course>84.7</course><type>1</type></trkpt>
      <trkpt lat="38.43386936" lon="-2.54000161"><ele>1289</ele><speed>18.53</speed><time>2016-06-02T12:36:27Z</time><pdop>5.0</pdop><geoidheight>51.00</geoidheight><course>84.5</course><type>1</type></trkpt>
      <trkpt lat="38.43389601" lon="-2.53978025"><ele>1287</ele><speed>19.11</speed><time>2016-06-02T12:36:28Z</time><pdop>5.0</pdop><geoidheight>51.00</geoidheight><course>82.0</course><type>1</type></trkpt>
      <trkpt lat="38.43392897" lon="-2.53956488"><ele>1285</ele><speed>19.31</speed><time>2016-06-02T12:36:29Z</time><pdop>6.0</pdop><geoidheight>51.00</geoidheight><course>81.1</course><type>1</type></trkpt>
      <trkpt lat="38.43394345" lon="-2.53936671"><ele>1283</ele><speed>18.46</speed><time>2016-06-02T12:36:30Z</time><pdop>7.0</pdop><geoidheight>51.00</geoidheight><course>83.5</course><type>1</type></trkpt>
      <trkpt lat="38.433989" lon="-2.53899285"><ele>1283</ele><speed>17.11</speed><time>2016-06-02T12:36:32Z</time><pdop>12.0</pdop><geoidheight>51.00</geoidheight><course>82.2</course><type>1</type></trkpt>
      <trkpt lat="38.43394458" lon="-2.53870077"><ele>1280</ele><speed>14.27</speed><time>2016-06-02T12:36:34Z</time><pdop>11.0</pdop><geoidheight>51.00</geoidheight><course>92.8</course><type>1</type></trkpt>
      <trkpt lat="38.43392539" lon="-2.53838651"><ele>1280</ele><speed>15.88</speed><time>2016-06-02T12:36:36Z</time><pdop>10.0</pdop><geoidheight>51.00</geoidheight><course>83.6</course><type>1</type></trkpt>
      <trkpt lat="38.43398743" lon="-2.53804815"><ele>1283</ele><speed>15.69</speed><time>2016-06-02T12:36:38Z</time><pdop>10.0</pdop><geoidheight>51.00</geoidheight><course>73.3</course><type>1</type></trkpt>
      <trkpt lat="38.43412717" lon="-2.53781876"><ele>1283</ele><speed>13.61</speed><time>2016-06-02T12:36:40Z</time><pdop>9.0</pdop><geoidheight>51.00</geoidheight><course>53.6</course><type>1</type></trkpt>
      <trkpt lat="38.43426445" lon="-2.53763611"><ele>1286</ele><speed>10.84</speed><time>2016-06-02T12:36:42Z</time><pdop>9.0</pdop><geoidheight>51.00</geoidheight><course>43.7</course><type>1</type></trkpt>
      <trkpt lat="38.43438791" lon="-2.53748216"><ele>1287</ele><speed>9.79</speed><time>2016-06-02T12:36:44Z</time><pdop>10.0</pdop><geoidheight>51.00</geoidheight><course>38.6</course><type>1</type></trkpt>
      <trkpt lat="38.43461469" lon="-2.53753054"><ele>1286</ele><speed>7.63</speed><time>2016-06-02T12:36:47Z</time><pdop>10.0</pdop><geoidheight>51.00</geoidheight><course>348.1</course><type>1</type></trkpt>
      <trkpt lat="38.43477732" lon="-2.5375998"><ele>1288</ele><speed>3.76</speed><time>2016-06-02T12:36:51Z</time><pdop>9.0</pdop><geoidheight>51.00</geoidheight><course>1.2</course><type>1</type></trkpt>
      <trkpt lat="38.43456499" lon="-2.5376853"><ele>1287</ele><speed>6.39</speed><time>2016-06-02T12:36:58Z</time><pdop>12.0</pdop><geoidheight>51.00</geoidheight><course>174.7</course><type>1</type></trkpt>
      <trkpt lat="38.4342644" lon="-2.53732249"><ele>1289</ele><speed>14.66</speed><time>2016-06-02T12:37:00Z</time><pdop>11.0</pdop><geoidheight>51.00</geoidheight><course>138.5</course><type>1</type></trkpt>
      <trkpt lat="38.43419678" lon="-2.5368997"><ele>1291</ele><speed>16.24</speed><time>2016-06-02T12:37:02Z</time><pdop>9.0</pdop><geoidheight>51.00</geoidheight><course>105.4</course><type>1</type></trkpt>
      <trkpt lat="38.4341641" lon="-2.53668368"><ele>1290</ele><speed>16.84</speed><time>2016-06-02T12:37:03Z</time><pdop>9.0</pdop><geoidheight>51.00</geoidheight><course>98.8</course><type>1</type></trkpt>
      <trkpt lat="38.43414345" lon="-2.53646962"><ele>1289</ele><speed>17.13</speed><time>2016-06-02T12:37:04Z</time><pdop>9.0</pdop><geoidheight>51.00</geoidheight><course>95.0</course><type>1</type></trkpt>
      <trkpt lat="38.43413736" lon="-2.53607479"><ele>1288</ele><speed>17.30</speed><time>2016-06-02T12:37:06Z</time><pdop>9.0</pdop><geoidheight>51.00</geoidheight><course>89.3</course><type>1</type></trkpt>
      <trkpt lat="38.43424112" lon="-2.53572961"><ele>1287</ele><speed>15.71</speed><time>2016-06-02T12:37:08Z</time><pdop>9.0</pdop><geoidheight>51.00</geoidheight><course>68.5</course><type>1</type></trkpt>
      <trkpt lat="38.43436442" lon="-2.5354454"><ele>1288</ele><speed>14.05</speed><time>2016-06-02T12:37:10Z</time><pdop>10.0</pdop><geoidheight>51.00</geoidheight><course>62.4</course><type>1</type></trkpt>
      <trkpt lat="38.43454185" lon="-2.53521657"><ele>1292</ele><speed>13.15</speed><time>2016-06-02T12:37:12Z</time><pdop>10.0</pdop><geoidheight>51.00</geoidheight><course>47.4</course><type>1</type></trkpt>
      <trkpt lat="38.43469215" lon="-2.53503598"><ele>1293</ele><speed>11.43</speed><time>2016-06-02T12:37:14Z</time><pdop>11.0</pdop><geoidheight>51.00</geoidheight><course>43.0</course><type>1</type></trkpt>
      <trkpt lat="38.43490177" lon="-2.53488898"><ele>1296</ele><speed>12.54</speed><time>2016-06-02T12:37:16Z</time><pdop>12.0</pdop><geoidheight>51.00</geoidheight><course>34.9</course><type>1</type></trkpt>
      <trkpt lat="38.43513378" lon="-2.53467428"><ele>1300</ele><speed>15.29</speed><time>2016-06-02T12:37:18Z</time><pdop>12.0</pdop><geoidheight>51.00</geoidheight><course>33.5</course><type>1</type></trkpt>
      <trkpt lat="38.43525895" lon="-2.53444671"><ele>1305</ele><speed>13.75</speed><time>2016-06-02T12:37:20Z</time><pdop>11.0</pdop><geoidheight>51.00</geoidheight><course>41.1</course><type>1</type></trkpt>
      <trkpt lat="38.43542755" lon="-2.53424117"><ele>1313</ele><speed>13.34</speed><time>2016-06-02T12:37:22Z</time><pdop>10.0</pdop><geoidheight>51.00</geoidheight><course>35.2</course><type>1</type></trkpt>
      <trkpt lat="38.43561172" lon="-2.5341337"><ele>1316</ele><speed>11.26</speed><time>2016-06-02T12:37:24Z</time><pdop>10.0</pdop><geoidheight>51.00</geoidheight><course>18.0</course><type>1</type></trkpt>
      <trkpt lat="38.43541858" lon="-2.53398626"><ele>1330</ele><speed>10.42</speed><time>2016-06-02T12:37:34Z</time><pdop>11.0</pdop><geoidheight>51.00</geoidheight><course>110.3</course><type>1</type></trkpt>
      <trkpt lat="38.43533947" lon="-2.533621"><ele>1333</ele><speed>14.31</speed><time>2016-06-02T12:37:36Z</time><pdop>12.0</pdop><geoidheight>51.00</geoidheight><course>104.4</course><type>1</type></trkpt>
      <trkpt lat="38.43535742" lon="-2.53328767"><ele>1336</ele><speed>13.64</speed><time>2016-06-02T12:37:38Z</time><pdop>13.0</pdop><geoidheight>51.00</geoidheight><course>93.2</course><type>1</type></trkpt>
      <trkpt lat="38.43558598" lon="-2.53302188"><ele>1339</ele><speed>11.66</speed><time>2016-06-02T12:37:40Z</time><pdop>12.0</pdop><geoidheight>51.00</geoidheight><course>54.4</course><type>1</type></trkpt>
      <trkpt lat="38.43584723" lon="-2.532886"><ele>1346</ele><speed>8.75</speed><time>2016-06-02T12:37:43Z</time><pdop>12.0</pdop><geoidheight>51.00</geoidheight><course>359.4</course><type>1</type></trkpt>
      <trkpt lat="38.4355804" lon="-2.53279284"><ele>1374</ele><speed>12.13</speed><time>2016-06-02T12:37:54Z</time><pdop>9.0</pdop><geoidheight>51.00</geoidheight><course>135.9</course><type>1</type></trkpt>
      <trkpt lat="38.43544427" lon="-2.53258407"><ele>1378</ele><speed>11.31</speed><time>2016-06-02T12:37:56Z</time><pdop>10.0</pdop><geoidheight>51.00</geoidheight><course>133.3</course><type>1</type></trkpt>
      <trkpt lat="38.4352819" lon="-2.53245588"><ele>1387</ele><speed>5.87</speed><time>2016-06-02T12:37:59Z</time><pdop>10.0</pdop><geoidheight>51.00</geoidheight><course>169.6</course><type>1</type></trkpt>
      <trkpt lat="38.43549319" lon="-2.53214076"><ele>1398</ele><speed>12.94</speed><time>2016-06-02T12:38:07Z</time><pdop>13.0</pdop><geoidheight>51.00</geoidheight><course>67.6</course><type>1</type></trkpt>
      <trkpt lat="38.4356643" lon="-2.53179618"><ele>1401</ele><speed>14.45</speed><time>2016-06-02T12:38:09Z</time><pdop>12.0</pdop><geoidheight>51.00</geoidheight><course>70.0</course><type>1</type></trkpt>
      <trkpt lat="38.43573693" lon="-2.53148413"><ele>1407</ele><speed>13.77</speed><time>2016-06-02T12:38:11Z</time><pdop>12.0</pdop><geoidheight>51.00</geoidheight><course>74.4</course><type>1</type></trkpt>
      <trkpt lat="38.43547237" lon="-2.53124623"><ele>1417</ele><speed>9.66</speed><time>2016-06-02T12:38:14Z</time><pdop>12.0</pdop><geoidheight>51.00</geoidheight><course>137.6</course><type>1</type></trkpt>
      <trkpt lat="38.43519967" lon="-2.53112707"><ele>1423</ele><speed>8.63</speed><time>2016-06-02T12:38:17Z</time><pdop>11.0</pdop><geoidheight>51.00</geoidheight><course>159.3</course><type>1</type></trkpt>
      <trkpt lat="38.43504048" lon="-2.53127324"><ele>1440</ele><speed>2.47</speed><time>2016-06-02T12:38:26Z</time><pdop>10.0</pdop><geoidheight>51.00</geoidheight><course>191.8</course><type>1</type></trkpt>
      <trkpt lat="38.43531219" lon="-2.53107414"><ele>1443</ele><speed>7.24</speed><time>2016-06-02T12:38:32Z</time><pdop>13.0</pdop><geoidheight>51.00</geoidheight><course>36.3</course><type>1</type></trkpt>
      <trkpt lat="38.43555475" lon="-2.53076966"><ele>1447</ele><speed>13.02</speed><time>2016-06-02T12:38:34Z</time><pdop>11.0</pdop><geoidheight>51.00</geoidheight><course>50.6</course><type>1</type></trkpt>
      <trkpt lat="38.4356449" lon="-2.53038021"><ele>1449</ele><speed>14.11</speed><time>2016-06-02T12:38:36Z</time><pdop>10.0</pdop><geoidheight>51.00</geoidheight><course>76.2</course><type>1</type></trkpt>
      <trkpt lat="38.43560574" lon="-2.53012473"><ele>1457</ele><speed>11.00</speed><time>2016-06-02T12:38:38Z</time><pdop>9.0</pdop><geoidheight>51.00</geoidheight><course>103.2</course><type>1</type></trkpt>
      <trkpt lat="38.43547596" lon="-2.52992851"><ele>1460</ele><speed>11.26</speed><time>2016-06-02T12:38:40Z</time><pdop>10.0</pdop><geoidheight>51.00</geoidheight><course>130.8</course><type>1</type></trkpt>
      <trkpt lat="38.43523458" lon="-2.52975425"><ele>1461</ele><speed>9.55</speed><time>2016-06-02T12:38:43Z</time><pdop>11.0</pdop><geoidheight>51.00</geoidheight><course>152.6</course><type>1</type></trkpt>
      <trkpt lat="38.43551232" lon="-2.52947732"><ele>1468</ele><speed>9.53</speed><time>2016-06-02T12:38:51Z</time><pdop>15.0</pdop><geoidheight>51.00</geoidheight><course>58.0</course><type>1</type></trkpt>
      <trkpt lat="38.4357295" lon="-2.52929907"><ele>1469</ele><speed>13.69</speed><time>2016-06-02T12:38:52Z</time><pdop>12.0</pdop><geoidheight>51.00</geoidheight><course>50.8</course><type>1</type></trkpt>
      <trkpt lat="38.43581313" lon="-2.52907408"><ele>1469</ele><speed>15.79</speed><time>2016-06-02T12:38:53Z</time><pdop>9.0</pdop><geoidheight>51.00</geoidheight><course>63.6</course><type>1</type></trkpt>
      <trkpt lat="38.43588616" lon="-2.52889227"><ele>1470</ele><speed>14.73</speed><time>2016-06-02T12:38:54Z</time><pdop>7.0</pdop><geoidheight>51.00</geoidheight><course>70.7</course><type>1</type></trkpt>
      <trkpt lat="38.43596361" lon="-2.52873737"><ele>1471</ele><speed>13.43</speed><time>2016-06-02T12:38:55Z</time><pdop>8.0</pdop><geoidheight>51.00</geoidheight><course>68.5</course><type>1</type></trkpt>
      <trkpt lat="38.43596611" lon="-2.52843124"><ele>1477</ele><speed>12.06</speed><time>2016-06-02T12:38:57Z</time><pdop>6.0</pdop><geoidheight>51.00</geoidheight><course>87.2</course><type>1</type></trkpt>
      <trkpt lat="38.43599458" lon="-2.52827618"><ele>1477</ele><speed>14.34</speed><time>2016-06-02T12:38:58Z</time><pdop>5.0</pdop><geoidheight>51.00</geoidheight><course>87.6</course><type>1</type></trkpt>
      <trkpt lat="38.4360071" lon="-2.52807526"><ele>1478</ele><speed>16.63</speed><time>2016-06-02T12:38:59Z</time><pdop>4.0</pdop><geoidheight>51.00</geoidheight><course>87.0</course><type>1</type></trkpt>
      <trkpt lat="38.43602776" lon="-2.52786812"><ele>1480</ele><speed>17.67</speed><time>2016-06-02T12:39:00Z</time><pdop>4.0</pdop><geoidheight>51.00</geoidheight><course>85.3</course><type>1</type></trkpt>
      <trkpt lat="38.43604293" lon="-2.52766462"><ele>1482</ele><speed>17.48</speed><time>2016-06-02T12:39:01Z</time><pdop>4.0</pdop><geoidheight>51.00</geoidheight><course>85.4</course><type>1</type></trkpt>
      <trkpt lat="38.43605523" lon="-2.52747614"><ele>1482</ele><speed>16.89</speed><time>2016-06-02T12:39:02Z</time><pdop>4.0</pdop><geoidheight>51.00</geoidheight><course>86.0</course><type>1</type></trkpt>
      <trkpt lat="38.43605586" lon="-2.52728363"><ele>1484</ele><speed>16.73</speed><time>2016-06-02T12:39:03Z</time><pdop>5.0</pdop><geoidheight>51.00</geoidheight><course>86.9</course><type>1</type></trkpt>
      <trkpt lat="38.43601718" lon="-2.52714873"><ele>1487</ele><speed>13.94</speed><time>2016-06-02T12:39:04Z</time><pdop>4.0</pdop><geoidheight>51.00</geoidheight><course>97.3</course><type>1</type></trkpt>
      <trkpt lat="38.43597771" lon="-2.52702026"><ele>1491</ele><speed>12.35</speed><time>2016-06-02T12:39:05Z</time><pdop>4.0</pdop><geoidheight>51.00</geoidheight><course>109.0</course><type>1</type></trkpt>
      <trkpt lat="38.43590709" lon="-2.52690746"><ele>1491</ele><speed>11.17</speed><time>2016-06-02T12:39:06Z</time><pdop>4.0</pdop><geoidheight>51.00</geoidheight><course>124.0</course><type>1</type></trkpt>
      <trkpt lat="38.435843" lon="-2.52682601"><ele>1491</ele><speed>10.22</speed><time>2016-06-02T12:39:07Z</time><pdop>4.0</pdop><geoidheight>51.00</geoidheight><course>131.3</course><type>1</type></trkpt>
      <trkpt lat="38.43577938" lon="-2.52677413"><ele>1494</ele><speed>8.45</speed><time>2016-06-02T12:39:08Z</time><pdop>4.0</pdop><geoidheight>51.00</geoidheight><course>142.9</course><type>1</type></trkpt>
      <trkpt lat="38.43571402" lon="-2.5267489"><ele>1497</ele><speed>2.36</speed><time>2016-06-02T12:39:10Z</time><pdop>3.0</pdop><geoidheight>51.00</geoidheight><course>185.9</course><type>1</type></trkpt>
      <trkpt lat="38.43574421" lon="-2.52682493"><ele>1497</ele><speed>3.65</speed><time>2016-06-02T12:39:12Z</time><pdop>3.0</pdop><geoidheight>51.00</geoidheight><course>304.8</course><type>1</type></trkpt>
      <trkpt lat="38.43582362" lon="-2.52687734"><ele>1498</ele><speed>5.09</speed><time>2016-06-02T12:39:14Z</time><pdop>3.0</pdop><geoidheight>51.00</geoidheight><course>339.5</course><type>1</type></trkpt>
      <trkpt lat="38.43594619" lon="-2.52686904"><ele>1502</ele><speed>6.68</speed><time>2016-06-02T12:39:16Z</time><pdop>4.0</pdop><geoidheight>51.00</geoidheight><course>353.3</course><type>1</type></trkpt>
      <trkpt lat="38.43609247" lon="-2.52686397"><ele>1503</ele><speed>8.09</speed><time>2016-06-02T12:39:18Z</time><pdop>6.0</pdop><geoidheight>51.00</geoidheight><course>4.0</course><type>1</type></trkpt>
      <trkpt lat="38.43625798" lon="-2.52671781"><ele>1508</ele><speed>10.37</speed><time>2016-06-02T12:39:20Z</time><pdop>8.0</pdop><geoidheight>51.00</geoidheight><course>38.9</course><type>1</type></trkpt>
      <trkpt lat="38.43636975" lon="-2.52657566"><ele>1510</ele><speed>13.54</speed><time>2016-06-02T12:39:21Z</time><pdop>7.0</pdop><geoidheight>51.00</geoidheight><course>47.5</course><type>1</type></trkpt>
      <trkpt lat="38.43641305" lon="-2.52639527"><ele>1514</ele><speed>15.25</speed><time>2016-06-02T12:39:22Z</time><pdop>6.0</pdop><geoidheight>51.00</geoidheight><course>66.2</course><type>1</type></trkpt>
      <trkpt lat="38.43642667" lon="-2.52621728"><ele>1515</ele><speed>15.81</speed><time>2016-06-02T12:39:23Z</time><pdop>5.0</pdop><geoidheight>51.00</geoidheight><course>76.1</course><type>1</type></trkpt>
      <trkpt lat="38.43644693" lon="-2.52602565"><ele>1515</ele><speed>16.17</speed><time>2016-06-02T12:39:24Z</time><pdop>5.0</pdop><geoidheight>51.00</geoidheight><course>83.5</course><type>1</type></trkpt>
      <trkpt lat="38.43647235" lon="-2.52584094"><ele>1516</ele><speed>16.64</speed><time>2016-06-02T12:39:25Z</time><pdop>5.0</pdop><geoidheight>51.00</geoidheight><course>85.2</course><type>1</type></trkpt>
      <trkpt lat="38.43646136" lon="-2.52564502"><ele>1518</ele><speed>17.16</speed><time>2016-06-02T12:39:26Z</time><pdop>7.0</pdop><geoidheight>51.00</geoidheight><course>87.9</course><type>1</type></trkpt>
      <trkpt lat="38.43646753" lon="-2.52544668"><ele>1519</ele><speed>17.60</speed><time>2016-06-02T12:39:27Z</time><pdop>6.0</pdop><geoidheight>51.00</geoidheight><course>90.5</course><type>1</type></trkpt>
      <trkpt lat="38.43647884" lon="-2.52523947"><ele>1519</ele><speed>17.62</speed><time>2016-06-02T12:39:28Z</time><pdop>6.0</pdop><geoidheight>51.00</geoidheight><course>89.2</course><type>1</type></trkpt>
      <trkpt lat="38.43644082" lon="-2.5251024"><ele>1521</ele><speed>15.10</speed><time>2016-06-02T12:39:29Z</time><pdop>6.0</pdop><geoidheight>51.00</geoidheight><course>94.3</course><type>1</type></trkpt>
      <trkpt lat="38.43640474" lon="-2.52496469"><ele>1522</ele><speed>13.67</speed><time>2016-06-02T12:39:30Z</time><pdop>5.0</pdop><geoidheight>51.00</geoidheight><course>98.6</course><type>1</type></trkpt>
      <trkpt lat="38.43638781" lon="-2.52483447"><ele>1523</ele><speed>12.51</speed><time>2016-06-02T12:39:31Z</time><pdop>6.0</pdop><geoidheight>51.00</geoidheight><course>99.9</course><type>1</type></trkpt>
      <trkpt lat="38.43629368" lon="-2.52464049"><ele>1524</ele><speed>10.29</speed><time>2016-06-02T12:39:33Z</time><pdop>7.0</pdop><geoidheight>51.00</geoidheight><course>117.1</course><type>1</type></trkpt>
      <trkpt lat="38.43614019" lon="-2.52464011"><ele>1530</ele><speed>3.76</speed><time>2016-06-02T12:39:36Z</time><pdop>6.0</pdop><geoidheight>51.00</geoidheight><course>174.6</course><type>1</type></trkpt>
      <trkpt lat="38.43627054" lon="-2.52471978"><ele>1533</ele><speed>4.09</speed><time>2016-06-02T12:39:42Z</time><pdop>9.0</pdop><geoidheight>51.00</geoidheight><course>352.3</course><type>1</type></trkpt>
      <trkpt lat="38.43648695" lon="-2.5245741"><ele>1534</ele><speed>7.66</speed><time>2016-06-02T12:39:44Z</time><pdop>13.0</pdop><geoidheight>51.00</geoidheight><course>29.5</course><type>1</type></trkpt>
      <trkpt lat="38.43671256" lon="-2.52427995"><ele>1535</ele><speed>16.85</speed><time>2016-06-02T12:39:45Z</time><pdop>7.0</pdop><geoidheight>51.00</geoidheight><course>49.5</course><type>1</type></trkpt>
      <trkpt lat="38.43680359" lon="-2.52407169"><ele>1537</ele><speed>18.16</speed><time>2016-06-02T12:39:46Z</time><pdop>7.0</pdop><geoidheight>51.00</geoidheight><course>62.8</course><type>1</type></trkpt>
      <trkpt lat="38.43686324" lon="-2.52386471"><ele>1538</ele><speed>18.46</speed><time>2016-06-02T12:39:47Z</time><pdop>7.0</pdop><geoidheight>51.00</geoidheight><course>70.7</course><type>1</type></trkpt>
      <trkpt lat="38.43692433" lon="-2.52365164"><ele>1539</ele><speed>18.32</speed><time>2016-06-02T12:39:48Z</time><pdop>7.0</pdop><geoidheight>51.00</geoidheight><course>74.1</course><type>1</type></trkpt>
      <trkpt lat="38.43695457" lon="-2.52345271"><ele>1541</ele><speed>17.99</speed><time>2016-06-02T12:39:49Z</time><pdop>7.0</pdop><geoidheight>51.00</geoidheight><course>79.4</course><type>1</type></trkpt>
      <trkpt lat="38.43699297" lon="-2.52324251"><ele>1546</ele><speed>17.85</speed><time>2016-06-02T12:39:50Z</time><pdop>7.0</pdop><geoidheight>51.00</geoidheight><course>81.3</course><type>1</type></trkpt>
      <trkpt lat="38.43700797" lon="-2.52307171"><ele>1547</ele><speed>16.27</speed><time>2016-06-02T12:39:51Z</time><pdop>6.0</pdop><geoidheight>51.00</geoidheight><course>84.1</course><type>1</type></trkpt>
      <trkpt lat="38.43702088" lon="-2.52289603"><ele>1548</ele><speed>15.29</speed><time>2016-06-02T12:39:52Z</time><pdop>6.0</pdop><geoidheight>51.00</geoidheight><course>86.4</course><type>1</type></trkpt>
      <trkpt lat="38.43700273" lon="-2.52274525"><ele>1548</ele><speed>14.63</speed><time>2016-06-02T12:39:53Z</time><pdop>6.0</pdop><geoidheight>51.00</geoidheight><course>90.8</course><type>1</type></trkpt>
      <trkpt lat="38.436955" lon="-2.52259645"><ele>1547</ele><speed>14.26</speed><time>2016-06-02T12:39:54Z</time><pdop>7.0</pdop><geoidheight>51.00</geoidheight><course>97.8</course><type>1</type></trkpt>
      <trkpt lat="38.43685104" lon="-2.52238552"><ele>1549</ele><speed>12.49</speed><time>2016-06-02T12:39:56Z</time><pdop>6.0</pdop><geoidheight>51.00</geoidheight><course>110.6</course><type>1</type></trkpt>
      <trkpt lat="38.4367977" lon="-2.5222375"><ele>1551</ele><speed>12.44</speed><time>2016-06-02T12:39:57Z</time><pdop>7.0</pdop><geoidheight>51.00</geoidheight><course>112.1</course><type>1</type></trkpt>
      <trkpt lat="38.43664718" lon="-2.52206826"><ele>1553</ele><speed>9.51</speed><time>2016-06-02T12:39:59Z</time><pdop>10.0</pdop><geoidheight>51.00</geoidheight><course>122.8</course><type>1</type></trkpt>
      <trkpt lat="38.43650687" lon="-2.52222151"><ele>1555</ele><speed>4.37</speed><time>2016-06-02T12:40:06Z</time><pdop>10.0</pdop><geoidheight>51.00</geoidheight><course>265.1</course><type>1</type></trkpt>
      <trkpt lat="38.43633782" lon="-2.52233307"><ele>1561</ele><speed>3.92</speed><time>2016-06-02T12:40:13Z</time><pdop>10.0</pdop><geoidheight>51.00</geoidheight><course>173.7</course><type>1</type></trkpt>
      <trkpt lat="38.43615447" lon="-2.52235996"><ele>1565</ele><speed>4.56</speed><time>2016-06-02T12:40:17Z</time><pdop>10.0</pdop><geoidheight>51.00</geoidheight><course>204.3</course><type>1</type></trkpt>
      <trkpt lat="38.4363729" lon="-2.52228279"><ele>1568</ele><speed>5.52</speed><time>2016-06-02T12:40:21Z</time><pdop>13.0</pdop><geoidheight>51.00</geoidheight><course>38.5</course><type>1</type></trkpt>
      <trkpt lat="38.43660503" lon="-2.52208534"><ele>1571</ele><speed>10.39</speed><time>2016-06-02T12:40:23Z</time><pdop>15.0</pdop><geoidheight>51.00</geoidheight><course>42.9</course><type>1</type></trkpt>
      <trkpt lat="38.43675588" lon="-2.52160943"><ele>1572</ele><speed>16.84</speed><time>2016-06-02T12:40:25Z</time><pdop>14.0</pdop><geoidheight>51.00</geoidheight><course>68.8</course><type>1</type></trkpt>
      <trkpt lat="38.4368863" lon="-2.52110218"><ele>1574</ele><speed>19.77</speed><time>2016-06-02T12:40:27Z</time><pdop>12.0</pdop><geoidheight>51.00</geoidheight><course>72.4</course><type>1</type></trkpt>
      <trkpt lat="38.43688624" lon="-2.5206794"><ele>1577</ele><speed>19.06</speed><time>2016-06-02T12:40:29Z</time><pdop>12.0</pdop><geoidheight>51.00</geoidheight><course>84.0</course><type>1</type></trkpt>
      <trkpt lat="38.43684151" lon="-2.52037296"><ele>1581</ele><speed>15.34</speed><time>2016-06-02T12:40:31Z</time><pdop>11.0</pdop><geoidheight>51.00</geoidheight><course>94.3</course><type>1</type></trkpt>
      <trkpt lat="38.43680159" lon="-2.52008942"><ele>1583</ele><speed>13.45</speed><time>2016-06-02T12:40:33Z</time><pdop>11.0</pdop><geoidheight>51.00</geoidheight><course>96.8</course><type>1</type></trkpt>
      <trkpt lat="38.43676378" lon="-2.51982778"><ele>1584</ele><speed>11.73</speed><time>2016-06-02T12:40:35Z</time><pdop>11.0</pdop><geoidheight>51.00</geoidheight><course>99.6</course><type>1</type></trkpt>
      <trkpt lat="38.43663039" lon="-2.51953749"><ele>1584</ele><speed>10.39</speed><time>2016-06-02T12:40:38Z</time><pdop>13.0</pdop><geoidheight>51.00</geoidheight><course>112.1</course><type>1</type></trkpt>
      <trkpt lat="38.43649309" lon="-2.51927984"><ele>1584</ele><speed>12.85</speed><time>2016-06-02T12:40:40Z</time><pdop>13.0</pdop><geoidheight>51.00</geoidheight><course>116.7</course><type>1</type></trkpt>
      <trkpt lat="38.4361605" lon="-2.51911987"><ele>1583</ele><speed>14.74</speed><time>2016-06-02T12:40:42Z</time><pdop>12.0</pdop><geoidheight>51.00</geoidheight><course>135.0</course><type>1</type></trkpt>
      <trkpt lat="38.43605894" lon="-2.51882681"><ele>1583</ele><speed>14.22</speed><time>2016-06-02T12:40:44Z</time><pdop>11.0</pdop><geoidheight>51.00</geoidheight><course>122.4</course><type>1</type></trkpt>
      <trkpt lat="38.43591969" lon="-2.51855219"><ele>1583</ele><speed>14.09</speed><time>2016-06-02T12:40:46Z</time><pdop>11.0</pdop><geoidheight>51.00</geoidheight><course>120.3</course><type>1</type></trkpt>
      <trkpt lat="38.43583624" lon="-2.51825554"><ele>1566</ele><speed>13.10</speed><time>2016-06-02T12:40:49Z</time><pdop>10.0</pdop><geoidheight>51.00</geoidheight><course>106.0</course><type>1</type></trkpt>
      <trkpt lat="38.4357944" lon="-2.51793624"><ele>1558</ele><speed>14.51</speed><time>2016-06-02T12:40:51Z</time><pdop>9.0</pdop><geoidheight>51.00</geoidheight><course>101.5</course><type>1</type></trkpt>
      <trkpt lat="38.43578249" lon="-2.51762191"><ele>1553</ele><speed>13.08</speed><time>2016-06-02T12:40:53Z</time><pdop>9.0</pdop><geoidheight>51.00</geoidheight><course>92.8</course><type>1</type></trkpt>
      <trkpt lat="38.43577799" lon="-2.51733776"><ele>1550</ele><speed>12.20</speed><time>2016-06-02T12:40:55Z</time><pdop>9.0</pdop><geoidheight>51.00</geoidheight><course>89.9</course><type>1</type></trkpt>
      <trkpt lat="38.43575279" lon="-2.51703715"><ele>1549</ele><speed>13.21</speed><time>2016-06-02T12:40:57Z</time><pdop>9.0</pdop><geoidheight>51.00</geoidheight><course>95.2</course><type>1</type></trkpt>
      <trkpt lat="38.43575811" lon="-2.51668566"><ele>1545</ele><speed>14.89</speed><time>2016-06-02T12:40:59Z</time><pdop>9.0</pdop><geoidheight>51.00</geoidheight><course>87.8</course><type>1</type></trkpt>
      <trkpt lat="38.43576747" lon="-2.51637991"><ele>1543</ele><speed>13.16</speed><time>2016-06-02T12:41:01Z</time><pdop>10.0</pdop><geoidheight>51.00</geoidheight><course>86.5</course><type>1</type></trkpt>
      <trkpt lat="38.43580754" lon="-2.51608798"><ele>1540</ele><speed>13.42</speed><time>2016-06-02T12:41:03Z</time><pdop>10.0</pdop><geoidheight>51.00</geoidheight><course>83.3</course><type>1</type></trkpt>
      <trkpt lat="38.43586188" lon="-2.51576138"><ele>1529</ele><speed>15.38</speed><time>2016-06-02T12:41:05Z</time><pdop>9.0</pdop><geoidheight>51.00</geoidheight><course>81.5</course><type>1</type></trkpt>
      <trkpt lat="38.43587572" lon="-2.51558659"><ele>1525</ele><speed>15.64</speed><time>2016-06-02T12:41:06Z</time><pdop>4.0</pdop><geoidheight>51.00</geoidheight><course>83.6</course><type>1</type></trkpt>
      <trkpt lat="38.43588033" lon="-2.51540464"><ele>1522</ele><speed>15.55</speed><time>2016-06-02T12:41:07Z</time><pdop>4.0</pdop><geoidheight>51.00</geoidheight><course>85.3</course><type>1</type></trkpt>
      <trkpt lat="38.43589292" lon="-2.51523449"><ele>1520</ele><speed>15.39</speed><time>2016-06-02T12:41:08Z</time><pdop>4.0</pdop><geoidheight>51.00</geoidheight><course>86.1</course><type>1</type></trkpt>
      <trkpt lat="38.43589669" lon="-2.5150612"><ele>1517</ele><speed>15.25</speed><time>2016-06-02T12:41:09Z</time><pdop>4.0</pdop><geoidheight>51.00</geoidheight><course>87.3</course><type>1</type></trkpt>
      <trkpt lat="38.43589707" lon="-2.5148913"><ele>1513</ele><speed>15.31</speed><time>2016-06-02T12:41:10Z</time><pdop>4.0</pdop><geoidheight>51.00</geoidheight><course>89.7</course><type>1</type></trkpt>
      <trkpt lat="38.43588972" lon="-2.51471686"><ele>1511</ele><speed>15.48</speed><time>2016-06-02T12:41:11Z</time><pdop>4.0</pdop><geoidheight>51.00</geoidheight><course>91.6</course><type>1</type></trkpt>
      <trkpt lat="38.43588806" lon="-2.51453453"><ele>1509</ele><speed>15.53</speed><time>2016-06-02T12:41:12Z</time><pdop>4.0</pdop><geoidheight>51.00</geoidheight><course>91.6</course><type>1</type></trkpt>
      <trkpt lat="38.43588298" lon="-2.51435413"><ele>1507</ele><speed>15.55</speed><time>2016-06-02T12:41:13Z</time><pdop>3.0</pdop><geoidheight>51.00</geoidheight><course>91.9</course><type>1</type></trkpt>
      <trkpt lat="38.43587686" lon="-2.51417575"><ele>1504</ele><speed>15.51</speed><time>2016-06-02T12:41:14Z</time><pdop>3.0</pdop><geoidheight>51.00</geoidheight><course>94.2</course><type>1</type></trkpt>
      <trkpt lat="38.43586342" lon="-2.51399203"><ele>1503</ele><speed>15.48</speed><time>2016-06-02T12:41:15Z</time><pdop>4.0</pdop><geoidheight>51.00</geoidheight><course>95.1</course><type>1</type></trkpt>
      <trkpt lat="38.43584611" lon="-2.51382003"><ele>1501</ele><speed>15.10</speed><time>2016-06-02T12:41:16Z</time><pdop>3.0</pdop><geoidheight>51.00</geoidheight><course>98.2</course><type>1</type></trkpt>
      <trkpt lat="38.4358269" lon="-2.51366625"><ele>1500</ele><speed>14.50</speed><time>2016-06-02T12:41:17Z</time><pdop>4.0</pdop><geoidheight>51.00</geoidheight><course>98.2</course><type>1</type></trkpt>
      <trkpt lat="38.43581058" lon="-2.51351779"><ele>1498</ele><speed>13.83</speed><time>2016-06-02T12:41:18Z</time><pdop>3.0</pdop><geoidheight>51.00</geoidheight><course>98.2</course><type>1</type></trkpt>
      <trkpt lat="38.43578763" lon="-2.51336306"><ele>1497</ele><speed>13.86</speed><time>2016-06-02T12:41:19Z</time><pdop>4.0</pdop><geoidheight>51.00</geoidheight><course>99.0</course><type>1</type></trkpt>
      <trkpt lat="38.43577093" lon="-2.51320519"><ele>1496</ele><speed>14.07</speed><time>2016-06-02T12:41:20Z</time><pdop>4.0</pdop><geoidheight>51.00</geoidheight><course>99.0</course><type>1</type></trkpt>
      <trkpt lat="38.43573578" lon="-2.51304156"><ele>1494</ele><speed>14.70</speed><time>2016-06-02T12:41:21Z</time><pdop>4.0</pdop><geoidheight>51.00</geoidheight><course>101.6</course><type>1</type></trkpt>
      <trkpt lat="38.43570469" lon="-2.51286295"><ele>1492</ele><speed>15.21</speed><time>2016-06-02T12:41:22Z</time><pdop>5.0</pdop><geoidheight>51.00</geoidheight><course>101.5</course><type>1</type></trkpt>
      <trkpt lat="38.43570328" lon="-2.51269997"><ele>1492</ele><speed>15.02</speed><time>2016-06-02T12:41:23Z</time><pdop>4.0</pdop><geoidheight>51.00</geoidheight><course>97.5</course><type>1</type></trkpt>
      <trkpt lat="38.4356936" lon="-2.5125375"><ele>1493</ele><speed>14.21</speed><time>2016-06-02T12:41:24Z</time><pdop>3.0</pdop><geoidheight>51.00</geoidheight><course>97.8</course><type>1</type></trkpt>
      <trkpt lat="38.4356741" lon="-2.51237177"><ele>1492</ele><speed>13.65</speed><time>2016-06-02T12:41:25Z</time><pdop>3.0</pdop><geoidheight>51.00</geoidheight><course>98.5</course><type>1</type></trkpt>
      <trkpt lat="38.43566159" lon="-2.51221958"><ele>1490</ele><speed>13.55</speed><time>2016-06-02T12:41:26Z</time><pdop>3.0</pdop><geoidheight>51.00</geoidheight><course>98.8</course><type>1</type></trkpt>
      <trkpt lat="38.43563496" lon="-2.51205922"><ele>1489</ele><speed>13.90</speed><time>2016-06-02T12:41:27Z</time><pdop>4.0</pdop><geoidheight>51.00</geoidheight><course>99.9</course><type>1</type></trkpt>
      <trkpt lat="38.43563394" lon="-2.51187739"><ele>1489</ele><speed>14.82</speed><time>2016-06-02T12:41:28Z</time><pdop>4.0</pdop><geoidheight>51.00</geoidheight><course>96.2</course><type>1</type></trkpt>
      <trkpt lat="38.43560867" lon="-2.51170611"><ele>1487</ele><speed>15.16</speed><time>2016-06-02T12:41:29Z</time><pdop>4.0</pdop><geoidheight>51.00</geoidheight><course>97.3</course><type>1</type></trkpt>
      <trkpt lat="38.43559112" lon="-2.51153374"><ele>1486</ele><speed>14.98</speed><time>2016-06-02T12:41:30Z</time><pdop>4.0</pdop><geoidheight>51.00</geoidheight><course>98.1</course><type>1</type></trkpt>
      <trkpt lat="38.43558419" lon="-2.51137574"><ele>1485</ele><speed>14.38</speed><time>2016-06-02T12:41:31Z</time><pdop>5.0</pdop><geoidheight>51.00</geoidheight><course>97.5</course><type>1</type></trkpt>
      <trkpt lat="38.43554992" lon="-2.51122473"><ele>1483</ele><speed>13.07</speed><time>2016-06-02T12:41:32Z</time><pdop>4.0</pdop><geoidheight>51.00</geoidheight><course>99.2</course><type>1</type></trkpt>
      <trkpt lat="38.43552106" lon="-2.51109405"><ele>1480</ele><speed>12.59</speed><time>2016-06-02T12:41:33Z</time><pdop>4.0</pdop><geoidheight>51.00</geoidheight><course>95.7</course><type>1</type></trkpt>
      <trkpt lat="38.43551252" lon="-2.51095506"><ele>1480</ele><speed>12.50</speed><time>2016-06-02T12:41:34Z</time><pdop>4.0</pdop><geoidheight>51.00</geoidheight><course>94.2</course><type>1</type></trkpt>
      <trkpt lat="38.43550056" lon="-2.51080866"><ele>1479</ele><speed>13.00</speed><time>2016-06-02T12:41:35Z</time><pdop>5.0</pdop><geoidheight>51.00</geoidheight><course>92.9</course><type>1</type></trkpt>
      <trkpt lat="38.43551548" lon="-2.5106401"><ele>1478</ele><speed>13.89</speed><time>2016-06-02T12:41:36Z</time><pdop>6.0</pdop><geoidheight>51.00</geoidheight><course>88.9</course><type>1</type></trkpt>
      <trkpt lat="38.43552061" lon="-2.51046212"><ele>1477</ele><speed>15.06</speed><time>2016-06-02T12:41:37Z</time><pdop>6.0</pdop><geoidheight>51.00</geoidheight><course>88.0</course><type>1</type></trkpt>
      <trkpt lat="38.43555231" lon="-2.51025553"><ele>1476</ele><speed>16.11</speed><time>2016-06-02T12:41:38Z</time><pdop>5.0</pdop><geoidheight>51.00</geoidheight><course>85.2</course><type>1</type></trkpt>
      <trkpt lat="38.435549" lon="-2.51008367"><ele>1475</ele><speed>15.86</speed><time>2016-06-02T12:41:39Z</time><pdop>5.0</pdop><geoidheight>51.00</geoidheight><course>86.2</course><type>1</type></trkpt>
      <trkpt lat="38.43554756" lon="-2.50990598"><ele>1473</ele><speed>15.50</speed><time>2016-06-02T12:41:40Z</time><pdop>5.0</pdop><geoidheight>51.00</geoidheight><course>88.4</course><type>1</type></trkpt>
      <trkpt lat="38.43555493" lon="-2.50973131"><ele>1472</ele><speed>15.10</speed><time>2016-06-02T12:41:41Z</time><pdop>4.0</pdop><geoidheight>51.00</geoidheight><course>90.0</course><type>1</type></trkpt>
      <trkpt lat="38.43555344" lon="-2.5095699"><ele>1471</ele><speed>14.59</speed><time>2016-06-02T12:41:42Z</time><pdop>4.0</pdop><geoidheight>51.00</geoidheight><course>89.8</course><type>1</type></trkpt>
      <trkpt lat="38.43555662" lon="-2.50940819"><ele>1471</ele><speed>13.78</speed><time>2016-06-02T12:41:43Z</time><pdop>4.0</pdop><geoidheight>51.00</geoidheight><course>89.4</course><type>1</type></trkpt>
      <trkpt lat="38.43555446" lon="-2.50926164"><ele>1471</ele><speed>13.24</speed><time>2016-06-02T12:41:44Z</time><pdop>4.0</pdop><geoidheight>51.00</geoidheight><course>90.2</course><type>1</type></trkpt>
      <trkpt lat="38.43553813" lon="-2.50911492"><ele>1471</ele><speed>12.93</speed><time>2016-06-02T12:41:45Z</time><pdop>4.0</pdop><geoidheight>51.00</geoidheight><course>94.8</course><type>1</type></trkpt>
      <trkpt lat="38.43551058" lon="-2.50897"><ele>1471</ele><speed>12.96</speed><time>2016-06-02T12:41:46Z</time><pdop>4.0</pdop><geoidheight>51.00</geoidheight><course>101.2</course><type>1</type></trkpt>
      <trkpt lat="38.43547191" lon="-2.50881767"><ele>1470</ele><speed>13.34</speed><time>2016-06-02T12:41:47Z</time><pdop>5.0</pdop><geoidheight>51.00</geoidheight><course>102.6</course><type>1</type></trkpt>
      <trkpt lat="38.43545098" lon="-2.50865944"><ele>1469</ele><speed>14.04</speed><time>2016-06-02T12:41:48Z</time><pdop>5.0</pdop><geoidheight>51.00</geoidheight><course>101.2</course><type>1</type></trkpt>
      <trkpt lat="38.43545277" lon="-2.50847323"><ele>1468</ele><speed>15.22</speed><time>2016-06-02T12:41:49Z</time><pdop>6.0</pdop><geoidheight>51.00</geoidheight><course>96.1</course><type>1</type></trkpt>
      <trkpt lat="38.43546042" lon="-2.50826166"><ele>1466</ele><speed>16.74</speed><time>2016-06-02T12:41:50Z</time><pdop>6.0</pdop><geoidheight>51.00</geoidheight><course>91.5</course><type>1</type></trkpt>
      <trkpt lat="38.43547792" lon="-2.50803652"><ele>1465</ele><speed>18.33</speed><time>2016-06-02T12:41:51Z</time><pdop>7.0</pdop><geoidheight>51.00</geoidheight><course>87.1</course><type>1</type></trkpt>
      <trkpt lat="38.43548415" lon="-2.50783263"><ele>1466</ele><speed>17.46</speed><time>2016-06-02T12:41:52Z</time><pdop>6.0</pdop><geoidheight>51.00</geoidheight><course>88.6</course><type>1</type></trkpt>
      <trkpt lat="38.43547765" lon="-2.50764315"><ele>1466</ele><speed>15.88</speed><time>2016-06-02T12:41:53Z</time><pdop>5.0</pdop><geoidheight>51.00</geoidheight><course>90.5</course><type>1</type></trkpt>
      <trkpt lat="38.4354792" lon="-2.50747551"><ele>1466</ele><speed>14.72</speed><time>2016-06-02T12:41:54Z</time><pdop>5.0</pdop><geoidheight>51.00</geoidheight><course>89.3</course><type>1</type></trkpt>
      <trkpt lat="38.43549813" lon="-2.50732885"><ele>1465</ele><speed>12.72</speed><time>2016-06-02T12:41:55Z</time><pdop>5.0</pdop><geoidheight>51.00</geoidheight><course>84.9</course><type>1</type></trkpt>
      <trkpt lat="38.43552769" lon="-2.50721409"><ele>1466</ele><speed>10.53</speed><time>2016-06-02T12:41:56Z</time><pdop>5.0</pdop><geoidheight>51.00</geoidheight><course>76.4</course><type>1</type></trkpt>
      <trkpt lat="38.43556975" lon="-2.50700991"><ele>1464</ele><speed>9.53</speed><time>2016-06-02T12:41:58Z</time><pdop>5.0</pdop><geoidheight>51.00</geoidheight><course>75.9</course><type>1</type></trkpt>
      <trkpt lat="38.43559798" lon="-2.50687889"><ele>1463</ele><speed>10.95</speed><time>2016-06-02T12:41:59Z</time><pdop>6.0</pdop><geoidheight>51.00</geoidheight><course>76.7</course><type>1</type></trkpt>
      <trkpt lat="38.4356088" lon="-2.50670598"><ele>1461</ele><speed>13.14</speed><time>2016-06-02T12:42:00Z</time><pdop>6.0</pdop><geoidheight>51.00</geoidheight><course>81.4</course><type>1</type></trkpt>
      <trkpt lat="38.43556949" lon="-2.50655045"><ele>1458</ele><speed>14.19</speed><time>2016-06-02T12:42:01Z</time><pdop>6.0</pdop><geoidheight>51.00</geoidheight><course>94.5</course><type>1</type></trkpt>
      <trkpt lat="38.43557581" lon="-2.5063961"><ele>1457</ele><speed>14.23</speed><time>2016-06-02T12:42:02Z</time><pdop>6.0</pdop><geoidheight>51.00</geoidheight><course>93.4</course><type>1</type></trkpt>
      <trkpt lat="38.43555818" lon="-2.50623332"><ele>1456</ele><speed>13.79</speed><time>2016-06-02T12:42:03Z</time><pdop>7.0</pdop><geoidheight>51.00</geoidheight><course>94.7</course><type>1</type></trkpt>
      <trkpt lat="38.43552029" lon="-2.50604878"><ele>1452</ele><speed>9.91</speed><time>2016-06-02T12:42:05Z</time><pdop>5.0</pdop><geoidheight>51.00</geoidheight><course>106.8</course><type>1</type></trkpt>
      <trkpt lat="38.43549247" lon="-2.50593319"><ele>1449</ele><speed>11.14</speed><time>2016-06-02T12:42:06Z</time><pdop>5.0</pdop><geoidheight>51.00</geoidheight><course>111.1</course><type>1</type></trkpt>
      <trkpt lat="38.43545662" lon="-2.50579615"><ele>1446</ele><speed>12.73</speed><time>2016-06-02T12:42:07Z</time><pdop>5.0</pdop><geoidheight>51.00</geoidheight><course>111.3</course><type>1</type></trkpt>
      <trkpt lat="38.43540555" lon="-2.50565531"><ele>1445</ele><speed>13.44</speed><time>2016-06-02T12:42:08Z</time><pdop>6.0</pdop><geoidheight>51.00</geoidheight><course>113.1</course><type>1</type></trkpt>
      <trkpt lat="38.43536368" lon="-2.50548058"><ele>1444</ele><speed>15.07</speed><time>2016-06-02T12:42:09Z</time><pdop>5.0</pdop><geoidheight>51.00</geoidheight><course>109.6</course><type>1</type></trkpt>
      <trkpt lat="38.4353306" lon="-2.50533447"><ele>1444</ele><speed>13.69</speed><time>2016-06-02T12:42:10Z</time><pdop>4.0</pdop><geoidheight>51.00</geoidheight><course>109.4</course><type>1</type></trkpt>
      <trkpt lat="38.43528857" lon="-2.50518204"><ele>1444</ele><speed>13.34</speed><time>2016-06-02T12:42:11Z</time><pdop>5.0</pdop><geoidheight>51.00</geoidheight><course>108.5</course><type>1</type></trkpt>
      <trkpt lat="38.43523026" lon="-2.50503666"><ele>1443</ele><speed>13.38</speed><time>2016-06-02T12:42:12Z</time><pdop>6.0</pdop><geoidheight>51.00</geoidheight><course>111.2</course><type>1</type></trkpt>
      <trkpt lat="38.43515403" lon="-2.5047257"><ele>1440</ele><speed>14.57</speed><time>2016-06-02T12:42:14Z</time><pdop>11.0</pdop><geoidheight>51.00</geoidheight><course>107.2</course><type>1</type></trkpt>
      <trkpt lat="38.43512914" lon="-2.50436045"><ele>1436</ele><speed>15.68</speed><time>2016-06-02T12:42:16Z</time><pdop>10.0</pdop><geoidheight>51.00</geoidheight><course>98.3</course><type>1</type></trkpt>
      <trkpt lat="38.43506331" lon="-2.5038397"><ele>1431</ele><speed>15.52</speed><time>2016-06-02T12:42:19Z</time><pdop>10.0</pdop><geoidheight>51.00</geoidheight><course>99.8</course><type>1</type></trkpt>
      <trkpt lat="38.43505727" lon="-2.50352382"><ele>1428</ele><speed>14.74</speed><time>2016-06-02T12:42:21Z</time><pdop>11.0</pdop><geoidheight>51.00</geoidheight><course>94.1</course><type>1</type></trkpt>
      <trkpt lat="38.43505905" lon="-2.50318921"><ele>1425</ele><speed>14.87</speed><time>2016-06-02T12:42:23Z</time><pdop>11.0</pdop><geoidheight>51.00</geoidheight><course>90.2</course><type>1</type></trkpt>
      <trkpt lat="38.43506893" lon="-2.50290174"><ele>1422</ele><speed>13.59</speed><time>2016-06-02T12:42:25Z</time><pdop>11.0</pdop><geoidheight>51.00</geoidheight><course>89.4</course><type>1</type></trkpt>
      <trkpt lat="38.43514522" lon="-2.50257536"><ele>1417</ele><speed>14.18</speed><time>2016-06-02T12:42:27Z</time><pdop>10.0</pdop><geoidheight>51.00</geoidheight><course>82.2</course><type>1</type></trkpt>
      <trkpt lat="38.43520929" lon="-2.50225699"><ele>1412</ele><speed>14.44</speed><time>2016-06-02T12:42:29Z</time><pdop>11.0</pdop><geoidheight>51.00</geoidheight><course>81.4</course><type>1</type></trkpt>
      <trkpt lat="38.43524363" lon="-2.50193361"><ele>1408</ele><speed>15.14</speed><time>2016-06-02T12:42:31Z</time><pdop>11.0</pdop><geoidheight>51.00</geoidheight><course>82.3</course><type>1</type></trkpt>
      <trkpt lat="38.43528009" lon="-2.50161734"><ele>1401</ele><speed>13.84</speed><time>2016-06-02T12:42:33Z</time><pdop>10.0</pdop><geoidheight>51.00</geoidheight><course>86.5</course><type>1</type></trkpt>
      <trkpt lat="38.43526274" lon="-2.50131441"><ele>1396</ele><speed>12.75</speed><time>2016-06-02T12:42:35Z</time><pdop>10.0</pdop><geoidheight>51.00</geoidheight><course>89.3</course><type>1</type></trkpt>
      <trkpt lat="38.4352692" lon="-2.50099749"><ele>1393</ele><speed>13.66</speed><time>2016-06-02T12:42:37Z</time><pdop>11.0</pdop><geoidheight>51.00</geoidheight><course>88.8</course><type>1</type></trkpt>
      <trkpt lat="38.43527801" lon="-2.50068157"><ele>1390</ele><speed>14.30</speed><time>2016-06-02T12:42:39Z</time><pdop>11.0</pdop><geoidheight>51.00</geoidheight><course>85.7</course><type>1</type></trkpt>
      <trkpt lat="38.43531084" lon="-2.50041901"><ele>1385</ele><speed>12.38</speed><time>2016-06-02T12:42:41Z</time><pdop>11.0</pdop><geoidheight>51.00</geoidheight><course>82.8</course><type>1</type></trkpt>
      <trkpt lat="38.43533912" lon="-2.50010286"><ele>1382</ele><speed>13.63</speed><time>2016-06-02T12:42:43Z</time><pdop>12.0</pdop><geoidheight>51.00</geoidheight><course>82.2</course><type>1</type></trkpt>
      <trkpt lat="38.4353801" lon="-2.49978626"><ele>1376</ele><speed>13.66</speed><time>2016-06-02T12:42:45Z</time><pdop>11.0</pdop><geoidheight>51.00</geoidheight><course>84.9</course><type>1</type></trkpt>
      <trkpt lat="38.43540093" lon="-2.49949201"><ele>1371</ele><speed>13.08</speed><time>2016-06-02T12:42:47Z</time><pdop>11.0</pdop><geoidheight>51.00</geoidheight><course>87.2</course><type>1</type></trkpt>
      <trkpt lat="38.43541344" lon="-2.49916376"><ele>1365</ele><speed>14.95</speed><time>2016-06-02T12:42:49Z</time><pdop>11.0</pdop><geoidheight>51.00</geoidheight><course>91.1</course><type>1</type></trkpt>
      <trkpt lat="38.4353921" lon="-2.49882014"><ele>1362</ele><speed>15.35</speed><time>2016-06-02T12:42:51Z</time><pdop>10.0</pdop><geoidheight>51.00</geoidheight><course>93.8</course><type>1</type></trkpt>
      <trkpt lat="38.43539001" lon="-2.49851647"><ele>1358</ele><speed>13.49</speed><time>2016-06-02T12:42:53Z</time><pdop>10.0</pdop><geoidheight>51.00</geoidheight><course>90.5</course><type>1</type></trkpt>
      <trkpt lat="38.43540381" lon="-2.49819558"><ele>1353</ele><speed>13.69</speed><time>2016-06-02T12:42:55Z</time><pdop>10.0</pdop><geoidheight>51.00</geoidheight><course>90.2</course><type>1</type></trkpt>
      <trkpt lat="38.4354046" lon="-2.49787178"><ele>1350</ele><speed>14.29</speed><time>2016-06-02T12:42:57Z</time><pdop>10.0</pdop><geoidheight>51.00</geoidheight><course>90.1</course><type>1</type></trkpt>
      <trkpt lat="38.43537743" lon="-2.4975638"><ele>1347</ele><speed>12.93</speed><time>2016-06-02T12:42:59Z</time><pdop>10.0</pdop><geoidheight>51.00</geoidheight><course>89.4</course><type>1</type></trkpt>
      <trkpt lat="38.43538655" lon="-2.49728553"><ele>1345</ele><speed>12.21</speed><time>2016-06-02T12:43:01Z</time><pdop>10.0</pdop><geoidheight>51.00</geoidheight><course>91.1</course><type>1</type></trkpt>
      <trkpt lat="38.43537959" lon="-2.49699892"><ele>1342</ele><speed>12.83</speed><time>2016-06-02T12:43:03Z</time><pdop>9.0</pdop><geoidheight>51.00</geoidheight><course>85.5</course><type>1</type></trkpt>
      <trkpt lat="38.4354031" lon="-2.49671663"><ele>1339</ele><speed>12.44</speed><time>2016-06-02T12:43:05Z</time><pdop>10.0</pdop><geoidheight>51.00</geoidheight><course>83.0</course><type>1</type></trkpt>
      <trkpt lat="38.43546066" lon="-2.49644291"><ele>1336</ele><speed>12.74</speed><time>2016-06-02T12:43:07Z</time><pdop>9.0</pdop><geoidheight>51.00</geoidheight><course>77.0</course><type>1</type></trkpt>
      <trkpt lat="38.43552526" lon="-2.49616224"><ele>1336</ele><speed>13.43</speed><time>2016-06-02T12:43:09Z</time><pdop>9.0</pdop><geoidheight>51.00</geoidheight><course>72.8</course><type>1</type></trkpt>
      <trkpt lat="38.43559597" lon="-2.49584474"><ele>1334</ele><speed>14.76</speed><time>2016-06-02T12:43:11Z</time><pdop>9.0</pdop><geoidheight>51.00</geoidheight><course>74.9</course><type>1</type></trkpt>
      <trkpt lat="38.43567729" lon="-2.49549676"><ele>1332</ele><speed>15.52</speed><time>2016-06-02T12:43:13Z</time><pdop>10.0</pdop><geoidheight>51.00</geoidheight><course>75.0</course><type>1</type></trkpt>
      <trkpt lat="38.43574259" lon="-2.49519886"><ele>1332</ele><speed>13.45</speed><time>2016-06-02T12:43:15Z</time><pdop>10.0</pdop><geoidheight>51.00</geoidheight><course>76.5</course><type>1</type></trkpt>
      <trkpt lat="38.43571689" lon="-2.49496113"><ele>1332</ele><speed>10.95</speed><time>2016-06-02T12:43:17Z</time><pdop>10.0</pdop><geoidheight>51.00</geoidheight><course>92.0</course><type>1</type></trkpt>
      <trkpt lat="38.43553256" lon="-2.4946803"><ele>1326</ele><speed>11.53</speed><time>2016-06-02T12:43:20Z</time><pdop>10.0</pdop><geoidheight>51.00</geoidheight><course>135.8</course><type>1</type></trkpt>
      <trkpt lat="38.43537236" lon="-2.49456089"><ele>1325</ele><speed>9.99</speed><time>2016-06-02T12:43:22Z</time><pdop>10.0</pdop><geoidheight>51.00</geoidheight><course>148.5</course><type>1</type></trkpt>
      <trkpt lat="38.43517777" lon="-2.49465756"><ele>1324</ele><speed>4.86</speed><time>2016-06-02T12:43:26Z</time><pdop>10.0</pdop><geoidheight>51.00</geoidheight><course>194.1</course><type>1</type></trkpt>
      <trkpt lat="38.43494379" lon="-2.49479562"><ele>1329</ele><speed>7.12</speed><time>2016-06-02T12:43:31Z</time><pdop>10.0</pdop><geoidheight>51.00</geoidheight><course>197.2</course><type>1</type></trkpt>
      <trkpt lat="38.43485468" lon="-2.49499924"><ele>1332</ele><speed>6.67</speed><time>2016-06-02T12:43:34Z</time><pdop>9.0</pdop><geoidheight>51.00</geoidheight><course>253.1</course><type>1</type></trkpt>
      <trkpt lat="38.43519737" lon="-2.49511255"><ele>1333</ele><speed>12.45</speed><time>2016-06-02T12:43:40Z</time><pdop>7.0</pdop><geoidheight>51.00</geoidheight><course>17.4</course><type>1</type></trkpt>
      <trkpt lat="38.43532113" lon="-2.49503817"><ele>1334</ele><speed>12.23</speed><time>2016-06-02T12:43:41Z</time><pdop>6.0</pdop><geoidheight>51.00</geoidheight><course>24.6</course><type>1</type></trkpt>
      <trkpt lat="38.43546516" lon="-2.49482656"><ele>1338</ele><speed>10.56</speed><time>2016-06-02T12:43:43Z</time><pdop>7.0</pdop><geoidheight>51.00</geoidheight><course>46.0</course><type>1</type></trkpt>
      <trkpt lat="38.43553259" lon="-2.49459019"><ele>1338</ele><speed>9.66</speed><time>2016-06-02T12:43:45Z</time><pdop>10.0</pdop><geoidheight>51.00</geoidheight><course>59.0</course><type>1</type></trkpt>
      <trkpt lat="38.43534333" lon="-2.49428644"><ele>1337</ele><speed>10.64</speed><time>2016-06-02T12:43:47Z</time><pdop>15.0</pdop><geoidheight>51.00</geoidheight><course>101.3</course><type>1</type></trkpt>
      <trkpt lat="38.43506837" lon="-2.49436271"><ele>1341</ele><speed>5.98</speed><time>2016-06-02T12:43:50Z</time><pdop>9.0</pdop><geoidheight>51.00</geoidheight><course>204.0</course><type>1</type></trkpt>
      <trkpt lat="38.43498342" lon="-2.49455749"><ele>1342</ele><speed>7.11</speed><time>2016-06-02T12:43:53Z</time><pdop>8.0</pdop><geoidheight>51.00</geoidheight><course>255.7</course><type>1</type></trkpt>
      <trkpt lat="38.4351103" lon="-2.49474205"><ele>1348</ele><speed>7.47</speed><time>2016-06-02T12:43:56Z</time><pdop>8.0</pdop><geoidheight>51.00</geoidheight><course>322.1</course><type>1</type></trkpt>
      <trkpt lat="38.43527704" lon="-2.49478439"><ele>1350</ele><speed>7.65</speed><time>2016-06-02T12:43:58Z</time><pdop>8.0</pdop><geoidheight>51.00</geoidheight><course>354.7</course><type>1</type></trkpt>
      <trkpt lat="38.43548142" lon="-2.49463125"><ele>1355</ele><speed>12.09</speed><time>2016-06-02T12:44:00Z</time><pdop>6.0</pdop><geoidheight>51.00</geoidheight><course>39.5</course><type>1</type></trkpt>
      <trkpt lat="38.43557829" lon="-2.49452403"><ele>1358</ele><speed>13.34</speed><time>2016-06-02T12:44:01Z</time><pdop>5.0</pdop><geoidheight>51.00</geoidheight><course>45.3</course><type>1</type></trkpt>
      <trkpt lat="38.43567278" lon="-2.49441642"><ele>1359</ele><speed>13.29</speed><time>2016-06-02T12:44:02Z</time><pdop>5.0</pdop><geoidheight>51.00</geoidheight><course>47.2</course><type>1</type></trkpt>
      <trkpt lat="38.43572488" lon="-2.49430245"><ele>1359</ele><speed>12.47</speed><time>2016-06-02T12:44:03Z</time><pdop>6.0</pdop><geoidheight>51.00</geoidheight><course>53.5</course><type>1</type></trkpt>
      <trkpt lat="38.43574562" lon="-2.49416029"><ele>1363</ele><speed>12.01</speed><time>2016-06-02T12:44:04Z</time><pdop>5.0</pdop><geoidheight>51.00</geoidheight><course>74.0</course><type>1</type></trkpt>
      <trkpt lat="38.43575975" lon="-2.49402055"><ele>1364</ele><speed>12.45</speed><time>2016-06-02T12:44:05Z</time><pdop>5.0</pdop><geoidheight>51.00</geoidheight><course>76.6</course><type>1</type></trkpt>
      <trkpt lat="38.43579017" lon="-2.49387021"><ele>1365</ele><speed>13.13</speed><time>2016-06-02T12:44:06Z</time><pdop>5.0</pdop><geoidheight>51.00</geoidheight><course>79.8</course><type>1</type></trkpt>
      <trkpt lat="38.4357741" lon="-2.49372738"><ele>1369</ele><speed>12.56</speed><time>2016-06-02T12:44:07Z</time><pdop>5.0</pdop><geoidheight>51.00</geoidheight><course>91.4</course><type>1</type></trkpt>
      <trkpt lat="38.43577887" lon="-2.49359248"><ele>1369</ele><speed>12.21</speed><time>2016-06-02T12:44:08Z</time><pdop>5.0</pdop><geoidheight>51.00</geoidheight><course>89.1</course><type>1</type></trkpt>
      <trkpt lat="38.43569147" lon="-2.49346716"><ele>1371</ele><speed>11.98</speed><time>2016-06-02T12:44:09Z</time><pdop>5.0</pdop><geoidheight>51.00</geoidheight><course>106.8</course><type>1</type></trkpt>
      <trkpt lat="38.43560899" lon="-2.49338131"><ele>1373</ele><speed>10.50</speed><time>2016-06-02T12:44:10Z</time><pdop>4.0</pdop><geoidheight>51.00</geoidheight><course>122.0</course><type>1</type></trkpt>
      <trkpt lat="38.43553343" lon="-2.49334253"><ele>1375</ele><speed>8.18</speed><time>2016-06-02T12:44:11Z</time><pdop>5.0</pdop><geoidheight>51.00</geoidheight><course>137.3</course><type>1</type></trkpt>
      <trkpt lat="38.43541569" lon="-2.49334704"><ele>1382</ele><speed>4.17</speed><time>2016-06-02T12:44:14Z</time><pdop>5.0</pdop><geoidheight>51.00</geoidheight><course>186.0</course><type>1</type></trkpt>
      <trkpt lat="38.43533453" lon="-2.49341063"><ele>1385</ele><speed>5.50</speed><time>2016-06-02T12:44:16Z</time><pdop>4.0</pdop><geoidheight>51.00</geoidheight><course>221.3</course><type>1</type></trkpt>
      <trkpt lat="38.43532279" lon="-2.49355449"><ele>1386</ele><speed>6.45</speed><time>2016-06-02T12:44:18Z</time><pdop>4.0</pdop><geoidheight>51.00</geoidheight><course>268.1</course><type>1</type></trkpt>
      <trkpt lat="38.43535458" lon="-2.49371137"><ele>1387</ele><speed>7.33</speed><time>2016-06-02T12:44:20Z</time><pdop>5.0</pdop><geoidheight>51.00</geoidheight><course>285.4</course><type>1</type></trkpt>
      <trkpt lat="38.43546728" lon="-2.49385541"><ele>1390</ele><speed>8.19</speed><time>2016-06-02T12:44:22Z</time><pdop>8.0</pdop><geoidheight>51.00</geoidheight><course>308.3</course><type>1</type></trkpt>
      <trkpt lat="38.43574596" lon="-2.49384748"><ele>1399</ele><speed>11.01</speed><time>2016-06-02T12:44:24Z</time><pdop>6.0</pdop><geoidheight>51.00</geoidheight><course>358.7</course><type>1</type></trkpt>
      <trkpt lat="38.43588181" lon="-2.49384039"><ele>1399</ele><speed>11.78</speed><time>2016-06-02T12:44:25Z</time><pdop>6.0</pdop><geoidheight>51.00</geoidheight><course>4.1</course><type>1</type></trkpt>
      <trkpt lat="38.43600586" lon="-2.49378211"><ele>1404</ele><speed>11.77</speed><time>2016-06-02T12:44:26Z</time><pdop>6.0</pdop><geoidheight>51.00</geoidheight><course>17.3</course><type>1</type></trkpt>
      <trkpt lat="38.43611886" lon="-2.49370291"><ele>1404</ele><speed>12.34</speed><time>2016-06-02T12:44:27Z</time><pdop>5.0</pdop><geoidheight>51.00</geoidheight><course>28.2</course><type>1</type></trkpt>
      <trkpt lat="38.43621298" lon="-2.4935985"><ele>1405</ele><speed>12.94</speed><time>2016-06-02T12:44:28Z</time><pdop>5.0</pdop><geoidheight>51.00</geoidheight><course>38.8</course><type>1</type></trkpt>
      <trkpt lat="38.4362887" lon="-2.49348148"><ele>1408</ele><speed>12.77</speed><time>2016-06-02T12:44:29Z</time><pdop>5.0</pdop><geoidheight>51.00</geoidheight><course>48.7</course><type>1</type></trkpt>
      <trkpt lat="38.43627169" lon="-2.4933095"><ele>1408</ele><speed>12.45</speed><time>2016-06-02T12:44:30Z</time><pdop>4.0</pdop><geoidheight>51.00</geoidheight><course>77.0</course><type>1</type></trkpt>
      <trkpt lat="38.43627846" lon="-2.49318199"><ele>1409</ele><speed>12.27</speed><time>2016-06-02T12:44:31Z</time><pdop>4.0</pdop><geoidheight>51.00</geoidheight><course>93.8</course><type>1</type></trkpt>
      <trkpt lat="38.43624908" lon="-2.4930514"><ele>1411</ele><speed>11.47</speed><time>2016-06-02T12:44:32Z</time><pdop>4.0</pdop><geoidheight>51.00</geoidheight><course>109.8</course><type>1</type></trkpt>
      <trkpt lat="38.43621425" lon="-2.49292795"><ele>1411</ele><speed>11.45</speed><time>2016-06-02T12:44:33Z</time><pdop>4.0</pdop><geoidheight>51.00</geoidheight><course>109.7</course><type>1</type></trkpt>
      <trkpt lat="38.43613591" lon="-2.492851"><ele>1415</ele><speed>9.69</speed><time>2016-06-02T12:44:34Z</time><pdop>4.0</pdop><geoidheight>51.00</geoidheight><course>132.5</course><type>1</type></trkpt>
      <trkpt lat="38.43604048" lon="-2.49278362"><ele>1423</ele><speed>6.22</speed><time>2016-06-02T12:44:36Z</time><pdop>5.0</pdop><geoidheight>51.00</geoidheight><course>164.4</course><type>1</type></trkpt>
      <trkpt lat="38.43592036" lon="-2.49280771"><ele>1430</ele><speed>7.25</speed><time>2016-06-02T12:44:38Z</time><pdop>4.0</pdop><geoidheight>51.00</geoidheight><course>203.1</course><type>1</type></trkpt>
      <trkpt lat="38.43582005" lon="-2.49289463"><ele>1440</ele><speed>6.90</speed><time>2016-06-02T12:44:40Z</time><pdop>5.0</pdop><geoidheight>51.00</geoidheight><course>225.4</course><type>1</type></trkpt>
      <trkpt lat="38.43577591" lon="-2.49308368"><ele>1439</ele><speed>6.00</speed><time>2016-06-02T12:44:43Z</time><pdop>12.0</pdop><geoidheight>51.00</geoidheight><course>265.5</course><type>1</type></trkpt>
      <trkpt lat="38.43602106" lon="-2.49307611"><ele>1438</ele><speed>9.04</speed><time>2016-06-02T12:44:46Z</time><pdop>14.0</pdop><geoidheight>51.00</geoidheight><course>31.4</course><type>1</type></trkpt>
      <trkpt lat="38.43618331" lon="-2.49284607"><ele>1439</ele><speed>12.32</speed><time>2016-06-02T12:44:48Z</time><pdop>9.0</pdop><geoidheight>51.00</geoidheight><course>48.7</course><type>1</type></trkpt>
      <trkpt lat="38.43635343" lon="-2.4925618"><ele>1445</ele><speed>14.45</speed><time>2016-06-02T12:44:50Z</time><pdop>7.0</pdop><geoidheight>51.00</geoidheight><course>63.5</course><type>1</type></trkpt>
      <trkpt lat="38.43641055" lon="-2.4924184"><ele>1448</ele><speed>13.82</speed><time>2016-06-02T12:44:51Z</time><pdop>5.0</pdop><geoidheight>51.00</geoidheight><course>67.4</course><type>1</type></trkpt>
      <trkpt lat="38.436466" lon="-2.49228538"><ele>1450</ele><speed>13.22</speed><time>2016-06-02T12:44:52Z</time><pdop>5.0</pdop><geoidheight>51.00</geoidheight><course>68.6</course><type>1</type></trkpt>
      <trkpt lat="38.43651239" lon="-2.49215692"><ele>1452</ele><speed>12.02</speed><time>2016-06-02T12:44:53Z</time><pdop>6.0</pdop><geoidheight>51.00</geoidheight><course>68.4</course><type>1</type></trkpt>
      <trkpt lat="38.43648617" lon="-2.49185273"><ele>1458</ele><speed>13.18</speed><time>2016-06-02T12:44:55Z</time><pdop>5.0</pdop><geoidheight>51.00</geoidheight><course>99.2</course><type>1</type></trkpt>
      <trkpt lat="38.43646303" lon="-2.49170167"><ele>1461</ele><speed>13.57</speed><time>2016-06-02T12:44:56Z</time><pdop>5.0</pdop><geoidheight>51.00</geoidheight><course>103.0</course><type>1</type></trkpt>
      <trkpt lat="38.43642001" lon="-2.49155585"><ele>1462</ele><speed>13.91</speed><time>2016-06-02T12:44:57Z</time><pdop>4.0</pdop><geoidheight>51.00</geoidheight><course>108.4</course><type>1</type></trkpt>
      <trkpt lat="38.43637125" lon="-2.49143212"><ele>1463</ele><speed>13.23</speed><time>2016-06-02T12:44:58Z</time><pdop>4.0</pdop><geoidheight>51.00</geoidheight><course>115.6</course><type>1</type></trkpt>
      <trkpt lat="38.43632471" lon="-2.49131255"><ele>1465</ele><speed>12.34</speed><time>2016-06-02T12:44:59Z</time><pdop>4.0</pdop><geoidheight>51.00</geoidheight><course>119.7</course><type>1</type></trkpt>
      <trkpt lat="38.43625209" lon="-2.4912374"><ele>1467</ele><speed>10.83</speed><time>2016-06-02T12:45:00Z</time><pdop>4.0</pdop><geoidheight>51.00</geoidheight><course>134.5</course><type>1</type></trkpt>
      <trkpt lat="38.43618915" lon="-2.49117602"><ele>1469</ele><speed>9.28</speed><time>2016-06-02T12:45:01Z</time><pdop>4.0</pdop><geoidheight>51.00</geoidheight><course>142.1</course><type>1</type></trkpt>
      <trkpt lat="38.43611237" lon="-2.49114078"><ele>1470</ele><speed>8.16</speed><time>2016-06-02T12:45:02Z</time><pdop>4.0</pdop><geoidheight>51.00</geoidheight><course>155.3</course><type>1</type></trkpt>
      <trkpt lat="38.43603561" lon="-2.49114517"><ele>1469</ele><speed>8.00</speed><time>2016-06-02T12:45:03Z</time><pdop>3.0</pdop><geoidheight>51.00</geoidheight><course>179.6</course><type>1</type></trkpt>
      <trkpt lat="38.43595452" lon="-2.49117672"><ele>1468</ele><speed>9.55</speed><time>2016-06-02T12:45:04Z</time><pdop>3.0</pdop><geoidheight>51.00</geoidheight><course>197.7</course><type>1</type></trkpt>
      <trkpt lat="38.43586481" lon="-2.49122405"><ele>1468</ele><speed>10.56</speed><time>2016-06-02T12:45:05Z</time><pdop>4.0</pdop><geoidheight>51.00</geoidheight><course>203.5</course><type>1</type></trkpt>
      <trkpt lat="38.43579334" lon="-2.49126338"><ele>1470</ele><speed>9.53</speed><time>2016-06-02T12:45:06Z</time><pdop>4.0</pdop><geoidheight>51.00</geoidheight><course>203.8</course><type>1</type></trkpt>
      <trkpt lat="38.4357205" lon="-2.49129298"><ele>1472</ele><speed>8.41</speed><time>2016-06-02T12:45:07Z</time><pdop>4.0</pdop><geoidheight>51.00</geoidheight><course>198.6</course><type>1</type></trkpt>
      <trkpt lat="38.43564704" lon="-2.49131029"><ele>1475</ele><speed>7.50</speed><time>2016-06-02T12:45:08Z</time><pdop>4.0</pdop><geoidheight>51.00</geoidheight><course>194.7</course><type>1</type></trkpt>
      <trkpt lat="38.43553215" lon="-2.49134986"><ele>1480</ele><speed>6.94</speed><time>2016-06-02T12:45:10Z</time><pdop>4.0</pdop><geoidheight>51.00</geoidheight><course>199.4</course><type>1</type></trkpt>
      <trkpt lat="38.43542245" lon="-2.49143425"><ele>1481</ele><speed>7.19</speed><time>2016-06-02T12:45:12Z</time><pdop>4.0</pdop><geoidheight>51.00</geoidheight><course>219.5</course><type>1</type></trkpt>
      <trkpt lat="38.43534583" lon="-2.49155198"><ele>1485</ele><speed>6.76</speed><time>2016-06-02T12:45:14Z</time><pdop>4.0</pdop><geoidheight>51.00</geoidheight><course>235.8</course><type>1</type></trkpt>
      <trkpt lat="38.43525328" lon="-2.4917136"><ele>1487</ele><speed>8.70</speed><time>2016-06-02T12:45:16Z</time><pdop>4.0</pdop><geoidheight>51.00</geoidheight><course>238.0</course><type>1</type></trkpt>
      <trkpt lat="38.43521317" lon="-2.49180369"><ele>1487</ele><speed>8.67</speed><time>2016-06-02T12:45:17Z</time><pdop>5.0</pdop><geoidheight>51.00</geoidheight><course>238.2</course><type>1</type></trkpt>
      <trkpt lat="38.43521599" lon="-2.49197576"><ele>1488</ele><speed>7.53</speed><time>2016-06-02T12:45:19Z</time><pdop>5.0</pdop><geoidheight>51.00</geoidheight><course>263.5</course><type>1</type></trkpt>
      <trkpt lat="38.43523325" lon="-2.4921599"><ele>1491</ele><speed>7.60</speed><time>2016-06-02T12:45:21Z</time><pdop>9.0</pdop><geoidheight>51.00</geoidheight><course>273.1</course><type>1</type></trkpt>
      <trkpt lat="38.43557875" lon="-2.49202216"><ele>1494</ele><speed>7.15</speed><time>2016-06-02T12:45:25Z</time><pdop>12.0</pdop><geoidheight>51.00</geoidheight><course>28.0</course><type>1</type></trkpt>
      <trkpt lat="38.43571438" lon="-2.49174407"><ele>1499</ele><speed>13.82</speed><time>2016-06-02T12:45:26Z</time><pdop>7.0</pdop><geoidheight>51.00</geoidheight><course>60.8</course><type>1</type></trkpt>
      <trkpt lat="38.43576812" lon="-2.49158394"><ele>1504</ele><speed>13.33</speed><time>2016-06-02T12:45:27Z</time><pdop>6.0</pdop><geoidheight>51.00</geoidheight><course>73.7</course><type>1</type></trkpt>
      <trkpt lat="38.43579985" lon="-2.491444"><ele>1506</ele><speed>12.72</speed><time>2016-06-02T12:45:28Z</time><pdop>5.0</pdop><geoidheight>51.00</geoidheight><course>77.5</course><type>1</type></trkpt>
      <trkpt lat="38.43580799" lon="-2.49128682"><ele>1509</ele><speed>12.59</speed><time>2016-06-02T12:45:29Z</time><pdop>5.0</pdop><geoidheight>51.00</geoidheight><course>87.3</course><type>1</type></trkpt>
      <trkpt lat="38.43578345" lon="-2.4911245"><ele>1513</ele><speed>13.44</speed><time>2016-06-02T12:45:30Z</time><pdop>6.0</pdop><geoidheight>51.00</geoidheight><course>94.4</course><type>1</type></trkpt>
      <trkpt lat="38.43575045" lon="-2.49098508"><ele>1513</ele><speed>13.37</speed><time>2016-06-02T12:45:31Z</time><pdop>5.0</pdop><geoidheight>51.00</geoidheight><course>100.4</course><type>1</type></trkpt>
      <trkpt lat="38.43572312" lon="-2.49083377"><ele>1516</ele><speed>13.29</speed><time>2016-06-02T12:45:32Z</time><pdop>4.0</pdop><geoidheight>51.00</geoidheight><course>101.2</course><type>1</type></trkpt>
      <trkpt lat="38.43566764" lon="-2.49071625"><ele>1520</ele><speed>12.11</speed><time>2016-06-02T12:45:33Z</time><pdop>4.0</pdop><geoidheight>51.00</geoidheight><course>110.9</course><type>1</type></trkpt>
      <trkpt lat="38.43561297" lon="-2.49059733"><ele>1523</ele><speed>11.62</speed><time>2016-06-02T12:45:34Z</time><pdop>4.0</pdop><geoidheight>51.00</geoidheight><course>116.4</course><type>1</type></trkpt>
      <trkpt lat="38.43552294" lon="-2.49057836"><ele>1525</ele><speed>9.15</speed><time>2016-06-02T12:45:35Z</time><pdop>4.0</pdop><geoidheight>51.00</geoidheight><course>149.9</course><type>1</type></trkpt>
      <trkpt lat="38.435438" lon="-2.49054778"><ele>1527</ele><speed>8.86</speed><time>2016-06-02T12:45:36Z</time><pdop>4.0</pdop><geoidheight>51.00</geoidheight><course>162.6</course><type>1</type></trkpt>
      <trkpt lat="38.4353697" lon="-2.49057928"><ele>1528</ele><speed>8.58</speed><time>2016-06-02T12:45:37Z</time><pdop>3.0</pdop><geoidheight>51.00</geoidheight><course>189.0</course><type>1</type></trkpt>
      <trkpt lat="38.43530732" lon="-2.49061266"><ele>1531</ele><speed>7.62</speed><time>2016-06-02T12:45:38Z</time><pdop>3.0</pdop><geoidheight>51.00</geoidheight><course>198.8</course><type>1</type></trkpt>
      <trkpt lat="38.43526397" lon="-2.49065377"><ele>1531</ele><speed>6.41</speed><time>2016-06-02T12:45:39Z</time><pdop>3.0</pdop><geoidheight>51.00</geoidheight><course>211.9</course><type>1</type></trkpt>
      <trkpt lat="38.43522302" lon="-2.4907836"><ele>1532</ele><speed>6.22</speed><time>2016-06-02T12:45:41Z</time><pdop>3.0</pdop><geoidheight>51.00</geoidheight><course>256.2</course><type>1</type></trkpt>
      <trkpt lat="38.43522294" lon="-2.49093191"><ele>1532</ele><speed>6.36</speed><time>2016-06-02T12:45:43Z</time><pdop>4.0</pdop><geoidheight>51.00</geoidheight><course>273.8</course><type>1</type></trkpt>
      <trkpt lat="38.43527789" lon="-2.4910375"><ele>1533</ele><speed>8.79</speed><time>2016-06-02T12:45:44Z</time><pdop>3.0</pdop><geoidheight>51.00</geoidheight><course>296.2</course><type>1</type></trkpt>
      <trkpt lat="38.43532975" lon="-2.49112186"><ele>1532</ele><speed>9.50</speed><time>2016-06-02T12:45:45Z</time><pdop>3.0</pdop><geoidheight>51.00</geoidheight><course>300.6</course><type>1</type></trkpt>
      <trkpt lat="38.43537375" lon="-2.49122218"><ele>1533</ele><speed>9.22</speed><time>2016-06-02T12:45:46Z</time><pdop>4.0</pdop><geoidheight>51.00</geoidheight><course>302.0</course><type>1</type></trkpt>
      <trkpt lat="38.43546784" lon="-2.49126227"><ele>1534</ele><speed>5.63</speed><time>2016-06-02T12:45:48Z</time><pdop>7.0</pdop><geoidheight>51.00</geoidheight><course>336.7</course><type>1</type></trkpt>
      <trkpt lat="38.43553667" lon="-2.49096568"><ele>1542</ele><speed>14.91</speed><time>2016-06-02T12:45:50Z</time><pdop>6.0</pdop><geoidheight>51.00</geoidheight><course>84.4</course><type>1</type></trkpt>
      <trkpt lat="38.43554972" lon="-2.49079708"><ele>1543</ele><speed>14.82</speed><time>2016-06-02T12:45:51Z</time><pdop>7.0</pdop><geoidheight>51.00</geoidheight><course>84.4</course><type>1</type></trkpt>
      <trkpt lat="38.43547746" lon="-2.49054159"><ele>1545</ele><speed>11.78</speed><time>2016-06-02T12:45:53Z</time><pdop>6.0</pdop><geoidheight>51.00</geoidheight><course>109.8</course><type>1</type></trkpt>
      <trkpt lat="38.43537496" lon="-2.49052025"><ele>1552</ele><speed>9.44</speed><time>2016-06-02T12:45:54Z</time><pdop>5.0</pdop><geoidheight>51.00</geoidheight><course>156.1</course><type>1</type></trkpt>
      <trkpt lat="38.4352219" lon="-2.49046004"><ele>1559</ele><speed>10.48</speed><time>2016-06-02T12:45:56Z</time><pdop>6.0</pdop><geoidheight>51.00</geoidheight><course>172.0</course><type>1</type></trkpt>
      <trkpt lat="38.4350857" lon="-2.49051441"><ele>1561</ele><speed>8.90</speed><time>2016-06-02T12:45:58Z</time><pdop>5.0</pdop><geoidheight>51.00</geoidheight><course>204.5</course><type>1</type></trkpt>
      <trkpt lat="38.43494478" lon="-2.49061521"><ele>1562</ele><speed>8.79</speed><time>2016-06-02T12:46:00Z</time><pdop>10.0</pdop><geoidheight>51.00</geoidheight><course>208.9</course><type>1</type></trkpt>
      <trkpt lat="38.43501791" lon="-2.49086218"><ele>1560</ele><speed>7.02</speed><time>2016-06-02T12:46:03Z</time><pdop>10.0</pdop><geoidheight>51.00</geoidheight><course>274.0</course><type>1</type></trkpt>
      <trkpt lat="38.43524346" lon="-2.49080191"><ele>1558</ele><speed>7.03</speed><time>2016-06-02T12:46:08Z</time><pdop>12.0</pdop><geoidheight>51.00</geoidheight><course>49.5</course><type>1</type></trkpt>
      <trkpt lat="38.43546338" lon="-2.4905213"><ele>1556</ele><speed>12.04</speed><time>2016-06-02T12:46:10Z</time><pdop>8.0</pdop><geoidheight>51.00</geoidheight><course>51.9</course><type>1</type></trkpt>
      <trkpt lat="38.43551857" lon="-2.49033304"><ele>1555</ele><speed>14.20</speed><time>2016-06-02T12:46:11Z</time><pdop>7.0</pdop><geoidheight>51.00</geoidheight><course>62.8</course><type>1</type></trkpt>
      <trkpt lat="38.43553549" lon="-2.49016113"><ele>1556</ele><speed>13.93</speed><time>2016-06-02T12:46:12Z</time><pdop>7.0</pdop><geoidheight>51.00</geoidheight><course>70.4</course><type>1</type></trkpt>
      <trkpt lat="38.43548986" lon="-2.48999576"><ele>1555</ele><speed>13.69</speed><time>2016-06-02T12:46:13Z</time><pdop>6.0</pdop><geoidheight>51.00</geoidheight><course>87.7</course><type>1</type></trkpt>
      <trkpt lat="38.43549734" lon="-2.48985342"><ele>1558</ele><speed>12.71</speed><time>2016-06-02T12:46:14Z</time><pdop>5.0</pdop><geoidheight>51.00</geoidheight><course>89.2</course><type>1</type></trkpt>
      <trkpt lat="38.43548219" lon="-2.48972346"><ele>1561</ele><speed>11.34</speed><time>2016-06-02T12:46:15Z</time><pdop>5.0</pdop><geoidheight>51.00</geoidheight><course>89.9</course><type>1</type></trkpt>
      <trkpt lat="38.43547023" lon="-2.48959998"><ele>1563</ele><speed>9.92</speed><time>2016-06-02T12:46:16Z</time><pdop>5.0</pdop><geoidheight>51.00</geoidheight><course>92.1</course><type>1</type></trkpt>
      <trkpt lat="38.43547646" lon="-2.48936477"><ele>1567</ele><speed>10.57</speed><time>2016-06-02T12:46:18Z</time><pdop>5.0</pdop><geoidheight>51.00</geoidheight><course>86.9</course><type>1</type></trkpt>
      <trkpt lat="38.43546852" lon="-2.48924315"><ele>1569</ele><speed>10.48</speed><time>2016-06-02T12:46:19Z</time><pdop>5.0</pdop><geoidheight>51.00</geoidheight><course>90.4</course><type>1</type></trkpt>
      <trkpt lat="38.43544224" lon="-2.48913537"><ele>1569</ele><speed>9.48</speed><time>2016-06-02T12:46:20Z</time><pdop>4.0</pdop><geoidheight>51.00</geoidheight><course>101.3</course><type>1</type></trkpt>
      <trkpt lat="38.43539658" lon="-2.48896933"><ele>1571</ele><speed>8.30</speed><time>2016-06-02T12:46:22Z</time><pdop>7.0</pdop><geoidheight>51.00</geoidheight><course>108.8</course><type>1</type></trkpt>
      <trkpt lat="38.43525021" lon="-2.48897988"><ele>1570</ele><speed>6.60</speed><time>2016-06-02T12:46:24Z</time><pdop>7.0</pdop><geoidheight>51.00</geoidheight><course>162.3</course><type>1</type></trkpt>
      <trkpt lat="38.43512733" lon="-2.48902299"><ele>1571</ele><speed>7.48</speed><time>2016-06-02T12:46:25Z</time><pdop>4.0</pdop><geoidheight>51.00</geoidheight><course>191.6</course><type>1</type></trkpt>
      <trkpt lat="38.43505524" lon="-2.48905072"><ele>1571</ele><speed>7.57</speed><time>2016-06-02T12:46:26Z</time><pdop>4.0</pdop><geoidheight>51.00</geoidheight><course>193.3</course><type>1</type></trkpt>
      <trkpt lat="38.43498166" lon="-2.48914294"><ele>1571</ele><speed>6.57</speed><time>2016-06-02T12:46:28Z</time><pdop>6.0</pdop><geoidheight>51.00</geoidheight><course>212.1</course><type>1</type></trkpt>
      <trkpt lat="38.43509186" lon="-2.48934012"><ele>1570</ele><speed>6.56</speed><time>2016-06-02T12:46:30Z</time><pdop>6.0</pdop><geoidheight>51.00</geoidheight><course>284.7</course><type>1</type></trkpt>
      <trkpt lat="38.43520412" lon="-2.48958283"><ele>1571</ele><speed>9.96</speed><time>2016-06-02T12:46:32Z</time><pdop>8.0</pdop><geoidheight>51.00</geoidheight><course>303.3</course><type>1</type></trkpt>
      <trkpt lat="38.43534716" lon="-2.48973341"><ele>1571</ele><speed>9.60</speed><time>2016-06-02T12:46:34Z</time><pdop>9.0</pdop><geoidheight>51.00</geoidheight><course>311.5</course><type>1</type></trkpt>
      <trkpt lat="38.4355218" lon="-2.48968635"><ele>1573</ele><speed>8.03</speed><time>2016-06-02T12:46:36Z</time><pdop>10.0</pdop><geoidheight>51.00</geoidheight><course>349.5</course><type>1</type></trkpt>
      <trkpt lat="38.43572477" lon="-2.4896538"><ele>1573</ele><speed>9.47</speed><time>2016-06-02T12:46:38Z</time><pdop>7.0</pdop><geoidheight>51.00</geoidheight><course>354.3</course><type>1</type></trkpt>
      <trkpt lat="38.43586567" lon="-2.48973322"><ele>1577</ele><speed>7.24</speed><time>2016-06-02T12:46:40Z</time><pdop>6.0</pdop><geoidheight>51.00</geoidheight><course>327.6</course><type>1</type></trkpt>
      <trkpt lat="38.43588558" lon="-2.48994788"><ele>1580</ele><speed>5.88</speed><time>2016-06-02T12:46:43Z</time><pdop>9.0</pdop><geoidheight>51.00</geoidheight><course>280.5</course><type>1</type></trkpt>
      <trkpt lat="38.43558297" lon="-2.48995242"><ele>1578</ele><speed>8.71</speed><time>2016-06-02T12:46:46Z</time><pdop>8.0</pdop><geoidheight>51.00</geoidheight><course>173.8</course><type>1</type></trkpt>
      <trkpt lat="38.43544056" lon="-2.48989157"><ele>1577</ele><speed>10.14</speed><time>2016-06-02T12:46:47Z</time><pdop>8.0</pdop><geoidheight>51.00</geoidheight><course>166.3</course><type>1</type></trkpt>
      <trkpt lat="38.43519205" lon="-2.48973397"><ele>1577</ele><speed>13.47</speed><time>2016-06-02T12:46:49Z</time><pdop>9.0</pdop><geoidheight>51.00</geoidheight><course>157.3</course><type>1</type></trkpt>
      <trkpt lat="38.43508737" lon="-2.48954589"><ele>1577</ele><speed>13.83</speed><time>2016-06-02T12:46:50Z</time><pdop>9.0</pdop><geoidheight>51.00</geoidheight><course>143.6</course><type>1</type></trkpt>
      <trkpt lat="38.43505274" lon="-2.48928533"><ele>1574</ele><speed>10.98</speed><time>2016-06-02T12:46:52Z</time><pdop>11.0</pdop><geoidheight>51.00</geoidheight><course>124.2</course><type>1</type></trkpt>
      <trkpt lat="38.43516121" lon="-2.4890384"><ele>1575</ele><speed>9.90</speed><time>2016-06-02T12:46:54Z</time><pdop>12.0</pdop><geoidheight>51.00</geoidheight><course>90.8</course><type>1</type></trkpt>
      <trkpt lat="38.43528176" lon="-2.48868739"><ele>1575</ele><speed>15.27</speed><time>2016-06-02T12:46:56Z</time><pdop>9.0</pdop><geoidheight>51.00</geoidheight><course>81.4</course><type>1</type></trkpt>
      <trkpt lat="38.43536952" lon="-2.48835492"><ele>1574</ele><speed>14.50</speed><time>2016-06-02T12:46:58Z</time><pdop>7.0</pdop><geoidheight>51.00</geoidheight><course>84.5</course><type>1</type></trkpt>
      <trkpt lat="38.43537277" lon="-2.48801179"><ele>1575</ele><speed>14.21</speed><time>2016-06-02T12:47:00Z</time><pdop>8.0</pdop><geoidheight>51.00</geoidheight><course>93.6</course><type>1</type></trkpt>
      <trkpt lat="38.43528351" lon="-2.48778409"><ele>1573</ele><speed>12.47</speed><time>2016-06-02T12:47:02Z</time><pdop>11.0</pdop><geoidheight>51.00</geoidheight><course>108.4</course><type>1</type></trkpt>
      <trkpt lat="38.43516114" lon="-2.4875274"><ele>1574</ele><speed>12.72</speed><time>2016-06-02T12:47:04Z</time><pdop>10.0</pdop><geoidheight>51.00</geoidheight><course>111.4</course><type>1</type></trkpt>
      <trkpt lat="38.43511342" lon="-2.48725233"><ele>1576</ele><speed>12.01</speed><time>2016-06-02T12:47:06Z</time><pdop>9.0</pdop><geoidheight>51.00</geoidheight><course>96.9</course><type>1</type></trkpt>
      <trkpt lat="38.43510603" lon="-2.48694967"><ele>1578</ele><speed>12.47</speed><time>2016-06-02T12:47:08Z</time><pdop>9.0</pdop><geoidheight>51.00</geoidheight><course>95.0</course><type>1</type></trkpt>
      <trkpt lat="38.43505808" lon="-2.48666146"><ele>1579</ele><speed>13.34</speed><time>2016-06-02T12:47:10Z</time><pdop>11.0</pdop><geoidheight>51.00</geoidheight><course>100.3</course><type>1</type></trkpt>
      <trkpt lat="38.43493433" lon="-2.48647035"><ele>1578</ele><speed>10.95</speed><time>2016-06-02T12:47:12Z</time><pdop>10.0</pdop><geoidheight>51.00</geoidheight><course>123.4</course><type>1</type></trkpt>
      <trkpt lat="38.43469797" lon="-2.48642405"><ele>1583</ele><speed>8.02</speed><time>2016-06-02T12:47:15Z</time><pdop>9.0</pdop><geoidheight>51.00</geoidheight><course>186.5</course><type>1</type></trkpt>
      <trkpt lat="38.43460692" lon="-2.48661073"><ele>1587</ele><speed>6.19</speed><time>2016-06-02T12:47:18Z</time><pdop>9.0</pdop><geoidheight>51.00</geoidheight><course>265.3</course><type>1</type></trkpt>
      <trkpt lat="38.43479841" lon="-2.48676336"><ele>1588</ele><speed>5.83</speed><time>2016-06-02T12:47:23Z</time><pdop>13.0</pdop><geoidheight>51.00</geoidheight><course>355.7</course><type>1</type></trkpt>
      <trkpt lat="38.43505924" lon="-2.48657825"><ele>1589</ele><speed>10.40</speed><time>2016-06-02T12:47:25Z</time><pdop>14.0</pdop><geoidheight>51.00</geoidheight><course>28.9</course><type>1</type></trkpt>
      <trkpt lat="38.43531131" lon="-2.48629576"><ele>1590</ele><speed>13.75</speed><time>2016-06-02T12:47:27Z</time><pdop>11.0</pdop><geoidheight>51.00</geoidheight><course>45.0</course><type>1</type></trkpt>
      <trkpt lat="38.43535291" lon="-2.48598439"><ele>1593</ele><speed>12.62</speed><time>2016-06-02T12:47:29Z</time><pdop>10.0</pdop><geoidheight>51.00</geoidheight><course>74.2</course><type>1</type></trkpt>
      <trkpt lat="38.43537561" lon="-2.48567614"><ele>1593</ele><speed>13.61</speed><time>2016-06-02T12:47:31Z</time><pdop>9.0</pdop><geoidheight>51.00</geoidheight><course>86.5</course><type>1</type></trkpt>
      <trkpt lat="38.43533228" lon="-2.4853419"><ele>1597</ele><speed>14.24</speed><time>2016-06-02T12:47:33Z</time><pdop>9.0</pdop><geoidheight>51.00</geoidheight><course>104.9</course><type>1</type></trkpt>
      <trkpt lat="38.43523083" lon="-2.48505114"><ele>1599</ele><speed>13.40</speed><time>2016-06-02T12:47:35Z</time><pdop>9.0</pdop><geoidheight>51.00</geoidheight><course>115.2</course><type>1</type></trkpt>
      <trkpt lat="38.43509352" lon="-2.48489174"><ele>1601</ele><speed>10.30</speed><time>2016-06-02T12:47:37Z</time><pdop>11.0</pdop><geoidheight>51.00</geoidheight><course>129.2</course><type>1</type></trkpt>
      <trkpt lat="38.43481608" lon="-2.48492208"><ele>1604</ele><speed>9.08</speed><time>2016-06-02T12:47:40Z</time><pdop>11.0</pdop><geoidheight>51.00</geoidheight><course>182.1</course><type>1</type></trkpt>
      <trkpt lat="38.43461676" lon="-2.48512626"><ele>1605</ele><speed>10.99</speed><time>2016-06-02T12:47:42Z</time><pdop>11.0</pdop><geoidheight>51.00</geoidheight><course>207.4</course><type>1</type></trkpt>
      <trkpt lat="38.43469045" lon="-2.48530456"><ele>1605</ele><speed>5.21</speed><time>2016-06-02T12:47:44Z</time><pdop>6.0</pdop><geoidheight>51.00</geoidheight><course>267.0</course><type>1</type></trkpt>
      <trkpt lat="38.43470813" lon="-2.48545722"><ele>1602</ele><speed>7.10</speed><time>2016-06-02T12:47:46Z</time><pdop>5.0</pdop><geoidheight>51.00</geoidheight><course>288.7</course><type>1</type></trkpt>
      <trkpt lat="38.43476935" lon="-2.48562389"><ele>1600</ele><speed>8.04</speed><time>2016-06-02T12:47:48Z</time><pdop>7.0</pdop><geoidheight>51.00</geoidheight><course>293.9</course><type>1</type></trkpt>
      <trkpt lat="38.43491434" lon="-2.48577101"><ele>1600</ele><speed>8.59</speed><time>2016-06-02T12:47:50Z</time><pdop>7.0</pdop><geoidheight>51.00</geoidheight><course>315.9</course><type>1</type></trkpt>
      <trkpt lat="38.43505915" lon="-2.48586843"><ele>1599</ele><speed>8.34</speed><time>2016-06-02T12:47:52Z</time><pdop>9.0</pdop><geoidheight>51.00</geoidheight><course>324.3</course><type>1</type></trkpt>
      <trkpt lat="38.4352913" lon="-2.48594074"><ele>1598</ele><speed>8.53</speed><time>2016-06-02T12:47:55Z</time><pdop>8.0</pdop><geoidheight>51.00</geoidheight><course>347.0</course><type>1</type></trkpt>
      <trkpt lat="38.43541193" lon="-2.48592407"><ele>1605</ele><speed>9.78</speed><time>2016-06-02T12:47:56Z</time><pdop>5.0</pdop><geoidheight>51.00</geoidheight><course>5.1</course><type>1</type></trkpt>
      <trkpt lat="38.43556651" lon="-2.48589441"><ele>1613</ele><speed>8.61</speed><time>2016-06-02T12:47:58Z</time><pdop>4.0</pdop><geoidheight>51.00</geoidheight><course>14.5</course><type>1</type></trkpt>
      <trkpt lat="38.43572364" lon="-2.48586893"><ele>1615</ele><speed>8.61</speed><time>2016-06-02T12:48:00Z</time><pdop>6.0</pdop><geoidheight>51.00</geoidheight><course>0.7</course><type>1</type></trkpt>
      <trkpt lat="38.43587492" lon="-2.48589593"><ele>1615</ele><speed>8.52</speed><time>2016-06-02T12:48:02Z</time><pdop>8.0</pdop><geoidheight>51.00</geoidheight><course>351.4</course><type>1</type></trkpt>
      <trkpt lat="38.43593646" lon="-2.4861076"><ele>1616</ele><speed>7.34</speed><time>2016-06-02T12:48:04Z</time><pdop>8.0</pdop><geoidheight>51.00</geoidheight><course>296.8</course><type>1</type></trkpt>
      <trkpt lat="38.43588034" lon="-2.48629273"><ele>1621</ele><speed>6.19</speed><time>2016-06-02T12:48:06Z</time><pdop>7.0</pdop><geoidheight>51.00</geoidheight><course>252.8</course><type>1</type></trkpt>
      <trkpt lat="38.43568966" lon="-2.48629054"><ele>1618</ele><speed>7.11</speed><time>2016-06-02T12:48:08Z</time><pdop>7.0</pdop><geoidheight>51.00</geoidheight><course>193.3</course><type>1</type></trkpt>
      <trkpt lat="38.435572" lon="-2.48602029"><ele>1619</ele><speed>11.38</speed><time>2016-06-02T12:48:10Z</time><pdop>6.0</pdop><geoidheight>51.00</geoidheight><course>116.3</course><type>1</type></trkpt>
      <trkpt lat="38.43552696" lon="-2.48574251"><ele>1620</ele><speed>11.15</speed><time>2016-06-02T12:48:12Z</time><pdop>6.0</pdop><geoidheight>51.00</geoidheight><course>102.8</course><type>1</type></trkpt>
      <trkpt lat="38.43549367" lon="-2.48559885"><ele>1621</ele><speed>11.60</speed><time>2016-06-02T12:48:13Z</time><pdop>7.0</pdop><geoidheight>51.00</geoidheight><course>103.1</course><type>1</type></trkpt>
      <trkpt lat="38.4354926" lon="-2.48543009"><ele>1622</ele><speed>12.51</speed><time>2016-06-02T12:48:14Z</time><pdop>7.0</pdop><geoidheight>51.00</geoidheight><course>95.9</course><type>1</type></trkpt>
      <trkpt lat="38.43548853" lon="-2.48512132"><ele>1625</ele><speed>12.62</speed><time>2016-06-02T12:48:16Z</time><pdop>10.0</pdop><geoidheight>51.00</geoidheight><course>92.6</course><type>1</type></trkpt>
      <trkpt lat="38.43555278" lon="-2.48484852"><ele>1624</ele><speed>11.91</speed><time>2016-06-02T12:48:18Z</time><pdop>12.0</pdop><geoidheight>51.00</geoidheight><course>84.0</course><type>1</type></trkpt>
      <trkpt lat="38.43556005" lon="-2.48459428"><ele>1631</ele><speed>11.83</speed><time>2016-06-02T12:48:20Z</time><pdop>6.0</pdop><geoidheight>51.00</geoidheight><course>85.0</course><type>1</type></trkpt>
      <trkpt lat="38.43557897" lon="-2.48444829"><ele>1632</ele><speed>12.48</speed><time>2016-06-02T12:48:21Z</time><pdop>6.0</pdop><geoidheight>51.00</geoidheight><course>85.9</course><type>1</type></trkpt>
      <trkpt lat="38.43559891" lon="-2.4843039"><ele>1635</ele><speed>12.92</speed><time>2016-06-02T12:48:22Z</time><pdop>5.0</pdop><geoidheight>51.00</geoidheight><course>83.1</course><type>1</type></trkpt>
      <trkpt lat="38.43561237" lon="-2.48415414"><ele>1636</ele><speed>12.84</speed><time>2016-06-02T12:48:23Z</time><pdop>5.0</pdop><geoidheight>51.00</geoidheight><course>82.2</course><type>1</type></trkpt>
      <trkpt lat="38.43563712" lon="-2.48389708"><ele>1639</ele><speed>11.24</speed><time>2016-06-02T12:48:25Z</time><pdop>8.0</pdop><geoidheight>51.00</geoidheight><course>79.6</course><type>1</type></trkpt>
      <trkpt lat="38.4358353" lon="-2.48382567"><ele>1641</ele><speed>8.97</speed><time>2016-06-02T12:48:27Z</time><pdop>9.0</pdop><geoidheight>51.00</geoidheight><course>36.2</course><type>1</type></trkpt>
      <trkpt lat="38.43601149" lon="-2.48376634"><ele>1642</ele><speed>9.13</speed><time>2016-06-02T12:48:29Z</time><pdop>9.0</pdop><geoidheight>51.00</geoidheight><course>20.1</course><type>1</type></trkpt>
      <trkpt lat="38.43602985" lon="-2.48403903"><ele>1643</ele><speed>5.12</speed><time>2016-06-02T12:48:32Z</time><pdop>9.0</pdop><geoidheight>51.00</geoidheight><course>297.4</course><type>1</type></trkpt>
      <trkpt lat="38.43586676" lon="-2.48418197"><ele>1645</ele><speed>4.46</speed><time>2016-06-02T12:48:34Z</time><pdop>8.0</pdop><geoidheight>51.00</geoidheight><course>224.6</course><type>1</type></trkpt>
      <trkpt lat="38.43568695" lon="-2.48408411"><ele>1648</ele><speed>7.44</speed><time>2016-06-02T12:48:36Z</time><pdop>8.0</pdop><geoidheight>51.00</geoidheight><course>164.1</course><type>1</type></trkpt>
      <trkpt lat="38.4356039" lon="-2.48375494"><ele>1652</ele><speed>11.11</speed><time>2016-06-02T12:48:38Z</time><pdop>9.0</pdop><geoidheight>51.00</geoidheight><course>112.0</course><type>1</type></trkpt>
      <trkpt lat="38.43569216" lon="-2.48340059"><ele>1656</ele><speed>14.35</speed><time>2016-06-02T12:48:40Z</time><pdop>8.0</pdop><geoidheight>51.00</geoidheight><course>78.3</course><type>1</type></trkpt>
      <trkpt lat="38.43571795" lon="-2.48321344"><ele>1658</ele><speed>14.23</speed><time>2016-06-02T12:48:41Z</time><pdop>8.0</pdop><geoidheight>51.00</geoidheight><course>78.4</course><type>1</type></trkpt>
      <trkpt lat="38.43576088" lon="-2.48290863"><ele>1662</ele><speed>12.46</speed><time>2016-06-02T12:48:43Z</time><pdop>8.0</pdop><geoidheight>51.00</geoidheight><course>76.4</course><type>1</type></trkpt>
      <trkpt lat="38.43588994" lon="-2.48269841"><ele>1664</ele><speed>11.48</speed><time>2016-06-02T12:48:45Z</time><pdop>9.0</pdop><geoidheight>51.00</geoidheight><course>61.0</course><type>1</type></trkpt>
      <trkpt lat="38.43607431" lon="-2.48289172"><ele>1665</ele><speed>7.72</speed><time>2016-06-02T12:48:47Z</time><pdop>10.0</pdop><geoidheight>51.00</geoidheight><course>352.6</course><type>1</type></trkpt>
      <trkpt lat="38.4360071" lon="-2.48320533"><ele>1669</ele><speed>6.73</speed><time>2016-06-02T12:48:50Z</time><pdop>10.0</pdop><geoidheight>51.00</geoidheight><course>254.9</course><type>1</type></trkpt>
      <trkpt lat="38.43580517" lon="-2.48340174"><ele>1679</ele><speed>6.04</speed><time>2016-06-02T12:48:54Z</time><pdop>12.0</pdop><geoidheight>51.00</geoidheight><course>218.7</course><type>1</type></trkpt>
      <trkpt lat="38.43560704" lon="-2.483242"><ele>1682</ele><speed>7.84</speed><time>2016-06-02T12:48:56Z</time><pdop>10.0</pdop><geoidheight>51.00</geoidheight><course>159.3</course><type>1</type></trkpt>
      <trkpt lat="38.43551236" lon="-2.48290312"><ele>1687</ele><speed>11.59</speed><time>2016-06-02T12:48:58Z</time><pdop>11.0</pdop><geoidheight>51.00</geoidheight><course>114.7</course><type>1</type></trkpt>
      <trkpt lat="38.43554096" lon="-2.48254103"><ele>1689</ele><speed>14.05</speed><time>2016-06-02T12:49:00Z</time><pdop>14.0</pdop><geoidheight>51.00</geoidheight><course>91.6</course><type>1</type></trkpt>
      <trkpt lat="38.43558143" lon="-2.48222388"><ele>1693</ele><speed>13.28</speed><time>2016-06-02T12:49:02Z</time><pdop>14.0</pdop><geoidheight>51.00</geoidheight><course>80.9</course><type>1</type></trkpt>
      <trkpt lat="38.43571719" lon="-2.48194675"><ele>1699</ele><speed>11.52</speed><time>2016-06-02T12:49:04Z</time><pdop>12.0</pdop><geoidheight>51.00</geoidheight><course>66.9</course><type>1</type></trkpt>
      <trkpt lat="38.43589015" lon="-2.48175332"><ele>1701</ele><speed>10.99</speed><time>2016-06-02T12:49:06Z</time><pdop>13.0</pdop><geoidheight>51.00</geoidheight><course>54.8</course><type>1</type></trkpt>
      <trkpt lat="38.43611672" lon="-2.48194609"><ele>1707</ele><speed>7.22</speed><time>2016-06-02T12:49:09Z</time><pdop>13.0</pdop><geoidheight>51.00</geoidheight><course>340.5</course><type>1</type></trkpt>
      <trkpt lat="38.43608724" lon="-2.48228053"><ele>1711</ele><speed>7.89</speed><time>2016-06-02T12:49:12Z</time><pdop>13.0</pdop><geoidheight>51.00</geoidheight><course>263.4</course><type>1</type></trkpt>
      <trkpt lat="38.43588078" lon="-2.48252518"><ele>1720</ele><speed>8.63</speed><time>2016-06-02T12:49:15Z</time><pdop>12.0</pdop><geoidheight>51.00</geoidheight><course>223.7</course><type>1</type></trkpt>
      <trkpt lat="38.43566868" lon="-2.48253659"><ele>1730</ele><speed>8.54</speed><time>2016-06-02T12:49:17Z</time><pdop>11.0</pdop><geoidheight>51.00</geoidheight><course>193.8</course><type>1</type></trkpt>
      <trkpt lat="38.43543318" lon="-2.48253262"><ele>1731</ele><speed>9.13</speed><time>2016-06-02T12:49:20Z</time><pdop>11.0</pdop><geoidheight>51.00</geoidheight><course>176.9</course><type>1</type></trkpt>
      <trkpt lat="38.43527587" lon="-2.48222636"><ele>1737</ele><speed>9.95</speed><time>2016-06-02T12:49:23Z</time><pdop>12.0</pdop><geoidheight>51.00</geoidheight><course>133.3</course><type>1</type></trkpt>
      <trkpt lat="38.43531583" lon="-2.48180501"><ele>1738</ele><speed>13.35</speed><time>2016-06-02T12:49:25Z</time><pdop>13.0</pdop><geoidheight>51.00</geoidheight><course>95.8</course><type>1</type></trkpt>
      <trkpt lat="38.43544295" lon="-2.48149166"><ele>1740</ele><speed>12.12</speed><time>2016-06-02T12:49:27Z</time><pdop>13.0</pdop><geoidheight>51.00</geoidheight><course>75.0</course><type>1</type></trkpt>
      <trkpt lat="38.43554287" lon="-2.48122912"><ele>1742</ele><speed>11.15</speed><time>2016-06-02T12:49:29Z</time><pdop>12.0</pdop><geoidheight>51.00</geoidheight><course>71.5</course><type>1</type></trkpt>
      <trkpt lat="38.43583091" lon="-2.48110793"><ele>1744</ele><speed>10.67</speed><time>2016-06-02T12:49:31Z</time><pdop>11.0</pdop><geoidheight>51.00</geoidheight><course>34.8</course><type>1</type></trkpt>
      <trkpt lat="38.43604929" lon="-2.48106348"><ele>1748</ele><speed>6.64</speed><time>2016-06-02T12:49:34Z</time><pdop>11.0</pdop><geoidheight>51.00</geoidheight><course>357.0</course><type>1</type></trkpt>
      <trkpt lat="38.43620274" lon="-2.48128044"><ele>1749</ele><speed>7.37</speed><time>2016-06-02T12:49:37Z</time><pdop>13.0</pdop><geoidheight>51.00</geoidheight><course>315.1</course><type>1</type></trkpt>
      <trkpt lat="38.43602338" lon="-2.48158878"><ele>1758</ele><speed>7.82</speed><time>2016-06-02T12:49:40Z</time><pdop>13.0</pdop><geoidheight>51.00</geoidheight><course>239.2</course><type>1</type></trkpt>
      <trkpt lat="38.43572366" lon="-2.48140405"><ele>1765</ele><speed>8.75</speed><time>2016-06-02T12:49:44Z</time><pdop>14.0</pdop><geoidheight>51.00</geoidheight><course>148.8</course><type>1</type></trkpt>
      <trkpt lat="38.4358061" lon="-2.48092491"><ele>1768</ele><speed>13.46</speed><time>2016-06-02T12:49:46Z</time><pdop>13.0</pdop><geoidheight>51.00</geoidheight><course>89.8</course><type>1</type></trkpt>
      <trkpt lat="38.4359694" lon="-2.48056766"><ele>1774</ele><speed>9.25</speed><time>2016-06-02T12:49:49Z</time><pdop>11.0</pdop><geoidheight>51.00</geoidheight><course>54.6</course><type>1</type></trkpt>
      <trkpt lat="38.43621472" lon="-2.48039434"><ele>1782</ele><speed>9.25</speed><time>2016-06-02T12:49:52Z</time><pdop>12.0</pdop><geoidheight>51.00</geoidheight><course>10.8</course><type>1</type></trkpt>
      <trkpt lat="38.4364287" lon="-2.48043878"><ele>1788</ele><speed>7.55</speed><time>2016-06-02T12:49:55Z</time><pdop>9.0</pdop><geoidheight>51.00</geoidheight><course>325.1</course><type>1</type></trkpt>
      <trkpt lat="38.43650848" lon="-2.4807306"><ele>1793</ele><speed>8.87</speed><time>2016-06-02T12:49:58Z</time><pdop>9.0</pdop><geoidheight>51.00</geoidheight><course>282.9</course><type>1</type></trkpt>
      <trkpt lat="38.43629691" lon="-2.48088157"><ele>1798</ele><speed>7.16</speed><time>2016-06-02T12:50:01Z</time><pdop>9.0</pdop><geoidheight>51.00</geoidheight><course>226.8</course><type>1</type></trkpt>
      <trkpt lat="38.43607825" lon="-2.4808189"><ele>1801</ele><speed>8.83</speed><time>2016-06-02T12:50:03Z</time><pdop>12.0</pdop><geoidheight>51.00</geoidheight><course>180.5</course><type>1</type></trkpt>
      <trkpt lat="38.43591986" lon="-2.48050957"><ele>1810</ele><speed>9.45</speed><time>2016-06-02T12:50:06Z</time><pdop>14.0</pdop><geoidheight>51.00</geoidheight><course>130.1</course><type>1</type></trkpt>
      <trkpt lat="38.43586066" lon="-2.48017528"><ele>1815</ele><speed>12.61</speed><time>2016-06-02T12:50:08Z</time><pdop>13.0</pdop><geoidheight>51.00</geoidheight><course>107.5</course><type>1</type></trkpt>
      <trkpt lat="38.43591905" lon="-2.47982685"><ele>1822</ele><speed>13.14</speed><time>2016-06-02T12:50:10Z</time><pdop>11.0</pdop><geoidheight>51.00</geoidheight><course>79.8</course><type>1</type></trkpt>
      <trkpt lat="38.43610212" lon="-2.47958408"><ele>1835</ele><speed>8.18</speed><time>2016-06-02T12:50:13Z</time><pdop>9.0</pdop><geoidheight>51.00</geoidheight><course>30.2</course><type>1</type></trkpt>
      <trkpt lat="38.43631481" lon="-2.47959217"><ele>1840</ele><speed>8.52</speed><time>2016-06-02T12:50:16Z</time><pdop>8.0</pdop><geoidheight>51.00</geoidheight><course>335.7</course><type>1</type></trkpt>
      <trkpt lat="38.43642147" lon="-2.47970088"><ele>1840</ele><speed>8.02</speed><time>2016-06-02T12:50:18Z</time><pdop>7.0</pdop><geoidheight>51.00</geoidheight><course>313.7</course><type>1</type></trkpt>
      <trkpt lat="38.43640636" lon="-2.47990624"><ele>1843</ele><speed>7.93</speed><time>2016-06-02T12:50:20Z</time><pdop>8.0</pdop><geoidheight>51.00</geoidheight><course>267.2</course><type>1</type></trkpt>
      <trkpt lat="38.43623345" lon="-2.47996591"><ele>1849</ele><speed>7.81</speed><time>2016-06-02T12:50:22Z</time><pdop>6.0</pdop><geoidheight>51.00</geoidheight><course>198.1</course><type>1</type></trkpt>
      <trkpt lat="38.43607412" lon="-2.47995064"><ele>1856</ele><speed>8.54</speed><time>2016-06-02T12:50:24Z</time><pdop>5.0</pdop><geoidheight>51.00</geoidheight><course>168.2</course><type>1</type></trkpt>
      <trkpt lat="38.43592089" lon="-2.47990528"><ele>1860</ele><speed>9.10</speed><time>2016-06-02T12:50:26Z</time><pdop>8.0</pdop><geoidheight>51.00</geoidheight><course>165.6</course><type>1</type></trkpt>
      <trkpt lat="38.4358808" lon="-2.47945631"><ele>1864</ele><speed>12.31</speed><time>2016-06-02T12:50:29Z</time><pdop>10.0</pdop><geoidheight>51.00</geoidheight><course>108.4</course><type>1</type></trkpt>
      <trkpt lat="38.43588935" lon="-2.47908873"><ele>1868</ele><speed>13.72</speed><time>2016-06-02T12:50:31Z</time><pdop>10.0</pdop><geoidheight>51.00</geoidheight><course>95.6</course><type>1</type></trkpt>
      <trkpt lat="38.43590535" lon="-2.47882473"><ele>1875</ele><speed>10.60</speed><time>2016-06-02T12:50:33Z</time><pdop>12.0</pdop><geoidheight>51.00</geoidheight><course>90.9</course><type>1</type></trkpt>
      <trkpt lat="38.43614101" lon="-2.47861383"><ele>1877</ele><speed>8.61</speed><time>2016-06-02T12:50:36Z</time><pdop>14.0</pdop><geoidheight>51.00</geoidheight><course>55.5</course><type>1</type></trkpt>
      <trkpt lat="38.43638287" lon="-2.47882462"><ele>1881</ele><speed>7.76</speed><time>2016-06-02T12:50:38Z</time><pdop>8.0</pdop><geoidheight>51.00</geoidheight><course>328.1</course><type>1</type></trkpt>
      <trkpt lat="38.43650056" lon="-2.47897328"><ele>1885</ele><speed>7.59</speed><time>2016-06-02T12:50:40Z</time><pdop>8.0</pdop><geoidheight>51.00</geoidheight><course>310.7</course><type>1</type></trkpt>
      <trkpt lat="38.43659313" lon="-2.47914483"><ele>1888</ele><speed>7.66</speed><time>2016-06-02T12:50:42Z</time><pdop>9.0</pdop><geoidheight>51.00</geoidheight><course>295.5</course><type>1</type></trkpt>
      <trkpt lat="38.43649209" lon="-2.4793527"><ele>1893</ele><speed>6.11</speed><time>2016-06-02T12:50:45Z</time><pdop>7.0</pdop><geoidheight>51.00</geoidheight><course>231.6</course><type>1</type></trkpt>
      <trkpt lat="38.43625137" lon="-2.47933921"><ele>1903</ele><speed>7.24</speed><time>2016-06-02T12:50:49Z</time><pdop>11.0</pdop><geoidheight>51.00</geoidheight><course>167.0</course><type>1</type></trkpt>
      <trkpt lat="38.43624358" lon="-2.47883708"><ele>1908</ele><speed>12.47</speed><time>2016-06-02T12:50:52Z</time><pdop>9.0</pdop><geoidheight>51.00</geoidheight><course>98.5</course><type>1</type></trkpt>
      <trkpt lat="38.43628458" lon="-2.47865171"><ele>1914</ele><speed>14.05</speed><time>2016-06-02T12:50:53Z</time><pdop>7.0</pdop><geoidheight>51.00</geoidheight><course>78.6</course><type>1</type></trkpt>
      <trkpt lat="38.43631404" lon="-2.47850733"><ele>1918</ele><speed>12.72</speed><time>2016-06-02T12:50:54Z</time><pdop>6.0</pdop><geoidheight>51.00</geoidheight><course>73.5</course><type>1</type></trkpt>
      <trkpt lat="38.43643546" lon="-2.4783026"><ele>1925</ele><speed>10.40</speed><time>2016-06-02T12:50:56Z</time><pdop>6.0</pdop><geoidheight>51.00</geoidheight><course>42.8</course><type>1</type></trkpt>
      <trkpt lat="38.43658639" lon="-2.47816488"><ele>1929</ele><speed>9.72</speed><time>2016-06-02T12:50:58Z</time><pdop>6.0</pdop><geoidheight>51.00</geoidheight><course>28.8</course><type>1</type></trkpt>
      <trkpt lat="38.43679064" lon="-2.47808213"><ele>1930</ele><speed>10.99</speed><time>2016-06-02T12:51:00Z</time><pdop>9.0</pdop><geoidheight>51.00</geoidheight><course>13.5</course><type>1</type></trkpt>
      <trkpt lat="38.43687023" lon="-2.4782647"><ele>1931</ele><speed>8.34</speed><time>2016-06-02T12:51:02Z</time><pdop>4.0</pdop><geoidheight>51.00</geoidheight><course>314.0</course><type>1</type></trkpt>
      <trkpt lat="38.43690549" lon="-2.47834549"><ele>1932</ele><speed>8.04</speed><time>2016-06-02T12:51:03Z</time><pdop>4.0</pdop><geoidheight>51.00</geoidheight><course>298.5</course><type>1</type></trkpt>
      <trkpt lat="38.43693159" lon="-2.47844146"><ele>1934</ele><speed>8.39</speed><time>2016-06-02T12:51:04Z</time><pdop>4.0</pdop><geoidheight>51.00</geoidheight><course>290.5</course><type>1</type></trkpt>
      <trkpt lat="38.43698689" lon="-2.47860099"><ele>1935</ele><speed>7.32</speed><time>2016-06-02T12:51:06Z</time><pdop>5.0</pdop><geoidheight>51.00</geoidheight><course>289.5</course><type>1</type></trkpt>
      <trkpt lat="38.43700339" lon="-2.4787492"><ele>1937</ele><speed>6.63</speed><time>2016-06-02T12:51:08Z</time><pdop>6.0</pdop><geoidheight>51.00</geoidheight><course>273.6</course><type>1</type></trkpt>
      <trkpt lat="38.43695228" lon="-2.47897763"><ele>1936</ele><speed>8.99</speed><time>2016-06-02T12:51:10Z</time><pdop>7.0</pdop><geoidheight>51.00</geoidheight><course>258.3</course><type>1</type></trkpt>
      <trkpt lat="38.43676098" lon="-2.47908717"><ele>1938</ele><speed>9.84</speed><time>2016-06-02T12:51:12Z</time><pdop>5.0</pdop><geoidheight>51.00</geoidheight><course>213.6</course><type>1</type></trkpt>
      <trkpt lat="38.43661559" lon="-2.4791417"><ele>1943</ele><speed>8.96</speed><time>2016-06-02T12:51:14Z</time><pdop>4.0</pdop><geoidheight>51.00</geoidheight><course>187.7</course><type>1</type></trkpt>
      <trkpt lat="38.43652448" lon="-2.47911778"><ele>1945</ele><speed>8.83</speed><time>2016-06-02T12:51:15Z</time><pdop>4.0</pdop><geoidheight>51.00</geoidheight><course>178.4</course><type>1</type></trkpt>
      <trkpt lat="38.4364508" lon="-2.47910348"><ele>1946</ele><speed>8.99</speed><time>2016-06-02T12:51:16Z</time><pdop>4.0</pdop><geoidheight>51.00</geoidheight><course>173.2</course><type>1</type></trkpt>
      <trkpt lat="38.43628988" lon="-2.47904792"><ele>1946</ele><speed>10.05</speed><time>2016-06-02T12:51:18Z</time><pdop>8.0</pdop><geoidheight>51.00</geoidheight><course>163.1</course><type>1</type></trkpt>
      <trkpt lat="38.43617648" lon="-2.47880724"><ele>1947</ele><speed>10.94</speed><time>2016-06-02T12:51:20Z</time><pdop>7.0</pdop><geoidheight>51.00</geoidheight><course>136.5</course><type>1</type></trkpt>
      <trkpt lat="38.43615777" lon="-2.47864012"><ele>1948</ele><speed>11.50</speed><time>2016-06-02T12:51:21Z</time><pdop>7.0</pdop><geoidheight>51.00</geoidheight><course>120.4</course><type>1</type></trkpt>
      <trkpt lat="38.43611801" lon="-2.47848227"><ele>1952</ele><speed>12.30</speed><time>2016-06-02T12:51:22Z</time><pdop>7.0</pdop><geoidheight>51.00</geoidheight><course>113.7</course><type>1</type></trkpt>
      <trkpt lat="38.43613619" lon="-2.47832325"><ele>1954</ele><speed>13.48</speed><time>2016-06-02T12:51:23Z</time><pdop>4.0</pdop><geoidheight>51.00</geoidheight><course>90.1</course><type>1</type></trkpt>
      <trkpt lat="38.43614343" lon="-2.47816891"><ele>1955</ele><speed>13.05</speed><time>2016-06-02T12:51:24Z</time><pdop>4.0</pdop><geoidheight>51.00</geoidheight><course>86.5</course><type>1</type></trkpt>
      <trkpt lat="38.43616085" lon="-2.47802021"><ele>1956</ele><speed>12.98</speed><time>2016-06-02T12:51:25Z</time><pdop>5.0</pdop><geoidheight>51.00</geoidheight><course>83.5</course><type>1</type></trkpt>
      <trkpt lat="38.43618907" lon="-2.47787696"><ele>1956</ele><speed>13.01</speed><time>2016-06-02T12:51:26Z</time><pdop>5.0</pdop><geoidheight>51.00</geoidheight><course>78.7</course><type>1</type></trkpt>
      <trkpt lat="38.43623292" lon="-2.47776007"><ele>1957</ele><speed>12.37</speed><time>2016-06-02T12:51:27Z</time><pdop>6.0</pdop><geoidheight>51.00</geoidheight><course>71.8</course><type>1</type></trkpt>
      <trkpt lat="38.43637331" lon="-2.4776323"><ele>1959</ele><speed>9.11</speed><time>2016-06-02T12:51:29Z</time><pdop>7.0</pdop><geoidheight>51.00</geoidheight><course>51.0</course><type>1</type></trkpt>
      <trkpt lat="38.43658327" lon="-2.47761519"><ele>1962</ele><speed>8.52</speed><time>2016-06-02T12:51:31Z</time><pdop>6.0</pdop><geoidheight>51.00</geoidheight><course>21.0</course><type>1</type></trkpt>
      <trkpt lat="38.43677058" lon="-2.47751337"><ele>1963</ele><speed>10.27</speed><time>2016-06-02T12:51:33Z</time><pdop>7.0</pdop><geoidheight>51.00</geoidheight><course>25.3</course><type>1</type></trkpt>
      <trkpt lat="38.43698316" lon="-2.47746783"><ele>1966</ele><speed>10.89</speed><time>2016-06-02T12:51:35Z</time><pdop>4.0</pdop><geoidheight>51.00</geoidheight><course>5.9</course><type>1</type></trkpt>
      <trkpt lat="38.43707538" lon="-2.47748029"><ele>1966</ele><speed>10.81</speed><time>2016-06-02T12:51:36Z</time><pdop>5.0</pdop><geoidheight>51.00</geoidheight><course>0.2</course><type>1</type></trkpt>
      <trkpt lat="38.43719231" lon="-2.47762162"><ele>1967</ele><speed>8.74</speed><time>2016-06-02T12:51:38Z</time><pdop>6.0</pdop><geoidheight>51.00</geoidheight><course>319.7</course><type>1</type></trkpt>
      <trkpt lat="38.43729395" lon="-2.477871"><ele>1969</ele><speed>10.37</speed><time>2016-06-02T12:51:40Z</time><pdop>7.0</pdop><geoidheight>51.00</geoidheight><course>300.9</course><type>1</type></trkpt>
      <trkpt lat="38.43729778" lon="-2.47806213"><ele>1970</ele><speed>9.20</speed><time>2016-06-02T12:51:42Z</time><pdop>8.0</pdop><geoidheight>51.00</geoidheight><course>286.2</course><type>1</type></trkpt>
      <trkpt lat="38.4371246" lon="-2.47803987"><ele>1971</ele><speed>6.38</speed><time>2016-06-02T12:51:43Z</time><pdop>7.0</pdop><geoidheight>51.00</geoidheight><course>245.1</course><type>1</type></trkpt>
      <trkpt lat="38.43694219" lon="-2.47802736"><ele>1974</ele><speed>5.49</speed><time>2016-06-02T12:51:45Z</time><pdop>8.0</pdop><geoidheight>51.00</geoidheight><course>187.6</course><type>1</type></trkpt>
      <trkpt lat="38.43680424" lon="-2.47787828"><ele>1974</ele><speed>8.10</speed><time>2016-06-02T12:51:47Z</time><pdop>7.0</pdop><geoidheight>51.00</geoidheight><course>140.5</course><type>1</type></trkpt>
      <trkpt lat="38.43668366" lon="-2.47766473"><ele>1974</ele><speed>9.75</speed><time>2016-06-02T12:51:49Z</time><pdop>8.0</pdop><geoidheight>51.00</geoidheight><course>127.1</course><type>1</type></trkpt>
      <trkpt lat="38.43664785" lon="-2.47747449"><ele>1975</ele><speed>11.60</speed><time>2016-06-02T12:51:50Z</time><pdop>6.0</pdop><geoidheight>51.00</geoidheight><course>113.5</course><type>1</type></trkpt>
      <trkpt lat="38.43660755" lon="-2.47734018"><ele>1976</ele><speed>10.58</speed><time>2016-06-02T12:51:51Z</time><pdop>5.0</pdop><geoidheight>51.00</geoidheight><course>107.8</course><type>1</type></trkpt>
      <trkpt lat="38.4365881" lon="-2.47719095"><ele>1978</ele><speed>10.51</speed><time>2016-06-02T12:51:52Z</time><pdop>4.0</pdop><geoidheight>51.00</geoidheight><course>98.5</course><type>1</type></trkpt>
      <trkpt lat="38.43657864" lon="-2.47705232"><ele>1980</ele><speed>11.20</speed><time>2016-06-02T12:51:53Z</time><pdop>4.0</pdop><geoidheight>51.00</geoidheight><course>90.2</course><type>1</type></trkpt>
      <trkpt lat="38.43657291" lon="-2.47691704"><ele>1980</ele><speed>11.63</speed><time>2016-06-02T12:51:54Z</time><pdop>3.0</pdop><geoidheight>51.00</geoidheight><course>86.3</course><type>1</type></trkpt>
      <trkpt lat="38.43657805" lon="-2.47678059"><ele>1982</ele><speed>11.49</speed><time>2016-06-02T12:51:55Z</time><pdop>4.0</pdop><geoidheight>51.00</geoidheight><course>85.8</course><type>1</type></trkpt>
      <trkpt lat="38.43660667" lon="-2.4766571"><ele>1983</ele><speed>11.27</speed><time>2016-06-02T12:51:56Z</time><pdop>4.0</pdop><geoidheight>51.00</geoidheight><course>79.4</course><type>1</type></trkpt>
      <trkpt lat="38.43665047" lon="-2.47652189"><ele>1983</ele><speed>11.39</speed><time>2016-06-02T12:51:57Z</time><pdop>4.0</pdop><geoidheight>51.00</geoidheight><course>72.6</course><type>1</type></trkpt>
      <trkpt lat="38.43668582" lon="-2.47639674"><ele>1985</ele><speed>11.15</speed><time>2016-06-02T12:51:58Z</time><pdop>4.0</pdop><geoidheight>51.00</geoidheight><course>69.5</course><type>1</type></trkpt>
      <trkpt lat="38.43671109" lon="-2.47628215"><ele>1987</ele><speed>11.06</speed><time>2016-06-02T12:51:59Z</time><pdop>3.0</pdop><geoidheight>51.00</geoidheight><course>69.9</course><type>1</type></trkpt>
      <trkpt lat="38.43673926" lon="-2.47616286"><ele>1991</ele><speed>11.18</speed><time>2016-06-02T12:52:00Z</time><pdop>3.0</pdop><geoidheight>51.00</geoidheight><course>69.0</course><type>1</type></trkpt>
      <trkpt lat="38.43676173" lon="-2.47604306"><ele>1994</ele><speed>11.21</speed><time>2016-06-02T12:52:01Z</time><pdop>3.0</pdop><geoidheight>51.00</geoidheight><course>73.0</course><type>1</type></trkpt>
      <trkpt lat="38.43678122" lon="-2.4759112"><ele>1994</ele><speed>11.30</speed><time>2016-06-02T12:52:02Z</time><pdop>3.0</pdop><geoidheight>51.00</geoidheight><course>75.9</course><type>1</type></trkpt>
      <trkpt lat="38.43674546" lon="-2.47579491"><ele>1996</ele><speed>10.49</speed><time>2016-06-02T12:52:03Z</time><pdop>3.0</pdop><geoidheight>51.00</geoidheight><course>96.8</course><type>1</type></trkpt>
      <trkpt lat="38.43670166" lon="-2.47568664"><ele>1996</ele><speed>10.06</speed><time>2016-06-02T12:52:04Z</time><pdop>3.0</pdop><geoidheight>51.00</geoidheight><course>115.5</course><type>1</type></trkpt>
      <trkpt lat="38.43664682" lon="-2.47560363"><ele>1999</ele><speed>9.27</speed><time>2016-06-02T12:52:05Z</time><pdop>3.0</pdop><geoidheight>51.00</geoidheight><course>126.3</course><type>1</type></trkpt>
      <trkpt lat="38.43659586" lon="-2.47553355"><ele>2001</ele><speed>8.64</speed><time>2016-06-02T12:52:06Z</time><pdop>4.0</pdop><geoidheight>51.00</geoidheight><course>129.0</course><type>1</type></trkpt>
      <trkpt lat="38.43647947" lon="-2.47553138"><ele>2003</ele><speed>5.75</speed><time>2016-06-02T12:52:08Z</time><pdop>6.0</pdop><geoidheight>51.00</geoidheight><course>170.8</course><type>1</type></trkpt>
      <trkpt lat="38.43642984" lon="-2.47573993"><ele>2003</ele><speed>4.46</speed><time>2016-06-02T12:52:11Z</time><pdop>7.0</pdop><geoidheight>51.00</geoidheight><course>265.8</course><type>1</type></trkpt>
      <trkpt lat="38.43648763" lon="-2.47588645"><ele>2002</ele><speed>7.30</speed><time>2016-06-02T12:52:12Z</time><pdop>6.0</pdop><geoidheight>51.00</geoidheight><course>288.7</course><type>1</type></trkpt>
      <trkpt lat="38.4366032" lon="-2.47608241"><ele>2003</ele><speed>7.79</speed><time>2016-06-02T12:52:14Z</time><pdop>6.0</pdop><geoidheight>51.00</geoidheight><course>308.3</course><type>1</type></trkpt>
      <trkpt lat="38.4367635" lon="-2.47616469"><ele>2005</ele><speed>7.50</speed><time>2016-06-02T12:52:16Z</time><pdop>6.0</pdop><geoidheight>51.00</geoidheight><course>334.6</course><type>1</type></trkpt>
      <trkpt lat="38.43701668" lon="-2.47615238"><ele>2006</ele><speed>10.27</speed><time>2016-06-02T12:52:19Z</time><pdop>8.0</pdop><geoidheight>51.00</geoidheight><course>15.2</course><type>1</type></trkpt>
      <trkpt lat="38.43713311" lon="-2.47605956"><ele>2008</ele><speed>11.62</speed><time>2016-06-02T12:52:20Z</time><pdop>7.0</pdop><geoidheight>51.00</geoidheight><course>32.6</course><type>1</type></trkpt>
      <trkpt lat="38.43720193" lon="-2.47594256"><ele>2007</ele><speed>11.57</speed><time>2016-06-02T12:52:21Z</time><pdop>5.0</pdop><geoidheight>51.00</geoidheight><course>52.1</course><type>1</type></trkpt>
      <trkpt lat="38.43725247" lon="-2.4758327"><ele>2008</ele><speed>11.23</speed><time>2016-06-02T12:52:22Z</time><pdop>5.0</pdop><geoidheight>51.00</geoidheight><course>59.7</course><type>1</type></trkpt>
      <trkpt lat="38.43723168" lon="-2.47568054"><ele>2010</ele><speed>11.35</speed><time>2016-06-02T12:52:23Z</time><pdop>4.0</pdop><geoidheight>51.00</geoidheight><course>91.0</course><type>1</type></trkpt>
      <trkpt lat="38.43721184" lon="-2.47554425"><ele>2012</ele><speed>11.68</speed><time>2016-06-02T12:52:24Z</time><pdop>4.0</pdop><geoidheight>51.00</geoidheight><course>106.8</course><type>1</type></trkpt>
      <trkpt lat="38.43716296" lon="-2.47543166"><ele>2012</ele><speed>11.30</speed><time>2016-06-02T12:52:25Z</time><pdop>4.0</pdop><geoidheight>51.00</geoidheight><course>121.8</course><type>1</type></trkpt>
      <trkpt lat="38.43709842" lon="-2.4753392"><ele>2012</ele><speed>10.32</speed><time>2016-06-02T12:52:26Z</time><pdop>4.0</pdop><geoidheight>51.00</geoidheight><course>130.3</course><type>1</type></trkpt>
      <trkpt lat="38.43698182" lon="-2.47524177"><ele>2013</ele><speed>7.80</speed><time>2016-06-02T12:52:28Z</time><pdop>5.0</pdop><geoidheight>51.00</geoidheight><course>143.5</course><type>1</type></trkpt>
      <trkpt lat="38.43682229" lon="-2.47539492"><ele>2017</ele><speed>8.96</speed><time>2016-06-02T12:52:30Z</time><pdop>4.0</pdop><geoidheight>51.00</geoidheight><course>213.1</course><type>1</type></trkpt>
      <trkpt lat="38.43675792" lon="-2.47546395"><ele>2018</ele><speed>9.61</speed><time>2016-06-02T12:52:31Z</time><pdop>4.0</pdop><geoidheight>51.00</geoidheight><course>219.4</course><type>1</type></trkpt>
      <trkpt lat="38.43673713" lon="-2.47558048"><ele>2017</ele><speed>9.83</speed><time>2016-06-02T12:52:32Z</time><pdop>4.0</pdop><geoidheight>51.00</geoidheight><course>240.8</course><type>1</type></trkpt>
      <trkpt lat="38.43670877" lon="-2.47568401"><ele>2018</ele><speed>8.97</speed><time>2016-06-02T12:52:33Z</time><pdop>4.0</pdop><geoidheight>51.00</geoidheight><course>247.8</course><type>1</type></trkpt>
      <trkpt lat="38.43673641" lon="-2.47586666"><ele>2019</ele><speed>8.20</speed><time>2016-06-02T12:52:35Z</time><pdop>6.0</pdop><geoidheight>51.00</geoidheight><course>271.3</course><type>1</type></trkpt>
      <trkpt lat="38.43707141" lon="-2.47572645"><ele>2021</ele><speed>11.30</speed><time>2016-06-02T12:52:39Z</time><pdop>7.0</pdop><geoidheight>51.00</geoidheight><course>31.2</course><type>1</type></trkpt>
      <trkpt lat="38.43719322" lon="-2.47562759"><ele>2023</ele><speed>12.15</speed><time>2016-06-02T12:52:40Z</time><pdop>7.0</pdop><geoidheight>51.00</geoidheight><course>39.9</course><type>1</type></trkpt>
      <trkpt lat="38.43729047" lon="-2.47551472"><ele>2025</ele><speed>12.60</speed><time>2016-06-02T12:52:41Z</time><pdop>6.0</pdop><geoidheight>51.00</geoidheight><course>48.4</course><type>1</type></trkpt>
      <trkpt lat="38.4373707" lon="-2.47538989"><ele>2028</ele><speed>12.85</speed><time>2016-06-02T12:52:42Z</time><pdop>5.0</pdop><geoidheight>51.00</geoidheight><course>56.6</course><type>1</type></trkpt>
      <trkpt lat="38.43742664" lon="-2.47524382"><ele>2030</ele><speed>12.97</speed><time>2016-06-02T12:52:43Z</time><pdop>4.0</pdop><geoidheight>51.00</geoidheight><course>68.4</course><type>1</type></trkpt>
      <trkpt lat="38.4374636" lon="-2.47509547"><ele>2031</ele><speed>13.05</speed><time>2016-06-02T12:52:44Z</time><pdop>4.0</pdop><geoidheight>51.00</geoidheight><course>73.7</course><type>1</type></trkpt>
      <trkpt lat="38.43746474" lon="-2.47496355"><ele>2033</ele><speed>12.73</speed><time>2016-06-02T12:52:45Z</time><pdop>4.0</pdop><geoidheight>51.00</geoidheight><course>94.5</course><type>1</type></trkpt>
      <trkpt lat="38.43744134" lon="-2.47482091"><ele>2035</ele><speed>12.43</speed><time>2016-06-02T12:52:46Z</time><pdop>3.0</pdop><geoidheight>51.00</geoidheight><course>102.2</course><type>1</type></trkpt>
      <trkpt lat="38.43740629" lon="-2.47469166"><ele>2035</ele><speed>11.51</speed><time>2016-06-02T12:52:47Z</time><pdop>3.0</pdop><geoidheight>51.00</geoidheight><course>108.1</course><type>1</type></trkpt>
      <trkpt lat="38.43738068" lon="-2.47457624"><ele>2036</ele><speed>10.34</speed><time>2016-06-02T12:52:48Z</time><pdop>4.0</pdop><geoidheight>51.00</geoidheight><course>108.0</course><type>1</type></trkpt>
      <trkpt lat="38.43724627" lon="-2.47449477"><ele>2037</ele><speed>7.72</speed><time>2016-06-02T12:52:50Z</time><pdop>4.0</pdop><geoidheight>51.00</geoidheight><course>154.1</course><type>1</type></trkpt>
      <trkpt lat="38.43716698" lon="-2.47449114"><ele>2039</ele><speed>7.97</speed><time>2016-06-02T12:52:51Z</time><pdop>3.0</pdop><geoidheight>51.00</geoidheight><course>174.8</course><type>1</type></trkpt>
      <trkpt lat="38.43709491" lon="-2.47449804"><ele>2039</ele><speed>8.07</speed><time>2016-06-02T12:52:52Z</time><pdop>4.0</pdop><geoidheight>51.00</geoidheight><course>188.5</course><type>1</type></trkpt>
      <trkpt lat="38.43703186" lon="-2.47453873"><ele>2040</ele><speed>8.01</speed><time>2016-06-02T12:52:53Z</time><pdop>3.0</pdop><geoidheight>51.00</geoidheight><course>207.5</course><type>1</type></trkpt>
      <trkpt lat="38.43697831" lon="-2.4746085"><ele>2040</ele><speed>8.23</speed><time>2016-06-02T12:52:54Z</time><pdop>3.0</pdop><geoidheight>51.00</geoidheight><course>221.9</course><type>1</type></trkpt>
      <trkpt lat="38.43693108" lon="-2.47468936"><ele>2042</ele><speed>8.64</speed><time>2016-06-02T12:52:55Z</time><pdop>3.0</pdop><geoidheight>51.00</geoidheight><course>230.5</course><type>1</type></trkpt>
      <trkpt lat="38.43687808" lon="-2.47476654"><ele>2043</ele><speed>9.15</speed><time>2016-06-02T12:52:56Z</time><pdop>4.0</pdop><geoidheight>51.00</geoidheight><course>237.2</course><type>1</type></trkpt>
      <trkpt lat="38.43686659" lon="-2.47485721"><ele>2043</ele><speed>7.62</speed><time>2016-06-02T12:52:57Z</time><pdop>4.0</pdop><geoidheight>51.00</geoidheight><course>252.7</course><type>1</type></trkpt>
      <trkpt lat="38.43682406" lon="-2.47500323"><ele>2043</ele><speed>6.49</speed><time>2016-06-02T12:52:59Z</time><pdop>6.0</pdop><geoidheight>51.00</geoidheight><course>251.8</course><type>1</type></trkpt>
      <trkpt lat="38.43675801" lon="-2.47516937"><ele>2046</ele><speed>7.65</speed><time>2016-06-02T12:53:01Z</time><pdop>5.0</pdop><geoidheight>51.00</geoidheight><course>246.7</course><type>1</type></trkpt>
      <trkpt lat="38.43673156" lon="-2.47534456"><ele>2049</ele><speed>6.83</speed><time>2016-06-02T12:53:03Z</time><pdop>5.0</pdop><geoidheight>51.00</geoidheight><course>270.9</course><type>1</type></trkpt>
      <trkpt lat="38.43677383" lon="-2.47551498"><ele>2050</ele><speed>7.46</speed><time>2016-06-02T12:53:05Z</time><pdop>8.0</pdop><geoidheight>51.00</geoidheight><course>290.0</course><type>1</type></trkpt>
      <trkpt lat="38.43699507" lon="-2.47557464"><ele>2052</ele><speed>8.08</speed><time>2016-06-02T12:53:08Z</time><pdop>11.0</pdop><geoidheight>51.00</geoidheight><course>346.8</course><type>1</type></trkpt>
      <trkpt lat="38.43726553" lon="-2.47540585"><ele>2051</ele><speed>12.53</speed><time>2016-06-02T12:53:10Z</time><pdop>11.0</pdop><geoidheight>51.00</geoidheight><course>22.2</course><type>1</type></trkpt>
      <trkpt lat="38.43737372" lon="-2.47515249"><ele>2054</ele><speed>11.96</speed><time>2016-06-02T12:53:12Z</time><pdop>7.0</pdop><geoidheight>51.00</geoidheight><course>55.3</course><type>1</type></trkpt>
      <trkpt lat="38.43746592" lon="-2.47490304"><ele>2054</ele><speed>12.06</speed><time>2016-06-02T12:53:14Z</time><pdop>6.0</pdop><geoidheight>51.00</geoidheight><course>76.5</course><type>1</type></trkpt>
      <trkpt lat="38.4374617" lon="-2.47476505"><ele>2054</ele><speed>11.56</speed><time>2016-06-02T12:53:15Z</time><pdop>5.0</pdop><geoidheight>51.00</geoidheight><course>86.4</course><type>1</type></trkpt>
      <trkpt lat="38.43746248" lon="-2.47464478"><ele>2055</ele><speed>10.32</speed><time>2016-06-02T12:53:16Z</time><pdop>4.0</pdop><geoidheight>51.00</geoidheight><course>92.5</course><type>1</type></trkpt>
      <trkpt lat="38.43746924" lon="-2.47453111"><ele>2057</ele><speed>9.55</speed><time>2016-06-02T12:53:17Z</time><pdop>4.0</pdop><geoidheight>51.00</geoidheight><course>94.3</course><type>1</type></trkpt>
      <trkpt lat="38.43748059" lon="-2.47441156"><ele>2059</ele><speed>9.85</speed><time>2016-06-02T12:53:18Z</time><pdop>4.0</pdop><geoidheight>51.00</geoidheight><course>91.7</course><type>1</type></trkpt>
      <trkpt lat="38.43748861" lon="-2.4742949"><ele>2060</ele><speed>10.18</speed><time>2016-06-02T12:53:19Z</time><pdop>3.0</pdop><geoidheight>51.00</geoidheight><course>90.3</course><type>1</type></trkpt>
      <trkpt lat="38.4374828" lon="-2.47417287"><ele>2060</ele><speed>10.31</speed><time>2016-06-02T12:53:20Z</time><pdop>3.0</pdop><geoidheight>51.00</geoidheight><course>94.1</course><type>1</type></trkpt>
      <trkpt lat="38.43747021" lon="-2.47405532"><ele>2060</ele><speed>10.45</speed><time>2016-06-02T12:53:21Z</time><pdop>3.0</pdop><geoidheight>51.00</geoidheight><course>98.3</course><type>1</type></trkpt>
      <trkpt lat="38.43741996" lon="-2.47397991"><ele>2059</ele><speed>9.05</speed><time>2016-06-02T12:53:22Z</time><pdop>4.0</pdop><geoidheight>51.00</geoidheight><course>115.2</course><type>1</type></trkpt>
      <trkpt lat="38.43735152" lon="-2.47385261"><ele>2063</ele><speed>6.78</speed><time>2016-06-02T12:53:24Z</time><pdop>6.0</pdop><geoidheight>51.00</geoidheight><course>122.2</course><type>1</type></trkpt>
      <trkpt lat="38.4372055" lon="-2.47390535"><ele>2061</ele><speed>5.49</speed><time>2016-06-02T12:53:26Z</time><pdop>8.0</pdop><geoidheight>51.00</geoidheight><course>179.4</course><type>1</type></trkpt>
      <trkpt lat="38.43704907" lon="-2.47409726"><ele>2060</ele><speed>8.09</speed><time>2016-06-02T12:53:28Z</time><pdop>8.0</pdop><geoidheight>51.00</geoidheight><course>215.6</course><type>1</type></trkpt>
      <trkpt lat="38.43715588" lon="-2.47438399"><ele>2060</ele><speed>6.83</speed><time>2016-06-02T12:53:31Z</time><pdop>8.0</pdop><geoidheight>51.00</geoidheight><course>284.6</course><type>1</type></trkpt>
      <trkpt lat="38.43730786" lon="-2.47440751"><ele>2060</ele><speed>4.57</speed><time>2016-06-02T12:53:33Z</time><pdop>9.0</pdop><geoidheight>51.00</geoidheight><course>1.6</course><type>1</type></trkpt>
      <trkpt lat="38.43757429" lon="-2.47426013"><ele>2062</ele><speed>12.32</speed><time>2016-06-02T12:53:35Z</time><pdop>6.0</pdop><geoidheight>51.00</geoidheight><course>40.7</course><type>1</type></trkpt>
      <trkpt lat="38.4376703" lon="-2.47413942"><ele>2063</ele><speed>12.83</speed><time>2016-06-02T12:53:36Z</time><pdop>5.0</pdop><geoidheight>51.00</geoidheight><course>49.7</course><type>1</type></trkpt>
      <trkpt lat="38.43774772" lon="-2.47402502"><ele>2064</ele><speed>12.65</speed><time>2016-06-02T12:53:37Z</time><pdop>5.0</pdop><geoidheight>51.00</geoidheight><course>52.7</course><type>1</type></trkpt>
      <trkpt lat="38.43781489" lon="-2.47389408"><ele>2064</ele><speed>12.40</speed><time>2016-06-02T12:53:38Z</time><pdop>6.0</pdop><geoidheight>51.00</geoidheight><course>59.1</course><type>1</type></trkpt>
      <trkpt lat="38.43786745" lon="-2.47376077"><ele>2066</ele><speed>12.15</speed><time>2016-06-02T12:53:39Z</time><pdop>7.0</pdop><geoidheight>51.00</geoidheight><course>62.8</course><type>1</type></trkpt>
      <trkpt lat="38.43782464" lon="-2.47357545"><ele>2067</ele><speed>12.26</speed><time>2016-06-02T12:53:40Z</time><pdop>4.0</pdop><geoidheight>51.00</geoidheight><course>93.7</course><type>1</type></trkpt>
      <trkpt lat="38.43779868" lon="-2.47344422"><ele>2069</ele><speed>10.71</speed><time>2016-06-02T12:53:41Z</time><pdop>4.0</pdop><geoidheight>51.00</geoidheight><course>103.5</course><type>1</type></trkpt>
      <trkpt lat="38.43778229" lon="-2.47334015"><ele>2068</ele><speed>10.24</speed><time>2016-06-02T12:53:42Z</time><pdop>4.0</pdop><geoidheight>51.00</geoidheight><course>105.5</course><type>1</type></trkpt>
      <trkpt lat="38.43774431" lon="-2.47323796"><ele>2068</ele><speed>9.35</speed><time>2016-06-02T12:53:43Z</time><pdop>5.0</pdop><geoidheight>51.00</geoidheight><course>110.4</course><type>1</type></trkpt>
      <trkpt lat="38.43767116" lon="-2.47308998"><ele>2067</ele><speed>8.07</speed><time>2016-06-02T12:53:45Z</time><pdop>4.0</pdop><geoidheight>51.00</geoidheight><course>121.8</course><type>1</type></trkpt>
      <trkpt lat="38.43761822" lon="-2.47300736"><ele>2068</ele><speed>8.63</speed><time>2016-06-02T12:53:46Z</time><pdop>4.0</pdop><geoidheight>51.00</geoidheight><course>127.3</course><type>1</type></trkpt>
      <trkpt lat="38.43756901" lon="-2.47292193"><ele>2067</ele><speed>8.92</speed><time>2016-06-02T12:53:47Z</time><pdop>4.0</pdop><geoidheight>51.00</geoidheight><course>128.3</course><type>1</type></trkpt>
      <trkpt lat="38.43750224" lon="-2.47286111"><ele>2065</ele><speed>8.48</speed><time>2016-06-02T12:53:48Z</time><pdop>4.0</pdop><geoidheight>51.00</geoidheight><course>138.6</course><type>1</type></trkpt>
      <trkpt lat="38.43738226" lon="-2.47285042"><ele>2068</ele><speed>5.84</speed><time>2016-06-02T12:53:50Z</time><pdop>4.0</pdop><geoidheight>51.00</geoidheight><course>188.8</course><type>1</type></trkpt>
      <trkpt lat="38.43733127" lon="-2.47290028"><ele>2067</ele><speed>6.13</speed><time>2016-06-02T12:53:51Z</time><pdop>3.0</pdop><geoidheight>51.00</geoidheight><course>217.4</course><type>1</type></trkpt>
      <trkpt lat="38.43729273" lon="-2.47296821"><ele>2068</ele><speed>6.54</speed><time>2016-06-02T12:53:52Z</time><pdop>3.0</pdop><geoidheight>51.00</geoidheight><course>236.3</course><type>1</type></trkpt>
      <trkpt lat="38.43726288" lon="-2.47303914"><ele>2068</ele><speed>6.89</speed><time>2016-06-02T12:53:53Z</time><pdop>3.0</pdop><geoidheight>51.00</geoidheight><course>250.9</course><type>1</type></trkpt>
      <trkpt lat="38.43727653" lon="-2.4731198"><ele>2066</ele><speed>6.83</speed><time>2016-06-02T12:53:54Z</time><pdop>4.0</pdop><geoidheight>51.00</geoidheight><course>271.4</course><type>1</type></trkpt>
      <trkpt lat="38.43731484" lon="-2.47328483"><ele>2067</ele><speed>7.70</speed><time>2016-06-02T12:53:56Z</time><pdop>6.0</pdop><geoidheight>51.00</geoidheight><course>286.1</course><type>1</type></trkpt>
      <trkpt lat="38.43745355" lon="-2.47341934"><ele>2065</ele><speed>8.06</speed><time>2016-06-02T12:53:58Z</time><pdop>7.0</pdop><geoidheight>51.00</geoidheight><course>319.1</course><type>1</type></trkpt>
      <trkpt lat="38.43758491" lon="-2.47346049"><ele>2065</ele><speed>9.85</speed><time>2016-06-02T12:53:59Z</time><pdop>7.0</pdop><geoidheight>51.00</geoidheight><course>335.5</course><type>1</type></trkpt>
      <trkpt lat="38.43781969" lon="-2.47348472"><ele>2068</ele><speed>11.06</speed><time>2016-06-02T12:54:01Z</time><pdop>9.0</pdop><geoidheight>51.00</geoidheight><course>348.9</course><type>1</type></trkpt>
      <trkpt lat="38.437997" lon="-2.47334928"><ele>2069</ele><speed>14.44</speed><time>2016-06-02T12:54:02Z</time><pdop>7.0</pdop><geoidheight>51.00</geoidheight><course>15.3</course><type>1</type></trkpt>
      <trkpt lat="38.4380004" lon="-2.47317366"><ele>2069</ele><speed>12.21</speed><time>2016-06-02T12:54:03Z</time><pdop>6.0</pdop><geoidheight>51.00</geoidheight><course>47.0</course><type>1</type></trkpt>
      <trkpt lat="38.43799057" lon="-2.47301633"><ele>2069</ele><speed>11.38</speed><time>2016-06-02T12:54:04Z</time><pdop>6.0</pdop><geoidheight>51.00</geoidheight><course>63.7</course><type>1</type></trkpt>
      <trkpt lat="38.4379915" lon="-2.47285199"><ele>2070</ele><speed>12.72</speed><time>2016-06-02T12:54:05Z</time><pdop>4.0</pdop><geoidheight>51.00</geoidheight><course>82.7</course><type>1</type></trkpt>
      <trkpt lat="38.43797417" lon="-2.47269929"><ele>2069</ele><speed>12.71</speed><time>2016-06-02T12:54:06Z</time><pdop>4.0</pdop><geoidheight>51.00</geoidheight><course>88.7</course><type>1</type></trkpt>
      <trkpt lat="38.43797129" lon="-2.47255358"><ele>2071</ele><speed>12.75</speed><time>2016-06-02T12:54:07Z</time><pdop>4.0</pdop><geoidheight>51.00</geoidheight><course>92.8</course><type>1</type></trkpt>
      <trkpt lat="38.43796869" lon="-2.47240779"><ele>2074</ele><speed>12.80</speed><time>2016-06-02T12:54:08Z</time><pdop>3.0</pdop><geoidheight>51.00</geoidheight><course>93.2</course><type>1</type></trkpt>
      <trkpt lat="38.43796622" lon="-2.47227517"><ele>2076</ele><speed>12.45</speed><time>2016-06-02T12:54:09Z</time><pdop>3.0</pdop><geoidheight>51.00</geoidheight><course>93.2</course><type>1</type></trkpt>
      <trkpt lat="38.4379551" lon="-2.47214113"><ele>2076</ele><speed>11.74</speed><time>2016-06-02T12:54:10Z</time><pdop>3.0</pdop><geoidheight>51.00</geoidheight><course>96.3</course><type>1</type></trkpt>
      <trkpt lat="38.43793146" lon="-2.472009"><ele>2076</ele><speed>11.24</speed><time>2016-06-02T12:54:11Z</time><pdop>3.0</pdop><geoidheight>51.00</geoidheight><course>101.9</course><type>1</type></trkpt>
      <trkpt lat="38.43791459" lon="-2.47188682"><ele>2076</ele><speed>11.05</speed><time>2016-06-02T12:54:12Z</time><pdop>3.0</pdop><geoidheight>51.00</geoidheight><course>102.3</course><type>1</type></trkpt>
      <trkpt lat="38.4378788" lon="-2.47175888"><ele>2076</ele><speed>11.41</speed><time>2016-06-02T12:54:13Z</time><pdop>4.0</pdop><geoidheight>51.00</geoidheight><course>105.7</course><type>1</type></trkpt>
      <trkpt lat="38.43783527" lon="-2.47163167"><ele>2076</ele><speed>11.86</speed><time>2016-06-02T12:54:14Z</time><pdop>6.0</pdop><geoidheight>51.00</geoidheight><course>109.2</course><type>1</type></trkpt>
      <trkpt lat="38.43773404" lon="-2.47155284"><ele>2076</ele><speed>11.61</speed><time>2016-06-02T12:54:15Z</time><pdop>6.0</pdop><geoidheight>51.00</geoidheight><course>123.3</course><type>1</type></trkpt>
      <trkpt lat="38.43766685" lon="-2.47137945"><ele>2075</ele><speed>9.44</speed><time>2016-06-02T12:54:17Z</time><pdop>6.0</pdop><geoidheight>51.00</geoidheight><course>122.4</course><type>1</type></trkpt>
      <trkpt lat="38.43750664" lon="-2.47139383"><ele>2077</ele><speed>6.52</speed><time>2016-06-02T12:54:19Z</time><pdop>6.0</pdop><geoidheight>51.00</geoidheight><course>162.2</course><type>1</type></trkpt>
      <trkpt lat="38.4374919" lon="-2.47164028"><ele>2075</ele><speed>4.38</speed><time>2016-06-02T12:54:22Z</time><pdop>8.0</pdop><geoidheight>51.00</geoidheight><course>274.2</course><type>1</type></trkpt>
      <trkpt lat="38.43756961" lon="-2.47191957"><ele>2074</ele><speed>7.81</speed><time>2016-06-02T12:54:24Z</time><pdop>9.0</pdop><geoidheight>51.00</geoidheight><course>289.9</course><type>1</type></trkpt>
      <trkpt lat="38.43782805" lon="-2.47177631"><ele>2073</ele><speed>7.04</speed><time>2016-06-02T12:54:27Z</time><pdop>10.0</pdop><geoidheight>51.00</geoidheight><course>17.9</course><type>1</type></trkpt>
      <trkpt lat="38.43800327" lon="-2.47161204"><ele>2074</ele><speed>11.86</speed><time>2016-06-02T12:54:28Z</time><pdop>8.0</pdop><geoidheight>51.00</geoidheight><course>33.6</course><type>1</type></trkpt>
      <trkpt lat="38.43814418" lon="-2.47138097"><ele>2077</ele><speed>10.97</speed><time>2016-06-02T12:54:30Z</time><pdop>10.0</pdop><geoidheight>51.00</geoidheight><course>43.7</course><type>1</type></trkpt>
      <trkpt lat="38.43810543" lon="-2.47100203"><ele>2078</ele><speed>12.26</speed><time>2016-06-02T12:54:32Z</time><pdop>7.0</pdop><geoidheight>51.00</geoidheight><course>75.0</course><type>1</type></trkpt>
      <trkpt lat="38.43802291" lon="-2.4708115"><ele>2079</ele><speed>13.63</speed><time>2016-06-02T12:54:33Z</time><pdop>5.0</pdop><geoidheight>51.00</geoidheight><course>94.3</course><type>1</type></trkpt>
      <trkpt lat="38.43799778" lon="-2.47063531"><ele>2078</ele><speed>14.35</speed><time>2016-06-02T12:54:34Z</time><pdop>5.0</pdop><geoidheight>51.00</geoidheight><course>98.8</course><type>1</type></trkpt>
      <trkpt lat="38.43796341" lon="-2.47047273"><ele>2080</ele><speed>14.17</speed><time>2016-06-02T12:54:35Z</time><pdop>5.0</pdop><geoidheight>51.00</geoidheight><course>101.5</course><type>1</type></trkpt>
      <trkpt lat="38.43794012" lon="-2.47034347"><ele>2079</ele><speed>13.15</speed><time>2016-06-02T12:54:36Z</time><pdop>4.0</pdop><geoidheight>51.00</geoidheight><course>102.4</course><type>1</type></trkpt>
      <trkpt lat="38.4379033" lon="-2.47023142"><ele>2080</ele><speed>12.19</speed><time>2016-06-02T12:54:37Z</time><pdop>3.0</pdop><geoidheight>51.00</geoidheight><course>104.5</course><type>1</type></trkpt>
      <trkpt lat="38.43787214" lon="-2.47009219"><ele>2082</ele><speed>12.07</speed><time>2016-06-02T12:54:38Z</time><pdop>4.0</pdop><geoidheight>51.00</geoidheight><course>103.5</course><type>1</type></trkpt>
      <trkpt lat="38.43783948" lon="-2.46996156"><ele>2083</ele><speed>11.94</speed><time>2016-06-02T12:54:39Z</time><pdop>4.0</pdop><geoidheight>51.00</geoidheight><course>104.3</course><type>1</type></trkpt>
      <trkpt lat="38.43779485" lon="-2.46984079"><ele>2086</ele><speed>11.77</speed><time>2016-06-02T12:54:40Z</time><pdop>5.0</pdop><geoidheight>51.00</geoidheight><course>107.6</course><type>1</type></trkpt>
      <trkpt lat="38.43774276" lon="-2.46975639"><ele>2085</ele><speed>10.89</speed><time>2016-06-02T12:54:41Z</time><pdop>4.0</pdop><geoidheight>51.00</geoidheight><course>119.7</course><type>1</type></trkpt>
      <trkpt lat="38.4376703" lon="-2.46967018"><ele>2086</ele><speed>10.37</speed><time>2016-06-02T12:54:42Z</time><pdop>4.0</pdop><geoidheight>51.00</geoidheight><course>135.3</course><type>1</type></trkpt>
      <trkpt lat="38.43760238" lon="-2.46959763"><ele>2085</ele><speed>10.00</speed><time>2016-06-02T12:54:43Z</time><pdop>5.0</pdop><geoidheight>51.00</geoidheight><course>139.3</course><type>1</type></trkpt>
      <trkpt lat="38.4374654" lon="-2.46953928"><ele>2088</ele><speed>8.18</speed><time>2016-06-02T12:54:45Z</time><pdop>8.0</pdop><geoidheight>51.00</geoidheight><course>155.6</course><type>1</type></trkpt>
      <trkpt lat="38.43727892" lon="-2.46968692"><ele>2088</ele><speed>9.29</speed><time>2016-06-02T12:54:47Z</time><pdop>7.0</pdop><geoidheight>51.00</geoidheight><course>199.9</course><type>1</type></trkpt>
      <trkpt lat="38.43719312" lon="-2.46983008"><ele>2089</ele><speed>7.30</speed><time>2016-06-02T12:54:49Z</time><pdop>8.0</pdop><geoidheight>51.00</geoidheight><course>214.6</course><type>1</type></trkpt>
      <trkpt lat="38.43731065" lon="-2.47004778"><ele>2090</ele><speed>4.78</speed><time>2016-06-02T12:54:52Z</time><pdop>12.0</pdop><geoidheight>51.00</geoidheight><course>281.6</course><type>1</type></trkpt>
      <trkpt lat="38.43766222" lon="-2.46981603"><ele>2094</ele><speed>9.41</speed><time>2016-06-02T12:54:55Z</time><pdop>12.0</pdop><geoidheight>51.00</geoidheight><course>33.7</course><type>1</type></trkpt>
      <trkpt lat="38.43774843" lon="-2.46942996"><ele>2097</ele><speed>13.31</speed><time>2016-06-02T12:54:57Z</time><pdop>10.0</pdop><geoidheight>51.00</geoidheight><course>71.7</course><type>1</type></trkpt>
      <trkpt lat="38.43780144" lon="-2.46912489"><ele>2101</ele><speed>13.17</speed><time>2016-06-02T12:54:59Z</time><pdop>10.0</pdop><geoidheight>51.00</geoidheight><course>78.2</course><type>1</type></trkpt>
      <trkpt lat="38.43781643" lon="-2.46881523"><ele>2108</ele><speed>12.70</speed><time>2016-06-02T12:55:01Z</time><pdop>9.0</pdop><geoidheight>51.00</geoidheight><course>90.0</course><type>1</type></trkpt>
      <trkpt lat="38.43777687" lon="-2.46858755"><ele>2114</ele><speed>9.13</speed><time>2016-06-02T12:55:03Z</time><pdop>9.0</pdop><geoidheight>51.00</geoidheight><course>111.1</course><type>1</type></trkpt>
      <trkpt lat="38.43762993" lon="-2.46831639"><ele>2118</ele><speed>9.89</speed><time>2016-06-02T12:55:06Z</time><pdop>10.0</pdop><geoidheight>51.00</geoidheight><course>129.8</course><type>1</type></trkpt>
      <trkpt lat="38.43744489" lon="-2.46814562"><ele>2119</ele><speed>11.50</speed><time>2016-06-02T12:55:08Z</time><pdop>10.0</pdop><geoidheight>51.00</geoidheight><course>143.1</course><type>1</type></trkpt>
      <trkpt lat="38.43725742" lon="-2.4680566"><ele>2123</ele><speed>9.83</speed><time>2016-06-02T12:55:10Z</time><pdop>9.0</pdop><geoidheight>51.00</geoidheight><course>150.0</course><type>1</type></trkpt>
      <trkpt lat="38.43708005" lon="-2.46799643"><ele>2126</ele><speed>9.20</speed><time>2016-06-02T12:55:12Z</time><pdop>9.0</pdop><geoidheight>51.00</geoidheight><course>165.3</course><type>1</type></trkpt>
      <trkpt lat="38.43690711" lon="-2.46809859"><ele>2129</ele><speed>10.60</speed><time>2016-06-02T12:55:14Z</time><pdop>9.0</pdop><geoidheight>51.00</geoidheight><course>208.0</course><type>1</type></trkpt>
      <trkpt lat="38.43684685" lon="-2.46835679"><ele>2130</ele><speed>6.74</speed><time>2016-06-02T12:55:17Z</time><pdop>10.0</pdop><geoidheight>51.00</geoidheight><course>259.7</course><type>1</type></trkpt>
      <trkpt lat="38.4370981" lon="-2.46847519"><ele>2126</ele><speed>5.82</speed><time>2016-06-02T12:55:21Z</time><pdop>11.0</pdop><geoidheight>51.00</geoidheight><course>3.4</course><type>1</type></trkpt>
      <trkpt lat="38.43733498" lon="-2.46829078"><ele>2127</ele><speed>10.73</speed><time>2016-06-02T12:55:23Z</time><pdop>10.0</pdop><geoidheight>51.00</geoidheight><course>47.5</course><type>1</type></trkpt>
      <trkpt lat="38.43745262" lon="-2.46804285"><ele>2128</ele><speed>11.15</speed><time>2016-06-02T12:55:25Z</time><pdop>10.0</pdop><geoidheight>51.00</geoidheight><course>62.9</course><type>1</type></trkpt>
      <trkpt lat="38.4375645" lon="-2.46780581"><ele>2132</ele><speed>11.38</speed><time>2016-06-02T12:55:27Z</time><pdop>10.0</pdop><geoidheight>51.00</geoidheight><course>63.9</course><type>1</type></trkpt>
      <trkpt lat="38.43764505" lon="-2.46756071"><ele>2138</ele><speed>11.62</speed><time>2016-06-02T12:55:29Z</time><pdop>10.0</pdop><geoidheight>51.00</geoidheight><course>71.6</course><type>1</type></trkpt>
      <trkpt lat="38.43770925" lon="-2.46731579"><ele>2141</ele><speed>10.86</speed><time>2016-06-02T12:55:31Z</time><pdop>10.0</pdop><geoidheight>51.00</geoidheight><course>66.6</course><type>1</type></trkpt>
      <trkpt lat="38.43783685" lon="-2.46714659"><ele>2143</ele><speed>10.00</speed><time>2016-06-02T12:55:33Z</time><pdop>10.0</pdop><geoidheight>51.00</geoidheight><course>47.1</course><type>1</type></trkpt>
      <trkpt lat="38.43805759" lon="-2.46711917"><ele>2142</ele><speed>6.29</speed><time>2016-06-02T12:55:36Z</time><pdop>12.0</pdop><geoidheight>51.00</geoidheight><course>12.1</course><type>1</type></trkpt>
      <trkpt lat="38.43808242" lon="-2.46745153"><ele>2142</ele><speed>5.39</speed><time>2016-06-02T12:55:39Z</time><pdop>13.0</pdop><geoidheight>51.00</geoidheight><course>267.0</course><type>1</type></trkpt>
      <trkpt lat="38.43787438" lon="-2.46770817"><ele>2143</ele><speed>7.02</speed><time>2016-06-02T12:55:41Z</time><pdop>12.0</pdop><geoidheight>51.00</geoidheight><course>210.1</course><type>1</type></trkpt>
      <trkpt lat="38.43765282" lon="-2.46777484"><ele>2144</ele><speed>9.08</speed><time>2016-06-02T12:55:43Z</time><pdop>11.0</pdop><geoidheight>51.00</geoidheight><course>187.2</course><type>1</type></trkpt>
      <trkpt lat="38.43741784" lon="-2.4676612"><ele>2145</ele><speed>9.08</speed><time>2016-06-02T12:55:46Z</time><pdop>12.0</pdop><geoidheight>51.00</geoidheight><course>161.4</course><type>1</type></trkpt>
      <trkpt lat="38.43725527" lon="-2.46744834"><ele>2147</ele><speed>11.38</speed><time>2016-06-02T12:55:48Z</time><pdop>11.0</pdop><geoidheight>51.00</geoidheight><course>143.1</course><type>1</type></trkpt>
      <trkpt lat="38.43727202" lon="-2.46706921"><ele>2154</ele><speed>12.13</speed><time>2016-06-02T12:55:50Z</time><pdop>10.0</pdop><geoidheight>51.00</geoidheight><course>90.7</course><type>1</type></trkpt>
      <trkpt lat="38.43724925" lon="-2.46677402"><ele>2158</ele><speed>12.04</speed><time>2016-06-02T12:55:52Z</time><pdop>9.0</pdop><geoidheight>51.00</geoidheight><course>96.0</course><type>1</type></trkpt>
      <trkpt lat="38.43723842" lon="-2.46649709"><ele>2159</ele><speed>11.88</speed><time>2016-06-02T12:55:54Z</time><pdop>9.0</pdop><geoidheight>51.00</geoidheight><course>92.3</course><type>1</type></trkpt>
      <trkpt lat="38.43730465" lon="-2.46625757"><ele>2161</ele><speed>10.84</speed><time>2016-06-02T12:55:56Z</time><pdop>9.0</pdop><geoidheight>51.00</geoidheight><course>66.7</course><type>1</type></trkpt>
      <trkpt lat="38.43746062" lon="-2.46611523"><ele>2161</ele><speed>10.26</speed><time>2016-06-02T12:55:58Z</time><pdop>9.0</pdop><geoidheight>51.00</geoidheight><course>34.7</course><type>1</type></trkpt>
      <trkpt lat="38.4375912" lon="-2.46631369"><ele>2160</ele><speed>8.47</speed><time>2016-06-02T12:56:01Z</time><pdop>4.0</pdop><geoidheight>51.00</geoidheight><course>297.1</course><type>1</type></trkpt>
      <trkpt lat="38.43759587" lon="-2.4664298"><ele>2161</ele><speed>8.70</speed><time>2016-06-02T12:56:02Z</time><pdop>3.0</pdop><geoidheight>51.00</geoidheight><course>273.6</course><type>1</type></trkpt>
      <trkpt lat="38.43759031" lon="-2.46653766"><ele>2161</ele><speed>9.11</speed><time>2016-06-02T12:56:03Z</time><pdop>4.0</pdop><geoidheight>51.00</geoidheight><course>267.0</course><type>1</type></trkpt>
      <trkpt lat="38.43755545" lon="-2.46663137"><ele>2161</ele><speed>9.44</speed><time>2016-06-02T12:56:04Z</time><pdop>5.0</pdop><geoidheight>51.00</geoidheight><course>254.7</course><type>1</type></trkpt>
      <trkpt lat="38.43747672" lon="-2.46679377"><ele>2165</ele><speed>8.61</speed><time>2016-06-02T12:56:06Z</time><pdop>5.0</pdop><geoidheight>51.00</geoidheight><course>237.4</course><type>1</type></trkpt>
      <trkpt lat="38.43742804" lon="-2.46688371"><ele>2166</ele><speed>8.08</speed><time>2016-06-02T12:56:07Z</time><pdop>4.0</pdop><geoidheight>51.00</geoidheight><course>238.9</course><type>1</type></trkpt>
      <trkpt lat="38.43738554" lon="-2.46696503"><ele>2167</ele><speed>7.77</speed><time>2016-06-02T12:56:08Z</time><pdop>4.0</pdop><geoidheight>51.00</geoidheight><course>237.9</course><type>1</type></trkpt>
      <trkpt lat="38.4372585" lon="-2.46708235"><ele>2165</ele><speed>7.94</speed><time>2016-06-02T12:56:10Z</time><pdop>4.0</pdop><geoidheight>51.00</geoidheight><course>213.9</course><type>1</type></trkpt>
      <trkpt lat="38.43718595" lon="-2.4671085"><ele>2163</ele><speed>8.59</speed><time>2016-06-02T12:56:11Z</time><pdop>4.0</pdop><geoidheight>51.00</geoidheight><course>195.7</course><type>1</type></trkpt>
      <trkpt lat="38.43703508" lon="-2.46705581"><ele>2165</ele><speed>9.04</speed><time>2016-06-02T12:56:13Z</time><pdop>4.0</pdop><geoidheight>51.00</geoidheight><course>157.8</course><type>1</type></trkpt>
      <trkpt lat="38.43694713" lon="-2.46698871"><ele>2166</ele><speed>9.67</speed><time>2016-06-02T12:56:14Z</time><pdop>5.0</pdop><geoidheight>51.00</geoidheight><course>153.5</course><type>1</type></trkpt>
      <trkpt lat="38.43687416" lon="-2.46686732"><ele>2165</ele><speed>11.67</speed><time>2016-06-02T12:56:15Z</time><pdop>6.0</pdop><geoidheight>51.00</geoidheight><course>141.5</course><type>1</type></trkpt>
      <trkpt lat="38.43688977" lon="-2.46666965"><ele>2165</ele><speed>12.12</speed><time>2016-06-02T12:56:16Z</time><pdop>4.0</pdop><geoidheight>51.00</geoidheight><course>108.1</course><type>1</type></trkpt>
      <trkpt lat="38.43686591" lon="-2.46655114"><ele>2166</ele><speed>10.55</speed><time>2016-06-02T12:56:17Z</time><pdop>4.0</pdop><geoidheight>51.00</geoidheight><course>104.4</course><type>1</type></trkpt>
      <trkpt lat="38.43683512" lon="-2.46643893"><ele>2165</ele><speed>9.23</speed><time>2016-06-02T12:56:18Z</time><pdop>3.0</pdop><geoidheight>51.00</geoidheight><course>107.9</course><type>1</type></trkpt>
      <trkpt lat="38.43679755" lon="-2.46632556"><ele>2165</ele><speed>9.49</speed><time>2016-06-02T12:56:19Z</time><pdop>3.0</pdop><geoidheight>51.00</geoidheight><course>106.8</course><type>1</type></trkpt>
      <trkpt lat="38.43679878" lon="-2.46620773"><ele>2164</ele><speed>10.49</speed><time>2016-06-02T12:56:20Z</time><pdop>3.0</pdop><geoidheight>51.00</geoidheight><course>94.8</course><type>1</type></trkpt>
      <trkpt lat="38.43679743" lon="-2.46607246"><ele>2163</ele><speed>10.94</speed><time>2016-06-02T12:56:21Z</time><pdop>4.0</pdop><geoidheight>51.00</geoidheight><course>92.8</course><type>1</type></trkpt>
      <trkpt lat="38.43682594" lon="-2.46592607"><ele>2162</ele><speed>12.30</speed><time>2016-06-02T12:56:22Z</time><pdop>4.0</pdop><geoidheight>51.00</geoidheight><course>82.2</course><type>1</type></trkpt>
      <trkpt lat="38.4368844" lon="-2.46578359"><ele>2159</ele><speed>13.34</speed><time>2016-06-02T12:56:23Z</time><pdop>4.0</pdop><geoidheight>51.00</geoidheight><course>70.3</course><type>1</type></trkpt>
      <trkpt lat="38.43693279" lon="-2.46564418"><ele>2158</ele><speed>12.77</speed><time>2016-06-02T12:56:24Z</time><pdop>4.0</pdop><geoidheight>51.00</geoidheight><course>68.5</course><type>1</type></trkpt>
      <trkpt lat="38.43700131" lon="-2.46551552"><ele>2157</ele><speed>12.81</speed><time>2016-06-02T12:56:25Z</time><pdop>4.0</pdop><geoidheight>51.00</geoidheight><course>61.5</course><type>1</type></trkpt>
      <trkpt lat="38.43705189" lon="-2.46538789"><ele>2155</ele><speed>12.14</speed><time>2016-06-02T12:56:26Z</time><pdop>4.0</pdop><geoidheight>51.00</geoidheight><course>63.6</course><type>1</type></trkpt>
      <trkpt lat="38.43710576" lon="-2.4652629"><ele>2154</ele><speed>12.48</speed><time>2016-06-02T12:56:27Z</time><pdop>4.0</pdop><geoidheight>51.00</geoidheight><course>62.5</course><type>1</type></trkpt>
      <trkpt lat="38.43715321" lon="-2.4651248"><ele>2152</ele><speed>13.28</speed><time>2016-06-02T12:56:28Z</time><pdop>4.0</pdop><geoidheight>51.00</geoidheight><course>64.3</course><type>1</type></trkpt>
      <trkpt lat="38.43720661" lon="-2.46497923"><ele>2151</ele><speed>13.61</speed><time>2016-06-02T12:56:29Z</time><pdop>4.0</pdop><geoidheight>51.00</geoidheight><course>64.6</course><type>1</type></trkpt>
      <trkpt lat="38.43725596" lon="-2.46484253"><ele>2151</ele><speed>13.16</speed><time>2016-06-02T12:56:30Z</time><pdop>5.0</pdop><geoidheight>51.00</geoidheight><course>65.0</course><type>1</type></trkpt>
      <trkpt lat="38.43727462" lon="-2.46469796"><ele>2151</ele><speed>12.28</speed><time>2016-06-02T12:56:31Z</time><pdop>4.0</pdop><geoidheight>51.00</geoidheight><course>70.1</course><type>1</type></trkpt>
      <trkpt lat="38.43732954" lon="-2.46458156"><ele>2150</ele><speed>11.72</speed><time>2016-06-02T12:56:32Z</time><pdop>4.0</pdop><geoidheight>51.00</geoidheight><course>69.3</course><type>1</type></trkpt>
      <trkpt lat="38.43737198" lon="-2.46445897"><ele>2150</ele><speed>11.45</speed><time>2016-06-02T12:56:33Z</time><pdop>4.0</pdop><geoidheight>51.00</geoidheight><course>67.9</course><type>1</type></trkpt>
      <trkpt lat="38.43741213" lon="-2.46433049"><ele>2148</ele><speed>11.91</speed><time>2016-06-02T12:56:34Z</time><pdop>4.0</pdop><geoidheight>51.00</geoidheight><course>70.2</course><type>1</type></trkpt>
      <trkpt lat="38.43741685" lon="-2.46418731"><ele>2146</ele><speed>12.20</speed><time>2016-06-02T12:56:35Z</time><pdop>4.0</pdop><geoidheight>51.00</geoidheight><course>77.0</course><type>1</type></trkpt>
      <trkpt lat="38.43746101" lon="-2.4640583"><ele>2145</ele><speed>12.73</speed><time>2016-06-02T12:56:36Z</time><pdop>4.0</pdop><geoidheight>51.00</geoidheight><course>76.8</course><type>1</type></trkpt>
      <trkpt lat="38.43750691" lon="-2.46390113"><ele>2144</ele><speed>13.86</speed><time>2016-06-02T12:56:37Z</time><pdop>4.0</pdop><geoidheight>51.00</geoidheight><course>70.6</course><type>1</type></trkpt>
      <trkpt lat="38.43752903" lon="-2.46373852"><ele>2143</ele><speed>14.16</speed><time>2016-06-02T12:56:38Z</time><pdop>4.0</pdop><geoidheight>51.00</geoidheight><course>75.6</course><type>1</type></trkpt>
      <trkpt lat="38.43755089" lon="-2.4635775"><ele>2144</ele><speed>13.79</speed><time>2016-06-02T12:56:39Z</time><pdop>4.0</pdop><geoidheight>51.00</geoidheight><course>79.0</course><type>1</type></trkpt>
      <trkpt lat="38.43752431" lon="-2.4634322"><ele>2143</ele><speed>12.11</speed><time>2016-06-02T12:56:40Z</time><pdop>4.0</pdop><geoidheight>51.00</geoidheight><course>93.7</course><type>1</type></trkpt>
      <trkpt lat="38.43750181" lon="-2.46331751"><ele>2148</ele><speed>10.61</speed><time>2016-06-02T12:56:41Z</time><pdop>3.0</pdop><geoidheight>51.00</geoidheight><course>98.6</course><type>1</type></trkpt>
      <trkpt lat="38.43748375" lon="-2.46321917"><ele>2148</ele><speed>8.87</speed><time>2016-06-02T12:56:42Z</time><pdop>3.0</pdop><geoidheight>51.00</geoidheight><course>97.4</course><type>1</type></trkpt>
      <trkpt lat="38.43747894" lon="-2.4631289"><ele>2149</ele><speed>7.88</speed><time>2016-06-02T12:56:43Z</time><pdop>4.0</pdop><geoidheight>51.00</geoidheight><course>92.5</course><type>1</type></trkpt>
      <trkpt lat="38.43747518" lon="-2.46303608"><ele>2147</ele><speed>8.46</speed><time>2016-06-02T12:56:44Z</time><pdop>3.0</pdop><geoidheight>51.00</geoidheight><course>88.8</course><type>1</type></trkpt>
      <trkpt lat="38.43747767" lon="-2.46293258"><ele>2146</ele><speed>9.29</speed><time>2016-06-02T12:56:45Z</time><pdop>4.0</pdop><geoidheight>51.00</geoidheight><course>89.3</course><type>1</type></trkpt>
      <trkpt lat="38.43750477" lon="-2.46277188"><ele>2145</ele><speed>12.70</speed><time>2016-06-02T12:56:46Z</time><pdop>4.0</pdop><geoidheight>51.00</geoidheight><course>80.2</course><type>1</type></trkpt>
      <trkpt lat="38.43753499" lon="-2.46261629"><ele>2144</ele><speed>13.85</speed><time>2016-06-02T12:56:47Z</time><pdop>3.0</pdop><geoidheight>51.00</geoidheight><course>78.3</course><type>1</type></trkpt>
      <trkpt lat="38.43756935" lon="-2.46244211"><ele>2143</ele><speed>15.02</speed><time>2016-06-02T12:56:48Z</time><pdop>3.0</pdop><geoidheight>51.00</geoidheight><course>74.2</course><type>1</type></trkpt>
      <trkpt lat="38.43760626" lon="-2.46229934"><ele>2144</ele><speed>13.19</speed><time>2016-06-02T12:56:49Z</time><pdop>4.0</pdop><geoidheight>51.00</geoidheight><course>73.1</course><type>1</type></trkpt>
      <trkpt lat="38.43761458" lon="-2.46220142"><ele>2146</ele><speed>9.93</speed><time>2016-06-02T12:56:50Z</time><pdop>4.0</pdop><geoidheight>51.00</geoidheight><course>78.3</course><type>1</type></trkpt>
      <trkpt lat="38.43760936" lon="-2.46202265"><ele>2146</ele><speed>7.70</speed><time>2016-06-02T12:56:52Z</time><pdop>6.0</pdop><geoidheight>51.00</geoidheight><course>87.9</course><type>1</type></trkpt>
      <trkpt lat="38.43763086" lon="-2.46179614"><ele>2145</ele><speed>10.04</speed><time>2016-06-02T12:56:54Z</time><pdop>6.0</pdop><geoidheight>51.00</geoidheight><course>81.8</course><type>1</type></trkpt>
      <trkpt lat="38.43765866" lon="-2.46163828"><ele>2142</ele><speed>13.15</speed><time>2016-06-02T12:56:55Z</time><pdop>5.0</pdop><geoidheight>51.00</geoidheight><course>78.0</course><type>1</type></trkpt>
      <trkpt lat="38.43770097" lon="-2.46147764"><ele>2140</ele><speed>14.67</speed><time>2016-06-02T12:56:56Z</time><pdop>5.0</pdop><geoidheight>51.00</geoidheight><course>72.2</course><type>1</type></trkpt>
      <trkpt lat="38.43773837" lon="-2.4613237"><ele>2140</ele><speed>14.53</speed><time>2016-06-02T12:56:57Z</time><pdop>4.0</pdop><geoidheight>51.00</geoidheight><course>69.8</course><type>1</type></trkpt>
      <trkpt lat="38.43778665" lon="-2.46117614"><ele>2141</ele><speed>13.59</speed><time>2016-06-02T12:56:58Z</time><pdop>4.0</pdop><geoidheight>51.00</geoidheight><course>69.9</course><type>1</type></trkpt>
      <trkpt lat="38.43782118" lon="-2.46102578"><ele>2142</ele><speed>13.27</speed><time>2016-06-02T12:56:59Z</time><pdop>4.0</pdop><geoidheight>51.00</geoidheight><course>71.9</course><type>1</type></trkpt>
      <trkpt lat="38.43786155" lon="-2.46087724"><ele>2143</ele><speed>13.56</speed><time>2016-06-02T12:57:00Z</time><pdop>4.0</pdop><geoidheight>51.00</geoidheight><course>73.3</course><type>1</type></trkpt>
      <trkpt lat="38.43790506" lon="-2.46072428"><ele>2143</ele><speed>14.06</speed><time>2016-06-02T12:57:01Z</time><pdop>4.0</pdop><geoidheight>51.00</geoidheight><course>72.7</course><type>1</type></trkpt>
      <trkpt lat="38.43791615" lon="-2.46054251"><ele>2142</ele><speed>14.88</speed><time>2016-06-02T12:57:02Z</time><pdop>4.0</pdop><geoidheight>51.00</geoidheight><course>78.7</course><type>1</type></trkpt>
      <trkpt lat="38.4379264" lon="-2.46034339"><ele>2146</ele><speed>16.09</speed><time>2016-06-02T12:57:03Z</time><pdop>4.0</pdop><geoidheight>51.00</geoidheight><course>83.4</course><type>1</type></trkpt>
      <trkpt lat="38.43793954" lon="-2.4601616"><ele>2147</ele><speed>15.57</speed><time>2016-06-02T12:57:04Z</time><pdop>4.0</pdop><geoidheight>51.00</geoidheight><course>85.0</course><type>1</type></trkpt>
      <trkpt lat="38.43792603" lon="-2.45998896"><ele>2150</ele><speed>14.86</speed><time>2016-06-02T12:57:05Z</time><pdop>9.0</pdop><geoidheight>51.00</geoidheight><course>90.3</course><type>1</type></trkpt>
      <trkpt lat="38.43790274" lon="-2.45965049"><ele>2151</ele><speed>14.76</speed><time>2016-06-02T12:57:07Z</time><pdop>9.0</pdop><geoidheight>51.00</geoidheight><course>96.2</course><type>1</type></trkpt>
      <trkpt lat="38.43775833" lon="-2.45936768"><ele>2151</ele><speed>14.52</speed><time>2016-06-02T12:57:09Z</time><pdop>10.0</pdop><geoidheight>51.00</geoidheight><course>119.3</course><type>1</type></trkpt>
      <trkpt lat="38.43751969" lon="-2.4593915"><ele>2156</ele><speed>8.07</speed><time>2016-06-02T12:57:12Z</time><pdop>10.0</pdop><geoidheight>51.00</geoidheight><course>191.3</course><type>1</type></trkpt>
      <trkpt lat="38.43734837" lon="-2.4595309"><ele>2158</ele><speed>6.21</speed><time>2016-06-02T12:57:15Z</time><pdop>10.0</pdop><geoidheight>51.00</geoidheight><course>215.3</course><type>1</type></trkpt>
      <trkpt lat="38.43737197" lon="-2.45978005"><ele>2156</ele><speed>5.70</speed><time>2016-06-02T12:57:18Z</time><pdop>10.0</pdop><geoidheight>51.00</geoidheight><course>268.9</course><type>1</type></trkpt>
      <trkpt lat="38.43761735" lon="-2.45970644"><ele>2158</ele><speed>6.22</speed><time>2016-06-02T12:57:21Z</time><pdop>13.0</pdop><geoidheight>51.00</geoidheight><course>18.4</course><type>1</type></trkpt>
      <trkpt lat="38.43787082" lon="-2.45939613"><ele>2163</ele><speed>13.35</speed><time>2016-06-02T12:57:23Z</time><pdop>10.0</pdop><geoidheight>51.00</geoidheight><course>50.8</course><type>1</type></trkpt>
      <trkpt lat="38.43801372" lon="-2.45909274"><ele>2165</ele><speed>14.36</speed><time>2016-06-02T12:57:25Z</time><pdop>9.0</pdop><geoidheight>51.00</geoidheight><course>66.5</course><type>1</type></trkpt>
      <trkpt lat="38.43809514" lon="-2.45876906"><ele>2168</ele><speed>14.27</speed><time>2016-06-02T12:57:27Z</time><pdop>9.0</pdop><geoidheight>51.00</geoidheight><course>76.9</course><type>1</type></trkpt>
      <trkpt lat="38.43802054" lon="-2.45847037"><ele>2167</ele><speed>13.64</speed><time>2016-06-02T12:57:29Z</time><pdop>9.0</pdop><geoidheight>51.00</geoidheight><course>107.3</course><type>1</type></trkpt>
      <trkpt lat="38.43792222" lon="-2.45818707"><ele>2165</ele><speed>13.42</speed><time>2016-06-02T12:57:31Z</time><pdop>9.0</pdop><geoidheight>51.00</geoidheight><course>114.8</course><type>1</type></trkpt>
      <trkpt lat="38.4378266" lon="-2.45796569"><ele>2167</ele><speed>10.97</speed><time>2016-06-02T12:57:33Z</time><pdop>9.0</pdop><geoidheight>51.00</geoidheight><course>117.9</course><type>1</type></trkpt>
      <trkpt lat="38.43771745" lon="-2.45778613"><ele>2167</ele><speed>10.39</speed><time>2016-06-02T12:57:35Z</time><pdop>9.0</pdop><geoidheight>51.00</geoidheight><course>125.1</course><type>1</type></trkpt>
      <trkpt lat="38.43757511" lon="-2.45749401"><ele>2167</ele><speed>15.26</speed><time>2016-06-02T12:57:37Z</time><pdop>9.0</pdop><geoidheight>51.00</geoidheight><course>119.8</course><type>1</type></trkpt>
      <trkpt lat="38.43748339" lon="-2.45712731"><ele>2167</ele><speed>15.58</speed><time>2016-06-02T12:57:39Z</time><pdop>9.0</pdop><geoidheight>51.00</geoidheight><course>108.7</course><type>1</type></trkpt>
      <trkpt lat="38.43743631" lon="-2.45682987"><ele>2168</ele><speed>13.21</speed><time>2016-06-02T12:57:41Z</time><pdop>10.0</pdop><geoidheight>51.00</geoidheight><course>104.1</course><type>1</type></trkpt>
      <trkpt lat="38.43728833" lon="-2.45655437"><ele>2169</ele><speed>14.45</speed><time>2016-06-02T12:57:43Z</time><pdop>9.0</pdop><geoidheight>51.00</geoidheight><course>118.0</course><type>1</type></trkpt>
      <trkpt lat="38.43716927" lon="-2.45630559"><ele>2168</ele><speed>12.97</speed><time>2016-06-02T12:57:45Z</time><pdop>9.0</pdop><geoidheight>51.00</geoidheight><course>112.9</course><type>1</type></trkpt>
      <trkpt lat="38.43713262" lon="-2.45601609"><ele>2164</ele><speed>13.19</speed><time>2016-06-02T12:57:47Z</time><pdop>10.0</pdop><geoidheight>51.00</geoidheight><course>101.0</course><type>1</type></trkpt>
      <trkpt lat="38.43722915" lon="-2.45571799"><ele>2163</ele><speed>13.56</speed><time>2016-06-02T12:57:49Z</time><pdop>11.0</pdop><geoidheight>51.00</geoidheight><course>79.0</course><type>1</type></trkpt>
      <trkpt lat="38.43735156" lon="-2.45541407"><ele>2164</ele><speed>14.17</speed><time>2016-06-02T12:57:51Z</time><pdop>11.0</pdop><geoidheight>51.00</geoidheight><course>69.7</course><type>1</type></trkpt>
      <trkpt lat="38.43747925" lon="-2.45513888"><ele>2161</ele><speed>13.24</speed><time>2016-06-02T12:57:53Z</time><pdop>12.0</pdop><geoidheight>51.00</geoidheight><course>62.9</course><type>1</type></trkpt>
      <trkpt lat="38.4376452" lon="-2.45488262"><ele>2157</ele><speed>15.32</speed><time>2016-06-02T12:57:55Z</time><pdop>12.0</pdop><geoidheight>51.00</geoidheight><course>51.8</course><type>1</type></trkpt>
      <trkpt lat="38.43779853" lon="-2.45459388"><ele>2153</ele><speed>15.54</speed><time>2016-06-02T12:57:57Z</time><pdop>12.0</pdop><geoidheight>51.00</geoidheight><course>51.6</course><type>1</type></trkpt>
      <trkpt lat="38.43792352" lon="-2.45431613"><ele>2149</ele><speed>14.16</speed><time>2016-06-02T12:57:59Z</time><pdop>11.0</pdop><geoidheight>51.00</geoidheight><course>55.5</course><type>1</type></trkpt>
      <trkpt lat="38.43806292" lon="-2.45405381"><ele>2147</ele><speed>14.08</speed><time>2016-06-02T12:58:01Z</time><pdop>11.0</pdop><geoidheight>51.00</geoidheight><course>54.8</course><type>1</type></trkpt>
      <trkpt lat="38.43824839" lon="-2.45371539"><ele>2145</ele><speed>17.68</speed><time>2016-06-02T12:58:03Z</time><pdop>12.0</pdop><geoidheight>51.00</geoidheight><course>55.3</course><type>1</type></trkpt>
      <trkpt lat="38.4384095" lon="-2.45337674"><ele>2143</ele><speed>17.24</speed><time>2016-06-02T12:58:05Z</time><pdop>13.0</pdop><geoidheight>51.00</geoidheight><course>55.6</course><type>1</type></trkpt>
      <trkpt lat="38.43848738" lon="-2.45304162"><ele>2139</ele><speed>15.00</speed><time>2016-06-02T12:58:07Z</time><pdop>13.0</pdop><geoidheight>51.00</geoidheight><course>59.2</course><type>1</type></trkpt>
      <trkpt lat="38.43868076" lon="-2.45276956"><ele>2138</ele><speed>15.76</speed><time>2016-06-02T12:58:09Z</time><pdop>13.0</pdop><geoidheight>51.00</geoidheight><course>56.1</course><type>1</type></trkpt>
      <trkpt lat="38.43886145" lon="-2.45243834"><ele>2136</ele><speed>18.06</speed><time>2016-06-02T12:58:11Z</time><pdop>14.0</pdop><geoidheight>51.00</geoidheight><course>54.4</course><type>1</type></trkpt>
      <trkpt lat="38.43901701" lon="-2.45208666"><ele>2131</ele><speed>17.97</speed><time>2016-06-02T12:58:13Z</time><pdop>14.0</pdop><geoidheight>51.00</geoidheight><course>57.6</course><type>1</type></trkpt>
      <trkpt lat="38.43916038" lon="-2.4517542"><ele>2124</ele><speed>16.71</speed><time>2016-06-02T12:58:15Z</time><pdop>12.0</pdop><geoidheight>51.00</geoidheight><course>59.3</course><type>1</type></trkpt>
      <trkpt lat="38.43933184" lon="-2.45143281"><ele>2121</ele><speed>17.23</speed><time>2016-06-02T12:58:17Z</time><pdop>12.0</pdop><geoidheight>51.00</geoidheight><course>59.1</course><type>1</type></trkpt>
      <trkpt lat="38.43947408" lon="-2.45104208"><ele>2118</ele><speed>18.87</speed><time>2016-06-02T12:58:19Z</time><pdop>13.0</pdop><geoidheight>51.00</geoidheight><course>60.3</course><type>1</type></trkpt>
      <trkpt lat="38.43958301" lon="-2.4506331"><ele>2115</ele><speed>19.12</speed><time>2016-06-02T12:58:21Z</time><pdop>12.0</pdop><geoidheight>51.00</geoidheight><course>64.3</course><type>1</type></trkpt>
      <trkpt lat="38.43967395" lon="-2.45025523"><ele>2112</ele><speed>16.95</speed><time>2016-06-02T12:58:23Z</time><pdop>11.0</pdop><geoidheight>51.00</geoidheight><course>67.1</course><type>1</type></trkpt>
      <trkpt lat="38.43979549" lon="-2.44994625"><ele>2110</ele><speed>15.63</speed><time>2016-06-02T12:58:25Z</time><pdop>11.0</pdop><geoidheight>51.00</geoidheight><course>66.6</course><type>1</type></trkpt>
      <trkpt lat="38.43992552" lon="-2.44958751"><ele>2109</ele><speed>17.82</speed><time>2016-06-02T12:58:27Z</time><pdop>12.0</pdop><geoidheight>51.00</geoidheight><course>65.6</course><type>1</type></trkpt>
      <trkpt lat="38.44006102" lon="-2.44918666"><ele>2104</ele><speed>19.28</speed><time>2016-06-02T12:58:29Z</time><pdop>12.0</pdop><geoidheight>51.00</geoidheight><course>65.8</course><type>1</type></trkpt>
      <trkpt lat="38.44024133" lon="-2.44880065"><ele>2099</ele><speed>19.53</speed><time>2016-06-02T12:58:31Z</time><pdop>11.0</pdop><geoidheight>51.00</geoidheight><course>62.3</course><type>1</type></trkpt>
      <trkpt lat="38.44041129" lon="-2.44840911"><ele>2097</ele><speed>19.60</speed><time>2016-06-02T12:58:33Z</time><pdop>11.0</pdop><geoidheight>51.00</geoidheight><course>61.7</course><type>1</type></trkpt>
      <trkpt lat="38.44056774" lon="-2.44808522"><ele>2095</ele><speed>16.68</speed><time>2016-06-02T12:58:35Z</time><pdop>11.0</pdop><geoidheight>51.00</geoidheight><course>61.5</course><type>1</type></trkpt>
      <trkpt lat="38.44066608" lon="-2.44778169"><ele>2086</ele><speed>12.04</speed><time>2016-06-02T12:58:38Z</time><pdop>11.0</pdop><geoidheight>51.00</geoidheight><course>63.5</course><type>1</type></trkpt>
      <trkpt lat="38.44080286" lon="-2.44743729"><ele>2081</ele><speed>17.35</speed><time>2016-06-02T12:58:40Z</time><pdop>12.0</pdop><geoidheight>51.00</geoidheight><course>63.1</course><type>1</type></trkpt>
      <trkpt lat="38.44092612" lon="-2.44707112"><ele>2079</ele><speed>16.83</speed><time>2016-06-02T12:58:42Z</time><pdop>12.0</pdop><geoidheight>51.00</geoidheight><course>65.5</course><type>1</type></trkpt>
      <trkpt lat="38.44100782" lon="-2.44679859"><ele>2072</ele><speed>13.04</speed><time>2016-06-02T12:58:44Z</time><pdop>11.0</pdop><geoidheight>51.00</geoidheight><course>63.7</course><type>1</type></trkpt>
      <trkpt lat="38.44113255" lon="-2.44653224"><ele>2066</ele><speed>14.09</speed><time>2016-06-02T12:58:46Z</time><pdop>11.0</pdop><geoidheight>51.00</geoidheight><course>58.9</course><type>1</type></trkpt>
      <trkpt lat="38.44127183" lon="-2.44619396"><ele>2062</ele><speed>16.76</speed><time>2016-06-02T12:58:48Z</time><pdop>11.0</pdop><geoidheight>51.00</geoidheight><course>62.7</course><type>1</type></trkpt>
      <trkpt lat="38.44144264" lon="-2.44587258"><ele>2057</ele><speed>16.09</speed><time>2016-06-02T12:58:50Z</time><pdop>11.0</pdop><geoidheight>51.00</geoidheight><course>58.0</course><type>1</type></trkpt>
      <trkpt lat="38.44157823" lon="-2.4456035"><ele>2054</ele><speed>14.75</speed><time>2016-06-02T12:58:52Z</time><pdop>12.0</pdop><geoidheight>51.00</geoidheight><course>56.7</course><type>1</type></trkpt>
      <trkpt lat="38.44171369" lon="-2.44531494"><ele>2052</ele><speed>14.52</speed><time>2016-06-02T12:58:54Z</time><pdop>13.0</pdop><geoidheight>51.00</geoidheight><course>57.3</course><type>1</type></trkpt>
      <trkpt lat="38.44188414" lon="-2.44507215"><ele>2050</ele><speed>14.40</speed><time>2016-06-02T12:58:56Z</time><pdop>15.0</pdop><geoidheight>51.00</geoidheight><course>54.4</course><type>1</type></trkpt>
      <trkpt lat="38.44207964" lon="-2.4446184"><ele>2048</ele><speed>15.41</speed><time>2016-06-02T12:58:59Z</time><pdop>14.0</pdop><geoidheight>51.00</geoidheight><course>57.3</course><type>1</type></trkpt>
      <trkpt lat="38.44236208" lon="-2.4444136"><ele>2046</ele><speed>16.07</speed><time>2016-06-02T12:59:01Z</time><pdop>12.0</pdop><geoidheight>51.00</geoidheight><course>40.7</course><type>1</type></trkpt>
      <trkpt lat="38.44258226" lon="-2.44420574"><ele>2046</ele><speed>14.42</speed><time>2016-06-02T12:59:03Z</time><pdop>11.0</pdop><geoidheight>51.00</geoidheight><course>38.9</course><type>1</type></trkpt>
      <trkpt lat="38.44278647" lon="-2.44403212"><ele>2045</ele><speed>13.81</speed><time>2016-06-02T12:59:05Z</time><pdop>11.0</pdop><geoidheight>51.00</geoidheight><course>33.8</course><type>1</type></trkpt>
      <trkpt lat="38.44300475" lon="-2.44385506"><ele>2045</ele><speed>13.96</speed><time>2016-06-02T12:59:07Z</time><pdop>11.0</pdop><geoidheight>51.00</geoidheight><course>38.8</course><type>1</type></trkpt>
      <trkpt lat="38.44319751" lon="-2.44368639"><ele>2042</ele><speed>12.78</speed><time>2016-06-02T12:59:09Z</time><pdop>10.0</pdop><geoidheight>51.00</geoidheight><course>33.8</course><type>1</type></trkpt>
      <trkpt lat="38.44337544" lon="-2.44354921"><ele>2038</ele><speed>11.73</speed><time>2016-06-02T12:59:11Z</time><pdop>12.0</pdop><geoidheight>51.00</geoidheight><course>33.0</course><type>1</type></trkpt>
      <trkpt lat="38.44367589" lon="-2.44345343"><ele>2035</ele><speed>12.15</speed><time>2016-06-02T12:59:14Z</time><pdop>12.0</pdop><geoidheight>51.00</geoidheight><course>22.5</course><type>1</type></trkpt>
      <trkpt lat="38.44389538" lon="-2.44321823"><ele>2033</ele><speed>14.82</speed><time>2016-06-02T12:59:16Z</time><pdop>13.0</pdop><geoidheight>51.00</geoidheight><course>39.7</course><type>1</type></trkpt>
      <trkpt lat="38.44396678" lon="-2.44283306"><ele>2032</ele><speed>15.27</speed><time>2016-06-02T12:59:18Z</time><pdop>7.0</pdop><geoidheight>51.00</geoidheight><course>63.8</course><type>1</type></trkpt>
      <trkpt lat="38.44402597" lon="-2.44267691"><ele>2031</ele><speed>15.38</speed><time>2016-06-02T12:59:19Z</time><pdop>6.0</pdop><geoidheight>51.00</geoidheight><course>63.8</course><type>1</type></trkpt>
      <trkpt lat="38.44408548" lon="-2.44251801"><ele>2026</ele><speed>15.71</speed><time>2016-06-02T12:59:20Z</time><pdop>6.0</pdop><geoidheight>51.00</geoidheight><course>64.3</course><type>1</type></trkpt>
      <trkpt lat="38.44415593" lon="-2.4423474"><ele>2024</ele><speed>16.16</speed><time>2016-06-02T12:59:21Z</time><pdop>6.0</pdop><geoidheight>51.00</geoidheight><course>64.0</course><type>1</type></trkpt>
      <trkpt lat="38.44422406" lon="-2.44217718"><ele>2023</ele><speed>16.32</speed><time>2016-06-02T12:59:22Z</time><pdop>6.0</pdop><geoidheight>51.00</geoidheight><course>63.8</course><type>1</type></trkpt>
      <trkpt lat="38.44428387" lon="-2.4420148"><ele>2021</ele><speed>15.86</speed><time>2016-06-02T12:59:23Z</time><pdop>7.0</pdop><geoidheight>51.00</geoidheight><course>63.3</course><type>1</type></trkpt>
      <trkpt lat="38.44434254" lon="-2.44185947"><ele>2020</ele><speed>15.09</speed><time>2016-06-02T12:59:24Z</time><pdop>7.0</pdop><geoidheight>51.00</geoidheight><course>64.0</course><type>1</type></trkpt>
      <trkpt lat="38.44445554" lon="-2.44155512"><ele>2018</ele><speed>14.56</speed><time>2016-06-02T12:59:26Z</time><pdop>7.0</pdop><geoidheight>51.00</geoidheight><course>65.8</course><type>1</type></trkpt>
      <trkpt lat="38.44460973" lon="-2.44126164"><ele>2016</ele><speed>15.25</speed><time>2016-06-02T12:59:28Z</time><pdop>9.0</pdop><geoidheight>51.00</geoidheight><course>62.5</course><type>1</type></trkpt>
      <trkpt lat="38.4446785" lon="-2.44093201"><ele>2011</ele><speed>14.41</speed><time>2016-06-02T12:59:30Z</time><pdop>7.0</pdop><geoidheight>51.00</geoidheight><course>66.8</course><type>1</type></trkpt>
      <trkpt lat="38.44475705" lon="-2.44080528"><ele>2008</ele><speed>13.84</speed><time>2016-06-02T12:59:31Z</time><pdop>6.0</pdop><geoidheight>51.00</geoidheight><course>64.2</course><type>1</type></trkpt>
      <trkpt lat="38.44482806" lon="-2.44066962"><ele>2005</ele><speed>14.19</speed><time>2016-06-02T12:59:32Z</time><pdop>6.0</pdop><geoidheight>51.00</geoidheight><course>59.9</course><type>1</type></trkpt>
      <trkpt lat="38.44488382" lon="-2.44051783"><ele>2003</ele><speed>14.88</speed><time>2016-06-02T12:59:33Z</time><pdop>6.0</pdop><geoidheight>51.00</geoidheight><course>59.8</course><type>1</type></trkpt>
      <trkpt lat="38.44494348" lon="-2.44035722"><ele>2000</ele><speed>15.33</speed><time>2016-06-02T12:59:34Z</time><pdop>6.0</pdop><geoidheight>51.00</geoidheight><course>60.2</course><type>1</type></trkpt>
      <trkpt lat="38.44501975" lon="-2.44020729"><ele>1997</ele><speed>15.42</speed><time>2016-06-02T12:59:35Z</time><pdop>6.0</pdop><geoidheight>51.00</geoidheight><course>60.1</course><type>1</type></trkpt>
      <trkpt lat="38.44508472" lon="-2.44006344"><ele>1994</ele><speed>15.18</speed><time>2016-06-02T12:59:36Z</time><pdop>6.0</pdop><geoidheight>51.00</geoidheight><course>59.7</course><type>1</type></trkpt>
      <trkpt lat="38.44515335" lon="-2.43991286"><ele>1994</ele><speed>14.94</speed><time>2016-06-02T12:59:37Z</time><pdop>6.0</pdop><geoidheight>51.00</geoidheight><course>59.3</course><type>1</type></trkpt>
      <trkpt lat="38.44523041" lon="-2.4397707"><ele>1992</ele><speed>14.92</speed><time>2016-06-02T12:59:38Z</time><pdop>7.0</pdop><geoidheight>51.00</geoidheight><course>58.7</course><type>1</type></trkpt>
      <trkpt lat="38.44539321" lon="-2.43947642"><ele>1991</ele><speed>15.62</speed><time>2016-06-02T12:59:40Z</time><pdop>12.0</pdop><geoidheight>51.00</geoidheight><course>57.5</course><type>1</type></trkpt>
      <trkpt lat="38.4456842" lon="-2.43925218"><ele>1989</ele><speed>16.80</speed><time>2016-06-02T12:59:42Z</time><pdop>14.0</pdop><geoidheight>51.00</geoidheight><course>46.0</course><type>1</type></trkpt>
      <trkpt lat="38.44579602" lon="-2.43894336"><ele>1985</ele><speed>15.33</speed><time>2016-06-02T12:59:44Z</time><pdop>11.0</pdop><geoidheight>51.00</geoidheight><course>53.8</course><type>1</type></trkpt>
      <trkpt lat="38.44599197" lon="-2.43873081"><ele>1978</ele><speed>14.13</speed><time>2016-06-02T12:59:46Z</time><pdop>11.0</pdop><geoidheight>51.00</geoidheight><course>52.8</course><type>1</type></trkpt>
      <trkpt lat="38.44613621" lon="-2.43843267"><ele>1977</ele><speed>14.96</speed><time>2016-06-02T12:59:48Z</time><pdop>14.0</pdop><geoidheight>51.00</geoidheight><course>55.2</course><type>1</type></trkpt>
      <trkpt lat="38.44621259" lon="-2.43809215"><ele>1973</ele><speed>14.67</speed><time>2016-06-02T12:59:50Z</time><pdop>11.0</pdop><geoidheight>51.00</geoidheight><course>59.2</course><type>1</type></trkpt>
      <trkpt lat="38.44634343" lon="-2.43780645"><ele>1970</ele><speed>14.72</speed><time>2016-06-02T12:59:52Z</time><pdop>12.0</pdop><geoidheight>51.00</geoidheight><course>59.5</course><type>1</type></trkpt>
      <trkpt lat="38.44650664" lon="-2.43751934"><ele>1967</ele><speed>15.01</speed><time>2016-06-02T12:59:54Z</time><pdop>12.0</pdop><geoidheight>51.00</geoidheight><course>55.5</course><type>1</type></trkpt>
      <trkpt lat="38.44667613" lon="-2.43726696"><ele>1963</ele><speed>14.83</speed><time>2016-06-02T12:59:56Z</time><pdop>12.0</pdop><geoidheight>51.00</geoidheight><course>52.9</course><type>1</type></trkpt>
      <trkpt lat="38.44670005" lon="-2.43692453"><ele>1961</ele><speed>14.45</speed><time>2016-06-02T12:59:58Z</time><pdop>16.0</pdop><geoidheight>51.00</geoidheight><course>62.9</course><type>1</type></trkpt>
      <trkpt lat="38.44687364" lon="-2.43650476"><ele>1948</ele><speed>14.48</speed><time>2016-06-02T13:00:01Z</time><pdop>14.0</pdop><geoidheight>51.00</geoidheight><course>62.6</course><type>1</type></trkpt>
      <trkpt lat="38.44700536" lon="-2.4362093"><ele>1939</ele><speed>15.51</speed><time>2016-06-02T13:00:03Z</time><pdop>10.0</pdop><geoidheight>51.00</geoidheight><course>54.2</course><type>1</type></trkpt>
      <trkpt lat="38.44719798" lon="-2.43588797"><ele>1936</ele><speed>17.27</speed><time>2016-06-02T13:00:05Z</time><pdop>11.0</pdop><geoidheight>51.00</geoidheight><course>54.8</course><type>1</type></trkpt>
      <trkpt lat="38.44730874" lon="-2.43550942"><ele>1934</ele><speed>16.91</speed><time>2016-06-02T13:00:07Z</time><pdop>12.0</pdop><geoidheight>51.00</geoidheight><course>59.6</course><type>1</type></trkpt>
      <trkpt lat="38.44751589" lon="-2.43531614"><ele>1925</ele><speed>15.58</speed><time>2016-06-02T13:00:09Z</time><pdop>9.0</pdop><geoidheight>51.00</geoidheight><course>49.3</course><type>1</type></trkpt>
      <trkpt lat="38.44769799" lon="-2.43501707"><ele>1921</ele><speed>15.67</speed><time>2016-06-02T13:00:11Z</time><pdop>10.0</pdop><geoidheight>51.00</geoidheight><course>52.1</course><type>1</type></trkpt>
      <trkpt lat="38.44788003" lon="-2.43471398"><ele>1918</ele><speed>16.43</speed><time>2016-06-02T13:00:13Z</time><pdop>12.0</pdop><geoidheight>51.00</geoidheight><course>52.3</course><type>1</type></trkpt>
      <trkpt lat="38.44815242" lon="-2.43447776"><ele>1914</ele><speed>17.04</speed><time>2016-06-02T13:00:15Z</time><pdop>15.0</pdop><geoidheight>51.00</geoidheight><course>44.9</course><type>1</type></trkpt>
      <trkpt lat="38.44844187" lon="-2.43423619"><ele>1910</ele><speed>17.59</speed><time>2016-06-02T13:00:17Z</time><pdop>14.0</pdop><geoidheight>51.00</geoidheight><course>40.8</course><type>1</type></trkpt>
      <trkpt lat="38.44850045" lon="-2.433877"><ele>1904</ele><speed>16.13</speed><time>2016-06-02T13:00:19Z</time><pdop>9.0</pdop><geoidheight>51.00</geoidheight><course>52.8</course><type>1</type></trkpt>
      <trkpt lat="38.44861698" lon="-2.43356511"><ele>1898</ele><speed>15.91</speed><time>2016-06-02T13:00:21Z</time><pdop>7.0</pdop><geoidheight>51.00</geoidheight><course>53.9</course><type>1</type></trkpt>
      <trkpt lat="38.44872955" lon="-2.43343527"><ele>1894</ele><speed>15.93</speed><time>2016-06-02T13:00:22Z</time><pdop>6.0</pdop><geoidheight>51.00</geoidheight><course>50.8</course><type>1</type></trkpt>
      <trkpt lat="38.44892525" lon="-2.433184"><ele>1885</ele><speed>15.86</speed><time>2016-06-02T13:00:24Z</time><pdop>10.0</pdop><geoidheight>51.00</geoidheight><course>46.6</course><type>1</type></trkpt>
      <trkpt lat="38.44910822" lon="-2.43292163"><ele>1883</ele><speed>15.46</speed><time>2016-06-02T13:00:26Z</time><pdop>10.0</pdop><geoidheight>51.00</geoidheight><course>47.5</course><type>1</type></trkpt>
      <trkpt lat="38.44929765" lon="-2.4326679"><ele>1877</ele><speed>15.42</speed><time>2016-06-02T13:00:28Z</time><pdop>10.0</pdop><geoidheight>51.00</geoidheight><course>45.1</course><type>1</type></trkpt>
      <trkpt lat="38.44947509" lon="-2.43243761"><ele>1874</ele><speed>14.65</speed><time>2016-06-02T13:00:30Z</time><pdop>10.0</pdop><geoidheight>51.00</geoidheight><course>46.4</course><type>1</type></trkpt>
      <trkpt lat="38.44963893" lon="-2.43218369"><ele>1870</ele><speed>15.05</speed><time>2016-06-02T13:00:32Z</time><pdop>11.0</pdop><geoidheight>51.00</geoidheight><course>49.4</course><type>1</type></trkpt>
      <trkpt lat="38.44985817" lon="-2.43194981"><ele>1866</ele><speed>15.58</speed><time>2016-06-02T13:00:34Z</time><pdop>12.0</pdop><geoidheight>51.00</geoidheight><course>42.5</course><type>1</type></trkpt>
      <trkpt lat="38.45015528" lon="-2.43179653"><ele>1859</ele><speed>16.68</speed><time>2016-06-02T13:00:36Z</time><pdop>12.0</pdop><geoidheight>51.00</geoidheight><course>35.7</course><type>1</type></trkpt>
      <trkpt lat="38.4503935" lon="-2.43153856"><ele>1851</ele><speed>17.11</speed><time>2016-06-02T13:00:38Z</time><pdop>11.0</pdop><geoidheight>51.00</geoidheight><course>43.0</course><type>1</type></trkpt>
      <trkpt lat="38.45059156" lon="-2.43126612"><ele>1845</ele><speed>16.91</speed><time>2016-06-02T13:00:40Z</time><pdop>11.0</pdop><geoidheight>51.00</geoidheight><course>43.2</course><type>1</type></trkpt>
      <trkpt lat="38.45075447" lon="-2.43096035"><ele>1841</ele><speed>16.64</speed><time>2016-06-02T13:00:42Z</time><pdop>12.0</pdop><geoidheight>51.00</geoidheight><course>46.8</course><type>1</type></trkpt>
      <trkpt lat="38.45088413" lon="-2.43068655"><ele>1833</ele><speed>15.54</speed><time>2016-06-02T13:00:44Z</time><pdop>12.0</pdop><geoidheight>51.00</geoidheight><course>52.1</course><type>1</type></trkpt>
      <trkpt lat="38.45105235" lon="-2.43041507"><ele>1825</ele><speed>15.77</speed><time>2016-06-02T13:00:46Z</time><pdop>11.0</pdop><geoidheight>51.00</geoidheight><course>46.9</course><type>1</type></trkpt>
      <trkpt lat="38.45129835" lon="-2.43020035"><ele>1823</ele><speed>15.87</speed><time>2016-06-02T13:00:48Z</time><pdop>11.0</pdop><geoidheight>51.00</geoidheight><course>39.9</course><type>1</type></trkpt>
      <trkpt lat="38.45151112" lon="-2.42997209"><ele>1817</ele><speed>15.07</speed><time>2016-06-02T13:00:50Z</time><pdop>10.0</pdop><geoidheight>51.00</geoidheight><course>38.4</course><type>1</type></trkpt>
      <trkpt lat="38.45184005" lon="-2.42966726"><ele>2061</ele><speed>14.03</speed><time>2016-06-02T13:00:53Z</time><pdop>9.0</pdop><geoidheight>51.00</geoidheight><course>37.1</course><type>1</type></trkpt>
      <trkpt lat="38.45205955" lon="-2.42945995"><ele>1875</ele><speed>15.15</speed><time>2016-06-02T13:00:55Z</time><pdop>9.0</pdop><geoidheight>51.00</geoidheight><course>37.5</course><type>1</type></trkpt>
      <trkpt lat="38.45226754" lon="-2.42928663"><ele>1844</ele><speed>12.90</speed><time>2016-06-02T13:00:57Z</time><pdop>9.0</pdop><geoidheight>51.00</geoidheight><course>34.1</course><type>1</type></trkpt>
      <trkpt lat="38.45241504" lon="-2.42914438"><ele>1823</ele><speed>9.21</speed><time>2016-06-02T13:00:59Z</time><pdop>9.0</pdop><geoidheight>51.00</geoidheight><course>36.2</course><type>1</type></trkpt>
      <trkpt lat="38.45264414" lon="-2.42894095"><ele>1814</ele><speed>11.62</speed><time>2016-06-02T13:01:02Z</time><pdop>11.0</pdop><geoidheight>51.00</geoidheight><course>35.0</course><type>1</type></trkpt>
      <trkpt lat="38.45286804" lon="-2.42870772"><ele>1809</ele><speed>16.26</speed><time>2016-06-02T13:01:04Z</time><pdop>11.0</pdop><geoidheight>51.00</geoidheight><course>41.6</course><type>1</type></trkpt>
      <trkpt lat="38.45309254" lon="-2.42848057"><ele>1803</ele><speed>16.14</speed><time>2016-06-02T13:01:06Z</time><pdop>11.0</pdop><geoidheight>51.00</geoidheight><course>41.0</course><type>1</type></trkpt>
      <trkpt lat="38.45327309" lon="-2.42832679"><ele>1799</ele><speed>11.91</speed><time>2016-06-02T13:01:08Z</time><pdop>10.0</pdop><geoidheight>51.00</geoidheight><course>33.7</course><type>1</type></trkpt>
      <trkpt lat="38.45341484" lon="-2.42814684"><ele>1798</ele><speed>8.54</speed><time>2016-06-02T13:01:11Z</time><pdop>10.0</pdop><geoidheight>51.00</geoidheight><course>41.1</course><type>1</type></trkpt>
      <trkpt lat="38.45360769" lon="-2.42795292"><ele>1801</ele><speed>9.83</speed><time>2016-06-02T13:01:14Z</time><pdop>10.0</pdop><geoidheight>51.00</geoidheight><course>30.9</course><type>1</type></trkpt>
      <trkpt lat="38.45380669" lon="-2.42802009"><ele>1807</ele><speed>5.88</speed><time>2016-06-02T13:01:18Z</time><pdop>10.0</pdop><geoidheight>51.00</geoidheight><course>333.5</course><type>1</type></trkpt>
      <trkpt lat="38.45362962" lon="-2.42817256"><ele>1812</ele><speed>5.75</speed><time>2016-06-02T13:01:23Z</time><pdop>10.0</pdop><geoidheight>51.00</geoidheight><course>193.8</course><type>1</type></trkpt>
      <trkpt lat="38.45340277" lon="-2.42805807"><ele>1814</ele><speed>7.00</speed><time>2016-06-02T13:01:26Z</time><pdop>13.0</pdop><geoidheight>51.00</geoidheight><course>159.7</course><type>1</type></trkpt>
      <trkpt lat="38.45331034" lon="-2.42757088"><ele>1818</ele><speed>14.65</speed><time>2016-06-02T13:01:28Z</time><pdop>12.0</pdop><geoidheight>51.00</geoidheight><course>108.0</course><type>1</type></trkpt>
      <trkpt lat="38.45334628" lon="-2.42713404"><ele>1823</ele><speed>16.28</speed><time>2016-06-02T13:01:30Z</time><pdop>11.0</pdop><geoidheight>51.00</geoidheight><course>84.9</course><type>1</type></trkpt>
      <trkpt lat="38.4533722" lon="-2.42677389"><ele>1830</ele><speed>13.53</speed><time>2016-06-02T13:01:32Z</time><pdop>12.0</pdop><geoidheight>51.00</geoidheight><course>83.4</course><type>1</type></trkpt>
      <trkpt lat="38.45353689" lon="-2.42646413"><ele>1836</ele><speed>10.63</speed><time>2016-06-02T13:01:35Z</time><pdop>13.0</pdop><geoidheight>51.00</geoidheight><course>64.8</course><type>1</type></trkpt>
      <trkpt lat="38.45372069" lon="-2.42674321"><ele>2063</ele><speed>3.63</speed><time>2016-06-02T13:01:41Z</time><pdop>13.0</pdop><geoidheight>51.00</geoidheight><course>279.3</course><type>1</type></trkpt>
      <trkpt lat="38.45342106" lon="-2.42665321"><ele>1991</ele><speed>6.70</speed><time>2016-06-02T13:01:45Z</time><pdop>13.0</pdop><geoidheight>51.00</geoidheight><course>164.6</course><type>1</type></trkpt>
      <trkpt lat="38.45335437" lon="-2.42606522"><ele>1970</ele><speed>14.71</speed><time>2016-06-02T13:01:48Z</time><pdop>10.0</pdop><geoidheight>51.00</geoidheight><course>92.3</course><type>1</type></trkpt>
      <trkpt lat="38.45339598" lon="-2.42569819"><ele>1960</ele><speed>14.46</speed><time>2016-06-02T13:01:50Z</time><pdop>10.0</pdop><geoidheight>51.00</geoidheight><course>75.8</course><type>1</type></trkpt>
      <trkpt lat="38.45351092" lon="-2.42539178"><ele>1953</ele><speed>13.32</speed><time>2016-06-02T13:01:52Z</time><pdop>10.0</pdop><geoidheight>51.00</geoidheight><course>55.8</course><type>1</type></trkpt>
      <trkpt lat="38.45365443" lon="-2.42517504"><ele>1943</ele><speed>12.22</speed><time>2016-06-02T13:01:54Z</time><pdop>9.0</pdop><geoidheight>51.00</geoidheight><course>34.7</course><type>1</type></trkpt>
      <trkpt lat="38.45379065" lon="-2.42499836"><ele>1932</ele><speed>10.80</speed><time>2016-06-02T13:01:56Z</time><pdop>8.0</pdop><geoidheight>51.00</geoidheight><course>28.0</course><type>1</type></trkpt>
      <trkpt lat="38.45391738" lon="-2.42508544"><ele>2035</ele><speed>6.09</speed><time>2016-06-02T13:01:59Z</time><pdop>7.0</pdop><geoidheight>51.00</geoidheight><course>333.3</course><type>1</type></trkpt>
      <trkpt lat="38.45381209" lon="-2.42511877"><ele>1969</ele><speed>5.34</speed><time>2016-06-02T13:02:02Z</time><pdop>5.0</pdop><geoidheight>51.00</geoidheight><course>171.5</course><type>1</type></trkpt>
      <trkpt lat="38.45364958" lon="-2.42507994"><ele>1954</ele><speed>8.91</speed><time>2016-06-02T13:02:04Z</time><pdop>5.0</pdop><geoidheight>51.00</geoidheight><course>160.0</course><type>1</type></trkpt>
      <trkpt lat="38.4535519" lon="-2.42502819"><ele>1950</ele><speed>10.84</speed><time>2016-06-02T13:02:05Z</time><pdop>6.0</pdop><geoidheight>51.00</geoidheight><course>155.1</course><type>1</type></trkpt>
      <trkpt lat="38.45348022" lon="-2.42492153"><ele>1948</ele><speed>11.61</speed><time>2016-06-02T13:02:06Z</time><pdop>6.0</pdop><geoidheight>51.00</geoidheight><course>143.3</course><type>1</type></trkpt>
      <trkpt lat="38.45338708" lon="-2.42479186"><ele>1951</ele><speed>13.40</speed><time>2016-06-02T13:02:07Z</time><pdop>7.0</pdop><geoidheight>51.00</geoidheight><course>137.0</course><type>1</type></trkpt>
      <trkpt lat="38.45330052" lon="-2.42463732"><ele>1950</ele><speed>13.69</speed><time>2016-06-02T13:02:08Z</time><pdop>8.0</pdop><geoidheight>51.00</geoidheight><course>130.9</course><type>1</type></trkpt>
      <trkpt lat="38.45318994" lon="-2.42436071"><ele>1954</ele><speed>13.43</speed><time>2016-06-02T13:02:10Z</time><pdop>7.0</pdop><geoidheight>51.00</geoidheight><course>116.5</course><type>1</type></trkpt>
      <trkpt lat="38.45315515" lon="-2.42416015"><ele>1956</ele><speed>15.58</speed><time>2016-06-02T13:02:11Z</time><pdop>6.0</pdop><geoidheight>51.00</geoidheight><course>101.9</course><type>1</type></trkpt>
      <trkpt lat="38.45311716" lon="-2.42397477"><ele>1957</ele><speed>16.12</speed><time>2016-06-02T13:02:12Z</time><pdop>7.0</pdop><geoidheight>51.00</geoidheight><course>99.3</course><type>1</type></trkpt>
      <trkpt lat="38.45310599" lon="-2.42361128"><ele>1960</ele><speed>14.96</speed><time>2016-06-02T13:02:14Z</time><pdop>9.0</pdop><geoidheight>51.00</geoidheight><course>89.2</course><type>1</type></trkpt>
      <trkpt lat="38.45317008" lon="-2.42336615"><ele>1965</ele><speed>10.81</speed><time>2016-06-02T13:02:16Z</time><pdop>10.0</pdop><geoidheight>51.00</geoidheight><course>78.3</course><type>1</type></trkpt>
      <trkpt lat="38.45340367" lon="-2.42316209"><ele>1968</ele><speed>8.94</speed><time>2016-06-02T13:02:19Z</time><pdop>14.0</pdop><geoidheight>51.00</geoidheight><course>46.7</course><type>1</type></trkpt>
      <trkpt lat="38.45353134" lon="-2.42344426"><ele>1974</ele><speed>4.79</speed><time>2016-06-02T13:02:24Z</time><pdop>11.0</pdop><geoidheight>51.00</geoidheight><course>270.4</course><type>1</type></trkpt>
      <trkpt lat="38.453459" lon="-2.42368174"><ele>1982</ele><speed>4.90</speed><time>2016-06-02T13:02:27Z</time><pdop>8.0</pdop><geoidheight>51.00</geoidheight><course>248.5</course><type>1</type></trkpt>
      <trkpt lat="38.45331839" lon="-2.42357088"><ele>1986</ele><speed>5.49</speed><time>2016-06-02T13:02:29Z</time><pdop>10.0</pdop><geoidheight>51.00</geoidheight><course>167.7</course><type>1</type></trkpt>
      <trkpt lat="38.4531421" lon="-2.4232906"><ele>1993</ele><speed>9.85</speed><time>2016-06-02T13:02:31Z</time><pdop>9.0</pdop><geoidheight>51.00</geoidheight><course>131.9</course><type>1</type></trkpt>
      <trkpt lat="38.45301034" lon="-2.42294287"><ele>1995</ele><speed>12.60</speed><time>2016-06-02T13:02:33Z</time><pdop>8.0</pdop><geoidheight>51.00</geoidheight><course>111.7</course><type>1</type></trkpt>
      <trkpt lat="38.45298441" lon="-2.42276124"><ele>1997</ele><speed>12.91</speed><time>2016-06-02T13:02:34Z</time><pdop>7.0</pdop><geoidheight>51.00</geoidheight><course>103.3</course><type>1</type></trkpt>
      <trkpt lat="38.45295072" lon="-2.42259841"><ele>2002</ele><speed>13.20</speed><time>2016-06-02T13:02:35Z</time><pdop>7.0</pdop><geoidheight>51.00</geoidheight><course>100.5</course><type>1</type></trkpt>
      <trkpt lat="38.45290304" lon="-2.4224332"><ele>2006</ele><speed>13.35</speed><time>2016-06-02T13:02:36Z</time><pdop>6.0</pdop><geoidheight>51.00</geoidheight><course>111.1</course><type>1</type></trkpt>
      <trkpt lat="38.45282064" lon="-2.42230102"><ele>2011</ele><speed>13.57</speed><time>2016-06-02T13:02:37Z</time><pdop>6.0</pdop><geoidheight>51.00</geoidheight><course>125.9</course><type>1</type></trkpt>
      <trkpt lat="38.4527448" lon="-2.42213786"><ele>2012</ele><speed>13.90</speed><time>2016-06-02T13:02:38Z</time><pdop>6.0</pdop><geoidheight>51.00</geoidheight><course>128.0</course><type>1</type></trkpt>
      <trkpt lat="38.45250687" lon="-2.42202024"><ele>2028</ele><speed>11.51</speed><time>2016-06-02T13:02:40Z</time><pdop>10.0</pdop><geoidheight>51.00</geoidheight><course>163.2</course><type>1</type></trkpt>
      <trkpt lat="38.4523458" lon="-2.42195746"><ele>2041</ele><speed>7.52</speed><time>2016-06-02T13:02:42Z</time><pdop>4.0</pdop><geoidheight>51.00</geoidheight><course>172.8</course><type>1</type></trkpt>
      <trkpt lat="38.45225399" lon="-2.42194669"><ele>2050</ele><speed>3.84</speed><time>2016-06-02T13:02:44Z</time><pdop>3.0</pdop><geoidheight>51.00</geoidheight><course>192.6</course><type>1</type></trkpt>
      <trkpt lat="38.45234867" lon="-2.42192717"><ele>2056</ele><speed>6.88</speed><time>2016-06-02T13:02:47Z</time><pdop>3.0</pdop><geoidheight>51.00</geoidheight><course>10.1</course><type>1</type></trkpt>
      <trkpt lat="38.45241442" lon="-2.42187597"><ele>2059</ele><speed>9.12</speed><time>2016-06-02T13:02:48Z</time><pdop>3.0</pdop><geoidheight>51.00</geoidheight><course>27.7</course><type>1</type></trkpt>
      <trkpt lat="38.45249225" lon="-2.42180172"><ele>2060</ele><speed>11.15</speed><time>2016-06-02T13:02:49Z</time><pdop>3.0</pdop><geoidheight>51.00</geoidheight><course>36.7</course><type>1</type></trkpt>
      <trkpt lat="38.45258472" lon="-2.42169262"><ele>2061</ele><speed>13.66</speed><time>2016-06-02T13:02:50Z</time><pdop>3.0</pdop><geoidheight>51.00</geoidheight><course>41.9</course><type>1</type></trkpt>
      <trkpt lat="38.45267785" lon="-2.42156078"><ele>2063</ele><speed>15.47</speed><time>2016-06-02T13:02:51Z</time><pdop>3.0</pdop><geoidheight>51.00</geoidheight><course>46.6</course><type>1</type></trkpt>
      <trkpt lat="38.45275725" lon="-2.42140734"><ele>2068</ele><speed>16.28</speed><time>2016-06-02T13:02:52Z</time><pdop>3.0</pdop><geoidheight>51.00</geoidheight><course>54.0</course><type>1</type></trkpt>
      <trkpt lat="38.45282547" lon="-2.42125271"><ele>2069</ele><speed>15.99</speed><time>2016-06-02T13:02:53Z</time><pdop>3.0</pdop><geoidheight>51.00</geoidheight><course>58.1</course><type>1</type></trkpt>
      <trkpt lat="38.45287238" lon="-2.42109571"><ele>2072</ele><speed>15.15</speed><time>2016-06-02T13:02:54Z</time><pdop>4.0</pdop><geoidheight>51.00</geoidheight><course>65.3</course><type>1</type></trkpt>
      <trkpt lat="38.45284849" lon="-2.42092548"><ele>2073</ele><speed>14.15</speed><time>2016-06-02T13:02:55Z</time><pdop>4.0</pdop><geoidheight>51.00</geoidheight><course>84.0</course><type>1</type></trkpt>
      <trkpt lat="38.45281408" lon="-2.42078708"><ele>2074</ele><speed>13.30</speed><time>2016-06-02T13:02:56Z</time><pdop>4.0</pdop><geoidheight>51.00</geoidheight><course>96.3</course><type>1</type></trkpt>
      <trkpt lat="38.45278201" lon="-2.42067188"><ele>2074</ele><speed>11.65</speed><time>2016-06-02T13:02:57Z</time><pdop>5.0</pdop><geoidheight>51.00</geoidheight><course>101.9</course><type>1</type></trkpt>
      <trkpt lat="38.45268062" lon="-2.42060797"><ele>2075</ele><speed>10.63</speed><time>2016-06-02T13:02:58Z</time><pdop>4.0</pdop><geoidheight>51.00</geoidheight><course>129.2</course><type>1</type></trkpt>
      <trkpt lat="38.45258111" lon="-2.42051476"><ele>2079</ele><speed>11.65</speed><time>2016-06-02T13:02:59Z</time><pdop>4.0</pdop><geoidheight>51.00</geoidheight><course>142.4</course><type>1</type></trkpt>
      <trkpt lat="38.45249461" lon="-2.42045383"><ele>2083</ele><speed>11.54</speed><time>2016-06-02T13:03:00Z</time><pdop>4.0</pdop><geoidheight>51.00</geoidheight><course>148.3</course><type>1</type></trkpt>
      <trkpt lat="38.45240856" lon="-2.42039894"><ele>2086</ele><speed>10.91</speed><time>2016-06-02T13:03:01Z</time><pdop>4.0</pdop><geoidheight>51.00</geoidheight><course>154.3</course><type>1</type></trkpt>
      <trkpt lat="38.45232161" lon="-2.42036332"><ele>2090</ele><speed>10.38</speed><time>2016-06-02T13:03:02Z</time><pdop>4.0</pdop><geoidheight>51.00</geoidheight><course>162.9</course><type>1</type></trkpt>
      <trkpt lat="38.45222313" lon="-2.42034276"><ele>2091</ele><speed>10.18</speed><time>2016-06-02T13:03:03Z</time><pdop>4.0</pdop><geoidheight>51.00</geoidheight><course>170.0</course><type>1</type></trkpt>
      <trkpt lat="38.4521261" lon="-2.42031308"><ele>2092</ele><speed>10.59</speed><time>2016-06-02T13:03:04Z</time><pdop>4.0</pdop><geoidheight>51.00</geoidheight><course>167.7</course><type>1</type></trkpt>
      <trkpt lat="38.45201959" lon="-2.42026642"><ele>2093</ele><speed>11.70</speed><time>2016-06-02T13:03:05Z</time><pdop>3.0</pdop><geoidheight>51.00</geoidheight><course>160.3</course><type>1</type></trkpt>
      <trkpt lat="38.45192379" lon="-2.42018069"><ele>2096</ele><speed>11.60</speed><time>2016-06-02T13:03:06Z</time><pdop>3.0</pdop><geoidheight>51.00</geoidheight><course>151.5</course><type>1</type></trkpt>
      <trkpt lat="38.45183513" lon="-2.42010852"><ele>2099</ele><speed>11.07</speed><time>2016-06-02T13:03:07Z</time><pdop>3.0</pdop><geoidheight>51.00</geoidheight><course>150.8</course><type>1</type></trkpt>
      <trkpt lat="38.45175438" lon="-2.42006041"><ele>2103</ele><speed>9.03</speed><time>2016-06-02T13:03:08Z</time><pdop>3.0</pdop><geoidheight>51.00</geoidheight><course>162.0</course><type>1</type></trkpt>
      <trkpt lat="38.45168764" lon="-2.42006777"><ele>2105</ele><speed>6.26</speed><time>2016-06-02T13:03:09Z</time><pdop>3.0</pdop><geoidheight>51.00</geoidheight><course>189.7</course><type>1</type></trkpt>
      <trkpt lat="38.45160005" lon="-2.42015156"><ele>2092</ele><speed>5.79</speed><time>2016-06-02T13:03:11Z</time><pdop>5.0</pdop><geoidheight>51.00</geoidheight><course>222.2</course><type>1</type></trkpt>
      <trkpt lat="38.45172779" lon="-2.42019734"><ele>2103</ele><speed>4.45</speed><time>2016-06-02T13:03:14Z</time><pdop>6.0</pdop><geoidheight>51.00</geoidheight><course>7.9</course><type>1</type></trkpt>
      <trkpt lat="38.45187621" lon="-2.42013661"><ele>2109</ele><speed>7.00</speed><time>2016-06-02T13:03:16Z</time><pdop>6.0</pdop><geoidheight>51.00</geoidheight><course>26.9</course><type>1</type></trkpt>
      <trkpt lat="38.45199855" lon="-2.42011682"><ele>2111</ele><speed>8.92</speed><time>2016-06-02T13:03:17Z</time><pdop>6.0</pdop><geoidheight>51.00</geoidheight><course>18.7</course><type>1</type></trkpt>
      <trkpt lat="38.45217734" lon="-2.42000693"><ele>2117</ele><speed>11.70</speed><time>2016-06-02T13:03:19Z</time><pdop>5.0</pdop><geoidheight>51.00</geoidheight><course>29.5</course><type>1</type></trkpt>
      <trkpt lat="38.45226903" lon="-2.41991071"><ele>2120</ele><speed>11.98</speed><time>2016-06-02T13:03:20Z</time><pdop>5.0</pdop><geoidheight>51.00</geoidheight><course>40.2</course><type>1</type></trkpt>
      <trkpt lat="38.45232634" lon="-2.41980019"><ele>2125</ele><speed>11.89</speed><time>2016-06-02T13:03:21Z</time><pdop>4.0</pdop><geoidheight>51.00</geoidheight><course>55.1</course><type>1</type></trkpt>
      <trkpt lat="38.45236949" lon="-2.41967159"><ele>2128</ele><speed>12.61</speed><time>2016-06-02T13:03:22Z</time><pdop>4.0</pdop><geoidheight>51.00</geoidheight><course>66.7</course><type>1</type></trkpt>
      <trkpt lat="38.4524056" lon="-2.41953404"><ele>2128</ele><speed>13.08</speed><time>2016-06-02T13:03:23Z</time><pdop>4.0</pdop><geoidheight>51.00</geoidheight><course>69.9</course><type>1</type></trkpt>
      <trkpt lat="38.45241655" lon="-2.41935279"><ele>2129</ele><speed>14.63</speed><time>2016-06-02T13:03:24Z</time><pdop>4.0</pdop><geoidheight>51.00</geoidheight><course>80.4</course><type>1</type></trkpt>
      <trkpt lat="38.45239525" lon="-2.41918348"><ele>2130</ele><speed>14.60</speed><time>2016-06-02T13:03:25Z</time><pdop>4.0</pdop><geoidheight>51.00</geoidheight><course>96.5</course><type>1</type></trkpt>
      <trkpt lat="38.45235307" lon="-2.41902842"><ele>2134</ele><speed>14.35</speed><time>2016-06-02T13:03:26Z</time><pdop>3.0</pdop><geoidheight>51.00</geoidheight><course>109.4</course><type>1</type></trkpt>
      <trkpt lat="38.4522969" lon="-2.41891343"><ele>2137</ele><speed>12.69</speed><time>2016-06-02T13:03:27Z</time><pdop>3.0</pdop><geoidheight>51.00</geoidheight><course>122.2</course><type>1</type></trkpt>
      <trkpt lat="38.45222558" lon="-2.41882193"><ele>2138</ele><speed>11.19</speed><time>2016-06-02T13:03:28Z</time><pdop>3.0</pdop><geoidheight>51.00</geoidheight><course>136.2</course><type>1</type></trkpt>
      <trkpt lat="38.45215401" lon="-2.41877666"><ele>2141</ele><speed>9.50</speed><time>2016-06-02T13:03:29Z</time><pdop>3.0</pdop><geoidheight>51.00</geoidheight><course>152.2</course><type>1</type></trkpt>
      <trkpt lat="38.45208044" lon="-2.4187648"><ele>2142</ele><speed>8.00</speed><time>2016-06-02T13:03:30Z</time><pdop>3.0</pdop><geoidheight>51.00</geoidheight><course>172.1</course><type>1</type></trkpt>
      <trkpt lat="38.45202124" lon="-2.41878303"><ele>2144</ele><speed>6.96</speed><time>2016-06-02T13:03:31Z</time><pdop>3.0</pdop><geoidheight>51.00</geoidheight><course>191.7</course><type>1</type></trkpt>
      <trkpt lat="38.45194337" lon="-2.41885923"><ele>2147</ele><speed>4.87</speed><time>2016-06-02T13:03:33Z</time><pdop>3.0</pdop><geoidheight>51.00</geoidheight><course>236.5</course><type>1</type></trkpt>
      <trkpt lat="38.45197795" lon="-2.41895724"><ele>2149</ele><speed>5.67</speed><time>2016-06-02T13:03:35Z</time><pdop>3.0</pdop><geoidheight>51.00</geoidheight><course>306.1</course><type>1</type></trkpt>
      <trkpt lat="38.45201872" lon="-2.4190099"><ele>2150</ele><speed>6.16</speed><time>2016-06-02T13:03:36Z</time><pdop>3.0</pdop><geoidheight>51.00</geoidheight><course>314.9</course><type>1</type></trkpt>
      <trkpt lat="38.45214106" lon="-2.41900093"><ele>2153</ele><speed>6.20</speed><time>2016-06-02T13:03:38Z</time><pdop>5.0</pdop><geoidheight>51.00</geoidheight><course>353.5</course><type>1</type></trkpt>
      <trkpt lat="38.45223142" lon="-2.41890764"><ele>2154</ele><speed>8.50</speed><time>2016-06-02T13:03:39Z</time><pdop>5.0</pdop><geoidheight>51.00</geoidheight><course>26.1</course><type>1</type></trkpt>
      <trkpt lat="38.45229463" lon="-2.41881297"><ele>2161</ele><speed>10.73</speed><time>2016-06-02T13:03:40Z</time><pdop>4.0</pdop><geoidheight>51.00</geoidheight><course>37.9</course><type>1</type></trkpt>
      <trkpt lat="38.45238384" lon="-2.41873748"><ele>2166</ele><speed>11.40</speed><time>2016-06-02T13:03:41Z</time><pdop>4.0</pdop><geoidheight>51.00</geoidheight><course>36.8</course><type>1</type></trkpt>
      <trkpt lat="38.45247295" lon="-2.41863688"><ele>2171</ele><speed>12.71</speed><time>2016-06-02T13:03:42Z</time><pdop>4.0</pdop><geoidheight>51.00</geoidheight><course>40.9</course><type>1</type></trkpt>
      <trkpt lat="38.45254883" lon="-2.41850632"><ele>2177</ele><speed>14.81</speed><time>2016-06-02T13:03:43Z</time><pdop>3.0</pdop><geoidheight>51.00</geoidheight><course>52.7</course><type>1</type></trkpt>
      <trkpt lat="38.45260844" lon="-2.41834891"><ele>2182</ele><speed>15.54</speed><time>2016-06-02T13:03:44Z</time><pdop>3.0</pdop><geoidheight>51.00</geoidheight><course>65.9</course><type>1</type></trkpt>
      <trkpt lat="38.45262179" lon="-2.41819536"><ele>2188</ele><speed>14.55</speed><time>2016-06-02T13:03:45Z</time><pdop>3.0</pdop><geoidheight>51.00</geoidheight><course>85.1</course><type>1</type></trkpt>
      <trkpt lat="38.45261812" lon="-2.41804554"><ele>2192</ele><speed>14.10</speed><time>2016-06-02T13:03:46Z</time><pdop>3.0</pdop><geoidheight>51.00</geoidheight><course>91.0</course><type>1</type></trkpt>
      <trkpt lat="38.45251015" lon="-2.41795168"><ele>2192</ele><speed>12.94</speed><time>2016-06-02T13:03:47Z</time><pdop>4.0</pdop><geoidheight>51.00</geoidheight><course>130.3</course><type>1</type></trkpt>
      <trkpt lat="38.45243605" lon="-2.41783936"><ele>2192</ele><speed>12.84</speed><time>2016-06-02T13:03:48Z</time><pdop>5.0</pdop><geoidheight>51.00</geoidheight><course>130.1</course><type>1</type></trkpt>
      <trkpt lat="38.45235459" lon="-2.41784794"><ele>2200</ele><speed>10.65</speed><time>2016-06-02T13:03:49Z</time><pdop>4.0</pdop><geoidheight>51.00</geoidheight><course>166.1</course><type>1</type></trkpt>
      <trkpt lat="38.45227899" lon="-2.41783427"><ele>2206</ele><speed>8.86</speed><time>2016-06-02T13:03:50Z</time><pdop>4.0</pdop><geoidheight>51.00</geoidheight><course>181.0</course><type>1</type></trkpt>
      <trkpt lat="38.45217357" lon="-2.41787808"><ele>2208</ele><speed>5.74</speed><time>2016-06-02T13:03:52Z</time><pdop>4.0</pdop><geoidheight>51.00</geoidheight><course>217.3</course><type>1</type></trkpt>
      <trkpt lat="38.45208722" lon="-2.41793444"><ele>2215</ele><speed>5.85</speed><time>2016-06-02T13:03:54Z</time><pdop>4.0</pdop><geoidheight>51.00</geoidheight><course>206.2</course><type>1</type></trkpt>
      <trkpt lat="38.45201175" lon="-2.4180023"><ele>2223</ele><speed>3.29</speed><time>2016-06-02T13:03:57Z</time><pdop>4.0</pdop><geoidheight>51.00</geoidheight><course>250.7</course><type>1</type></trkpt>
      <trkpt lat="38.45211024" lon="-2.41812546"><ele>2221</ele><speed>8.82</speed><time>2016-06-02T13:04:00Z</time><pdop>6.0</pdop><geoidheight>51.00</geoidheight><course>344.2</course><type>1</type></trkpt>
      <trkpt lat="38.45229416" lon="-2.41807637"><ele>2226</ele><speed>12.05</speed><time>2016-06-02T13:04:02Z</time><pdop>5.0</pdop><geoidheight>51.00</geoidheight><course>26.4</course><type>1</type></trkpt>
      <trkpt lat="38.4523725" lon="-2.4179969"><ele>2230</ele><speed>12.63</speed><time>2016-06-02T13:04:03Z</time><pdop>5.0</pdop><geoidheight>51.00</geoidheight><course>41.1</course><type>1</type></trkpt>
      <trkpt lat="38.45244756" lon="-2.41788625"><ele>2233</ele><speed>13.14</speed><time>2016-06-02T13:04:04Z</time><pdop>5.0</pdop><geoidheight>51.00</geoidheight><course>50.5</course><type>1</type></trkpt>
      <trkpt lat="38.45251526" lon="-2.41775883"><ele>2235</ele><speed>13.81</speed><time>2016-06-02T13:04:05Z</time><pdop>6.0</pdop><geoidheight>51.00</geoidheight><course>58.1</course><type>1</type></trkpt>
      <trkpt lat="38.45258078" lon="-2.41762585"><ele>2236</ele><speed>13.72</speed><time>2016-06-02T13:04:06Z</time><pdop>7.0</pdop><geoidheight>51.00</geoidheight><course>58.0</course><type>1</type></trkpt>
      <trkpt lat="38.4526061" lon="-2.41744291"><ele>2242</ele><speed>15.24</speed><time>2016-06-02T13:04:07Z</time><pdop>5.0</pdop><geoidheight>51.00</geoidheight><course>75.7</course><type>1</type></trkpt>
      <trkpt lat="38.45263948" lon="-2.417277"><ele>2245</ele><speed>15.10</speed><time>2016-06-02T13:04:08Z</time><pdop>7.0</pdop><geoidheight>51.00</geoidheight><course>75.6</course><type>1</type></trkpt>
      <trkpt lat="38.45259406" lon="-2.41709528"><ele>2244</ele><speed>16.01</speed><time>2016-06-02T13:04:09Z</time><pdop>5.0</pdop><geoidheight>51.00</geoidheight><course>99.8</course><type>1</type></trkpt>
      <trkpt lat="38.45255138" lon="-2.41694287"><ele>2248</ele><speed>14.29</speed><time>2016-06-02T13:04:10Z</time><pdop>4.0</pdop><geoidheight>51.00</geoidheight><course>113.6</course><type>1</type></trkpt>
      <trkpt lat="38.45249968" lon="-2.41679305"><ele>2248</ele><speed>14.28</speed><time>2016-06-02T13:04:11Z</time><pdop>5.0</pdop><geoidheight>51.00</geoidheight><course>113.7</course><type>1</type></trkpt>
      <trkpt lat="38.45235057" lon="-2.41680967"><ele>2259</ele><speed>9.21</speed><time>2016-06-02T13:04:13Z</time><pdop>4.0</pdop><geoidheight>51.00</geoidheight><course>208.1</course><type>1</type></trkpt>
      <trkpt lat="38.45227952" lon="-2.41687062"><ele>2261</ele><speed>8.99</speed><time>2016-06-02T13:04:14Z</time><pdop>5.0</pdop><geoidheight>51.00</geoidheight><course>218.3</course><type>1</type></trkpt>
      <trkpt lat="38.45221228" lon="-2.41700683"><ele>2262</ele><speed>6.55</speed><time>2016-06-02T13:04:16Z</time><pdop>8.0</pdop><geoidheight>51.00</geoidheight><course>244.3</course><type>1</type></trkpt>
      <trkpt lat="38.45234832" lon="-2.41713881"><ele>2273</ele><speed>6.78</speed><time>2016-06-02T13:04:19Z</time><pdop>7.0</pdop><geoidheight>51.00</geoidheight><course>330.1</course><type>1</type></trkpt>
      <trkpt lat="38.45255795" lon="-2.41716516"><ele>2273</ele><speed>7.68</speed><time>2016-06-02T13:04:22Z</time><pdop>13.0</pdop><geoidheight>51.00</geoidheight><course>358.0</course><type>1</type></trkpt>
      <trkpt lat="38.45274744" lon="-2.41687898"><ele>2280</ele><speed>12.86</speed><time>2016-06-02T13:04:24Z</time><pdop>7.0</pdop><geoidheight>51.00</geoidheight><course>69.8</course><type>1</type></trkpt>
      <trkpt lat="38.45280235" lon="-2.41659668"><ele>2288</ele><speed>13.06</speed><time>2016-06-02T13:04:26Z</time><pdop>6.0</pdop><geoidheight>51.00</geoidheight><course>91.1</course><type>1</type></trkpt>
      <trkpt lat="38.45279747" lon="-2.4164416"><ele>2291</ele><speed>13.41</speed><time>2016-06-02T13:04:27Z</time><pdop>5.0</pdop><geoidheight>51.00</geoidheight><course>104.6</course><type>1</type></trkpt>
      <trkpt lat="38.45276735" lon="-2.41629422"><ele>2292</ele><speed>13.32</speed><time>2016-06-02T13:04:28Z</time><pdop>6.0</pdop><geoidheight>51.00</geoidheight><course>104.6</course><type>1</type></trkpt>
      <trkpt lat="38.45272214" lon="-2.41615861"><ele>2294</ele><speed>13.41</speed><time>2016-06-02T13:04:29Z</time><pdop>5.0</pdop><geoidheight>51.00</geoidheight><course>114.1</course><type>1</type></trkpt>
      <trkpt lat="38.45265514" lon="-2.41601565"><ele>2299</ele><speed>14.30</speed><time>2016-06-02T13:04:30Z</time><pdop>4.0</pdop><geoidheight>51.00</geoidheight><course>120.6</course><type>1</type></trkpt>
      <trkpt lat="38.4525961" lon="-2.41588749"><ele>2300</ele><speed>12.63</speed><time>2016-06-02T13:04:31Z</time><pdop>4.0</pdop><geoidheight>51.00</geoidheight><course>125.5</course><type>1</type></trkpt>
      <trkpt lat="38.45253197" lon="-2.41581439"><ele>2304</ele><speed>9.00</speed><time>2016-06-02T13:04:32Z</time><pdop>5.0</pdop><geoidheight>51.00</geoidheight><course>141.8</course><type>1</type></trkpt>
      <trkpt lat="38.45241229" lon="-2.41575951"><ele>2313</ele><speed>5.81</speed><time>2016-06-02T13:04:34Z</time><pdop>5.0</pdop><geoidheight>51.00</geoidheight><course>176.6</course><type>1</type></trkpt>
      <trkpt lat="38.45232261" lon="-2.41577775"><ele>2317</ele><speed>5.33</speed><time>2016-06-02T13:04:36Z</time><pdop>4.0</pdop><geoidheight>51.00</geoidheight><course>205.0</course><type>1</type></trkpt>
      <trkpt lat="38.45223272" lon="-2.41587711"><ele>2318</ele><speed>6.95</speed><time>2016-06-02T13:04:38Z</time><pdop>4.0</pdop><geoidheight>51.00</geoidheight><course>234.6</course><type>1</type></trkpt>
      <trkpt lat="38.45224211" lon="-2.41598523"><ele>2320</ele><speed>5.96</speed><time>2016-06-02T13:04:40Z</time><pdop>5.0</pdop><geoidheight>51.00</geoidheight><course>292.2</course><type>1</type></trkpt>
      <trkpt lat="38.45237642" lon="-2.41607532"><ele>2321</ele><speed>10.96</speed><time>2016-06-02T13:04:42Z</time><pdop>4.0</pdop><geoidheight>51.00</geoidheight><course>337.7</course><type>1</type></trkpt>
      <trkpt lat="38.45247632" lon="-2.41611682"><ele>2321</ele><speed>11.16</speed><time>2016-06-02T13:04:43Z</time><pdop>4.0</pdop><geoidheight>51.00</geoidheight><course>343.2</course><type>1</type></trkpt>
      <trkpt lat="38.45257793" lon="-2.41612592"><ele>2322</ele><speed>11.21</speed><time>2016-06-02T13:04:44Z</time><pdop>4.0</pdop><geoidheight>51.00</geoidheight><course>353.6</course><type>1</type></trkpt>
      <trkpt lat="38.45267719" lon="-2.41612185"><ele>2324</ele><speed>11.88</speed><time>2016-06-02T13:04:45Z</time><pdop>6.0</pdop><geoidheight>51.00</geoidheight><course>1.8</course><type>1</type></trkpt>
      <trkpt lat="38.45284413" lon="-2.41600731"><ele>2326</ele><speed>11.84</speed><time>2016-06-02T13:04:47Z</time><pdop>5.0</pdop><geoidheight>51.00</geoidheight><course>36.5</course><type>1</type></trkpt>
      <trkpt lat="38.45292983" lon="-2.41592662"><ele>2326</ele><speed>11.84</speed><time>2016-06-02T13:04:48Z</time><pdop>6.0</pdop><geoidheight>51.00</geoidheight><course>36.5</course><type>1</type></trkpt>
      <trkpt lat="38.45302184" lon="-2.41579715"><ele>2329</ele><speed>14.78</speed><time>2016-06-02T13:04:49Z</time><pdop>5.0</pdop><geoidheight>51.00</geoidheight><course>48.7</course><type>1</type></trkpt>
      <trkpt lat="38.45311501" lon="-2.41565444"><ele>2330</ele><speed>15.94</speed><time>2016-06-02T13:04:50Z</time><pdop>5.0</pdop><geoidheight>51.00</geoidheight><course>51.2</course><type>1</type></trkpt>
      <trkpt lat="38.45320497" lon="-2.41551221"><ele>2330</ele><speed>15.93</speed><time>2016-06-02T13:04:51Z</time><pdop>7.0</pdop><geoidheight>51.00</geoidheight><course>51.2</course><type>1</type></trkpt>
      <trkpt lat="38.45318853" lon="-2.41530186"><ele>2333</ele><speed>16.21</speed><time>2016-06-02T13:04:52Z</time><pdop>6.0</pdop><geoidheight>51.00</geoidheight><course>73.6</course><type>1</type></trkpt>
      <trkpt lat="38.45322388" lon="-2.41512404"><ele>2333</ele><speed>16.32</speed><time>2016-06-02T13:04:53Z</time><pdop>7.0</pdop><geoidheight>51.00</geoidheight><course>76.4</course><type>1</type></trkpt>
      <trkpt lat="38.45314886" lon="-2.41492907"><ele>2336</ele><speed>16.28</speed><time>2016-06-02T13:04:54Z</time><pdop>5.0</pdop><geoidheight>51.00</geoidheight><course>103.4</course><type>1</type></trkpt>
      <trkpt lat="38.45311492" lon="-2.41474776"><ele>2337</ele><speed>16.26</speed><time>2016-06-02T13:04:55Z</time><pdop>6.0</pdop><geoidheight>51.00</geoidheight><course>103.4</course><type>1</type></trkpt>
      <trkpt lat="38.45301579" lon="-2.4146125"><ele>2344</ele><speed>15.12</speed><time>2016-06-02T13:04:56Z</time><pdop>4.0</pdop><geoidheight>51.00</geoidheight><course>125.9</course><type>1</type></trkpt>
      <trkpt lat="38.45294039" lon="-2.4144787"><ele>2346</ele><speed>14.68</speed><time>2016-06-02T13:04:57Z</time><pdop>5.0</pdop><geoidheight>51.00</geoidheight><course>125.7</course><type>1</type></trkpt>
      <trkpt lat="38.45285085" lon="-2.41446997"><ele>2351</ele><speed>11.02</speed><time>2016-06-02T13:04:58Z</time><pdop>4.0</pdop><geoidheight>51.00</geoidheight><course>158.7</course><type>1</type></trkpt>
      <trkpt lat="38.45277176" lon="-2.41444498"><ele>2355</ele><speed>9.07</speed><time>2016-06-02T13:04:59Z</time><pdop>5.0</pdop><geoidheight>51.00</geoidheight><course>179.2</course><type>1</type></trkpt>
      <trkpt lat="38.45263364" lon="-2.41447487"><ele>2360</ele><speed>7.03</speed><time>2016-06-02T13:05:01Z</time><pdop>5.0</pdop><geoidheight>51.00</geoidheight><course>209.7</course><type>1</type></trkpt>
      <trkpt lat="38.45256721" lon="-2.41456116"><ele>2365</ele><speed>4.59</speed><time>2016-06-02T13:05:03Z</time><pdop>5.0</pdop><geoidheight>51.00</geoidheight><course>258.9</course><type>1</type></trkpt>
      <trkpt lat="38.45274828" lon="-2.41457073"><ele>2370</ele><speed>13.01</speed><time>2016-06-02T13:05:06Z</time><pdop>7.0</pdop><geoidheight>51.00</geoidheight><course>23.2</course><type>1</type></trkpt>
      <trkpt lat="38.45285132" lon="-2.41448526"><ele>2375</ele><speed>14.09</speed><time>2016-06-02T13:05:07Z</time><pdop>6.0</pdop><geoidheight>51.00</geoidheight><course>44.9</course><type>1</type></trkpt>
      <trkpt lat="38.4529315" lon="-2.41437165"><ele>2379</ele><speed>14.62</speed><time>2016-06-02T13:05:08Z</time><pdop>6.0</pdop><geoidheight>51.00</geoidheight><course>49.2</course><type>1</type></trkpt>
      <trkpt lat="38.45301443" lon="-2.41424899"><ele>2382</ele><speed>14.78</speed><time>2016-06-02T13:05:09Z</time><pdop>8.0</pdop><geoidheight>51.00</geoidheight><course>49.3</course><type>1</type></trkpt>
      <trkpt lat="38.45304127" lon="-2.41405344"><ele>2389</ele><speed>15.14</speed><time>2016-06-02T13:05:10Z</time><pdop>7.0</pdop><geoidheight>51.00</geoidheight><course>69.1</course><type>1</type></trkpt>
      <trkpt lat="38.45312735" lon="-2.4137214"><ele>2395</ele><speed>15.33</speed><time>2016-06-02T13:05:12Z</time><pdop>8.0</pdop><geoidheight>51.00</geoidheight><course>72.6</course><type>1</type></trkpt>
      <trkpt lat="38.45318926" lon="-2.4135656"><ele>2398</ele><speed>14.56</speed><time>2016-06-02T13:05:13Z</time><pdop>7.0</pdop><geoidheight>51.00</geoidheight><course>69.5</course><type>1</type></trkpt>
      <trkpt lat="38.45325308" lon="-2.41326006"><ele>2399</ele><speed>13.58</speed><time>2016-06-02T13:05:15Z</time><pdop>7.0</pdop><geoidheight>51.00</geoidheight><course>73.9</course><type>1</type></trkpt>
      <trkpt lat="38.45323703" lon="-2.41310169"><ele>2404</ele><speed>13.29</speed><time>2016-06-02T13:05:16Z</time><pdop>5.0</pdop><geoidheight>51.00</geoidheight><course>84.6</course><type>1</type></trkpt>
      <trkpt lat="38.45324658" lon="-2.41296165"><ele>2406</ele><speed>12.94</speed><time>2016-06-02T13:05:17Z</time><pdop>5.0</pdop><geoidheight>51.00</geoidheight><course>88.5</course><type>1</type></trkpt>
      <trkpt lat="38.45324945" lon="-2.41281372"><ele>2407</ele><speed>12.92</speed><time>2016-06-02T13:05:18Z</time><pdop>6.0</pdop><geoidheight>51.00</geoidheight><course>88.6</course><type>1</type></trkpt>
      <trkpt lat="38.45321167" lon="-2.41266569"><ele>2418</ele><speed>12.38</speed><time>2016-06-02T13:05:19Z</time><pdop>5.0</pdop><geoidheight>51.00</geoidheight><course>107.3</course><type>1</type></trkpt>
      <trkpt lat="38.45317886" lon="-2.41253157"><ele>2419</ele><speed>12.29</speed><time>2016-06-02T13:05:20Z</time><pdop>6.0</pdop><geoidheight>51.00</geoidheight><course>107.3</course><type>1</type></trkpt>
      <trkpt lat="38.45302511" lon="-2.41236982"><ele>2427</ele><speed>11.42</speed><time>2016-06-02T13:05:22Z</time><pdop>6.0</pdop><geoidheight>51.00</geoidheight><course>141.5</course><type>1</type></trkpt>
      <trkpt lat="38.45286951" lon="-2.41243559"><ele>2436</ele><speed>9.04</speed><time>2016-06-02T13:05:24Z</time><pdop>4.0</pdop><geoidheight>51.00</geoidheight><course>194.1</course><type>1</type></trkpt>
      <trkpt lat="38.45279658" lon="-2.4124743"><ele>2440</ele><speed>9.03</speed><time>2016-06-02T13:05:25Z</time><pdop>4.0</pdop><geoidheight>51.00</geoidheight><course>209.7</course><type>1</type></trkpt>
      <trkpt lat="38.45273091" lon="-2.41252192"><ele>2443</ele><speed>8.77</speed><time>2016-06-02T13:05:26Z</time><pdop>4.0</pdop><geoidheight>51.00</geoidheight><course>209.7</course><type>1</type></trkpt>
      <trkpt lat="38.45266441" lon="-2.41262976"><ele>2450</ele><speed>6.95</speed><time>2016-06-02T13:05:28Z</time><pdop>6.0</pdop><geoidheight>51.00</geoidheight><course>230.6</course><type>1</type></trkpt>
      <trkpt lat="38.45282552" lon="-2.41266685"><ele>2457</ele><speed>9.77</speed><time>2016-06-02T13:05:30Z</time><pdop>4.0</pdop><geoidheight>51.00</geoidheight><course>359.4</course><type>1</type></trkpt>
      <trkpt lat="38.45292556" lon="-2.41262668"><ele>2458</ele><speed>11.10</speed><time>2016-06-02T13:05:31Z</time><pdop>5.0</pdop><geoidheight>51.00</geoidheight><course>15.6</course><type>1</type></trkpt>
      <trkpt lat="38.45302127" lon="-2.41259289"><ele>2459</ele><speed>11.04</speed><time>2016-06-02T13:05:32Z</time><pdop>6.0</pdop><geoidheight>51.00</geoidheight><course>15.6</course><type>1</type></trkpt>
      <trkpt lat="38.45314026" lon="-2.41249003"><ele>2459</ele><speed>14.27</speed><time>2016-06-02T13:05:33Z</time><pdop>7.0</pdop><geoidheight>51.00</geoidheight><course>28.9</course><type>1</type></trkpt>
      <trkpt lat="38.45317638" lon="-2.41215836"><ele>2468</ele><speed>13.69</speed><time>2016-06-02T13:05:35Z</time><pdop>5.0</pdop><geoidheight>51.00</geoidheight><course>81.8</course><type>1</type></trkpt>
      <trkpt lat="38.45317119" lon="-2.41200967"><ele>2471</ele><speed>14.02</speed><time>2016-06-02T13:05:36Z</time><pdop>4.0</pdop><geoidheight>51.00</geoidheight><course>103.8</course><type>1</type></trkpt>
      <trkpt lat="38.4531216" lon="-2.41190899"><ele>2476</ele><speed>13.03</speed><time>2016-06-02T13:05:37Z</time><pdop>5.0</pdop><geoidheight>51.00</geoidheight><course>128.7</course><type>1</type></trkpt>
      <trkpt lat="38.4530496" lon="-2.41179481"><ele>2478</ele><speed>12.89</speed><time>2016-06-02T13:05:38Z</time><pdop>5.0</pdop><geoidheight>51.00</geoidheight><course>128.7</course><type>1</type></trkpt>
      <trkpt lat="38.45293819" lon="-2.41175628"><ele>2483</ele><speed>12.07</speed><time>2016-06-02T13:05:39Z</time><pdop>4.0</pdop><geoidheight>51.00</geoidheight><course>163.9</course><type>1</type></trkpt>
      <trkpt lat="38.45285081" lon="-2.41175498"><ele>2487</ele><speed>10.58</speed><time>2016-06-02T13:05:40Z</time><pdop>4.0</pdop><geoidheight>51.00</geoidheight><course>183.9</course><type>1</type></trkpt>
      <trkpt lat="38.45278008" lon="-2.41178126"><ele>2489</ele><speed>9.48</speed><time>2016-06-02T13:05:41Z</time><pdop>4.0</pdop><geoidheight>51.00</geoidheight><course>207.9</course><type>1</type></trkpt>
      <trkpt lat="38.4527063" lon="-2.41183117"><ele>2490</ele><speed>9.33</speed><time>2016-06-02T13:05:42Z</time><pdop>5.0</pdop><geoidheight>51.00</geoidheight><course>208.0</course><type>1</type></trkpt>
      <trkpt lat="38.45263664" lon="-2.41196254"><ele>2492</ele><speed>7.81</speed><time>2016-06-02T13:05:44Z</time><pdop>8.0</pdop><geoidheight>51.00</geoidheight><course>228.2</course><type>1</type></trkpt>
      <trkpt lat="38.45275734" lon="-2.41208836"><ele>2501</ele><speed>7.18</speed><time>2016-06-02T13:05:47Z</time><pdop>6.0</pdop><geoidheight>51.00</geoidheight><course>333.0</course><type>1</type></trkpt>
      <trkpt lat="38.45289488" lon="-2.41213593"><ele>2504</ele><speed>8.04</speed><time>2016-06-02T13:05:49Z</time><pdop>7.0</pdop><geoidheight>51.00</geoidheight><course>349.3</course><type>1</type></trkpt>
      <trkpt lat="38.45300319" lon="-2.41206932"><ele>2506</ele><speed>10.70</speed><time>2016-06-02T13:05:50Z</time><pdop>6.0</pdop><geoidheight>51.00</geoidheight><course>18.2</course><type>1</type></trkpt>
      <trkpt lat="38.45319962" lon="-2.41188894"><ele>2511</ele><speed>14.38</speed><time>2016-06-02T13:05:52Z</time><pdop>6.0</pdop><geoidheight>51.00</geoidheight><course>35.5</course><type>1</type></trkpt>
      <trkpt lat="38.4532616" lon="-2.4117268"><ele>2515</ele><speed>15.50</speed><time>2016-06-02T13:05:53Z</time><pdop>5.0</pdop><geoidheight>51.00</geoidheight><course>51.4</course><type>1</type></trkpt>
      <trkpt lat="38.45333047" lon="-2.41158128"><ele>2521</ele><speed>15.16</speed><time>2016-06-02T13:05:54Z</time><pdop>5.0</pdop><geoidheight>51.00</geoidheight><course>60.6</course><type>1</type></trkpt>
      <trkpt lat="38.45338611" lon="-2.41144368"><ele>2526</ele><speed>14.53</speed><time>2016-06-02T13:05:55Z</time><pdop>5.0</pdop><geoidheight>51.00</geoidheight><course>64.1</course><type>1</type></trkpt>
      <trkpt lat="38.45342685" lon="-2.41130956"><ele>2532</ele><speed>13.46</speed><time>2016-06-02T13:05:56Z</time><pdop>5.0</pdop><geoidheight>51.00</geoidheight><course>71.7</course><type>1</type></trkpt>
      <trkpt lat="38.45344352" lon="-2.41117138"><ele>2534</ele><speed>12.59</speed><time>2016-06-02T13:05:57Z</time><pdop>5.0</pdop><geoidheight>51.00</geoidheight><course>82.5</course><type>1</type></trkpt>
      <trkpt lat="38.45343326" lon="-2.4109353"><ele>2535</ele><speed>11.67</speed><time>2016-06-02T13:05:59Z</time><pdop>5.0</pdop><geoidheight>51.00</geoidheight><course>92.0</course><type>1</type></trkpt>
      <trkpt lat="38.45343448" lon="-2.41079552"><ele>2535</ele><speed>11.46</speed><time>2016-06-02T13:06:00Z</time><pdop>5.0</pdop><geoidheight>51.00</geoidheight><course>94.2</course><type>1</type></trkpt>
      <trkpt lat="38.45336305" lon="-2.41071975"><ele>2538</ele><speed>9.85</speed><time>2016-06-02T13:06:01Z</time><pdop>4.0</pdop><geoidheight>51.00</geoidheight><course>122.3</course><type>1</type></trkpt>
      <trkpt lat="38.45330118" lon="-2.41065584"><ele>2540</ele><speed>9.73</speed><time>2016-06-02T13:06:02Z</time><pdop>3.0</pdop><geoidheight>51.00</geoidheight><course>142.5</course><type>1</type></trkpt>
      <trkpt lat="38.4532234" lon="-2.41063476"><ele>2541</ele><speed>9.71</speed><time>2016-06-02T13:06:03Z</time><pdop>3.0</pdop><geoidheight>51.00</geoidheight><course>160.8</course><type>1</type></trkpt>
      <trkpt lat="38.45313707" lon="-2.41064094"><ele>2543</ele><speed>9.62</speed><time>2016-06-02T13:06:04Z</time><pdop>3.0</pdop><geoidheight>51.00</geoidheight><course>181.1</course><type>1</type></trkpt>
      <trkpt lat="38.45305511" lon="-2.41068561"><ele>2544</ele><speed>9.83</speed><time>2016-06-02T13:06:05Z</time><pdop>3.0</pdop><geoidheight>51.00</geoidheight><course>202.7</course><type>1</type></trkpt>
      <trkpt lat="38.45299709" lon="-2.41076071"><ele>2547</ele><speed>9.35</speed><time>2016-06-02T13:06:06Z</time><pdop>3.0</pdop><geoidheight>51.00</geoidheight><course>226.0</course><type>1</type></trkpt>
      <trkpt lat="38.45295629" lon="-2.41083905"><ele>2550</ele><speed>8.81</speed><time>2016-06-02T13:06:07Z</time><pdop>3.0</pdop><geoidheight>51.00</geoidheight><course>239.5</course><type>1</type></trkpt>
      <trkpt lat="38.45295617" lon="-2.41094794"><ele>2552</ele><speed>4.98</speed><time>2016-06-02T13:06:09Z</time><pdop>4.0</pdop><geoidheight>51.00</geoidheight><course>269.1</course><type>1</type></trkpt>
      <trkpt lat="38.45311055" lon="-2.41089156"><ele>2553</ele><speed>5.51</speed><time>2016-06-02T13:06:12Z</time><pdop>7.0</pdop><geoidheight>51.00</geoidheight><course>33.1</course><type>1</type></trkpt>
      <trkpt lat="38.4532607" lon="-2.41080737"><ele>2555</ele><speed>10.10</speed><time>2016-06-02T13:06:13Z</time><pdop>7.0</pdop><geoidheight>51.00</geoidheight><course>30.5</course><type>1</type></trkpt>
      <trkpt lat="38.45339417" lon="-2.41065605"><ele>2561</ele><speed>13.47</speed><time>2016-06-02T13:06:14Z</time><pdop>5.0</pdop><geoidheight>51.00</geoidheight><course>47.8</course><type>1</type></trkpt>
      <trkpt lat="38.45347941" lon="-2.41053105"><ele>2563</ele><speed>12.86</speed><time>2016-06-02T13:06:15Z</time><pdop>5.0</pdop><geoidheight>51.00</geoidheight><course>52.4</course><type>1</type></trkpt>
      <trkpt lat="38.45355015" lon="-2.41041478"><ele>2563</ele><speed>12.84</speed><time>2016-06-02T13:06:16Z</time><pdop>5.0</pdop><geoidheight>51.00</geoidheight><course>52.3</course><type>1</type></trkpt>
      <trkpt lat="38.45355955" lon="-2.41026668"><ele>2564</ele><speed>12.29</speed><time>2016-06-02T13:06:17Z</time><pdop>4.0</pdop><geoidheight>51.00</geoidheight><course>75.6</course><type>1</type></trkpt>
      <trkpt lat="38.45356815" lon="-2.41011468"><ele>2566</ele><speed>13.17</speed><time>2016-06-02T13:06:18Z</time><pdop>4.0</pdop><geoidheight>51.00</geoidheight><course>89.0</course><type>1</type></trkpt>
      <trkpt lat="38.45357363" lon="-2.40996231"><ele>2566</ele><speed>12.98</speed><time>2016-06-02T13:06:19Z</time><pdop>4.0</pdop><geoidheight>51.00</geoidheight><course>91.8</course><type>1</type></trkpt>
      <trkpt lat="38.4535669" lon="-2.40982326"><ele>2567</ele><speed>10.51</speed><time>2016-06-02T13:06:20Z</time><pdop>5.0</pdop><geoidheight>51.00</geoidheight><course>102.1</course><type>1</type></trkpt>
      <trkpt lat="38.45349233" lon="-2.40963617"><ele>2572</ele><speed>9.87</speed><time>2016-06-02T13:06:22Z</time><pdop>5.0</pdop><geoidheight>51.00</geoidheight><course>121.5</course><type>1</type></trkpt>
      <trkpt lat="38.4534046" lon="-2.40959385"><ele>2579</ele><speed>10.29</speed><time>2016-06-02T13:06:23Z</time><pdop>4.0</pdop><geoidheight>51.00</geoidheight><course>149.6</course><type>1</type></trkpt>
      <trkpt lat="38.45332526" lon="-2.40954532"><ele>2581</ele><speed>10.16</speed><time>2016-06-02T13:06:24Z</time><pdop>4.0</pdop><geoidheight>51.00</geoidheight><course>156.5</course><type>1</type></trkpt>
      <trkpt lat="38.45324171" lon="-2.40949915"><ele>2582</ele><speed>10.11</speed><time>2016-06-02T13:06:25Z</time><pdop>5.0</pdop><geoidheight>51.00</geoidheight><course>156.5</course><type>1</type></trkpt>
      <trkpt lat="38.45315488" lon="-2.40950451"><ele>2589</ele><speed>9.57</speed><time>2016-06-02T13:06:26Z</time><pdop>3.0</pdop><geoidheight>51.00</geoidheight><course>180.1</course><type>1</type></trkpt>
      <trkpt lat="38.45307549" lon="-2.40952971"><ele>2591</ele><speed>9.68</speed><time>2016-06-02T13:06:27Z</time><pdop>3.0</pdop><geoidheight>51.00</geoidheight><course>200.6</course><type>1</type></trkpt>
      <trkpt lat="38.4530048" lon="-2.40958997"><ele>2593</ele><speed>10.26</speed><time>2016-06-02T13:06:28Z</time><pdop>3.0</pdop><geoidheight>51.00</geoidheight><course>218.2</course><type>1</type></trkpt>
      <trkpt lat="38.45294122" lon="-2.40966698"><ele>2593</ele><speed>9.95</speed><time>2016-06-02T13:06:29Z</time><pdop>3.0</pdop><geoidheight>51.00</geoidheight><course>224.2</course><type>1</type></trkpt>
      <trkpt lat="38.4528771" lon="-2.40974642"><ele>2593</ele><speed>9.94</speed><time>2016-06-02T13:06:30Z</time><pdop>5.0</pdop><geoidheight>51.00</geoidheight><course>224.2</course><type>1</type></trkpt>
      <trkpt lat="38.45293086" lon="-2.40990197"><ele>2596</ele><speed>7.75</speed><time>2016-06-02T13:06:32Z</time><pdop>5.0</pdop><geoidheight>51.00</geoidheight><course>292.0</course><type>1</type></trkpt>
      <trkpt lat="38.45303335" lon="-2.41003272"><ele>2603</ele><speed>9.81</speed><time>2016-06-02T13:06:34Z</time><pdop>5.0</pdop><geoidheight>51.00</geoidheight><course>329.4</course><type>1</type></trkpt>
      <trkpt lat="38.45318556" lon="-2.41004213"><ele>2606</ele><speed>9.37</speed><time>2016-06-02T13:06:36Z</time><pdop>5.0</pdop><geoidheight>51.00</geoidheight><course>11.2</course><type>1</type></trkpt>
      <trkpt lat="38.45326933" lon="-2.40999852"><ele>2607</ele><speed>10.33</speed><time>2016-06-02T13:06:37Z</time><pdop>5.0</pdop><geoidheight>51.00</geoidheight><course>25.4</course><type>1</type></trkpt>
      <trkpt lat="38.45336155" lon="-2.40991918"><ele>2607</ele><speed>12.50</speed><time>2016-06-02T13:06:38Z</time><pdop>5.0</pdop><geoidheight>51.00</geoidheight><course>37.7</course><type>1</type></trkpt>
      <trkpt lat="38.45345421" lon="-2.40982632"><ele>2608</ele><speed>13.10</speed><time>2016-06-02T13:06:39Z</time><pdop>5.0</pdop><geoidheight>51.00</geoidheight><course>38.8</course><type>1</type></trkpt>
      <trkpt lat="38.45354619" lon="-2.40973233"><ele>2608</ele><speed>13.10</speed><time>2016-06-02T13:06:40Z</time><pdop>7.0</pdop><geoidheight>51.00</geoidheight><course>38.8</course><type>1</type></trkpt>
      <trkpt lat="38.45364971" lon="-2.40956392"><ele>2611</ele><speed>8.90</speed><time>2016-06-02T13:06:42Z</time><pdop>5.0</pdop><geoidheight>51.00</geoidheight><course>49.8</course><type>1</type></trkpt>
      <trkpt lat="38.45374258" lon="-2.40937941"><ele>2612</ele><speed>10.19</speed><time>2016-06-02T13:06:44Z</time><pdop>6.0</pdop><geoidheight>51.00</geoidheight><course>61.9</course><type>1</type></trkpt>
      <trkpt lat="38.45379843" lon="-2.40914763"><ele>2615</ele><speed>10.95</speed><time>2016-06-02T13:06:46Z</time><pdop>4.0</pdop><geoidheight>51.00</geoidheight><course>83.5</course><type>1</type></trkpt>
      <trkpt lat="38.45380948" lon="-2.40902327"><ele>2615</ele><speed>10.93</speed><time>2016-06-02T13:06:47Z</time><pdop>5.0</pdop><geoidheight>51.00</geoidheight><course>83.5</course><type>1</type></trkpt>
      <trkpt lat="38.45374028" lon="-2.40883007"><ele>2620</ele><speed>9.89</speed><time>2016-06-02T13:06:49Z</time><pdop>4.0</pdop><geoidheight>51.00</geoidheight><course>120.6</course><type>1</type></trkpt>
      <trkpt lat="38.45365738" lon="-2.40876262"><ele>2620</ele><speed>10.40</speed><time>2016-06-02T13:06:50Z</time><pdop>4.0</pdop><geoidheight>51.00</geoidheight><course>140.5</course><type>1</type></trkpt>
      <trkpt lat="38.45356802" lon="-2.40873523"><ele>2620</ele><speed>10.22</speed><time>2016-06-02T13:06:51Z</time><pdop>3.0</pdop><geoidheight>51.00</geoidheight><course>159.5</course><type>1</type></trkpt>
      <trkpt lat="38.45347288" lon="-2.40872934"><ele>2621</ele><speed>10.42</speed><time>2016-06-02T13:06:52Z</time><pdop>3.0</pdop><geoidheight>51.00</geoidheight><course>175.3</course><type>1</type></trkpt>
      <trkpt lat="38.45338006" lon="-2.40875791"><ele>2622</ele><speed>10.65</speed><time>2016-06-02T13:06:53Z</time><pdop>3.0</pdop><geoidheight>51.00</geoidheight><course>192.7</course><type>1</type></trkpt>
      <trkpt lat="38.4532904" lon="-2.40882846"><ele>2623</ele><speed>11.38</speed><time>2016-06-02T13:06:54Z</time><pdop>3.0</pdop><geoidheight>51.00</geoidheight><course>218.2</course><type>1</type></trkpt>
      <trkpt lat="38.45321767" lon="-2.40891196"><ele>2624</ele><speed>11.19</speed><time>2016-06-02T13:06:55Z</time><pdop>3.0</pdop><geoidheight>51.00</geoidheight><course>225.0</course><type>1</type></trkpt>
      <trkpt lat="38.4532011" lon="-2.40902576"><ele>2624</ele><speed>10.02</speed><time>2016-06-02T13:06:56Z</time><pdop>3.0</pdop><geoidheight>51.00</geoidheight><course>256.2</course><type>1</type></trkpt>
      <trkpt lat="38.45317953" lon="-2.40913722"><ele>2624</ele><speed>10.02</speed><time>2016-06-02T13:06:57Z</time><pdop>4.0</pdop><geoidheight>51.00</geoidheight><course>256.2</course><type>1</type></trkpt>
      <trkpt lat="38.45324163" lon="-2.40929282"><ele>2626</ele><speed>7.10</speed><time>2016-06-02T13:06:59Z</time><pdop>5.0</pdop><geoidheight>51.00</geoidheight><course>305.8</course><type>1</type></trkpt>
      <trkpt lat="38.45339554" lon="-2.40931867"><ele>2623</ele><speed>8.76</speed><time>2016-06-02T13:07:01Z</time><pdop>5.0</pdop><geoidheight>51.00</geoidheight><course>347.1</course><type>1</type></trkpt>
      <trkpt lat="38.45348907" lon="-2.40924155"><ele>2622</ele><speed>10.42</speed><time>2016-06-02T13:07:02Z</time><pdop>4.0</pdop><geoidheight>51.00</geoidheight><course>25.8</course><type>1</type></trkpt>
      <trkpt lat="38.45356857" lon="-2.40917577"><ele>2623</ele><speed>10.93</speed><time>2016-06-02T13:07:03Z</time><pdop>4.0</pdop><geoidheight>51.00</geoidheight><course>39.3</course><type>1</type></trkpt>
      <trkpt lat="38.45360485" lon="-2.40907095"><ele>2624</ele><speed>10.41</speed><time>2016-06-02T13:07:04Z</time><pdop>4.0</pdop><geoidheight>51.00</geoidheight><course>63.0</course><type>1</type></trkpt>
      <trkpt lat="38.45364075" lon="-2.4089746"><ele>2625</ele><speed>9.67</speed><time>2016-06-02T13:07:05Z</time><pdop>4.0</pdop><geoidheight>51.00</geoidheight><course>69.3</course><type>1</type></trkpt>
      <trkpt lat="38.45363181" lon="-2.40879249"><ele>2625</ele><speed>10.16</speed><time>2016-06-02T13:07:07Z</time><pdop>4.0</pdop><geoidheight>51.00</geoidheight><course>103.3</course><type>1</type></trkpt>
      <trkpt lat="38.45361134" lon="-2.40867579"><ele>2624</ele><speed>10.62</speed><time>2016-06-02T13:07:08Z</time><pdop>4.0</pdop><geoidheight>51.00</geoidheight><course>106.1</course><type>1</type></trkpt>
      <trkpt lat="38.4535877" lon="-2.40855353"><ele>2625</ele><speed>10.84</speed><time>2016-06-02T13:07:09Z</time><pdop>3.0</pdop><geoidheight>51.00</geoidheight><course>105.3</course><type>1</type></trkpt>
      <trkpt lat="38.45356066" lon="-2.40843954"><ele>2626</ele><speed>10.64</speed><time>2016-06-02T13:07:10Z</time><pdop>3.0</pdop><geoidheight>51.00</geoidheight><course>110.5</course><type>1</type></trkpt>
      <trkpt lat="38.45352528" lon="-2.40833622"><ele>2627</ele><speed>10.15</speed><time>2016-06-02T13:07:11Z</time><pdop>3.0</pdop><geoidheight>51.00</geoidheight><course>117.9</course><type>1</type></trkpt>
      <trkpt lat="38.45348659" lon="-2.40823629"><ele>2628</ele><speed>10.15</speed><time>2016-06-02T13:07:12Z</time><pdop>3.0</pdop><geoidheight>51.00</geoidheight><course>121.3</course><type>1</type></trkpt>
      <trkpt lat="38.45344282" lon="-2.40813601"><ele>2627</ele><speed>10.08</speed><time>2016-06-02T13:07:13Z</time><pdop>3.0</pdop><geoidheight>51.00</geoidheight><course>114.6</course><type>1</type></trkpt>
      <trkpt lat="38.45340132" lon="-2.40804262"><ele>2627</ele><speed>9.46</speed><time>2016-06-02T13:07:14Z</time><pdop>3.0</pdop><geoidheight>51.00</geoidheight><course>110.2</course><type>1</type></trkpt>
      <trkpt lat="38.45337191" lon="-2.40794088"><ele>2626</ele><speed>9.46</speed><time>2016-06-02T13:07:15Z</time><pdop>4.0</pdop><geoidheight>51.00</geoidheight><course>110.2</course><type>1</type></trkpt>
      <trkpt lat="38.45337481" lon="-2.40781708"><ele>2627</ele><speed>9.43</speed><time>2016-06-02T13:07:16Z</time><pdop>5.0</pdop><geoidheight>51.00</geoidheight><course>97.8</course><type>1</type></trkpt>
      <trkpt lat="38.45332176" lon="-2.40761625"><ele>2627</ele><speed>11.15</speed><time>2016-06-02T13:07:18Z</time><pdop>4.0</pdop><geoidheight>51.00</geoidheight><course>108.6</course><type>1</type></trkpt>
      <trkpt lat="38.4532898" lon="-2.40749535"><ele>2626</ele><speed>11.14</speed><time>2016-06-02T13:07:19Z</time><pdop>6.0</pdop><geoidheight>51.00</geoidheight><course>108.6</course><type>1</type></trkpt>
      <trkpt lat="38.45326898" lon="-2.40731771"><ele>2624</ele><speed>13.79</speed><time>2016-06-02T13:07:20Z</time><pdop>4.0</pdop><geoidheight>51.00</geoidheight><course>107.1</course><type>1</type></trkpt>
      <trkpt lat="38.45323939" lon="-2.40716379"><ele>2623</ele><speed>12.98</speed><time>2016-06-02T13:07:21Z</time><pdop>4.0</pdop><geoidheight>51.00</geoidheight><course>105.9</course><type>1</type></trkpt>
      <trkpt lat="38.45321027" lon="-2.40702608"><ele>2623</ele><speed>12.39</speed><time>2016-06-02T13:07:22Z</time><pdop>4.0</pdop><geoidheight>51.00</geoidheight><course>104.6</course><type>1</type></trkpt>
      <trkpt lat="38.45318212" lon="-2.40688872"><ele>2623</ele><speed>12.39</speed><time>2016-06-02T13:07:23Z</time><pdop>4.0</pdop><geoidheight>51.00</geoidheight><course>104.6</course><type>1</type></trkpt>
      <trkpt lat="38.45316269" lon="-2.40675138"><ele>2621</ele><speed>12.82</speed><time>2016-06-02T13:07:24Z</time><pdop>4.0</pdop><geoidheight>51.00</geoidheight><course>101.4</course><type>1</type></trkpt>
      <trkpt lat="38.4531473" lon="-2.40659726"><ele>2621</ele><speed>13.71</speed><time>2016-06-02T13:07:25Z</time><pdop>3.0</pdop><geoidheight>51.00</geoidheight><course>99.5</course><type>1</type></trkpt>
      <trkpt lat="38.45313558" lon="-2.40643254"><ele>2619</ele><speed>14.63</speed><time>2016-06-02T13:07:26Z</time><pdop>4.0</pdop><geoidheight>51.00</geoidheight><course>97.7</course><type>1</type></trkpt>
      <trkpt lat="38.45312149" lon="-2.40625997"><ele>2617</ele><speed>14.73</speed><time>2016-06-02T13:07:27Z</time><pdop>4.0</pdop><geoidheight>51.00</geoidheight><course>94.6</course><type>1</type></trkpt>
      <trkpt lat="38.45311078" lon="-2.40609211"><ele>2616</ele><speed>14.70</speed><time>2016-06-02T13:07:28Z</time><pdop>5.0</pdop><geoidheight>51.00</geoidheight><course>94.6</course><type>1</type></trkpt>
      <trkpt lat="38.45310391" lon="-2.40592999"><ele>2615</ele><speed>14.03</speed><time>2016-06-02T13:07:29Z</time><pdop>4.0</pdop><geoidheight>51.00</geoidheight><course>94.0</course><type>1</type></trkpt>
      <trkpt lat="38.45308824" lon="-2.40577839"><ele>2616</ele><speed>13.91</speed><time>2016-06-02T13:07:30Z</time><pdop>4.0</pdop><geoidheight>51.00</geoidheight><course>96.2</course><type>1</type></trkpt>
      <trkpt lat="38.45307463" lon="-2.40562013"><ele>2615</ele><speed>13.90</speed><time>2016-06-02T13:07:31Z</time><pdop>5.0</pdop><geoidheight>51.00</geoidheight><course>96.2</course><type>1</type></trkpt>
      <trkpt lat="38.45306101" lon="-2.40544872"><ele>2616</ele><speed>14.67</speed><time>2016-06-02T13:07:32Z</time><pdop>4.0</pdop><geoidheight>51.00</geoidheight><course>94.5</course><type>1</type></trkpt>
      <trkpt lat="38.45305169" lon="-2.40527444"><ele>2615</ele><speed>14.85</speed><time>2016-06-02T13:07:33Z</time><pdop>4.0</pdop><geoidheight>51.00</geoidheight><course>90.3</course><type>1</type></trkpt>
      <trkpt lat="38.45306471" lon="-2.40510722"><ele>2617</ele><speed>14.54</speed><time>2016-06-02T13:07:34Z</time><pdop>3.0</pdop><geoidheight>51.00</geoidheight><course>85.7</course><type>1</type></trkpt>
      <trkpt lat="38.45308548" lon="-2.40495658"><ele>2619</ele><speed>12.72</speed><time>2016-06-02T13:07:35Z</time><pdop>4.0</pdop><geoidheight>51.00</geoidheight><course>78.7</course><type>1</type></trkpt>
      <trkpt lat="38.45310752" lon="-2.40481622"><ele>2621</ele><speed>12.59</speed><time>2016-06-02T13:07:36Z</time><pdop>4.0</pdop><geoidheight>51.00</geoidheight><course>78.7</course><type>1</type></trkpt>
      <trkpt lat="38.45314975" lon="-2.40468982"><ele>2625</ele><speed>11.92</speed><time>2016-06-02T13:07:37Z</time><pdop>4.0</pdop><geoidheight>51.00</geoidheight><course>67.9</course><type>1</type></trkpt>
      <trkpt lat="38.45319647" lon="-2.40456971"><ele>2624</ele><speed>12.59</speed><time>2016-06-02T13:07:38Z</time><pdop>4.0</pdop><geoidheight>51.00</geoidheight><course>66.9</course><type>1</type></trkpt>
      <trkpt lat="38.45324893" lon="-2.40443157"><ele>2624</ele><speed>13.87</speed><time>2016-06-02T13:07:39Z</time><pdop>4.0</pdop><geoidheight>51.00</geoidheight><course>64.4</course><type>1</type></trkpt>
      <trkpt lat="38.45330784" lon="-2.404287"><ele>2624</ele><speed>13.82</speed><time>2016-06-02T13:07:40Z</time><pdop>4.0</pdop><geoidheight>51.00</geoidheight><course>62.2</course><type>1</type></trkpt>
      <trkpt lat="38.45339649" lon="-2.40416305"><ele>2626</ele><speed>13.95</speed><time>2016-06-02T13:07:41Z</time><pdop>4.0</pdop><geoidheight>51.00</geoidheight><course>48.1</course><type>1</type></trkpt>
      <trkpt lat="38.45348005" lon="-2.40404447"><ele>2627</ele><speed>13.91</speed><time>2016-06-02T13:07:42Z</time><pdop>4.0</pdop><geoidheight>51.00</geoidheight><course>48.1</course><type>1</type></trkpt>
      <trkpt lat="38.45357407" lon="-2.40398707"><ele>2628</ele><speed>11.79</speed><time>2016-06-02T13:07:43Z</time><pdop>5.0</pdop><geoidheight>51.00</geoidheight><course>33.8</course><type>1</type></trkpt>
      <trkpt lat="38.45366779" lon="-2.40391442"><ele>2628</ele><speed>11.98</speed><time>2016-06-02T13:07:44Z</time><pdop>6.0</pdop><geoidheight>51.00</geoidheight><course>31.4</course><type>1</type></trkpt>
      <trkpt lat="38.45383176" lon="-2.40394983"><ele>2625</ele><speed>9.24</speed><time>2016-06-02T13:07:46Z</time><pdop>6.0</pdop><geoidheight>51.00</geoidheight><course>353.5</course><type>1</type></trkpt>
      <trkpt lat="38.45388691" lon="-2.40405874"><ele>2627</ele><speed>8.02</speed><time>2016-06-02T13:07:47Z</time><pdop>4.0</pdop><geoidheight>51.00</geoidheight><course>314.5</course><type>1</type></trkpt>
      <trkpt lat="38.45394038" lon="-2.40421592"><ele>2625</ele><speed>6.99</speed><time>2016-06-02T13:07:49Z</time><pdop>5.0</pdop><geoidheight>51.00</geoidheight><course>278.1</course><type>1</type></trkpt>
      <trkpt lat="38.45386111" lon="-2.4042721"><ele>2625</ele><speed>8.66</speed><time>2016-06-02T13:07:50Z</time><pdop>4.0</pdop><geoidheight>51.00</geoidheight><course>218.5</course><type>1</type></trkpt>
      <trkpt lat="38.4537752" lon="-2.40431606"><ele>2627</ele><speed>9.15</speed><time>2016-06-02T13:07:51Z</time><pdop>3.0</pdop><geoidheight>51.00</geoidheight><course>193.3</course><type>1</type></trkpt>
      <trkpt lat="38.45369911" lon="-2.40431667"><ele>2627</ele><speed>8.43</speed><time>2016-06-02T13:07:52Z</time><pdop>4.0</pdop><geoidheight>51.00</geoidheight><course>176.3</course><type>1</type></trkpt>
      <trkpt lat="38.45356225" lon="-2.40424723"><ele>2629</ele><speed>8.83</speed><time>2016-06-02T13:07:54Z</time><pdop>4.0</pdop><geoidheight>51.00</geoidheight><course>151.4</course><type>1</type></trkpt>
      <trkpt lat="38.45343429" lon="-2.4041544"><ele>2632</ele><speed>8.45</speed><time>2016-06-02T13:07:56Z</time><pdop>4.0</pdop><geoidheight>51.00</geoidheight><course>154.6</course><type>1</type></trkpt>
      <trkpt lat="38.45331265" lon="-2.40407249"><ele>2633</ele><speed>8.10</speed><time>2016-06-02T13:07:58Z</time><pdop>5.0</pdop><geoidheight>51.00</geoidheight><course>151.4</course><type>1</type></trkpt>
      <trkpt lat="38.45320161" lon="-2.40392184"><ele>2633</ele><speed>8.92</speed><time>2016-06-02T13:08:00Z</time><pdop>6.0</pdop><geoidheight>51.00</geoidheight><course>132.4</course><type>1</type></trkpt>
      <trkpt lat="38.45309296" lon="-2.40377158"><ele>2632</ele><speed>9.34</speed><time>2016-06-02T13:08:02Z</time><pdop>8.0</pdop><geoidheight>51.00</geoidheight><course>131.5</course><type>1</type></trkpt>
      <trkpt lat="38.45305247" lon="-2.4034904"><ele>2633</ele><speed>11.02</speed><time>2016-06-02T13:08:04Z</time><pdop>8.0</pdop><geoidheight>51.00</geoidheight><course>111.6</course><type>1</type></trkpt>
      <trkpt lat="38.45296109" lon="-2.40320764"><ele>2635</ele><speed>10.99</speed><time>2016-06-02T13:08:06Z</time><pdop>8.0</pdop><geoidheight>51.00</geoidheight><course>109.6</course><type>1</type></trkpt>
      <trkpt lat="38.45290043" lon="-2.40299784"><ele>2638</ele><speed>10.99</speed><time>2016-06-02T13:08:08Z</time><pdop>6.0</pdop><geoidheight>51.00</geoidheight><course>102.0</course><type>1</type></trkpt>
      <trkpt lat="38.45288249" lon="-2.40272629"><ele>2639</ele><speed>11.87</speed><time>2016-06-02T13:08:10Z</time><pdop>6.0</pdop><geoidheight>51.00</geoidheight><course>95.9</course><type>1</type></trkpt>
      <trkpt lat="38.45290438" lon="-2.40258881"><ele>2639</ele><speed>10.74</speed><time>2016-06-02T13:08:11Z</time><pdop>6.0</pdop><geoidheight>51.00</geoidheight><course>87.2</course><type>1</type></trkpt>
      <trkpt lat="38.45296198" lon="-2.40230415"><ele>2639</ele><speed>12.84</speed><time>2016-06-02T13:08:13Z</time><pdop>6.0</pdop><geoidheight>51.00</geoidheight><course>70.7</course><type>1</type></trkpt>
      <trkpt lat="38.45300867" lon="-2.40217692"><ele>2637</ele><speed>13.92</speed><time>2016-06-02T13:08:14Z</time><pdop>5.0</pdop><geoidheight>51.00</geoidheight><course>68.7</course><type>1</type></trkpt>
      <trkpt lat="38.45305402" lon="-2.40202851"><ele>2637</ele><speed>13.90</speed><time>2016-06-02T13:08:15Z</time><pdop>6.0</pdop><geoidheight>51.00</geoidheight><course>68.8</course><type>1</type></trkpt>
      <trkpt lat="38.45312521" lon="-2.401856"><ele>2638</ele><speed>15.38</speed><time>2016-06-02T13:08:16Z</time><pdop>5.0</pdop><geoidheight>51.00</geoidheight><course>59.2</course><type>1</type></trkpt>
      <trkpt lat="38.45321272" lon="-2.40170607"><ele>2638</ele><speed>15.51</speed><time>2016-06-02T13:08:17Z</time><pdop>5.0</pdop><geoidheight>51.00</geoidheight><course>53.7</course><type>1</type></trkpt>
      <trkpt lat="38.45330335" lon="-2.40156716"><ele>2638</ele><speed>15.01</speed><time>2016-06-02T13:08:18Z</time><pdop>6.0</pdop><geoidheight>51.00</geoidheight><course>51.8</course><type>1</type></trkpt>
      <trkpt lat="38.45347403" lon="-2.40134568"><ele>2637</ele><speed>13.59</speed><time>2016-06-02T13:08:20Z</time><pdop>9.0</pdop><geoidheight>51.00</geoidheight><course>48.0</course><type>1</type></trkpt>
      <trkpt lat="38.45378769" lon="-2.40127316"><ele>2637</ele><speed>14.80</speed><time>2016-06-02T13:08:22Z</time><pdop>12.0</pdop><geoidheight>51.00</geoidheight><course>22.5</course><type>1</type></trkpt>
      <trkpt lat="38.45394884" lon="-2.40151595"><ele>2638</ele><speed>10.87</speed><time>2016-06-02T13:08:24Z</time><pdop>7.0</pdop><geoidheight>51.00</geoidheight><course>330.8</course><type>1</type></trkpt>
      <trkpt lat="38.45405369" lon="-2.4016849"><ele>2641</ele><speed>8.26</speed><time>2016-06-02T13:08:26Z</time><pdop>5.0</pdop><geoidheight>51.00</geoidheight><course>303.1</course><type>1</type></trkpt>
      <trkpt lat="38.45402495" lon="-2.40184538"><ele>2641</ele><speed>7.25</speed><time>2016-06-02T13:08:28Z</time><pdop>5.0</pdop><geoidheight>51.00</geoidheight><course>260.5</course><type>1</type></trkpt>
      <trkpt lat="38.45397943" lon="-2.40202017"><ele>2643</ele><speed>6.74</speed><time>2016-06-02T13:08:30Z</time><pdop>5.0</pdop><geoidheight>51.00</geoidheight><course>251.3</course><type>1</type></trkpt>
      <trkpt lat="38.45381738" lon="-2.40209519"><ele>2640</ele><speed>7.53</speed><time>2016-06-02T13:08:32Z</time><pdop>6.0</pdop><geoidheight>51.00</geoidheight><course>203.2</course><type>1</type></trkpt>
      <trkpt lat="38.45364878" lon="-2.40202369"><ele>2640</ele><speed>8.09</speed><time>2016-06-02T13:08:34Z</time><pdop>8.0</pdop><geoidheight>51.00</geoidheight><course>168.8</course><type>1</type></trkpt>
      <trkpt lat="38.45354145" lon="-2.40178864"><ele>2641</ele><speed>9.39</speed><time>2016-06-02T13:08:36Z</time><pdop>8.0</pdop><geoidheight>51.00</geoidheight><course>129.0</course><type>1</type></trkpt>
      <trkpt lat="38.45351265" lon="-2.40161182"><ele>2641</ele><speed>10.81</speed><time>2016-06-02T13:08:37Z</time><pdop>7.0</pdop><geoidheight>51.00</geoidheight><course>111.6</course><type>1</type></trkpt>
      <trkpt lat="38.45351241" lon="-2.40142274"><ele>2639</ele><speed>12.24</speed><time>2016-06-02T13:08:38Z</time><pdop>6.0</pdop><geoidheight>51.00</geoidheight><course>101.2</course><type>1</type></trkpt>
      <trkpt lat="38.45350605" lon="-2.4012491"><ele>2639</ele><speed>12.57</speed><time>2016-06-02T13:08:39Z</time><pdop>5.0</pdop><geoidheight>51.00</geoidheight><course>94.0</course><type>1</type></trkpt>
      <trkpt lat="38.45349058" lon="-2.40110259"><ele>2638</ele><speed>12.83</speed><time>2016-06-02T13:08:40Z</time><pdop>4.0</pdop><geoidheight>51.00</geoidheight><course>93.6</course><type>1</type></trkpt>
      <trkpt lat="38.45348433" lon="-2.4009465"><ele>2638</ele><speed>13.32</speed><time>2016-06-02T13:08:41Z</time><pdop>4.0</pdop><geoidheight>51.00</geoidheight><course>93.9</course><type>1</type></trkpt>
      <trkpt lat="38.45347523" lon="-2.40078915"><ele>2636</ele><speed>13.49</speed><time>2016-06-02T13:08:42Z</time><pdop>4.0</pdop><geoidheight>51.00</geoidheight><course>96.7</course><type>1</type></trkpt>
      <trkpt lat="38.4534532" lon="-2.40064234"><ele>2633</ele><speed>13.67</speed><time>2016-06-02T13:08:43Z</time><pdop>3.0</pdop><geoidheight>51.00</geoidheight><course>99.0</course><type>1</type></trkpt>
      <trkpt lat="38.45344049" lon="-2.40049439"><ele>2632</ele><speed>13.00</speed><time>2016-06-02T13:08:44Z</time><pdop>3.0</pdop><geoidheight>51.00</geoidheight><course>97.2</course><type>1</type></trkpt>
      <trkpt lat="38.45342862" lon="-2.40035463"><ele>2633</ele><speed>12.08</speed><time>2016-06-02T13:08:45Z</time><pdop>3.0</pdop><geoidheight>51.00</geoidheight><course>96.5</course><type>1</type></trkpt>
      <trkpt lat="38.45342077" lon="-2.40022861"><ele>2633</ele><speed>11.22</speed><time>2016-06-02T13:08:46Z</time><pdop>3.0</pdop><geoidheight>51.00</geoidheight><course>95.9</course><type>1</type></trkpt>
      <trkpt lat="38.45341594" lon="-2.40009079"><ele>2631</ele><speed>11.62</speed><time>2016-06-02T13:08:47Z</time><pdop>3.0</pdop><geoidheight>51.00</geoidheight><course>93.9</course><type>1</type></trkpt>
      <trkpt lat="38.45341493" lon="-2.39994473"><ele>2630</ele><speed>12.68</speed><time>2016-06-02T13:08:48Z</time><pdop>3.0</pdop><geoidheight>51.00</geoidheight><course>92.9</course><type>1</type></trkpt>
      <trkpt lat="38.45342833" lon="-2.39976663"><ele>2629</ele><speed>14.46</speed><time>2016-06-02T13:08:49Z</time><pdop>3.0</pdop><geoidheight>51.00</geoidheight><course>86.4</course><type>1</type></trkpt>
      <trkpt lat="38.45344071" lon="-2.39958897"><ele>2632</ele><speed>15.55</speed><time>2016-06-02T13:08:50Z</time><pdop>3.0</pdop><geoidheight>51.00</geoidheight><course>85.3</course><type>1</type></trkpt>
      <trkpt lat="38.45344264" lon="-2.39942633"><ele>2637</ele><speed>14.67</speed><time>2016-06-02T13:08:51Z</time><pdop>3.0</pdop><geoidheight>51.00</geoidheight><course>88.1</course><type>1</type></trkpt>
      <trkpt lat="38.45343028" lon="-2.39928609"><ele>2641</ele><speed>13.27</speed><time>2016-06-02T13:08:52Z</time><pdop>3.0</pdop><geoidheight>51.00</geoidheight><course>94.7</course><type>1</type></trkpt>
      <trkpt lat="38.45341342" lon="-2.39916158"><ele>2646</ele><speed>12.13</speed><time>2016-06-02T13:08:53Z</time><pdop>3.0</pdop><geoidheight>51.00</geoidheight><course>97.2</course><type>1</type></trkpt>
      <trkpt lat="38.45339599" lon="-2.39905801"><ele>2651</ele><speed>10.94</speed><time>2016-06-02T13:08:54Z</time><pdop>3.0</pdop><geoidheight>51.00</geoidheight><course>99.8</course><type>1</type></trkpt>
      <trkpt lat="38.4533716" lon="-2.39895019"><ele>2650</ele><speed>10.13</speed><time>2016-06-02T13:08:55Z</time><pdop>4.0</pdop><geoidheight>51.00</geoidheight><course>101.6</course><type>1</type></trkpt>
      <trkpt lat="38.45337736" lon="-2.3987884"><ele>2649</ele><speed>12.27</speed><time>2016-06-02T13:08:56Z</time><pdop>3.0</pdop><geoidheight>51.00</geoidheight><course>93.8</course><type>1</type></trkpt>
      <trkpt lat="38.45337004" lon="-2.39864737"><ele>2649</ele><speed>12.77</speed><time>2016-06-02T13:08:57Z</time><pdop>3.0</pdop><geoidheight>51.00</geoidheight><course>93.0</course><type>1</type></trkpt>
      <trkpt lat="38.45336968" lon="-2.39850123"><ele>2649</ele><speed>13.19</speed><time>2016-06-02T13:08:58Z</time><pdop>4.0</pdop><geoidheight>51.00</geoidheight><course>91.8</course><type>1</type></trkpt>
      <trkpt lat="38.45337799" lon="-2.39835992"><ele>2649</ele><speed>12.95</speed><time>2016-06-02T13:08:59Z</time><pdop>4.0</pdop><geoidheight>51.00</geoidheight><course>89.0</course><type>1</type></trkpt>
      <trkpt lat="38.45338002" lon="-2.39824425"><ele>2650</ele><speed>11.03</speed><time>2016-06-02T13:09:00Z</time><pdop>3.0</pdop><geoidheight>51.00</geoidheight><course>88.6</course><type>1</type></trkpt>
      <trkpt lat="38.453371" lon="-2.3981731"><ele>2651</ele><speed>8.05</speed><time>2016-06-02T13:09:01Z</time><pdop>3.0</pdop><geoidheight>51.00</geoidheight><course>92.5</course><type>1</type></trkpt>
      <trkpt lat="38.45335928" lon="-2.39810157"><ele>2653</ele><speed>6.86</speed><time>2016-06-02T13:09:02Z</time><pdop>3.0</pdop><geoidheight>51.00</geoidheight><course>105.0</course><type>1</type></trkpt>
      <trkpt lat="38.4533329" lon="-2.39802645"><ele>2655</ele><speed>7.68</speed><time>2016-06-02T13:09:03Z</time><pdop>3.0</pdop><geoidheight>51.00</geoidheight><course>113.9</course><type>1</type></trkpt>
      <trkpt lat="38.45328796" lon="-2.3979341"><ele>2654</ele><speed>8.58</speed><time>2016-06-02T13:09:04Z</time><pdop>3.0</pdop><geoidheight>51.00</geoidheight><course>119.8</course><type>1</type></trkpt>
      <trkpt lat="38.45323235" lon="-2.3978544"><ele>2657</ele><speed>8.76</speed><time>2016-06-02T13:09:05Z</time><pdop>3.0</pdop><geoidheight>51.00</geoidheight><course>132.6</course><type>1</type></trkpt>
      <trkpt lat="38.45313647" lon="-2.39785114"><ele>2657</ele><speed>9.03</speed><time>2016-06-02T13:09:06Z</time><pdop>3.0</pdop><geoidheight>51.00</geoidheight><course>168.3</course><type>1</type></trkpt>
      <trkpt lat="38.45305964" lon="-2.39783713"><ele>2659</ele><speed>8.36</speed><time>2016-06-02T13:09:07Z</time><pdop>3.0</pdop><geoidheight>51.00</geoidheight><course>178.3</course><type>1</type></trkpt>
      <trkpt lat="38.45299727" lon="-2.3978814"><ele>2661</ele><speed>7.85</speed><time>2016-06-02T13:09:08Z</time><pdop>4.0</pdop><geoidheight>51.00</geoidheight><course>203.3</course><type>1</type></trkpt>
      <trkpt lat="38.45292699" lon="-2.39789384"><ele>2668</ele><speed>7.33</speed><time>2016-06-02T13:09:09Z</time><pdop>3.0</pdop><geoidheight>51.00</geoidheight><course>201.3</course><type>1</type></trkpt>
      <trkpt lat="38.45285714" lon="-2.39799155"><ele>2670</ele><speed>6.17</speed><time>2016-06-02T13:09:11Z</time><pdop>3.0</pdop><geoidheight>51.00</geoidheight><course>226.4</course><type>1</type></trkpt>
      <trkpt lat="38.4528247" lon="-2.39806213"><ele>2672</ele><speed>6.94</speed><time>2016-06-02T13:09:12Z</time><pdop>3.0</pdop><geoidheight>51.00</geoidheight><course>242.1</course><type>1</type></trkpt>
      <trkpt lat="38.45281156" lon="-2.39814917"><ele>2674</ele><speed>7.52</speed><time>2016-06-02T13:09:13Z</time><pdop>3.0</pdop><geoidheight>51.00</geoidheight><course>259.4</course><type>1</type></trkpt>
      <trkpt lat="38.45283373" lon="-2.39822598"><ele>2676</ele><speed>7.64</speed><time>2016-06-02T13:09:14Z</time><pdop>3.0</pdop><geoidheight>51.00</geoidheight><course>284.7</course><type>1</type></trkpt>
      <trkpt lat="38.45286487" lon="-2.398302"><ele>2676</ele><speed>7.75</speed><time>2016-06-02T13:09:15Z</time><pdop>4.0</pdop><geoidheight>51.00</geoidheight><course>295.1</course><type>1</type></trkpt>
      <trkpt lat="38.45297233" lon="-2.39848431"><ele>2679</ele><speed>9.23</speed><time>2016-06-02T13:09:17Z</time><pdop>6.0</pdop><geoidheight>51.00</geoidheight><course>306.9</course><type>1</type></trkpt>
      <trkpt lat="38.45316877" lon="-2.39834857"><ele>2678</ele><speed>8.39</speed><time>2016-06-02T13:09:19Z</time><pdop>8.0</pdop><geoidheight>51.00</geoidheight><course>11.1</course><type>1</type></trkpt>
      <trkpt lat="38.45331358" lon="-2.39818096"><ele>2681</ele><speed>13.93</speed><time>2016-06-02T13:09:20Z</time><pdop>5.0</pdop><geoidheight>51.00</geoidheight><course>35.6</course><type>1</type></trkpt>
      <trkpt lat="38.45342729" lon="-2.39805798"><ele>2684</ele><speed>14.32</speed><time>2016-06-02T13:09:21Z</time><pdop>5.0</pdop><geoidheight>51.00</geoidheight><course>41.4</course><type>1</type></trkpt>
      <trkpt lat="38.45352746" lon="-2.39792638"><ele>2688</ele><speed>14.14</speed><time>2016-06-02T13:09:22Z</time><pdop>4.0</pdop><geoidheight>51.00</geoidheight><course>51.1</course><type>1</type></trkpt>
      <trkpt lat="38.45359852" lon="-2.39779479"><ele>2690</ele><speed>13.82</speed><time>2016-06-02T13:09:23Z</time><pdop>4.0</pdop><geoidheight>51.00</geoidheight><course>56.6</course><type>1</type></trkpt>
      <trkpt lat="38.45364548" lon="-2.39764011"><ele>2691</ele><speed>13.62</speed><time>2016-06-02T13:09:24Z</time><pdop>4.0</pdop><geoidheight>51.00</geoidheight><course>66.2</course><type>1</type></trkpt>
      <trkpt lat="38.45369427" lon="-2.39747267"><ele>2691</ele><speed>14.58</speed><time>2016-06-02T13:09:25Z</time><pdop>4.0</pdop><geoidheight>51.00</geoidheight><course>69.4</course><type>1</type></trkpt>
      <trkpt lat="38.45364696" lon="-2.39730517"><ele>2693</ele><speed>13.97</speed><time>2016-06-02T13:09:26Z</time><pdop>4.0</pdop><geoidheight>51.00</geoidheight><course>89.0</course><type>1</type></trkpt>
      <trkpt lat="38.45360515" lon="-2.39721853"><ele>2695</ele><speed>11.51</speed><time>2016-06-02T13:09:27Z</time><pdop>4.0</pdop><geoidheight>51.00</geoidheight><course>99.7</course><type>1</type></trkpt>
      <trkpt lat="38.4535627" lon="-2.39711201"><ele>2695</ele><speed>10.38</speed><time>2016-06-02T13:09:28Z</time><pdop>4.0</pdop><geoidheight>51.00</geoidheight><course>104.8</course><type>1</type></trkpt>
      <trkpt lat="38.45351426" lon="-2.39703683"><ele>2697</ele><speed>8.38</speed><time>2016-06-02T13:09:29Z</time><pdop>3.0</pdop><geoidheight>51.00</geoidheight><course>122.6</course><type>1</type></trkpt>
      <trkpt lat="38.45343398" lon="-2.39697937"><ele>2699</ele><speed>8.27</speed><time>2016-06-02T13:09:30Z</time><pdop>3.0</pdop><geoidheight>51.00</geoidheight><course>152.7</course><type>1</type></trkpt>
      <trkpt lat="38.45336707" lon="-2.39697165"><ele>2700</ele><speed>7.49</speed><time>2016-06-02T13:09:31Z</time><pdop>3.0</pdop><geoidheight>51.00</geoidheight><course>174.3</course><type>1</type></trkpt>
      <trkpt lat="38.45330688" lon="-2.39699375"><ele>2701</ele><speed>7.21</speed><time>2016-06-02T13:09:32Z</time><pdop>3.0</pdop><geoidheight>51.00</geoidheight><course>196.3</course><type>1</type></trkpt>
      <trkpt lat="38.45325282" lon="-2.3970478"><ele>2703</ele><speed>7.20</speed><time>2016-06-02T13:09:33Z</time><pdop>3.0</pdop><geoidheight>51.00</geoidheight><course>220.2</course><type>1</type></trkpt>
      <trkpt lat="38.45322161" lon="-2.39711494"><ele>2708</ele><speed>7.41</speed><time>2016-06-02T13:09:34Z</time><pdop>3.0</pdop><geoidheight>51.00</geoidheight><course>243.9</course><type>1</type></trkpt>
      <trkpt lat="38.45322828" lon="-2.39719322"><ele>2710</ele><speed>6.81</speed><time>2016-06-02T13:09:35Z</time><pdop>3.0</pdop><geoidheight>51.00</geoidheight><course>272.5</course><type>1</type></trkpt>
      <trkpt lat="38.45327388" lon="-2.39732768"><ele>2711</ele><speed>6.71</speed><time>2016-06-02T13:09:37Z</time><pdop>5.0</pdop><geoidheight>51.00</geoidheight><course>295.3</course><type>1</type></trkpt>
      <trkpt lat="38.45342735" lon="-2.39737221"><ele>2714</ele><speed>6.96</speed><time>2016-06-02T13:09:39Z</time><pdop>6.0</pdop><geoidheight>51.00</geoidheight><course>347.2</course><type>1</type></trkpt>
      <trkpt lat="38.45355052" lon="-2.39735472"><ele>2714</ele><speed>9.00</speed><time>2016-06-02T13:09:40Z</time><pdop>7.0</pdop><geoidheight>51.00</geoidheight><course>359.5</course><type>1</type></trkpt>
      <trkpt lat="38.4536941" lon="-2.39726266"><ele>2714</ele><speed>12.14</speed><time>2016-06-02T13:09:41Z</time><pdop>7.0</pdop><geoidheight>51.00</geoidheight><course>18.0</course><type>1</type></trkpt>
      <trkpt lat="38.45393742" lon="-2.39704331"><ele>2715</ele><speed>14.49</speed><time>2016-06-02T13:09:43Z</time><pdop>9.0</pdop><geoidheight>51.00</geoidheight><course>32.1</course><type>1</type></trkpt>
      <trkpt lat="38.4540716" lon="-2.39694713"><ele>2718</ele><speed>14.56</speed><time>2016-06-02T13:09:44Z</time><pdop>8.0</pdop><geoidheight>51.00</geoidheight><course>32.5</course><type>1</type></trkpt>
      <trkpt lat="38.45415629" lon="-2.39663605"><ele>2720</ele><speed>14.03</speed><time>2016-06-02T13:09:46Z</time><pdop>6.0</pdop><geoidheight>51.00</geoidheight><course>56.1</course><type>1</type></trkpt>
      <trkpt lat="38.45415832" lon="-2.39646607"><ele>2723</ele><speed>13.04</speed><time>2016-06-02T13:09:47Z</time><pdop>6.0</pdop><geoidheight>51.00</geoidheight><course>65.1</course><type>1</type></trkpt>
      <trkpt lat="38.4540898" lon="-2.39631406"><ele>2725</ele><speed>11.56</speed><time>2016-06-02T13:09:48Z</time><pdop>5.0</pdop><geoidheight>51.00</geoidheight><course>84.1</course><type>1</type></trkpt>
      <trkpt lat="38.45403882" lon="-2.39620301"><ele>2728</ele><speed>10.99</speed><time>2016-06-02T13:09:49Z</time><pdop>5.0</pdop><geoidheight>51.00</geoidheight><course>95.8</course><type>1</type></trkpt>
      <trkpt lat="38.45395675" lon="-2.39612671"><ele>2729</ele><speed>9.21</speed><time>2016-06-02T13:09:50Z</time><pdop>5.0</pdop><geoidheight>51.00</geoidheight><course>116.3</course><type>1</type></trkpt>
      <trkpt lat="38.45384947" lon="-2.39622439"><ele>2728</ele><speed>6.42</speed><time>2016-06-02T13:09:51Z</time><pdop>3.0</pdop><geoidheight>51.00</geoidheight><course>181.6</course><type>1</type></trkpt>
      <trkpt lat="38.45378829" lon="-2.39624844"><ele>2729</ele><speed>6.03</speed><time>2016-06-02T13:09:52Z</time><pdop>3.0</pdop><geoidheight>51.00</geoidheight><course>205.1</course><type>1</type></trkpt>
      <trkpt lat="38.4537413" lon="-2.39637142"><ele>2733</ele><speed>6.28</speed><time>2016-06-02T13:09:54Z</time><pdop>3.0</pdop><geoidheight>51.00</geoidheight><course>257.1</course><type>1</type></trkpt>
      <trkpt lat="38.45374617" lon="-2.39644753"><ele>2734</ele><speed>6.76</speed><time>2016-06-02T13:09:55Z</time><pdop>3.0</pdop><geoidheight>51.00</geoidheight><course>275.5</course><type>1</type></trkpt>
      <trkpt lat="38.45376719" lon="-2.39652757"><ele>2736</ele><speed>7.68</speed><time>2016-06-02T13:09:56Z</time><pdop>3.0</pdop><geoidheight>51.00</geoidheight><course>289.6</course><type>1</type></trkpt>
      <trkpt lat="38.45379483" lon="-2.39661719"><ele>2736</ele><speed>8.60</speed><time>2016-06-02T13:09:57Z</time><pdop>3.0</pdop><geoidheight>51.00</geoidheight><course>292.8</course><type>1</type></trkpt>
      <trkpt lat="38.45386834" lon="-2.39670287"><ele>2737</ele><speed>10.17</speed><time>2016-06-02T13:09:58Z</time><pdop>3.0</pdop><geoidheight>51.00</geoidheight><course>310.5</course><type>1</type></trkpt>
      <trkpt lat="38.45394488" lon="-2.39679401"><ele>2737</ele><speed>10.84</speed><time>2016-06-02T13:09:59Z</time><pdop>3.0</pdop><geoidheight>51.00</geoidheight><course>316.4</course><type>1</type></trkpt>
      <trkpt lat="38.45406043" lon="-2.39681935"><ele>2742</ele><speed>12.51</speed><time>2016-06-02T13:10:00Z</time><pdop>3.0</pdop><geoidheight>51.00</geoidheight><course>343.1</course><type>1</type></trkpt>
      <trkpt lat="38.45417282" lon="-2.3968127"><ele>2744</ele><speed>12.79</speed><time>2016-06-02T13:10:01Z</time><pdop>3.0</pdop><geoidheight>51.00</geoidheight><course>2.4</course><type>1</type></trkpt>
      <trkpt lat="38.45428358" lon="-2.39676999"><ele>2746</ele><speed>12.97</speed><time>2016-06-02T13:10:02Z</time><pdop>3.0</pdop><geoidheight>51.00</geoidheight><course>16.1</course><type>1</type></trkpt>
      <trkpt lat="38.45439278" lon="-2.39671565"><ele>2747</ele><speed>13.47</speed><time>2016-06-02T13:10:03Z</time><pdop>3.0</pdop><geoidheight>51.00</geoidheight><course>21.9</course><type>1</type></trkpt>
      <trkpt lat="38.45449172" lon="-2.39663897"><ele>2749</ele><speed>13.26</speed><time>2016-06-02T13:10:04Z</time><pdop>3.0</pdop><geoidheight>51.00</geoidheight><course>29.4</course><type>1</type></trkpt>
      <trkpt lat="38.45458372" lon="-2.39655448"><ele>2750</ele><speed>13.02</speed><time>2016-06-02T13:10:05Z</time><pdop>3.0</pdop><geoidheight>51.00</geoidheight><course>34.8</course><type>1</type></trkpt>
      <trkpt lat="38.45466446" lon="-2.3964452"><ele>2753</ele><speed>12.89</speed><time>2016-06-02T13:10:06Z</time><pdop>3.0</pdop><geoidheight>51.00</geoidheight><course>47.1</course><type>1</type></trkpt>
      <trkpt lat="38.45471657" lon="-2.39630994"><ele>2754</ele><speed>13.15</speed><time>2016-06-02T13:10:07Z</time><pdop>3.0</pdop><geoidheight>51.00</geoidheight><course>63.4</course><type>1</type></trkpt>
      <trkpt lat="38.45474073" lon="-2.39616819"><ele>2755</ele><speed>12.71</speed><time>2016-06-02T13:10:08Z</time><pdop>3.0</pdop><geoidheight>51.00</geoidheight><course>75.6</course><type>1</type></trkpt>
      <trkpt lat="38.45475774" lon="-2.39603811"><ele>2757</ele><speed>11.43</speed><time>2016-06-02T13:10:09Z</time><pdop>3.0</pdop><geoidheight>51.00</geoidheight><course>82.0</course><type>1</type></trkpt>
      <trkpt lat="38.45474536" lon="-2.39592841"><ele>2758</ele><speed>9.90</speed><time>2016-06-02T13:10:10Z</time><pdop>3.0</pdop><geoidheight>51.00</geoidheight><course>95.4</course><type>1</type></trkpt>
      <trkpt lat="38.45470952" lon="-2.39582621"><ele>2758</ele><speed>9.24</speed><time>2016-06-02T13:10:11Z</time><pdop>3.0</pdop><geoidheight>51.00</geoidheight><course>109.2</course><type>1</type></trkpt>
      <trkpt lat="38.4546652" lon="-2.3957497"><ele>2758</ele><speed>8.50</speed><time>2016-06-02T13:10:12Z</time><pdop>3.0</pdop><geoidheight>51.00</geoidheight><course>125.8</course><type>1</type></trkpt>
      <trkpt lat="38.45459575" lon="-2.39569549"><ele>2760</ele><speed>8.45</speed><time>2016-06-02T13:10:13Z</time><pdop>3.0</pdop><geoidheight>51.00</geoidheight><course>145.7</course><type>1</type></trkpt>
      <trkpt lat="38.45453282" lon="-2.39564093"><ele>2760</ele><speed>8.45</speed><time>2016-06-02T13:10:14Z</time><pdop>3.0</pdop><geoidheight>51.00</geoidheight><course>145.7</course><type>1</type></trkpt>
      <trkpt lat="38.45445106" lon="-2.39572112"><ele>2759</ele><speed>6.99</speed><time>2016-06-02T13:10:15Z</time><pdop>3.0</pdop><geoidheight>51.00</geoidheight><course>201.2</course><type>1</type></trkpt>
      <trkpt lat="38.45439945" lon="-2.39576437"><ele>2760</ele><speed>7.13</speed><time>2016-06-02T13:10:16Z</time><pdop>3.0</pdop><geoidheight>51.00</geoidheight><course>217.9</course><type>1</type></trkpt>
      <trkpt lat="38.454346" lon="-2.39582372"><ele>2761</ele><speed>7.44</speed><time>2016-06-02T13:10:17Z</time><pdop>3.0</pdop><geoidheight>51.00</geoidheight><course>227.1</course><type>1</type></trkpt>
      <trkpt lat="38.45430691" lon="-2.39588029"><ele>2762</ele><speed>7.19</speed><time>2016-06-02T13:10:18Z</time><pdop>3.0</pdop><geoidheight>51.00</geoidheight><course>236.9</course><type>1</type></trkpt>
      <trkpt lat="38.45428489" lon="-2.39594791"><ele>2765</ele><speed>6.44</speed><time>2016-06-02T13:10:19Z</time><pdop>3.0</pdop><geoidheight>51.00</geoidheight><course>250.8</course><type>1</type></trkpt>
      <trkpt lat="38.4542765" lon="-2.39608366"><ele>2769</ele><speed>6.06</speed><time>2016-06-02T13:10:21Z</time><pdop>4.0</pdop><geoidheight>51.00</geoidheight><course>265.5</course><type>1</type></trkpt>
      <trkpt lat="38.45429751" lon="-2.39618147"><ele>2769</ele><speed>7.59</speed><time>2016-06-02T13:10:22Z</time><pdop>4.0</pdop><geoidheight>51.00</geoidheight><course>279.3</course><type>1</type></trkpt>
      <trkpt lat="38.45434711" lon="-2.39626796"><ele>2771</ele><speed>9.32</speed><time>2016-06-02T13:10:23Z</time><pdop>3.0</pdop><geoidheight>51.00</geoidheight><course>300.8</course><type>1</type></trkpt>
      <trkpt lat="38.45441347" lon="-2.39633369"><ele>2771</ele><speed>10.61</speed><time>2016-06-02T13:10:24Z</time><pdop>3.0</pdop><geoidheight>51.00</geoidheight><course>317.6</course><type>1</type></trkpt>
      <trkpt lat="38.45449693" lon="-2.39640679"><ele>2772</ele><speed>11.24</speed><time>2016-06-02T13:10:25Z</time><pdop>3.0</pdop><geoidheight>51.00</geoidheight><course>332.1</course><type>1</type></trkpt>
      <trkpt lat="38.45458633" lon="-2.396467"><ele>2772</ele><speed>11.23</speed><time>2016-06-02T13:10:26Z</time><pdop>4.0</pdop><geoidheight>51.00</geoidheight><course>332.1</course><type>1</type></trkpt>
      <trkpt lat="38.45472024" lon="-2.3964625"><ele>2774</ele><speed>13.76</speed><time>2016-06-02T13:10:27Z</time><pdop>3.0</pdop><geoidheight>51.00</geoidheight><course>359.9</course><type>1</type></trkpt>
      <trkpt lat="38.45484405" lon="-2.39646291"><ele>2775</ele><speed>13.74</speed><time>2016-06-02T13:10:28Z</time><pdop>4.0</pdop><geoidheight>51.00</geoidheight><course>359.8</course><type>1</type></trkpt>
      <trkpt lat="38.45499348" lon="-2.39637795"><ele>2773</ele><speed>15.84</speed><time>2016-06-02T13:10:29Z</time><pdop>4.0</pdop><geoidheight>51.00</geoidheight><course>16.8</course><type>1</type></trkpt>
      <trkpt lat="38.45509429" lon="-2.3962756"><ele>2777</ele><speed>15.22</speed><time>2016-06-02T13:10:30Z</time><pdop>4.0</pdop><geoidheight>51.00</geoidheight><course>32.9</course><type>1</type></trkpt>
      <trkpt lat="38.4552024" lon="-2.39617657"><ele>2778</ele><speed>15.08</speed><time>2016-06-02T13:10:31Z</time><pdop>5.0</pdop><geoidheight>51.00</geoidheight><course>37.3</course><type>1</type></trkpt>
      <trkpt lat="38.45531045" lon="-2.39607222"><ele>2779</ele><speed>15.07</speed><time>2016-06-02T13:10:32Z</time><pdop>6.0</pdop><geoidheight>51.00</geoidheight><course>37.2</course><type>1</type></trkpt>
      <trkpt lat="38.4553334" lon="-2.39595665"><ele>2779</ele><speed>11.76</speed><time>2016-06-02T13:10:33Z</time><pdop>4.0</pdop><geoidheight>51.00</geoidheight><course>62.1</course><type>1</type></trkpt>
      <trkpt lat="38.45535225" lon="-2.3958252"><ele>2780</ele><speed>10.82</speed><time>2016-06-02T13:10:34Z</time><pdop>4.0</pdop><geoidheight>51.00</geoidheight><course>78.0</course><type>1</type></trkpt>
      <trkpt lat="38.45535615" lon="-2.39570961"><ele>2780</ele><speed>10.47</speed><time>2016-06-02T13:10:35Z</time><pdop>4.0</pdop><geoidheight>51.00</geoidheight><course>93.2</course><type>1</type></trkpt>
      <trkpt lat="38.45535088" lon="-2.39559006"><ele>2780</ele><speed>10.46</speed><time>2016-06-02T13:10:36Z</time><pdop>4.0</pdop><geoidheight>51.00</geoidheight><course>93.2</course><type>1</type></trkpt>
      <trkpt lat="38.4553171" lon="-2.39546471"><ele>2780</ele><speed>11.25</speed><time>2016-06-02T13:10:37Z</time><pdop>4.0</pdop><geoidheight>51.00</geoidheight><course>104.0</course><type>1</type></trkpt>
      <trkpt lat="38.4552908" lon="-2.39534178"><ele>2781</ele><speed>11.12</speed><time>2016-06-02T13:10:38Z</time><pdop>4.0</pdop><geoidheight>51.00</geoidheight><course>102.2</course><type>1</type></trkpt>
      <trkpt lat="38.45526964" lon="-2.39521744"><ele>2782</ele><speed>11.11</speed><time>2016-06-02T13:10:39Z</time><pdop>5.0</pdop><geoidheight>51.00</geoidheight><course>102.2</course><type>1</type></trkpt>
      <trkpt lat="38.45524819" lon="-2.39511259"><ele>2783</ele><speed>10.04</speed><time>2016-06-02T13:10:40Z</time><pdop>4.0</pdop><geoidheight>51.00</geoidheight><course>105.9</course><type>1</type></trkpt>
      <trkpt lat="38.45522838" lon="-2.39500403"><ele>2783</ele><speed>9.56</speed><time>2016-06-02T13:10:41Z</time><pdop>4.0</pdop><geoidheight>51.00</geoidheight><course>110.9</course><type>1</type></trkpt>
      <trkpt lat="38.45520057" lon="-2.39490736"><ele>2784</ele><speed>9.13</speed><time>2016-06-02T13:10:42Z</time><pdop>4.0</pdop><geoidheight>51.00</geoidheight><course>112.2</course><type>1</type></trkpt>
      <trkpt lat="38.45517286" lon="-2.39480313"><ele>2785</ele><speed>9.24</speed><time>2016-06-02T13:10:43Z</time><pdop>4.0</pdop><geoidheight>51.00</geoidheight><course>112.0</course><type>1</type></trkpt>
      <trkpt lat="38.45514043" lon="-2.39469944"><ele>2785</ele><speed>9.20</speed><time>2016-06-02T13:10:44Z</time><pdop>3.0</pdop><geoidheight>51.00</geoidheight><course>109.7</course><type>1</type></trkpt>
      <trkpt lat="38.45510376" lon="-2.3945908"><ele>2787</ele><speed>9.13</speed><time>2016-06-02T13:10:45Z</time><pdop>4.0</pdop><geoidheight>51.00</geoidheight><course>110.5</course><type>1</type></trkpt>
      <trkpt lat="38.45506379" lon="-2.39450514"><ele>2787</ele><speed>8.77</speed><time>2016-06-02T13:10:46Z</time><pdop>4.0</pdop><geoidheight>51.00</geoidheight><course>120.3</course><type>1</type></trkpt>
      <trkpt lat="38.45496037" lon="-2.39439808"><ele>2788</ele><speed>6.99</speed><time>2016-06-02T13:10:48Z</time><pdop>4.0</pdop><geoidheight>51.00</geoidheight><course>161.7</course><type>1</type></trkpt>
      <trkpt lat="38.45485028" lon="-2.39444503"><ele>2788</ele><speed>5.88</speed><time>2016-06-02T13:10:50Z</time><pdop>4.0</pdop><geoidheight>51.00</geoidheight><course>231.3</course><type>1</type></trkpt>
      <trkpt lat="38.45483568" lon="-2.3945952"><ele>2789</ele><speed>9.14</speed><time>2016-06-02T13:10:52Z</time><pdop>4.0</pdop><geoidheight>51.00</geoidheight><course>288.7</course><type>1</type></trkpt>
      <trkpt lat="38.45489153" lon="-2.3946821"><ele>2791</ele><speed>10.21</speed><time>2016-06-02T13:10:53Z</time><pdop>4.0</pdop><geoidheight>51.00</geoidheight><course>311.9</course><type>1</type></trkpt>
      <trkpt lat="38.45496797" lon="-2.39476471"><ele>2791</ele><speed>10.66</speed><time>2016-06-02T13:10:54Z</time><pdop>4.0</pdop><geoidheight>51.00</geoidheight><course>334.1</course><type>1</type></trkpt>
      <trkpt lat="38.45506367" lon="-2.39479562"><ele>2792</ele><speed>11.86</speed><time>2016-06-02T13:10:55Z</time><pdop>4.0</pdop><geoidheight>51.00</geoidheight><course>354.6</course><type>1</type></trkpt>
      <trkpt lat="38.45517174" lon="-2.39478653"><ele>2791</ele><speed>12.64</speed><time>2016-06-02T13:10:56Z</time><pdop>4.0</pdop><geoidheight>51.00</geoidheight><course>8.9</course><type>1</type></trkpt>
      <trkpt lat="38.45528423" lon="-2.39476415"><ele>2791</ele><speed>12.64</speed><time>2016-06-02T13:10:57Z</time><pdop>4.0</pdop><geoidheight>51.00</geoidheight><course>8.9</course><type>1</type></trkpt>
      <trkpt lat="38.45539314" lon="-2.39467919"><ele>2791</ele><speed>14.00</speed><time>2016-06-02T13:10:58Z</time><pdop>4.0</pdop><geoidheight>51.00</geoidheight><course>26.8</course><type>1</type></trkpt>
      <trkpt lat="38.45550276" lon="-2.39458832"><ele>2790</ele><speed>14.47</speed><time>2016-06-02T13:10:59Z</time><pdop>4.0</pdop><geoidheight>51.00</geoidheight><course>37.0</course><type>1</type></trkpt>
      <trkpt lat="38.45560686" lon="-2.39448849"><ele>2790</ele><speed>14.47</speed><time>2016-06-02T13:11:00Z</time><pdop>5.0</pdop><geoidheight>51.00</geoidheight><course>37.0</course><type>1</type></trkpt>
      <trkpt lat="38.45568603" lon="-2.39434676"><ele>2789</ele><speed>14.58</speed><time>2016-06-02T13:11:01Z</time><pdop>4.0</pdop><geoidheight>51.00</geoidheight><course>51.1</course><type>1</type></trkpt>
      <trkpt lat="38.45576863" lon="-2.39421689"><ele>2789</ele><speed>14.58</speed><time>2016-06-02T13:11:02Z</time><pdop>6.0</pdop><geoidheight>51.00</geoidheight><course>51.0</course><type>1</type></trkpt>
      <trkpt lat="38.45579544" lon="-2.39403132"><ele>2789</ele><speed>14.91</speed><time>2016-06-02T13:11:03Z</time><pdop>5.0</pdop><geoidheight>51.00</geoidheight><course>69.1</course><type>1</type></trkpt>
      <trkpt lat="38.45581411" lon="-2.39388264"><ele>2790</ele><speed>14.09</speed><time>2016-06-02T13:11:04Z</time><pdop>5.0</pdop><geoidheight>51.00</geoidheight><course>74.0</course><type>1</type></trkpt>
      <trkpt lat="38.45583617" lon="-2.39373369"><ele>2789</ele><speed>12.72</speed><time>2016-06-02T13:11:05Z</time><pdop>5.0</pdop><geoidheight>51.00</geoidheight><course>75.2</course><type>1</type></trkpt>
      <trkpt lat="38.45583159" lon="-2.39358595"><ele>2787</ele><speed>11.73</speed><time>2016-06-02T13:11:06Z</time><pdop>4.0</pdop><geoidheight>51.00</geoidheight><course>78.3</course><type>1</type></trkpt>
      <trkpt lat="38.45585284" lon="-2.39345495"><ele>2787</ele><speed>11.68</speed><time>2016-06-02T13:11:07Z</time><pdop>5.0</pdop><geoidheight>51.00</geoidheight><course>78.3</course><type>1</type></trkpt>
      <trkpt lat="38.45587775" lon="-2.39331026"><ele>2786</ele><speed>12.38</speed><time>2016-06-02T13:11:08Z</time><pdop>4.0</pdop><geoidheight>51.00</geoidheight><course>83.2</course><type>1</type></trkpt>
      <trkpt lat="38.45587503" lon="-2.39316297"><ele>2786</ele><speed>13.19</speed><time>2016-06-02T13:11:09Z</time><pdop>5.0</pdop><geoidheight>51.00</geoidheight><course>85.9</course><type>1</type></trkpt>
      <trkpt lat="38.45590851" lon="-2.39299148"><ele>2784</ele><speed>15.45</speed><time>2016-06-02T13:11:10Z</time><pdop>4.0</pdop><geoidheight>51.00</geoidheight><course>80.0</course><type>1</type></trkpt>
      <trkpt lat="38.45593569" lon="-2.39282316"><ele>2784</ele><speed>15.09</speed><time>2016-06-02T13:11:11Z</time><pdop>3.0</pdop><geoidheight>51.00</geoidheight><course>81.4</course><type>1</type></trkpt>
      <trkpt lat="38.45595364" lon="-2.39266017"><ele>2783</ele><speed>13.73</speed><time>2016-06-02T13:11:12Z</time><pdop>3.0</pdop><geoidheight>51.00</geoidheight><course>84.3</course><type>1</type></trkpt>
      <trkpt lat="38.45595947" lon="-2.39251516"><ele>2783</ele><speed>12.61</speed><time>2016-06-02T13:11:13Z</time><pdop>3.0</pdop><geoidheight>51.00</geoidheight><course>85.1</course><type>1</type></trkpt>
      <trkpt lat="38.45596916" lon="-2.39237122"><ele>2783</ele><speed>12.61</speed><time>2016-06-02T13:11:14Z</time><pdop>4.0</pdop><geoidheight>51.00</geoidheight><course>85.1</course><type>1</type></trkpt>
      <trkpt lat="38.45600067" lon="-2.39221922"><ele>2778</ele><speed>14.09</speed><time>2016-06-02T13:11:15Z</time><pdop>3.0</pdop><geoidheight>51.00</geoidheight><course>80.8</course><type>1</type></trkpt>
      <trkpt lat="38.45601311" lon="-2.39204755"><ele>2775</ele><speed>15.58</speed><time>2016-06-02T13:11:16Z</time><pdop>3.0</pdop><geoidheight>51.00</geoidheight><course>82.6</course><type>1</type></trkpt>
      <trkpt lat="38.45602318" lon="-2.3918612"><ele>2773</ele><speed>16.33</speed><time>2016-06-02T13:11:17Z</time><pdop>3.0</pdop><geoidheight>51.00</geoidheight><course>86.9</course><type>1</type></trkpt>
      <trkpt lat="38.4560296" lon="-2.39166625"><ele>2771</ele><speed>16.72</speed><time>2016-06-02T13:11:18Z</time><pdop>3.0</pdop><geoidheight>51.00</geoidheight><course>89.4</course><type>1</type></trkpt>
      <trkpt lat="38.4560293" lon="-2.39147388"><ele>2771</ele><speed>16.07</speed><time>2016-06-02T13:11:19Z</time><pdop>3.0</pdop><geoidheight>51.00</geoidheight><course>90.5</course><type>1</type></trkpt>
      <trkpt lat="38.45602364" lon="-2.39129864"><ele>2770</ele><speed>15.18</speed><time>2016-06-02T13:11:20Z</time><pdop>3.0</pdop><geoidheight>51.00</geoidheight><course>91.3</course><type>1</type></trkpt>
      <trkpt lat="38.45601822" lon="-2.3911291"><ele>2769</ele><speed>15.20</speed><time>2016-06-02T13:11:21Z</time><pdop>3.0</pdop><geoidheight>51.00</geoidheight><course>93.0</course><type>1</type></trkpt>
      <trkpt lat="38.45601115" lon="-2.39095532"><ele>2769</ele><speed>15.19</speed><time>2016-06-02T13:11:22Z</time><pdop>4.0</pdop><geoidheight>51.00</geoidheight><course>93.0</course><type>1</type></trkpt>
      <trkpt lat="38.45601555" lon="-2.39079"><ele>2765</ele><speed>15.43</speed><time>2016-06-02T13:11:23Z</time><pdop>3.0</pdop><geoidheight>51.00</geoidheight><course>93.3</course><type>1</type></trkpt>
      <trkpt lat="38.45601628" lon="-2.39062927"><ele>2762</ele><speed>16.32</speed><time>2016-06-02T13:11:24Z</time><pdop>4.0</pdop><geoidheight>51.00</geoidheight><course>92.9</course><type>1</type></trkpt>
      <trkpt lat="38.45599935" lon="-2.39044416"><ele>2760</ele><speed>16.42</speed><time>2016-06-02T13:11:25Z</time><pdop>4.0</pdop><geoidheight>51.00</geoidheight><course>92.7</course><type>1</type></trkpt>
      <trkpt lat="38.45599113" lon="-2.39026567"><ele>2759</ele><speed>16.11</speed><time>2016-06-02T13:11:26Z</time><pdop>4.0</pdop><geoidheight>51.00</geoidheight><course>93.9</course><type>1</type></trkpt>
      <trkpt lat="38.4559759" lon="-2.39008208"><ele>2759</ele><speed>15.88</speed><time>2016-06-02T13:11:27Z</time><pdop>4.0</pdop><geoidheight>51.00</geoidheight><course>96.4</course><type>1</type></trkpt>
      <trkpt lat="38.45596768" lon="-2.38990337"><ele>2759</ele><speed>14.82</speed><time>2016-06-02T13:11:28Z</time><pdop>4.0</pdop><geoidheight>51.00</geoidheight><course>94.4</course><type>1</type></trkpt>
      <trkpt lat="38.45595739" lon="-2.38973411"><ele>2760</ele><speed>14.82</speed><time>2016-06-02T13:11:29Z</time><pdop>4.0</pdop><geoidheight>51.00</geoidheight><course>94.4</course><type>1</type></trkpt>
      <trkpt lat="38.45595444" lon="-2.38959664"><ele>2759</ele><speed>13.04</speed><time>2016-06-02T13:11:30Z</time><pdop>4.0</pdop><geoidheight>51.00</geoidheight><course>93.0</course><type>1</type></trkpt>
      <trkpt lat="38.45594822" lon="-2.3894471"><ele>2758</ele><speed>12.89</speed><time>2016-06-02T13:11:31Z</time><pdop>4.0</pdop><geoidheight>51.00</geoidheight><course>92.5</course><type>1</type></trkpt>
      <trkpt lat="38.45594308" lon="-2.38929158"><ele>2757</ele><speed>13.37</speed><time>2016-06-02T13:11:32Z</time><pdop>4.0</pdop><geoidheight>51.00</geoidheight><course>93.8</course><type>1</type></trkpt>
      <trkpt lat="38.45593517" lon="-2.38913926"><ele>2756</ele><speed>13.34</speed><time>2016-06-02T13:11:33Z</time><pdop>5.0</pdop><geoidheight>51.00</geoidheight><course>93.8</course><type>1</type></trkpt>
      <trkpt lat="38.45594006" lon="-2.38895118"><ele>2750</ele><speed>15.65</speed><time>2016-06-02T13:11:34Z</time><pdop>5.0</pdop><geoidheight>51.00</geoidheight><course>90.7</course><type>1</type></trkpt>
      <trkpt lat="38.45593816" lon="-2.38877462"><ele>2748</ele><speed>15.53</speed><time>2016-06-02T13:11:35Z</time><pdop>6.0</pdop><geoidheight>51.00</geoidheight><course>90.8</course><type>1</type></trkpt>
      <trkpt lat="38.45594265" lon="-2.38859756"><ele>2749</ele><speed>15.51</speed><time>2016-06-02T13:11:36Z</time><pdop>5.0</pdop><geoidheight>51.00</geoidheight><course>91.1</course><type>1</type></trkpt>
      <trkpt lat="38.4559447" lon="-2.38843231"><ele>2749</ele><speed>14.93</speed><time>2016-06-02T13:11:37Z</time><pdop>5.0</pdop><geoidheight>51.00</geoidheight><course>86.1</course><type>1</type></trkpt>
      <trkpt lat="38.45595721" lon="-2.38825497"><ele>2748</ele><speed>15.49</speed><time>2016-06-02T13:11:38Z</time><pdop>5.0</pdop><geoidheight>51.00</geoidheight><course>83.5</course><type>1</type></trkpt>
      <trkpt lat="38.45597908" lon="-2.38807181"><ele>2745</ele><speed>16.74</speed><time>2016-06-02T13:11:39Z</time><pdop>4.0</pdop><geoidheight>51.00</geoidheight><course>80.1</course><type>1</type></trkpt>
      <trkpt lat="38.45600466" lon="-2.38788474"><ele>2743</ele><speed>16.64</speed><time>2016-06-02T13:11:40Z</time><pdop>5.0</pdop><geoidheight>51.00</geoidheight><course>80.1</course><type>1</type></trkpt>
      <trkpt lat="38.45602035" lon="-2.38768143"><ele>2742</ele><speed>17.43</speed><time>2016-06-02T13:11:41Z</time><pdop>5.0</pdop><geoidheight>51.00</geoidheight><course>80.6</course><type>1</type></trkpt>
      <trkpt lat="38.45608857" lon="-2.38724794"><ele>2741</ele><speed>18.98</speed><time>2016-06-02T13:11:43Z</time><pdop>6.0</pdop><geoidheight>51.00</geoidheight><course>79.4</course><type>1</type></trkpt>
      <trkpt lat="38.45611524" lon="-2.38706663"><ele>2740</ele><speed>17.06</speed><time>2016-06-02T13:11:44Z</time><pdop>5.0</pdop><geoidheight>51.00</geoidheight><course>78.0</course><type>1</type></trkpt>
      <trkpt lat="38.45614056" lon="-2.38687586"><ele>2739</ele><speed>16.41</speed><time>2016-06-02T13:11:45Z</time><pdop>5.0</pdop><geoidheight>51.00</geoidheight><course>78.1</course><type>1</type></trkpt>
      <trkpt lat="38.4561736" lon="-2.38668225"><ele>2739</ele><speed>16.56</speed><time>2016-06-02T13:11:46Z</time><pdop>5.0</pdop><geoidheight>51.00</geoidheight><course>77.7</course><type>1</type></trkpt>
      <trkpt lat="38.45620336" lon="-2.38650566"><ele>2739</ele><speed>16.60</speed><time>2016-06-02T13:11:47Z</time><pdop>5.0</pdop><geoidheight>51.00</geoidheight><course>77.8</course><type>1</type></trkpt>
      <trkpt lat="38.45620418" lon="-2.38630848"><ele>2737</ele><speed>16.99</speed><time>2016-06-02T13:11:48Z</time><pdop>4.0</pdop><geoidheight>51.00</geoidheight><course>81.6</course><type>1</type></trkpt>
      <trkpt lat="38.45623061" lon="-2.38610879"><ele>2737</ele><speed>17.22</speed><time>2016-06-02T13:11:49Z</time><pdop>4.0</pdop><geoidheight>51.00</geoidheight><course>80.9</course><type>1</type></trkpt>
      <trkpt lat="38.45624607" lon="-2.38591312"><ele>2737</ele><speed>17.14</speed><time>2016-06-02T13:11:50Z</time><pdop>5.0</pdop><geoidheight>51.00</geoidheight><course>81.9</course><type>1</type></trkpt>
      <trkpt lat="38.45628334" lon="-2.38572346"><ele>2737</ele><speed>16.80</speed><time>2016-06-02T13:11:51Z</time><pdop>6.0</pdop><geoidheight>51.00</geoidheight><course>79.9</course><type>1</type></trkpt>
      <trkpt lat="38.45629205" lon="-2.38552533"><ele>2736</ele><speed>16.72</speed><time>2016-06-02T13:11:52Z</time><pdop>6.0</pdop><geoidheight>51.00</geoidheight><course>83.6</course><type>1</type></trkpt>
      <trkpt lat="38.45630491" lon="-2.38536732"><ele>2736</ele><speed>14.98</speed><time>2016-06-02T13:11:53Z</time><pdop>6.0</pdop><geoidheight>51.00</geoidheight><course>84.2</course><type>1</type></trkpt>
      <trkpt lat="38.45632165" lon="-2.3850867"><ele>2734</ele><speed>13.63</speed><time>2016-06-02T13:11:55Z</time><pdop>5.0</pdop><geoidheight>51.00</geoidheight><course>88.0</course><type>1</type></trkpt>
      <trkpt lat="38.45631152" lon="-2.38493831"><ele>2733</ele><speed>13.63</speed><time>2016-06-02T13:11:56Z</time><pdop>5.0</pdop><geoidheight>51.00</geoidheight><course>88.6</course><type>1</type></trkpt>
      <trkpt lat="38.45631859" lon="-2.38478428"><ele>2731</ele><speed>14.05</speed><time>2016-06-02T13:11:57Z</time><pdop>5.0</pdop><geoidheight>51.00</geoidheight><course>88.4</course><type>1</type></trkpt>
      <trkpt lat="38.45630939" lon="-2.38461658"><ele>2731</ele><speed>14.52</speed><time>2016-06-02T13:11:58Z</time><pdop>6.0</pdop><geoidheight>51.00</geoidheight><course>90.2</course><type>1</type></trkpt>
      <trkpt lat="38.45633362" lon="-2.38443949"><ele>2729</ele><speed>15.58</speed><time>2016-06-02T13:11:59Z</time><pdop>5.0</pdop><geoidheight>51.00</geoidheight><course>87.1</course><type>1</type></trkpt>
      <trkpt lat="38.45633345" lon="-2.38426162"><ele>2725</ele><speed>15.90</speed><time>2016-06-02T13:12:00Z</time><pdop>4.0</pdop><geoidheight>51.00</geoidheight><course>87.0</course><type>1</type></trkpt>
      <trkpt lat="38.45633487" lon="-2.3840686"><ele>2722</ele><speed>16.31</speed><time>2016-06-02T13:12:01Z</time><pdop>4.0</pdop><geoidheight>51.00</geoidheight><course>86.5</course><type>1</type></trkpt>
      <trkpt lat="38.45633713" lon="-2.38388018"><ele>2720</ele><speed>16.89</speed><time>2016-06-02T13:12:02Z</time><pdop>4.0</pdop><geoidheight>51.00</geoidheight><course>88.4</course><type>1</type></trkpt>
      <trkpt lat="38.45633966" lon="-2.38367995"><ele>2720</ele><speed>17.16</speed><time>2016-06-02T13:12:03Z</time><pdop>4.0</pdop><geoidheight>51.00</geoidheight><course>89.1</course><type>1</type></trkpt>
      <trkpt lat="38.45631187" lon="-2.38348161"><ele>2718</ele><speed>17.29</speed><time>2016-06-02T13:12:04Z</time><pdop>5.0</pdop><geoidheight>51.00</geoidheight><course>93.8</course><type>1</type></trkpt>
      <trkpt lat="38.45628205" lon="-2.38332081"><ele>2717</ele><speed>16.29</speed><time>2016-06-02T13:12:05Z</time><pdop>5.0</pdop><geoidheight>51.00</geoidheight><course>96.5</course><type>1</type></trkpt>
      <trkpt lat="38.45627905" lon="-2.38314165"><ele>2716</ele><speed>15.73</speed><time>2016-06-02T13:12:06Z</time><pdop>4.0</pdop><geoidheight>51.00</geoidheight><course>93.8</course><type>1</type></trkpt>
      <trkpt lat="38.45627642" lon="-2.38297062"><ele>2712</ele><speed>14.87</speed><time>2016-06-02T13:12:07Z</time><pdop>4.0</pdop><geoidheight>51.00</geoidheight><course>90.5</course><type>1</type></trkpt>
      <trkpt lat="38.45628858" lon="-2.38280209"><ele>2711</ele><speed>14.49</speed><time>2016-06-02T13:12:08Z</time><pdop>4.0</pdop><geoidheight>51.00</geoidheight><course>88.5</course><type>1</type></trkpt>
      <trkpt lat="38.45629154" lon="-2.38262911"><ele>2708</ele><speed>15.20</speed><time>2016-06-02T13:12:09Z</time><pdop>4.0</pdop><geoidheight>51.00</geoidheight><course>89.4</course><type>1</type></trkpt>
      <trkpt lat="38.45628794" lon="-2.38244442"><ele>2705</ele><speed>16.21</speed><time>2016-06-02T13:12:10Z</time><pdop>4.0</pdop><geoidheight>51.00</geoidheight><course>90.4</course><type>1</type></trkpt>
      <trkpt lat="38.45629817" lon="-2.38225435"><ele>2703</ele><speed>16.90</speed><time>2016-06-02T13:12:11Z</time><pdop>5.0</pdop><geoidheight>51.00</geoidheight><course>89.3</course><type>1</type></trkpt>
      <trkpt lat="38.45631473" lon="-2.38205346"><ele>2699</ele><speed>17.78</speed><time>2016-06-02T13:12:12Z</time><pdop>4.0</pdop><geoidheight>51.00</geoidheight><course>86.0</course><type>1</type></trkpt>
      <trkpt lat="38.45632922" lon="-2.38185573"><ele>2698</ele><speed>17.70</speed><time>2016-06-02T13:12:13Z</time><pdop>4.0</pdop><geoidheight>51.00</geoidheight><course>85.5</course><type>1</type></trkpt>
      <trkpt lat="38.45633901" lon="-2.38167154"><ele>2696</ele><speed>16.81</speed><time>2016-06-02T13:12:14Z</time><pdop>4.0</pdop><geoidheight>51.00</geoidheight><course>87.7</course><type>1</type></trkpt>
      <trkpt lat="38.45634999" lon="-2.38150917"><ele>2692</ele><speed>15.53</speed><time>2016-06-02T13:12:15Z</time><pdop>4.0</pdop><geoidheight>51.00</geoidheight><course>88.7</course><type>1</type></trkpt>
      <trkpt lat="38.45635852" lon="-2.38133583"><ele>2689</ele><speed>14.99</speed><time>2016-06-02T13:12:16Z</time><pdop>4.0</pdop><geoidheight>51.00</geoidheight><course>89.2</course><type>1</type></trkpt>
      <trkpt lat="38.45635936" lon="-2.38116441"><ele>2686</ele><speed>15.44</speed><time>2016-06-02T13:12:17Z</time><pdop>3.0</pdop><geoidheight>51.00</geoidheight><course>89.6</course><type>1</type></trkpt>
      <trkpt lat="38.45636219" lon="-2.3809752"><ele>2683</ele><speed>16.27</speed><time>2016-06-02T13:12:18Z</time><pdop>3.0</pdop><geoidheight>51.00</geoidheight><course>89.2</course><type>1</type></trkpt>
      <trkpt lat="38.4563683" lon="-2.38078092"><ele>2680</ele><speed>17.26</speed><time>2016-06-02T13:12:19Z</time><pdop>3.0</pdop><geoidheight>51.00</geoidheight><course>89.8</course><type>1</type></trkpt>
      <trkpt lat="38.4563718" lon="-2.38056897"><ele>2676</ele><speed>18.13</speed><time>2016-06-02T13:12:20Z</time><pdop>3.0</pdop><geoidheight>51.00</geoidheight><course>91.9</course><type>1</type></trkpt>
      <trkpt lat="38.45636422" lon="-2.38036016"><ele>2675</ele><speed>18.03</speed><time>2016-06-02T13:12:21Z</time><pdop>3.0</pdop><geoidheight>51.00</geoidheight><course>94.5</course><type>1</type></trkpt>
      <trkpt lat="38.45635517" lon="-2.3801753"><ele>2675</ele><speed>16.79</speed><time>2016-06-02T13:12:22Z</time><pdop>3.0</pdop><geoidheight>51.00</geoidheight><course>94.5</course><type>1</type></trkpt>
      <trkpt lat="38.45635047" lon="-2.38001319"><ele>2674</ele><speed>15.66</speed><time>2016-06-02T13:12:23Z</time><pdop>3.0</pdop><geoidheight>51.00</geoidheight><course>91.4</course><type>1</type></trkpt>
      <trkpt lat="38.45636639" lon="-2.37984556"><ele>2674</ele><speed>14.86</speed><time>2016-06-02T13:12:24Z</time><pdop>3.0</pdop><geoidheight>51.00</geoidheight><course>86.8</course><type>1</type></trkpt>
      <trkpt lat="38.4563731" lon="-2.37968602"><ele>2675</ele><speed>13.85</speed><time>2016-06-02T13:12:25Z</time><pdop>3.0</pdop><geoidheight>51.00</geoidheight><course>87.3</course><type>1</type></trkpt>
      <trkpt lat="38.45637204" lon="-2.37953772"><ele>2675</ele><speed>12.98</speed><time>2016-06-02T13:12:26Z</time><pdop>3.0</pdop><geoidheight>51.00</geoidheight><course>92.5</course><type>1</type></trkpt>
      <trkpt lat="38.45635727" lon="-2.37939969"><ele>2676</ele><speed>12.13</speed><time>2016-06-02T13:12:27Z</time><pdop>3.0</pdop><geoidheight>51.00</geoidheight><course>97.2</course><type>1</type></trkpt>
      <trkpt lat="38.45633959" lon="-2.3792727"><ele>2676</ele><speed>11.33</speed><time>2016-06-02T13:12:28Z</time><pdop>3.0</pdop><geoidheight>51.00</geoidheight><course>99.3</course><type>1</type></trkpt>
      <trkpt lat="38.45632672" lon="-2.3791462"><ele>2678</ele><speed>11.29</speed><time>2016-06-02T13:12:29Z</time><pdop>3.0</pdop><geoidheight>51.00</geoidheight><course>98.7</course><type>1</type></trkpt>
      <trkpt lat="38.45630496" lon="-2.37900736"><ele>2679</ele><speed>11.92</speed><time>2016-06-02T13:12:30Z</time><pdop>3.0</pdop><geoidheight>51.00</geoidheight><course>97.5</course><type>1</type></trkpt>
      <trkpt lat="38.45629582" lon="-2.37886121"><ele>2680</ele><speed>12.71</speed><time>2016-06-02T13:12:31Z</time><pdop>3.0</pdop><geoidheight>51.00</geoidheight><course>95.9</course><type>1</type></trkpt>
      <trkpt lat="38.45628456" lon="-2.37871478"><ele>2681</ele><speed>12.97</speed><time>2016-06-02T13:12:32Z</time><pdop>3.0</pdop><geoidheight>51.00</geoidheight><course>95.9</course><type>1</type></trkpt>
      <trkpt lat="38.45626728" lon="-2.37856044"><ele>2680</ele><speed>12.96</speed><time>2016-06-02T13:12:33Z</time><pdop>3.0</pdop><geoidheight>51.00</geoidheight><course>98.0</course><type>1</type></trkpt>
      <trkpt lat="38.45621489" lon="-2.37844774"><ele>2682</ele><speed>11.98</speed><time>2016-06-02T13:12:34Z</time><pdop>3.0</pdop><geoidheight>51.00</geoidheight><course>110.3</course><type>1</type></trkpt>
      <trkpt lat="38.45615773" lon="-2.37834294"><ele>2682</ele><speed>11.22</speed><time>2016-06-02T13:12:35Z</time><pdop>3.0</pdop><geoidheight>51.00</geoidheight><course>122.4</course><type>1</type></trkpt>
      <trkpt lat="38.4560811" lon="-2.37825337"><ele>2682</ele><speed>10.80</speed><time>2016-06-02T13:12:36Z</time><pdop>3.0</pdop><geoidheight>51.00</geoidheight><course>135.4</course><type>1</type></trkpt>
      <trkpt lat="38.45600312" lon="-2.3781917"><ele>2682</ele><speed>10.09</speed><time>2016-06-02T13:12:37Z</time><pdop>3.0</pdop><geoidheight>51.00</geoidheight><course>147.9</course><type>1</type></trkpt>
      <trkpt lat="38.45592231" lon="-2.37817434"><ele>2681</ele><speed>9.75</speed><time>2016-06-02T13:12:38Z</time><pdop>3.0</pdop><geoidheight>51.00</geoidheight><course>169.9</course><type>1</type></trkpt>
      <trkpt lat="38.45584516" lon="-2.37820307"><ele>2680</ele><speed>9.06</speed><time>2016-06-02T13:12:39Z</time><pdop>3.0</pdop><geoidheight>51.00</geoidheight><course>195.0</course><type>1</type></trkpt>
      <trkpt lat="38.45578871" lon="-2.37827719"><ele>2679</ele><speed>9.09</speed><time>2016-06-02T13:12:40Z</time><pdop>3.0</pdop><geoidheight>51.00</geoidheight><course>222.0</course><type>1</type></trkpt>
      <trkpt lat="38.45574204" lon="-2.37836598"><ele>2679</ele><speed>9.25</speed><time>2016-06-02T13:12:41Z</time><pdop>3.0</pdop><geoidheight>51.00</geoidheight><course>234.7</course><type>1</type></trkpt>
      <trkpt lat="38.45573218" lon="-2.37846463"><ele>2679</ele><speed>8.29</speed><time>2016-06-02T13:12:42Z</time><pdop>4.0</pdop><geoidheight>51.00</geoidheight><course>251.8</course><type>1</type></trkpt>
      <trkpt lat="38.45574437" lon="-2.37856107"><ele>2678</ele><speed>7.60</speed><time>2016-06-02T13:12:43Z</time><pdop>4.0</pdop><geoidheight>51.00</geoidheight><course>270.1</course><type>1</type></trkpt>
      <trkpt lat="38.45583222" lon="-2.37868201"><ele>2677</ele><speed>6.00</speed><time>2016-06-02T13:12:45Z</time><pdop>6.0</pdop><geoidheight>51.00</geoidheight><course>299.4</course><type>1</type></trkpt>
      <trkpt lat="38.45600162" lon="-2.37860772"><ele>2675</ele><speed>6.74</speed><time>2016-06-02T13:12:47Z</time><pdop>8.0</pdop><geoidheight>51.00</geoidheight><course>14.5</course><type>1</type></trkpt>
      <trkpt lat="38.45612179" lon="-2.37846526"><ele>2674</ele><speed>10.81</speed><time>2016-06-02T13:12:48Z</time><pdop>7.0</pdop><geoidheight>51.00</geoidheight><course>41.5</course><type>1</type></trkpt>
      <trkpt lat="38.45619524" lon="-2.37827641"><ele>2675</ele><speed>14.14</speed><time>2016-06-02T13:12:49Z</time><pdop>5.0</pdop><geoidheight>51.00</geoidheight><course>61.7</course><type>1</type></trkpt>
      <trkpt lat="38.45625325" lon="-2.37811488"><ele>2676</ele><speed>14.33</speed><time>2016-06-02T13:12:50Z</time><pdop>4.0</pdop><geoidheight>51.00</geoidheight><course>69.0</course><type>1</type></trkpt>
      <trkpt lat="38.4562817" lon="-2.3779573"><ele>2678</ele><speed>13.78</speed><time>2016-06-02T13:12:51Z</time><pdop>4.0</pdop><geoidheight>51.00</geoidheight><course>82.3</course><type>1</type></trkpt>
      <trkpt lat="38.45628167" lon="-2.3778074"><ele>2679</ele><speed>13.85</speed><time>2016-06-02T13:12:52Z</time><pdop>4.0</pdop><geoidheight>51.00</geoidheight><course>96.4</course><type>1</type></trkpt>
      <trkpt lat="38.45625214" lon="-2.37766616"><ele>2681</ele><speed>13.63</speed><time>2016-06-02T13:12:53Z</time><pdop>4.0</pdop><geoidheight>51.00</geoidheight><course>108.7</course><type>1</type></trkpt>
      <trkpt lat="38.45621195" lon="-2.37753181"><ele>2681</ele><speed>13.13</speed><time>2016-06-02T13:12:54Z</time><pdop>3.0</pdop><geoidheight>51.00</geoidheight><course>114.9</course><type>1</type></trkpt>
      <trkpt lat="38.45614108" lon="-2.37741499"><ele>2683</ele><speed>12.80</speed><time>2016-06-02T13:12:55Z</time><pdop>4.0</pdop><geoidheight>51.00</geoidheight><course>125.6</course><type>1</type></trkpt>
      <trkpt lat="38.45603465" lon="-2.37732074"><ele>2686</ele><speed>13.14</speed><time>2016-06-02T13:12:56Z</time><pdop>3.0</pdop><geoidheight>51.00</geoidheight><course>143.2</course><type>1</type></trkpt>
      <trkpt lat="38.4559418" lon="-2.3772739"><ele>2686</ele><speed>11.76</speed><time>2016-06-02T13:12:57Z</time><pdop>3.0</pdop><geoidheight>51.00</geoidheight><course>154.8</course><type>1</type></trkpt>
      <trkpt lat="38.45585872" lon="-2.37726522"><ele>2687</ele><speed>9.93</speed><time>2016-06-02T13:12:58Z</time><pdop>3.0</pdop><geoidheight>51.00</geoidheight><course>173.5</course><type>1</type></trkpt>
      <trkpt lat="38.45579329" lon="-2.37729918"><ele>2686</ele><speed>8.62</speed><time>2016-06-02T13:12:59Z</time><pdop>3.0</pdop><geoidheight>51.00</geoidheight><course>195.9</course><type>1</type></trkpt>
      <trkpt lat="38.45574324" lon="-2.37736769"><ele>2685</ele><speed>7.95</speed><time>2016-06-02T13:13:00Z</time><pdop>3.0</pdop><geoidheight>51.00</geoidheight><course>221.5</course><type>1</type></trkpt>
      <trkpt lat="38.45571936" lon="-2.37745588"><ele>2685</ele><speed>7.86</speed><time>2016-06-02T13:13:01Z</time><pdop>3.0</pdop><geoidheight>51.00</geoidheight><course>242.5</course><type>1</type></trkpt>
      <trkpt lat="38.45569771" lon="-2.37754231"><ele>2685</ele><speed>7.88</speed><time>2016-06-02T13:13:02Z</time><pdop>3.0</pdop><geoidheight>51.00</geoidheight><course>250.4</course><type>1</type></trkpt>
      <trkpt lat="38.45573062" lon="-2.37768667"><ele>2691</ele><speed>7.31</speed><time>2016-06-02T13:13:04Z</time><pdop>3.0</pdop><geoidheight>51.00</geoidheight><course>282.2</course><type>1</type></trkpt>
      <trkpt lat="38.45579311" lon="-2.3777292"><ele>2692</ele><speed>7.31</speed><time>2016-06-02T13:13:05Z</time><pdop>4.0</pdop><geoidheight>51.00</geoidheight><course>315.6</course><type>1</type></trkpt>
      <trkpt lat="38.45587938" lon="-2.37775811"><ele>2692</ele><speed>9.14</speed><time>2016-06-02T13:13:06Z</time><pdop>3.0</pdop><geoidheight>51.00</geoidheight><course>345.4</course><type>1</type></trkpt>
      <trkpt lat="38.45596458" lon="-2.37777467"><ele>2692</ele><speed>9.12</speed><time>2016-06-02T13:13:07Z</time><pdop>4.0</pdop><geoidheight>51.00</geoidheight><course>357.8</course><type>1</type></trkpt>
      <trkpt lat="38.456069" lon="-2.37773452"><ele>2692</ele><speed>11.82</speed><time>2016-06-02T13:13:08Z</time><pdop>3.0</pdop><geoidheight>51.00</geoidheight><course>20.8</course><type>1</type></trkpt>
      <trkpt lat="38.45617144" lon="-2.37767033"><ele>2693</ele><speed>12.77</speed><time>2016-06-02T13:13:09Z</time><pdop>4.0</pdop><geoidheight>51.00</geoidheight><course>24.9</course><type>1</type></trkpt>
      <trkpt lat="38.45624566" lon="-2.37756817"><ele>2694</ele><speed>12.47</speed><time>2016-06-02T13:13:10Z</time><pdop>4.0</pdop><geoidheight>51.00</geoidheight><course>41.9</course><type>1</type></trkpt>
      <trkpt lat="38.45632923" lon="-2.37747286"><ele>2694</ele><speed>12.46</speed><time>2016-06-02T13:13:11Z</time><pdop>4.0</pdop><geoidheight>51.00</geoidheight><course>41.9</course><type>1</type></trkpt>
      <trkpt lat="38.45641909" lon="-2.37733635"><ele>2695</ele><speed>14.29</speed><time>2016-06-02T13:13:12Z</time><pdop>4.0</pdop><geoidheight>51.00</geoidheight><course>54.0</course><type>1</type></trkpt>
      <trkpt lat="38.45649474" lon="-2.37720404"><ele>2695</ele><speed>14.28</speed><time>2016-06-02T13:13:13Z</time><pdop>6.0</pdop><geoidheight>51.00</geoidheight><course>54.0</course><type>1</type></trkpt>
      <trkpt lat="38.45650105" lon="-2.37704596"><ele>2695</ele><speed>14.07</speed><time>2016-06-02T13:13:14Z</time><pdop>6.0</pdop><geoidheight>51.00</geoidheight><course>66.9</course><type>1</type></trkpt>
      <trkpt lat="38.45652564" lon="-2.37691064"><ele>2696</ele><speed>12.67</speed><time>2016-06-02T13:13:15Z</time><pdop>6.0</pdop><geoidheight>51.00</geoidheight><course>73.6</course><type>1</type></trkpt>
      <trkpt lat="38.45654166" lon="-2.37678247"><ele>2697</ele><speed>11.71</speed><time>2016-06-02T13:13:16Z</time><pdop>5.0</pdop><geoidheight>51.00</geoidheight><course>81.9</course><type>1</type></trkpt>
      <trkpt lat="38.45651613" lon="-2.37663792"><ele>2700</ele><speed>11.74</speed><time>2016-06-02T13:13:17Z</time><pdop>4.0</pdop><geoidheight>51.00</geoidheight><course>103.9</course><type>1</type></trkpt>
      <trkpt lat="38.45647226" lon="-2.37651289"><ele>2701</ele><speed>12.14</speed><time>2016-06-02T13:13:18Z</time><pdop>4.0</pdop><geoidheight>51.00</geoidheight><course>118.7</course><type>1</type></trkpt>
      <trkpt lat="38.45642771" lon="-2.37640841"><ele>2700</ele><speed>12.16</speed><time>2016-06-02T13:13:19Z</time><pdop>3.0</pdop><geoidheight>51.00</geoidheight><course>127.9</course><type>1</type></trkpt>
      <trkpt lat="38.45636048" lon="-2.37629842"><ele>2701</ele><speed>12.16</speed><time>2016-06-02T13:13:20Z</time><pdop>4.0</pdop><geoidheight>51.00</geoidheight><course>127.9</course><type>1</type></trkpt>
      <trkpt lat="38.45627384" lon="-2.37622131"><ele>2702</ele><speed>11.54</speed><time>2016-06-02T13:13:21Z</time><pdop>4.0</pdop><geoidheight>51.00</geoidheight><course>138.7</course><type>1</type></trkpt>
      <trkpt lat="38.45619566" lon="-2.37613391"><ele>2703</ele><speed>11.55</speed><time>2016-06-02T13:13:22Z</time><pdop>4.0</pdop><geoidheight>51.00</geoidheight><course>138.7</course><type>1</type></trkpt>
      <trkpt lat="38.45610512" lon="-2.37612404"><ele>2706</ele><speed>8.14</speed><time>2016-06-02T13:13:23Z</time><pdop>3.0</pdop><geoidheight>51.00</geoidheight><course>170.4</course><type>1</type></trkpt>
      <trkpt lat="38.45604735" lon="-2.37612654"><ele>2706</ele><speed>6.92</speed><time>2016-06-02T13:13:24Z</time><pdop>3.0</pdop><geoidheight>51.00</geoidheight><course>198.4</course><type>1</type></trkpt>
      <trkpt lat="38.45598879" lon="-2.37616689"><ele>2705</ele><speed>6.95</speed><time>2016-06-02T13:13:25Z</time><pdop>4.0</pdop><geoidheight>51.00</geoidheight><course>219.3</course><type>1</type></trkpt>
      <trkpt lat="38.4559104" lon="-2.37630336"><ele>2704</ele><speed>7.59</speed><time>2016-06-02T13:13:27Z</time><pdop>4.0</pdop><geoidheight>51.00</geoidheight><course>239.6</course><type>1</type></trkpt>
      <trkpt lat="38.45594497" lon="-2.37648125"><ele>2706</ele><speed>8.85</speed><time>2016-06-02T13:13:29Z</time><pdop>5.0</pdop><geoidheight>51.00</geoidheight><course>285.9</course><type>1</type></trkpt>
      <trkpt lat="38.45601022" lon="-2.37667798"><ele>2706</ele><speed>9.53</speed><time>2016-06-02T13:13:31Z</time><pdop>5.0</pdop><geoidheight>51.00</geoidheight><course>298.7</course><type>1</type></trkpt>
      <trkpt lat="38.45606308" lon="-2.37677617"><ele>2706</ele><speed>9.98</speed><time>2016-06-02T13:13:32Z</time><pdop>4.0</pdop><geoidheight>51.00</geoidheight><course>305.7</course><type>1</type></trkpt>
      <trkpt lat="38.45613106" lon="-2.37685308"><ele>2706</ele><speed>10.00</speed><time>2016-06-02T13:13:33Z</time><pdop>4.0</pdop><geoidheight>51.00</geoidheight><course>315.4</course><type>1</type></trkpt>
      <trkpt lat="38.45618984" lon="-2.37691997"><ele>2708</ele><speed>10.50</speed><time>2016-06-02T13:13:34Z</time><pdop>4.0</pdop><geoidheight>51.00</geoidheight><course>331.1</course><type>1</type></trkpt>
      <trkpt lat="38.45627348" lon="-2.37696666"><ele>2709</ele><speed>10.98</speed><time>2016-06-02T13:13:35Z</time><pdop>4.0</pdop><geoidheight>51.00</geoidheight><course>347.0</course><type>1</type></trkpt>
      <trkpt lat="38.45636973" lon="-2.37699485"><ele>2709</ele><speed>10.97</speed><time>2016-06-02T13:13:36Z</time><pdop>5.0</pdop><geoidheight>51.00</geoidheight><course>347.0</course><type>1</type></trkpt>
      <trkpt lat="38.45649331" lon="-2.37695833"><ele>2709</ele><speed>12.80</speed><time>2016-06-02T13:13:37Z</time><pdop>4.0</pdop><geoidheight>51.00</geoidheight><course>7.6</course><type>1</type></trkpt>
      <trkpt lat="38.45660106" lon="-2.37692006"><ele>2711</ele><speed>12.83</speed><time>2016-06-02T13:13:38Z</time><pdop>4.0</pdop><geoidheight>51.00</geoidheight><course>15.7</course><type>1</type></trkpt>
      <trkpt lat="38.45668975" lon="-2.37686178"><ele>2713</ele><speed>11.95</speed><time>2016-06-02T13:13:39Z</time><pdop>4.0</pdop><geoidheight>51.00</geoidheight><course>28.5</course><type>1</type></trkpt>
      <trkpt lat="38.45677288" lon="-2.37677719"><ele>2715</ele><speed>11.23</speed><time>2016-06-02T13:13:40Z</time><pdop>4.0</pdop><geoidheight>51.00</geoidheight><course>42.2</course><type>1</type></trkpt>
      <trkpt lat="38.45684763" lon="-2.37669107"><ele>2716</ele><speed>11.21</speed><time>2016-06-02T13:13:41Z</time><pdop>5.0</pdop><geoidheight>51.00</geoidheight><course>42.2</course><type>1</type></trkpt>
      <trkpt lat="38.45688491" lon="-2.37656278"><ele>2715</ele><speed>12.11</speed><time>2016-06-02T13:13:42Z</time><pdop>5.0</pdop><geoidheight>51.00</geoidheight><course>61.6</course><type>1</type></trkpt>
      <trkpt lat="38.45691886" lon="-2.37642829"><ele>2716</ele><speed>12.69</speed><time>2016-06-02T13:13:43Z</time><pdop>4.0</pdop><geoidheight>51.00</geoidheight><course>72.0</course><type>1</type></trkpt>
      <trkpt lat="38.45694386" lon="-2.37628745"><ele>2715</ele><speed>12.87</speed><time>2016-06-02T13:13:44Z</time><pdop>4.0</pdop><geoidheight>51.00</geoidheight><course>74.1</course><type>1</type></trkpt>
      <trkpt lat="38.45697567" lon="-2.37614566"><ele>2715</ele><speed>12.87</speed><time>2016-06-02T13:13:45Z</time><pdop>5.0</pdop><geoidheight>51.00</geoidheight><course>74.1</course><type>1</type></trkpt>
      <trkpt lat="38.45699377" lon="-2.37598898"><ele>2713</ele><speed>13.35</speed><time>2016-06-02T13:13:46Z</time><pdop>4.0</pdop><geoidheight>51.00</geoidheight><course>78.4</course><type>1</type></trkpt>
      <trkpt lat="38.45701177" lon="-2.37583934"><ele>2712</ele><speed>13.40</speed><time>2016-06-02T13:13:47Z</time><pdop>4.0</pdop><geoidheight>51.00</geoidheight><course>81.7</course><type>1</type></trkpt>
      <trkpt lat="38.45701838" lon="-2.37568647"><ele>2711</ele><speed>13.27</speed><time>2016-06-02T13:13:48Z</time><pdop>4.0</pdop><geoidheight>51.00</geoidheight><course>85.6</course><type>1</type></trkpt>
      <trkpt lat="38.45702742" lon="-2.37553532"><ele>2711</ele><speed>13.24</speed><time>2016-06-02T13:13:49Z</time><pdop>4.0</pdop><geoidheight>51.00</geoidheight><course>85.7</course><type>1</type></trkpt>
      <trkpt lat="38.45703412" lon="-2.37538321"><ele>2711</ele><speed>13.19</speed><time>2016-06-02T13:13:50Z</time><pdop>6.0</pdop><geoidheight>51.00</geoidheight><course>85.6</course><type>1</type></trkpt>
      <trkpt lat="38.45705975" lon="-2.37520967"><ele>2711</ele><speed>14.06</speed><time>2016-06-02T13:13:51Z</time><pdop>7.0</pdop><geoidheight>51.00</geoidheight><course>80.9</course><type>1</type></trkpt>
      <trkpt lat="38.45715466" lon="-2.37491825"><ele>2711</ele><speed>13.79</speed><time>2016-06-02T13:13:53Z</time><pdop>8.0</pdop><geoidheight>51.00</geoidheight><course>71.4</course><type>1</type></trkpt>
      <trkpt lat="38.45724333" lon="-2.37462971"><ele>2709</ele><speed>14.19</speed><time>2016-06-02T13:13:55Z</time><pdop>9.0</pdop><geoidheight>51.00</geoidheight><course>68.7</course><type>1</type></trkpt>
      <trkpt lat="38.45735486" lon="-2.37434149"><ele>2709</ele><speed>13.93</speed><time>2016-06-02T13:13:57Z</time><pdop>9.0</pdop><geoidheight>51.00</geoidheight><course>66.9</course><type>1</type></trkpt>
      <trkpt lat="38.45744189" lon="-2.37405681"><ele>2705</ele><speed>13.39</speed><time>2016-06-02T13:13:59Z</time><pdop>7.0</pdop><geoidheight>51.00</geoidheight><course>70.5</course><type>1</type></trkpt>
      <trkpt lat="38.45750227" lon="-2.37376376"><ele>2698</ele><speed>15.03</speed><time>2016-06-02T13:14:01Z</time><pdop>5.0</pdop><geoidheight>51.00</geoidheight><course>76.3</course><type>1</type></trkpt>
      <trkpt lat="38.45753046" lon="-2.37359969"><ele>2696</ele><speed>15.22</speed><time>2016-06-02T13:14:02Z</time><pdop>5.0</pdop><geoidheight>51.00</geoidheight><course>74.7</course><type>1</type></trkpt>
      <trkpt lat="38.45757814" lon="-2.37343335"><ele>2694</ele><speed>14.84</speed><time>2016-06-02T13:14:03Z</time><pdop>5.0</pdop><geoidheight>51.00</geoidheight><course>70.5</course><type>1</type></trkpt>
      <trkpt lat="38.45762334" lon="-2.37327107"><ele>2692</ele><speed>14.70</speed><time>2016-06-02T13:14:04Z</time><pdop>5.0</pdop><geoidheight>51.00</geoidheight><course>70.8</course><type>1</type></trkpt>
      <trkpt lat="38.45764188" lon="-2.37311862"><ele>2690</ele><speed>14.30</speed><time>2016-06-02T13:14:05Z</time><pdop>5.0</pdop><geoidheight>51.00</geoidheight><course>72.6</course><type>1</type></trkpt>
      <trkpt lat="38.45766358" lon="-2.37295739"><ele>2689</ele><speed>14.22</speed><time>2016-06-02T13:14:06Z</time><pdop>5.0</pdop><geoidheight>51.00</geoidheight><course>78.2</course><type>1</type></trkpt>
      <trkpt lat="38.45767631" lon="-2.37277725"><ele>2689</ele><speed>15.67</speed><time>2016-06-02T13:14:07Z</time><pdop>6.0</pdop><geoidheight>51.00</geoidheight><course>84.7</course><type>1</type></trkpt>
      <trkpt lat="38.45765723" lon="-2.37259977"><ele>2688</ele><speed>15.98</speed><time>2016-06-02T13:14:08Z</time><pdop>5.0</pdop><geoidheight>51.00</geoidheight><course>96.7</course><type>1</type></trkpt>
      <trkpt lat="38.45764054" lon="-2.3724183"><ele>2687</ele><speed>15.96</speed><time>2016-06-02T13:14:09Z</time><pdop>6.0</pdop><geoidheight>51.00</geoidheight><course>96.7</course><type>1</type></trkpt>
      <trkpt lat="38.45762584" lon="-2.3722567"><ele>2688</ele><speed>14.81</speed><time>2016-06-02T13:14:10Z</time><pdop>5.0</pdop><geoidheight>51.00</geoidheight><course>99.6</course><type>1</type></trkpt>
      <trkpt lat="38.4576076" lon="-2.37208816"><ele>2687</ele><speed>14.37</speed><time>2016-06-02T13:14:11Z</time><pdop>5.0</pdop><geoidheight>51.00</geoidheight><course>99.2</course><type>1</type></trkpt>
      <trkpt lat="38.45759454" lon="-2.3719591"><ele>2734</ele><speed>14.02</speed><time>2016-06-02T13:14:12Z</time><pdop>5.0</pdop><geoidheight>51.00</geoidheight><course>96.3</course><type>1</type></trkpt>
      <trkpt lat="38.45758762" lon="-2.37178553"><ele>2722</ele><speed>14.97</speed><time>2016-06-02T13:14:13Z</time><pdop>5.0</pdop><geoidheight>51.00</geoidheight><course>94.1</course><type>1</type></trkpt>
      <trkpt lat="38.45757756" lon="-2.37160153"><ele>2713</ele><speed>16.00</speed><time>2016-06-02T13:14:14Z</time><pdop>5.0</pdop><geoidheight>51.00</geoidheight><course>92.7</course><type>1</type></trkpt>
      <trkpt lat="38.45757077" lon="-2.37141892"><ele>2709</ele><speed>15.97</speed><time>2016-06-02T13:14:15Z</time><pdop>6.0</pdop><geoidheight>51.00</geoidheight><course>92.7</course><type>1</type></trkpt>
      <trkpt lat="38.45758844" lon="-2.37123751"><ele>2695</ele><speed>16.93</speed><time>2016-06-02T13:14:16Z</time><pdop>4.0</pdop><geoidheight>51.00</geoidheight><course>93.0</course><type>1</type></trkpt>
      <trkpt lat="38.4575845" lon="-2.37104074"><ele>2693</ele><speed>16.51</speed><time>2016-06-02T13:14:17Z</time><pdop>5.0</pdop><geoidheight>51.00</geoidheight><course>93.4</course><type>1</type></trkpt>
      <trkpt lat="38.45757719" lon="-2.37087671"><ele>2690</ele><speed>15.66</speed><time>2016-06-02T13:14:18Z</time><pdop>5.0</pdop><geoidheight>51.00</geoidheight><course>93.2</course><type>1</type></trkpt>
      <trkpt lat="38.45757724" lon="-2.37070521"><ele>2687</ele><speed>14.86</speed><time>2016-06-02T13:14:19Z</time><pdop>4.0</pdop><geoidheight>51.00</geoidheight><course>91.6</course><type>1</type></trkpt>
      <trkpt lat="38.45756792" lon="-2.370543"><ele>2685</ele><speed>13.92</speed><time>2016-06-02T13:14:20Z</time><pdop>4.0</pdop><geoidheight>51.00</geoidheight><course>92.4</course><type>1</type></trkpt>
      <trkpt lat="38.45756266" lon="-2.37038391"><ele>2685</ele><speed>13.90</speed><time>2016-06-02T13:14:21Z</time><pdop>5.0</pdop><geoidheight>51.00</geoidheight><course>92.4</course><type>1</type></trkpt>
      <trkpt lat="38.45756186" lon="-2.37022663"><ele>2686</ele><speed>13.15</speed><time>2016-06-02T13:14:22Z</time><pdop>5.0</pdop><geoidheight>51.00</geoidheight><course>92.9</course><type>1</type></trkpt>
      <trkpt lat="38.45756757" lon="-2.37007241"><ele>2680</ele><speed>14.31</speed><time>2016-06-02T13:14:23Z</time><pdop>4.0</pdop><geoidheight>51.00</geoidheight><course>88.3</course><type>1</type></trkpt>
      <trkpt lat="38.45757914" lon="-2.36990045"><ele>2676</ele><speed>15.58</speed><time>2016-06-02T13:14:24Z</time><pdop>4.0</pdop><geoidheight>51.00</geoidheight><course>85.6</course><type>1</type></trkpt>
      <trkpt lat="38.4576042" lon="-2.36971652"><ele>2673</ele><speed>15.87</speed><time>2016-06-02T13:14:25Z</time><pdop>5.0</pdop><geoidheight>51.00</geoidheight><course>82.7</course><type>1</type></trkpt>
      <trkpt lat="38.4576266" lon="-2.36954142"><ele>2670</ele><speed>15.18</speed><time>2016-06-02T13:14:26Z</time><pdop>5.0</pdop><geoidheight>51.00</geoidheight><course>80.5</course><type>1</type></trkpt>
      <trkpt lat="38.45763916" lon="-2.36937067"><ele>2670</ele><speed>14.38</speed><time>2016-06-02T13:14:27Z</time><pdop>4.0</pdop><geoidheight>51.00</geoidheight><course>80.8</course><type>1</type></trkpt>
      <trkpt lat="38.45762923" lon="-2.36920213"><ele>2669</ele><speed>14.30</speed><time>2016-06-02T13:14:28Z</time><pdop>4.0</pdop><geoidheight>51.00</geoidheight><course>85.1</course><type>1</type></trkpt>
      <trkpt lat="38.45761242" lon="-2.36905383"><ele>2665</ele><speed>12.41</speed><time>2016-06-02T13:14:29Z</time><pdop>4.0</pdop><geoidheight>51.00</geoidheight><course>88.9</course><type>1</type></trkpt>
      <trkpt lat="38.45761449" lon="-2.368913"><ele>2664</ele><speed>12.32</speed><time>2016-06-02T13:14:30Z</time><pdop>5.0</pdop><geoidheight>51.00</geoidheight><course>88.9</course><type>1</type></trkpt>
      <trkpt lat="38.45762217" lon="-2.36876093"><ele>2660</ele><speed>13.68</speed><time>2016-06-02T13:14:31Z</time><pdop>4.0</pdop><geoidheight>51.00</geoidheight><course>83.1</course><type>1</type></trkpt>
      <trkpt lat="38.45762865" lon="-2.36858705"><ele>2660</ele><speed>14.81</speed><time>2016-06-02T13:14:32Z</time><pdop>6.0</pdop><geoidheight>51.00</geoidheight><course>87.4</course><type>1</type></trkpt>
      <trkpt lat="38.45763887" lon="-2.36841581"><ele>2656</ele><speed>15.66</speed><time>2016-06-02T13:14:33Z</time><pdop>8.0</pdop><geoidheight>51.00</geoidheight><course>87.1</course><type>1</type></trkpt>
      <trkpt lat="38.45763569" lon="-2.36807611"><ele>2652</ele><speed>15.69</speed><time>2016-06-02T13:14:35Z</time><pdop>10.0</pdop><geoidheight>51.00</geoidheight><course>89.2</course><type>1</type></trkpt>
      <trkpt lat="38.45766392" lon="-2.36774181"><ele>2645</ele><speed>14.93</speed><time>2016-06-02T13:14:37Z</time><pdop>10.0</pdop><geoidheight>51.00</geoidheight><course>85.5</course><type>1</type></trkpt>
      <trkpt lat="38.4577775" lon="-2.36742448"><ele>2636</ele><speed>15.40</speed><time>2016-06-02T13:14:39Z</time><pdop>11.0</pdop><geoidheight>51.00</geoidheight><course>71.4</course><type>1</type></trkpt>
      <trkpt lat="38.45795198" lon="-2.36704266"><ele>2631</ele><speed>17.69</speed><time>2016-06-02T13:14:41Z</time><pdop>10.0</pdop><geoidheight>51.00</geoidheight><course>63.5</course><type>1</type></trkpt>
      <trkpt lat="38.45812418" lon="-2.36672404"><ele>2629</ele><speed>16.03</speed><time>2016-06-02T13:14:43Z</time><pdop>10.0</pdop><geoidheight>51.00</geoidheight><course>58.4</course><type>1</type></trkpt>
      <trkpt lat="38.45824074" lon="-2.36642921"><ele>2627</ele><speed>14.40</speed><time>2016-06-02T13:14:45Z</time><pdop>9.0</pdop><geoidheight>51.00</geoidheight><course>67.2</course><type>1</type></trkpt>
      <trkpt lat="38.458273" lon="-2.366234"><ele>2623</ele><speed>16.45</speed><time>2016-06-02T13:14:46Z</time><pdop>7.0</pdop><geoidheight>51.00</geoidheight><course>75.9</course><type>1</type></trkpt>
      <trkpt lat="38.45829189" lon="-2.36603167"><ele>2619</ele><speed>17.28</speed><time>2016-06-02T13:14:47Z</time><pdop>7.0</pdop><geoidheight>51.00</geoidheight><course>80.8</course><type>1</type></trkpt>
      <trkpt lat="38.45831847" lon="-2.3658462"><ele>2616</ele><speed>17.25</speed><time>2016-06-02T13:14:48Z</time><pdop>6.0</pdop><geoidheight>51.00</geoidheight><course>81.0</course><type>1</type></trkpt>
      <trkpt lat="38.45835622" lon="-2.3656639"><ele>2613</ele><speed>16.66</speed><time>2016-06-02T13:14:49Z</time><pdop>5.0</pdop><geoidheight>51.00</geoidheight><course>78.4</course><type>1</type></trkpt>
      <trkpt lat="38.45840017" lon="-2.36549082"><ele>2610</ele><speed>15.87</speed><time>2016-06-02T13:14:50Z</time><pdop>5.0</pdop><geoidheight>51.00</geoidheight><course>72.3</course><type>1</type></trkpt>
      <trkpt lat="38.45844996" lon="-2.36532933"><ele>2606</ele><speed>15.84</speed><time>2016-06-02T13:14:51Z</time><pdop>4.0</pdop><geoidheight>51.00</geoidheight><course>69.7</course><type>1</type></trkpt>
      <trkpt lat="38.45850018" lon="-2.36514569"><ele>2604</ele><speed>16.87</speed><time>2016-06-02T13:14:52Z</time><pdop>4.0</pdop><geoidheight>51.00</geoidheight><course>70.9</course><type>1</type></trkpt>
      <trkpt lat="38.45855153" lon="-2.36494786"><ele>2602</ele><speed>17.54</speed><time>2016-06-02T13:14:53Z</time><pdop>5.0</pdop><geoidheight>51.00</geoidheight><course>72.8</course><type>1</type></trkpt>
      <trkpt lat="38.45859971" lon="-2.36473223"><ele>2597</ele><speed>19.01</speed><time>2016-06-02T13:14:54Z</time><pdop>4.0</pdop><geoidheight>51.00</geoidheight><course>74.4</course><type>1</type></trkpt>
      <trkpt lat="38.45864995" lon="-2.36452428"><ele>2594</ele><speed>19.30</speed><time>2016-06-02T13:14:55Z</time><pdop>4.0</pdop><geoidheight>51.00</geoidheight><course>72.6</course><type>1</type></trkpt>
      <trkpt lat="38.45870248" lon="-2.3643367"><ele>2590</ele><speed>18.93</speed><time>2016-06-02T13:14:56Z</time><pdop>4.0</pdop><geoidheight>51.00</geoidheight><course>68.8</course><type>1</type></trkpt>
      <trkpt lat="38.45879174" lon="-2.36415759"><ele>2584</ele><speed>19.29</speed><time>2016-06-02T13:14:57Z</time><pdop>4.0</pdop><geoidheight>51.00</geoidheight><course>62.4</course><type>1</type></trkpt>
      <trkpt lat="38.4588712" lon="-2.36395699"><ele>2581</ele><speed>19.88</speed><time>2016-06-02T13:14:58Z</time><pdop>4.0</pdop><geoidheight>51.00</geoidheight><course>62.1</course><type>1</type></trkpt>
      <trkpt lat="38.4589516" lon="-2.36376329"><ele>2578</ele><speed>19.90</speed><time>2016-06-02T13:14:59Z</time><pdop>4.0</pdop><geoidheight>51.00</geoidheight><course>61.9</course><type>1</type></trkpt>
      <trkpt lat="38.45903404" lon="-2.36355243"><ele>2576</ele><speed>19.90</speed><time>2016-06-02T13:15:00Z</time><pdop>4.0</pdop><geoidheight>51.00</geoidheight><course>62.7</course><type>1</type></trkpt>
      <trkpt lat="38.45912014" lon="-2.36331644"><ele>2576</ele><speed>21.38</speed><time>2016-06-02T13:15:01Z</time><pdop>6.0</pdop><geoidheight>51.00</geoidheight><course>64.3</course><type>1</type></trkpt>
      <trkpt lat="38.45919961" lon="-2.36309828"><ele>2572</ele><speed>21.16</speed><time>2016-06-02T13:15:02Z</time><pdop>5.0</pdop><geoidheight>51.00</geoidheight><course>66.1</course><type>1</type></trkpt>
      <trkpt lat="38.4592651" lon="-2.36287497"><ele>2569</ele><speed>20.37</speed><time>2016-06-02T13:15:03Z</time><pdop>4.0</pdop><geoidheight>51.00</geoidheight><course>68.2</course><type>1</type></trkpt>
      <trkpt lat="38.45931743" lon="-2.36266334"><ele>2565</ele><speed>19.86</speed><time>2016-06-02T13:15:04Z</time><pdop>4.0</pdop><geoidheight>51.00</geoidheight><course>69.3</course><type>1</type></trkpt>
      <trkpt lat="38.45938614" lon="-2.36245355"><ele>2562</ele><speed>19.65</speed><time>2016-06-02T13:15:05Z</time><pdop>4.0</pdop><geoidheight>51.00</geoidheight><course>68.3</course><type>1</type></trkpt>
      <trkpt lat="38.4594505" lon="-2.3622472"><ele>2558</ele><speed>19.20</speed><time>2016-06-02T13:15:06Z</time><pdop>4.0</pdop><geoidheight>51.00</geoidheight><course>68.1</course><type>1</type></trkpt>
      <trkpt lat="38.45950596" lon="-2.36206013"><ele>2554</ele><speed>18.80</speed><time>2016-06-02T13:15:07Z</time><pdop>4.0</pdop><geoidheight>51.00</geoidheight><course>68.6</course><type>1</type></trkpt>
      <trkpt lat="38.45956021" lon="-2.36186915"><ele>2551</ele><speed>18.11</speed><time>2016-06-02T13:15:08Z</time><pdop>4.0</pdop><geoidheight>51.00</geoidheight><course>70.0</course><type>1</type></trkpt>
      <trkpt lat="38.45962062" lon="-2.36168084"><ele>2548</ele><speed>17.79</speed><time>2016-06-02T13:15:09Z</time><pdop>4.0</pdop><geoidheight>51.00</geoidheight><course>69.5</course><type>1</type></trkpt>
      <trkpt lat="38.45968318" lon="-2.36152093"><ele>2544</ele><speed>16.73</speed><time>2016-06-02T13:15:10Z</time><pdop>4.0</pdop><geoidheight>51.00</geoidheight><course>67.5</course><type>1</type></trkpt>
      <trkpt lat="38.45974205" lon="-2.36134731"><ele>2541</ele><speed>16.62</speed><time>2016-06-02T13:15:11Z</time><pdop>4.0</pdop><geoidheight>51.00</geoidheight><course>65.9</course><type>1</type></trkpt>
      <trkpt lat="38.45980182" lon="-2.36117437"><ele>2537</ele><speed>16.61</speed><time>2016-06-02T13:15:12Z</time><pdop>4.0</pdop><geoidheight>51.00</geoidheight><course>65.7</course><type>1</type></trkpt>
      <trkpt lat="38.45986504" lon="-2.36100252"><ele>2532</ele><speed>16.60</speed><time>2016-06-02T13:15:13Z</time><pdop>4.0</pdop><geoidheight>51.00</geoidheight><course>66.4</course><type>1</type></trkpt>
      <trkpt lat="38.45992091" lon="-2.3608317"><ele>2528</ele><speed>17.06</speed><time>2016-06-02T13:15:14Z</time><pdop>4.0</pdop><geoidheight>51.00</geoidheight><course>66.8</course><type>1</type></trkpt>
      <trkpt lat="38.4599792" lon="-2.36064721"><ele>2523</ele><speed>17.70</speed><time>2016-06-02T13:15:15Z</time><pdop>3.0</pdop><geoidheight>51.00</geoidheight><course>66.9</course><type>1</type></trkpt>
      <trkpt lat="38.46003507" lon="-2.36045817"><ele>2519</ele><speed>18.17</speed><time>2016-06-02T13:15:16Z</time><pdop>3.0</pdop><geoidheight>51.00</geoidheight><course>67.4</course><type>1</type></trkpt>
      <trkpt lat="38.46009693" lon="-2.36026156"><ele>2516</ele><speed>18.01</speed><time>2016-06-02T13:15:17Z</time><pdop>3.0</pdop><geoidheight>51.00</geoidheight><course>69.6</course><type>1</type></trkpt>
      <trkpt lat="38.46014934" lon="-2.36007094"><ele>2514</ele><speed>17.39</speed><time>2016-06-02T13:15:18Z</time><pdop>3.0</pdop><geoidheight>51.00</geoidheight><course>71.5</course><type>1</type></trkpt>
      <trkpt lat="38.46019498" lon="-2.35990508"><ele>2510</ele><speed>16.57</speed><time>2016-06-02T13:15:19Z</time><pdop>3.0</pdop><geoidheight>51.00</geoidheight><course>71.9</course><type>1</type></trkpt>
      <trkpt lat="38.46024074" lon="-2.35973822"><ele>2507</ele><speed>15.99</speed><time>2016-06-02T13:15:20Z</time><pdop>4.0</pdop><geoidheight>51.00</geoidheight><course>71.4</course><type>1</type></trkpt>
      <trkpt lat="38.46028158" lon="-2.35956994"><ele>2504</ele><speed>15.77</speed><time>2016-06-02T13:15:21Z</time><pdop>3.0</pdop><geoidheight>51.00</geoidheight><course>71.3</course><type>1</type></trkpt>
      <trkpt lat="38.46031828" lon="-2.35939442"><ele>2501</ele><speed>15.93</speed><time>2016-06-02T13:15:22Z</time><pdop>3.0</pdop><geoidheight>51.00</geoidheight><course>72.4</course><type>1</type></trkpt>
      <trkpt lat="38.4603553" lon="-2.35921442"><ele>2497</ele><speed>16.29</speed><time>2016-06-02T13:15:23Z</time><pdop>3.0</pdop><geoidheight>51.00</geoidheight><course>74.0</course><type>1</type></trkpt>
      <trkpt lat="38.46039445" lon="-2.35903679"><ele>2494</ele><speed>16.63</speed><time>2016-06-02T13:15:24Z</time><pdop>3.0</pdop><geoidheight>51.00</geoidheight><course>74.4</course><type>1</type></trkpt>
      <trkpt lat="38.46043258" lon="-2.35885375"><ele>2492</ele><speed>16.79</speed><time>2016-06-02T13:15:25Z</time><pdop>3.0</pdop><geoidheight>51.00</geoidheight><course>73.5</course><type>1</type></trkpt>
      <trkpt lat="38.46048017" lon="-2.35867183"><ele>2490</ele><speed>16.65</speed><time>2016-06-02T13:15:26Z</time><pdop>3.0</pdop><geoidheight>51.00</geoidheight><course>71.9</course><type>1</type></trkpt>
      <trkpt lat="38.46052898" lon="-2.35849424"><ele>2488</ele><speed>16.31</speed><time>2016-06-02T13:15:27Z</time><pdop>3.0</pdop><geoidheight>51.00</geoidheight><course>70.8</course><type>1</type></trkpt>
      <trkpt lat="38.46057329" lon="-2.35831859"><ele>2486</ele><speed>15.97</speed><time>2016-06-02T13:15:28Z</time><pdop>3.0</pdop><geoidheight>51.00</geoidheight><course>70.9</course><type>1</type></trkpt>
      <trkpt lat="38.46061701" lon="-2.3581452"><ele>2485</ele><speed>15.79</speed><time>2016-06-02T13:15:29Z</time><pdop>3.0</pdop><geoidheight>51.00</geoidheight><course>71.9</course><type>1</type></trkpt>
      <trkpt lat="38.46065897" lon="-2.35797115"><ele>2482</ele><speed>15.99</speed><time>2016-06-02T13:15:30Z</time><pdop>3.0</pdop><geoidheight>51.00</geoidheight><course>73.2</course><type>1</type></trkpt>
      <trkpt lat="38.46070001" lon="-2.35778867"><ele>2481</ele><speed>16.62</speed><time>2016-06-02T13:15:31Z</time><pdop>3.0</pdop><geoidheight>51.00</geoidheight><course>73.8</course><type>1</type></trkpt>
      <trkpt lat="38.46074603" lon="-2.35761588"><ele>2478</ele><speed>16.88</speed><time>2016-06-02T13:15:32Z</time><pdop>3.0</pdop><geoidheight>51.00</geoidheight><course>74.2</course><type>1</type></trkpt>
      <trkpt lat="38.46078096" lon="-2.35741799"><ele>2476</ele><speed>17.19</speed><time>2016-06-02T13:15:33Z</time><pdop>3.0</pdop><geoidheight>51.00</geoidheight><course>75.4</course><type>1</type></trkpt>
      <trkpt lat="38.46081658" lon="-2.35722504"><ele>2474</ele><speed>17.27</speed><time>2016-06-02T13:15:34Z</time><pdop>3.0</pdop><geoidheight>51.00</geoidheight><course>76.3</course><type>1</type></trkpt>
      <trkpt lat="38.4608578" lon="-2.35702849"><ele>2473</ele><speed>17.25</speed><time>2016-06-02T13:15:35Z</time><pdop>3.0</pdop><geoidheight>51.00</geoidheight><course>75.2</course><type>1</type></trkpt>
      <trkpt lat="38.46090125" lon="-2.35684209"><ele>2472</ele><speed>17.03</speed><time>2016-06-02T13:15:36Z</time><pdop>3.0</pdop><geoidheight>51.00</geoidheight><course>72.9</course><type>1</type></trkpt>
      <trkpt lat="38.46094992" lon="-2.35666386"><ele>2470</ele><speed>16.81</speed><time>2016-06-02T13:15:37Z</time><pdop>3.0</pdop><geoidheight>51.00</geoidheight><course>70.7</course><type>1</type></trkpt>
      <trkpt lat="38.46099647" lon="-2.35648057"><ele>2469</ele><speed>17.02</speed><time>2016-06-02T13:15:38Z</time><pdop>3.0</pdop><geoidheight>51.00</geoidheight><course>70.5</course><type>1</type></trkpt>
      <trkpt lat="38.4610482" lon="-2.35629778"><ele>2467</ele><speed>17.18</speed><time>2016-06-02T13:15:39Z</time><pdop>3.0</pdop><geoidheight>51.00</geoidheight><course>71.0</course><type>1</type></trkpt>
      <trkpt lat="38.46110275" lon="-2.35610545"><ele>2465</ele><speed>17.87</speed><time>2016-06-02T13:15:40Z</time><pdop>3.0</pdop><geoidheight>51.00</geoidheight><course>69.9</course><type>1</type></trkpt>
      <trkpt lat="38.46116104" lon="-2.35590943"><ele>2463</ele><speed>18.47</speed><time>2016-06-02T13:15:41Z</time><pdop>3.0</pdop><geoidheight>51.00</geoidheight><course>69.4</course><type>1</type></trkpt>
      <trkpt lat="38.46120816" lon="-2.355721"><ele>2461</ele><speed>18.43</speed><time>2016-06-02T13:15:42Z</time><pdop>3.0</pdop><geoidheight>51.00</geoidheight><course>70.4</course><type>1</type></trkpt>
      <trkpt lat="38.46126818" lon="-2.35551971"><ele>2461</ele><speed>18.14</speed><time>2016-06-02T13:15:43Z</time><pdop>3.0</pdop><geoidheight>51.00</geoidheight><course>69.5</course><type>1</type></trkpt>
      <trkpt lat="38.4613238" lon="-2.35533675"><ele>2463</ele><speed>16.46</speed><time>2016-06-02T13:15:44Z</time><pdop>3.0</pdop><geoidheight>51.00</geoidheight><course>67.5</course><type>1</type></trkpt>
      <trkpt lat="38.46138048" lon="-2.35516269"><ele>2463</ele><speed>16.45</speed><time>2016-06-02T13:15:45Z</time><pdop>4.0</pdop><geoidheight>51.00</geoidheight><course>67.5</course><type>1</type></trkpt>
      <trkpt lat="38.46145203" lon="-2.35503882"><ele>2464</ele><speed>14.41</speed><time>2016-06-02T13:15:46Z</time><pdop>3.0</pdop><geoidheight>51.00</geoidheight><course>58.7</course><type>1</type></trkpt>
      <trkpt lat="38.46154163" lon="-2.35490153"><ele>2464</ele><speed>15.14</speed><time>2016-06-02T13:15:47Z</time><pdop>4.0</pdop><geoidheight>51.00</geoidheight><course>56.7</course><type>1</type></trkpt>
      <trkpt lat="38.46162195" lon="-2.35473694"><ele>2459</ele><speed>17.42</speed><time>2016-06-02T13:15:48Z</time><pdop>4.0</pdop><geoidheight>51.00</geoidheight><course>58.2</course><type>1</type></trkpt>
      <trkpt lat="38.46170325" lon="-2.35456993"><ele>2456</ele><speed>17.29</speed><time>2016-06-02T13:15:49Z</time><pdop>4.0</pdop><geoidheight>51.00</geoidheight><course>58.2</course><type>1</type></trkpt>
      <trkpt lat="38.46178398" lon="-2.35434482"><ele>2455</ele><speed>20.26</speed><time>2016-06-02T13:15:50Z</time><pdop>3.0</pdop><geoidheight>51.00</geoidheight><course>65.1</course><type>1</type></trkpt>
      <trkpt lat="38.4618493" lon="-2.35413205"><ele>2455</ele><speed>19.67</speed><time>2016-06-02T13:15:51Z</time><pdop>3.0</pdop><geoidheight>51.00</geoidheight><course>67.6</course><type>1</type></trkpt>
      <trkpt lat="38.4619062" lon="-2.35393608"><ele>2455</ele><speed>18.21</speed><time>2016-06-02T13:15:52Z</time><pdop>5.0</pdop><geoidheight>51.00</geoidheight><course>68.6</course><type>1</type></trkpt>
      <trkpt lat="38.46195794" lon="-2.353762"><ele>2456</ele><speed>16.41</speed><time>2016-06-02T13:15:53Z</time><pdop>6.0</pdop><geoidheight>51.00</geoidheight><course>68.6</course><type>1</type></trkpt>
      <trkpt lat="38.4620106" lon="-2.35360221"><ele>2455</ele><speed>15.21</speed><time>2016-06-02T13:15:54Z</time><pdop>7.0</pdop><geoidheight>51.00</geoidheight><course>67.8</course><type>1</type></trkpt>
      <trkpt lat="38.46206787" lon="-2.35344167"><ele>2455</ele><speed>15.28</speed><time>2016-06-02T13:15:55Z</time><pdop>8.0</pdop><geoidheight>51.00</geoidheight><course>66.9</course><type>1</type></trkpt>
      <trkpt lat="38.46218656" lon="-2.35307791"><ele>2454</ele><speed>17.37</speed><time>2016-06-02T13:15:57Z</time><pdop>12.0</pdop><geoidheight>51.00</geoidheight><course>68.5</course><type>1</type></trkpt>
      <trkpt lat="38.46223572" lon="-2.35265435"><ele>2447</ele><speed>18.60</speed><time>2016-06-02T13:15:59Z</time><pdop>7.0</pdop><geoidheight>51.00</geoidheight><course>74.8</course><type>1</type></trkpt>
      <trkpt lat="38.46227152" lon="-2.35245096"><ele>2446</ele><speed>17.97</speed><time>2016-06-02T13:16:00Z</time><pdop>6.0</pdop><geoidheight>51.00</geoidheight><course>75.5</course><type>1</type></trkpt>
      <trkpt lat="38.46231626" lon="-2.35225709"><ele>2446</ele><speed>16.91</speed><time>2016-06-02T13:16:01Z</time><pdop>5.0</pdop><geoidheight>51.00</geoidheight><course>75.6</course><type>1</type></trkpt>
      <trkpt lat="38.46236629" lon="-2.35208547"><ele>2444</ele><speed>16.11</speed><time>2016-06-02T13:16:02Z</time><pdop>4.0</pdop><geoidheight>51.00</geoidheight><course>73.1</course><type>1</type></trkpt>
      <trkpt lat="38.46241151" lon="-2.35191701"><ele>2443</ele><speed>15.97</speed><time>2016-06-02T13:16:03Z</time><pdop>4.0</pdop><geoidheight>51.00</geoidheight><course>71.2</course><type>1</type></trkpt>
      <trkpt lat="38.46246657" lon="-2.35174297"><ele>2440</ele><speed>16.34</speed><time>2016-06-02T13:16:04Z</time><pdop>4.0</pdop><geoidheight>51.00</geoidheight><course>69.7</course><type>1</type></trkpt>
      <trkpt lat="38.46250456" lon="-2.3515611"><ele>2439</ele><speed>16.62</speed><time>2016-06-02T13:16:05Z</time><pdop>5.0</pdop><geoidheight>51.00</geoidheight><course>71.7</course><type>1</type></trkpt>
      <trkpt lat="38.46255692" lon="-2.35136976"><ele>2437</ele><speed>17.40</speed><time>2016-06-02T13:16:06Z</time><pdop>6.0</pdop><geoidheight>51.00</geoidheight><course>71.8</course><type>1</type></trkpt>
      <trkpt lat="38.46260871" lon="-2.35115883"><ele>2436</ele><speed>18.35</speed><time>2016-06-02T13:16:07Z</time><pdop>4.0</pdop><geoidheight>51.00</geoidheight><course>71.2</course><type>1</type></trkpt>
      <trkpt lat="38.46267352" lon="-2.3509592"><ele>2435</ele><speed>18.10</speed><time>2016-06-02T13:16:08Z</time><pdop>4.0</pdop><geoidheight>51.00</geoidheight><course>69.5</course><type>1</type></trkpt>
      <trkpt lat="38.46273347" lon="-2.35078233"><ele>2433</ele><speed>17.33</speed><time>2016-06-02T13:16:09Z</time><pdop>5.0</pdop><geoidheight>51.00</geoidheight><course>68.3</course><type>1</type></trkpt>
      <trkpt lat="38.46278826" lon="-2.35060779"><ele>2432</ele><speed>16.83</speed><time>2016-06-02T13:16:10Z</time><pdop>5.0</pdop><geoidheight>51.00</geoidheight><course>67.5</course><type>1</type></trkpt>
      <trkpt lat="38.46285982" lon="-2.35042703"><ele>2431</ele><speed>16.92</speed><time>2016-06-02T13:16:11Z</time><pdop>4.0</pdop><geoidheight>51.00</geoidheight><course>66.9</course><type>1</type></trkpt>
      <trkpt lat="38.46291648" lon="-2.35024151"><ele>2429</ele><speed>17.24</speed><time>2016-06-02T13:16:12Z</time><pdop>4.0</pdop><geoidheight>51.00</geoidheight><course>68.2</course><type>1</type></trkpt>
      <trkpt lat="38.46295554" lon="-2.35006849"><ele>2425</ele><speed>17.38</speed><time>2016-06-02T13:16:13Z</time><pdop>4.0</pdop><geoidheight>51.00</geoidheight><course>71.7</course><type>1</type></trkpt>
      <trkpt lat="38.4630055" lon="-2.34988078"><ele>2424</ele><speed>17.61</speed><time>2016-06-02T13:16:14Z</time><pdop>4.0</pdop><geoidheight>51.00</geoidheight><course>72.3</course><type>1</type></trkpt>
      <trkpt lat="38.46303906" lon="-2.34968684"><ele>2421</ele><speed>17.92</speed><time>2016-06-02T13:16:15Z</time><pdop>4.0</pdop><geoidheight>51.00</geoidheight><course>73.2</course><type>1</type></trkpt>
      <trkpt lat="38.46309236" lon="-2.34949272"><ele>2420</ele><speed>17.56</speed><time>2016-06-02T13:16:16Z</time><pdop>3.0</pdop><geoidheight>51.00</geoidheight><course>72.8</course><type>1</type></trkpt>
      <trkpt lat="38.46314103" lon="-2.34931035"><ele>2418</ele><speed>16.95</speed><time>2016-06-02T13:16:17Z</time><pdop>3.0</pdop><geoidheight>51.00</geoidheight><course>73.5</course><type>1</type></trkpt>
      <trkpt lat="38.463179" lon="-2.34913754"><ele>2415</ele><speed>16.42</speed><time>2016-06-02T13:16:18Z</time><pdop>3.0</pdop><geoidheight>51.00</geoidheight><course>75.5</course><type>1</type></trkpt>
      <trkpt lat="38.46321044" lon="-2.34895523"><ele>2413</ele><speed>16.28</speed><time>2016-06-02T13:16:19Z</time><pdop>3.0</pdop><geoidheight>51.00</geoidheight><course>77.8</course><type>1</type></trkpt>
      <trkpt lat="38.46324387" lon="-2.34876547"><ele>2411</ele><speed>16.58</speed><time>2016-06-02T13:16:20Z</time><pdop>3.0</pdop><geoidheight>51.00</geoidheight><course>78.0</course><type>1</type></trkpt>
      <trkpt lat="38.46328525" lon="-2.34858401"><ele>2407</ele><speed>16.75</speed><time>2016-06-02T13:16:21Z</time><pdop>3.0</pdop><geoidheight>51.00</geoidheight><course>76.3</course><type>1</type></trkpt>
      <trkpt lat="38.46331168" lon="-2.34840017"><ele>2405</ele><speed>16.79</speed><time>2016-06-02T13:16:22Z</time><pdop>3.0</pdop><geoidheight>51.00</geoidheight><course>77.5</course><type>1</type></trkpt>
      <trkpt lat="38.46333454" lon="-2.3482144"><ele>2403</ele><speed>16.78</speed><time>2016-06-02T13:16:23Z</time><pdop>3.0</pdop><geoidheight>51.00</geoidheight><course>79.9</course><type>1</type></trkpt>
      <trkpt lat="38.46335413" lon="-2.34802704"><ele>2402</ele><speed>16.75</speed><time>2016-06-02T13:16:24Z</time><pdop>3.0</pdop><geoidheight>51.00</geoidheight><course>81.1</course><type>1</type></trkpt>
      <trkpt lat="38.46336582" lon="-2.3478335"><ele>2401</ele><speed>16.78</speed><time>2016-06-02T13:16:25Z</time><pdop>4.0</pdop><geoidheight>51.00</geoidheight><course>82.7</course><type>1</type></trkpt>
      <trkpt lat="38.46337965" lon="-2.34765071"><ele>2399</ele><speed>16.74</speed><time>2016-06-02T13:16:26Z</time><pdop>3.0</pdop><geoidheight>51.00</geoidheight><course>82.4</course><type>1</type></trkpt>
      <trkpt lat="38.46337963" lon="-2.34747065"><ele>2395</ele><speed>16.74</speed><time>2016-06-02T13:16:27Z</time><pdop>3.0</pdop><geoidheight>51.00</geoidheight><course>81.1</course><type>1</type></trkpt>
      <trkpt lat="38.46340299" lon="-2.34727676"><ele>2395</ele><speed>17.00</speed><time>2016-06-02T13:16:28Z</time><pdop>3.0</pdop><geoidheight>51.00</geoidheight><course>81.4</course><type>1</type></trkpt>
      <trkpt lat="38.46342823" lon="-2.34707728"><ele>2394</ele><speed>17.31</speed><time>2016-06-02T13:16:29Z</time><pdop>4.0</pdop><geoidheight>51.00</geoidheight><course>81.6</course><type>1</type></trkpt>
      <trkpt lat="38.46346261" lon="-2.3468761"><ele>2394</ele><speed>17.59</speed><time>2016-06-02T13:16:30Z</time><pdop>4.0</pdop><geoidheight>51.00</geoidheight><course>81.1</course><type>1</type></trkpt>
      <trkpt lat="38.46348375" lon="-2.34668178"><ele>2393</ele><speed>17.45</speed><time>2016-06-02T13:16:31Z</time><pdop>4.0</pdop><geoidheight>51.00</geoidheight><course>83.6</course><type>1</type></trkpt>
      <trkpt lat="38.46349054" lon="-2.34648507"><ele>2390</ele><speed>16.79</speed><time>2016-06-02T13:16:32Z</time><pdop>3.0</pdop><geoidheight>51.00</geoidheight><course>85.8</course><type>1</type></trkpt>
      <trkpt lat="38.46350031" lon="-2.34630595"><ele>2387</ele><speed>16.15</speed><time>2016-06-02T13:16:33Z</time><pdop>3.0</pdop><geoidheight>51.00</geoidheight><course>88.5</course><type>1</type></trkpt>
      <trkpt lat="38.46349713" lon="-2.34612325"><ele>2386</ele><speed>16.10</speed><time>2016-06-02T13:16:34Z</time><pdop>3.0</pdop><geoidheight>51.00</geoidheight><course>89.9</course><type>1</type></trkpt>
      <trkpt lat="38.46350246" lon="-2.34593106"><ele>2384</ele><speed>16.39</speed><time>2016-06-02T13:16:35Z</time><pdop>3.0</pdop><geoidheight>51.00</geoidheight><course>88.7</course><type>1</type></trkpt>
      <trkpt lat="38.46351288" lon="-2.34573255"><ele>2383</ele><speed>16.71</speed><time>2016-06-02T13:16:36Z</time><pdop>3.0</pdop><geoidheight>51.00</geoidheight><course>87.3</course><type>1</type></trkpt>
      <trkpt lat="38.46351815" lon="-2.34554758"><ele>2381</ele><speed>16.38</speed><time>2016-06-02T13:16:37Z</time><pdop>3.0</pdop><geoidheight>51.00</geoidheight><course>85.5</course><type>1</type></trkpt>
      <trkpt lat="38.46353036" lon="-2.3453775"><ele>2378</ele><speed>15.90</speed><time>2016-06-02T13:16:38Z</time><pdop>3.0</pdop><geoidheight>51.00</geoidheight><course>85.5</course><type>1</type></trkpt>
      <trkpt lat="38.46353864" lon="-2.34520179"><ele>2375</ele><speed>15.68</speed><time>2016-06-02T13:16:39Z</time><pdop>3.0</pdop><geoidheight>51.00</geoidheight><course>86.6</course><type>1</type></trkpt>
      <trkpt lat="38.46356223" lon="-2.34501859"><ele>2373</ele><speed>15.90</speed><time>2016-06-02T13:16:40Z</time><pdop>3.0</pdop><geoidheight>51.00</geoidheight><course>84.7</course><type>1</type></trkpt>
      <trkpt lat="38.46356911" lon="-2.34484579"><ele>2372</ele><speed>15.90</speed><time>2016-06-02T13:16:41Z</time><pdop>3.0</pdop><geoidheight>51.00</geoidheight><course>83.6</course><type>1</type></trkpt>
      <trkpt lat="38.46357878" lon="-2.34466389"><ele>2370</ele><speed>16.23</speed><time>2016-06-02T13:16:42Z</time><pdop>3.0</pdop><geoidheight>51.00</geoidheight><course>83.6</course><type>1</type></trkpt>
      <trkpt lat="38.46361867" lon="-2.34447518"><ele>2369</ele><speed>16.98</speed><time>2016-06-02T13:16:43Z</time><pdop>3.0</pdop><geoidheight>51.00</geoidheight><course>80.1</course><type>1</type></trkpt>
      <trkpt lat="38.46365777" lon="-2.34428376"><ele>2366</ele><speed>17.12</speed><time>2016-06-02T13:16:44Z</time><pdop>3.0</pdop><geoidheight>51.00</geoidheight><course>78.1</course><type>1</type></trkpt>
      <trkpt lat="38.46369656" lon="-2.34409346"><ele>2364</ele><speed>17.30</speed><time>2016-06-02T13:16:45Z</time><pdop>3.0</pdop><geoidheight>51.00</geoidheight><course>77.1</course><type>1</type></trkpt>
      <trkpt lat="38.46374291" lon="-2.34390307"><ele>2364</ele><speed>17.45</speed><time>2016-06-02T13:16:46Z</time><pdop>3.0</pdop><geoidheight>51.00</geoidheight><course>75.0</course><type>1</type></trkpt>
      <trkpt lat="38.46379254" lon="-2.3437161"><ele>2362</ele><speed>17.49</speed><time>2016-06-02T13:16:47Z</time><pdop>3.0</pdop><geoidheight>51.00</geoidheight><course>73.1</course><type>1</type></trkpt>
      <trkpt lat="38.46384443" lon="-2.34351519"><ele>2362</ele><speed>17.92</speed><time>2016-06-02T13:16:48Z</time><pdop>3.0</pdop><geoidheight>51.00</geoidheight><course>72.6</course><type>1</type></trkpt>
      <trkpt lat="38.46387479" lon="-2.34331645"><ele>2361</ele><speed>17.88</speed><time>2016-06-02T13:16:49Z</time><pdop>3.0</pdop><geoidheight>51.00</geoidheight><course>75.2</course><type>1</type></trkpt>
      <trkpt lat="38.46390592" lon="-2.34311776"><ele>2360</ele><speed>17.83</speed><time>2016-06-02T13:16:50Z</time><pdop>3.0</pdop><geoidheight>51.00</geoidheight><course>77.9</course><type>1</type></trkpt>
      <trkpt lat="38.46393382" lon="-2.34293338"><ele>2361</ele><speed>16.82</speed><time>2016-06-02T13:16:51Z</time><pdop>3.0</pdop><geoidheight>51.00</geoidheight><course>79.0</course><type>1</type></trkpt>
      <trkpt lat="38.46396271" lon="-2.34275954"><ele>2361</ele><speed>16.06</speed><time>2016-06-02T13:16:52Z</time><pdop>3.0</pdop><geoidheight>51.00</geoidheight><course>79.4</course><type>1</type></trkpt>
      <trkpt lat="38.46399261" lon="-2.34259188"><ele>2360</ele><speed>15.41</speed><time>2016-06-02T13:16:53Z</time><pdop>3.0</pdop><geoidheight>51.00</geoidheight><course>78.3</course><type>1</type></trkpt>
      <trkpt lat="38.46403372" lon="-2.34242479"><ele>2360</ele><speed>15.03</speed><time>2016-06-02T13:16:54Z</time><pdop>3.0</pdop><geoidheight>51.00</geoidheight><course>78.1</course><type>1</type></trkpt>
      <trkpt lat="38.46405854" lon="-2.34227023"><ele>2359</ele><speed>14.43</speed><time>2016-06-02T13:16:55Z</time><pdop>3.0</pdop><geoidheight>51.00</geoidheight><course>78.6</course><type>1</type></trkpt>
      <trkpt lat="38.46408921" lon="-2.34212632"><ele>2360</ele><speed>13.06</speed><time>2016-06-02T13:16:56Z</time><pdop>3.0</pdop><geoidheight>51.00</geoidheight><course>76.3</course><type>1</type></trkpt>
      <trkpt lat="38.46411843" lon="-2.34201227"><ele>2358</ele><speed>11.73</speed><time>2016-06-02T13:16:57Z</time><pdop>4.0</pdop><geoidheight>51.00</geoidheight><course>74.9</course><type>1</type></trkpt>
      <trkpt lat="38.46416771" lon="-2.34191138"><ele>2358</ele><speed>11.22</speed><time>2016-06-02T13:16:58Z</time><pdop>4.0</pdop><geoidheight>51.00</geoidheight><course>63.8</course><type>1</type></trkpt>
      <trkpt lat="38.46422784" lon="-2.34179576"><ele>2358</ele><speed>11.72</speed><time>2016-06-02T13:16:59Z</time><pdop>3.0</pdop><geoidheight>51.00</geoidheight><course>59.4</course><type>1</type></trkpt>
      <trkpt lat="38.4642811" lon="-2.34167602"><ele>2358</ele><speed>12.02</speed><time>2016-06-02T13:17:00Z</time><pdop>4.0</pdop><geoidheight>51.00</geoidheight><course>60.0</course><type>1</type></trkpt>
      <trkpt lat="38.46433545" lon="-2.34154844"><ele>2358</ele><speed>12.27</speed><time>2016-06-02T13:17:01Z</time><pdop>4.0</pdop><geoidheight>51.00</geoidheight><course>62.2</course><type>1</type></trkpt>
      <trkpt lat="38.46438948" lon="-2.34141499"><ele>2358</ele><speed>12.65</speed><time>2016-06-02T13:17:02Z</time><pdop>4.0</pdop><geoidheight>51.00</geoidheight><course>63.4</course><type>1</type></trkpt>
      <trkpt lat="38.46444933" lon="-2.3412903"><ele>2358</ele><speed>12.41</speed><time>2016-06-02T13:17:03Z</time><pdop>4.0</pdop><geoidheight>51.00</geoidheight><course>59.0</course><type>1</type></trkpt>
      <trkpt lat="38.46453606" lon="-2.34120723"><ele>2356</ele><speed>12.09</speed><time>2016-06-02T13:17:04Z</time><pdop>4.0</pdop><geoidheight>51.00</geoidheight><course>45.0</course><type>1</type></trkpt>
      <trkpt lat="38.46461655" lon="-2.34113748"><ele>2356</ele><speed>11.78</speed><time>2016-06-02T13:17:05Z</time><pdop>3.0</pdop><geoidheight>51.00</geoidheight><course>30.8</course><type>1</type></trkpt>
      <trkpt lat="38.46471593" lon="-2.34109606"><ele>2356</ele><speed>11.42</speed><time>2016-06-02T13:17:06Z</time><pdop>3.0</pdop><geoidheight>51.00</geoidheight><course>21.1</course><type>1</type></trkpt>
      <trkpt lat="38.46481528" lon="-2.34106395"><ele>2356</ele><speed>10.92</speed><time>2016-06-02T13:17:07Z</time><pdop>3.0</pdop><geoidheight>51.00</geoidheight><course>17.0</course><type>1</type></trkpt>
      <trkpt lat="38.4648871" lon="-2.34103324"><ele>2357</ele><speed>10.01</speed><time>2016-06-02T13:17:08Z</time><pdop>3.0</pdop><geoidheight>51.00</geoidheight><course>14.4</course><type>1</type></trkpt>
      <trkpt lat="38.46496968" lon="-2.34101107"><ele>2356</ele><speed>9.77</speed><time>2016-06-02T13:17:09Z</time><pdop>4.0</pdop><geoidheight>51.00</geoidheight><course>11.8</course><type>1</type></trkpt>
      <trkpt lat="38.46504561" lon="-2.34105623"><ele>2355</ele><speed>9.52</speed><time>2016-06-02T13:17:10Z</time><pdop>3.0</pdop><geoidheight>51.00</geoidheight><course>348.2</course><type>1</type></trkpt>
      <trkpt lat="38.46511333" lon="-2.34111073"><ele>2353</ele><speed>9.29</speed><time>2016-06-02T13:17:11Z</time><pdop>3.0</pdop><geoidheight>51.00</geoidheight><course>330.4</course><type>1</type></trkpt>
      <trkpt lat="38.46515319" lon="-2.34118885"><ele>2352</ele><speed>8.61</speed><time>2016-06-02T13:17:12Z</time><pdop>3.0</pdop><geoidheight>51.00</geoidheight><course>309.1</course><type>1</type></trkpt>
      <trkpt lat="38.46517785" lon="-2.34128149"><ele>2352</ele><speed>7.92</speed><time>2016-06-02T13:17:13Z</time><pdop>3.0</pdop><geoidheight>51.00</geoidheight><course>290.6</course><type>1</type></trkpt>
      <trkpt lat="38.46516487" lon="-2.34136996"><ele>2351</ele><speed>7.57</speed><time>2016-06-02T13:17:14Z</time><pdop>3.0</pdop><geoidheight>51.00</geoidheight><course>268.2</course><type>1</type></trkpt>
      <trkpt lat="38.46515523" lon="-2.34144845"><ele>2351</ele><speed>7.21</speed><time>2016-06-02T13:17:15Z</time><pdop>3.0</pdop><geoidheight>51.00</geoidheight><course>262.9</course><type>1</type></trkpt>
      <trkpt lat="38.46508744" lon="-2.34156268"><ele>2351</ele><speed>5.98</speed><time>2016-06-02T13:17:17Z</time><pdop>4.0</pdop><geoidheight>51.00</geoidheight><course>241.6</course><type>1</type></trkpt>
      <trkpt lat="38.4649963" lon="-2.34155969"><ele>2350</ele><speed>5.89</speed><time>2016-06-02T13:17:18Z</time><pdop>5.0</pdop><geoidheight>51.00</geoidheight><course>211.7</course><type>1</type></trkpt>
      <trkpt lat="38.46490592" lon="-2.34152959"><ele>2350</ele><speed>6.44</speed><time>2016-06-02T13:17:19Z</time><pdop>5.0</pdop><geoidheight>51.00</geoidheight><course>188.9</course><type>1</type></trkpt>
      <trkpt lat="38.4646838" lon="-2.34137775"><ele>2349</ele><speed>9.96</speed><time>2016-06-02T13:17:21Z</time><pdop>10.0</pdop><geoidheight>51.00</geoidheight><course>155.3</course><type>1</type></trkpt>
      <trkpt lat="38.46456937" lon="-2.34106143"><ele>2349</ele><speed>12.92</speed><time>2016-06-02T13:17:23Z</time><pdop>9.0</pdop><geoidheight>51.00</geoidheight><course>117.4</course><type>1</type></trkpt>
      <trkpt lat="38.46445983" lon="-2.34075032"><ele>2350</ele><speed>13.94</speed><time>2016-06-02T13:17:25Z</time><pdop>9.0</pdop><geoidheight>51.00</geoidheight><course>113.9</course><type>1</type></trkpt>
      <trkpt lat="38.46438973" lon="-2.34044455"><ele>2351</ele><speed>13.57</speed><time>2016-06-02T13:17:27Z</time><pdop>9.0</pdop><geoidheight>51.00</geoidheight><course>105.5</course><type>1</type></trkpt>
      <trkpt lat="38.46434692" lon="-2.3401298"><ele>2355</ele><speed>13.25</speed><time>2016-06-02T13:17:29Z</time><pdop>9.0</pdop><geoidheight>51.00</geoidheight><course>97.2</course><type>1</type></trkpt>
      <trkpt lat="38.46431698" lon="-2.33984397"><ele>2358</ele><speed>11.73</speed><time>2016-06-02T13:17:31Z</time><pdop>9.0</pdop><geoidheight>51.00</geoidheight><course>100.3</course><type>1</type></trkpt>
      <trkpt lat="38.46426879" lon="-2.33955569"><ele>2359</ele><speed>12.06</speed><time>2016-06-02T13:17:33Z</time><pdop>9.0</pdop><geoidheight>51.00</geoidheight><course>98.3</course><type>1</type></trkpt>
      <trkpt lat="38.4642644" lon="-2.33925224"><ele>2356</ele><speed>13.24</speed><time>2016-06-02T13:17:35Z</time><pdop>9.0</pdop><geoidheight>51.00</geoidheight><course>88.7</course><type>1</type></trkpt>
      <trkpt lat="38.46429217" lon="-2.33895271"><ele>2352</ele><speed>13.61</speed><time>2016-06-02T13:17:37Z</time><pdop>9.0</pdop><geoidheight>51.00</geoidheight><course>83.8</course><type>1</type></trkpt>
      <trkpt lat="38.46431826" lon="-2.3386098"><ele>2353</ele><speed>14.98</speed><time>2016-06-02T13:17:39Z</time><pdop>9.0</pdop><geoidheight>51.00</geoidheight><course>85.9</course><type>1</type></trkpt>
      <trkpt lat="38.46432844" lon="-2.33831774"><ele>2358</ele><speed>12.51</speed><time>2016-06-02T13:17:41Z</time><pdop>9.0</pdop><geoidheight>51.00</geoidheight><course>89.0</course><type>1</type></trkpt>
      <trkpt lat="38.46431379" lon="-2.3380672"><ele>2361</ele><speed>10.91</speed><time>2016-06-02T13:17:43Z</time><pdop>9.0</pdop><geoidheight>51.00</geoidheight><course>93.4</course><type>1</type></trkpt>
      <trkpt lat="38.46429747" lon="-2.3378131"><ele>2363</ele><speed>10.93</speed><time>2016-06-02T13:17:45Z</time><pdop>9.0</pdop><geoidheight>51.00</geoidheight><course>95.0</course><type>1</type></trkpt>
      <trkpt lat="38.46421418" lon="-2.33759492"><ele>2361</ele><speed>11.00</speed><time>2016-06-02T13:17:47Z</time><pdop>9.0</pdop><geoidheight>51.00</geoidheight><course>124.4</course><type>1</type></trkpt>
      <trkpt lat="38.46401734" lon="-2.33747248"><ele>2359</ele><speed>12.44</speed><time>2016-06-02T13:17:49Z</time><pdop>9.0</pdop><geoidheight>51.00</geoidheight><course>163.7</course><type>1</type></trkpt>
      <trkpt lat="38.463819" lon="-2.33753384"><ele>2360</ele><speed>10.40</speed><time>2016-06-02T13:17:51Z</time><pdop>9.0</pdop><geoidheight>51.00</geoidheight><course>201.0</course><type>1</type></trkpt>
      <trkpt lat="38.46373458" lon="-2.33767469"><ele>2361</ele><speed>7.41</speed><time>2016-06-02T13:17:53Z</time><pdop>3.0</pdop><geoidheight>51.00</geoidheight><course>237.6</course><type>1</type></trkpt>
      <trkpt lat="38.46370833" lon="-2.33775263"><ele>2362</ele><speed>7.45</speed><time>2016-06-02T13:17:54Z</time><pdop>3.0</pdop><geoidheight>51.00</geoidheight><course>246.4</course><type>1</type></trkpt>
      <trkpt lat="38.4636908" lon="-2.33783333"><ele>2363</ele><speed>7.67</speed><time>2016-06-02T13:17:55Z</time><pdop>3.0</pdop><geoidheight>51.00</geoidheight><course>258.8</course><type>1</type></trkpt>
      <trkpt lat="38.46371424" lon="-2.33791344"><ele>2363</ele><speed>7.31</speed><time>2016-06-02T13:17:56Z</time><pdop>3.0</pdop><geoidheight>51.00</geoidheight><course>283.0</course><type>1</type></trkpt>
      <trkpt lat="38.46376278" lon="-2.33798252"><ele>2363</ele><speed>7.91</speed><time>2016-06-02T13:17:57Z</time><pdop>3.0</pdop><geoidheight>51.00</geoidheight><course>306.8</course><type>1</type></trkpt>
      <trkpt lat="38.46382905" lon="-2.33801609"><ele>2363</ele><speed>8.59</speed><time>2016-06-02T13:17:58Z</time><pdop>3.0</pdop><geoidheight>51.00</geoidheight><course>333.7</course><type>1</type></trkpt>
      <trkpt lat="38.46390855" lon="-2.33802973"><ele>2364</ele><speed>8.69</speed><time>2016-06-02T13:17:59Z</time><pdop>3.0</pdop><geoidheight>51.00</geoidheight><course>346.5</course><type>1</type></trkpt>
      <trkpt lat="38.46401239" lon="-2.33801302"><ele>2365</ele><speed>10.32</speed><time>2016-06-02T13:18:00Z</time><pdop>3.0</pdop><geoidheight>51.00</geoidheight><course>2.0</course><type>1</type></trkpt>
      <trkpt lat="38.46413487" lon="-2.33794656"><ele>2364</ele><speed>12.68</speed><time>2016-06-02T13:18:01Z</time><pdop>4.0</pdop><geoidheight>51.00</geoidheight><course>19.2</course><type>1</type></trkpt>
      <trkpt lat="38.46417123" lon="-2.33778544"><ele>2364</ele><speed>12.75</speed><time>2016-06-02T13:18:02Z</time><pdop>3.0</pdop><geoidheight>51.00</geoidheight><course>48.6</course><type>1</type></trkpt>
      <trkpt lat="38.46423511" lon="-2.33765226"><ele>2365</ele><speed>13.25</speed><time>2016-06-02T13:18:03Z</time><pdop>3.0</pdop><geoidheight>51.00</geoidheight><course>57.6</course><type>1</type></trkpt>
      <trkpt lat="38.46428736" lon="-2.33751071"><ele>2365</ele><speed>13.75</speed><time>2016-06-02T13:18:04Z</time><pdop>3.0</pdop><geoidheight>51.00</geoidheight><course>61.8</course><type>1</type></trkpt>
      <trkpt lat="38.46433375" lon="-2.33735461"><ele>2366</ele><speed>14.05</speed><time>2016-06-02T13:18:05Z</time><pdop>3.0</pdop><geoidheight>51.00</geoidheight><course>66.5</course><type>1</type></trkpt>
      <trkpt lat="38.46438938" lon="-2.33719861"><ele>2366</ele><speed>14.15</speed><time>2016-06-02T13:18:06Z</time><pdop>4.0</pdop><geoidheight>51.00</geoidheight><course>66.8</course><type>1</type></trkpt>
      <trkpt lat="38.46443215" lon="-2.33704735"><ele>2367</ele><speed>13.82</speed><time>2016-06-02T13:18:07Z</time><pdop>4.0</pdop><geoidheight>51.00</geoidheight><course>68.9</course><type>1</type></trkpt>
      <trkpt lat="38.46440609" lon="-2.33686"><ele>2367</ele><speed>14.01</speed><time>2016-06-02T13:18:08Z</time><pdop>3.0</pdop><geoidheight>51.00</geoidheight><course>85.3</course><type>1</type></trkpt>
      <trkpt lat="38.46438434" lon="-2.33669773"><ele>2369</ele><speed>13.23</speed><time>2016-06-02T13:18:09Z</time><pdop>3.0</pdop><geoidheight>51.00</geoidheight><course>96.4</course><type>1</type></trkpt>
      <trkpt lat="38.46434853" lon="-2.33657239"><ele>2370</ele><speed>11.68</speed><time>2016-06-02T13:18:10Z</time><pdop>3.0</pdop><geoidheight>51.00</geoidheight><course>110.4</course><type>1</type></trkpt>
      <trkpt lat="38.46428706" lon="-2.33646846"><ele>2369</ele><speed>11.08</speed><time>2016-06-02T13:18:11Z</time><pdop>3.0</pdop><geoidheight>51.00</geoidheight><course>126.0</course><type>1</type></trkpt>
      <trkpt lat="38.46420272" lon="-2.33639656"><ele>2369</ele><speed>10.94</speed><time>2016-06-02T13:18:12Z</time><pdop>3.0</pdop><geoidheight>51.00</geoidheight><course>142.5</course><type>1</type></trkpt>
      <trkpt lat="38.46411361" lon="-2.33634223"><ele>2372</ele><speed>10.76</speed><time>2016-06-02T13:18:13Z</time><pdop>3.0</pdop><geoidheight>51.00</geoidheight><course>154.8</course><type>1</type></trkpt>
      <trkpt lat="38.46402238" lon="-2.33631944"><ele>2375</ele><speed>10.20</speed><time>2016-06-02T13:18:14Z</time><pdop>3.0</pdop><geoidheight>51.00</geoidheight><course>166.5</course><type>1</type></trkpt>
      <trkpt lat="38.46393305" lon="-2.33631415"><ele>2378</ele><speed>9.38</speed><time>2016-06-02T13:18:15Z</time><pdop>3.0</pdop><geoidheight>51.00</geoidheight><course>178.3</course><type>1</type></trkpt>
      <trkpt lat="38.46385797" lon="-2.33634174"><ele>2380</ele><speed>8.41</speed><time>2016-06-02T13:18:16Z</time><pdop>3.0</pdop><geoidheight>51.00</geoidheight><course>196.0</course><type>1</type></trkpt>
      <trkpt lat="38.46380543" lon="-2.33639718"><ele>2380</ele><speed>7.62</speed><time>2016-06-02T13:18:17Z</time><pdop>3.0</pdop><geoidheight>51.00</geoidheight><course>216.5</course><type>1</type></trkpt>
      <trkpt lat="38.46377101" lon="-2.3364671"><ele>2381</ele><speed>7.21</speed><time>2016-06-02T13:18:18Z</time><pdop>3.0</pdop><geoidheight>51.00</geoidheight><course>234.9</course><type>1</type></trkpt>
      <trkpt lat="38.46375115" lon="-2.33654483"><ele>2382</ele><speed>7.04</speed><time>2016-06-02T13:18:19Z</time><pdop>3.0</pdop><geoidheight>51.00</geoidheight><course>249.2</course><type>1</type></trkpt>
      <trkpt lat="38.46374643" lon="-2.3366266"><ele>2382</ele><speed>7.06</speed><time>2016-06-02T13:18:20Z</time><pdop>3.0</pdop><geoidheight>51.00</geoidheight><course>262.2</course><type>1</type></trkpt>
      <trkpt lat="38.46376709" lon="-2.33669843"><ele>2380</ele><speed>6.54</speed><time>2016-06-02T13:18:21Z</time><pdop>3.0</pdop><geoidheight>51.00</geoidheight><course>287.2</course><type>1</type></trkpt>
      <trkpt lat="38.46381109" lon="-2.33676615"><ele>2380</ele><speed>7.69</speed><time>2016-06-02T13:18:22Z</time><pdop>3.0</pdop><geoidheight>51.00</geoidheight><course>325.8</course><type>1</type></trkpt>
      <trkpt lat="38.46386786" lon="-2.33681532"><ele>2379</ele><speed>7.63</speed><time>2016-06-02T13:18:23Z</time><pdop>3.0</pdop><geoidheight>51.00</geoidheight><course>325.8</course><type>1</type></trkpt>
      <trkpt lat="38.46397477" lon="-2.33679663"><ele>2380</ele><speed>10.91</speed><time>2016-06-02T13:18:24Z</time><pdop>3.0</pdop><geoidheight>51.00</geoidheight><course>4.7</course><type>1</type></trkpt>
      <trkpt lat="38.46407276" lon="-2.33678633"><ele>2380</ele><speed>10.91</speed><time>2016-06-02T13:18:25Z</time><pdop>4.0</pdop><geoidheight>51.00</geoidheight><course>4.7</course><type>1</type></trkpt>
      <trkpt lat="38.46416294" lon="-2.33667072"><ele>2381</ele><speed>12.56</speed><time>2016-06-02T13:18:26Z</time><pdop>3.0</pdop><geoidheight>51.00</geoidheight><course>34.7</course><type>1</type></trkpt>
      <trkpt lat="38.46425314" lon="-2.33657842"><ele>2382</ele><speed>12.91</speed><time>2016-06-02T13:18:27Z</time><pdop>4.0</pdop><geoidheight>51.00</geoidheight><course>38.1</course><type>1</type></trkpt>
      <trkpt lat="38.46434467" lon="-2.33648714"><ele>2382</ele><speed>12.91</speed><time>2016-06-02T13:18:28Z</time><pdop>7.0</pdop><geoidheight>51.00</geoidheight><course>38.1</course><type>1</type></trkpt>
      <trkpt lat="38.46432035" lon="-2.33630733"><ele>2382</ele><speed>13.25</speed><time>2016-06-02T13:18:29Z</time><pdop>4.0</pdop><geoidheight>51.00</geoidheight><course>70.2</course><type>1</type></trkpt>
      <trkpt lat="38.46436085" lon="-2.33616455"><ele>2382</ele><speed>13.25</speed><time>2016-06-02T13:18:30Z</time><pdop>5.0</pdop><geoidheight>51.00</geoidheight><course>70.2</course><type>1</type></trkpt>
      <trkpt lat="38.4644036" lon="-2.3360139"><ele>2382</ele><speed>13.58</speed><time>2016-06-02T13:18:31Z</time><pdop>6.0</pdop><geoidheight>51.00</geoidheight><course>70.5</course><type>1</type></trkpt>
      <trkpt lat="38.46442747" lon="-2.33584588"><ele>2382</ele><speed>13.91</speed><time>2016-06-02T13:18:32Z</time><pdop>5.0</pdop><geoidheight>51.00</geoidheight><course>76.4</course><type>1</type></trkpt>
      <trkpt lat="38.46443661" lon="-2.33568521"><ele>2382</ele><speed>13.47</speed><time>2016-06-02T13:18:33Z</time><pdop>5.0</pdop><geoidheight>51.00</geoidheight><course>82.7</course><type>1</type></trkpt>
      <trkpt lat="38.46443594" lon="-2.33554713"><ele>2386</ele><speed>12.80</speed><time>2016-06-02T13:18:34Z</time><pdop>4.0</pdop><geoidheight>51.00</geoidheight><course>90.9</course><type>1</type></trkpt>
      <trkpt lat="38.46441033" lon="-2.33539848"><ele>2387</ele><speed>12.56</speed><time>2016-06-02T13:18:35Z</time><pdop>4.0</pdop><geoidheight>51.00</geoidheight><course>99.1</course><type>1</type></trkpt>
      <trkpt lat="38.46439354" lon="-2.33525044"><ele>2387</ele><speed>12.95</speed><time>2016-06-02T13:18:36Z</time><pdop>4.0</pdop><geoidheight>51.00</geoidheight><course>105.0</course><type>1</type></trkpt>
      <trkpt lat="38.46436346" lon="-2.33510729"><ele>2388</ele><speed>12.93</speed><time>2016-06-02T13:18:37Z</time><pdop>4.0</pdop><geoidheight>51.00</geoidheight><course>105.0</course><type>1</type></trkpt>
      <trkpt lat="38.46433153" lon="-2.33494407"><ele>2389</ele><speed>13.84</speed><time>2016-06-02T13:18:38Z</time><pdop>3.0</pdop><geoidheight>51.00</geoidheight><course>103.3</course><type>1</type></trkpt>
      <trkpt lat="38.46429337" lon="-2.33479014"><ele>2392</ele><speed>14.07</speed><time>2016-06-02T13:18:39Z</time><pdop>3.0</pdop><geoidheight>51.00</geoidheight><course>104.1</course><type>1</type></trkpt>
      <trkpt lat="38.46426129" lon="-2.33464046"><ele>2394</ele><speed>13.28</speed><time>2016-06-02T13:18:40Z</time><pdop>3.0</pdop><geoidheight>51.00</geoidheight><course>108.3</course><type>1</type></trkpt>
      <trkpt lat="38.46421001" lon="-2.33451711"><ele>2400</ele><speed>12.12</speed><time>2016-06-02T13:18:41Z</time><pdop>3.0</pdop><geoidheight>51.00</geoidheight><course>119.3</course><type>1</type></trkpt>
      <trkpt lat="38.46414213" lon="-2.33440637"><ele>2406</ele><speed>11.52</speed><time>2016-06-02T13:18:42Z</time><pdop>3.0</pdop><geoidheight>51.00</geoidheight><course>131.9</course><type>1</type></trkpt>
      <trkpt lat="38.46406309" lon="-2.33432346"><ele>2408</ele><speed>11.12</speed><time>2016-06-02T13:18:43Z</time><pdop>3.0</pdop><geoidheight>51.00</geoidheight><course>143.0</course><type>1</type></trkpt>
      <trkpt lat="38.46398446" lon="-2.33424815"><ele>2410</ele><speed>10.99</speed><time>2016-06-02T13:18:44Z</time><pdop>4.0</pdop><geoidheight>51.00</geoidheight><course>143.0</course><type>1</type></trkpt>
      <trkpt lat="38.4639138" lon="-2.334246"><ele>2410</ele><speed>8.70</speed><time>2016-06-02T13:18:45Z</time><pdop>3.0</pdop><geoidheight>51.00</geoidheight><course>176.3</course><type>1</type></trkpt>
      <trkpt lat="38.4638456" lon="-2.3342729"><ele>2410</ele><speed>8.41</speed><time>2016-06-02T13:18:46Z</time><pdop>3.0</pdop><geoidheight>51.00</geoidheight><course>204.8</course><type>1</type></trkpt>
      <trkpt lat="38.46378004" lon="-2.33432897"><ele>2409</ele><speed>8.38</speed><time>2016-06-02T13:18:47Z</time><pdop>3.0</pdop><geoidheight>51.00</geoidheight><course>219.0</course><type>1</type></trkpt>
      <trkpt lat="38.46375817" lon="-2.33440912"><ele>2410</ele><speed>7.54</speed><time>2016-06-02T13:18:48Z</time><pdop>3.0</pdop><geoidheight>51.00</geoidheight><course>252.7</course><type>1</type></trkpt>
      <trkpt lat="38.46373804" lon="-2.33449142"><ele>2410</ele><speed>7.52</speed><time>2016-06-02T13:18:49Z</time><pdop>4.0</pdop><geoidheight>51.00</geoidheight><course>252.7</course><type>1</type></trkpt>
      <trkpt lat="38.46379544" lon="-2.33454726"><ele>2411</ele><speed>7.44</speed><time>2016-06-02T13:18:50Z</time><pdop>3.0</pdop><geoidheight>51.00</geoidheight><course>307.1</course><type>1</type></trkpt>
      <trkpt lat="38.46385971" lon="-2.33459058"><ele>2411</ele><speed>8.65</speed><time>2016-06-02T13:18:51Z</time><pdop>3.0</pdop><geoidheight>51.00</geoidheight><course>335.8</course><type>1</type></trkpt>
      <trkpt lat="38.46393474" lon="-2.3346108"><ele>2412</ele><speed>8.94</speed><time>2016-06-02T13:18:52Z</time><pdop>3.0</pdop><geoidheight>51.00</geoidheight><course>349.7</course><type>1</type></trkpt>
      <trkpt lat="38.46403806" lon="-2.33459436"><ele>2410</ele><speed>11.70</speed><time>2016-06-02T13:18:53Z</time><pdop>3.0</pdop><geoidheight>51.00</geoidheight><course>15.3</course><type>1</type></trkpt>
      <trkpt lat="38.46413231" lon="-2.33456028"><ele>2410</ele><speed>12.35</speed><time>2016-06-02T13:18:54Z</time><pdop>4.0</pdop><geoidheight>51.00</geoidheight><course>18.9</course><type>1</type></trkpt>
      <trkpt lat="38.46423763" lon="-2.33451452"><ele>2410</ele><speed>12.35</speed><time>2016-06-02T13:18:55Z</time><pdop>6.0</pdop><geoidheight>51.00</geoidheight><course>18.9</course><type>1</type></trkpt>
      <trkpt lat="38.46427094" lon="-2.33431209"><ele>2411</ele><speed>13.01</speed><time>2016-06-02T13:18:56Z</time><pdop>4.0</pdop><geoidheight>51.00</geoidheight><course>54.5</course><type>1</type></trkpt>
      <trkpt lat="38.46433893" lon="-2.33419085"><ele>2411</ele><speed>13.00</speed><time>2016-06-02T13:18:57Z</time><pdop>5.0</pdop><geoidheight>51.00</geoidheight><course>54.5</course><type>1</type></trkpt>
      <trkpt lat="38.46440454" lon="-2.33407775"><ele>2412</ele><speed>12.83</speed><time>2016-06-02T13:18:58Z</time><pdop>7.0</pdop><geoidheight>51.00</geoidheight><course>55.1</course><type>1</type></trkpt>
      <trkpt lat="38.46438191" lon="-2.33390432"><ele>2412</ele><speed>13.03</speed><time>2016-06-02T13:18:59Z</time><pdop>5.0</pdop><geoidheight>51.00</geoidheight><course>75.1</course><type>1</type></trkpt>
      <trkpt lat="38.46436962" lon="-2.33373133"><ele>2413</ele><speed>13.57</speed><time>2016-06-02T13:19:00Z</time><pdop>5.0</pdop><geoidheight>51.00</geoidheight><course>87.3</course><type>1</type></trkpt>
      <trkpt lat="38.46436022" lon="-2.33355973"><ele>2416</ele><speed>14.91</speed><time>2016-06-02T13:19:01Z</time><pdop>4.0</pdop><geoidheight>51.00</geoidheight><course>96.8</course><type>1</type></trkpt>
      <trkpt lat="38.46432819" lon="-2.33338727"><ele>2417</ele><speed>14.61</speed><time>2016-06-02T13:19:02Z</time><pdop>4.0</pdop><geoidheight>51.00</geoidheight><course>100.9</course><type>1</type></trkpt>
      <trkpt lat="38.4642885" lon="-2.33323338"><ele>2418</ele><speed>13.46</speed><time>2016-06-02T13:19:03Z</time><pdop>4.0</pdop><geoidheight>51.00</geoidheight><course>102.8</course><type>1</type></trkpt>
      <trkpt lat="38.4642405" lon="-2.33313326"><ele>2425</ele><speed>11.00</speed><time>2016-06-02T13:19:04Z</time><pdop>4.0</pdop><geoidheight>51.00</geoidheight><course>119.2</course><type>1</type></trkpt>
      <trkpt lat="38.46412671" lon="-2.33301502"><ele>2431</ele><speed>9.38</speed><time>2016-06-02T13:19:06Z</time><pdop>5.0</pdop><geoidheight>51.00</geoidheight><course>141.7</course><type>1</type></trkpt>
      <trkpt lat="38.46398403" lon="-2.33305829"><ele>2431</ele><speed>9.18</speed><time>2016-06-02T13:19:08Z</time><pdop>5.0</pdop><geoidheight>51.00</geoidheight><course>214.5</course><type>1</type></trkpt>
      <trkpt lat="38.46390234" lon="-2.33321105"><ele>2431</ele><speed>7.57</speed><time>2016-06-02T13:19:10Z</time><pdop>5.0</pdop><geoidheight>51.00</geoidheight><course>259.2</course><type>1</type></trkpt>
      <trkpt lat="38.4639554" lon="-2.33339523"><ele>2432</ele><speed>8.41</speed><time>2016-06-02T13:19:12Z</time><pdop>3.0</pdop><geoidheight>51.00</geoidheight><course>305.3</course><type>1</type></trkpt>
      <trkpt lat="38.46401358" lon="-2.33346269"><ele>2435</ele><speed>9.51</speed><time>2016-06-02T13:19:13Z</time><pdop>3.0</pdop><geoidheight>51.00</geoidheight><course>323.8</course><type>1</type></trkpt>
      <trkpt lat="38.46409038" lon="-2.33352571"><ele>2437</ele><speed>9.26</speed><time>2016-06-02T13:19:14Z</time><pdop>3.0</pdop><geoidheight>51.00</geoidheight><course>329.5</course><type>1</type></trkpt>
      <trkpt lat="38.46416395" lon="-2.33353263"><ele>2439</ele><speed>8.68</speed><time>2016-06-02T13:19:15Z</time><pdop>3.0</pdop><geoidheight>51.00</geoidheight><course>349.7</course><type>1</type></trkpt>
      <trkpt lat="38.46423657" lon="-2.33352401"><ele>2439</ele><speed>8.73</speed><time>2016-06-02T13:19:16Z</time><pdop>3.0</pdop><geoidheight>51.00</geoidheight><course>4.6</course><type>1</type></trkpt>
      <trkpt lat="38.46430927" lon="-2.33351393"><ele>2441</ele><speed>9.33</speed><time>2016-06-02T13:19:17Z</time><pdop>3.0</pdop><geoidheight>51.00</geoidheight><course>13.7</course><type>1</type></trkpt>
      <trkpt lat="38.46439591" lon="-2.333475"><ele>2443</ele><speed>10.26</speed><time>2016-06-02T13:19:18Z</time><pdop>4.0</pdop><geoidheight>51.00</geoidheight><course>18.1</course><type>1</type></trkpt>
      <trkpt lat="38.46448383" lon="-2.33344398"><ele>2445</ele><speed>10.67</speed><time>2016-06-02T13:19:19Z</time><pdop>4.0</pdop><geoidheight>51.00</geoidheight><course>23.1</course><type>1</type></trkpt>
      <trkpt lat="38.46457176" lon="-2.33339625"><ele>2446</ele><speed>10.62</speed><time>2016-06-02T13:19:20Z</time><pdop>4.0</pdop><geoidheight>51.00</geoidheight><course>23.1</course><type>1</type></trkpt>
      <trkpt lat="38.46464514" lon="-2.33331047"><ele>2448</ele><speed>10.42</speed><time>2016-06-02T13:19:21Z</time><pdop>4.0</pdop><geoidheight>51.00</geoidheight><course>39.0</course><type>1</type></trkpt>
      <trkpt lat="38.4647089" lon="-2.33322423"><ele>2449</ele><speed>10.29</speed><time>2016-06-02T13:19:22Z</time><pdop>4.0</pdop><geoidheight>51.00</geoidheight><course>46.7</course><type>1</type></trkpt>
      <trkpt lat="38.46477244" lon="-2.33313853"><ele>2450</ele><speed>10.28</speed><time>2016-06-02T13:19:23Z</time><pdop>6.0</pdop><geoidheight>51.00</geoidheight><course>46.7</course><type>1</type></trkpt>
      <trkpt lat="38.46477295" lon="-2.33297982"><ele>2447</ele><speed>12.23</speed><time>2016-06-02T13:19:24Z</time><pdop>4.0</pdop><geoidheight>51.00</geoidheight><course>76.6</course><type>1</type></trkpt>
      <trkpt lat="38.46477853" lon="-2.33282447"><ele>2448</ele><speed>13.59</speed><time>2016-06-02T13:19:25Z</time><pdop>4.0</pdop><geoidheight>51.00</geoidheight><course>92.1</course><type>1</type></trkpt>
      <trkpt lat="38.46475081" lon="-2.33265979"><ele>2449</ele><speed>13.96</speed><time>2016-06-02T13:19:26Z</time><pdop>4.0</pdop><geoidheight>51.00</geoidheight><course>105.9</course><type>1</type></trkpt>
      <trkpt lat="38.46471647" lon="-2.33250624"><ele>2450</ele><speed>13.93</speed><time>2016-06-02T13:19:27Z</time><pdop>4.0</pdop><geoidheight>51.00</geoidheight><course>105.9</course><type>1</type></trkpt>
      <trkpt lat="38.46463992" lon="-2.33239746"><ele>2453</ele><speed>12.94</speed><time>2016-06-02T13:19:28Z</time><pdop>4.0</pdop><geoidheight>51.00</geoidheight><course>124.9</course><type>1</type></trkpt>
      <trkpt lat="38.46456642" lon="-2.33229305"><ele>2457</ele><speed>12.08</speed><time>2016-06-02T13:19:29Z</time><pdop>4.0</pdop><geoidheight>51.00</geoidheight><course>135.7</course><type>1</type></trkpt>
      <trkpt lat="38.4644842" lon="-2.33221129"><ele>2458</ele><speed>11.05</speed><time>2016-06-02T13:19:30Z</time><pdop>4.0</pdop><geoidheight>51.00</geoidheight><course>148.8</course><type>1</type></trkpt>
      <trkpt lat="38.46439369" lon="-2.33216544"><ele>2459</ele><speed>10.75</speed><time>2016-06-02T13:19:31Z</time><pdop>4.0</pdop><geoidheight>51.00</geoidheight><course>160.9</course><type>1</type></trkpt>
      <trkpt lat="38.46430224" lon="-2.33212508"><ele>2459</ele><speed>10.75</speed><time>2016-06-02T13:19:32Z</time><pdop>4.0</pdop><geoidheight>51.00</geoidheight><course>160.9</course><type>1</type></trkpt>
      <trkpt lat="38.46422476" lon="-2.33216802"><ele>2458</ele><speed>9.09</speed><time>2016-06-02T13:19:33Z</time><pdop>3.0</pdop><geoidheight>51.00</geoidheight><course>187.7</course><type>1</type></trkpt>
      <trkpt lat="38.4641489" lon="-2.33219292"><ele>2459</ele><speed>8.39</speed><time>2016-06-02T13:19:34Z</time><pdop>4.0</pdop><geoidheight>51.00</geoidheight><course>196.9</course><type>1</type></trkpt>
      <trkpt lat="38.4640614" lon="-2.33233129"><ele>2462</ele><speed>7.44</speed><time>2016-06-02T13:19:36Z</time><pdop>4.0</pdop><geoidheight>51.00</geoidheight><course>241.8</course><type>1</type></trkpt>
      <trkpt lat="38.46406228" lon="-2.33246697"><ele>2467</ele><speed>7.67</speed><time>2016-06-02T13:19:38Z</time><pdop>4.0</pdop><geoidheight>51.00</geoidheight><course>290.4</course><type>1</type></trkpt>
      <trkpt lat="38.46418087" lon="-2.33262988"><ele>2467</ele><speed>10.68</speed><time>2016-06-02T13:19:40Z</time><pdop>4.0</pdop><geoidheight>51.00</geoidheight><course>319.6</course><type>1</type></trkpt>
      <trkpt lat="38.46427333" lon="-2.33269572"><ele>2469</ele><speed>12.07</speed><time>2016-06-02T13:19:41Z</time><pdop>3.0</pdop><geoidheight>51.00</geoidheight><course>339.0</course><type>1</type></trkpt>
      <trkpt lat="38.46438363" lon="-2.33272113"><ele>2470</ele><speed>13.10</speed><time>2016-06-02T13:19:42Z</time><pdop>3.0</pdop><geoidheight>51.00</geoidheight><course>352.6</course><type>1</type></trkpt>
      <trkpt lat="38.46449934" lon="-2.33274035"><ele>2472</ele><speed>13.00</speed><time>2016-06-02T13:19:43Z</time><pdop>4.0</pdop><geoidheight>51.00</geoidheight><course>352.6</course><type>1</type></trkpt>
      <trkpt lat="38.46459473" lon="-2.33270653"><ele>2478</ele><speed>12.26</speed><time>2016-06-02T13:19:44Z</time><pdop>3.0</pdop><geoidheight>51.00</geoidheight><course>9.1</course><type>1</type></trkpt>
      <trkpt lat="38.46470083" lon="-2.33268476"><ele>2480</ele><speed>12.08</speed><time>2016-06-02T13:19:45Z</time><pdop>5.0</pdop><geoidheight>51.00</geoidheight><course>9.1</course><type>1</type></trkpt>
      <trkpt lat="38.46477999" lon="-2.33260465"><ele>2480</ele><speed>11.12</speed><time>2016-06-02T13:19:46Z</time><pdop>4.0</pdop><geoidheight>51.00</geoidheight><course>27.7</course><type>1</type></trkpt>
      <trkpt lat="38.4648687" lon="-2.33254532"><ele>2480</ele><speed>11.12</speed><time>2016-06-02T13:19:47Z</time><pdop>5.0</pdop><geoidheight>51.00</geoidheight><course>27.7</course><type>1</type></trkpt>
      <trkpt lat="38.46493105" lon="-2.33241"><ele>2478</ele><speed>13.78</speed><time>2016-06-02T13:19:48Z</time><pdop>4.0</pdop><geoidheight>51.00</geoidheight><course>48.6</course><type>1</type></trkpt>
      <trkpt lat="38.46501208" lon="-2.33227019"><ele>2476</ele><speed>15.37</speed><time>2016-06-02T13:19:49Z</time><pdop>4.0</pdop><geoidheight>51.00</geoidheight><course>56.8</course><type>1</type></trkpt>
      <trkpt lat="38.46508798" lon="-2.33212315"><ele>2476</ele><speed>15.35</speed><time>2016-06-02T13:19:50Z</time><pdop>4.0</pdop><geoidheight>51.00</geoidheight><course>56.7</course><type>1</type></trkpt>
      <trkpt lat="38.46514577" lon="-2.33196043"><ele>2476</ele><speed>15.52</speed><time>2016-06-02T13:19:51Z</time><pdop>5.0</pdop><geoidheight>51.00</geoidheight><course>61.4</course><type>1</type></trkpt>
      <trkpt lat="38.46519652" lon="-2.33179686"><ele>2476</ele><speed>15.38</speed><time>2016-06-02T13:19:52Z</time><pdop>4.0</pdop><geoidheight>51.00</geoidheight><course>65.9</course><type>1</type></trkpt>
      <trkpt lat="38.46522274" lon="-2.3316255"><ele>2477</ele><speed>14.83</speed><time>2016-06-02T13:19:53Z</time><pdop>4.0</pdop><geoidheight>51.00</geoidheight><course>73.5</course><type>1</type></trkpt>
      <trkpt lat="38.46526819" lon="-2.33146347"><ele>2478</ele><speed>13.83</speed><time>2016-06-02T13:19:54Z</time><pdop>4.0</pdop><geoidheight>51.00</geoidheight><course>74.2</course><type>1</type></trkpt>
      <trkpt lat="38.46529843" lon="-2.33132708"><ele>2480</ele><speed>13.37</speed><time>2016-06-02T13:19:55Z</time><pdop>4.0</pdop><geoidheight>51.00</geoidheight><course>72.1</course><type>1</type></trkpt>
      <trkpt lat="38.46535333" lon="-2.33118545"><ele>2481</ele><speed>13.81</speed><time>2016-06-02T13:19:56Z</time><pdop>4.0</pdop><geoidheight>51.00</geoidheight><course>67.1</course><type>1</type></trkpt>
      <trkpt lat="38.46539742" lon="-2.33103872"><ele>2483</ele><speed>13.88</speed><time>2016-06-02T13:19:57Z</time><pdop>4.0</pdop><geoidheight>51.00</geoidheight><course>68.1</course><type>1</type></trkpt>
      <trkpt lat="38.46543115" lon="-2.33086563"><ele>2484</ele><speed>14.94</speed><time>2016-06-02T13:19:58Z</time><pdop>4.0</pdop><geoidheight>51.00</geoidheight><course>75.7</course><type>1</type></trkpt>
      <trkpt lat="38.46543559" lon="-2.33066366"><ele>2485</ele><speed>15.92</speed><time>2016-06-02T13:19:59Z</time><pdop>3.0</pdop><geoidheight>51.00</geoidheight><course>84.1</course><type>1</type></trkpt>
      <trkpt lat="38.46542204" lon="-2.33047159"><ele>2487</ele><speed>16.48</speed><time>2016-06-02T13:20:00Z</time><pdop>3.0</pdop><geoidheight>51.00</geoidheight><course>93.7</course><type>1</type></trkpt>
      <trkpt lat="38.46541514" lon="-2.33029747"><ele>2489</ele><speed>15.24</speed><time>2016-06-02T13:20:01Z</time><pdop>3.0</pdop><geoidheight>51.00</geoidheight><course>93.0</course><type>1</type></trkpt>
      <trkpt lat="38.46541365" lon="-2.3301328"><ele>2490</ele><speed>14.02</speed><time>2016-06-02T13:20:02Z</time><pdop>3.0</pdop><geoidheight>51.00</geoidheight><course>91.7</course><type>1</type></trkpt>
      <trkpt lat="38.4654052" lon="-2.32997864"><ele>2491</ele><speed>13.01</speed><time>2016-06-02T13:20:03Z</time><pdop>3.0</pdop><geoidheight>51.00</geoidheight><course>93.0</course><type>1</type></trkpt>
      <trkpt lat="38.46538968" lon="-2.32982913"><ele>2492</ele><speed>13.67</speed><time>2016-06-02T13:20:04Z</time><pdop>3.0</pdop><geoidheight>51.00</geoidheight><course>93.4</course><type>1</type></trkpt>
      <trkpt lat="38.46539517" lon="-2.32967243"><ele>2492</ele><speed>14.57</speed><time>2016-06-02T13:20:05Z</time><pdop>3.0</pdop><geoidheight>51.00</geoidheight><course>90.1</course><type>1</type></trkpt>
      <trkpt lat="38.46541134" lon="-2.32948204"><ele>2494</ele><speed>15.97</speed><time>2016-06-02T13:20:06Z</time><pdop>3.0</pdop><geoidheight>51.00</geoidheight><course>86.3</course><type>1</type></trkpt>
      <trkpt lat="38.46542981" lon="-2.32932167"><ele>2495</ele><speed>14.42</speed><time>2016-06-02T13:20:07Z</time><pdop>4.0</pdop><geoidheight>51.00</geoidheight><course>84.0</course><type>1</type></trkpt>
      <trkpt lat="38.46543586" lon="-2.32917066"><ele>2495</ele><speed>12.80</speed><time>2016-06-02T13:20:08Z</time><pdop>4.0</pdop><geoidheight>51.00</geoidheight><course>88.2</course><type>1</type></trkpt>
      <trkpt lat="38.46541602" lon="-2.32904261"><ele>2496</ele><speed>11.53</speed><time>2016-06-02T13:20:09Z</time><pdop>4.0</pdop><geoidheight>51.00</geoidheight><course>105.6</course><type>1</type></trkpt>
      <trkpt lat="38.46535424" lon="-2.32890855"><ele>2499</ele><speed>11.88</speed><time>2016-06-02T13:20:10Z</time><pdop>4.0</pdop><geoidheight>51.00</geoidheight><course>123.6</course><type>1</type></trkpt>
      <trkpt lat="38.4652912" lon="-2.32881113"><ele>2499</ele><speed>11.63</speed><time>2016-06-02T13:20:11Z</time><pdop>4.0</pdop><geoidheight>51.00</geoidheight><course>135.1</course><type>1</type></trkpt>
      <trkpt lat="38.46521289" lon="-2.32874675"><ele>2500</ele><speed>10.27</speed><time>2016-06-02T13:20:12Z</time><pdop>4.0</pdop><geoidheight>51.00</geoidheight><course>151.0</course><type>1</type></trkpt>
      <trkpt lat="38.46514567" lon="-2.3287385"><ele>2497</ele><speed>8.88</speed><time>2016-06-02T13:20:13Z</time><pdop>3.0</pdop><geoidheight>51.00</geoidheight><course>172.0</course><type>1</type></trkpt>
      <trkpt lat="38.46506639" lon="-2.32874581"><ele>2497</ele><speed>8.30</speed><time>2016-06-02T13:20:14Z</time><pdop>3.0</pdop><geoidheight>51.00</geoidheight><course>196.3</course><type>1</type></trkpt>
      <trkpt lat="38.46499293" lon="-2.3287886"><ele>2497</ele><speed>8.58</speed><time>2016-06-02T13:20:15Z</time><pdop>4.0</pdop><geoidheight>51.00</geoidheight><course>203.5</course><type>1</type></trkpt>
      <trkpt lat="38.46495614" lon="-2.32887103"><ele>2494</ele><speed>7.64</speed><time>2016-06-02T13:20:16Z</time><pdop>4.0</pdop><geoidheight>51.00</geoidheight><course>225.4</course><type>1</type></trkpt>
      <trkpt lat="38.46496341" lon="-2.32897253"><ele>2496</ele><speed>7.20</speed><time>2016-06-02T13:20:18Z</time><pdop>4.0</pdop><geoidheight>51.00</geoidheight><course>297.0</course><type>1</type></trkpt>
      <trkpt lat="38.46509054" lon="-2.32907436"><ele>2493</ele><speed>12.36</speed><time>2016-06-02T13:20:20Z</time><pdop>4.0</pdop><geoidheight>51.00</geoidheight><course>336.6</course><type>1</type></trkpt>
      <trkpt lat="38.46520862" lon="-2.32910541"><ele>2493</ele><speed>13.14</speed><time>2016-06-02T13:20:21Z</time><pdop>4.0</pdop><geoidheight>51.00</geoidheight><course>347.4</course><type>1</type></trkpt>
      <trkpt lat="38.46533927" lon="-2.32908868"><ele>2493</ele><speed>14.64</speed><time>2016-06-02T13:20:22Z</time><pdop>4.0</pdop><geoidheight>51.00</geoidheight><course>8.5</course><type>1</type></trkpt>
      <trkpt lat="38.46544605" lon="-2.32905558"><ele>2498</ele><speed>13.48</speed><time>2016-06-02T13:20:23Z</time><pdop>5.0</pdop><geoidheight>51.00</geoidheight><course>17.5</course><type>1</type></trkpt>
      <trkpt lat="38.46555589" lon="-2.32901157"><ele>2502</ele><speed>13.48</speed><time>2016-06-02T13:20:24Z</time><pdop>5.0</pdop><geoidheight>51.00</geoidheight><course>17.5</course><type>1</type></trkpt>
      <trkpt lat="38.4657052" lon="-2.32889775"><ele>2507</ele><speed>9.54</speed><time>2016-06-02T13:20:26Z</time><pdop>4.0</pdop><geoidheight>51.00</geoidheight><course>36.3</course><type>1</type></trkpt>
      <trkpt lat="38.46575827" lon="-2.32881918"><ele>2510</ele><speed>8.91</speed><time>2016-06-02T13:20:27Z</time><pdop>5.0</pdop><geoidheight>51.00</geoidheight><course>46.6</course><type>1</type></trkpt>
      <trkpt lat="38.46587656" lon="-2.32859514"><ele>2506</ele><speed>13.35</speed><time>2016-06-02T13:20:29Z</time><pdop>5.0</pdop><geoidheight>51.00</geoidheight><course>61.8</course><type>1</type></trkpt>
      <trkpt lat="38.46593201" lon="-2.32845289"><ele>2504</ele><speed>14.39</speed><time>2016-06-02T13:20:30Z</time><pdop>5.0</pdop><geoidheight>51.00</geoidheight><course>65.7</course><type>1</type></trkpt>
      <trkpt lat="38.46598582" lon="-2.32830117"><ele>2262</ele><speed>14.44</speed><time>2016-06-02T13:20:31Z</time><pdop>7.0</pdop><geoidheight>51.00</geoidheight><course>65.7</course><type>1</type></trkpt>
      <trkpt lat="38.46599935" lon="-2.3280986"><ele>2312</ele><speed>16.53</speed><time>2016-06-02T13:20:32Z</time><pdop>6.0</pdop><geoidheight>51.00</geoidheight><course>75.5</course><type>1</type></trkpt>
      <trkpt lat="38.46603232" lon="-2.3279105"><ele>2357</ele><speed>16.48</speed><time>2016-06-02T13:20:33Z</time><pdop>5.0</pdop><geoidheight>51.00</geoidheight><course>79.2</course><type>1</type></trkpt>
      <trkpt lat="38.46606301" lon="-2.32772421"><ele>2384</ele><speed>16.19</speed><time>2016-06-02T13:20:34Z</time><pdop>5.0</pdop><geoidheight>51.00</geoidheight><course>79.4</course><type>1</type></trkpt>
      <trkpt lat="38.46609209" lon="-2.32754006"><ele>2411</ele><speed>15.85</speed><time>2016-06-02T13:20:35Z</time><pdop>5.0</pdop><geoidheight>51.00</geoidheight><course>78.9</course><type>1</type></trkpt>
      <trkpt lat="38.46611245" lon="-2.32736592"><ele>2438</ele><speed>15.71</speed><time>2016-06-02T13:20:36Z</time><pdop>4.0</pdop><geoidheight>51.00</geoidheight><course>84.7</course><type>1</type></trkpt>
      <trkpt lat="38.46612556" lon="-2.3271871"><ele>2444</ele><speed>15.69</speed><time>2016-06-02T13:20:37Z</time><pdop>5.0</pdop><geoidheight>51.00</geoidheight><course>84.7</course><type>1</type></trkpt>
      <trkpt lat="38.46613687" lon="-2.32698051"><ele>2448</ele><speed>17.73</speed><time>2016-06-02T13:20:38Z</time><pdop>5.0</pdop><geoidheight>51.00</geoidheight><course>86.7</course><type>1</type></trkpt>
      <trkpt lat="38.46615501" lon="-2.32677468"><ele>2455</ele><speed>17.48</speed><time>2016-06-02T13:20:39Z</time><pdop>4.0</pdop><geoidheight>51.00</geoidheight><course>88.5</course><type>1</type></trkpt>
      <trkpt lat="38.46615334" lon="-2.32660014"><ele>2471</ele><speed>15.20</speed><time>2016-06-02T13:20:40Z</time><pdop>4.0</pdop><geoidheight>51.00</geoidheight><course>92.5</course><type>1</type></trkpt>
      <trkpt lat="38.46613984" lon="-2.32647195"><ele>2478</ele><speed>10.96</speed><time>2016-06-02T13:20:41Z</time><pdop>3.0</pdop><geoidheight>51.00</geoidheight><course>96.3</course><type>1</type></trkpt>
      <trkpt lat="38.46612906" lon="-2.32634802"><ele>2479</ele><speed>10.90</speed><time>2016-06-02T13:20:42Z</time><pdop>4.0</pdop><geoidheight>51.00</geoidheight><course>96.3</course><type>1</type></trkpt>
      <trkpt lat="38.46609991" lon="-2.32621279"><ele>2481</ele><speed>11.90</speed><time>2016-06-02T13:20:43Z</time><pdop>4.0</pdop><geoidheight>51.00</geoidheight><course>101.8</course><type>1</type></trkpt>
      <trkpt lat="38.46607128" lon="-2.32603674"><ele>2484</ele><speed>15.36</speed><time>2016-06-02T13:20:44Z</time><pdop>3.0</pdop><geoidheight>51.00</geoidheight><course>101.8</course><type>1</type></trkpt>
      <trkpt lat="38.46605132" lon="-2.32584778"><ele>2485</ele><speed>17.16</speed><time>2016-06-02T13:20:45Z</time><pdop>3.0</pdop><geoidheight>51.00</geoidheight><course>97.1</course><type>1</type></trkpt>
      <trkpt lat="38.46603119" lon="-2.32566253"><ele>2485</ele><speed>16.94</speed><time>2016-06-02T13:20:46Z</time><pdop>3.0</pdop><geoidheight>51.00</geoidheight><course>93.6</course><type>1</type></trkpt>
      <trkpt lat="38.46602157" lon="-2.32546897"><ele>2485</ele><speed>16.93</speed><time>2016-06-02T13:20:47Z</time><pdop>4.0</pdop><geoidheight>51.00</geoidheight><course>93.6</course><type>1</type></trkpt>
      <trkpt lat="38.46600227" lon="-2.32532778"><ele>2488</ele><speed>13.76</speed><time>2016-06-02T13:20:48Z</time><pdop>3.0</pdop><geoidheight>51.00</geoidheight><course>97.2</course><type>1</type></trkpt>
      <trkpt lat="38.46598672" lon="-2.32517142"><ele>2488</ele><speed>13.75</speed><time>2016-06-02T13:20:49Z</time><pdop>4.0</pdop><geoidheight>51.00</geoidheight><course>97.2</course><type>1</type></trkpt>
      <trkpt lat="38.46599139" lon="-2.32502729"><ele>2491</ele><speed>11.88</speed><time>2016-06-02T13:20:50Z</time><pdop>3.0</pdop><geoidheight>51.00</geoidheight><course>89.8</course><type>1</type></trkpt>
      <trkpt lat="38.46599043" lon="-2.3248822"><ele>2485</ele><speed>12.83</speed><time>2016-06-02T13:20:51Z</time><pdop>4.0</pdop><geoidheight>51.00</geoidheight><course>90.3</course><type>1</type></trkpt>
      <trkpt lat="38.46598825" lon="-2.32471429"><ele>2485</ele><speed>14.36</speed><time>2016-06-02T13:20:52Z</time><pdop>5.0</pdop><geoidheight>51.00</geoidheight><course>89.8</course><type>1</type></trkpt>
      <trkpt lat="38.46596537" lon="-2.32453701"><ele>2480</ele><speed>15.95</speed><time>2016-06-02T13:20:53Z</time><pdop>6.0</pdop><geoidheight>51.00</geoidheight><course>92.1</course><type>1</type></trkpt>
      <trkpt lat="38.46598381" lon="-2.32432679"><ele>2475</ele><speed>17.45</speed><time>2016-06-02T13:20:54Z</time><pdop>6.0</pdop><geoidheight>51.00</geoidheight><course>87.2</course><type>1</type></trkpt>
      <trkpt lat="38.46599125" lon="-2.32414935"><ele>2470</ele><speed>16.72</speed><time>2016-06-02T13:20:55Z</time><pdop>6.0</pdop><geoidheight>51.00</geoidheight><course>88.4</course><type>1</type></trkpt>
      <trkpt lat="38.46599924" lon="-2.32395398"><ele>2471</ele><speed>16.83</speed><time>2016-06-02T13:20:56Z</time><pdop>5.0</pdop><geoidheight>51.00</geoidheight><course>88.0</course><type>1</type></trkpt>
      <trkpt lat="38.46600994" lon="-2.32375858"><ele>2472</ele><speed>17.24</speed><time>2016-06-02T13:20:57Z</time><pdop>5.0</pdop><geoidheight>51.00</geoidheight><course>86.1</course><type>1</type></trkpt>
      <trkpt lat="38.46602386" lon="-2.32356827"><ele>2471</ele><speed>17.24</speed><time>2016-06-02T13:20:58Z</time><pdop>4.0</pdop><geoidheight>51.00</geoidheight><course>85.9</course><type>1</type></trkpt>
      <trkpt lat="38.46604217" lon="-2.32337022"><ele>2471</ele><speed>16.31</speed><time>2016-06-02T13:20:59Z</time><pdop>4.0</pdop><geoidheight>51.00</geoidheight><course>84.9</course><type>1</type></trkpt>
      <trkpt lat="38.46604173" lon="-2.32320523"><ele>2471</ele><speed>15.18</speed><time>2016-06-02T13:21:00Z</time><pdop>4.0</pdop><geoidheight>51.00</geoidheight><course>84.8</course><type>1</type></trkpt>
      <trkpt lat="38.46605837" lon="-2.32303558"><ele>2471</ele><speed>14.35</speed><time>2016-06-02T13:21:01Z</time><pdop>4.0</pdop><geoidheight>51.00</geoidheight><course>86.6</course><type>1</type></trkpt>
      <trkpt lat="38.46606505" lon="-2.32287884"><ele>2470</ele><speed>14.05</speed><time>2016-06-02T13:21:02Z</time><pdop>4.0</pdop><geoidheight>51.00</geoidheight><course>88.1</course><type>1</type></trkpt>
      <trkpt lat="38.46607265" lon="-2.32272377"><ele>2466</ele><speed>14.39</speed><time>2016-06-02T13:21:03Z</time><pdop>5.0</pdop><geoidheight>51.00</geoidheight><course>87.8</course><type>1</type></trkpt>
      <trkpt lat="38.46607757" lon="-2.32255937"><ele>2465</ele><speed>14.37</speed><time>2016-06-02T13:21:04Z</time><pdop>7.0</pdop><geoidheight>51.00</geoidheight><course>87.8</course><type>1</type></trkpt>
      <trkpt lat="38.46608303" lon="-2.32236605"><ele>2463</ele><speed>15.90</speed><time>2016-06-02T13:21:05Z</time><pdop>6.0</pdop><geoidheight>51.00</geoidheight><course>89.6</course><type>1</type></trkpt>
      <trkpt lat="38.46607424" lon="-2.32218394"><ele>2462</ele><speed>16.46</speed><time>2016-06-02T13:21:06Z</time><pdop>6.0</pdop><geoidheight>51.00</geoidheight><course>89.5</course><type>1</type></trkpt>
      <trkpt lat="38.46608439" lon="-2.32202208"><ele>2461</ele><speed>15.92</speed><time>2016-06-02T13:21:07Z</time><pdop>5.0</pdop><geoidheight>51.00</geoidheight><course>89.9</course><type>1</type></trkpt>
      <trkpt lat="38.46608982" lon="-2.32184493"><ele>2460</ele><speed>15.81</speed><time>2016-06-02T13:21:08Z</time><pdop>4.0</pdop><geoidheight>51.00</geoidheight><course>89.7</course><type>1</type></trkpt>
      <trkpt lat="38.46608668" lon="-2.32166545"><ele>2461</ele><speed>15.59</speed><time>2016-06-02T13:21:09Z</time><pdop>4.0</pdop><geoidheight>51.00</geoidheight><course>90.1</course><type>1</type></trkpt>
      <trkpt lat="38.46609129" lon="-2.32149017"><ele>2461</ele><speed>15.62</speed><time>2016-06-02T13:21:10Z</time><pdop>4.0</pdop><geoidheight>51.00</geoidheight><course>89.2</course><type>1</type></trkpt>
      <trkpt lat="38.46610039" lon="-2.32130375"><ele>2460</ele><speed>15.81</speed><time>2016-06-02T13:21:11Z</time><pdop>4.0</pdop><geoidheight>51.00</geoidheight><course>90.1</course><type>1</type></trkpt>
      <trkpt lat="38.46609819" lon="-2.32111199"><ele>2460</ele><speed>16.52</speed><time>2016-06-02T13:21:12Z</time><pdop>4.0</pdop><geoidheight>51.00</geoidheight><course>91.0</course><type>1</type></trkpt>
      <trkpt lat="38.46608609" lon="-2.32091937"><ele>2458</ele><speed>16.89</speed><time>2016-06-02T13:21:13Z</time><pdop>5.0</pdop><geoidheight>51.00</geoidheight><course>92.5</course><type>1</type></trkpt>
      <trkpt lat="38.46609027" lon="-2.32071842"><ele>2457</ele><speed>16.99</speed><time>2016-06-02T13:21:14Z</time><pdop>6.0</pdop><geoidheight>51.00</geoidheight><course>91.7</course><type>1</type></trkpt>
      <trkpt lat="38.46609778" lon="-2.32051822"><ele>2456</ele><speed>16.94</speed><time>2016-06-02T13:21:15Z</time><pdop>4.0</pdop><geoidheight>51.00</geoidheight><course>93.6</course><type>1</type></trkpt>
      <trkpt lat="38.46609233" lon="-2.32033393"><ele>2455</ele><speed>16.70</speed><time>2016-06-02T13:21:16Z</time><pdop>4.0</pdop><geoidheight>51.00</geoidheight><course>92.3</course><type>1</type></trkpt>
      <trkpt lat="38.46609177" lon="-2.32014675"><ele>2455</ele><speed>16.33</speed><time>2016-06-02T13:21:17Z</time><pdop>4.0</pdop><geoidheight>51.00</geoidheight><course>90.5</course><type>1</type></trkpt>
      <trkpt lat="38.46609744" lon="-2.3199658"><ele>2455</ele><speed>16.09</speed><time>2016-06-02T13:21:18Z</time><pdop>4.0</pdop><geoidheight>51.00</geoidheight><course>89.8</course><type>1</type></trkpt>
      <trkpt lat="38.46610204" lon="-2.31978278"><ele>2455</ele><speed>16.02</speed><time>2016-06-02T13:21:19Z</time><pdop>3.0</pdop><geoidheight>51.00</geoidheight><course>88.1</course><type>1</type></trkpt>
      <trkpt lat="38.46613154" lon="-2.31959722"><ele>2454</ele><speed>16.42</speed><time>2016-06-02T13:21:20Z</time><pdop>3.0</pdop><geoidheight>51.00</geoidheight><course>84.7</course><type>1</type></trkpt>
      <trkpt lat="38.46615758" lon="-2.31941056"><ele>2454</ele><speed>16.94</speed><time>2016-06-02T13:21:21Z</time><pdop>3.0</pdop><geoidheight>51.00</geoidheight><course>81.5</course><type>1</type></trkpt>
      <trkpt lat="38.46619544" lon="-2.31922309"><ele>2453</ele><speed>17.29</speed><time>2016-06-02T13:21:22Z</time><pdop>3.0</pdop><geoidheight>51.00</geoidheight><course>80.1</course><type>1</type></trkpt>
      <trkpt lat="38.46622532" lon="-2.31903607"><ele>2453</ele><speed>17.09</speed><time>2016-06-02T13:21:23Z</time><pdop>3.0</pdop><geoidheight>51.00</geoidheight><course>81.6</course><type>1</type></trkpt>
      <trkpt lat="38.46623936" lon="-2.31885928"><ele>2455</ele><speed>15.62</speed><time>2016-06-02T13:21:24Z</time><pdop>3.0</pdop><geoidheight>51.00</geoidheight><course>85.3</course><type>1</type></trkpt>
      <trkpt lat="38.46623855" lon="-2.31871242"><ele>2455</ele><speed>12.99</speed><time>2016-06-02T13:21:25Z</time><pdop>3.0</pdop><geoidheight>51.00</geoidheight><course>91.6</course><type>1</type></trkpt>
      <trkpt lat="38.46622576" lon="-2.31858603"><ele>2461</ele><speed>10.85</speed><time>2016-06-02T13:21:26Z</time><pdop>3.0</pdop><geoidheight>51.00</geoidheight><course>94.7</course><type>1</type></trkpt>
      <trkpt lat="38.46621743" lon="-2.31849048"><ele>2463</ele><speed>8.83</speed><time>2016-06-02T13:21:27Z</time><pdop>3.0</pdop><geoidheight>51.00</geoidheight><course>93.9</course><type>1</type></trkpt>
      <trkpt lat="38.46622481" lon="-2.31840955"><ele>2463</ele><speed>7.71</speed><time>2016-06-02T13:21:28Z</time><pdop>3.0</pdop><geoidheight>51.00</geoidheight><course>92.0</course><type>1</type></trkpt>
      <trkpt lat="38.46622416" lon="-2.31832147"><ele>2462</ele><speed>8.04</speed><time>2016-06-02T13:21:29Z</time><pdop>3.0</pdop><geoidheight>51.00</geoidheight><course>92.6</course><type>1</type></trkpt>
      <trkpt lat="38.46621483" lon="-2.31820506"><ele>2461</ele><speed>9.86</speed><time>2016-06-02T13:21:30Z</time><pdop>3.0</pdop><geoidheight>51.00</geoidheight><course>97.0</course><type>1</type></trkpt>
      <trkpt lat="38.46619651" lon="-2.3180859"><ele>2460</ele><speed>10.88</speed><time>2016-06-02T13:21:31Z</time><pdop>3.0</pdop><geoidheight>51.00</geoidheight><course>98.3</course><type>1</type></trkpt>
      <trkpt lat="38.46618185" lon="-2.31795013"><ele>2459</ele><speed>11.94</speed><time>2016-06-02T13:21:32Z</time><pdop>3.0</pdop><geoidheight>51.00</geoidheight><course>98.8</course><type>1</type></trkpt>
      <trkpt lat="38.46617518" lon="-2.31780806"><ele>2458</ele><speed>12.68</speed><time>2016-06-02T13:21:33Z</time><pdop>3.0</pdop><geoidheight>51.00</geoidheight><course>95.9</course><type>1</type></trkpt>
      <trkpt lat="38.46616497" lon="-2.31765648"><ele>2459</ele><speed>13.57</speed><time>2016-06-02T13:21:34Z</time><pdop>3.0</pdop><geoidheight>51.00</geoidheight><course>94.1</course><type>1</type></trkpt>
      <trkpt lat="38.4661548" lon="-2.31749239"><ele>2460</ele><speed>13.97</speed><time>2016-06-02T13:21:35Z</time><pdop>3.0</pdop><geoidheight>51.00</geoidheight><course>93.8</course><type>1</type></trkpt>
      <trkpt lat="38.46614197" lon="-2.31733057"><ele>2460</ele><speed>13.88</speed><time>2016-06-02T13:21:36Z</time><pdop>3.0</pdop><geoidheight>51.00</geoidheight><course>93.8</course><type>1</type></trkpt>
      <trkpt lat="38.46613508" lon="-2.3171761"><ele>2463</ele><speed>13.53</speed><time>2016-06-02T13:21:37Z</time><pdop>3.0</pdop><geoidheight>51.00</geoidheight><course>91.9</course><type>1</type></trkpt>
      <trkpt lat="38.46614546" lon="-2.31702514"><ele>2464</ele><speed>13.27</speed><time>2016-06-02T13:21:38Z</time><pdop>3.0</pdop><geoidheight>51.00</geoidheight><course>85.0</course><type>1</type></trkpt>
      <trkpt lat="38.46618323" lon="-2.31688383"><ele>2464</ele><speed>12.85</speed><time>2016-06-02T13:21:39Z</time><pdop>3.0</pdop><geoidheight>51.00</geoidheight><course>75.6</course><type>1</type></trkpt>
      <trkpt lat="38.46622268" lon="-2.31674555"><ele>2464</ele><speed>12.49</speed><time>2016-06-02T13:21:40Z</time><pdop>3.0</pdop><geoidheight>51.00</geoidheight><course>70.2</course><type>1</type></trkpt>
      <trkpt lat="38.46627316" lon="-2.31660909"><ele>2464</ele><speed>12.62</speed><time>2016-06-02T13:21:41Z</time><pdop>3.0</pdop><geoidheight>51.00</geoidheight><course>66.3</course><type>1</type></trkpt>
      <trkpt lat="38.46632158" lon="-2.31646415"><ele>2463</ele><speed>12.93</speed><time>2016-06-02T13:21:42Z</time><pdop>9.0</pdop><geoidheight>51.00</geoidheight><course>68.2</course><type>1</type></trkpt>
      <trkpt lat="38.46636204" lon="-2.31613455"><ele>2460</ele><speed>14.91</speed><time>2016-06-02T13:21:44Z</time><pdop>9.0</pdop><geoidheight>51.00</geoidheight><course>80.3</course><type>1</type></trkpt>
      <trkpt lat="38.46638674" lon="-2.31581302"><ele>2460</ele><speed>13.72</speed><time>2016-06-02T13:21:46Z</time><pdop>9.0</pdop><geoidheight>51.00</geoidheight><course>83.5</course><type>1</type></trkpt>
      <trkpt lat="38.46641859" lon="-2.31556369"><ele>2458</ele><speed>11.06</speed><time>2016-06-02T13:21:48Z</time><pdop>9.0</pdop><geoidheight>51.00</geoidheight><course>79.8</course><type>1</type></trkpt>
      <trkpt lat="38.46646398" lon="-2.31530295"><ele>2452</ele><speed>12.50</speed><time>2016-06-02T13:21:50Z</time><pdop>9.0</pdop><geoidheight>51.00</geoidheight><course>79.3</course><type>1</type></trkpt>
      <trkpt lat="38.46650924" lon="-2.31494997"><ele>2446</ele><speed>15.85</speed><time>2016-06-02T13:21:52Z</time><pdop>9.0</pdop><geoidheight>51.00</geoidheight><course>81.2</course><type>1</type></trkpt>
      <trkpt lat="38.46658052" lon="-2.31458599"><ele>2442</ele><speed>15.88</speed><time>2016-06-02T13:21:54Z</time><pdop>9.0</pdop><geoidheight>51.00</geoidheight><course>77.8</course><type>1</type></trkpt>
      <trkpt lat="38.46661242" lon="-2.31442267"><ele>2441</ele><speed>14.48</speed><time>2016-06-02T13:21:55Z</time><pdop>3.0</pdop><geoidheight>51.00</geoidheight><course>77.6</course><type>1</type></trkpt>
      <trkpt lat="38.46664431" lon="-2.31428016"><ele>2440</ele><speed>13.40</speed><time>2016-06-02T13:21:56Z</time><pdop>3.0</pdop><geoidheight>51.00</geoidheight><course>76.5</course><type>1</type></trkpt>
      <trkpt lat="38.46667784" lon="-2.31413725"><ele>2439</ele><speed>13.02</speed><time>2016-06-02T13:21:57Z</time><pdop>3.0</pdop><geoidheight>51.00</geoidheight><course>74.2</course><type>1</type></trkpt>
      <trkpt lat="38.46670828" lon="-2.31398928"><ele>2436</ele><speed>13.62</speed><time>2016-06-02T13:21:58Z</time><pdop>3.0</pdop><geoidheight>51.00</geoidheight><course>73.0</course><type>1</type></trkpt>
      <trkpt lat="38.46674724" lon="-2.3138397"><ele>2435</ele><speed>13.90</speed><time>2016-06-02T13:21:59Z</time><pdop>3.0</pdop><geoidheight>51.00</geoidheight><course>72.0</course><type>1</type></trkpt>
      <trkpt lat="38.46678862" lon="-2.31368509"><ele>2434</ele><speed>14.08</speed><time>2016-06-02T13:22:00Z</time><pdop>3.0</pdop><geoidheight>51.00</geoidheight><course>70.8</course><type>1</type></trkpt>
      <trkpt lat="38.46683318" lon="-2.31353658"><ele>2431</ele><speed>13.98</speed><time>2016-06-02T13:22:01Z</time><pdop>3.0</pdop><geoidheight>51.00</geoidheight><course>70.1</course><type>1</type></trkpt>
      <trkpt lat="38.46687538" lon="-2.31339471"><ele>2430</ele><speed>13.72</speed><time>2016-06-02T13:22:02Z</time><pdop>3.0</pdop><geoidheight>51.00</geoidheight><course>69.6</course><type>1</type></trkpt>
      <trkpt lat="38.46692158" lon="-2.31325054"><ele>2429</ele><speed>13.49</speed><time>2016-06-02T13:22:03Z</time><pdop>3.0</pdop><geoidheight>51.00</geoidheight><course>67.5</course><type>1</type></trkpt>
      <trkpt lat="38.46698109" lon="-2.31310391"><ele>2429</ele><speed>13.96</speed><time>2016-06-02T13:22:04Z</time><pdop>3.0</pdop><geoidheight>51.00</geoidheight><course>63.2</course><type>1</type></trkpt>
      <trkpt lat="38.4670448" lon="-2.31295959"><ele>2428</ele><speed>14.21</speed><time>2016-06-02T13:22:05Z</time><pdop>3.0</pdop><geoidheight>51.00</geoidheight><course>63.0</course><type>1</type></trkpt>
      <trkpt lat="38.46709798" lon="-2.312811"><ele>2429</ele><speed>14.22</speed><time>2016-06-02T13:22:06Z</time><pdop>3.0</pdop><geoidheight>51.00</geoidheight><course>64.6</course><type>1</type></trkpt>
      <trkpt lat="38.4671407" lon="-2.31265874"><ele>2430</ele><speed>13.98</speed><time>2016-06-02T13:22:07Z</time><pdop>4.0</pdop><geoidheight>51.00</geoidheight><course>65.0</course><type>1</type></trkpt>
      <trkpt lat="38.46720347" lon="-2.31251293"><ele>2430</ele><speed>13.99</speed><time>2016-06-02T13:22:08Z</time><pdop>5.0</pdop><geoidheight>51.00</geoidheight><course>62.9</course><type>1</type></trkpt>
      <trkpt lat="38.46731083" lon="-2.31240383"><ele>2433</ele><speed>13.68</speed><time>2016-06-02T13:22:09Z</time><pdop>4.0</pdop><geoidheight>51.00</geoidheight><course>50.6</course><type>1</type></trkpt>
      <trkpt lat="38.46739864" lon="-2.3122972"><ele>2434</ele><speed>13.57</speed><time>2016-06-02T13:22:10Z</time><pdop>3.0</pdop><geoidheight>51.00</geoidheight><course>46.1</course><type>1</type></trkpt>
      <trkpt lat="38.46748287" lon="-2.31223098"><ele>2440</ele><speed>12.26</speed><time>2016-06-02T13:22:11Z</time><pdop>3.0</pdop><geoidheight>51.00</geoidheight><course>37.2</course><type>1</type></trkpt>
      <trkpt lat="38.46755858" lon="-2.31217205"><ele>2443</ele><speed>10.28</speed><time>2016-06-02T13:22:12Z</time><pdop>3.0</pdop><geoidheight>51.00</geoidheight><course>29.1</course><type>1</type></trkpt>
      <trkpt lat="38.46763395" lon="-2.31213633"><ele>2443</ele><speed>8.95</speed><time>2016-06-02T13:22:13Z</time><pdop>3.0</pdop><geoidheight>51.00</geoidheight><course>26.3</course><type>1</type></trkpt>
      <trkpt lat="38.46770656" lon="-2.31208496"><ele>2443</ele><speed>9.00</speed><time>2016-06-02T13:22:14Z</time><pdop>3.0</pdop><geoidheight>51.00</geoidheight><course>26.5</course><type>1</type></trkpt>
      <trkpt lat="38.46779681" lon="-2.3120366"><ele>2440</ele><speed>10.85</speed><time>2016-06-02T13:22:15Z</time><pdop>3.0</pdop><geoidheight>51.00</geoidheight><course>24.4</course><type>1</type></trkpt>
      <trkpt lat="38.46790061" lon="-2.31198094"><ele>2440</ele><speed>12.39</speed><time>2016-06-02T13:22:16Z</time><pdop>3.0</pdop><geoidheight>51.00</geoidheight><course>21.2</course><type>1</type></trkpt>
      <trkpt lat="38.46800766" lon="-2.31192996"><ele>2440</ele><speed>12.48</speed><time>2016-06-02T13:22:17Z</time><pdop>3.0</pdop><geoidheight>51.00</geoidheight><course>19.1</course><type>1</type></trkpt>
      <trkpt lat="38.46812325" lon="-2.3119576"><ele>2440</ele><speed>12.49</speed><time>2016-06-02T13:22:18Z</time><pdop>3.0</pdop><geoidheight>51.00</geoidheight><course>358.6</course><type>1</type></trkpt>
      <trkpt lat="38.46823783" lon="-2.3119786"><ele>2441</ele><speed>12.66</speed><time>2016-06-02T13:22:19Z</time><pdop>3.0</pdop><geoidheight>51.00</geoidheight><course>354.4</course><type>1</type></trkpt>
      <trkpt lat="38.46834218" lon="-2.31205759"><ele>2440</ele><speed>12.29</speed><time>2016-06-02T13:22:20Z</time><pdop>3.0</pdop><geoidheight>51.00</geoidheight><course>338.5</course><type>1</type></trkpt>
      <trkpt lat="38.46842234" lon="-2.31212479"><ele>2440</ele><speed>10.76</speed><time>2016-06-02T13:22:21Z</time><pdop>3.0</pdop><geoidheight>51.00</geoidheight><course>329.7</course><type>1</type></trkpt>
      <trkpt lat="38.46848109" lon="-2.31221437"><ele>2443</ele><speed>9.59</speed><time>2016-06-02T13:22:22Z</time><pdop>3.0</pdop><geoidheight>51.00</geoidheight><course>316.3</course><type>1</type></trkpt>
      <trkpt lat="38.46852024" lon="-2.31228488"><ele>2444</ele><speed>7.83</speed><time>2016-06-02T13:22:23Z</time><pdop>3.0</pdop><geoidheight>51.00</geoidheight><course>305.2</course><type>1</type></trkpt>
      <trkpt lat="38.46852996" lon="-2.31242466"><ele>2445</ele><speed>6.04</speed><time>2016-06-02T13:22:25Z</time><pdop>4.0</pdop><geoidheight>51.00</geoidheight><course>278.5</course><type>1</type></trkpt>
      <trkpt lat="38.46844041" lon="-2.31247496"><ele>2443</ele><speed>4.08</speed><time>2016-06-02T13:22:27Z</time><pdop>4.0</pdop><geoidheight>51.00</geoidheight><course>201.9</course><type>1</type></trkpt>
      <trkpt lat="38.46831803" lon="-2.31245181"><ele>2441</ele><speed>6.18</speed><time>2016-06-02T13:22:29Z</time><pdop>5.0</pdop><geoidheight>51.00</geoidheight><course>176.3</course><type>1</type></trkpt>
      <trkpt lat="38.46825633" lon="-2.31222273"><ele>2441</ele><speed>7.92</speed><time>2016-06-02T13:22:31Z</time><pdop>8.0</pdop><geoidheight>51.00</geoidheight><course>125.4</course><type>1</type></trkpt>
      <trkpt lat="38.46824113" lon="-2.31195763"><ele>2441</ele><speed>13.14</speed><time>2016-06-02T13:22:32Z</time><pdop>7.0</pdop><geoidheight>51.00</geoidheight><course>105.1</course><type>1</type></trkpt>
      <trkpt lat="38.4683051" lon="-2.31171695"><ele>2441</ele><speed>14.85</speed><time>2016-06-02T13:22:33Z</time><pdop>5.0</pdop><geoidheight>51.00</geoidheight><course>83.7</course><type>1</type></trkpt>
      <trkpt lat="38.46833482" lon="-2.31152569"><ele>2443</ele><speed>14.50</speed><time>2016-06-02T13:22:34Z</time><pdop>4.0</pdop><geoidheight>51.00</geoidheight><course>78.0</course><type>1</type></trkpt>
      <trkpt lat="38.46837397" lon="-2.31138933"><ele>2443</ele><speed>13.54</speed><time>2016-06-02T13:22:35Z</time><pdop>4.0</pdop><geoidheight>51.00</geoidheight><course>74.8</course><type>1</type></trkpt>
      <trkpt lat="38.46840444" lon="-2.31123873"><ele>2444</ele><speed>12.69</speed><time>2016-06-02T13:22:36Z</time><pdop>5.0</pdop><geoidheight>51.00</geoidheight><course>76.0</course><type>1</type></trkpt>
      <trkpt lat="38.46843241" lon="-2.31111162"><ele>2446</ele><speed>11.15</speed><time>2016-06-02T13:22:37Z</time><pdop>4.0</pdop><geoidheight>51.00</geoidheight><course>74.8</course><type>1</type></trkpt>
      <trkpt lat="38.46845969" lon="-2.31098544"><ele>2446</ele><speed>11.50</speed><time>2016-06-02T13:22:38Z</time><pdop>4.0</pdop><geoidheight>51.00</geoidheight><course>74.9</course><type>1</type></trkpt>
      <trkpt lat="38.4684725" lon="-2.3108405"><ele>2446</ele><speed>12.23</speed><time>2016-06-02T13:22:39Z</time><pdop>4.0</pdop><geoidheight>51.00</geoidheight><course>75.8</course><type>1</type></trkpt>
      <trkpt lat="38.46850447" lon="-2.31068019"><ele>2448</ele><speed>13.42</speed><time>2016-06-02T13:22:40Z</time><pdop>4.0</pdop><geoidheight>51.00</geoidheight><course>75.4</course><type>1</type></trkpt>
      <trkpt lat="38.46852281" lon="-2.31052519"><ele>2452</ele><speed>13.87</speed><time>2016-06-02T13:22:41Z</time><pdop>3.0</pdop><geoidheight>51.00</geoidheight><course>81.3</course><type>1</type></trkpt>
      <trkpt lat="38.46849945" lon="-2.31039565"><ele>2456</ele><speed>12.14</speed><time>2016-06-02T13:22:42Z</time><pdop>3.0</pdop><geoidheight>51.00</geoidheight><course>97.7</course><type>1</type></trkpt>
      <trkpt lat="38.46846437" lon="-2.3102748"><ele>2459</ele><speed>11.08</speed><time>2016-06-02T13:22:43Z</time><pdop>3.0</pdop><geoidheight>51.00</geoidheight><course>107.9</course><type>1</type></trkpt>
      <trkpt lat="38.46841614" lon="-2.31016211"><ele>2461</ele><speed>10.74</speed><time>2016-06-02T13:22:44Z</time><pdop>4.0</pdop><geoidheight>51.00</geoidheight><course>115.6</course><type>1</type></trkpt>
      <trkpt lat="38.46831471" lon="-2.31019211"><ele>2462</ele><speed>8.91</speed><time>2016-06-02T13:22:45Z</time><pdop>3.0</pdop><geoidheight>51.00</geoidheight><course>162.0</course><type>1</type></trkpt>
      <trkpt lat="38.46823331" lon="-2.31019063"><ele>2463</ele><speed>8.45</speed><time>2016-06-02T13:22:46Z</time><pdop>3.0</pdop><geoidheight>51.00</geoidheight><course>179.2</course><type>1</type></trkpt>
      <trkpt lat="38.46816497" lon="-2.31023395"><ele>2464</ele><speed>7.92</speed><time>2016-06-02T13:22:47Z</time><pdop>3.0</pdop><geoidheight>51.00</geoidheight><course>206.7</course><type>1</type></trkpt>
      <trkpt lat="38.46810335" lon="-2.31029737"><ele>2463</ele><speed>8.27</speed><time>2016-06-02T13:22:48Z</time><pdop>3.0</pdop><geoidheight>51.00</geoidheight><course>219.3</course><type>1</type></trkpt>
      <trkpt lat="38.46809175" lon="-2.3103893"><ele>2463</ele><speed>7.98</speed><time>2016-06-02T13:22:49Z</time><pdop>4.0</pdop><geoidheight>51.00</geoidheight><course>241.2</course><type>1</type></trkpt>
      <trkpt lat="38.46811377" lon="-2.31047894"><ele>2463</ele><speed>7.26</speed><time>2016-06-02T13:22:50Z</time><pdop>4.0</pdop><geoidheight>51.00</geoidheight><course>268.1</course><type>1</type></trkpt>
      <trkpt lat="38.46822629" lon="-2.31058068"><ele>2464</ele><speed>5.77</speed><time>2016-06-02T13:22:52Z</time><pdop>5.0</pdop><geoidheight>51.00</geoidheight><course>317.4</course><type>1</type></trkpt>
      <trkpt lat="38.46843876" lon="-2.3104775"><ele>2469</ele><speed>11.52</speed><time>2016-06-02T13:22:54Z</time><pdop>5.0</pdop><geoidheight>51.00</geoidheight><course>25.6</course><type>1</type></trkpt>
      <trkpt lat="38.46852943" lon="-2.31042232"><ele>2471</ele><speed>11.34</speed><time>2016-06-02T13:22:55Z</time><pdop>5.0</pdop><geoidheight>51.00</geoidheight><course>25.6</course><type>1</type></trkpt>
      <trkpt lat="38.46860631" lon="-2.31031956"><ele>2473</ele><speed>11.68</speed><time>2016-06-02T13:22:56Z</time><pdop>4.0</pdop><geoidheight>51.00</geoidheight><course>50.5</course><type>1</type></trkpt>
      <trkpt lat="38.46867444" lon="-2.31021272"><ele>2475</ele><speed>12.15</speed><time>2016-06-02T13:22:57Z</time><pdop>5.0</pdop><geoidheight>51.00</geoidheight><course>63.8</course><type>1</type></trkpt>
      <trkpt lat="38.46869881" lon="-2.31007272"><ele>2476</ele><speed>12.48</speed><time>2016-06-02T13:22:58Z</time><pdop>5.0</pdop><geoidheight>51.00</geoidheight><course>83.4</course><type>1</type></trkpt>
      <trkpt lat="38.46870824" lon="-2.30993601"><ele>2477</ele><speed>11.96</speed><time>2016-06-02T13:22:59Z</time><pdop>4.0</pdop><geoidheight>51.00</geoidheight><course>99.7</course><type>1</type></trkpt>
      <trkpt lat="38.46869019" lon="-2.3098009"><ele>2477</ele><speed>11.96</speed><time>2016-06-02T13:23:00Z</time><pdop>5.0</pdop><geoidheight>51.00</geoidheight><course>99.6</course><type>1</type></trkpt>
      <trkpt lat="38.46862002" lon="-2.30972884"><ele>2477</ele><speed>9.79</speed><time>2016-06-02T13:23:01Z</time><pdop>4.0</pdop><geoidheight>51.00</geoidheight><course>131.7</course><type>1</type></trkpt>
      <trkpt lat="38.46853565" lon="-2.30971292"><ele>2473</ele><speed>8.54</speed><time>2016-06-02T13:23:02Z</time><pdop>4.0</pdop><geoidheight>51.00</geoidheight><course>175.4</course><type>1</type></trkpt>
      <trkpt lat="38.46844115" lon="-2.30978723"><ele>2475</ele><speed>8.82</speed><time>2016-06-02T13:23:04Z</time><pdop>3.0</pdop><geoidheight>51.00</geoidheight><course>228.6</course><type>1</type></trkpt>
      <trkpt lat="38.46840016" lon="-2.30987275"><ele>2477</ele><speed>9.61</speed><time>2016-06-02T13:23:05Z</time><pdop>3.0</pdop><geoidheight>51.00</geoidheight><course>247.3</course><type>1</type></trkpt>
      <trkpt lat="38.46836685" lon="-2.30997423"><ele>2477</ele><speed>9.59</speed><time>2016-06-02T13:23:06Z</time><pdop>4.0</pdop><geoidheight>51.00</geoidheight><course>247.3</course><type>1</type></trkpt>
      <trkpt lat="38.46840877" lon="-2.31009939"><ele>2479</ele><speed>9.57</speed><time>2016-06-02T13:23:07Z</time><pdop>4.0</pdop><geoidheight>51.00</geoidheight><course>283.7</course><type>1</type></trkpt>
      <trkpt lat="38.46843221" lon="-2.3102077"><ele>2479</ele><speed>9.72</speed><time>2016-06-02T13:23:08Z</time><pdop>4.0</pdop><geoidheight>51.00</geoidheight><course>288.5</course><type>1</type></trkpt>
      <trkpt lat="38.46848973" lon="-2.31028934"><ele>2481</ele><speed>10.85</speed><time>2016-06-02T13:23:09Z</time><pdop>4.0</pdop><geoidheight>51.00</geoidheight><course>311.4</course><type>1</type></trkpt>
      <trkpt lat="38.4685549" lon="-2.31038095"><ele>2484</ele><speed>10.31</speed><time>2016-06-02T13:23:10Z</time><pdop>4.0</pdop><geoidheight>51.00</geoidheight><course>312.7</course><type>1</type></trkpt>
      <trkpt lat="38.46859831" lon="-2.31045451"><ele>2486</ele><speed>8.79</speed><time>2016-06-02T13:23:11Z</time><pdop>4.0</pdop><geoidheight>51.00</geoidheight><course>309.4</course><type>1</type></trkpt>
      <trkpt lat="38.46863292" lon="-2.31059288"><ele>2483</ele><speed>7.45</speed><time>2016-06-02T13:23:13Z</time><pdop>5.0</pdop><geoidheight>51.00</geoidheight><course>292.6</course><type>1</type></trkpt>
      <trkpt lat="38.46873714" lon="-2.31075938"><ele>2486</ele><speed>8.96</speed><time>2016-06-02T13:23:15Z</time><pdop>4.0</pdop><geoidheight>51.00</geoidheight><course>326.4</course><type>1</type></trkpt>
      <trkpt lat="38.46893671" lon="-2.31080399"><ele>2491</ele><speed>13.73</speed><time>2016-06-02T13:23:17Z</time><pdop>4.0</pdop><geoidheight>51.00</geoidheight><course>3.0</course><type>1</type></trkpt>
      <trkpt lat="38.46906022" lon="-2.31079566"><ele>2480</ele><speed>13.73</speed><time>2016-06-02T13:23:18Z</time><pdop>6.0</pdop><geoidheight>51.00</geoidheight><course>3.0</course><type>1</type></trkpt>
      <trkpt lat="38.46916244" lon="-2.3106842"><ele>2488</ele><speed>14.26</speed><time>2016-06-02T13:23:19Z</time><pdop>4.0</pdop><geoidheight>51.00</geoidheight><course>32.4</course><type>1</type></trkpt>
      <trkpt lat="38.46924883" lon="-2.31056466"><ele>2491</ele><speed>13.40</speed><time>2016-06-02T13:23:20Z</time><pdop>4.0</pdop><geoidheight>51.00</geoidheight><course>50.4</course><type>1</type></trkpt>
      <trkpt lat="38.46932565" lon="-2.3104465"><ele>2492</ele><speed>13.38</speed><time>2016-06-02T13:23:21Z</time><pdop>5.0</pdop><geoidheight>51.00</geoidheight><course>50.4</course><type>1</type></trkpt>
      <trkpt lat="38.4693728" lon="-2.31031802"><ele>2495</ele><speed>13.16</speed><time>2016-06-02T13:23:22Z</time><pdop>6.0</pdop><geoidheight>51.00</geoidheight><course>58.8</course><type>1</type></trkpt>
      <trkpt lat="38.46941157" lon="-2.31015838"><ele>2499</ele><speed>13.75</speed><time>2016-06-02T13:23:23Z</time><pdop>4.0</pdop><geoidheight>51.00</geoidheight><course>67.0</course><type>1</type></trkpt>
      <trkpt lat="38.46944677" lon="-2.3100251"><ele>2503</ele><speed>12.70</speed><time>2016-06-02T13:23:24Z</time><pdop>4.0</pdop><geoidheight>51.00</geoidheight><course>71.0</course><type>1</type></trkpt>
      <trkpt lat="38.46947544" lon="-2.30988945"><ele>2506</ele><speed>11.93</speed><time>2016-06-02T13:23:25Z</time><pdop>4.0</pdop><geoidheight>51.00</geoidheight><course>72.9</course><type>1</type></trkpt>
      <trkpt lat="38.46950356" lon="-2.30977179"><ele>2511</ele><speed>10.98</speed><time>2016-06-02T13:23:26Z</time><pdop>4.0</pdop><geoidheight>51.00</geoidheight><course>74.8</course><type>1</type></trkpt>
      <trkpt lat="38.46953227" lon="-2.30965764"><ele>2513</ele><speed>10.24</speed><time>2016-06-02T13:23:27Z</time><pdop>4.0</pdop><geoidheight>51.00</geoidheight><course>73.5</course><type>1</type></trkpt>
      <trkpt lat="38.46955826" lon="-2.309546"><ele>2514</ele><speed>10.18</speed><time>2016-06-02T13:23:28Z</time><pdop>5.0</pdop><geoidheight>51.00</geoidheight><course>73.5</course><type>1</type></trkpt>
      <trkpt lat="38.46960381" lon="-2.30944839"><ele>2514</ele><speed>9.75</speed><time>2016-06-02T13:23:29Z</time><pdop>4.0</pdop><geoidheight>51.00</geoidheight><course>71.8</course><type>1</type></trkpt>
      <trkpt lat="38.46962985" lon="-2.30933023"><ele>2514</ele><speed>10.47</speed><time>2016-06-02T13:23:30Z</time><pdop>4.0</pdop><geoidheight>51.00</geoidheight><course>72.6</course><type>1</type></trkpt>
      <trkpt lat="38.46964515" lon="-2.30920439"><ele>2513</ele><speed>11.63</speed><time>2016-06-02T13:23:31Z</time><pdop>4.0</pdop><geoidheight>51.00</geoidheight><course>74.2</course><type>1</type></trkpt>
      <trkpt lat="38.46968215" lon="-2.30907626"><ele>2512</ele><speed>12.15</speed><time>2016-06-02T13:23:32Z</time><pdop>4.0</pdop><geoidheight>51.00</geoidheight><course>74.5</course><type>1</type></trkpt>
      <trkpt lat="38.46971377" lon="-2.30894899"><ele>2511</ele><speed>11.62</speed><time>2016-06-02T13:23:33Z</time><pdop>4.0</pdop><geoidheight>51.00</geoidheight><course>72.3</course><type>1</type></trkpt>
      <trkpt lat="38.46974478" lon="-2.30882216"><ele>2512</ele><speed>11.49</speed><time>2016-06-02T13:23:34Z</time><pdop>4.0</pdop><geoidheight>51.00</geoidheight><course>76.2</course><type>1</type></trkpt>
      <trkpt lat="38.46976954" lon="-2.30869437"><ele>2512</ele><speed>11.48</speed><time>2016-06-02T13:23:35Z</time><pdop>5.0</pdop><geoidheight>51.00</geoidheight><course>76.2</course><type>1</type></trkpt>
      <trkpt lat="38.46979344" lon="-2.30856954"><ele>2511</ele><speed>11.76</speed><time>2016-06-02T13:23:36Z</time><pdop>4.0</pdop><geoidheight>51.00</geoidheight><course>82.5</course><type>1</type></trkpt>
      <trkpt lat="38.46980226" lon="-2.30843183"><ele>2511</ele><speed>11.95</speed><time>2016-06-02T13:23:37Z</time><pdop>4.0</pdop><geoidheight>51.00</geoidheight><course>86.8</course><type>1</type></trkpt>
      <trkpt lat="38.46980458" lon="-2.3082996"><ele>2510</ele><speed>11.10</speed><time>2016-06-02T13:23:38Z</time><pdop>4.0</pdop><geoidheight>51.00</geoidheight><course>93.9</course><type>1</type></trkpt>
      <trkpt lat="38.46979143" lon="-2.30817879"><ele>2510</ele><speed>11.22</speed><time>2016-06-02T13:23:39Z</time><pdop>3.0</pdop><geoidheight>51.00</geoidheight><course>100.6</course><type>1</type></trkpt>
      <trkpt lat="38.46977939" lon="-2.30804537"><ele>2508</ele><speed>11.61</speed><time>2016-06-02T13:23:40Z</time><pdop>4.0</pdop><geoidheight>51.00</geoidheight><course>105.5</course><type>1</type></trkpt>
      <trkpt lat="38.46975138" lon="-2.30791716"><ele>2508</ele><speed>11.60</speed><time>2016-06-02T13:23:41Z</time><pdop>4.0</pdop><geoidheight>51.00</geoidheight><course>105.5</course><type>1</type></trkpt>
      <trkpt lat="38.46973832" lon="-2.30778069"><ele>2507</ele><speed>12.12</speed><time>2016-06-02T13:23:42Z</time><pdop>4.0</pdop><geoidheight>51.00</geoidheight><course>100.7</course><type>1</type></trkpt>
      <trkpt lat="38.46974726" lon="-2.30762876"><ele>2507</ele><speed>12.98</speed><time>2016-06-02T13:23:43Z</time><pdop>3.0</pdop><geoidheight>51.00</geoidheight><course>88.7</course><type>1</type></trkpt>
      <trkpt lat="38.4697687" lon="-2.30748481"><ele>2507</ele><speed>12.95</speed><time>2016-06-02T13:23:44Z</time><pdop>3.0</pdop><geoidheight>51.00</geoidheight><course>82.0</course><type>1</type></trkpt>
      <trkpt lat="38.46979168" lon="-2.30734382"><ele>2508</ele><speed>12.67</speed><time>2016-06-02T13:23:45Z</time><pdop>3.0</pdop><geoidheight>51.00</geoidheight><course>77.4</course><type>1</type></trkpt>
      <trkpt lat="38.46983263" lon="-2.30721082"><ele>2508</ele><speed>12.11</speed><time>2016-06-02T13:23:46Z</time><pdop>3.0</pdop><geoidheight>51.00</geoidheight><course>70.8</course><type>1</type></trkpt>
      <trkpt lat="38.46985195" lon="-2.30706783"><ele>2507</ele><speed>13.16</speed><time>2016-06-02T13:23:47Z</time><pdop>3.0</pdop><geoidheight>51.00</geoidheight><course>74.7</course><type>1</type></trkpt>
      <trkpt lat="38.4698821" lon="-2.30690964"><ele>2507</ele><speed>14.13</speed><time>2016-06-02T13:23:48Z</time><pdop>3.0</pdop><geoidheight>51.00</geoidheight><course>77.1</course><type>1</type></trkpt>
      <trkpt lat="38.46991997" lon="-2.30674309"><ele>2505</ele><speed>15.53</speed><time>2016-06-02T13:23:49Z</time><pdop>4.0</pdop><geoidheight>51.00</geoidheight><course>78.2</course><type>1</type></trkpt>
      <trkpt lat="38.46995626" lon="-2.30657212"><ele>2505</ele><speed>15.70</speed><time>2016-06-02T13:23:50Z</time><pdop>4.0</pdop><geoidheight>51.00</geoidheight><course>77.0</course><type>1</type></trkpt>
      <trkpt lat="38.46998812" lon="-2.30640615"><ele>2506</ele><speed>14.65</speed><time>2016-06-02T13:23:51Z</time><pdop>4.0</pdop><geoidheight>51.00</geoidheight><course>77.0</course><type>1</type></trkpt>
      <trkpt lat="38.47002601" lon="-2.30625882"><ele>2507</ele><speed>13.31</speed><time>2016-06-02T13:23:52Z</time><pdop>4.0</pdop><geoidheight>51.00</geoidheight><course>74.9</course><type>1</type></trkpt>
      <trkpt lat="38.4700523" lon="-2.30612849"><ele>2507</ele><speed>12.84</speed><time>2016-06-02T13:23:53Z</time><pdop>4.0</pdop><geoidheight>51.00</geoidheight><course>73.5</course><type>1</type></trkpt>
      <trkpt lat="38.47008508" lon="-2.30598745"><ele>2507</ele><speed>12.83</speed><time>2016-06-02T13:23:54Z</time><pdop>5.0</pdop><geoidheight>51.00</geoidheight><course>73.5</course><type>1</type></trkpt>
      <trkpt lat="38.47010644" lon="-2.30582101"><ele>2504</ele><speed>13.66</speed><time>2016-06-02T13:23:55Z</time><pdop>5.0</pdop><geoidheight>51.00</geoidheight><course>75.2</course><type>1</type></trkpt>
      <trkpt lat="38.47013687" lon="-2.30563898"><ele>2502</ele><speed>15.56</speed><time>2016-06-02T13:23:56Z</time><pdop>4.0</pdop><geoidheight>51.00</geoidheight><course>78.2</course><type>1</type></trkpt>
      <trkpt lat="38.47016796" lon="-2.3054534"><ele>2500</ele><speed>16.15</speed><time>2016-06-02T13:23:57Z</time><pdop>4.0</pdop><geoidheight>51.00</geoidheight><course>79.5</course><type>1</type></trkpt>
      <trkpt lat="38.47019634" lon="-2.30526989"><ele>2501</ele><speed>16.12</speed><time>2016-06-02T13:23:58Z</time><pdop>4.0</pdop><geoidheight>51.00</geoidheight><course>79.7</course><type>1</type></trkpt>
      <trkpt lat="38.47022739" lon="-2.30509993"><ele>2501</ele><speed>15.22</speed><time>2016-06-02T13:23:59Z</time><pdop>3.0</pdop><geoidheight>51.00</geoidheight><course>78.5</course><type>1</type></trkpt>
      <trkpt lat="38.4702673" lon="-2.30495026"><ele>2499</ele><speed>14.15</speed><time>2016-06-02T13:24:00Z</time><pdop>3.0</pdop><geoidheight>51.00</geoidheight><course>73.3</course><type>1</type></trkpt>
      <trkpt lat="38.47031316" lon="-2.30480533"><ele>2499</ele><speed>13.56</speed><time>2016-06-02T13:24:01Z</time><pdop>3.0</pdop><geoidheight>51.00</geoidheight><course>68.7</course><type>1</type></trkpt>
      <trkpt lat="38.47035338" lon="-2.30465932"><ele>2497</ele><speed>14.22</speed><time>2016-06-02T13:24:02Z</time><pdop>3.0</pdop><geoidheight>51.00</geoidheight><course>69.8</course><type>1</type></trkpt>
      <trkpt lat="38.47039687" lon="-2.304501"><ele>2497</ele><speed>14.82</speed><time>2016-06-02T13:24:03Z</time><pdop>3.0</pdop><geoidheight>51.00</geoidheight><course>74.2</course><type>1</type></trkpt>
      <trkpt lat="38.47043782" lon="-2.30434621"><ele>2495</ele><speed>15.15</speed><time>2016-06-02T13:24:04Z</time><pdop>3.0</pdop><geoidheight>51.00</geoidheight><course>73.6</course><type>1</type></trkpt>
      <trkpt lat="38.47048066" lon="-2.30417614"><ele>2494</ele><speed>15.31</speed><time>2016-06-02T13:24:05Z</time><pdop>3.0</pdop><geoidheight>51.00</geoidheight><course>71.2</course><type>1</type></trkpt>
      <trkpt lat="38.47052502" lon="-2.30401059"><ele>2493</ele><speed>15.27</speed><time>2016-06-02T13:24:06Z</time><pdop>4.0</pdop><geoidheight>51.00</geoidheight><course>71.2</course><type>1</type></trkpt>
      <trkpt lat="38.47059784" lon="-2.30387173"><ele>2492</ele><speed>14.85</speed><time>2016-06-02T13:24:07Z</time><pdop>3.0</pdop><geoidheight>51.00</geoidheight><course>62.8</course><type>1</type></trkpt>
      <trkpt lat="38.47066638" lon="-2.30372005"><ele>2491</ele><speed>14.97</speed><time>2016-06-02T13:24:08Z</time><pdop>4.0</pdop><geoidheight>51.00</geoidheight><course>61.2</course><type>1</type></trkpt>
      <trkpt lat="38.47073166" lon="-2.30356113"><ele>2489</ele><speed>15.70</speed><time>2016-06-02T13:24:09Z</time><pdop>3.0</pdop><geoidheight>51.00</geoidheight><course>62.9</course><type>1</type></trkpt>
      <trkpt lat="38.47079577" lon="-2.30340172"><ele>2488</ele><speed>15.65</speed><time>2016-06-02T13:24:10Z</time><pdop>4.0</pdop><geoidheight>51.00</geoidheight><course>62.9</course><type>1</type></trkpt>
      <trkpt lat="38.47086224" lon="-2.30321352"><ele>2488</ele><speed>16.96</speed><time>2016-06-02T13:24:11Z</time><pdop>4.0</pdop><geoidheight>51.00</geoidheight><course>64.2</course><type>1</type></trkpt>
      <trkpt lat="38.47093966" lon="-2.30301654"><ele>2487</ele><speed>17.43</speed><time>2016-06-02T13:24:12Z</time><pdop>4.0</pdop><geoidheight>51.00</geoidheight><course>63.2</course><type>1</type></trkpt>
      <trkpt lat="38.47097008" lon="-2.30285794"><ele>2486</ele><speed>16.93</speed><time>2016-06-02T13:24:13Z</time><pdop>3.0</pdop><geoidheight>51.00</geoidheight><course>65.3</course><type>1</type></trkpt>
      <trkpt lat="38.47103554" lon="-2.30267847"><ele>2486</ele><speed>17.35</speed><time>2016-06-02T13:24:14Z</time><pdop>3.0</pdop><geoidheight>51.00</geoidheight><course>67.2</course><type>1</type></trkpt>
      <trkpt lat="38.47109507" lon="-2.30249322"><ele>2486</ele><speed>17.64</speed><time>2016-06-02T13:24:15Z</time><pdop>3.0</pdop><geoidheight>51.00</geoidheight><course>67.6</course><type>1</type></trkpt>
      <trkpt lat="38.47115759" lon="-2.30231667"><ele>2487</ele><speed>17.19</speed><time>2016-06-02T13:24:16Z</time><pdop>4.0</pdop><geoidheight>51.00</geoidheight><course>66.7</course><type>1</type></trkpt>
      <trkpt lat="38.47121887" lon="-2.30213608"><ele>2487</ele><speed>17.18</speed><time>2016-06-02T13:24:17Z</time><pdop>5.0</pdop><geoidheight>51.00</geoidheight><course>66.7</course><type>1</type></trkpt>
      <trkpt lat="38.47126861" lon="-2.30197859"><ele>2490</ele><speed>15.94</speed><time>2016-06-02T13:24:18Z</time><pdop>3.0</pdop><geoidheight>51.00</geoidheight><course>66.4</course><type>1</type></trkpt>
      <trkpt lat="38.47132474" lon="-2.30181493"><ele>2492</ele><speed>15.70</speed><time>2016-06-02T13:24:19Z</time><pdop>4.0</pdop><geoidheight>51.00</geoidheight><course>70.2</course><type>1</type></trkpt>
      <trkpt lat="38.47137248" lon="-2.30164583"><ele>2492</ele><speed>15.68</speed><time>2016-06-02T13:24:20Z</time><pdop>4.0</pdop><geoidheight>51.00</geoidheight><course>70.2</course><type>1</type></trkpt>
      <trkpt lat="38.47142424" lon="-2.30148002"><ele>2495</ele><speed>15.02</speed><time>2016-06-02T13:24:21Z</time><pdop>4.0</pdop><geoidheight>51.00</geoidheight><course>70.3</course><type>1</type></trkpt>
      <trkpt lat="38.47147159" lon="-2.30132151"><ele>2497</ele><speed>14.19</speed><time>2016-06-02T13:24:22Z</time><pdop>4.0</pdop><geoidheight>51.00</geoidheight><course>69.5</course><type>1</type></trkpt>
      <trkpt lat="38.47151401" lon="-2.30117267"><ele>2497</ele><speed>13.95</speed><time>2016-06-02T13:24:23Z</time><pdop>4.0</pdop><geoidheight>51.00</geoidheight><course>69.3</course><type>1</type></trkpt>
      <trkpt lat="38.47155837" lon="-2.3010234"><ele>2498</ele><speed>13.93</speed><time>2016-06-02T13:24:24Z</time><pdop>5.0</pdop><geoidheight>51.00</geoidheight><course>69.3</course><type>1</type></trkpt>
      <trkpt lat="38.47159604" lon="-2.30085407"><ele>2498</ele><speed>14.90</speed><time>2016-06-02T13:24:25Z</time><pdop>4.0</pdop><geoidheight>51.00</geoidheight><course>72.5</course><type>1</type></trkpt>
      <trkpt lat="38.47163679" lon="-2.30068026"><ele>2499</ele><speed>15.70</speed><time>2016-06-02T13:24:26Z</time><pdop>4.0</pdop><geoidheight>51.00</geoidheight><course>71.5</course><type>1</type></trkpt>
      <trkpt lat="38.47168105" lon="-2.30049858"><ele>2499</ele><speed>16.18</speed><time>2016-06-02T13:24:27Z</time><pdop>3.0</pdop><geoidheight>51.00</geoidheight><course>70.4</course><type>1</type></trkpt>
      <trkpt lat="38.47172981" lon="-2.30032393"><ele>2500</ele><speed>16.17</speed><time>2016-06-02T13:24:28Z</time><pdop>4.0</pdop><geoidheight>51.00</geoidheight><course>70.4</course><type>1</type></trkpt>
      <trkpt lat="38.47179495" lon="-2.30015141"><ele>2500</ele><speed>17.09</speed><time>2016-06-02T13:24:29Z</time><pdop>4.0</pdop><geoidheight>51.00</geoidheight><course>69.6</course><type>1</type></trkpt>
      <trkpt lat="38.47184848" lon="-2.29996796"><ele>2500</ele><speed>17.08</speed><time>2016-06-02T13:24:30Z</time><pdop>4.0</pdop><geoidheight>51.00</geoidheight><course>69.6</course><type>1</type></trkpt>
      <trkpt lat="38.47189392" lon="-2.29979"><ele>2501</ele><speed>16.92</speed><time>2016-06-02T13:24:31Z</time><pdop>5.0</pdop><geoidheight>51.00</geoidheight><course>69.8</course><type>1</type></trkpt>
      <trkpt lat="38.47194708" lon="-2.29961247"><ele>2502</ele><speed>16.33</speed><time>2016-06-02T13:24:32Z</time><pdop>5.0</pdop><geoidheight>51.00</geoidheight><course>67.6</course><type>1</type></trkpt>
      <trkpt lat="38.4719926" lon="-2.29945867"><ele>2503</ele><speed>15.51</speed><time>2016-06-02T13:24:33Z</time><pdop>5.0</pdop><geoidheight>51.00</geoidheight><course>65.9</course><type>1</type></trkpt>
      <trkpt lat="38.47204834" lon="-2.29930669"><ele>2502</ele><speed>15.25</speed><time>2016-06-02T13:24:34Z</time><pdop>5.0</pdop><geoidheight>51.00</geoidheight><course>65.6</course><type>1</type></trkpt>
      <trkpt lat="38.47210265" lon="-2.29914321"><ele>2503</ele><speed>15.25</speed><time>2016-06-02T13:24:35Z</time><pdop>6.0</pdop><geoidheight>51.00</geoidheight><course>66.4</course><type>1</type></trkpt>
      <trkpt lat="38.4721725" lon="-2.29896639"><ele>2503</ele><speed>15.83</speed><time>2016-06-02T13:24:36Z</time><pdop>6.0</pdop><geoidheight>51.00</geoidheight><course>65.8</course><type>1</type></trkpt>
      <trkpt lat="38.47222287" lon="-2.29879774"><ele>2504</ele><speed>15.99</speed><time>2016-06-02T13:24:37Z</time><pdop>6.0</pdop><geoidheight>51.00</geoidheight><course>65.9</course><type>1</type></trkpt>
      <trkpt lat="38.47228587" lon="-2.2986392"><ele>2505</ele><speed>16.15</speed><time>2016-06-02T13:24:38Z</time><pdop>6.0</pdop><geoidheight>51.00</geoidheight><course>65.3</course><type>1</type></trkpt>
      <trkpt lat="38.47236079" lon="-2.29847123"><ele>2506</ele><speed>16.90</speed><time>2016-06-02T13:24:39Z</time><pdop>6.0</pdop><geoidheight>51.00</geoidheight><course>63.2</course><type>1</type></trkpt>
      <trkpt lat="38.47245178" lon="-2.29828644"><ele>2507</ele><speed>17.33</speed><time>2016-06-02T13:24:40Z</time><pdop>6.0</pdop><geoidheight>51.00</geoidheight><course>62.4</course><type>1</type></trkpt>
      <trkpt lat="38.47250836" lon="-2.2981369"><ele>2509</ele><speed>14.90</speed><time>2016-06-02T13:24:41Z</time><pdop>5.0</pdop><geoidheight>51.00</geoidheight><course>64.9</course><type>1</type></trkpt>
      <trkpt lat="38.47254439" lon="-2.29798326"><ele>2511</ele><speed>13.80</speed><time>2016-06-02T13:24:42Z</time><pdop>6.0</pdop><geoidheight>51.00</geoidheight><course>65.7</course><type>1</type></trkpt>
      <trkpt lat="38.47264992" lon="-2.29780509"><ele>2515</ele><speed>10.00</speed><time>2016-06-02T13:24:44Z</time><pdop>5.0</pdop><geoidheight>51.00</geoidheight><course>56.6</course><type>1</type></trkpt>
      <trkpt lat="38.47277503" lon="-2.29758761"><ele>2515</ele><speed>12.86</speed><time>2016-06-02T13:24:46Z</time><pdop>6.0</pdop><geoidheight>51.00</geoidheight><course>58.0</course><type>1</type></trkpt>
      <trkpt lat="38.47284905" lon="-2.29742957"><ele>2514</ele><speed>14.45</speed><time>2016-06-02T13:24:47Z</time><pdop>7.0</pdop><geoidheight>51.00</geoidheight><course>61.0</course><type>1</type></trkpt>
      <trkpt lat="38.47291062" lon="-2.29723361"><ele>2514</ele><speed>16.41</speed><time>2016-06-02T13:24:48Z</time><pdop>7.0</pdop><geoidheight>51.00</geoidheight><course>65.2</course><type>1</type></trkpt>
      <trkpt lat="38.47295825" lon="-2.29703929"><ele>2515</ele><speed>15.83</speed><time>2016-06-02T13:24:49Z</time><pdop>6.0</pdop><geoidheight>51.00</geoidheight><course>70.0</course><type>1</type></trkpt>
      <trkpt lat="38.47299963" lon="-2.296877"><ele>2515</ele><speed>15.29</speed><time>2016-06-02T13:24:50Z</time><pdop>6.0</pdop><geoidheight>51.00</geoidheight><course>70.1</course><type>1</type></trkpt>
      <trkpt lat="38.47306666" lon="-2.29660666"><ele>2517</ele><speed>13.21</speed><time>2016-06-02T13:24:52Z</time><pdop>5.0</pdop><geoidheight>51.00</geoidheight><course>70.8</course><type>1</type></trkpt>
      <trkpt lat="38.47308361" lon="-2.29645715"><ele>2522</ele><speed>12.95</speed><time>2016-06-02T13:24:53Z</time><pdop>4.0</pdop><geoidheight>51.00</geoidheight><course>77.9</course><type>1</type></trkpt>
      <trkpt lat="38.4730859" lon="-2.29631027"><ele>2523</ele><speed>12.66</speed><time>2016-06-02T13:24:54Z</time><pdop>4.0</pdop><geoidheight>51.00</geoidheight><course>79.1</course><type>1</type></trkpt>
      <trkpt lat="38.47311103" lon="-2.29617434"><ele>2524</ele><speed>12.23</speed><time>2016-06-02T13:24:55Z</time><pdop>4.0</pdop><geoidheight>51.00</geoidheight><course>79.6</course><type>1</type></trkpt>
      <trkpt lat="38.47313083" lon="-2.29604894"><ele>2523</ele><speed>11.92</speed><time>2016-06-02T13:24:56Z</time><pdop>4.0</pdop><geoidheight>51.00</geoidheight><course>79.8</course><type>1</type></trkpt>
      <trkpt lat="38.47315217" lon="-2.29590203"><ele>2524</ele><speed>12.31</speed><time>2016-06-02T13:24:57Z</time><pdop>4.0</pdop><geoidheight>51.00</geoidheight><course>79.9</course><type>1</type></trkpt>
      <trkpt lat="38.4731655" lon="-2.29576247"><ele>2524</ele><speed>12.31</speed><time>2016-06-02T13:24:58Z</time><pdop>4.0</pdop><geoidheight>51.00</geoidheight><course>79.9</course><type>1</type></trkpt>
      <trkpt lat="38.47319705" lon="-2.29562045"><ele>2432</ele><speed>12.39</speed><time>2016-06-02T13:24:59Z</time><pdop>4.0</pdop><geoidheight>51.00</geoidheight><course>77.3</course><type>1</type></trkpt>
      <trkpt lat="38.47323115" lon="-2.29547983"><ele>2463</ele><speed>12.18</speed><time>2016-06-02T13:25:00Z</time><pdop>4.0</pdop><geoidheight>51.00</geoidheight><course>74.0</course><type>1</type></trkpt>
      <trkpt lat="38.47326569" lon="-2.29535205"><ele>2478</ele><speed>11.85</speed><time>2016-06-02T13:25:01Z</time><pdop>4.0</pdop><geoidheight>51.00</geoidheight><course>72.1</course><type>1</type></trkpt>
      <trkpt lat="38.4732946" lon="-2.29522283"><ele>2491</ele><speed>11.87</speed><time>2016-06-02T13:25:02Z</time><pdop>4.0</pdop><geoidheight>51.00</geoidheight><course>72.0</course><type>1</type></trkpt>
      <trkpt lat="38.47333074" lon="-2.2950942"><ele>2500</ele><speed>11.73</speed><time>2016-06-02T13:25:03Z</time><pdop>4.0</pdop><geoidheight>51.00</geoidheight><course>72.6</course><type>1</type></trkpt>
      <trkpt lat="38.4733652" lon="-2.29494803"><ele>2505</ele><speed>12.25</speed><time>2016-06-02T13:25:04Z</time><pdop>4.0</pdop><geoidheight>51.00</geoidheight><course>73.6</course><type>1</type></trkpt>
      <trkpt lat="38.47340303" lon="-2.29481125"><ele>2511</ele><speed>12.80</speed><time>2016-06-02T13:25:05Z</time><pdop>4.0</pdop><geoidheight>51.00</geoidheight><course>73.5</course><type>1</type></trkpt>
      <trkpt lat="38.47344156" lon="-2.29467162"><ele>2516</ele><speed>12.74</speed><time>2016-06-02T13:25:06Z</time><pdop>4.0</pdop><geoidheight>51.00</geoidheight><course>71.9</course><type>1</type></trkpt>
      <trkpt lat="38.47348347" lon="-2.29453526"><ele>2518</ele><speed>12.49</speed><time>2016-06-02T13:25:07Z</time><pdop>4.0</pdop><geoidheight>51.00</geoidheight><course>70.7</course><type>1</type></trkpt>
      <trkpt lat="38.47353258" lon="-2.29441381"><ele>2520</ele><speed>11.49</speed><time>2016-06-02T13:25:08Z</time><pdop>4.0</pdop><geoidheight>51.00</geoidheight><course>70.4</course><type>1</type></trkpt>
      <trkpt lat="38.47357591" lon="-2.29431475"><ele>2520</ele><speed>10.72</speed><time>2016-06-02T13:25:09Z</time><pdop>4.0</pdop><geoidheight>51.00</geoidheight><course>71.8</course><type>1</type></trkpt>
      <trkpt lat="38.47361632" lon="-2.29418882"><ele>2523</ele><speed>10.92</speed><time>2016-06-02T13:25:10Z</time><pdop>4.0</pdop><geoidheight>51.00</geoidheight><course>71.9</course><type>1</type></trkpt>
      <trkpt lat="38.47364653" lon="-2.2940686"><ele>2526</ele><speed>11.04</speed><time>2016-06-02T13:25:11Z</time><pdop>4.0</pdop><geoidheight>51.00</geoidheight><course>71.7</course><type>1</type></trkpt>
      <trkpt lat="38.47368065" lon="-2.29394294"><ele>2527</ele><speed>11.27</speed><time>2016-06-02T13:25:12Z</time><pdop>4.0</pdop><geoidheight>51.00</geoidheight><course>70.2</course><type>1</type></trkpt>
      <trkpt lat="38.47373164" lon="-2.29382663"><ele>2528</ele><speed>11.41</speed><time>2016-06-02T13:25:13Z</time><pdop>4.0</pdop><geoidheight>51.00</geoidheight><course>67.7</course><type>1</type></trkpt>
      <trkpt lat="38.47378269" lon="-2.29370416"><ele>2531</ele><speed>11.45</speed><time>2016-06-02T13:25:14Z</time><pdop>4.0</pdop><geoidheight>51.00</geoidheight><course>66.1</course><type>1</type></trkpt>
      <trkpt lat="38.47381423" lon="-2.29358624"><ele>2533</ele><speed>11.61</speed><time>2016-06-02T13:25:15Z</time><pdop>4.0</pdop><geoidheight>51.00</geoidheight><course>65.2</course><type>1</type></trkpt>
      <trkpt lat="38.47387075" lon="-2.29347113"><ele>2536</ele><speed>11.35</speed><time>2016-06-02T13:25:16Z</time><pdop>3.0</pdop><geoidheight>51.00</geoidheight><course>63.2</course><type>1</type></trkpt>
      <trkpt lat="38.47391682" lon="-2.2933546"><ele>2537</ele><speed>11.25</speed><time>2016-06-02T13:25:17Z</time><pdop>3.0</pdop><geoidheight>51.00</geoidheight><course>60.7</course><type>1</type></trkpt>
      <trkpt lat="38.47397619" lon="-2.29324593"><ele>2537</ele><speed>11.46</speed><time>2016-06-02T13:25:18Z</time><pdop>3.0</pdop><geoidheight>51.00</geoidheight><course>57.9</course><type>1</type></trkpt>
      <trkpt lat="38.47404007" lon="-2.29313265"><ele>2537</ele><speed>12.04</speed><time>2016-06-02T13:25:19Z</time><pdop>3.0</pdop><geoidheight>51.00</geoidheight><course>56.7</course><type>1</type></trkpt>
      <trkpt lat="38.47410365" lon="-2.29300424"><ele>2537</ele><speed>12.78</speed><time>2016-06-02T13:25:20Z</time><pdop>4.0</pdop><geoidheight>51.00</geoidheight><course>55.9</course><type>1</type></trkpt>
      <trkpt lat="38.47416649" lon="-2.29287479"><ele>2537</ele><speed>13.22</speed><time>2016-06-02T13:25:21Z</time><pdop>4.0</pdop><geoidheight>51.00</geoidheight><course>57.0</course><type>1</type></trkpt>
      <trkpt lat="38.47423236" lon="-2.29272573"><ele>2537</ele><speed>14.29</speed><time>2016-06-02T13:25:22Z</time><pdop>4.0</pdop><geoidheight>51.00</geoidheight><course>59.7</course><type>1</type></trkpt>
      <trkpt lat="38.47429384" lon="-2.29256009"><ele>2537</ele><speed>15.42</speed><time>2016-06-02T13:25:23Z</time><pdop>5.0</pdop><geoidheight>51.00</geoidheight><course>61.5</course><type>1</type></trkpt>
      <trkpt lat="38.47435947" lon="-2.29239835"><ele>2537</ele><speed>15.70</speed><time>2016-06-02T13:25:24Z</time><pdop>4.0</pdop><geoidheight>51.00</geoidheight><course>60.9</course><type>1</type></trkpt>
      <trkpt lat="38.47442502" lon="-2.29224642"><ele>2537</ele><speed>15.51</speed><time>2016-06-02T13:25:25Z</time><pdop>4.0</pdop><geoidheight>51.00</geoidheight><course>59.6</course><type>1</type></trkpt>
      <trkpt lat="38.47449645" lon="-2.29208621"><ele>2537</ele><speed>15.50</speed><time>2016-06-02T13:25:26Z</time><pdop>4.0</pdop><geoidheight>51.00</geoidheight><course>59.9</course><type>1</type></trkpt>
      <trkpt lat="38.47456515" lon="-2.29192729"><ele>2537</ele><speed>15.78</speed><time>2016-06-02T13:25:27Z</time><pdop>4.0</pdop><geoidheight>51.00</geoidheight><course>61.1</course><type>1</type></trkpt>
      <trkpt lat="38.47462593" lon="-2.29175624"><ele>2538</ele><speed>16.26</speed><time>2016-06-02T13:25:28Z</time><pdop>4.0</pdop><geoidheight>51.00</geoidheight><course>62.9</course><type>1</type></trkpt>
      <trkpt lat="38.4746838" lon="-2.29159091"><ele>2539</ele><speed>16.14</speed><time>2016-06-02T13:25:29Z</time><pdop>3.0</pdop><geoidheight>51.00</geoidheight><course>63.8</course><type>1</type></trkpt>
      <trkpt lat="38.47475098" lon="-2.29144249"><ele>2539</ele><speed>15.00</speed><time>2016-06-02T13:25:30Z</time><pdop>3.0</pdop><geoidheight>51.00</geoidheight><course>61.4</course><type>1</type></trkpt>
      <trkpt lat="38.47480947" lon="-2.29130985"><ele>2541</ele><speed>13.46</speed><time>2016-06-02T13:25:31Z</time><pdop>3.0</pdop><geoidheight>51.00</geoidheight><course>59.9</course><type>1</type></trkpt>
      <trkpt lat="38.47486926" lon="-2.29120106"><ele>2543</ele><speed>12.09</speed><time>2016-06-02T13:25:32Z</time><pdop>3.0</pdop><geoidheight>51.00</geoidheight><course>55.5</course><type>1</type></trkpt>
      <trkpt lat="38.47494128" lon="-2.29110166"><ele>2545</ele><speed>11.53</speed><time>2016-06-02T13:25:33Z</time><pdop>3.0</pdop><geoidheight>51.00</geoidheight><course>52.3</course><type>1</type></trkpt>
      <trkpt lat="38.47500489" lon="-2.2909888"><ele>2545</ele><speed>12.14</speed><time>2016-06-02T13:25:34Z</time><pdop>3.0</pdop><geoidheight>51.00</geoidheight><course>53.1</course><type>1</type></trkpt>
      <trkpt lat="38.47507375" lon="-2.29085996"><ele>2544</ele><speed>13.09</speed><time>2016-06-02T13:25:35Z</time><pdop>3.0</pdop><geoidheight>51.00</geoidheight><course>55.5</course><type>1</type></trkpt>
      <trkpt lat="38.47513507" lon="-2.29071788"><ele>2543</ele><speed>14.13</speed><time>2016-06-02T13:25:36Z</time><pdop>3.0</pdop><geoidheight>51.00</geoidheight><course>58.2</course><type>1</type></trkpt>
      <trkpt lat="38.47519861" lon="-2.29057025"><ele>2542</ele><speed>14.86</speed><time>2016-06-02T13:25:37Z</time><pdop>3.0</pdop><geoidheight>51.00</geoidheight><course>60.6</course><type>1</type></trkpt>
      <trkpt lat="38.47526823" lon="-2.29042698"><ele>2542</ele><speed>14.86</speed><time>2016-06-02T13:25:38Z</time><pdop>3.0</pdop><geoidheight>51.00</geoidheight><course>60.2</course><type>1</type></trkpt>
      <trkpt lat="38.47534332" lon="-2.29027402"><ele>2542</ele><speed>15.27</speed><time>2016-06-02T13:25:39Z</time><pdop>3.0</pdop><geoidheight>51.00</geoidheight><course>58.1</course><type>1</type></trkpt>
      <trkpt lat="38.47542609" lon="-2.29012077"><ele>2542</ele><speed>16.07</speed><time>2016-06-02T13:25:40Z</time><pdop>3.0</pdop><geoidheight>51.00</geoidheight><course>56.3</course><type>1</type></trkpt>
      <trkpt lat="38.47551924" lon="-2.28995546"><ele>2543</ele><speed>16.78</speed><time>2016-06-02T13:25:41Z</time><pdop>3.0</pdop><geoidheight>51.00</geoidheight><course>55.6</course><type>1</type></trkpt>
      <trkpt lat="38.47560704" lon="-2.28979512"><ele>2543</ele><speed>16.59</speed><time>2016-06-02T13:25:42Z</time><pdop>3.0</pdop><geoidheight>51.00</geoidheight><course>54.2</course><type>1</type></trkpt>
      <trkpt lat="38.4756969" lon="-2.28965809"><ele>2541</ele><speed>16.06</speed><time>2016-06-02T13:25:43Z</time><pdop>3.0</pdop><geoidheight>51.00</geoidheight><course>53.1</course><type>1</type></trkpt>
      <trkpt lat="38.47578959" lon="-2.28950469"><ele>2541</ele><speed>16.37</speed><time>2016-06-02T13:25:44Z</time><pdop>3.0</pdop><geoidheight>51.00</geoidheight><course>53.6</course><type>1</type></trkpt>
      <trkpt lat="38.47587714" lon="-2.28934421"><ele>2540</ele><speed>16.81</speed><time>2016-06-02T13:25:45Z</time><pdop>3.0</pdop><geoidheight>51.00</geoidheight><course>55.4</course><type>1</type></trkpt>
      <trkpt lat="38.47594746" lon="-2.28917091"><ele>2538</ele><speed>17.09</speed><time>2016-06-02T13:25:46Z</time><pdop>4.0</pdop><geoidheight>51.00</geoidheight><course>58.2</course><type>1</type></trkpt>
      <trkpt lat="38.47602954" lon="-2.28901066"><ele>2537</ele><speed>17.31</speed><time>2016-06-02T13:25:47Z</time><pdop>4.0</pdop><geoidheight>51.00</geoidheight><course>58.8</course><type>1</type></trkpt>
      <trkpt lat="38.47610921" lon="-2.28884422"><ele>2536</ele><speed>17.52</speed><time>2016-06-02T13:25:48Z</time><pdop>4.0</pdop><geoidheight>51.00</geoidheight><course>59.0</course><type>1</type></trkpt>
      <trkpt lat="38.47617624" lon="-2.28868207"><ele>2534</ele><speed>16.97</speed><time>2016-06-02T13:25:49Z</time><pdop>4.0</pdop><geoidheight>51.00</geoidheight><course>58.9</course><type>1</type></trkpt>
      <trkpt lat="38.47625342" lon="-2.28852244"><ele>2533</ele><speed>16.29</speed><time>2016-06-02T13:25:50Z</time><pdop>4.0</pdop><geoidheight>51.00</geoidheight><course>57.7</course><type>1</type></trkpt>
      <trkpt lat="38.47633018" lon="-2.28837748"><ele>2533</ele><speed>15.68</speed><time>2016-06-02T13:25:51Z</time><pdop>4.0</pdop><geoidheight>51.00</geoidheight><course>57.1</course><type>1</type></trkpt>
      <trkpt lat="38.47640467" lon="-2.28823957"><ele>2532</ele><speed>15.51</speed><time>2016-06-02T13:25:52Z</time><pdop>4.0</pdop><geoidheight>51.00</geoidheight><course>56.9</course><type>1</type></trkpt>
      <trkpt lat="38.47647393" lon="-2.2880903"><ele>2530</ele><speed>15.89</speed><time>2016-06-02T13:25:53Z</time><pdop>4.0</pdop><geoidheight>51.00</geoidheight><course>57.0</course><type>1</type></trkpt>
      <trkpt lat="38.47651836" lon="-2.28793851"><ele>2524</ele><speed>16.19</speed><time>2016-06-02T13:25:54Z</time><pdop>3.0</pdop><geoidheight>51.00</geoidheight><course>59.2</course><type>1</type></trkpt>
      <trkpt lat="38.47658608" lon="-2.28777374"><ele>2520</ele><speed>16.72</speed><time>2016-06-02T13:25:55Z</time><pdop>3.0</pdop><geoidheight>51.00</geoidheight><course>60.7</course><type>1</type></trkpt>
      <trkpt lat="38.47666351" lon="-2.28760132"><ele>2518</ele><speed>17.11</speed><time>2016-06-02T13:25:56Z</time><pdop>3.0</pdop><geoidheight>51.00</geoidheight><course>61.3</course><type>1</type></trkpt>
      <trkpt lat="38.47673429" lon="-2.28743046"><ele>2516</ele><speed>17.00</speed><time>2016-06-02T13:25:57Z</time><pdop>4.0</pdop><geoidheight>51.00</geoidheight><course>62.1</course><type>1</type></trkpt>
      <trkpt lat="38.47678578" lon="-2.28727274"><ele>2512</ele><speed>16.42</speed><time>2016-06-02T13:25:58Z</time><pdop>4.0</pdop><geoidheight>51.00</geoidheight><course>63.7</course><type>1</type></trkpt>
      <trkpt lat="38.47683932" lon="-2.28710631"><ele>2510</ele><speed>16.36</speed><time>2016-06-02T13:25:59Z</time><pdop>4.0</pdop><geoidheight>51.00</geoidheight><course>64.1</course><type>1</type></trkpt>
      <trkpt lat="38.47690848" lon="-2.28693739"><ele>2508</ele><speed>16.51</speed><time>2016-06-02T13:26:00Z</time><pdop>4.0</pdop><geoidheight>51.00</geoidheight><course>63.4</course><type>1</type></trkpt>
      <trkpt lat="38.47697379" lon="-2.28678116"><ele>2505</ele><speed>16.37</speed><time>2016-06-02T13:26:01Z</time><pdop>4.0</pdop><geoidheight>51.00</geoidheight><course>62.8</course><type>1</type></trkpt>
      <trkpt lat="38.47704441" lon="-2.28661444"><ele>2502</ele><speed>16.54</speed><time>2016-06-02T13:26:02Z</time><pdop>4.0</pdop><geoidheight>51.00</geoidheight><course>61.3</course><type>1</type></trkpt>
      <trkpt lat="38.47711577" lon="-2.28645695"><ele>2500</ele><speed>16.28</speed><time>2016-06-02T13:26:03Z</time><pdop>4.0</pdop><geoidheight>51.00</geoidheight><course>60.2</course><type>1</type></trkpt>
      <trkpt lat="38.47719134" lon="-2.28629295"><ele>2496</ele><speed>16.49</speed><time>2016-06-02T13:26:04Z</time><pdop>4.0</pdop><geoidheight>51.00</geoidheight><course>61.7</course><type>1</type></trkpt>
      <trkpt lat="38.47724282" lon="-2.28612431"><ele>2492</ele><speed>16.52</speed><time>2016-06-02T13:26:05Z</time><pdop>4.0</pdop><geoidheight>51.00</geoidheight><course>64.5</course><type>1</type></trkpt>
      <trkpt lat="38.47730637" lon="-2.28594692"><ele>2491</ele><speed>16.96</speed><time>2016-06-02T13:26:06Z</time><pdop>4.0</pdop><geoidheight>51.00</geoidheight><course>66.3</course><type>1</type></trkpt>
      <trkpt lat="38.47737819" lon="-2.28577003"><ele>2488</ele><speed>17.08</speed><time>2016-06-02T13:26:07Z</time><pdop>4.0</pdop><geoidheight>51.00</geoidheight><course>65.8</course><type>1</type></trkpt>
      <trkpt lat="38.47743948" lon="-2.28558713"><ele>2486</ele><speed>17.31</speed><time>2016-06-02T13:26:08Z</time><pdop>4.0</pdop><geoidheight>51.00</geoidheight><course>65.7</course><type>1</type></trkpt>
      <trkpt lat="38.47751284" lon="-2.28540439"><ele>2485</ele><speed>17.63</speed><time>2016-06-02T13:26:09Z</time><pdop>4.0</pdop><geoidheight>51.00</geoidheight><course>64.0</course><type>1</type></trkpt>
      <trkpt lat="38.47759348" lon="-2.28523587"><ele>2484</ele><speed>17.53</speed><time>2016-06-02T13:26:10Z</time><pdop>4.0</pdop><geoidheight>51.00</geoidheight><course>61.3</course><type>1</type></trkpt>
      <trkpt lat="38.47767186" lon="-2.28506858"><ele>2483</ele><speed>17.27</speed><time>2016-06-02T13:26:11Z</time><pdop>4.0</pdop><geoidheight>51.00</geoidheight><course>59.2</course><type>1</type></trkpt>
      <trkpt lat="38.4777267" lon="-2.28490698"><ele>2481</ele><speed>17.38</speed><time>2016-06-02T13:26:12Z</time><pdop>4.0</pdop><geoidheight>51.00</geoidheight><course>59.0</course><type>1</type></trkpt>
      <trkpt lat="38.47780983" lon="-2.28473113"><ele>2479</ele><speed>17.53</speed><time>2016-06-02T13:26:13Z</time><pdop>4.0</pdop><geoidheight>51.00</geoidheight><course>58.9</course><type>1</type></trkpt>
      <trkpt lat="38.47789004" lon="-2.28456418"><ele>2476</ele><speed>17.68</speed><time>2016-06-02T13:26:14Z</time><pdop>4.0</pdop><geoidheight>51.00</geoidheight><course>60.6</course><type>1</type></trkpt>
      <trkpt lat="38.47795309" lon="-2.28439387"><ele>2475</ele><speed>17.41</speed><time>2016-06-02T13:26:15Z</time><pdop>5.0</pdop><geoidheight>51.00</geoidheight><course>62.9</course><type>1</type></trkpt>
      <trkpt lat="38.47800403" lon="-2.28420722"><ele>2474</ele><speed>17.35</speed><time>2016-06-02T13:26:16Z</time><pdop>4.0</pdop><geoidheight>51.00</geoidheight><course>68.0</course><type>1</type></trkpt>
      <trkpt lat="38.47804878" lon="-2.28401765"><ele>2472</ele><speed>16.89</speed><time>2016-06-02T13:26:17Z</time><pdop>4.0</pdop><geoidheight>51.00</geoidheight><course>70.2</course><type>1</type></trkpt>
      <trkpt lat="38.47806896" lon="-2.28385213"><ele>2467</ele><speed>16.67</speed><time>2016-06-02T13:26:18Z</time><pdop>4.0</pdop><geoidheight>51.00</geoidheight><course>72.6</course><type>1</type></trkpt>
      <trkpt lat="38.47811735" lon="-2.28367579"><ele>2467</ele><speed>16.95</speed><time>2016-06-02T13:26:19Z</time><pdop>5.0</pdop><geoidheight>51.00</geoidheight><course>72.9</course><type>1</type></trkpt>
      <trkpt lat="38.4781463" lon="-2.28347689"><ele>2467</ele><speed>17.09</speed><time>2016-06-02T13:26:20Z</time><pdop>5.0</pdop><geoidheight>51.00</geoidheight><course>75.1</course><type>1</type></trkpt>
      <trkpt lat="38.47817693" lon="-2.28330701"><ele>2465</ele><speed>16.98</speed><time>2016-06-02T13:26:21Z</time><pdop>5.0</pdop><geoidheight>51.00</geoidheight><course>74.7</course><type>1</type></trkpt>
      <trkpt lat="38.47821801" lon="-2.28311493"><ele>2462</ele><speed>17.98</speed><time>2016-06-02T13:26:22Z</time><pdop>6.0</pdop><geoidheight>51.00</geoidheight><course>73.5</course><type>1</type></trkpt>
      <trkpt lat="38.47825262" lon="-2.28291839"><ele>2461</ele><speed>18.25</speed><time>2016-06-02T13:26:23Z</time><pdop>5.0</pdop><geoidheight>51.00</geoidheight><course>73.3</course><type>1</type></trkpt>
      <trkpt lat="38.47829252" lon="-2.28273466"><ele>2458</ele><speed>18.02</speed><time>2016-06-02T13:26:24Z</time><pdop>6.0</pdop><geoidheight>51.00</geoidheight><course>74.4</course><type>1</type></trkpt>
      <trkpt lat="38.47832709" lon="-2.28253928"><ele>2456</ele><speed>17.99</speed><time>2016-06-02T13:26:25Z</time><pdop>5.0</pdop><geoidheight>51.00</geoidheight><course>76.3</course><type>1</type></trkpt>
      <trkpt lat="38.47835149" lon="-2.28235567"><ele>2455</ele><speed>17.42</speed><time>2016-06-02T13:26:26Z</time><pdop>6.0</pdop><geoidheight>51.00</geoidheight><course>78.3</course><type>1</type></trkpt>
      <trkpt lat="38.47839292" lon="-2.28216591"><ele>2455</ele><speed>16.96</speed><time>2016-06-02T13:26:27Z</time><pdop>10.0</pdop><geoidheight>51.00</geoidheight><course>77.1</course><type>1</type></trkpt>
      <trkpt lat="38.47845865" lon="-2.28181701"><ele>2454</ele><speed>15.34</speed><time>2016-06-02T13:26:29Z</time><pdop>10.0</pdop><geoidheight>51.00</geoidheight><course>78.0</course><type>1</type></trkpt>
      <trkpt lat="38.47852703" lon="-2.28153874"><ele>2455</ele><speed>13.20</speed><time>2016-06-02T13:26:31Z</time><pdop>11.0</pdop><geoidheight>51.00</geoidheight><course>76.7</course><type>1</type></trkpt>
      <trkpt lat="38.47859416" lon="-2.28124866"><ele>2460</ele><speed>12.91</speed><time>2016-06-02T13:26:33Z</time><pdop>10.0</pdop><geoidheight>51.00</geoidheight><course>73.2</course><type>1</type></trkpt>
      <trkpt lat="38.47860585" lon="-2.28097351"><ele>2464</ele><speed>11.68</speed><time>2016-06-02T13:26:35Z</time><pdop>9.0</pdop><geoidheight>51.00</geoidheight><course>82.2</course><type>1</type></trkpt>
      <trkpt lat="38.47866025" lon="-2.28069539"><ele>2467</ele><speed>12.19</speed><time>2016-06-02T13:26:37Z</time><pdop>9.0</pdop><geoidheight>51.00</geoidheight><course>77.4</course><type>1</type></trkpt>
      <trkpt lat="38.47870971" lon="-2.28041207"><ele>2468</ele><speed>12.61</speed><time>2016-06-02T13:26:39Z</time><pdop>9.0</pdop><geoidheight>51.00</geoidheight><course>76.1</course><type>1</type></trkpt>
      <trkpt lat="38.47876934" lon="-2.28011797"><ele>2470</ele><speed>13.22</speed><time>2016-06-02T13:26:41Z</time><pdop>9.0</pdop><geoidheight>51.00</geoidheight><course>75.5</course><type>1</type></trkpt>
      <trkpt lat="38.47883018" lon="-2.27980843"><ele>2471</ele><speed>13.78</speed><time>2016-06-02T13:26:43Z</time><pdop>10.0</pdop><geoidheight>51.00</geoidheight><course>76.2</course><type>1</type></trkpt>
      <trkpt lat="38.47889061" lon="-2.27950762"><ele>2473</ele><speed>13.46</speed><time>2016-06-02T13:26:45Z</time><pdop>10.0</pdop><geoidheight>51.00</geoidheight><course>75.1</course><type>1</type></trkpt>
      <trkpt lat="38.47894472" lon="-2.27920173"><ele>2474</ele><speed>13.66</speed><time>2016-06-02T13:26:47Z</time><pdop>10.0</pdop><geoidheight>51.00</geoidheight><course>75.1</course><type>1</type></trkpt>
      <trkpt lat="38.47899525" lon="-2.27885294"><ele>2475</ele><speed>15.16</speed><time>2016-06-02T13:26:49Z</time><pdop>10.0</pdop><geoidheight>51.00</geoidheight><course>79.2</course><type>1</type></trkpt>
      <trkpt lat="38.47905999" lon="-2.2784707"><ele>2478</ele><speed>16.19</speed><time>2016-06-02T13:26:51Z</time><pdop>10.0</pdop><geoidheight>51.00</geoidheight><course>78.1</course><type>1</type></trkpt>
      <trkpt lat="38.47911311" lon="-2.27813371"><ele>2482</ele><speed>14.39</speed><time>2016-06-02T13:26:53Z</time><pdop>10.0</pdop><geoidheight>51.00</geoidheight><course>77.9</course><type>1</type></trkpt>
      <trkpt lat="38.47916906" lon="-2.2778031"><ele>2483</ele><speed>13.99</speed><time>2016-06-02T13:26:55Z</time><pdop>10.0</pdop><geoidheight>51.00</geoidheight><course>76.2</course><type>1</type></trkpt>
      <trkpt lat="38.47926276" lon="-2.27750841"><ele>2484</ele><speed>14.48</speed><time>2016-06-02T13:26:57Z</time><pdop>10.0</pdop><geoidheight>51.00</geoidheight><course>69.5</course><type>1</type></trkpt>
      <trkpt lat="38.47938865" lon="-2.27713547"><ele>2485</ele><speed>17.13</speed><time>2016-06-02T13:26:59Z</time><pdop>10.0</pdop><geoidheight>51.00</geoidheight><course>67.3</course><type>1</type></trkpt>
      <trkpt lat="38.47954372" lon="-2.27671918"><ele>2486</ele><speed>18.70</speed><time>2016-06-02T13:27:01Z</time><pdop>11.0</pdop><geoidheight>51.00</geoidheight><course>66.1</course><type>1</type></trkpt>
      <trkpt lat="38.47963251" lon="-2.27635379"><ele>2490</ele><speed>17.64</speed><time>2016-06-02T13:27:03Z</time><pdop>10.0</pdop><geoidheight>51.00</geoidheight><course>69.8</course><type>1</type></trkpt>
      <trkpt lat="38.47975299" lon="-2.27600431"><ele>2498</ele><speed>15.54</speed><time>2016-06-02T13:27:05Z</time><pdop>9.0</pdop><geoidheight>51.00</geoidheight><course>71.0</course><type>1</type></trkpt>
      <trkpt lat="38.47982458" lon="-2.27571097"><ele>2501</ele><speed>13.46</speed><time>2016-06-02T13:27:07Z</time><pdop>9.0</pdop><geoidheight>51.00</geoidheight><course>70.0</course><type>1</type></trkpt>
      <trkpt lat="38.47992793" lon="-2.2754155"><ele>2503</ele><speed>14.71</speed><time>2016-06-02T13:27:09Z</time><pdop>9.0</pdop><geoidheight>51.00</geoidheight><course>67.9</course><type>1</type></trkpt>
      <trkpt lat="38.4800788" lon="-2.275092"><ele>2506</ele><speed>15.51</speed><time>2016-06-02T13:27:11Z</time><pdop>10.0</pdop><geoidheight>51.00</geoidheight><course>61.4</course><type>1</type></trkpt>
      <trkpt lat="38.48021966" lon="-2.2747852"><ele>2509</ele><speed>15.14</speed><time>2016-06-02T13:27:13Z</time><pdop>10.0</pdop><geoidheight>51.00</geoidheight><course>60.6</course><type>1</type></trkpt>
      <trkpt lat="38.48034167" lon="-2.27446555"><ele>2511</ele><speed>15.73</speed><time>2016-06-02T13:27:15Z</time><pdop>9.0</pdop><geoidheight>51.00</geoidheight><course>63.6</course><type>1</type></trkpt>
      <trkpt lat="38.48047023" lon="-2.27415528"><ele>2514</ele><speed>15.03</speed><time>2016-06-02T13:27:17Z</time><pdop>9.0</pdop><geoidheight>51.00</geoidheight><course>61.5</course><type>1</type></trkpt>
      <trkpt lat="38.4806174" lon="-2.27386702"><ele>2515</ele><speed>14.87</speed><time>2016-06-02T13:27:19Z</time><pdop>9.0</pdop><geoidheight>51.00</geoidheight><course>55.6</course><type>1</type></trkpt>
      <trkpt lat="38.48074884" lon="-2.27356841"><ele>2514</ele><speed>15.21</speed><time>2016-06-02T13:27:21Z</time><pdop>9.0</pdop><geoidheight>51.00</geoidheight><course>59.8</course><type>1</type></trkpt>
      <trkpt lat="38.48084003" lon="-2.27325292"><ele>2511</ele><speed>15.20</speed><time>2016-06-02T13:27:23Z</time><pdop>10.0</pdop><geoidheight>51.00</geoidheight><course>70.5</course><type>1</type></trkpt>
      <trkpt lat="38.4808443" lon="-2.27297599"><ele>2511</ele><speed>12.66</speed><time>2016-06-02T13:27:25Z</time><pdop>9.0</pdop><geoidheight>51.00</geoidheight><course>80.1</course><type>1</type></trkpt>
      <trkpt lat="38.48086069" lon="-2.27265722"><ele>2510</ele><speed>13.94</speed><time>2016-06-02T13:27:27Z</time><pdop>10.0</pdop><geoidheight>51.00</geoidheight><course>82.3</course><type>1</type></trkpt>
      <trkpt lat="38.48093822" lon="-2.27228864"><ele>2510</ele><speed>16.50</speed><time>2016-06-02T13:27:29Z</time><pdop>11.0</pdop><geoidheight>51.00</geoidheight><course>76.4</course><type>1</type></trkpt>
      <trkpt lat="38.48108307" lon="-2.27188567"><ele>2506</ele><speed>19.00</speed><time>2016-06-02T13:27:31Z</time><pdop>10.0</pdop><geoidheight>51.00</geoidheight><course>68.8</course><type>1</type></trkpt>
      <trkpt lat="38.48120872" lon="-2.27145722"><ele>2504</ele><speed>20.11</speed><time>2016-06-02T13:27:33Z</time><pdop>10.0</pdop><geoidheight>51.00</geoidheight><course>71.1</course><type>1</type></trkpt>
      <trkpt lat="38.48128175" lon="-2.2712424"><ele>2505</ele><speed>19.81</speed><time>2016-06-02T13:27:34Z</time><pdop>10.0</pdop><geoidheight>51.00</geoidheight><course>70.0</course><type>1</type></trkpt>
      <trkpt lat="38.48141369" lon="-2.27086819"><ele>2505</ele><speed>18.03</speed><time>2016-06-02T13:27:36Z</time><pdop>10.0</pdop><geoidheight>51.00</geoidheight><course>69.4</course><type>1</type></trkpt>
      <trkpt lat="38.48152086" lon="-2.27048579"><ele>2503</ele><speed>17.80</speed><time>2016-06-02T13:27:38Z</time><pdop>10.0</pdop><geoidheight>51.00</geoidheight><course>72.9</course><type>1</type></trkpt>
      <trkpt lat="38.48158166" lon="-2.27008898"><ele>2503</ele><speed>17.76</speed><time>2016-06-02T13:27:40Z</time><pdop>9.0</pdop><geoidheight>51.00</geoidheight><course>79.0</course><type>1</type></trkpt>
      <trkpt lat="38.48165446" lon="-2.26967782"><ele>2504</ele><speed>17.99</speed><time>2016-06-02T13:27:42Z</time><pdop>9.0</pdop><geoidheight>51.00</geoidheight><course>76.5</course><type>1</type></trkpt>
      <trkpt lat="38.48169897" lon="-2.26947765"><ele>2506</ele><speed>17.79</speed><time>2016-06-02T13:27:43Z</time><pdop>9.0</pdop><geoidheight>51.00</geoidheight><course>75.2</course><type>1</type></trkpt>
      <trkpt lat="38.48178389" lon="-2.26912391"><ele>2508</ele><speed>15.78</speed><time>2016-06-02T13:27:45Z</time><pdop>9.0</pdop><geoidheight>51.00</geoidheight><course>72.7</course><type>1</type></trkpt>
      <trkpt lat="38.48189042" lon="-2.26879239"><ele>2508</ele><speed>15.36</speed><time>2016-06-02T13:27:47Z</time><pdop>9.0</pdop><geoidheight>51.00</geoidheight><course>67.0</course><type>1</type></trkpt>
      <trkpt lat="38.48200424" lon="-2.26846876"><ele>2507</ele><speed>15.42</speed><time>2016-06-02T13:27:49Z</time><pdop>9.0</pdop><geoidheight>51.00</geoidheight><course>64.4</course><type>1</type></trkpt>
      <trkpt lat="38.48209588" lon="-2.26812464"><ele>2506</ele><speed>16.13</speed><time>2016-06-02T13:27:51Z</time><pdop>9.0</pdop><geoidheight>51.00</geoidheight><course>70.2</course><type>1</type></trkpt>
      <trkpt lat="38.48216611" lon="-2.26779596"><ele>2504</ele><speed>15.40</speed><time>2016-06-02T13:27:53Z</time><pdop>9.0</pdop><geoidheight>51.00</geoidheight><course>76.2</course><type>1</type></trkpt>
      <trkpt lat="38.4822151" lon="-2.26744286"><ele>2503</ele><speed>15.85</speed><time>2016-06-02T13:27:55Z</time><pdop>9.0</pdop><geoidheight>51.00</geoidheight><course>77.3</course><type>1</type></trkpt>
      <trkpt lat="38.48225819" lon="-2.26705006"><ele>2501</ele><speed>17.79</speed><time>2016-06-02T13:27:57Z</time><pdop>10.0</pdop><geoidheight>51.00</geoidheight><course>79.6</course><type>1</type></trkpt>
      <trkpt lat="38.48235059" lon="-2.26665274"><ele>2496</ele><speed>18.26</speed><time>2016-06-02T13:27:59Z</time><pdop>10.0</pdop><geoidheight>51.00</geoidheight><course>73.8</course><type>1</type></trkpt>
      <trkpt lat="38.48242497" lon="-2.26627183"><ele>2491</ele><speed>17.53</speed><time>2016-06-02T13:28:01Z</time><pdop>10.0</pdop><geoidheight>51.00</geoidheight><course>74.1</course><type>1</type></trkpt>
      <trkpt lat="38.4825059" lon="-2.26587209"><ele>2482</ele><speed>19.24</speed><time>2016-06-02T13:28:03Z</time><pdop>11.0</pdop><geoidheight>51.00</geoidheight><course>77.0</course><type>1</type></trkpt>
      <trkpt lat="38.48257128" lon="-2.26541455"><ele>2477</ele><speed>20.06</speed><time>2016-06-02T13:28:05Z</time><pdop>11.0</pdop><geoidheight>51.00</geoidheight><course>79.8</course><type>1</type></trkpt>
      <trkpt lat="38.48262329" lon="-2.26501141"><ele>2471</ele><speed>18.52</speed><time>2016-06-02T13:28:07Z</time><pdop>10.0</pdop><geoidheight>51.00</geoidheight><course>80.7</course><type>1</type></trkpt>
      <trkpt lat="38.48267131" lon="-2.26461525"><ele>2467</ele><speed>17.56</speed><time>2016-06-02T13:28:09Z</time><pdop>10.0</pdop><geoidheight>51.00</geoidheight><course>81.0</course><type>1</type></trkpt>
      <trkpt lat="38.48273403" lon="-2.26420774"><ele>2459</ele><speed>18.28</speed><time>2016-06-02T13:28:11Z</time><pdop>10.0</pdop><geoidheight>51.00</geoidheight><course>81.4</course><type>1</type></trkpt>
      <trkpt lat="38.48277259" lon="-2.2638117"><ele>2453</ele><speed>17.94</speed><time>2016-06-02T13:28:13Z</time><pdop>10.0</pdop><geoidheight>51.00</geoidheight><course>81.7</course><type>1</type></trkpt>
      <trkpt lat="38.48283192" lon="-2.26344124"><ele>2450</ele><speed>16.52</speed><time>2016-06-02T13:28:15Z</time><pdop>10.0</pdop><geoidheight>51.00</geoidheight><course>77.5</course><type>1</type></trkpt>
      <trkpt lat="38.48288642" lon="-2.26308944"><ele>2445</ele><speed>16.06</speed><time>2016-06-02T13:28:17Z</time><pdop>10.0</pdop><geoidheight>51.00</geoidheight><course>77.8</course><type>1</type></trkpt>
      <trkpt lat="38.48296556" lon="-2.26270549"><ele>2440</ele><speed>17.69</speed><time>2016-06-02T13:28:19Z</time><pdop>9.0</pdop><geoidheight>51.00</geoidheight><course>76.3</course><type>1</type></trkpt>
      <trkpt lat="38.48300847" lon="-2.2624949"><ele>2435</ele><speed>18.94</speed><time>2016-06-02T13:28:20Z</time><pdop>9.0</pdop><geoidheight>51.00</geoidheight><course>76.6</course><type>1</type></trkpt>
      <trkpt lat="38.48303048" lon="-2.26226594"><ele>2430</ele><speed>20.66</speed><time>2016-06-02T13:28:21Z</time><pdop>9.0</pdop><geoidheight>51.00</geoidheight><course>78.4</course><type>1</type></trkpt>
      <trkpt lat="38.48306515" lon="-2.26202631"><ele>2427</ele><speed>21.19</speed><time>2016-06-02T13:28:22Z</time><pdop>9.0</pdop><geoidheight>51.00</geoidheight><course>79.7</course><type>1</type></trkpt>
      <trkpt lat="38.48310022" lon="-2.26180117"><ele>2427</ele><speed>20.01</speed><time>2016-06-02T13:28:23Z</time><pdop>9.0</pdop><geoidheight>51.00</geoidheight><course>80.7</course><type>1</type></trkpt>
      <trkpt lat="38.48315069" lon="-2.26141573"><ele>2425</ele><speed>16.56</speed><time>2016-06-02T13:28:25Z</time><pdop>9.0</pdop><geoidheight>51.00</geoidheight><course>81.0</course><type>1</type></trkpt>
      <trkpt lat="38.4832034" lon="-2.26104825"><ele>2422</ele><speed>16.91</speed><time>2016-06-02T13:28:27Z</time><pdop>9.0</pdop><geoidheight>51.00</geoidheight><course>79.3</course><type>1</type></trkpt>
      <trkpt lat="38.48326453" lon="-2.26082075"><ele>2420</ele><speed>19.31</speed><time>2016-06-02T13:28:28Z</time><pdop>9.0</pdop><geoidheight>51.00</geoidheight><course>74.6</course><type>1</type></trkpt>
      <trkpt lat="38.48331665" lon="-2.26059261"><ele>2418</ele><speed>20.71</speed><time>2016-06-02T13:28:29Z</time><pdop>9.0</pdop><geoidheight>51.00</geoidheight><course>74.1</course><type>1</type></trkpt>
      <trkpt lat="38.4833529" lon="-2.26035084"><ele>2417</ele><speed>21.07</speed><time>2016-06-02T13:28:30Z</time><pdop>9.0</pdop><geoidheight>51.00</geoidheight><course>77.0</course><type>1</type></trkpt>
      <trkpt lat="38.48336081" lon="-2.26013969"><ele>2415</ele><speed>19.77</speed><time>2016-06-02T13:28:31Z</time><pdop>9.0</pdop><geoidheight>51.00</geoidheight><course>82.2</course><type>1</type></trkpt>
      <trkpt lat="38.48338488" lon="-2.25993463"><ele>2414</ele><speed>18.32</speed><time>2016-06-02T13:28:32Z</time><pdop>9.0</pdop><geoidheight>51.00</geoidheight><course>84.1</course><type>1</type></trkpt>
      <trkpt lat="38.48340274" lon="-2.2597502"><ele>2411</ele><speed>17.32</speed><time>2016-06-02T13:28:33Z</time><pdop>4.0</pdop><geoidheight>51.00</geoidheight><course>84.1</course><type>1</type></trkpt>
      <trkpt lat="38.48341697" lon="-2.25955944"><ele>2409</ele><speed>17.27</speed><time>2016-06-02T13:28:34Z</time><pdop>4.0</pdop><geoidheight>51.00</geoidheight><course>83.5</course><type>1</type></trkpt>
      <trkpt lat="38.48344279" lon="-2.25935281"><ele>2408</ele><speed>17.79</speed><time>2016-06-02T13:28:35Z</time><pdop>4.0</pdop><geoidheight>51.00</geoidheight><course>82.1</course><type>1</type></trkpt>
      <trkpt lat="38.48345672" lon="-2.25914483"><ele>2406</ele><speed>18.66</speed><time>2016-06-02T13:28:36Z</time><pdop>4.0</pdop><geoidheight>51.00</geoidheight><course>81.6</course><type>1</type></trkpt>
      <trkpt lat="38.48347293" lon="-2.25892864"><ele>2403</ele><speed>19.27</speed><time>2016-06-02T13:28:37Z</time><pdop>3.0</pdop><geoidheight>51.00</geoidheight><course>82.6</course><type>1</type></trkpt>
      <trkpt lat="38.48348567" lon="-2.25870536"><ele>2403</ele><speed>19.26</speed><time>2016-06-02T13:28:38Z</time><pdop>3.0</pdop><geoidheight>51.00</geoidheight><course>82.5</course><type>1</type></trkpt>
      <trkpt lat="38.4835058" lon="-2.2585064"><ele>2402</ele><speed>18.63</speed><time>2016-06-02T13:28:39Z</time><pdop>4.0</pdop><geoidheight>51.00</geoidheight><course>82.5</course><type>1</type></trkpt>
      <trkpt lat="38.48354525" lon="-2.25829732"><ele>2401</ele><speed>18.28</speed><time>2016-06-02T13:28:40Z</time><pdop>4.0</pdop><geoidheight>51.00</geoidheight><course>79.1</course><type>1</type></trkpt>
      <trkpt lat="38.48357049" lon="-2.25809799"><ele>2399</ele><speed>18.16</speed><time>2016-06-02T13:28:41Z</time><pdop>3.0</pdop><geoidheight>51.00</geoidheight><course>79.5</course><type>1</type></trkpt>
      <trkpt lat="38.48359218" lon="-2.25789042"><ele>2400</ele><speed>18.62</speed><time>2016-06-02T13:28:42Z</time><pdop>4.0</pdop><geoidheight>51.00</geoidheight><course>81.1</course><type>1</type></trkpt>
      <trkpt lat="38.48361298" lon="-2.25767381"><ele>2400</ele><speed>18.81</speed><time>2016-06-02T13:28:43Z</time><pdop>3.0</pdop><geoidheight>51.00</geoidheight><course>81.8</course><type>1</type></trkpt>
      <trkpt lat="38.48363396" lon="-2.25746257"><ele>2399</ele><speed>18.47</speed><time>2016-06-02T13:28:44Z</time><pdop>4.0</pdop><geoidheight>51.00</geoidheight><course>81.8</course><type>1</type></trkpt>
      <trkpt lat="38.48366163" lon="-2.25725971"><ele>2398</ele><speed>18.00</speed><time>2016-06-02T13:28:45Z</time><pdop>4.0</pdop><geoidheight>51.00</geoidheight><course>81.2</course><type>1</type></trkpt>
      <trkpt lat="38.48369535" lon="-2.25707316"><ele>2397</ele><speed>17.46</speed><time>2016-06-02T13:28:46Z</time><pdop>4.0</pdop><geoidheight>51.00</geoidheight><course>81.4</course><type>1</type></trkpt>
      <trkpt lat="38.48371714" lon="-2.25687255"><ele>2396</ele><speed>17.60</speed><time>2016-06-02T13:28:47Z</time><pdop>4.0</pdop><geoidheight>51.00</geoidheight><course>80.8</course><type>1</type></trkpt>
      <trkpt lat="38.48374393" lon="-2.25668196"><ele>2391</ele><speed>17.51</speed><time>2016-06-02T13:28:48Z</time><pdop>4.0</pdop><geoidheight>51.00</geoidheight><course>80.8</course><type>1</type></trkpt>
      <trkpt lat="38.48377318" lon="-2.25647294"><ele>2388</ele><speed>18.41</speed><time>2016-06-02T13:28:49Z</time><pdop>4.0</pdop><geoidheight>51.00</geoidheight><course>81.2</course><type>1</type></trkpt>
      <trkpt lat="38.48379829" lon="-2.25625926"><ele>2386</ele><speed>18.95</speed><time>2016-06-02T13:28:50Z</time><pdop>4.0</pdop><geoidheight>51.00</geoidheight><course>81.4</course><type>1</type></trkpt>
      <trkpt lat="38.48382046" lon="-2.25605441"><ele>2383</ele><speed>18.99</speed><time>2016-06-02T13:28:51Z</time><pdop>4.0</pdop><geoidheight>51.00</geoidheight><course>81.5</course><type>1</type></trkpt>
      <trkpt lat="38.48383531" lon="-2.25583714"><ele>2381</ele><speed>18.87</speed><time>2016-06-02T13:28:52Z</time><pdop>4.0</pdop><geoidheight>51.00</geoidheight><course>82.5</course><type>1</type></trkpt>
      <trkpt lat="38.48384097" lon="-2.25563596"><ele>2380</ele><speed>18.28</speed><time>2016-06-02T13:28:53Z</time><pdop>4.0</pdop><geoidheight>51.00</geoidheight><course>85.0</course><type>1</type></trkpt>
      <trkpt lat="38.48384349" lon="-2.25543819"><ele>2377</ele><speed>17.55</speed><time>2016-06-02T13:28:54Z</time><pdop>4.0</pdop><geoidheight>51.00</geoidheight><course>87.2</course><type>1</type></trkpt>
      <trkpt lat="38.48384966" lon="-2.25524514"><ele>2375</ele><speed>17.35</speed><time>2016-06-02T13:28:55Z</time><pdop>4.0</pdop><geoidheight>51.00</geoidheight><course>86.1</course><type>1</type></trkpt>
      <trkpt lat="38.48387214" lon="-2.25505196"><ele>2372</ele><speed>17.81</speed><time>2016-06-02T13:28:56Z</time><pdop>4.0</pdop><geoidheight>51.00</geoidheight><course>82.7</course><type>1</type></trkpt>
      <trkpt lat="38.48390542" lon="-2.25485355"><ele>2371</ele><speed>17.77</speed><time>2016-06-02T13:28:57Z</time><pdop>4.0</pdop><geoidheight>51.00</geoidheight><course>79.5</course><type>1</type></trkpt>
      <trkpt lat="38.48393852" lon="-2.25465745"><ele>2370</ele><speed>17.75</speed><time>2016-06-02T13:28:58Z</time><pdop>4.0</pdop><geoidheight>51.00</geoidheight><course>78.0</course><type>1</type></trkpt>
      <trkpt lat="38.48397176" lon="-2.25446576"><ele>2369</ele><speed>17.37</speed><time>2016-06-02T13:28:59Z</time><pdop>4.0</pdop><geoidheight>51.00</geoidheight><course>77.8</course><type>1</type></trkpt>
      <trkpt lat="38.48398634" lon="-2.2542651"><ele>2368</ele><speed>17.70</speed><time>2016-06-02T13:29:00Z</time><pdop>4.0</pdop><geoidheight>51.00</geoidheight><course>79.8</course><type>1</type></trkpt>
      <trkpt lat="38.48399792" lon="-2.25406093"><ele>2368</ele><speed>18.22</speed><time>2016-06-02T13:29:01Z</time><pdop>4.0</pdop><geoidheight>51.00</geoidheight><course>81.0</course><type>1</type></trkpt>
      <trkpt lat="38.48402729" lon="-2.2538513"><ele>2367</ele><speed>18.50</speed><time>2016-06-02T13:29:02Z</time><pdop>4.0</pdop><geoidheight>51.00</geoidheight><course>80.7</course><type>1</type></trkpt>
      <trkpt lat="38.48406222" lon="-2.25363245"><ele>2366</ele><speed>19.19</speed><time>2016-06-02T13:29:03Z</time><pdop>4.0</pdop><geoidheight>51.00</geoidheight><course>80.1</course><type>1</type></trkpt>
      <trkpt lat="38.48409573" lon="-2.25341186"><ele>2365</ele><speed>19.44</speed><time>2016-06-02T13:29:04Z</time><pdop>4.0</pdop><geoidheight>51.00</geoidheight><course>80.0</course><type>1</type></trkpt>
      <trkpt lat="38.48411754" lon="-2.25320253"><ele>2364</ele><speed>19.11</speed><time>2016-06-02T13:29:05Z</time><pdop>5.0</pdop><geoidheight>51.00</geoidheight><course>81.2</course><type>1</type></trkpt>
      <trkpt lat="38.48413975" lon="-2.25298748"><ele>2363</ele><speed>19.05</speed><time>2016-06-02T13:29:06Z</time><pdop>5.0</pdop><geoidheight>51.00</geoidheight><course>81.8</course><type>1</type></trkpt>
      <trkpt lat="38.4841541" lon="-2.25280864"><ele>2359</ele><speed>18.30</speed><time>2016-06-02T13:29:07Z</time><pdop>6.0</pdop><geoidheight>51.00</geoidheight><course>82.5</course><type>1</type></trkpt>
      <trkpt lat="38.48417071" lon="-2.25259219"><ele>2358</ele><speed>18.52</speed><time>2016-06-02T13:29:08Z</time><pdop>6.0</pdop><geoidheight>51.00</geoidheight><course>82.9</course><type>1</type></trkpt>
      <trkpt lat="38.48420743" lon="-2.25237329"><ele>2358</ele><speed>18.56</speed><time>2016-06-02T13:29:09Z</time><pdop>6.0</pdop><geoidheight>51.00</geoidheight><course>80.0</course><type>1</type></trkpt>
      <trkpt lat="38.48422833" lon="-2.25217376"><ele>2355</ele><speed>18.54</speed><time>2016-06-02T13:29:10Z</time><pdop>7.0</pdop><geoidheight>51.00</geoidheight><course>78.3</course><type>1</type></trkpt>
      <trkpt lat="38.48426291" lon="-2.25196415"><ele>2353</ele><speed>19.11</speed><time>2016-06-02T13:29:11Z</time><pdop>6.0</pdop><geoidheight>51.00</geoidheight><course>77.6</course><type>1</type></trkpt>
      <trkpt lat="38.48428674" lon="-2.25173863"><ele>2350</ele><speed>19.71</speed><time>2016-06-02T13:29:12Z</time><pdop>6.0</pdop><geoidheight>51.00</geoidheight><course>79.8</course><type>1</type></trkpt>
      <trkpt lat="38.48430887" lon="-2.25150029"><ele>2348</ele><speed>20.03</speed><time>2016-06-02T13:29:13Z</time><pdop>5.0</pdop><geoidheight>51.00</geoidheight><course>82.0</course><type>1</type></trkpt>
      <trkpt lat="38.48434316" lon="-2.25127399"><ele>2347</ele><speed>20.09</speed><time>2016-06-02T13:29:14Z</time><pdop>5.0</pdop><geoidheight>51.00</geoidheight><course>81.3</course><type>1</type></trkpt>
      <trkpt lat="38.48437325" lon="-2.2510406"><ele>2346</ele><speed>19.96</speed><time>2016-06-02T13:29:15Z</time><pdop>6.0</pdop><geoidheight>51.00</geoidheight><course>80.6</course><type>1</type></trkpt>
      <trkpt lat="38.48442562" lon="-2.2508575"><ele>2343</ele><speed>19.02</speed><time>2016-06-02T13:29:16Z</time><pdop>6.0</pdop><geoidheight>51.00</geoidheight><course>75.2</course><type>1</type></trkpt>
      <trkpt lat="38.48447656" lon="-2.25065476"><ele>2341</ele><speed>18.57</speed><time>2016-06-02T13:29:17Z</time><pdop>6.0</pdop><geoidheight>51.00</geoidheight><course>73.3</course><type>1</type></trkpt>
      <trkpt lat="38.48451177" lon="-2.2504616"><ele>2340</ele><speed>18.02</speed><time>2016-06-02T13:29:18Z</time><pdop>5.0</pdop><geoidheight>51.00</geoidheight><course>74.3</course><type>1</type></trkpt>
      <trkpt lat="38.4845448" lon="-2.25026875"><ele>2338</ele><speed>18.46</speed><time>2016-06-02T13:29:19Z</time><pdop>5.0</pdop><geoidheight>51.00</geoidheight><course>75.5</course><type>1</type></trkpt>
      <trkpt lat="38.48460021" lon="-2.25005357"><ele>2336</ele><speed>19.35</speed><time>2016-06-02T13:29:20Z</time><pdop>5.0</pdop><geoidheight>51.00</geoidheight><course>74.5</course><type>1</type></trkpt>
      <trkpt lat="38.48465012" lon="-2.24983592"><ele>2334</ele><speed>19.60</speed><time>2016-06-02T13:29:21Z</time><pdop>5.0</pdop><geoidheight>51.00</geoidheight><course>72.8</course><type>1</type></trkpt>
      <trkpt lat="38.4847074" lon="-2.24961519"><ele>2333</ele><speed>20.20</speed><time>2016-06-02T13:29:22Z</time><pdop>5.0</pdop><geoidheight>51.00</geoidheight><course>72.6</course><type>1</type></trkpt>
      <trkpt lat="38.4847534" lon="-2.2493898"><ele>2329</ele><speed>20.35</speed><time>2016-06-02T13:29:23Z</time><pdop>4.0</pdop><geoidheight>51.00</geoidheight><course>74.0</course><type>1</type></trkpt>
      <trkpt lat="38.48479956" lon="-2.24916916"><ele>2328</ele><speed>19.99</speed><time>2016-06-02T13:29:24Z</time><pdop>5.0</pdop><geoidheight>51.00</geoidheight><course>74.5</course><type>1</type></trkpt>
      <trkpt lat="38.48485216" lon="-2.24894987"><ele>2328</ele><speed>19.68</speed><time>2016-06-02T13:29:25Z</time><pdop>5.0</pdop><geoidheight>51.00</geoidheight><course>73.9</course><type>1</type></trkpt>
      <trkpt lat="38.48487046" lon="-2.24876026"><ele>2324</ele><speed>18.48</speed><time>2016-06-02T13:29:26Z</time><pdop>4.0</pdop><geoidheight>51.00</geoidheight><course>75.1</course><type>1</type></trkpt>
      <trkpt lat="38.4849235" lon="-2.24855622"><ele>2324</ele><speed>18.52</speed><time>2016-06-02T13:29:27Z</time><pdop>4.0</pdop><geoidheight>51.00</geoidheight><course>74.2</course><type>1</type></trkpt>
      <trkpt lat="38.48496228" lon="-2.24835271"><ele>2323</ele><speed>18.58</speed><time>2016-06-02T13:29:28Z</time><pdop>5.0</pdop><geoidheight>51.00</geoidheight><course>74.3</course><type>1</type></trkpt>
      <trkpt lat="38.48499186" lon="-2.24817062"><ele>2320</ele><speed>18.04</speed><time>2016-06-02T13:29:29Z</time><pdop>6.0</pdop><geoidheight>51.00</geoidheight><course>75.1</course><type>1</type></trkpt>
      <trkpt lat="38.48502407" lon="-2.24797165"><ele>2319</ele><speed>18.20</speed><time>2016-06-02T13:29:30Z</time><pdop>6.0</pdop><geoidheight>51.00</geoidheight><course>75.5</course><type>1</type></trkpt>
      <trkpt lat="38.48508348" lon="-2.24775806"><ele>2317</ele><speed>19.29</speed><time>2016-06-02T13:29:31Z</time><pdop>5.0</pdop><geoidheight>51.00</geoidheight><course>73.9</course><type>1</type></trkpt>
      <trkpt lat="38.48513968" lon="-2.24754264"><ele>2315</ele><speed>19.97</speed><time>2016-06-02T13:29:32Z</time><pdop>5.0</pdop><geoidheight>51.00</geoidheight><course>74.3</course><type>1</type></trkpt>
      <trkpt lat="38.48518962" lon="-2.24733843"><ele>2313</ele><speed>19.82</speed><time>2016-06-02T13:29:33Z</time><pdop>5.0</pdop><geoidheight>51.00</geoidheight><course>74.0</course><type>1</type></trkpt>
      <trkpt lat="38.48524002" lon="-2.24712418"><ele>2311</ele><speed>20.19</speed><time>2016-06-02T13:29:34Z</time><pdop>5.0</pdop><geoidheight>51.00</geoidheight><course>73.5</course><type>1</type></trkpt>
      <trkpt lat="38.48527937" lon="-2.24689482"><ele>2308</ele><speed>20.86</speed><time>2016-06-02T13:29:35Z</time><pdop>10.0</pdop><geoidheight>51.00</geoidheight><course>74.6</course><type>1</type></trkpt>
      <trkpt lat="38.48531419" lon="-2.2466373"><ele>2305</ele><speed>22.70</speed><time>2016-06-02T13:29:36Z</time><pdop>10.0</pdop><geoidheight>51.00</geoidheight><course>77.4</course><type>1</type></trkpt>
      <trkpt lat="38.48533533" lon="-2.24638025"><ele>2303</ele><speed>22.78</speed><time>2016-06-02T13:29:37Z</time><pdop>10.0</pdop><geoidheight>51.00</geoidheight><course>79.3</course><type>1</type></trkpt>
      <trkpt lat="38.48536006" lon="-2.24614584"><ele>2300</ele><speed>20.76</speed><time>2016-06-02T13:29:38Z</time><pdop>9.0</pdop><geoidheight>51.00</geoidheight><course>81.2</course><type>1</type></trkpt>
      <trkpt lat="38.48539039" lon="-2.24594212"><ele>2297</ele><speed>18.70</speed><time>2016-06-02T13:29:39Z</time><pdop>9.0</pdop><geoidheight>51.00</geoidheight><course>82.3</course><type>1</type></trkpt>
      <trkpt lat="38.48544471" lon="-2.24553676"><ele>2294</ele><speed>18.11</speed><time>2016-06-02T13:29:41Z</time><pdop>10.0</pdop><geoidheight>51.00</geoidheight><course>82.3</course><type>1</type></trkpt>
      <trkpt lat="38.48550836" lon="-2.2450983"><ele>2289</ele><speed>19.90</speed><time>2016-06-02T13:29:43Z</time><pdop>10.0</pdop><geoidheight>51.00</geoidheight><course>79.1</course><type>1</type></trkpt>
      <trkpt lat="38.48554791" lon="-2.24467911"><ele>2280</ele><speed>20.49</speed><time>2016-06-02T13:29:45Z</time><pdop>10.0</pdop><geoidheight>51.00</geoidheight><course>80.4</course><type>1</type></trkpt>
      <trkpt lat="38.48555574" lon="-2.24444931"><ele>2277</ele><speed>20.51</speed><time>2016-06-02T13:29:46Z</time><pdop>10.0</pdop><geoidheight>51.00</geoidheight><course>82.5</course><type>1</type></trkpt>
      <trkpt lat="38.48558377" lon="-2.24420151"><ele>2276</ele><speed>21.22</speed><time>2016-06-02T13:29:47Z</time><pdop>10.0</pdop><geoidheight>51.00</geoidheight><course>82.9</course><type>1</type></trkpt>
      <trkpt lat="38.48565341" lon="-2.2437679"><ele>2272</ele><speed>20.42</speed><time>2016-06-02T13:29:49Z</time><pdop>10.0</pdop><geoidheight>51.00</geoidheight><course>77.4</course><type>1</type></trkpt>
      <trkpt lat="38.48575183" lon="-2.24336094"><ele>2270</ele><speed>18.66</speed><time>2016-06-02T13:29:51Z</time><pdop>10.0</pdop><geoidheight>51.00</geoidheight><course>74.5</course><type>1</type></trkpt>
      <trkpt lat="38.4858312" lon="-2.24292096"><ele>2266</ele><speed>19.20</speed><time>2016-06-02T13:29:53Z</time><pdop>10.0</pdop><geoidheight>51.00</geoidheight><course>76.7</course><type>1</type></trkpt>
      <trkpt lat="38.48587803" lon="-2.24268335"><ele>2266</ele><speed>20.03</speed><time>2016-06-02T13:29:54Z</time><pdop>10.0</pdop><geoidheight>51.00</geoidheight><course>75.4</course><type>1</type></trkpt>
      <trkpt lat="38.4859273" lon="-2.24245933"><ele>2264</ele><speed>20.99</speed><time>2016-06-02T13:29:55Z</time><pdop>10.0</pdop><geoidheight>51.00</geoidheight><course>74.3</course><type>1</type></trkpt>
      <trkpt lat="38.48602599" lon="-2.24201164"><ele>2261</ele><speed>20.60</speed><time>2016-06-02T13:29:57Z</time><pdop>11.0</pdop><geoidheight>51.00</geoidheight><course>73.9</course><type>1</type></trkpt>
      <trkpt lat="38.48610469" lon="-2.2415598"><ele>2258</ele><speed>19.89</speed><time>2016-06-02T13:29:59Z</time><pdop>11.0</pdop><geoidheight>51.00</geoidheight><course>75.3</course><type>1</type></trkpt>
      <trkpt lat="38.48619651" lon="-2.24124623"><ele>2249</ele><speed>17.50</speed><time>2016-06-02T13:30:01Z</time><pdop>12.0</pdop><geoidheight>51.00</geoidheight><course>72.4</course><type>1</type></trkpt>
      <trkpt lat="38.48639516" lon="-2.24091976"><ele>2247</ele><speed>16.27</speed><time>2016-06-02T13:30:03Z</time><pdop>11.0</pdop><geoidheight>51.00</geoidheight><course>57.7</course><type>1</type></trkpt>
      <trkpt lat="38.48651939" lon="-2.24057723"><ele>2245</ele><speed>17.59</speed><time>2016-06-02T13:30:05Z</time><pdop>12.0</pdop><geoidheight>51.00</geoidheight><course>62.3</course><type>1</type></trkpt>
      <trkpt lat="38.48666512" lon="-2.2401627"><ele>2241</ele><speed>20.04</speed><time>2016-06-02T13:30:07Z</time><pdop>12.0</pdop><geoidheight>51.00</geoidheight><course>66.2</course><type>1</type></trkpt>
      <trkpt lat="38.48673885" lon="-2.23979722"><ele>2233</ele><speed>20.54</speed><time>2016-06-02T13:30:09Z</time><pdop>12.0</pdop><geoidheight>51.00</geoidheight><course>71.7</course><type>1</type></trkpt>
      <trkpt lat="38.48683574" lon="-2.23936995"><ele>2229</ele><speed>18.19</speed><time>2016-06-02T13:30:11Z</time><pdop>12.0</pdop><geoidheight>51.00</geoidheight><course>74.2</course><type>1</type></trkpt>
      <trkpt lat="38.4869383" lon="-2.23898046"><ele>2224</ele><speed>18.19</speed><time>2016-06-02T13:30:13Z</time><pdop>12.0</pdop><geoidheight>51.00</geoidheight><course>71.2</course><type>1</type></trkpt>
      <trkpt lat="38.48706225" lon="-2.23859971"><ele>2222</ele><speed>18.24</speed><time>2016-06-02T13:30:15Z</time><pdop>12.0</pdop><geoidheight>51.00</geoidheight><course>68.0</course><type>1</type></trkpt>
      <trkpt lat="38.48712282" lon="-2.23822237"><ele>2214</ele><speed>19.22</speed><time>2016-06-02T13:30:17Z</time><pdop>11.0</pdop><geoidheight>51.00</geoidheight><course>72.0</course><type>1</type></trkpt>
      <trkpt lat="38.48721326" lon="-2.23780427"><ele>2212</ele><speed>18.26</speed><time>2016-06-02T13:30:19Z</time><pdop>11.0</pdop><geoidheight>51.00</geoidheight><course>74.1</course><type>1</type></trkpt>
      <trkpt lat="38.4873154" lon="-2.23740425"><ele>2209</ele><speed>18.09</speed><time>2016-06-02T13:30:21Z</time><pdop>11.0</pdop><geoidheight>51.00</geoidheight><course>72.7</course><type>1</type></trkpt>
      <trkpt lat="38.4874094" lon="-2.23702368"><ele>2202</ele><speed>17.86</speed><time>2016-06-02T13:30:23Z</time><pdop>6.0</pdop><geoidheight>51.00</geoidheight><course>71.0</course><type>1</type></trkpt>
      <trkpt lat="38.48746315" lon="-2.23682629"><ele>2201</ele><speed>18.06</speed><time>2016-06-02T13:30:24Z</time><pdop>7.0</pdop><geoidheight>51.00</geoidheight><course>71.1</course><type>1</type></trkpt>
      <trkpt lat="38.48751961" lon="-2.23663219"><ele>2199</ele><speed>18.13</speed><time>2016-06-02T13:30:25Z</time><pdop>6.0</pdop><geoidheight>51.00</geoidheight><course>70.6</course><type>1</type></trkpt>
      <trkpt lat="38.48755908" lon="-2.2364389"><ele>2197</ele><speed>17.61</speed><time>2016-06-02T13:30:26Z</time><pdop>6.0</pdop><geoidheight>51.00</geoidheight><course>71.7</course><type>1</type></trkpt>
      <trkpt lat="38.48760746" lon="-2.23624803"><ele>2195</ele><speed>17.33</speed><time>2016-06-02T13:30:27Z</time><pdop>6.0</pdop><geoidheight>51.00</geoidheight><course>72.7</course><type>1</type></trkpt>
      <trkpt lat="38.48765306" lon="-2.23605944"><ele>2193</ele><speed>17.22</speed><time>2016-06-02T13:30:28Z</time><pdop>6.0</pdop><geoidheight>51.00</geoidheight><course>73.5</course><type>1</type></trkpt>
      <trkpt lat="38.48769214" lon="-2.23587842"><ele>2191</ele><speed>17.24</speed><time>2016-06-02T13:30:29Z</time><pdop>6.0</pdop><geoidheight>51.00</geoidheight><course>74.8</course><type>1</type></trkpt>
      <trkpt lat="38.48772387" lon="-2.23569195"><ele>2188</ele><speed>17.44</speed><time>2016-06-02T13:30:30Z</time><pdop>5.0</pdop><geoidheight>51.00</geoidheight><course>76.0</course><type>1</type></trkpt>
      <trkpt lat="38.487765" lon="-2.23548633"><ele>2187</ele><speed>17.59</speed><time>2016-06-02T13:30:31Z</time><pdop>5.0</pdop><geoidheight>51.00</geoidheight><course>75.8</course><type>1</type></trkpt>
      <trkpt lat="38.48780271" lon="-2.23529274"><ele>2186</ele><speed>17.41</speed><time>2016-06-02T13:30:32Z</time><pdop>5.0</pdop><geoidheight>51.00</geoidheight><course>77.8</course><type>1</type></trkpt>
      <trkpt lat="38.48782707" lon="-2.23511294"><ele>2183</ele><speed>17.17</speed><time>2016-06-02T13:30:33Z</time><pdop>5.0</pdop><geoidheight>51.00</geoidheight><course>79.3</course><type>1</type></trkpt>
      <trkpt lat="38.48785914" lon="-2.23493672"><ele>2181</ele><speed>16.65</speed><time>2016-06-02T13:30:34Z</time><pdop>5.0</pdop><geoidheight>51.00</geoidheight><course>78.3</course><type>1</type></trkpt>
      <trkpt lat="38.48789714" lon="-2.23476781"><ele>2180</ele><speed>16.16</speed><time>2016-06-02T13:30:35Z</time><pdop>4.0</pdop><geoidheight>51.00</geoidheight><course>75.6</course><type>1</type></trkpt>
      <trkpt lat="38.4879395" lon="-2.23459242"><ele>2178</ele><speed>16.00</speed><time>2016-06-02T13:30:36Z</time><pdop>4.0</pdop><geoidheight>51.00</geoidheight><course>73.8</course><type>1</type></trkpt>
      <trkpt lat="38.48797591" lon="-2.23440611"><ele>2177</ele><speed>16.26</speed><time>2016-06-02T13:30:37Z</time><pdop>4.0</pdop><geoidheight>51.00</geoidheight><course>73.4</course><type>1</type></trkpt>
      <trkpt lat="38.48802067" lon="-2.23421372"><ele>2175</ele><speed>17.06</speed><time>2016-06-02T13:30:38Z</time><pdop>5.0</pdop><geoidheight>51.00</geoidheight><course>73.8</course><type>1</type></trkpt>
      <trkpt lat="38.48806148" lon="-2.23400823"><ele>2174</ele><speed>17.79</speed><time>2016-06-02T13:30:39Z</time><pdop>5.0</pdop><geoidheight>51.00</geoidheight><course>74.2</course><type>1</type></trkpt>
      <trkpt lat="38.4881166" lon="-2.23379259"><ele>2171</ele><speed>19.13</speed><time>2016-06-02T13:30:40Z</time><pdop>5.0</pdop><geoidheight>51.00</geoidheight><course>73.9</course><type>1</type></trkpt>
      <trkpt lat="38.48815839" lon="-2.23359499"><ele>2168</ele><speed>18.44</speed><time>2016-06-02T13:30:41Z</time><pdop>4.0</pdop><geoidheight>51.00</geoidheight><course>73.9</course><type>1</type></trkpt>
      <trkpt lat="38.48819726" lon="-2.2334003"><ele>2164</ele><speed>18.25</speed><time>2016-06-02T13:30:42Z</time><pdop>4.0</pdop><geoidheight>51.00</geoidheight><course>74.7</course><type>1</type></trkpt>
      <trkpt lat="38.48823474" lon="-2.23319959"><ele>2161</ele><speed>17.98</speed><time>2016-06-02T13:30:43Z</time><pdop>4.0</pdop><geoidheight>51.00</geoidheight><course>76.4</course><type>1</type></trkpt>
      <trkpt lat="38.4882381" lon="-2.23300703"><ele>2158</ele><speed>17.58</speed><time>2016-06-02T13:30:44Z</time><pdop>4.0</pdop><geoidheight>51.00</geoidheight><course>79.5</course><type>1</type></trkpt>
      <trkpt lat="38.4882682" lon="-2.23280719"><ele>2155</ele><speed>17.65</speed><time>2016-06-02T13:30:45Z</time><pdop>5.0</pdop><geoidheight>51.00</geoidheight><course>79.3</course><type>1</type></trkpt>
      <trkpt lat="38.48830218" lon="-2.23262631"><ele>2151</ele><speed>17.43</speed><time>2016-06-02T13:30:46Z</time><pdop>5.0</pdop><geoidheight>51.00</geoidheight><course>78.0</course><type>1</type></trkpt>
      <trkpt lat="38.48833695" lon="-2.23244871"><ele>2147</ele><speed>17.13</speed><time>2016-06-02T13:30:47Z</time><pdop>5.0</pdop><geoidheight>51.00</geoidheight><course>76.4</course><type>1</type></trkpt>
      <trkpt lat="38.48836522" lon="-2.23227087"><ele>2143</ele><speed>16.74</speed><time>2016-06-02T13:30:48Z</time><pdop>4.0</pdop><geoidheight>51.00</geoidheight><course>76.8</course><type>1</type></trkpt>
      <trkpt lat="38.48839258" lon="-2.23207975"><ele>2139</ele><speed>17.10</speed><time>2016-06-02T13:30:49Z</time><pdop>5.0</pdop><geoidheight>51.00</geoidheight><course>77.4</course><type>1</type></trkpt>
      <trkpt lat="38.48842541" lon="-2.23188883"><ele>2135</ele><speed>17.31</speed><time>2016-06-02T13:30:50Z</time><pdop>5.0</pdop><geoidheight>51.00</geoidheight><course>78.4</course><type>1</type></trkpt>
      <trkpt lat="38.48845837" lon="-2.23170072"><ele>2130</ele><speed>17.21</speed><time>2016-06-02T13:30:51Z</time><pdop>4.0</pdop><geoidheight>51.00</geoidheight><course>79.2</course><type>1</type></trkpt>
      <trkpt lat="38.48849435" lon="-2.2315051"><ele>2126</ele><speed>17.23</speed><time>2016-06-02T13:30:52Z</time><pdop>4.0</pdop><geoidheight>51.00</geoidheight><course>78.8</course><type>1</type></trkpt>
      <trkpt lat="38.48851713" lon="-2.23131584"><ele>2122</ele><speed>16.68</speed><time>2016-06-02T13:30:53Z</time><pdop>4.0</pdop><geoidheight>51.00</geoidheight><course>79.1</course><type>1</type></trkpt>
      <trkpt lat="38.48854298" lon="-2.23113533"><ele>2180</ele><speed>16.85</speed><time>2016-06-02T13:30:54Z</time><pdop>4.0</pdop><geoidheight>51.00</geoidheight><course>79.4</course><type>1</type></trkpt>
      <trkpt lat="38.48857139" lon="-2.23094435"><ele>2162</ele><speed>17.52</speed><time>2016-06-02T13:30:55Z</time><pdop>4.0</pdop><geoidheight>51.00</geoidheight><course>79.7</course><type>1</type></trkpt>
      <trkpt lat="38.48860789" lon="-2.23075796"><ele>2142</ele><speed>18.29</speed><time>2016-06-02T13:30:56Z</time><pdop>4.0</pdop><geoidheight>51.00</geoidheight><course>78.4</course><type>1</type></trkpt>
      <trkpt lat="38.48865156" lon="-2.23055342"><ele>2129</ele><speed>19.13</speed><time>2016-06-02T13:30:57Z</time><pdop>4.0</pdop><geoidheight>51.00</geoidheight><course>77.4</course><type>1</type></trkpt>
      <trkpt lat="38.48869306" lon="-2.230348"><ele>2117</ele><speed>19.29</speed><time>2016-06-02T13:30:58Z</time><pdop>4.0</pdop><geoidheight>51.00</geoidheight><course>76.6</course><type>1</type></trkpt>
      <trkpt lat="38.48872676" lon="-2.23014711"><ele>2109</ele><speed>18.66</speed><time>2016-06-02T13:30:59Z</time><pdop>4.0</pdop><geoidheight>51.00</geoidheight><course>76.7</course><type>1</type></trkpt>
      <trkpt lat="38.48873328" lon="-2.2299475"><ele>2102</ele><speed>18.16</speed><time>2016-06-02T13:31:00Z</time><pdop>4.0</pdop><geoidheight>51.00</geoidheight><course>77.7</course><type>1</type></trkpt>
      <trkpt lat="38.48876625" lon="-2.22974742"><ele>2096</ele><speed>18.15</speed><time>2016-06-02T13:31:01Z</time><pdop>4.0</pdop><geoidheight>51.00</geoidheight><course>78.3</course><type>1</type></trkpt>
      <trkpt lat="38.48880001" lon="-2.22953965"><ele>2095</ele><speed>18.27</speed><time>2016-06-02T13:31:02Z</time><pdop>4.0</pdop><geoidheight>51.00</geoidheight><course>77.3</course><type>1</type></trkpt>
      <trkpt lat="38.48884448" lon="-2.2293392"><ele>2094</ele><speed>18.19</speed><time>2016-06-02T13:31:03Z</time><pdop>4.0</pdop><geoidheight>51.00</geoidheight><course>74.9</course><type>1</type></trkpt>
      <trkpt lat="38.48889383" lon="-2.22914162"><ele>2091</ele><speed>18.17</speed><time>2016-06-02T13:31:04Z</time><pdop>4.0</pdop><geoidheight>51.00</geoidheight><course>72.4</course><type>1</type></trkpt>
      <trkpt lat="38.4889447" lon="-2.22894784"><ele>2089</ele><speed>17.83</speed><time>2016-06-02T13:31:05Z</time><pdop>4.0</pdop><geoidheight>51.00</geoidheight><course>71.0</course><type>1</type></trkpt>
      <trkpt lat="38.48900233" lon="-2.22875712"><ele>2086</ele><speed>17.72</speed><time>2016-06-02T13:31:06Z</time><pdop>4.0</pdop><geoidheight>51.00</geoidheight><course>71.6</course><type>1</type></trkpt>
      <trkpt lat="38.48903373" lon="-2.22857351"><ele>2082</ele><speed>17.52</speed><time>2016-06-02T13:31:07Z</time><pdop>4.0</pdop><geoidheight>51.00</geoidheight><course>73.8</course><type>1</type></trkpt>
      <trkpt lat="38.48907914" lon="-2.22838254"><ele>2081</ele><speed>17.47</speed><time>2016-06-02T13:31:08Z</time><pdop>4.0</pdop><geoidheight>51.00</geoidheight><course>74.7</course><type>1</type></trkpt>
      <trkpt lat="38.48912022" lon="-2.22818925"><ele>2079</ele><speed>17.06</speed><time>2016-06-02T13:31:09Z</time><pdop>4.0</pdop><geoidheight>51.00</geoidheight><course>75.4</course><type>1</type></trkpt>
      <trkpt lat="38.48915882" lon="-2.22800807"><ele>2078</ele><speed>16.66</speed><time>2016-06-02T13:31:10Z</time><pdop>4.0</pdop><geoidheight>51.00</geoidheight><course>74.5</course><type>1</type></trkpt>
      <trkpt lat="38.48920285" lon="-2.22782586"><ele>2079</ele><speed>16.55</speed><time>2016-06-02T13:31:11Z</time><pdop>4.0</pdop><geoidheight>51.00</geoidheight><course>73.3</course><type>1</type></trkpt>
      <trkpt lat="38.48925444" lon="-2.22764732"><ele>2077</ele><speed>16.71</speed><time>2016-06-02T13:31:12Z</time><pdop>5.0</pdop><geoidheight>51.00</geoidheight><course>71.6</course><type>1</type></trkpt>
      <trkpt lat="38.48931419" lon="-2.22745734"><ele>2076</ele><speed>17.22</speed><time>2016-06-02T13:31:13Z</time><pdop>4.0</pdop><geoidheight>51.00</geoidheight><course>71.9</course><type>1</type></trkpt>
      <trkpt lat="38.48935901" lon="-2.2272718"><ele>2076</ele><speed>17.30</speed><time>2016-06-02T13:31:14Z</time><pdop>4.0</pdop><geoidheight>51.00</geoidheight><course>72.2</course><type>1</type></trkpt>
      <trkpt lat="38.48940726" lon="-2.22708116"><ele>2073</ele><speed>17.68</speed><time>2016-06-02T13:31:15Z</time><pdop>4.0</pdop><geoidheight>51.00</geoidheight><course>72.3</course><type>1</type></trkpt>
      <trkpt lat="38.48943142" lon="-2.22689532"><ele>2071</ele><speed>17.61</speed><time>2016-06-02T13:31:16Z</time><pdop>4.0</pdop><geoidheight>51.00</geoidheight><course>73.5</course><type>1</type></trkpt>
      <trkpt lat="38.48948009" lon="-2.22670322"><ele>2067</ele><speed>17.77</speed><time>2016-06-02T13:31:17Z</time><pdop>5.0</pdop><geoidheight>51.00</geoidheight><course>73.0</course><type>1</type></trkpt>
      <trkpt lat="38.48951501" lon="-2.22651845"><ele>2063</ele><speed>17.66</speed><time>2016-06-02T13:31:18Z</time><pdop>5.0</pdop><geoidheight>51.00</geoidheight><course>74.0</course><type>1</type></trkpt>
      <trkpt lat="38.48955743" lon="-2.22632585"><ele>2060</ele><speed>17.70</speed><time>2016-06-02T13:31:19Z</time><pdop>5.0</pdop><geoidheight>51.00</geoidheight><course>75.5</course><type>1</type></trkpt>
      <trkpt lat="38.48960739" lon="-2.22612525"><ele>2059</ele><speed>17.75</speed><time>2016-06-02T13:31:20Z</time><pdop>5.0</pdop><geoidheight>51.00</geoidheight><course>75.7</course><type>1</type></trkpt>
      <trkpt lat="38.48964707" lon="-2.22593498"><ele>2058</ele><speed>17.68</speed><time>2016-06-02T13:31:21Z</time><pdop>5.0</pdop><geoidheight>51.00</geoidheight><course>74.9</course><type>1</type></trkpt>
      <trkpt lat="38.48967587" lon="-2.22575735"><ele>2054</ele><speed>17.23</speed><time>2016-06-02T13:31:22Z</time><pdop>5.0</pdop><geoidheight>51.00</geoidheight><course>74.7</course><type>1</type></trkpt>
      <trkpt lat="38.4896903" lon="-2.22557581"><ele>2051</ele><speed>17.08</speed><time>2016-06-02T13:31:23Z</time><pdop>5.0</pdop><geoidheight>51.00</geoidheight><course>77.5</course><type>1</type></trkpt>
      <trkpt lat="38.48971068" lon="-2.2253968"><ele>2048</ele><speed>16.02</speed><time>2016-06-02T13:31:24Z</time><pdop>5.0</pdop><geoidheight>51.00</geoidheight><course>80.6</course><type>1</type></trkpt>
      <trkpt lat="38.4897335" lon="-2.22523396"><ele>2045</ele><speed>15.23</speed><time>2016-06-02T13:31:25Z</time><pdop>4.0</pdop><geoidheight>51.00</geoidheight><course>80.1</course><type>1</type></trkpt>
      <trkpt lat="38.48974328" lon="-2.22506742"><ele>2044</ele><speed>14.91</speed><time>2016-06-02T13:31:26Z</time><pdop>5.0</pdop><geoidheight>51.00</geoidheight><course>79.7</course><type>1</type></trkpt>
      <trkpt lat="38.48976926" lon="-2.2249011"><ele>2041</ele><speed>14.74</speed><time>2016-06-02T13:31:27Z</time><pdop>5.0</pdop><geoidheight>51.00</geoidheight><course>79.7</course><type>1</type></trkpt>
      <trkpt lat="38.48979536" lon="-2.22472015"><ele>2039</ele><speed>15.31</speed><time>2016-06-02T13:31:28Z</time><pdop>5.0</pdop><geoidheight>51.00</geoidheight><course>79.9</course><type>1</type></trkpt>
      <trkpt lat="38.48980407" lon="-2.22456625"><ele>2036</ele><speed>14.93</speed><time>2016-06-02T13:31:29Z</time><pdop>5.0</pdop><geoidheight>51.00</geoidheight><course>83.2</course><type>1</type></trkpt>
      <trkpt lat="38.48982061" lon="-2.22441596"><ele>2032</ele><speed>14.55</speed><time>2016-06-02T13:31:30Z</time><pdop>5.0</pdop><geoidheight>51.00</geoidheight><course>81.8</course><type>1</type></trkpt>
      <trkpt lat="38.48984466" lon="-2.22426057"><ele>2029</ele><speed>14.16</speed><time>2016-06-02T13:31:31Z</time><pdop>5.0</pdop><geoidheight>51.00</geoidheight><course>80.2</course><type>1</type></trkpt>
      <trkpt lat="38.4898776" lon="-2.22409733"><ele>2028</ele><speed>14.86</speed><time>2016-06-02T13:31:32Z</time><pdop>7.0</pdop><geoidheight>51.00</geoidheight><course>77.5</course><type>1</type></trkpt>
      <trkpt lat="38.48993811" lon="-2.22393039"><ele>2027</ele><speed>15.32</speed><time>2016-06-02T13:31:33Z</time><pdop>7.0</pdop><geoidheight>51.00</geoidheight><course>72.8</course><type>1</type></trkpt>
      <trkpt lat="38.49002106" lon="-2.22376449"><ele>2025</ele><speed>15.92</speed><time>2016-06-02T13:31:34Z</time><pdop>8.0</pdop><geoidheight>51.00</geoidheight><course>69.1</course><type>1</type></trkpt>
      <trkpt lat="38.49005392" lon="-2.22354989"><ele>2024</ele><speed>17.29</speed><time>2016-06-02T13:31:35Z</time><pdop>6.0</pdop><geoidheight>51.00</geoidheight><course>73.5</course><type>1</type></trkpt>
      <trkpt lat="38.49008564" lon="-2.2233782"><ele>2022</ele><speed>16.38</speed><time>2016-06-02T13:31:36Z</time><pdop>6.0</pdop><geoidheight>51.00</geoidheight><course>74.3</course><type>1</type></trkpt>
      <trkpt lat="38.49009917" lon="-2.22322454"><ele>2019</ele><speed>15.44</speed><time>2016-06-02T13:31:37Z</time><pdop>6.0</pdop><geoidheight>51.00</geoidheight><course>75.8</course><type>1</type></trkpt>
      <trkpt lat="38.49015245" lon="-2.22290957"><ele>2015</ele><speed>14.83</speed><time>2016-06-02T13:31:39Z</time><pdop>6.0</pdop><geoidheight>51.00</geoidheight><course>79.3</course><type>1</type></trkpt>
      <trkpt lat="38.49014201" lon="-2.22273088"><ele>2012</ele><speed>15.66</speed><time>2016-06-02T13:31:40Z</time><pdop>6.0</pdop><geoidheight>51.00</geoidheight><course>81.9</course><type>1</type></trkpt>
      <trkpt lat="38.49015894" lon="-2.22252769"><ele>2011</ele><speed>17.14</speed><time>2016-06-02T13:31:41Z</time><pdop>6.0</pdop><geoidheight>51.00</geoidheight><course>82.4</course><type>1</type></trkpt>
      <trkpt lat="38.49017145" lon="-2.22234795"><ele>2007</ele><speed>17.16</speed><time>2016-06-02T13:31:42Z</time><pdop>6.0</pdop><geoidheight>51.00</geoidheight><course>84.3</course><type>1</type></trkpt>
      <trkpt lat="38.49014137" lon="-2.22205702"><ele>1998</ele><speed>15.61</speed><time>2016-06-02T13:31:44Z</time><pdop>6.0</pdop><geoidheight>51.00</geoidheight><course>89.1</course><type>1</type></trkpt>
      <trkpt lat="38.49014313" lon="-2.22189694"><ele>1994</ele><speed>15.03</speed><time>2016-06-02T13:31:45Z</time><pdop>6.0</pdop><geoidheight>51.00</geoidheight><course>88.6</course><type>1</type></trkpt>
      <trkpt lat="38.49016666" lon="-2.22170417"><ele>1993</ele><speed>15.44</speed><time>2016-06-02T13:31:46Z</time><pdop>7.0</pdop><geoidheight>51.00</geoidheight><course>85.8</course><type>1</type></trkpt>
      <trkpt lat="38.49018026" lon="-2.22154137"><ele>1991</ele><speed>15.12</speed><time>2016-06-02T13:31:47Z</time><pdop>6.0</pdop><geoidheight>51.00</geoidheight><course>84.6</course><type>1</type></trkpt>
      <trkpt lat="38.4902158" lon="-2.22123356"><ele>1986</ele><speed>15.00</speed><time>2016-06-02T13:31:49Z</time><pdop>8.0</pdop><geoidheight>51.00</geoidheight><course>84.9</course><type>1</type></trkpt>
      <trkpt lat="38.49022922" lon="-2.22093092"><ele>1982</ele><speed>14.53</speed><time>2016-06-02T13:31:51Z</time><pdop>8.0</pdop><geoidheight>51.00</geoidheight><course>84.4</course><type>1</type></trkpt>
      <trkpt lat="38.49025013" lon="-2.2205592"><ele>1979</ele><speed>15.63</speed><time>2016-06-02T13:31:53Z</time><pdop>8.0</pdop><geoidheight>51.00</geoidheight><course>83.9</course><type>1</type></trkpt>
      <trkpt lat="38.49024279" lon="-2.22023817"><ele>1974</ele><speed>15.06</speed><time>2016-06-02T13:31:55Z</time><pdop>12.0</pdop><geoidheight>51.00</geoidheight><course>86.1</course><type>1</type></trkpt>
      <trkpt lat="38.4902643" lon="-2.21990033"><ele>1970</ele><speed>15.76</speed><time>2016-06-02T13:31:57Z</time><pdop>10.0</pdop><geoidheight>51.00</geoidheight><course>87.3</course><type>1</type></trkpt>
      <trkpt lat="38.49028948" lon="-2.21954382"><ele>1968</ele><speed>15.94</speed><time>2016-06-02T13:31:59Z</time><pdop>11.0</pdop><geoidheight>51.00</geoidheight><course>84.6</course><type>1</type></trkpt>
      <trkpt lat="38.49035439" lon="-2.21918455"><ele>1965</ele><speed>16.39</speed><time>2016-06-02T13:32:01Z</time><pdop>11.0</pdop><geoidheight>51.00</geoidheight><course>78.5</course><type>1</type></trkpt>
      <trkpt lat="38.4903833" lon="-2.21877871"><ele>1961</ele><speed>17.45</speed><time>2016-06-02T13:32:03Z</time><pdop>11.0</pdop><geoidheight>51.00</geoidheight><course>83.4</course><type>1</type></trkpt>
      <trkpt lat="38.49040886" lon="-2.21842965"><ele>1955</ele><speed>16.25</speed><time>2016-06-02T13:32:05Z</time><pdop>11.0</pdop><geoidheight>51.00</geoidheight><course>83.2</course><type>1</type></trkpt>
      <trkpt lat="38.49045009" lon="-2.2180663"><ele>1949</ele><speed>16.35</speed><time>2016-06-02T13:32:07Z</time><pdop>10.0</pdop><geoidheight>51.00</geoidheight><course>80.6</course><type>1</type></trkpt>
      <trkpt lat="38.49048282" lon="-2.21766017"><ele>1946</ele><speed>17.18</speed><time>2016-06-02T13:32:09Z</time><pdop>10.0</pdop><geoidheight>51.00</geoidheight><course>82.7</course><type>1</type></trkpt>
      <trkpt lat="38.49048793" lon="-2.2173416"><ele>1940</ele><speed>14.60</speed><time>2016-06-02T13:32:11Z</time><pdop>12.0</pdop><geoidheight>51.00</geoidheight><course>85.3</course><type>1</type></trkpt>
      <trkpt lat="38.49048616" lon="-2.21698613"><ele>1936</ele><speed>14.79</speed><time>2016-06-02T13:32:13Z</time><pdop>12.0</pdop><geoidheight>51.00</geoidheight><course>88.1</course><type>1</type></trkpt>
      <trkpt lat="38.49051534" lon="-2.21665529"><ele>1931</ele><speed>15.36</speed><time>2016-06-02T13:32:15Z</time><pdop>13.0</pdop><geoidheight>51.00</geoidheight><course>84.2</course><type>1</type></trkpt>
      <trkpt lat="38.49056083" lon="-2.21632945"><ele>1925</ele><speed>14.76</speed><time>2016-06-02T13:32:17Z</time><pdop>12.0</pdop><geoidheight>51.00</geoidheight><course>79.7</course><type>1</type></trkpt>
      <trkpt lat="38.4906083" lon="-2.21602331"><ele>1917</ele><speed>14.04</speed><time>2016-06-02T13:32:19Z</time><pdop>12.0</pdop><geoidheight>51.00</geoidheight><course>79.2</course><type>1</type></trkpt>
      <trkpt lat="38.4906377" lon="-2.21568665"><ele>1914</ele><speed>15.22</speed><time>2016-06-02T13:32:21Z</time><pdop>12.0</pdop><geoidheight>51.00</geoidheight><course>83.2</course><type>1</type></trkpt>
      <trkpt lat="38.49067607" lon="-2.21534137"><ele>1909</ele><speed>15.98</speed><time>2016-06-02T13:32:23Z</time><pdop>12.0</pdop><geoidheight>51.00</geoidheight><course>81.2</course><type>1</type></trkpt>
      <trkpt lat="38.49067284" lon="-2.21495589"><ele>1904</ele><speed>15.89</speed><time>2016-06-02T13:32:25Z</time><pdop>12.0</pdop><geoidheight>51.00</geoidheight><course>89.3</course><type>1</type></trkpt>
      <trkpt lat="38.49068404" lon="-2.21458899"><ele>1900</ele><speed>15.92</speed><time>2016-06-02T13:32:27Z</time><pdop>11.0</pdop><geoidheight>51.00</geoidheight><course>88.5</course><type>1</type></trkpt>
      <trkpt lat="38.4906871" lon="-2.21420828"><ele>1896</ele><speed>16.82</speed><time>2016-06-02T13:32:29Z</time><pdop>12.0</pdop><geoidheight>51.00</geoidheight><course>88.4</course><type>1</type></trkpt>
      <trkpt lat="38.49064194" lon="-2.21385014"><ele>1890</ele><speed>17.29</speed><time>2016-06-02T13:32:31Z</time><pdop>14.0</pdop><geoidheight>51.00</geoidheight><course>93.0</course><type>1</type></trkpt>
      <trkpt lat="38.49064287" lon="-2.21343755"><ele>1883</ele><speed>18.10</speed><time>2016-06-02T13:32:33Z</time><pdop>12.0</pdop><geoidheight>51.00</geoidheight><course>89.7</course><type>1</type></trkpt>
      <trkpt lat="38.49061153" lon="-2.21306639"><ele>1877</ele><speed>17.02</speed><time>2016-06-02T13:32:35Z</time><pdop>12.0</pdop><geoidheight>51.00</geoidheight><course>91.8</course><type>1</type></trkpt>
      <trkpt lat="38.49059513" lon="-2.21267808"><ele>1871</ele><speed>16.74</speed><time>2016-06-02T13:32:37Z</time><pdop>12.0</pdop><geoidheight>51.00</geoidheight><course>92.3</course><type>1</type></trkpt>
      <trkpt lat="38.49057692" lon="-2.2122734"><ele>1867</ele><speed>17.67</speed><time>2016-06-02T13:32:39Z</time><pdop>12.0</pdop><geoidheight>51.00</geoidheight><course>92.4</course><type>1</type></trkpt>
      <trkpt lat="38.49061463" lon="-2.21173707"><ele>1860</ele><speed>16.15</speed><time>2016-06-02T13:32:42Z</time><pdop>12.0</pdop><geoidheight>51.00</geoidheight><course>83.1</course><type>1</type></trkpt>
      <trkpt lat="38.49065998" lon="-2.21139394"><ele>1858</ele><speed>15.78</speed><time>2016-06-02T13:32:44Z</time><pdop>12.0</pdop><geoidheight>51.00</geoidheight><course>79.6</course><type>1</type></trkpt>
      <trkpt lat="38.49069046" lon="-2.2110375"><ele>1854</ele><speed>16.36</speed><time>2016-06-02T13:32:46Z</time><pdop>13.0</pdop><geoidheight>51.00</geoidheight><course>79.5</course><type>1</type></trkpt>
      <trkpt lat="38.49073587" lon="-2.21063973"><ele>1850</ele><speed>17.82</speed><time>2016-06-02T13:32:48Z</time><pdop>12.0</pdop><geoidheight>51.00</geoidheight><course>79.0</course><type>1</type></trkpt>
      <trkpt lat="38.4907804" lon="-2.21030143"><ele>1847</ele><speed>15.21</speed><time>2016-06-02T13:32:50Z</time><pdop>12.0</pdop><geoidheight>51.00</geoidheight><course>81.9</course><type>1</type></trkpt>
      <trkpt lat="38.49080863" lon="-2.20999236"><ele>1843</ele><speed>13.76</speed><time>2016-06-02T13:32:52Z</time><pdop>13.0</pdop><geoidheight>51.00</geoidheight><course>83.1</course><type>1</type></trkpt>
      <trkpt lat="38.49084235" lon="-2.20963012"><ele>1839</ele><speed>15.44</speed><time>2016-06-02T13:32:54Z</time><pdop>13.0</pdop><geoidheight>51.00</geoidheight><course>83.8</course><type>1</type></trkpt>
      <trkpt lat="38.49087154" lon="-2.20925083"><ele>1835</ele><speed>16.43</speed><time>2016-06-02T13:32:56Z</time><pdop>13.0</pdop><geoidheight>51.00</geoidheight><course>83.7</course><type>1</type></trkpt>
      <trkpt lat="38.49089057" lon="-2.20895084"><ele>1828</ele><speed>14.42</speed><time>2016-06-02T13:32:58Z</time><pdop>13.0</pdop><geoidheight>51.00</geoidheight><course>84.8</course><type>1</type></trkpt>
      <trkpt lat="38.49088185" lon="-2.20848045"><ele>1820</ele><speed>14.64</speed><time>2016-06-02T13:33:01Z</time><pdop>13.0</pdop><geoidheight>51.00</geoidheight><course>89.9</course><type>1</type></trkpt>
      <trkpt lat="38.49089209" lon="-2.20813357"><ele>1814</ele><speed>15.80</speed><time>2016-06-02T13:33:03Z</time><pdop>13.0</pdop><geoidheight>51.00</geoidheight><course>85.5</course><type>1</type></trkpt>
      <trkpt lat="38.49087862" lon="-2.20774796"><ele>1805</ele><speed>16.69</speed><time>2016-06-02T13:33:05Z</time><pdop>12.0</pdop><geoidheight>51.00</geoidheight><course>88.9</course><type>1</type></trkpt>
      <trkpt lat="38.49087808" lon="-2.20735501"><ele>1800</ele><speed>16.63</speed><time>2016-06-02T13:33:07Z</time><pdop>12.0</pdop><geoidheight>51.00</geoidheight><course>89.8</course><type>1</type></trkpt>
      <trkpt lat="38.49086491" lon="-2.20696488"><ele>1792</ele><speed>16.95</speed><time>2016-06-02T13:33:09Z</time><pdop>12.0</pdop><geoidheight>51.00</geoidheight><course>91.5</course><type>1</type></trkpt>
      <trkpt lat="38.49084827" lon="-2.20659696"><ele>1783</ele><speed>17.46</speed><time>2016-06-02T13:33:11Z</time><pdop>12.0</pdop><geoidheight>51.00</geoidheight><course>89.5</course><type>1</type></trkpt>
      <trkpt lat="38.49084277" lon="-2.20620611"><ele>1776</ele><speed>17.65</speed><time>2016-06-02T13:33:13Z</time><pdop>14.0</pdop><geoidheight>51.00</geoidheight><course>89.5</course><type>1</type></trkpt>
      <trkpt lat="38.49085616" lon="-2.20579818"><ele>1771</ele><speed>17.56</speed><time>2016-06-02T13:33:15Z</time><pdop>12.0</pdop><geoidheight>51.00</geoidheight><course>88.6</course><type>1</type></trkpt>
      <trkpt lat="38.49088396" lon="-2.20538022"><ele>1768</ele><speed>17.33</speed><time>2016-06-02T13:33:17Z</time><pdop>12.0</pdop><geoidheight>51.00</geoidheight><course>86.1</course><type>1</type></trkpt>
      <trkpt lat="38.49086806" lon="-2.20499183"><ele>1763</ele><speed>17.40</speed><time>2016-06-02T13:33:19Z</time><pdop>11.0</pdop><geoidheight>51.00</geoidheight><course>86.8</course><type>1</type></trkpt>
      <trkpt lat="38.490894" lon="-2.20460669"><ele>1758</ele><speed>17.71</speed><time>2016-06-02T13:33:21Z</time><pdop>11.0</pdop><geoidheight>51.00</geoidheight><course>83.0</course><type>1</type></trkpt>
      <trkpt lat="38.49089375" lon="-2.20427203"><ele>1752</ele><speed>16.69</speed><time>2016-06-02T13:33:23Z</time><pdop>12.0</pdop><geoidheight>51.00</geoidheight><course>86.0</course><type>1</type></trkpt>
      <trkpt lat="38.49090678" lon="-2.20389326"><ele>1749</ele><speed>17.25</speed><time>2016-06-02T13:33:25Z</time><pdop>12.0</pdop><geoidheight>51.00</geoidheight><course>84.3</course><type>1</type></trkpt>
      <trkpt lat="38.49094518" lon="-2.2035144"><ele>1746</ele><speed>17.37</speed><time>2016-06-02T13:33:27Z</time><pdop>12.0</pdop><geoidheight>51.00</geoidheight><course>81.1</course><type>1</type></trkpt>
      <trkpt lat="38.49098351" lon="-2.20308314"><ele>1743</ele><speed>18.83</speed><time>2016-06-02T13:33:29Z</time><pdop>12.0</pdop><geoidheight>51.00</geoidheight><course>83.2</course><type>1</type></trkpt>
      <trkpt lat="38.49099003" lon="-2.2026456"><ele>1740</ele><speed>18.68</speed><time>2016-06-02T13:33:31Z</time><pdop>12.0</pdop><geoidheight>51.00</geoidheight><course>84.4</course><type>1</type></trkpt>
      <trkpt lat="38.49100842" lon="-2.20224107"><ele>1737</ele><speed>18.22</speed><time>2016-06-02T13:33:33Z</time><pdop>14.0</pdop><geoidheight>51.00</geoidheight><course>85.8</course><type>1</type></trkpt>
      <trkpt lat="38.4909262" lon="-2.20163942"><ele>1732</ele><speed>18.07</speed><time>2016-06-02T13:33:36Z</time><pdop>18.0</pdop><geoidheight>51.00</geoidheight><course>94.4</course><type>1</type></trkpt>
      <trkpt lat="38.49097089" lon="-2.20106867"><ele>1724</ele><speed>16.46</speed><time>2016-06-02T13:33:39Z</time><pdop>16.0</pdop><geoidheight>51.00</geoidheight><course>91.7</course><type>1</type></trkpt>
      <trkpt lat="38.49091455" lon="-2.20051252"><ele>1717</ele><speed>17.37</speed><time>2016-06-02T13:33:42Z</time><pdop>19.0</pdop><geoidheight>51.00</geoidheight><course>96.3</course><type>1</type></trkpt>
      <trkpt lat="38.49077409" lon="-2.19989581"><ele>1708</ele><speed>15.31</speed><time>2016-06-02T13:33:46Z</time><pdop>23.0</pdop><geoidheight>51.00</geoidheight><course>105.6</course><type>1</type></trkpt>
      <trkpt lat="38.49058361" lon="-2.19925249"><ele>1701</ele><speed>16.99</speed><time>2016-06-02T13:33:49Z</time><pdop>21.0</pdop><geoidheight>51.00</geoidheight><course>110.1</course><type>1</type></trkpt>
      <trkpt lat="38.49047888" lon="-2.19862851"><ele>1693</ele><speed>18.23</speed><time>2016-06-02T13:33:52Z</time><pdop>20.0</pdop><geoidheight>51.00</geoidheight><course>105.5</course><type>1</type></trkpt>
      <trkpt lat="38.49046469" lon="-2.19810029"><ele>1683</ele><speed>16.78</speed><time>2016-06-02T13:33:55Z</time><pdop>23.0</pdop><geoidheight>51.00</geoidheight><course>98.0</course><type>1</type></trkpt>
      <trkpt lat="38.49039406" lon="-2.19756352"><ele>1675</ele><speed>17.27</speed><time>2016-06-02T13:33:58Z</time><pdop>23.0</pdop><geoidheight>51.00</geoidheight><course>101.8</course><type>1</type></trkpt>
      <trkpt lat="38.49042228" lon="-2.19697225"><ele>1664</ele><speed>19.03</speed><time>2016-06-02T13:34:01Z</time><pdop>18.0</pdop><geoidheight>51.00</geoidheight><course>95.8</course><type>1</type></trkpt>
      <trkpt lat="38.4903815" lon="-2.19654876"><ele>1661</ele><speed>19.19</speed><time>2016-06-02T13:34:03Z</time><pdop>17.0</pdop><geoidheight>51.00</geoidheight><course>99.5</course><type>1</type></trkpt>
      <trkpt lat="38.49033955" lon="-2.19608469"><ele>1656</ele><speed>21.55</speed><time>2016-06-02T13:34:05Z</time><pdop>19.0</pdop><geoidheight>51.00</geoidheight><course>98.5</course><type>1</type></trkpt>
      <trkpt lat="38.49025231" lon="-2.19568773"><ele>1645</ele><speed>11.76</speed><time>2016-06-02T13:34:08Z</time><pdop>16.0</pdop><geoidheight>51.00</geoidheight><course>105.2</course><type>1</type></trkpt>
      <trkpt lat="38.49017411" lon="-2.19492991"><ele>1635</ele><speed>16.85</speed><time>2016-06-02T13:34:13Z</time><pdop>25.0</pdop><geoidheight>51.00</geoidheight><course>99.3</course><type>1</type></trkpt>
      <trkpt lat="38.49017417" lon="-2.19431971"><ele>1629</ele><speed>14.27</speed><time>2016-06-02T13:34:17Z</time><pdop>22.0</pdop><geoidheight>51.00</geoidheight><course>90.6</course><type>1</type></trkpt>
      <trkpt lat="38.49023781" lon="-2.19373086"><ele>1623</ele><speed>17.76</speed><time>2016-06-02T13:34:20Z</time><pdop>18.0</pdop><geoidheight>51.00</geoidheight><course>83.8</course><type>1</type></trkpt>
      <trkpt lat="38.49028934" lon="-2.19326761"><ele>1615</ele><speed>11.30</speed><time>2016-06-02T13:34:24Z</time><pdop>15.0</pdop><geoidheight>51.00</geoidheight><course>80.0</course><type>1</type></trkpt>
      <trkpt lat="38.49037816" lon="-2.19286034"><ele>1612</ele><speed>13.54</speed><time>2016-06-02T13:34:27Z</time><pdop>15.0</pdop><geoidheight>51.00</geoidheight><course>80.5</course><type>1</type></trkpt>
      <trkpt lat="38.49042649" lon="-2.19250348"><ele>1609</ele><speed>15.49</speed><time>2016-06-02T13:34:29Z</time><pdop>16.0</pdop><geoidheight>51.00</geoidheight><course>81.4</course><type>1</type></trkpt>
      <trkpt lat="38.49049231" lon="-2.19213327"><ele>1610</ele><speed>15.24</speed><time>2016-06-02T13:34:31Z</time><pdop>16.0</pdop><geoidheight>51.00</geoidheight><course>78.3</course><type>1</type></trkpt>
      <trkpt lat="38.49050891" lon="-2.19165624"><ele>1603</ele><speed>13.54</speed><time>2016-06-02T13:34:34Z</time><pdop>16.0</pdop><geoidheight>51.00</geoidheight><course>87.3</course><type>1</type></trkpt>
      <trkpt lat="38.49051815" lon="-2.19112122"><ele>1600</ele><speed>15.87</speed><time>2016-06-02T13:34:37Z</time><pdop>17.0</pdop><geoidheight>51.00</geoidheight><course>91.8</course><type>1</type></trkpt>
      <trkpt lat="38.49047509" lon="-2.19061504"><ele>1595</ele><speed>13.35</speed><time>2016-06-02T13:34:40Z</time><pdop>14.0</pdop><geoidheight>51.00</geoidheight><course>96.5</course><type>1</type></trkpt>
      <trkpt lat="38.4904526" lon="-2.19020891"><ele>1591</ele><speed>11.30</speed><time>2016-06-02T13:34:43Z</time><pdop>14.0</pdop><geoidheight>51.00</geoidheight><course>97.0</course><type>1</type></trkpt>
      <trkpt lat="38.49045375" lon="-2.18975107"><ele>1588</ele><speed>13.92</speed><time>2016-06-02T13:34:46Z</time><pdop>14.0</pdop><geoidheight>51.00</geoidheight><course>88.0</course><type>1</type></trkpt>
      <trkpt lat="38.4904721" lon="-2.18932932"><ele>1580</ele><speed>11.26</speed><time>2016-06-02T13:34:49Z</time><pdop>21.0</pdop><geoidheight>51.00</geoidheight><course>85.3</course><type>1</type></trkpt>
      <trkpt lat="38.49082123" lon="-2.18916286"><ele>1551</ele><speed>7.48</speed><time>2016-06-02T13:34:55Z</time><pdop>20.0</pdop><geoidheight>51.00</geoidheight><course>346.8</course><type>1</type></trkpt>
      <trkpt lat="38.49056156" lon="-2.18954781"><ele>1537</ele><speed>9.36</speed><time>2016-06-02T13:34:59Z</time><pdop>16.0</pdop><geoidheight>51.00</geoidheight><course>229.9</course><type>1</type></trkpt>
      <trkpt lat="38.49022605" lon="-2.18944419"><ele>1528</ele><speed>8.96</speed><time>2016-06-02T13:35:02Z</time><pdop>16.0</pdop><geoidheight>51.00</geoidheight><course>175.4</course><type>1</type></trkpt>
      <trkpt lat="38.49009824" lon="-2.18913476"><ele>1534</ele><speed>10.61</speed><time>2016-06-02T13:35:04Z</time><pdop>12.0</pdop><geoidheight>51.00</geoidheight><course>133.7</course><type>1</type></trkpt>
      <trkpt lat="38.48995592" lon="-2.18888401"><ele>1533</ele><speed>12.87</speed><time>2016-06-02T13:35:06Z</time><pdop>13.0</pdop><geoidheight>51.00</geoidheight><course>124.8</course><type>1</type></trkpt>
      <trkpt lat="38.48982531" lon="-2.18859436"><ele>1531</ele><speed>13.31</speed><time>2016-06-02T13:35:08Z</time><pdop>13.0</pdop><geoidheight>51.00</geoidheight><course>119.2</course><type>1</type></trkpt>
      <trkpt lat="38.4897776" lon="-2.18831149"><ele>1529</ele><speed>11.78</speed><time>2016-06-02T13:35:10Z</time><pdop>12.0</pdop><geoidheight>51.00</geoidheight><course>106.7</course><type>1</type></trkpt>
      <trkpt lat="38.48990003" lon="-2.18802313"><ele>1529</ele><speed>8.99</speed><time>2016-06-02T13:35:13Z</time><pdop>12.0</pdop><geoidheight>51.00</geoidheight><course>78.4</course><type>1</type></trkpt>
      <trkpt lat="38.49014818" lon="-2.18812923"><ele>1527</ele><speed>6.02</speed><time>2016-06-02T13:35:16Z</time><pdop>10.0</pdop><geoidheight>51.00</geoidheight><course>355.1</course><type>1</type></trkpt>
      <trkpt lat="38.4900831" lon="-2.18836436"><ele>1527</ele><speed>6.48</speed><time>2016-06-02T13:35:19Z</time><pdop>11.0</pdop><geoidheight>51.00</geoidheight><course>239.6</course><type>1</type></trkpt>
      <trkpt lat="38.48987288" lon="-2.18855089"><ele>1529</ele><speed>7.07</speed><time>2016-06-02T13:35:22Z</time><pdop>11.0</pdop><geoidheight>51.00</geoidheight><course>217.0</course><type>1</type></trkpt>
      <trkpt lat="38.48966993" lon="-2.18842751"><ele>1530</ele><speed>7.99</speed><time>2016-06-02T13:35:24Z</time><pdop>14.0</pdop><geoidheight>51.00</geoidheight><course>174.8</course><type>1</type></trkpt>
      <trkpt lat="38.48950933" lon="-2.18811678"><ele>1531</ele><speed>10.08</speed><time>2016-06-02T13:35:26Z</time><pdop>14.0</pdop><geoidheight>51.00</geoidheight><course>130.3</course><type>1</type></trkpt>
      <trkpt lat="38.48947821" lon="-2.18686038"><ele>1857</ele><speed>10.68</speed><time>2016-06-02T13:35:34Z</time><pdop>12.0</pdop><geoidheight>51.00</geoidheight><course>78.4</course><type>1</type></trkpt>
      <trkpt lat="38.48952888" lon="-2.18657842"><ele>1787</ele><speed>11.92</speed><time>2016-06-02T13:35:36Z</time><pdop>12.0</pdop><geoidheight>51.00</geoidheight><course>77.0</course><type>1</type></trkpt>
      <trkpt lat="38.48957944" lon="-2.18619106"><ele>1697</ele><speed>10.01</speed><time>2016-06-02T13:35:39Z</time><pdop>11.0</pdop><geoidheight>51.00</geoidheight><course>77.4</course><type>1</type></trkpt>
      <trkpt lat="38.48964654" lon="-2.18585885"><ele>1666</ele><speed>9.77</speed><time>2016-06-02T13:35:42Z</time><pdop>11.0</pdop><geoidheight>51.00</geoidheight><course>73.6</course><type>1</type></trkpt>
      <trkpt lat="38.48981014" lon="-2.18562059"><ele>1644</ele><speed>7.06</speed><time>2016-06-02T13:35:45Z</time><pdop>11.0</pdop><geoidheight>51.00</geoidheight><course>42.9</course><type>1</type></trkpt>
      <trkpt lat="38.49002405" lon="-2.18558459"><ele>1625</ele><speed>6.90</speed><time>2016-06-02T13:35:48Z</time><pdop>10.0</pdop><geoidheight>51.00</geoidheight><course>5.5</course><type>1</type></trkpt>
      <trkpt lat="38.490251" lon="-2.18560618"><ele>1625</ele><speed>7.95</speed><time>2016-06-02T13:35:51Z</time><pdop>10.0</pdop><geoidheight>51.00</geoidheight><course>358.5</course><type>1</type></trkpt>
      <trkpt lat="38.49045044" lon="-2.1855789"><ele>1619</ele><speed>7.16</speed><time>2016-06-02T13:35:54Z</time><pdop>10.0</pdop><geoidheight>51.00</geoidheight><course>3.8</course><type>1</type></trkpt>
      <trkpt lat="38.49045267" lon="-2.18584869"><ele>1730</ele><speed>7.52</speed><time>2016-06-02T13:35:57Z</time><pdop>9.0</pdop><geoidheight>51.00</geoidheight><course>253.0</course><type>1</type></trkpt>
      <trkpt lat="38.49030855" lon="-2.18598728"><ele>1676</ele><speed>9.92</speed><time>2016-06-02T13:35:59Z</time><pdop>9.0</pdop><geoidheight>51.00</geoidheight><course>213.1</course><type>1</type></trkpt>
      <trkpt lat="38.49010505" lon="-2.18604914"><ele>1668</ele><speed>10.41</speed><time>2016-06-02T13:36:01Z</time><pdop>10.0</pdop><geoidheight>51.00</geoidheight><course>199.5</course><type>1</type></trkpt>
      <trkpt lat="38.48983892" lon="-2.18592734"><ele>1660</ele><speed>12.82</speed><time>2016-06-02T13:36:03Z</time><pdop>10.0</pdop><geoidheight>51.00</geoidheight><course>166.5</course><type>1</type></trkpt>
      <trkpt lat="38.48966061" lon="-2.18579841"><ele>1656</ele><speed>11.31</speed><time>2016-06-02T13:36:05Z</time><pdop>11.0</pdop><geoidheight>51.00</geoidheight><course>156.4</course><type>1</type></trkpt>
      <trkpt lat="38.48948926" lon="-2.18551178"><ele>1665</ele><speed>10.03</speed><time>2016-06-02T13:36:08Z</time><pdop>12.0</pdop><geoidheight>51.00</geoidheight><course>132.3</course><type>1</type></trkpt>
      <trkpt lat="38.48937316" lon="-2.18526542"><ele>1671</ele><speed>11.93</speed><time>2016-06-02T13:36:10Z</time><pdop>12.0</pdop><geoidheight>51.00</geoidheight><course>117.4</course><type>1</type></trkpt>
      <trkpt lat="38.48930463" lon="-2.1848712"><ele>1681</ele><speed>13.51</speed><time>2016-06-02T13:36:12Z</time><pdop>13.0</pdop><geoidheight>51.00</geoidheight><course>104.1</course><type>1</type></trkpt>
      <trkpt lat="38.48927969" lon="-2.18454104"><ele>1673</ele><speed>12.09</speed><time>2016-06-02T13:36:14Z</time><pdop>13.0</pdop><geoidheight>51.00</geoidheight><course>91.8</course><type>1</type></trkpt>
      <trkpt lat="38.48938882" lon="-2.18422855"><ele>1670</ele><speed>7.92</speed><time>2016-06-02T13:36:17Z</time><pdop>13.0</pdop><geoidheight>51.00</geoidheight><course>72.3</course><type>1</type></trkpt>
      <trkpt lat="38.48964366" lon="-2.18402941"><ele>1669</ele><speed>9.42</speed><time>2016-06-02T13:36:20Z</time><pdop>10.0</pdop><geoidheight>51.00</geoidheight><course>40.9</course><type>1</type></trkpt>
      <trkpt lat="38.48980904" lon="-2.18381866"><ele>1675</ele><speed>8.13</speed><time>2016-06-02T13:36:23Z</time><pdop>10.0</pdop><geoidheight>51.00</geoidheight><course>53.5</course><type>1</type></trkpt>
      <trkpt lat="38.490021" lon="-2.18364949"><ele>1677</ele><speed>8.80</speed><time>2016-06-02T13:36:26Z</time><pdop>10.0</pdop><geoidheight>51.00</geoidheight><course>31.8</course><type>1</type></trkpt>
      <trkpt lat="38.48993181" lon="-2.18392529"><ele>1682</ele><speed>7.72</speed><time>2016-06-02T13:36:30Z</time><pdop>11.0</pdop><geoidheight>51.00</geoidheight><course>230.2</course><type>1</type></trkpt>
      <trkpt lat="38.48968665" lon="-2.18398982"><ele>1683</ele><speed>12.10</speed><time>2016-06-02T13:36:32Z</time><pdop>10.0</pdop><geoidheight>51.00</geoidheight><course>192.0</course><type>1</type></trkpt>
      <trkpt lat="38.4894483" lon="-2.18402995"><ele>1684</ele><speed>12.86</speed><time>2016-06-02T13:36:34Z</time><pdop>11.0</pdop><geoidheight>51.00</geoidheight><course>189.9</course><type>1</type></trkpt>
      <trkpt lat="38.48916319" lon="-2.18371001"><ele>1691</ele><speed>12.23</speed><time>2016-06-02T13:36:37Z</time><pdop>13.0</pdop><geoidheight>51.00</geoidheight><course>145.0</course><type>1</type></trkpt>
      <trkpt lat="38.48912594" lon="-2.18318499"><ele>1708</ele><speed>8.80</speed><time>2016-06-02T13:36:41Z</time><pdop>19.0</pdop><geoidheight>51.00</geoidheight><course>95.9</course><type>1</type></trkpt>
      <trkpt lat="38.48942162" lon="-2.18295441"><ele>1710</ele><speed>7.81</speed><time>2016-06-02T13:36:44Z</time><pdop>14.0</pdop><geoidheight>51.00</geoidheight><course>53.5</course><type>1</type></trkpt>
      <trkpt lat="38.48950712" lon="-2.18328308"><ele>1719</ele><speed>4.78</speed><time>2016-06-02T13:36:48Z</time><pdop>12.0</pdop><geoidheight>51.00</geoidheight><course>269.4</course><type>1</type></trkpt>
      <trkpt lat="38.48928492" lon="-2.18352011"><ele>1721</ele><speed>10.21</speed><time>2016-06-02T13:36:50Z</time><pdop>11.0</pdop><geoidheight>51.00</geoidheight><course>220.4</course><type>1</type></trkpt>
      <trkpt lat="38.48906808" lon="-2.18358141"><ele>1728</ele><speed>10.07</speed><time>2016-06-02T13:36:52Z</time><pdop>11.0</pdop><geoidheight>51.00</geoidheight><course>194.8</course><type>1</type></trkpt>
      <trkpt lat="38.488823" lon="-2.18359141"><ele>1730</ele><speed>11.60</speed><time>2016-06-02T13:36:54Z</time><pdop>14.0</pdop><geoidheight>51.00</geoidheight><course>187.8</course><type>1</type></trkpt>
      <trkpt lat="38.48860259" lon="-2.18321013"><ele>1736</ele><speed>10.65</speed><time>2016-06-02T13:36:57Z</time><pdop>15.0</pdop><geoidheight>51.00</geoidheight><course>137.6</course><type>1</type></trkpt>
      <trkpt lat="38.48851413" lon="-2.18286857"><ele>1740</ele><speed>10.83</speed><time>2016-06-02T13:36:59Z</time><pdop>16.0</pdop><geoidheight>51.00</geoidheight><course>117.2</course><type>1</type></trkpt>
      <trkpt lat="38.48853893" lon="-2.18251732"><ele>1743</ele><speed>11.37</speed><time>2016-06-02T13:37:01Z</time><pdop>14.0</pdop><geoidheight>51.00</geoidheight><course>94.4</course><type>1</type></trkpt>
      <trkpt lat="38.48862881" lon="-2.18218263"><ele>1749</ele><speed>12.54</speed><time>2016-06-02T13:37:03Z</time><pdop>14.0</pdop><geoidheight>51.00</geoidheight><course>79.1</course><type>1</type></trkpt>
      <trkpt lat="38.48876802" lon="-2.18184984"><ele>1757</ele><speed>11.75</speed><time>2016-06-02T13:37:05Z</time><pdop>13.0</pdop><geoidheight>51.00</geoidheight><course>69.6</course><type>1</type></trkpt>
      <trkpt lat="38.48904158" lon="-2.18166032"><ele>1764</ele><speed>9.74</speed><time>2016-06-02T13:37:08Z</time><pdop>11.0</pdop><geoidheight>51.00</geoidheight><course>39.8</course><type>1</type></trkpt>
      <trkpt lat="38.48923713" lon="-2.18180521"><ele>1770</ele><speed>5.16</speed><time>2016-06-02T13:37:11Z</time><pdop>10.0</pdop><geoidheight>51.00</geoidheight><course>333.6</course><type>1</type></trkpt>
      <trkpt lat="38.48906739" lon="-2.18203107"><ele>1777</ele><speed>7.38</speed><time>2016-06-02T13:37:14Z</time><pdop>11.0</pdop><geoidheight>51.00</geoidheight><course>228.1</course><type>1</type></trkpt>
      <trkpt lat="38.48883832" lon="-2.18205428"><ele>1781</ele><speed>10.98</speed><time>2016-06-02T13:37:16Z</time><pdop>11.0</pdop><geoidheight>51.00</geoidheight><course>185.6</course><type>1</type></trkpt>
      <trkpt lat="38.48850955" lon="-2.1820587"><ele>1782</ele><speed>11.37</speed><time>2016-06-02T13:37:19Z</time><pdop>12.0</pdop><geoidheight>51.00</geoidheight><course>178.8</course><type>1</type></trkpt>
      <trkpt lat="38.48829174" lon="-2.18168212"><ele>1793</ele><speed>12.06</speed><time>2016-06-02T13:37:22Z</time><pdop>16.0</pdop><geoidheight>51.00</geoidheight><course>137.0</course><type>1</type></trkpt>
      <trkpt lat="38.48835569" lon="-2.18118653"><ele>1802</ele><speed>10.79</speed><time>2016-06-02T13:37:25Z</time><pdop>17.0</pdop><geoidheight>51.00</geoidheight><course>89.1</course><type>1</type></trkpt>
      <trkpt lat="38.48862255" lon="-2.18087066"><ele>1814</ele><speed>8.84</speed><time>2016-06-02T13:37:28Z</time><pdop>12.0</pdop><geoidheight>51.00</geoidheight><course>49.4</course><type>1</type></trkpt>
      <trkpt lat="38.48892329" lon="-2.18080017"><ele>1821</ele><speed>9.68</speed><time>2016-06-02T13:37:31Z</time><pdop>13.0</pdop><geoidheight>51.00</geoidheight><course>10.2</course><type>1</type></trkpt>
      <trkpt lat="38.48916545" lon="-2.18091803"><ele>1831</ele><speed>8.57</speed><time>2016-06-02T13:37:34Z</time><pdop>13.0</pdop><geoidheight>51.00</geoidheight><course>341.2</course><type>1</type></trkpt>
      <trkpt lat="38.48902437" lon="-2.18121838"><ele>1841</ele><speed>8.67</speed><time>2016-06-02T13:37:39Z</time><pdop>12.0</pdop><geoidheight>51.00</geoidheight><course>239.6</course><type>1</type></trkpt>
      <trkpt lat="38.48879695" lon="-2.18144606"><ele>1846</ele><speed>9.07</speed><time>2016-06-02T13:37:42Z</time><pdop>13.0</pdop><geoidheight>51.00</geoidheight><course>218.9</course><type>1</type></trkpt>
      <trkpt lat="38.48853374" lon="-2.18133005"><ele>1851</ele><speed>7.30</speed><time>2016-06-02T13:37:45Z</time><pdop>13.0</pdop><geoidheight>51.00</geoidheight><course>172.1</course><type>1</type></trkpt>
      <trkpt lat="38.48836372" lon="-2.18099102"><ele>1856</ele><speed>11.43</speed><time>2016-06-02T13:37:47Z</time><pdop>12.0</pdop><geoidheight>51.00</geoidheight><course>130.9</course><type>1</type></trkpt>
      <trkpt lat="38.48822458" lon="-2.18076858"><ele>1860</ele><speed>10.34</speed><time>2016-06-02T13:37:49Z</time><pdop>12.0</pdop><geoidheight>51.00</geoidheight><course>125.8</course><type>1</type></trkpt>
      <trkpt lat="38.48809331" lon="-2.18050508"><ele>1866</ele><speed>11.91</speed><time>2016-06-02T13:37:51Z</time><pdop>13.0</pdop><geoidheight>51.00</geoidheight><course>117.9</course><type>1</type></trkpt>
      <trkpt lat="38.48810302" lon="-2.1800733"><ele>1874</ele><speed>11.25</speed><time>2016-06-02T13:37:54Z</time><pdop>18.0</pdop><geoidheight>51.00</geoidheight><course>85.7</course><type>1</type></trkpt>
      <trkpt lat="38.48820053" lon="-2.17961056"><ele>1888</ele><speed>11.80</speed><time>2016-06-02T13:37:57Z</time><pdop>16.0</pdop><geoidheight>51.00</geoidheight><course>79.6</course><type>1</type></trkpt>
      <trkpt lat="38.48825069" lon="-2.17922932"><ele>1901</ele><speed>10.78</speed><time>2016-06-02T13:38:00Z</time><pdop>15.0</pdop><geoidheight>51.00</geoidheight><course>85.2</course><type>1</type></trkpt>
      <trkpt lat="38.48824874" lon="-2.17891737"><ele>1908</ele><speed>12.65</speed><time>2016-06-02T13:38:02Z</time><pdop>12.0</pdop><geoidheight>51.00</geoidheight><course>82.6</course><type>1</type></trkpt>
      <trkpt lat="38.48828378" lon="-2.17856009"><ele>1925</ele><speed>9.73</speed><time>2016-06-02T13:38:05Z</time><pdop>12.0</pdop><geoidheight>51.00</geoidheight><course>74.8</course><type>1</type></trkpt>
      <trkpt lat="38.48847137" lon="-2.17834214"><ele>1936</ele><speed>5.63</speed><time>2016-06-02T13:38:09Z</time><pdop>13.0</pdop><geoidheight>51.00</geoidheight><course>40.4</course><type>1</type></trkpt>
      <trkpt lat="38.48837617" lon="-2.17872565"><ele>1946</ele><speed>8.99</speed><time>2016-06-02T13:38:14Z</time><pdop>13.0</pdop><geoidheight>51.00</geoidheight><course>241.9</course><type>1</type></trkpt>
      <trkpt lat="38.48816748" lon="-2.17895065"><ele>1949</ele><speed>7.43</speed><time>2016-06-02T13:38:17Z</time><pdop>14.0</pdop><geoidheight>51.00</geoidheight><course>218.5</course><type>1</type></trkpt>
      <trkpt lat="38.48795154" lon="-2.17878816"><ele>1953</ele><speed>9.38</speed><time>2016-06-02T13:38:19Z</time><pdop>13.0</pdop><geoidheight>51.00</geoidheight><course>161.6</course><type>1</type></trkpt>
      <trkpt lat="38.48770407" lon="-2.1786259"><ele>1958</ele><speed>11.75</speed><time>2016-06-02T13:38:21Z</time><pdop>14.0</pdop><geoidheight>51.00</geoidheight><course>152.1</course><type>1</type></trkpt>
      <trkpt lat="38.48757867" lon="-2.17827947"><ele>1965</ele><speed>12.63</speed><time>2016-06-02T13:38:23Z</time><pdop>15.0</pdop><geoidheight>51.00</geoidheight><course>123.4</course><type>1</type></trkpt>
      <trkpt lat="38.48751343" lon="-2.17782779"><ele>1977</ele><speed>12.23</speed><time>2016-06-02T13:38:26Z</time><pdop>15.0</pdop><geoidheight>51.00</geoidheight><course>104.7</course><type>1</type></trkpt>
      <trkpt lat="38.48763792" lon="-2.1774663"><ele>1986</ele><speed>10.64</speed><time>2016-06-02T13:38:29Z</time><pdop>14.0</pdop><geoidheight>51.00</geoidheight><course>77.9</course><type>1</type></trkpt>
      <trkpt lat="38.4877347" lon="-2.17715319"><ele>1992</ele><speed>10.48</speed><time>2016-06-02T13:38:32Z</time><pdop>14.0</pdop><geoidheight>51.00</geoidheight><course>72.1</course><type>1</type></trkpt>
      <trkpt lat="38.4878123" lon="-2.17682938"><ele>2003</ele><speed>10.00</speed><time>2016-06-02T13:38:35Z</time><pdop>12.0</pdop><geoidheight>51.00</geoidheight><course>71.1</course><type>1</type></trkpt>
      <trkpt lat="38.48789147" lon="-2.17653969"><ele>2014</ele><speed>11.90</speed><time>2016-06-02T13:38:37Z</time><pdop>11.0</pdop><geoidheight>51.00</geoidheight><course>76.8</course><type>1</type></trkpt>
      <trkpt lat="38.48794255" lon="-2.17629131"><ele>2026</ele><speed>11.18</speed><time>2016-06-02T13:38:39Z</time><pdop>11.0</pdop><geoidheight>51.00</geoidheight><course>82.6</course><type>1</type></trkpt>
      <trkpt lat="38.4879947" lon="-2.17594781"><ele>2036</ele><speed>9.29</speed><time>2016-06-02T13:38:42Z</time><pdop>11.0</pdop><geoidheight>51.00</geoidheight><course>75.0</course><type>1</type></trkpt>
      <trkpt lat="38.48804549" lon="-2.17564311"><ele>2043</ele><speed>8.93</speed><time>2016-06-02T13:38:45Z</time><pdop>12.0</pdop><geoidheight>51.00</geoidheight><course>81.2</course><type>1</type></trkpt>
      <trkpt lat="38.48811596" lon="-2.17526374"><ele>2059</ele><speed>7.32</speed><time>2016-06-02T13:38:49Z</time><pdop>14.0</pdop><geoidheight>51.00</geoidheight><course>72.0</course><type>1</type></trkpt>
      <trkpt lat="38.48838423" lon="-2.17522905"><ele>2069</ele><speed>8.52</speed><time>2016-06-02T13:38:52Z</time><pdop>14.0</pdop><geoidheight>51.00</geoidheight><course>351.1</course><type>1</type></trkpt>
      <trkpt lat="38.4886318" lon="-2.17529111"><ele>2076</ele><speed>8.24</speed><time>2016-06-02T13:38:55Z</time><pdop>14.0</pdop><geoidheight>51.00</geoidheight><course>342.8</course><type>1</type></trkpt>
      <trkpt lat="38.48851015" lon="-2.17557353"><ele>2086</ele><speed>6.61</speed><time>2016-06-02T13:39:00Z</time><pdop>13.0</pdop><geoidheight>51.00</geoidheight><course>231.7</course><type>1</type></trkpt>
      <trkpt lat="38.48816777" lon="-2.17558855"><ele>2091</ele><speed>10.18</speed><time>2016-06-02T13:39:03Z</time><pdop>14.0</pdop><geoidheight>51.00</geoidheight><course>187.1</course><type>1</type></trkpt>
      <trkpt lat="38.48784027" lon="-2.17547616"><ele>2097</ele><speed>10.20</speed><time>2016-06-02T13:39:06Z</time><pdop>16.0</pdop><geoidheight>51.00</geoidheight><course>169.9</course><type>1</type></trkpt>
      <trkpt lat="38.48763982" lon="-2.17503216"><ele>2112</ele><speed>10.21</speed><time>2016-06-02T13:39:10Z</time><pdop>17.0</pdop><geoidheight>51.00</geoidheight><course>118.1</course><type>1</type></trkpt>
      <trkpt lat="38.4874694" lon="-2.17456969"><ele>2122</ele><speed>12.69</speed><time>2016-06-02T13:39:13Z</time><pdop>22.0</pdop><geoidheight>51.00</geoidheight><course>111.8</course><type>1</type></trkpt>
      <trkpt lat="38.48742856" lon="-2.17397252"><ele>2142</ele><speed>10.51</speed><time>2016-06-02T13:39:17Z</time><pdop>22.0</pdop><geoidheight>51.00</geoidheight><course>85.7</course><type>1</type></trkpt>
      <trkpt lat="38.48764983" lon="-2.17350025"><ele>2174</ele><speed>7.78</speed><time>2016-06-02T13:39:22Z</time><pdop>17.0</pdop><geoidheight>51.00</geoidheight><course>46.3</course><type>1</type></trkpt>
      <trkpt lat="38.48742129" lon="-2.17392091"><ele>2188</ele><speed>10.31</speed><time>2016-06-02T13:39:28Z</time><pdop>15.0</pdop><geoidheight>51.00</geoidheight><course>222.0</course><type>1</type></trkpt>
      <trkpt lat="38.48717525" lon="-2.17418673"><ele>2191</ele><speed>10.87</speed><time>2016-06-02T13:39:31Z</time><pdop>13.0</pdop><geoidheight>51.00</geoidheight><course>204.0</course><type>1</type></trkpt>
      <trkpt lat="38.48693617" lon="-2.17423524"><ele>2195</ele><speed>11.42</speed><time>2016-06-02T13:39:33Z</time><pdop>12.0</pdop><geoidheight>51.00</geoidheight><course>183.5</course><type>1</type></trkpt>
      <trkpt lat="38.48660891" lon="-2.17404312"><ele>2206</ele><speed>9.89</speed><time>2016-06-02T13:39:37Z</time><pdop>19.0</pdop><geoidheight>51.00</geoidheight><course>148.0</course><type>1</type></trkpt>
      <trkpt lat="38.48637625" lon="-2.1736255"><ele>2217</ele><speed>10.96</speed><time>2016-06-02T13:39:41Z</time><pdop>22.0</pdop><geoidheight>51.00</geoidheight><course>115.5</course><type>1</type></trkpt>
      <trkpt lat="38.48638918" lon="-2.17305405"><ele>2234</ele><speed>10.75</speed><time>2016-06-02T13:39:45Z</time><pdop>19.0</pdop><geoidheight>51.00</geoidheight><course>87.7</course><type>1</type></trkpt>
      <trkpt lat="38.48652173" lon="-2.17256602"><ele>2252</ele><speed>9.88</speed><time>2016-06-02T13:39:49Z</time><pdop>23.0</pdop><geoidheight>51.00</geoidheight><course>72.7</course><type>1</type></trkpt>
      <trkpt lat="38.48692075" lon="-2.17262656"><ele>2258</ele><speed>8.28</speed><time>2016-06-02T13:39:52Z</time><pdop>17.0</pdop><geoidheight>51.00</geoidheight><course>9.5</course><type>1</type></trkpt>
      <trkpt lat="38.48689142" lon="-2.17310246"><ele>2284</ele><speed>9.16</speed><time>2016-06-02T13:40:01Z</time><pdop>18.0</pdop><geoidheight>51.00</geoidheight><course>224.2</course><type>1</type></trkpt>
      <trkpt lat="38.48653569" lon="-2.17308509"><ele>2295</ele><speed>7.67</speed><time>2016-06-02T13:40:05Z</time><pdop>21.0</pdop><geoidheight>51.00</geoidheight><course>168.6</course><type>1</type></trkpt>
      <trkpt lat="38.48626102" lon="-2.1727005"><ele>2309</ele><speed>10.12</speed><time>2016-06-02T13:40:09Z</time><pdop>24.0</pdop><geoidheight>51.00</geoidheight><course>120.1</course><type>1</type></trkpt>
      <trkpt lat="38.48627168" lon="-2.17209839"><ele>2325</ele><speed>9.96</speed><time>2016-06-02T13:40:13Z</time><pdop>26.0</pdop><geoidheight>51.00</geoidheight><course>88.3</course><type>1</type></trkpt>
      <trkpt lat="38.4861556" lon="-2.17258246"><ele>2390</ele><speed>10.33</speed><time>2016-06-02T13:40:26Z</time><pdop>17.0</pdop><geoidheight>51.00</geoidheight><course>191.3</course><type>1</type></trkpt>
      <trkpt lat="38.48572842" lon="-2.17267508"><ele>2409</ele><speed>7.90</speed><time>2016-06-02T13:40:31Z</time><pdop>28.0</pdop><geoidheight>51.00</geoidheight><course>176.8</course><type>1</type></trkpt>
      <trkpt lat="38.48585024" lon="-2.17182043"><ele>2447</ele><speed>7.68</speed><time>2016-06-02T13:40:39Z</time><pdop>38.0</pdop><geoidheight>51.00</geoidheight><course>60.3</course><type>1</type></trkpt>
      <trkpt lat="38.48542645" lon="-2.17117046"><ele>2536</ele><speed>11.76</speed><time>2016-06-02T13:41:04Z</time><pdop>26.0</pdop><geoidheight>51.00</geoidheight><course>71.2</course><type>1</type></trkpt>
      <trkpt lat="38.48587327" lon="-2.17098293"><ele>2565</ele><speed>10.93</speed><time>2016-06-02T13:41:08Z</time><pdop>19.0</pdop><geoidheight>51.00</geoidheight><course>353.9</course><type>1</type></trkpt>
      <trkpt lat="38.48619269" lon="-2.17107411"><ele>2576</ele><speed>9.16</speed><time>2016-06-02T13:41:12Z</time><pdop>16.0</pdop><geoidheight>51.00</geoidheight><course>342.4</course><type>1</type></trkpt>
      <trkpt lat="38.48618406" lon="-2.1715239"><ele>2589</ele><speed>7.12</speed><time>2016-06-02T13:41:19Z</time><pdop>21.0</pdop><geoidheight>51.00</geoidheight><course>253.5</course><type>1</type></trkpt>
      <trkpt lat="38.48580877" lon="-2.17153087"><ele>2596</ele><speed>11.19</speed><time>2016-06-02T13:41:22Z</time><pdop>17.0</pdop><geoidheight>51.00</geoidheight><course>172.2</course><type>1</type></trkpt>
      <trkpt lat="38.48545545" lon="-2.17133196"><ele>2601</ele><speed>9.72</speed><time>2016-06-02T13:41:26Z</time><pdop>20.0</pdop><geoidheight>51.00</geoidheight><course>143.9</course><type>1</type></trkpt>
      <trkpt lat="38.485289" lon="-2.17071191"><ele>2620</ele><speed>11.49</speed><time>2016-06-02T13:41:31Z</time><pdop>28.0</pdop><geoidheight>51.00</geoidheight><course>88.7</course><type>1</type></trkpt>
      <trkpt lat="38.48561177" lon="-2.17030985"><ele>2641</ele><speed>10.54</speed><time>2016-06-02T13:41:35Z</time><pdop>20.0</pdop><geoidheight>51.00</geoidheight><course>45.0</course><type>1</type></trkpt>
      <trkpt lat="38.48599386" lon="-2.17016718"><ele>2654</ele><speed>10.06</speed><time>2016-06-02T13:41:39Z</time><pdop>19.0</pdop><geoidheight>51.00</geoidheight><course>11.6</course><type>1</type></trkpt>
      <trkpt lat="38.48639767" lon="-2.17025106"><ele>2521</ele><speed>10.00</speed><time>2016-06-02T13:41:43Z</time><pdop>16.0</pdop><geoidheight>51.00</geoidheight><course>347.9</course><type>1</type></trkpt>
      <trkpt lat="38.48645619" lon="-2.17063198"><ele>2593</ele><speed>7.66</speed><time>2016-06-02T13:41:48Z</time><pdop>14.0</pdop><geoidheight>51.00</geoidheight><course>262.8</course><type>1</type></trkpt>
      <trkpt lat="38.48621577" lon="-2.17088151"><ele>2624</ele><speed>12.26</speed><time>2016-06-02T13:41:50Z</time><pdop>12.0</pdop><geoidheight>51.00</geoidheight><course>215.0</course><type>1</type></trkpt>
      <trkpt lat="38.48598256" lon="-2.17092277"><ele>2646</ele><speed>12.52</speed><time>2016-06-02T13:41:52Z</time><pdop>12.0</pdop><geoidheight>51.00</geoidheight><course>178.9</course><type>1</type></trkpt>
      <trkpt lat="38.48573646" lon="-2.17092101"><ele>2657</ele><speed>13.18</speed><time>2016-06-02T13:41:54Z</time><pdop>13.0</pdop><geoidheight>51.00</geoidheight><course>176.7</course><type>1</type></trkpt>
      <trkpt lat="38.48547184" lon="-2.17070802"><ele>2672</ele><speed>10.87</speed><time>2016-06-02T13:41:57Z</time><pdop>14.0</pdop><geoidheight>51.00</geoidheight><course>144.0</course><type>1</type></trkpt>
      <trkpt lat="38.48531867" lon="-2.17033252"><ele>2690</ele><speed>12.45</speed><time>2016-06-02T13:42:00Z</time><pdop>14.0</pdop><geoidheight>51.00</geoidheight><course>111.8</course><type>1</type></trkpt>
      <trkpt lat="38.48535114" lon="-2.16992053"><ele>2716</ele><speed>10.67</speed><time>2016-06-02T13:42:03Z</time><pdop>13.0</pdop><geoidheight>51.00</geoidheight><course>81.7</course><type>1</type></trkpt>
      <trkpt lat="38.48560724" lon="-2.16969035"><ele>2734</ele><speed>9.08</speed><time>2016-06-02T13:42:06Z</time><pdop>13.0</pdop><geoidheight>51.00</geoidheight><course>43.0</course><type>1</type></trkpt>
      <trkpt lat="38.48586549" lon="-2.1697519"><ele>2742</ele><speed>8.09</speed><time>2016-06-02T13:42:09Z</time><pdop>11.0</pdop><geoidheight>51.00</geoidheight><course>352.4</course><type>1</type></trkpt>
      <trkpt lat="38.48598525" lon="-2.1700693"><ele>2747</ele><speed>9.42</speed><time>2016-06-02T13:42:13Z</time><pdop>11.0</pdop><geoidheight>51.00</geoidheight><course>288.4</course><type>1</type></trkpt>
      <trkpt lat="38.4857757" lon="-2.17037117"><ele>2757</ele><speed>12.94</speed><time>2016-06-02T13:42:15Z</time><pdop>9.0</pdop><geoidheight>51.00</geoidheight><course>235.4</course><type>1</type></trkpt>
      <trkpt lat="38.48560701" lon="-2.17055672"><ele>2764</ele><speed>12.14</speed><time>2016-06-02T13:42:17Z</time><pdop>9.0</pdop><geoidheight>51.00</geoidheight><course>216.3</course><type>1</type></trkpt>
      <trkpt lat="38.48538319" lon="-2.17066017"><ele>2771</ele><speed>12.80</speed><time>2016-06-02T13:42:19Z</time><pdop>9.0</pdop><geoidheight>51.00</geoidheight><course>194.5</course><type>1</type></trkpt>
      <trkpt lat="38.48515654" lon="-2.17071911"><ele>2773</ele><speed>12.84</speed><time>2016-06-02T13:42:21Z</time><pdop>10.0</pdop><geoidheight>51.00</geoidheight><course>190.6</course><type>1</type></trkpt>
      <trkpt lat="38.48488131" lon="-2.17073947"><ele>2774</ele><speed>13.81</speed><time>2016-06-02T13:42:23Z</time><pdop>11.0</pdop><geoidheight>51.00</geoidheight><course>186.0</course><type>1</type></trkpt>
      <trkpt lat="38.48477182" lon="-2.1704951"><ele>2779</ele><speed>9.01</speed><time>2016-06-02T13:42:25Z</time><pdop>12.0</pdop><geoidheight>51.00</geoidheight><course>144.7</course><type>1</type></trkpt>
      <trkpt lat="38.48465015" lon="-2.17022322"><ele>2781</ele><speed>10.46</speed><time>2016-06-02T13:42:27Z</time><pdop>12.0</pdop><geoidheight>51.00</geoidheight><course>127.8</course><type>1</type></trkpt>
      <trkpt lat="38.48472602" lon="-2.16979595"><ele>2781</ele><speed>11.41</speed><time>2016-06-02T13:42:30Z</time><pdop>12.0</pdop><geoidheight>51.00</geoidheight><course>85.3</course><type>1</type></trkpt>
      <trkpt lat="38.48472398" lon="-2.16945563"><ele>2784</ele><speed>12.35</speed><time>2016-06-02T13:42:32Z</time><pdop>11.0</pdop><geoidheight>51.00</geoidheight><course>91.1</course><type>1</type></trkpt>
      <trkpt lat="38.48468854" lon="-2.16913577"><ele>2788</ele><speed>12.49</speed><time>2016-06-02T13:42:34Z</time><pdop>11.0</pdop><geoidheight>51.00</geoidheight><course>99.3</course><type>1</type></trkpt>
      <trkpt lat="38.48463902" lon="-2.16889669"><ele>2791</ele><speed>10.82</speed><time>2016-06-02T13:42:36Z</time><pdop>10.0</pdop><geoidheight>51.00</geoidheight><course>102.9</course><type>1</type></trkpt>
      <trkpt lat="38.48461973" lon="-2.16866704"><ele>2794</ele><speed>9.82</speed><time>2016-06-02T13:42:38Z</time><pdop>10.0</pdop><geoidheight>51.00</geoidheight><course>98.9</course><type>1</type></trkpt>
      <trkpt lat="38.48465432" lon="-2.16841213"><ele>2794</ele><speed>10.99</speed><time>2016-06-02T13:42:40Z</time><pdop>9.0</pdop><geoidheight>51.00</geoidheight><course>85.9</course><type>1</type></trkpt>
      <trkpt lat="38.48467652" lon="-2.16807376"><ele>2793</ele><speed>15.28</speed><time>2016-06-02T13:42:42Z</time><pdop>9.0</pdop><geoidheight>51.00</geoidheight><course>91.8</course><type>1</type></trkpt>
      <trkpt lat="38.48468104" lon="-2.16769104"><ele>2795</ele><speed>16.21</speed><time>2016-06-02T13:42:44Z</time><pdop>10.0</pdop><geoidheight>51.00</geoidheight><course>91.1</course><type>1</type></trkpt>
      <trkpt lat="38.48463009" lon="-2.16742225"><ele>2797</ele><speed>12.24</speed><time>2016-06-02T13:42:46Z</time><pdop>10.0</pdop><geoidheight>51.00</geoidheight><course>102.0</course><type>1</type></trkpt>
      <trkpt lat="38.48458574" lon="-2.1671913"><ele>2799</ele><speed>9.70</speed><time>2016-06-02T13:42:48Z</time><pdop>10.0</pdop><geoidheight>51.00</geoidheight><course>99.6</course><type>1</type></trkpt>
      <trkpt lat="38.48454914" lon="-2.16691888"><ele>2797</ele><speed>12.71</speed><time>2016-06-02T13:42:50Z</time><pdop>9.0</pdop><geoidheight>51.00</geoidheight><course>100.0</course><type>1</type></trkpt>
      <trkpt lat="38.4845071" lon="-2.16656229"><ele>2798</ele><speed>16.43</speed><time>2016-06-02T13:42:52Z</time><pdop>10.0</pdop><geoidheight>51.00</geoidheight><course>97.7</course><type>1</type></trkpt>
      <trkpt lat="38.48449418" lon="-2.16618515"><ele>2805</ele><speed>15.53</speed><time>2016-06-02T13:42:54Z</time><pdop>9.0</pdop><geoidheight>51.00</geoidheight><course>94.6</course><type>1</type></trkpt>
      <trkpt lat="38.48446582" lon="-2.16586271"><ele>2809</ele><speed>13.90</speed><time>2016-06-02T13:42:56Z</time><pdop>9.0</pdop><geoidheight>51.00</geoidheight><course>98.1</course><type>1</type></trkpt>
      <trkpt lat="38.48441053" lon="-2.16553876"><ele>2813</ele><speed>14.28</speed><time>2016-06-02T13:42:58Z</time><pdop>9.0</pdop><geoidheight>51.00</geoidheight><course>102.2</course><type>1</type></trkpt>
      <trkpt lat="38.48435289" lon="-2.16520366"><ele>2815</ele><speed>14.75</speed><time>2016-06-02T13:43:00Z</time><pdop>9.0</pdop><geoidheight>51.00</geoidheight><course>101.1</course><type>1</type></trkpt>
      <trkpt lat="38.48431863" lon="-2.16486469"><ele>2815</ele><speed>14.45</speed><time>2016-06-02T13:43:02Z</time><pdop>9.0</pdop><geoidheight>51.00</geoidheight><course>97.8</course><type>1</type></trkpt>
      <trkpt lat="38.48428344" lon="-2.16455688"><ele>2814</ele><speed>13.71</speed><time>2016-06-02T13:43:04Z</time><pdop>9.0</pdop><geoidheight>51.00</geoidheight><course>97.7</course><type>1</type></trkpt>
      <trkpt lat="38.48425229" lon="-2.1642301"><ele>2812</ele><speed>14.41</speed><time>2016-06-02T13:43:06Z</time><pdop>9.0</pdop><geoidheight>51.00</geoidheight><course>95.8</course><type>1</type></trkpt>
      <trkpt lat="38.48423906" lon="-2.16387407"><ele>2813</ele><speed>15.10</speed><time>2016-06-02T13:43:08Z</time><pdop>9.0</pdop><geoidheight>51.00</geoidheight><course>93.9</course><type>1</type></trkpt>
      <trkpt lat="38.48422667" lon="-2.1635498"><ele>2812</ele><speed>13.84</speed><time>2016-06-02T13:43:10Z</time><pdop>9.0</pdop><geoidheight>51.00</geoidheight><course>93.6</course><type>1</type></trkpt>
      <trkpt lat="38.48419617" lon="-2.16324413"><ele>2811</ele><speed>13.87</speed><time>2016-06-02T13:43:12Z</time><pdop>9.0</pdop><geoidheight>51.00</geoidheight><course>97.8</course><type>1</type></trkpt>
      <trkpt lat="38.48412655" lon="-2.16289177"><ele>2809</ele><speed>16.04</speed><time>2016-06-02T13:43:14Z</time><pdop>9.0</pdop><geoidheight>51.00</geoidheight><course>101.3</course><type>1</type></trkpt>
      <trkpt lat="38.48407904" lon="-2.16252299"><ele>2807</ele><speed>16.54</speed><time>2016-06-02T13:43:16Z</time><pdop>9.0</pdop><geoidheight>51.00</geoidheight><course>99.0</course><type>1</type></trkpt>
      <trkpt lat="38.48400452" lon="-2.16216412"><ele>2810</ele><speed>15.05</speed><time>2016-06-02T13:43:18Z</time><pdop>9.0</pdop><geoidheight>51.00</geoidheight><course>102.0</course><type>1</type></trkpt>
      <trkpt lat="38.48396212" lon="-2.16185827"><ele>2809</ele><speed>14.60</speed><time>2016-06-02T13:43:20Z</time><pdop>9.0</pdop><geoidheight>51.00</geoidheight><course>101.6</course><type>1</type></trkpt>
      <trkpt lat="38.48394695" lon="-2.16146753"><ele>2806</ele><speed>17.67</speed><time>2016-06-02T13:43:22Z</time><pdop>9.0</pdop><geoidheight>51.00</geoidheight><course>96.1</course><type>1</type></trkpt>
      <trkpt lat="38.48392683" lon="-2.16125222"><ele>2806</ele><speed>18.60</speed><time>2016-06-02T13:43:23Z</time><pdop>9.0</pdop><geoidheight>51.00</geoidheight><course>95.7</course><type>1</type></trkpt>
      <trkpt lat="38.48391341" lon="-2.16087714"><ele>2807</ele><speed>16.64</speed><time>2016-06-02T13:43:25Z</time><pdop>9.0</pdop><geoidheight>51.00</geoidheight><course>94.9</course><type>1</type></trkpt>
      <trkpt lat="38.48386122" lon="-2.16052935"><ele>2808</ele><speed>15.51</speed><time>2016-06-02T13:43:27Z</time><pdop>11.0</pdop><geoidheight>51.00</geoidheight><course>99.0</course><type>1</type></trkpt>
      <trkpt lat="38.48378272" lon="-2.16018795"><ele>2813</ele><speed>15.43</speed><time>2016-06-02T13:43:29Z</time><pdop>9.0</pdop><geoidheight>51.00</geoidheight><course>106.2</course><type>1</type></trkpt>
      <trkpt lat="38.48371088" lon="-2.15983486"><ele>2815</ele><speed>15.93</speed><time>2016-06-02T13:43:31Z</time><pdop>10.0</pdop><geoidheight>51.00</geoidheight><course>106.4</course><type>1</type></trkpt>
      <trkpt lat="38.48354615" lon="-2.1595163"><ele>2819</ele><speed>16.05</speed><time>2016-06-02T13:43:33Z</time><pdop>9.0</pdop><geoidheight>51.00</geoidheight><course>120.9</course><type>1</type></trkpt>
      <trkpt lat="38.48338386" lon="-2.15923926"><ele>2822</ele><speed>15.60</speed><time>2016-06-02T13:43:35Z</time><pdop>10.0</pdop><geoidheight>51.00</geoidheight><course>128.7</course><type>1</type></trkpt>
      <trkpt lat="38.48319479" lon="-2.15914924"><ele>2822</ele><speed>12.33</speed><time>2016-06-02T13:43:37Z</time><pdop>11.0</pdop><geoidheight>51.00</geoidheight><course>147.8</course><type>1</type></trkpt>
      <trkpt lat="38.48297537" lon="-2.15922824"><ele>2825</ele><speed>8.18</speed><time>2016-06-02T13:43:40Z</time><pdop>12.0</pdop><geoidheight>51.00</geoidheight><course>172.9</course><type>1</type></trkpt>
      <trkpt lat="38.48326433" lon="-2.15918445"><ele>2837</ele><speed>8.06</speed><time>2016-06-02T13:43:46Z</time><pdop>13.0</pdop><geoidheight>51.00</geoidheight><course>53.5</course><type>1</type></trkpt>
      <trkpt lat="38.48348435" lon="-2.15884566"><ele>2843</ele><speed>13.47</speed><time>2016-06-02T13:43:48Z</time><pdop>12.0</pdop><geoidheight>51.00</geoidheight><course>57.7</course><type>1</type></trkpt>
      <trkpt lat="38.4835557" lon="-2.15847434"><ele>2849</ele><speed>13.98</speed><time>2016-06-02T13:43:50Z</time><pdop>11.0</pdop><geoidheight>51.00</geoidheight><course>67.8</course><type>1</type></trkpt>
      <trkpt lat="38.48335963" lon="-2.15830925"><ele>2851</ele><speed>7.24</speed><time>2016-06-02T13:43:52Z</time><pdop>11.0</pdop><geoidheight>51.00</geoidheight><course>127.1</course><type>1</type></trkpt>
      <trkpt lat="38.4831139" lon="-2.15826364"><ele>2854</ele><speed>8.85</speed><time>2016-06-02T13:43:54Z</time><pdop>11.0</pdop><geoidheight>51.00</geoidheight><course>170.7</course><type>1</type></trkpt>
      <trkpt lat="38.48331306" lon="-2.15811561"><ele>2885</ele><speed>13.90</speed><time>2016-06-02T13:44:04Z</time><pdop>11.0</pdop><geoidheight>51.00</geoidheight><course>51.0</course><type>1</type></trkpt>
      <trkpt lat="38.4834138" lon="-2.15776587"><ele>2898</ele><speed>14.50</speed><time>2016-06-02T13:44:06Z</time><pdop>10.0</pdop><geoidheight>51.00</geoidheight><course>61.9</course><type>1</type></trkpt>
      <trkpt lat="38.48348711" lon="-2.15753674"><ele>2908</ele><speed>10.24</speed><time>2016-06-02T13:44:08Z</time><pdop>10.0</pdop><geoidheight>51.00</geoidheight><course>74.2</course><type>1</type></trkpt>
      <trkpt lat="38.48351607" lon="-2.15728576"><ele>2910</ele><speed>11.39</speed><time>2016-06-02T13:44:10Z</time><pdop>11.0</pdop><geoidheight>51.00</geoidheight><course>80.3</course><type>1</type></trkpt>
      <trkpt lat="38.48350319" lon="-2.15704274"><ele>2911</ele><speed>16.96</speed><time>2016-06-02T13:44:11Z</time><pdop>10.0</pdop><geoidheight>51.00</geoidheight><course>90.6</course><type>1</type></trkpt>
      <trkpt lat="38.48340826" lon="-2.15666975"><ele>2917</ele><speed>17.43</speed><time>2016-06-02T13:44:13Z</time><pdop>9.0</pdop><geoidheight>51.00</geoidheight><course>108.5</course><type>1</type></trkpt>
      <trkpt lat="38.48329515" lon="-2.15630211"><ele>2922</ele><speed>17.00</speed><time>2016-06-02T13:44:15Z</time><pdop>10.0</pdop><geoidheight>51.00</geoidheight><course>112.4</course><type>1</type></trkpt>
      <trkpt lat="38.48316577" lon="-2.15606245"><ele>2924</ele><speed>14.55</speed><time>2016-06-02T13:44:17Z</time><pdop>12.0</pdop><geoidheight>51.00</geoidheight><course>121.6</course><type>1</type></trkpt>
      <trkpt lat="38.48296923" lon="-2.15578631"><ele>2927</ele><speed>15.28</speed><time>2016-06-02T13:44:19Z</time><pdop>10.0</pdop><geoidheight>51.00</geoidheight><course>127.0</course><type>1</type></trkpt>
      <trkpt lat="38.48282357" lon="-2.15551021"><ele>2932</ele><speed>14.95</speed><time>2016-06-02T13:44:21Z</time><pdop>10.0</pdop><geoidheight>51.00</geoidheight><course>124.4</course><type>1</type></trkpt>
      <trkpt lat="38.48267543" lon="-2.15521428"><ele>2937</ele><speed>14.71</speed><time>2016-06-02T13:44:23Z</time><pdop>9.0</pdop><geoidheight>51.00</geoidheight><course>121.1</course><type>1</type></trkpt>
      <trkpt lat="38.48255486" lon="-2.15493497"><ele>2943</ele><speed>13.69</speed><time>2016-06-02T13:44:25Z</time><pdop>10.0</pdop><geoidheight>51.00</geoidheight><course>118.3</course><type>1</type></trkpt>
      <trkpt lat="38.48243309" lon="-2.15465985"><ele>2947</ele><speed>13.31</speed><time>2016-06-02T13:44:27Z</time><pdop>10.0</pdop><geoidheight>51.00</geoidheight><course>117.2</course><type>1</type></trkpt>
      <trkpt lat="38.48233719" lon="-2.15438222"><ele>2948</ele><speed>13.19</speed><time>2016-06-02T13:44:29Z</time><pdop>9.0</pdop><geoidheight>51.00</geoidheight><course>113.2</course><type>1</type></trkpt>
      <trkpt lat="38.48225761" lon="-2.15412441"><ele>2949</ele><speed>12.40</speed><time>2016-06-02T13:44:31Z</time><pdop>10.0</pdop><geoidheight>51.00</geoidheight><course>111.6</course><type>1</type></trkpt>
      <trkpt lat="38.48211363" lon="-2.15376187"><ele>2951</ele><speed>15.59</speed><time>2016-06-02T13:44:33Z</time><pdop>9.0</pdop><geoidheight>51.00</geoidheight><course>117.1</course><type>1</type></trkpt>
      <trkpt lat="38.48200876" lon="-2.15343098"><ele>2954</ele><speed>15.21</speed><time>2016-06-02T13:44:35Z</time><pdop>10.0</pdop><geoidheight>51.00</geoidheight><course>111.9</course><type>1</type></trkpt>
      <trkpt lat="38.48194228" lon="-2.15313821"><ele>2952</ele><speed>14.28</speed><time>2016-06-02T13:44:37Z</time><pdop>10.0</pdop><geoidheight>51.00</geoidheight><course>106.7</course><type>1</type></trkpt>
      <trkpt lat="38.48191073" lon="-2.15281038"><ele>2949</ele><speed>14.22</speed><time>2016-06-02T13:44:39Z</time><pdop>9.0</pdop><geoidheight>51.00</geoidheight><course>97.2</course><type>1</type></trkpt>
      <trkpt lat="38.48187406" lon="-2.15247971"><ele>2948</ele><speed>14.94</speed><time>2016-06-02T13:44:41Z</time><pdop>9.0</pdop><geoidheight>51.00</geoidheight><course>99.4</course><type>1</type></trkpt>
      <trkpt lat="38.48180824" lon="-2.15214672"><ele>2950</ele><speed>14.43</speed><time>2016-06-02T13:44:43Z</time><pdop>9.0</pdop><geoidheight>51.00</geoidheight><course>104.0</course><type>1</type></trkpt>
      <trkpt lat="38.48171213" lon="-2.15182296"><ele>2950</ele><speed>14.94</speed><time>2016-06-02T13:44:45Z</time><pdop>10.0</pdop><geoidheight>51.00</geoidheight><course>108.1</course><type>1</type></trkpt>
      <trkpt lat="38.48158991" lon="-2.15143493"><ele>2949</ele><speed>17.21</speed><time>2016-06-02T13:44:47Z</time><pdop>10.0</pdop><geoidheight>51.00</geoidheight><course>110.5</course><type>1</type></trkpt>
      <trkpt lat="38.48154314" lon="-2.15111925"><ele>2946</ele><speed>16.83</speed><time>2016-06-02T13:44:49Z</time><pdop>10.0</pdop><geoidheight>51.00</geoidheight><course>107.8</course><type>1</type></trkpt>
      <trkpt lat="38.48143442" lon="-2.15068863"><ele>2943</ele><speed>18.48</speed><time>2016-06-02T13:44:51Z</time><pdop>10.0</pdop><geoidheight>51.00</geoidheight><course>108.1</course><type>1</type></trkpt>
      <trkpt lat="38.48131485" lon="-2.15029003"><ele>2939</ele><speed>18.75</speed><time>2016-06-02T13:44:53Z</time><pdop>11.0</pdop><geoidheight>51.00</geoidheight><course>112.7</course><type>1</type></trkpt>
      <trkpt lat="38.4811829" lon="-2.14982264"><ele>2939</ele><speed>20.42</speed><time>2016-06-02T13:44:55Z</time><pdop>12.0</pdop><geoidheight>51.00</geoidheight><course>110.7</course><type>1</type></trkpt>
      <trkpt lat="38.48109966" lon="-2.14940938"><ele>2938</ele><speed>19.60</speed><time>2016-06-02T13:44:57Z</time><pdop>11.0</pdop><geoidheight>51.00</geoidheight><course>105.6</course><type>1</type></trkpt>
      <trkpt lat="38.48105759" lon="-2.14912113"><ele>2930</ele><speed>17.08</speed><time>2016-06-02T13:44:59Z</time><pdop>10.0</pdop><geoidheight>51.00</geoidheight><course>101.5</course><type>1</type></trkpt>
      <trkpt lat="38.48103736" lon="-2.1487407"><ele>2930</ele><speed>16.81</speed><time>2016-06-02T13:45:01Z</time><pdop>9.0</pdop><geoidheight>51.00</geoidheight><course>98.4</course><type>1</type></trkpt>
      <trkpt lat="38.48099248" lon="-2.1484201"><ele>2931</ele><speed>14.32</speed><time>2016-06-02T13:45:03Z</time><pdop>9.0</pdop><geoidheight>51.00</geoidheight><course>101.7</course><type>1</type></trkpt>
      <trkpt lat="38.48092732" lon="-2.1480736"><ele>2929</ele><speed>15.34</speed><time>2016-06-02T13:45:05Z</time><pdop>9.0</pdop><geoidheight>51.00</geoidheight><course>102.1</course><type>1</type></trkpt>
      <trkpt lat="38.48087102" lon="-2.14770534"><ele>2927</ele><speed>16.76</speed><time>2016-06-02T13:45:07Z</time><pdop>9.0</pdop><geoidheight>51.00</geoidheight><course>100.4</course><type>1</type></trkpt>
      <trkpt lat="38.48081239" lon="-2.14734529"><ele>2926</ele><speed>16.23</speed><time>2016-06-02T13:45:09Z</time><pdop>9.0</pdop><geoidheight>51.00</geoidheight><course>102.1</course><type>1</type></trkpt>
      <trkpt lat="38.48075126" lon="-2.14697841"><ele>2926</ele><speed>16.41</speed><time>2016-06-02T13:45:11Z</time><pdop>9.0</pdop><geoidheight>51.00</geoidheight><course>102.3</course><type>1</type></trkpt>
      <trkpt lat="38.4806801" lon="-2.14658835"><ele>2925</ele><speed>17.13</speed><time>2016-06-02T13:45:13Z</time><pdop>9.0</pdop><geoidheight>51.00</geoidheight><course>102.6</course><type>1</type></trkpt>
      <trkpt lat="38.48061541" lon="-2.14622319"><ele>2923</ele><speed>16.85</speed><time>2016-06-02T13:45:15Z</time><pdop>9.0</pdop><geoidheight>51.00</geoidheight><course>101.5</course><type>1</type></trkpt>
      <trkpt lat="38.48056198" lon="-2.14587789"><ele>2922</ele><speed>15.48</speed><time>2016-06-02T13:45:17Z</time><pdop>9.0</pdop><geoidheight>51.00</geoidheight><course>104.6</course><type>1</type></trkpt>
      <trkpt lat="38.48049549" lon="-2.14550198"><ele>2920</ele><speed>16.50</speed><time>2016-06-02T13:45:19Z</time><pdop>9.0</pdop><geoidheight>51.00</geoidheight><course>102.5</course><type>1</type></trkpt>
      <trkpt lat="38.48040412" lon="-2.14508143"><ele>2918</ele><speed>19.07</speed><time>2016-06-02T13:45:21Z</time><pdop>10.0</pdop><geoidheight>51.00</geoidheight><course>104.0</course><type>1</type></trkpt>
      <trkpt lat="38.48034357" lon="-2.1446896"><ele>2917</ele><speed>17.25</speed><time>2016-06-02T13:45:23Z</time><pdop>9.0</pdop><geoidheight>51.00</geoidheight><course>101.8</course><type>1</type></trkpt>
      <trkpt lat="38.48033238" lon="-2.14433087"><ele>2915</ele><speed>16.34</speed><time>2016-06-02T13:45:25Z</time><pdop>9.0</pdop><geoidheight>51.00</geoidheight><course>93.0</course><type>1</type></trkpt>
      <trkpt lat="38.48031126" lon="-2.14391789"><ele>2912</ele><speed>18.25</speed><time>2016-06-02T13:45:27Z</time><pdop>10.0</pdop><geoidheight>51.00</geoidheight><course>94.8</course><type>1</type></trkpt>
      <trkpt lat="38.48030997" lon="-2.14368733"><ele>2910</ele><speed>20.12</speed><time>2016-06-02T13:45:28Z</time><pdop>10.0</pdop><geoidheight>51.00</geoidheight><course>94.3</course><type>1</type></trkpt>
      <trkpt lat="38.4801942" lon="-2.14325939"><ele>2906</ele><speed>20.27</speed><time>2016-06-02T13:45:30Z</time><pdop>11.0</pdop><geoidheight>51.00</geoidheight><course>101.3</course><type>1</type></trkpt>
      <trkpt lat="38.48017082" lon="-2.14286468"><ele>2906</ele><speed>17.36</speed><time>2016-06-02T13:45:32Z</time><pdop>10.0</pdop><geoidheight>51.00</geoidheight><course>97.0</course><type>1</type></trkpt>
      <trkpt lat="38.48017667" lon="-2.14247727"><ele>2901</ele><speed>17.16</speed><time>2016-06-02T13:45:34Z</time><pdop>10.0</pdop><geoidheight>51.00</geoidheight><course>94.7</course><type>1</type></trkpt>
      <trkpt lat="38.48010473" lon="-2.14201034"><ele>2898</ele><speed>20.22</speed><time>2016-06-02T13:45:36Z</time><pdop>11.0</pdop><geoidheight>51.00</geoidheight><course>97.9</course><type>1</type></trkpt>
      <trkpt lat="38.48009837" lon="-2.14174507"><ele>2896</ele><speed>21.57</speed><time>2016-06-02T13:45:37Z</time><pdop>12.0</pdop><geoidheight>51.00</geoidheight><course>96.0</course><type>1</type></trkpt>
      <trkpt lat="38.48004169" lon="-2.14123428"><ele>2893</ele><speed>21.98</speed><time>2016-06-02T13:45:39Z</time><pdop>11.0</pdop><geoidheight>51.00</geoidheight><course>99.0</course><type>1</type></trkpt>
      <trkpt lat="38.47996944" lon="-2.14082268"><ele>2890</ele><speed>19.28</speed><time>2016-06-02T13:45:41Z</time><pdop>10.0</pdop><geoidheight>51.00</geoidheight><course>101.7</course><type>1</type></trkpt>
      <trkpt lat="38.47989021" lon="-2.1403793"><ele>2884</ele><speed>20.00</speed><time>2016-06-02T13:45:43Z</time><pdop>10.0</pdop><geoidheight>51.00</geoidheight><course>103.4</course><type>1</type></trkpt>
      <trkpt lat="38.47982951" lon="-2.13994937"><ele>2881</ele><speed>20.46</speed><time>2016-06-02T13:45:45Z</time><pdop>11.0</pdop><geoidheight>51.00</geoidheight><course>101.2</course><type>1</type></trkpt>
      <trkpt lat="38.47979367" lon="-2.1396615"><ele>2879</ele><speed>21.99</speed><time>2016-06-02T13:45:46Z</time><pdop>11.0</pdop><geoidheight>51.00</geoidheight><course>100.7</course><type>1</type></trkpt>
      <trkpt lat="38.47976071" lon="-2.1394075"><ele>2878</ele><speed>21.87</speed><time>2016-06-02T13:45:47Z</time><pdop>11.0</pdop><geoidheight>51.00</geoidheight><course>100.7</course><type>1</type></trkpt>
      <trkpt lat="38.47970235" lon="-2.13900925"><ele>2875</ele><speed>18.46</speed><time>2016-06-02T13:45:49Z</time><pdop>10.0</pdop><geoidheight>51.00</geoidheight><course>101.5</course><type>1</type></trkpt>
      <trkpt lat="38.47962432" lon="-2.13857686"><ele>2873</ele><speed>19.63</speed><time>2016-06-02T13:45:51Z</time><pdop>11.0</pdop><geoidheight>51.00</geoidheight><course>102.6</course><type>1</type></trkpt>
      <trkpt lat="38.47955897" lon="-2.1380634"><ele>2869</ele><speed>21.84</speed><time>2016-06-02T13:45:53Z</time><pdop>12.0</pdop><geoidheight>51.00</geoidheight><course>101.4</course><type>1</type></trkpt>
      <trkpt lat="38.47945993" lon="-2.13757332"><ele>2867</ele><speed>21.74</speed><time>2016-06-02T13:45:55Z</time><pdop>12.0</pdop><geoidheight>51.00</geoidheight><course>103.6</course><type>1</type></trkpt>
      <trkpt lat="38.47937853" lon="-2.13719148"><ele>2864</ele><speed>20.20</speed><time>2016-06-02T13:45:57Z</time><pdop>13.0</pdop><geoidheight>51.00</geoidheight><course>104.1</course><type>1</type></trkpt>
      <trkpt lat="38.47932549" lon="-2.13681194"><ele>2860</ele><speed>19.34</speed><time>2016-06-02T13:45:59Z</time><pdop>12.0</pdop><geoidheight>51.00</geoidheight><course>102.9</course><type>1</type></trkpt>
      <trkpt lat="38.4792071" lon="-2.13629733"><ele>2856</ele><speed>20.49</speed><time>2016-06-02T13:46:01Z</time><pdop>12.0</pdop><geoidheight>51.00</geoidheight><course>105.8</course><type>1</type></trkpt>
      <trkpt lat="38.47912698" lon="-2.13586637"><ele>2854</ele><speed>20.33</speed><time>2016-06-02T13:46:03Z</time><pdop>14.0</pdop><geoidheight>51.00</geoidheight><course>102.8</course><type>1</type></trkpt>
      <trkpt lat="38.47910949" lon="-2.13539713"><ele>2849</ele><speed>21.22</speed><time>2016-06-02T13:46:05Z</time><pdop>14.0</pdop><geoidheight>51.00</geoidheight><course>98.3</course><type>1</type></trkpt>
      <trkpt lat="38.47906892" lon="-2.1348962"><ele>2844</ele><speed>21.76</speed><time>2016-06-02T13:46:07Z</time><pdop>13.0</pdop><geoidheight>51.00</geoidheight><course>98.5</course><type>1</type></trkpt>
      <trkpt lat="38.47901429" lon="-2.13449729"><ele>2839</ele><speed>18.80</speed><time>2016-06-02T13:46:09Z</time><pdop>12.0</pdop><geoidheight>51.00</geoidheight><course>98.1</course><type>1</type></trkpt>
      <trkpt lat="38.47896115" lon="-2.1341176"><ele>2833</ele><speed>17.89</speed><time>2016-06-02T13:46:11Z</time><pdop>11.0</pdop><geoidheight>51.00</geoidheight><course>98.0</course><type>1</type></trkpt>
      <trkpt lat="38.47892075" lon="-2.13372817"><ele>2829</ele><speed>18.60</speed><time>2016-06-02T13:46:13Z</time><pdop>11.0</pdop><geoidheight>51.00</geoidheight><course>98.7</course><type>1</type></trkpt>
      <trkpt lat="38.47890023" lon="-2.13330184"><ele>2826</ele><speed>18.80</speed><time>2016-06-02T13:46:15Z</time><pdop>13.0</pdop><geoidheight>51.00</geoidheight><course>96.8</course><type>1</type></trkpt>
      <trkpt lat="38.47878443" lon="-2.13279322"><ele>2824</ele><speed>19.73</speed><time>2016-06-02T13:46:17Z</time><pdop>12.0</pdop><geoidheight>51.00</geoidheight><course>99.9</course><type>1</type></trkpt>
      <trkpt lat="38.47877069" lon="-2.13237883"><ele>2822</ele><speed>18.64</speed><time>2016-06-02T13:46:19Z</time><pdop>11.0</pdop><geoidheight>51.00</geoidheight><course>96.8</course><type>1</type></trkpt>
      <trkpt lat="38.47871226" lon="-2.1319369"><ele>2821</ele><speed>19.28</speed><time>2016-06-02T13:46:21Z</time><pdop>12.0</pdop><geoidheight>51.00</geoidheight><course>97.1</course><type>1</type></trkpt>
      <trkpt lat="38.47864938" lon="-2.13146517"><ele>2816</ele><speed>20.92</speed><time>2016-06-02T13:46:23Z</time><pdop>12.0</pdop><geoidheight>51.00</geoidheight><course>98.2</course><type>1</type></trkpt>
      <trkpt lat="38.47858559" lon="-2.13115157"><ele>2815</ele><speed>23.51</speed><time>2016-06-02T13:46:24Z</time><pdop>12.0</pdop><geoidheight>51.00</geoidheight><course>100.9</course><type>1</type></trkpt>
      <trkpt lat="38.47858381" lon="-2.13075953"><ele>2807</ele><speed>21.57</speed><time>2016-06-02T13:46:26Z</time><pdop>12.0</pdop><geoidheight>51.00</geoidheight><course>100.2</course><type>1</type></trkpt>
      <trkpt lat="38.47855216" lon="-2.13034577"><ele>2799</ele><speed>20.55</speed><time>2016-06-02T13:46:28Z</time><pdop>11.0</pdop><geoidheight>51.00</geoidheight><course>101.1</course><type>1</type></trkpt>
      <trkpt lat="38.47846314" lon="-2.12988499"><ele>2797</ele><speed>20.67</speed><time>2016-06-02T13:46:30Z</time><pdop>11.0</pdop><geoidheight>51.00</geoidheight><course>103.2</course><type>1</type></trkpt>
      <trkpt lat="38.478383" lon="-2.12946509"><ele>2794</ele><speed>19.96</speed><time>2016-06-02T13:46:32Z</time><pdop>13.0</pdop><geoidheight>51.00</geoidheight><course>102.3</course><type>1</type></trkpt>
      <trkpt lat="38.47833428" lon="-2.12907069"><ele>2791</ele><speed>18.87</speed><time>2016-06-02T13:46:34Z</time><pdop>13.0</pdop><geoidheight>51.00</geoidheight><course>100.7</course><type>1</type></trkpt>
      <trkpt lat="38.47827869" lon="-2.12859249"><ele>2789</ele><speed>20.22</speed><time>2016-06-02T13:46:36Z</time><pdop>14.0</pdop><geoidheight>51.00</geoidheight><course>99.5</course><type>1</type></trkpt>
      <trkpt lat="38.4782167" lon="-2.12809805"><ele>2784</ele><speed>21.44</speed><time>2016-06-02T13:46:38Z</time><pdop>13.0</pdop><geoidheight>51.00</geoidheight><course>98.3</course><type>1</type></trkpt>
      <trkpt lat="38.47817903" lon="-2.12765038"><ele>2778</ele><speed>20.72</speed><time>2016-06-02T13:46:40Z</time><pdop>12.0</pdop><geoidheight>51.00</geoidheight><course>98.5</course><type>1</type></trkpt>
      <trkpt lat="38.47810525" lon="-2.1272044"><ele>2773</ele><speed>21.32</speed><time>2016-06-02T13:46:42Z</time><pdop>11.0</pdop><geoidheight>51.00</geoidheight><course>102.2</course><type>1</type></trkpt>
      <trkpt lat="38.47802834" lon="-2.1267437"><ele>2769</ele><speed>21.58</speed><time>2016-06-02T13:46:44Z</time><pdop>11.0</pdop><geoidheight>51.00</geoidheight><course>102.2</course><type>1</type></trkpt>
      <trkpt lat="38.47798545" lon="-2.12627341"><ele>2765</ele><speed>21.24</speed><time>2016-06-02T13:46:46Z</time><pdop>12.0</pdop><geoidheight>51.00</geoidheight><course>99.7</course><type>1</type></trkpt>
      <trkpt lat="38.47792324" lon="-2.1258554"><ele>2761</ele><speed>19.06</speed><time>2016-06-02T13:46:48Z</time><pdop>11.0</pdop><geoidheight>51.00</geoidheight><course>102.3</course><type>1</type></trkpt>
      <trkpt lat="38.4778181" lon="-2.12541063"><ele>2755</ele><speed>20.35</speed><time>2016-06-02T13:46:50Z</time><pdop>11.0</pdop><geoidheight>51.00</geoidheight><course>104.5</course><type>1</type></trkpt>
      <trkpt lat="38.47776421" lon="-2.12515884"><ele>2752</ele><speed>21.45</speed><time>2016-06-02T13:46:51Z</time><pdop>11.0</pdop><geoidheight>51.00</geoidheight><course>104.4</course><type>1</type></trkpt>
      <trkpt lat="38.47769201" lon="-2.1246749"><ele>2749</ele><speed>21.75</speed><time>2016-06-02T13:46:53Z</time><pdop>11.0</pdop><geoidheight>51.00</geoidheight><course>99.1</course><type>1</type></trkpt>
      <trkpt lat="38.47766185" lon="-2.12419122"><ele>2744</ele><speed>21.40</speed><time>2016-06-02T13:46:55Z</time><pdop>12.0</pdop><geoidheight>51.00</geoidheight><course>96.1</course><type>1</type></trkpt>
      <trkpt lat="38.47762294" lon="-2.12369543"><ele>2740</ele><speed>21.92</speed><time>2016-06-02T13:46:57Z</time><pdop>13.0</pdop><geoidheight>51.00</geoidheight><course>97.1</course><type>1</type></trkpt>
      <trkpt lat="38.47755214" lon="-2.12324519"><ele>2737</ele><speed>21.07</speed><time>2016-06-02T13:46:59Z</time><pdop>11.0</pdop><geoidheight>51.00</geoidheight><course>101.2</course><type>1</type></trkpt>
      <trkpt lat="38.47747409" lon="-2.12279652"><ele>2736</ele><speed>20.06</speed><time>2016-06-02T13:47:01Z</time><pdop>11.0</pdop><geoidheight>51.00</geoidheight><course>101.1</course><type>1</type></trkpt>
      <trkpt lat="38.47744176" lon="-2.12236926"><ele>2731</ele><speed>19.47</speed><time>2016-06-02T13:47:03Z</time><pdop>11.0</pdop><geoidheight>51.00</geoidheight><course>97.9</course><type>1</type></trkpt>
      <trkpt lat="38.47739822" lon="-2.12192211"><ele>2728</ele><speed>19.83</speed><time>2016-06-02T13:47:05Z</time><pdop>11.0</pdop><geoidheight>51.00</geoidheight><course>98.0</course><type>1</type></trkpt>
      <trkpt lat="38.47733207" lon="-2.12146861"><ele>2723</ele><speed>19.97</speed><time>2016-06-02T13:47:07Z</time><pdop>12.0</pdop><geoidheight>51.00</geoidheight><course>99.6</course><type>1</type></trkpt>
      <trkpt lat="38.47729145" lon="-2.12105963"><ele>2721</ele><speed>18.96</speed><time>2016-06-02T13:47:09Z</time><pdop>13.0</pdop><geoidheight>51.00</geoidheight><course>98.3</course><type>1</type></trkpt>
      <trkpt lat="38.47725239" lon="-2.1206551"><ele>2716</ele><speed>18.52</speed><time>2016-06-02T13:47:11Z</time><pdop>12.0</pdop><geoidheight>51.00</geoidheight><course>97.8</course><type>1</type></trkpt>
      <trkpt lat="38.47718701" lon="-2.12016878"><ele>2715</ele><speed>20.30</speed><time>2016-06-02T13:47:13Z</time><pdop>12.0</pdop><geoidheight>51.00</geoidheight><course>98.8</course><type>1</type></trkpt>
      <trkpt lat="38.47713608" lon="-2.11972074"><ele>2711</ele><speed>20.69</speed><time>2016-06-02T13:47:15Z</time><pdop>11.0</pdop><geoidheight>51.00</geoidheight><course>98.0</course><type>1</type></trkpt>
      <trkpt lat="38.4770945" lon="-2.11923926"><ele>2705</ele><speed>20.83</speed><time>2016-06-02T13:47:17Z</time><pdop>11.0</pdop><geoidheight>51.00</geoidheight><course>97.8</course><type>1</type></trkpt>
      <trkpt lat="38.47706407" lon="-2.11879035"><ele>2701</ele><speed>20.54</speed><time>2016-06-02T13:47:19Z</time><pdop>11.0</pdop><geoidheight>51.00</geoidheight><course>97.9</course><type>1</type></trkpt>
      <trkpt lat="38.47698882" lon="-2.11828587"><ele>2696</ele><speed>21.56</speed><time>2016-06-02T13:47:21Z</time><pdop>10.0</pdop><geoidheight>51.00</geoidheight><course>101.4</course><type>1</type></trkpt>
      <trkpt lat="38.4769382" lon="-2.1180192"><ele>2694</ele><speed>21.75</speed><time>2016-06-02T13:47:22Z</time><pdop>10.0</pdop><geoidheight>51.00</geoidheight><course>102.8</course><type>1</type></trkpt>
      <trkpt lat="38.47684807" lon="-2.11757138"><ele>2691</ele><speed>21.15</speed><time>2016-06-02T13:47:24Z</time><pdop>11.0</pdop><geoidheight>51.00</geoidheight><course>103.4</course><type>1</type></trkpt>
      <trkpt lat="38.47679228" lon="-2.11731065"><ele>2690</ele><speed>21.67</speed><time>2016-06-02T13:47:25Z</time><pdop>11.0</pdop><geoidheight>51.00</geoidheight><course>103.8</course><type>1</type></trkpt>
      <trkpt lat="38.47670299" lon="-2.11685448"><ele>2687</ele><speed>20.96</speed><time>2016-06-02T13:47:27Z</time><pdop>11.0</pdop><geoidheight>51.00</geoidheight><course>104.6</course><type>1</type></trkpt>
      <trkpt lat="38.47659754" lon="-2.11641163"><ele>2687</ele><speed>20.14</speed><time>2016-06-02T13:47:29Z</time><pdop>10.0</pdop><geoidheight>51.00</geoidheight><course>109.0</course><type>1</type></trkpt>
      <trkpt lat="38.47647059" lon="-2.11601838"><ele>2686</ele><speed>19.42</speed><time>2016-06-02T13:47:31Z</time><pdop>10.0</pdop><geoidheight>51.00</geoidheight><course>111.4</course><type>1</type></trkpt>
      <trkpt lat="38.47634717" lon="-2.11558913"><ele>2682</ele><speed>18.95</speed><time>2016-06-02T13:47:33Z</time><pdop>10.0</pdop><geoidheight>51.00</geoidheight><course>109.3</course><type>1</type></trkpt>
      <trkpt lat="38.47624577" lon="-2.11522287"><ele>2679</ele><speed>17.86</speed><time>2016-06-02T13:47:35Z</time><pdop>11.0</pdop><geoidheight>51.00</geoidheight><course>110.5</course><type>1</type></trkpt>
      <trkpt lat="38.47608929" lon="-2.11482509"><ele>2743</ele><speed>19.33</speed><time>2016-06-02T13:47:37Z</time><pdop>10.0</pdop><geoidheight>51.00</geoidheight><course>115.0</course><type>1</type></trkpt>
      <trkpt lat="38.47593916" lon="-2.11441788"><ele>2720</ele><speed>19.95</speed><time>2016-06-02T13:47:39Z</time><pdop>11.0</pdop><geoidheight>51.00</geoidheight><course>115.1</course><type>1</type></trkpt>
      <trkpt lat="38.47581048" lon="-2.11402943"><ele>2705</ele><speed>18.68</speed><time>2016-06-02T13:47:41Z</time><pdop>10.0</pdop><geoidheight>51.00</geoidheight><course>113.2</course><type>1</type></trkpt>
      <trkpt lat="38.47572344" lon="-2.11370619"><ele>2689</ele><speed>15.72</speed><time>2016-06-02T13:47:43Z</time><pdop>9.0</pdop><geoidheight>51.00</geoidheight><course>108.9</course><type>1</type></trkpt>
      <trkpt lat="38.47561523" lon="-2.11333208"><ele>2679</ele><speed>17.22</speed><time>2016-06-02T13:47:45Z</time><pdop>9.0</pdop><geoidheight>51.00</geoidheight><course>110.3</course><type>1</type></trkpt>
      <trkpt lat="38.47550661" lon="-2.11292633"><ele>2675</ele><speed>18.65</speed><time>2016-06-02T13:47:47Z</time><pdop>10.0</pdop><geoidheight>51.00</geoidheight><course>108.3</course><type>1</type></trkpt>
      <trkpt lat="38.47545814" lon="-2.11270153"><ele>2674</ele><speed>19.34</speed><time>2016-06-02T13:47:48Z</time><pdop>10.0</pdop><geoidheight>51.00</geoidheight><course>106.6</course><type>1</type></trkpt>
      <trkpt lat="38.47535976" lon="-2.11235623"><ele>2674</ele><speed>17.47</speed><time>2016-06-02T13:47:50Z</time><pdop>10.0</pdop><geoidheight>51.00</geoidheight><course>108.3</course><type>1</type></trkpt>
      <trkpt lat="38.47526818" lon="-2.11198372"><ele>2671</ele><speed>17.37</speed><time>2016-06-02T13:47:52Z</time><pdop>10.0</pdop><geoidheight>51.00</geoidheight><course>108.1</course><type>1</type></trkpt>
      <trkpt lat="38.47519309" lon="-2.11157001"><ele>2672</ele><speed>17.82</speed><time>2016-06-02T13:47:54Z</time><pdop>10.0</pdop><geoidheight>51.00</geoidheight><course>104.0</course><type>1</type></trkpt>
      <trkpt lat="38.47512041" lon="-2.11116481"><ele>2672</ele><speed>17.45</speed><time>2016-06-02T13:47:56Z</time><pdop>9.0</pdop><geoidheight>51.00</geoidheight><course>100.9</course><type>1</type></trkpt>
      <trkpt lat="38.47502988" lon="-2.11072674"><ele>2673</ele><speed>18.57</speed><time>2016-06-02T13:47:58Z</time><pdop>9.0</pdop><geoidheight>51.00</geoidheight><course>105.9</course><type>1</type></trkpt>
      <trkpt lat="38.47498157" lon="-2.11051412"><ele>2675</ele><speed>18.59</speed><time>2016-06-02T13:47:59Z</time><pdop>10.0</pdop><geoidheight>51.00</geoidheight><course>106.9</course><type>1</type></trkpt>
      <trkpt lat="38.47487389" lon="-2.11010318"><ele>2676</ele><speed>18.57</speed><time>2016-06-02T13:48:01Z</time><pdop>10.0</pdop><geoidheight>51.00</geoidheight><course>107.0</course><type>1</type></trkpt>
      <trkpt lat="38.47482151" lon="-2.10989532"><ele>2675</ele><speed>18.98</speed><time>2016-06-02T13:48:02Z</time><pdop>9.0</pdop><geoidheight>51.00</geoidheight><course>107.0</course><type>1</type></trkpt>
      <trkpt lat="38.47477551" lon="-2.10966619"><ele>2676</ele><speed>19.80</speed><time>2016-06-02T13:48:03Z</time><pdop>9.0</pdop><geoidheight>51.00</geoidheight><course>105.6</course><type>1</type></trkpt>
      <trkpt lat="38.47473654" lon="-2.1094278"><ele>2677</ele><speed>20.03</speed><time>2016-06-02T13:48:04Z</time><pdop>9.0</pdop><geoidheight>51.00</geoidheight><course>101.8</course><type>1</type></trkpt>
      <trkpt lat="38.47470172" lon="-2.10921586"><ele>2674</ele><speed>19.78</speed><time>2016-06-02T13:48:05Z</time><pdop>9.0</pdop><geoidheight>51.00</geoidheight><course>101.4</course><type>1</type></trkpt>
      <trkpt lat="38.47465595" lon="-2.1089839"><ele>2674</ele><speed>19.88</speed><time>2016-06-02T13:48:06Z</time><pdop>9.0</pdop><geoidheight>51.00</geoidheight><course>101.9</course><type>1</type></trkpt>
      <trkpt lat="38.47461643" lon="-2.10874751"><ele>2673</ele><speed>20.64</speed><time>2016-06-02T13:48:07Z</time><pdop>9.0</pdop><geoidheight>51.00</geoidheight><course>102.5</course><type>1</type></trkpt>
      <trkpt lat="38.47457072" lon="-2.1085138"><ele>2673</ele><speed>21.39</speed><time>2016-06-02T13:48:08Z</time><pdop>9.0</pdop><geoidheight>51.00</geoidheight><course>103.6</course><type>1</type></trkpt>
      <trkpt lat="38.47451623" lon="-2.10827206"><ele>2674</ele><speed>21.43</speed><time>2016-06-02T13:48:09Z</time><pdop>9.0</pdop><geoidheight>51.00</geoidheight><course>106.4</course><type>1</type></trkpt>
      <trkpt lat="38.47445211" lon="-2.1080499"><ele>2674</ele><speed>21.05</speed><time>2016-06-02T13:48:10Z</time><pdop>9.0</pdop><geoidheight>51.00</geoidheight><course>109.2</course><type>1</type></trkpt>
      <trkpt lat="38.47439593" lon="-2.10783975"><ele>2676</ele><speed>20.11</speed><time>2016-06-02T13:48:11Z</time><pdop>9.0</pdop><geoidheight>51.00</geoidheight><course>108.7</course><type>1</type></trkpt>
      <trkpt lat="38.47434556" lon="-2.10762723"><ele>2676</ele><speed>19.40</speed><time>2016-06-02T13:48:12Z</time><pdop>9.0</pdop><geoidheight>51.00</geoidheight><course>106.9</course><type>1</type></trkpt>
      <trkpt lat="38.47429025" lon="-2.10741876"><ele>2675</ele><speed>18.61</speed><time>2016-06-02T13:48:13Z</time><pdop>9.0</pdop><geoidheight>51.00</geoidheight><course>106.9</course><type>1</type></trkpt>
      <trkpt lat="38.47423354" lon="-2.10722406"><ele>2675</ele><speed>18.17</speed><time>2016-06-02T13:48:14Z</time><pdop>9.0</pdop><geoidheight>51.00</geoidheight><course>108.5</course><type>1</type></trkpt>
      <trkpt lat="38.47413728" lon="-2.10684363"><ele>2675</ele><speed>18.12</speed><time>2016-06-02T13:48:16Z</time><pdop>10.0</pdop><geoidheight>51.00</geoidheight><course>107.6</course><type>1</type></trkpt>
      <trkpt lat="38.47405865" lon="-2.10641849"><ele>2675</ele><speed>18.80</speed><time>2016-06-02T13:48:18Z</time><pdop>11.0</pdop><geoidheight>51.00</geoidheight><course>105.2</course><type>1</type></trkpt>
      <trkpt lat="38.47398595" lon="-2.10618019"><ele>2676</ele><speed>19.56</speed><time>2016-06-02T13:48:19Z</time><pdop>10.0</pdop><geoidheight>51.00</geoidheight><course>107.4</course><type>1</type></trkpt>
      <trkpt lat="38.47392783" lon="-2.10594789"><ele>2677</ele><speed>19.80</speed><time>2016-06-02T13:48:20Z</time><pdop>9.0</pdop><geoidheight>51.00</geoidheight><course>108.5</course><type>1</type></trkpt>
      <trkpt lat="38.47387223" lon="-2.10572055"><ele>2677</ele><speed>20.18</speed><time>2016-06-02T13:48:21Z</time><pdop>10.0</pdop><geoidheight>51.00</geoidheight><course>108.6</course><type>1</type></trkpt>
      <trkpt lat="38.47377249" lon="-2.10529594"><ele>2677</ele><speed>19.71</speed><time>2016-06-02T13:48:23Z</time><pdop>10.0</pdop><geoidheight>51.00</geoidheight><course>105.8</course><type>1</type></trkpt>
      <trkpt lat="38.47372582" lon="-2.10506378"><ele>2679</ele><speed>19.65</speed><time>2016-06-02T13:48:24Z</time><pdop>10.0</pdop><geoidheight>51.00</geoidheight><course>103.2</course><type>1</type></trkpt>
      <trkpt lat="38.47367634" lon="-2.10466157"><ele>2684</ele><speed>17.91</speed><time>2016-06-02T13:48:26Z</time><pdop>9.0</pdop><geoidheight>51.00</geoidheight><course>98.9</course><type>1</type></trkpt>
      <trkpt lat="38.47364908" lon="-2.10444345"><ele>2685</ele><speed>18.22</speed><time>2016-06-02T13:48:27Z</time><pdop>10.0</pdop><geoidheight>51.00</geoidheight><course>98.9</course><type>1</type></trkpt>
      <trkpt lat="38.4735765" lon="-2.10407617"><ele>2685</ele><speed>16.90</speed><time>2016-06-02T13:48:29Z</time><pdop>9.0</pdop><geoidheight>51.00</geoidheight><course>104.5</course><type>1</type></trkpt>
      <trkpt lat="38.47350245" lon="-2.1037264"><ele>2686</ele><speed>16.71</speed><time>2016-06-02T13:48:31Z</time><pdop>10.0</pdop><geoidheight>51.00</geoidheight><course>105.6</course><type>1</type></trkpt>
      <trkpt lat="38.47344198" lon="-2.10337092"><ele>2688</ele><speed>15.53</speed><time>2016-06-02T13:48:33Z</time><pdop>10.0</pdop><geoidheight>51.00</geoidheight><course>103.3</course><type>1</type></trkpt>
      <trkpt lat="38.47336345" lon="-2.10298406"><ele>2692</ele><speed>16.05</speed><time>2016-06-02T13:48:35Z</time><pdop>10.0</pdop><geoidheight>51.00</geoidheight><course>103.2</course><type>1</type></trkpt>
      <trkpt lat="38.47328266" lon="-2.10259215"><ele>2694</ele><speed>16.66</speed><time>2016-06-02T13:48:37Z</time><pdop>10.0</pdop><geoidheight>51.00</geoidheight><course>103.4</course><type>1</type></trkpt>
      <trkpt lat="38.47321211" lon="-2.10220989"><ele>2697</ele><speed>16.82</speed><time>2016-06-02T13:48:39Z</time><pdop>10.0</pdop><geoidheight>51.00</geoidheight><course>103.6</course><type>1</type></trkpt>
      <trkpt lat="38.47312986" lon="-2.10184438"><ele>2698</ele><speed>16.60</speed><time>2016-06-02T13:48:41Z</time><pdop>10.0</pdop><geoidheight>51.00</geoidheight><course>105.2</course><type>1</type></trkpt>
      <trkpt lat="38.47306021" lon="-2.10148553"><ele>2699</ele><speed>16.68</speed><time>2016-06-02T13:48:43Z</time><pdop>10.0</pdop><geoidheight>51.00</geoidheight><course>106.8</course><type>1</type></trkpt>
      <trkpt lat="38.47296916" lon="-2.10110783"><ele>2696</ele><speed>17.08</speed><time>2016-06-02T13:48:45Z</time><pdop>10.0</pdop><geoidheight>51.00</geoidheight><course>105.7</course><type>1</type></trkpt>
      <trkpt lat="38.47292484" lon="-2.10089624"><ele>2698</ele><speed>17.55</speed><time>2016-06-02T13:48:46Z</time><pdop>9.0</pdop><geoidheight>51.00</geoidheight><course>104.9</course><type>1</type></trkpt>
      <trkpt lat="38.47287693" lon="-2.10068635"><ele>2700</ele><speed>16.91</speed><time>2016-06-02T13:48:47Z</time><pdop>9.0</pdop><geoidheight>51.00</geoidheight><course>107.0</course><type>1</type></trkpt>
      <trkpt lat="38.47278856" lon="-2.10033792"><ele>2702</ele><speed>16.37</speed><time>2016-06-02T13:48:49Z</time><pdop>10.0</pdop><geoidheight>51.00</geoidheight><course>107.8</course><type>1</type></trkpt>
      <trkpt lat="38.47268813" lon="-2.09993416"><ele>2702</ele><speed>18.94</speed><time>2016-06-02T13:48:51Z</time><pdop>10.0</pdop><geoidheight>51.00</geoidheight><course>105.8</course><type>1</type></trkpt>
      <trkpt lat="38.4726442" lon="-2.09971166"><ele>2704</ele><speed>19.14</speed><time>2016-06-02T13:48:52Z</time><pdop>9.0</pdop><geoidheight>51.00</geoidheight><course>103.5</course><type>1</type></trkpt>
      <trkpt lat="38.47257617" lon="-2.09930455"><ele>2708</ele><speed>17.44</speed><time>2016-06-02T13:48:54Z</time><pdop>10.0</pdop><geoidheight>51.00</geoidheight><course>103.2</course><type>1</type></trkpt>
      <trkpt lat="38.47252662" lon="-2.09900381"><ele>2712</ele><speed>14.53</speed><time>2016-06-02T13:48:56Z</time><pdop>9.0</pdop><geoidheight>51.00</geoidheight><course>102.3</course><type>1</type></trkpt>
      <trkpt lat="38.4724677" lon="-2.09863051"><ele>2711</ele><speed>16.24</speed><time>2016-06-02T13:48:58Z</time><pdop>9.0</pdop><geoidheight>51.00</geoidheight><course>99.9</course><type>1</type></trkpt>
      <trkpt lat="38.47242297" lon="-2.09825688"><ele>2709</ele><speed>16.93</speed><time>2016-06-02T13:49:00Z</time><pdop>11.0</pdop><geoidheight>51.00</geoidheight><course>98.4</course><type>1</type></trkpt>
      <trkpt lat="38.47238406" lon="-2.09794482"><ele>2708</ele><speed>21.17</speed><time>2016-06-02T13:49:01Z</time><pdop>10.0</pdop><geoidheight>51.00</geoidheight><course>99.1</course><type>1</type></trkpt>
      <trkpt lat="38.47233281" lon="-2.09752673"><ele>2709</ele><speed>18.52</speed><time>2016-06-02T13:49:03Z</time><pdop>10.0</pdop><geoidheight>51.00</geoidheight><course>99.2</course><type>1</type></trkpt>
      <trkpt lat="38.47226637" lon="-2.09712808"><ele>2711</ele><speed>16.92</speed><time>2016-06-02T13:49:05Z</time><pdop>10.0</pdop><geoidheight>51.00</geoidheight><course>101.7</course><type>1</type></trkpt>
      <trkpt lat="38.47221887" lon="-2.09673214"><ele>2710</ele><speed>17.81</speed><time>2016-06-02T13:49:07Z</time><pdop>10.0</pdop><geoidheight>51.00</geoidheight><course>100.0</course><type>1</type></trkpt>
      <trkpt lat="38.47216876" lon="-2.09649042"><ele>2709</ele><speed>19.87</speed><time>2016-06-02T13:49:08Z</time><pdop>10.0</pdop><geoidheight>51.00</geoidheight><course>101.4</course><type>1</type></trkpt>
      <trkpt lat="38.47211257" lon="-2.09626115"><ele>2709</ele><speed>20.32</speed><time>2016-06-02T13:49:09Z</time><pdop>10.0</pdop><geoidheight>51.00</geoidheight><course>105.1</course><type>1</type></trkpt>
      <trkpt lat="38.47201282" lon="-2.09584433"><ele>2709</ele><speed>18.91</speed><time>2016-06-02T13:49:11Z</time><pdop>9.0</pdop><geoidheight>51.00</geoidheight><course>106.9</course><type>1</type></trkpt>
      <trkpt lat="38.47192843" lon="-2.09548839"><ele>2709</ele><speed>16.95</speed><time>2016-06-02T13:49:13Z</time><pdop>11.0</pdop><geoidheight>51.00</geoidheight><course>107.0</course><type>1</type></trkpt>
      <trkpt lat="38.47190047" lon="-2.09517346"><ele>2709</ele><speed>14.60</speed><time>2016-06-02T13:49:15Z</time><pdop>9.0</pdop><geoidheight>51.00</geoidheight><course>100.7</course><type>1</type></trkpt>
      <trkpt lat="38.47177828" lon="-2.09478169"><ele>2707</ele><speed>17.55</speed><time>2016-06-02T13:49:17Z</time><pdop>10.0</pdop><geoidheight>51.00</geoidheight><course>108.1</course><type>1</type></trkpt>
      <trkpt lat="38.47168514" lon="-2.09455939"><ele>2707</ele><speed>19.45</speed><time>2016-06-02T13:49:18Z</time><pdop>10.0</pdop><geoidheight>51.00</geoidheight><course>114.6</course><type>1</type></trkpt>
      <trkpt lat="38.47155323" lon="-2.09417589"><ele>2708</ele><speed>17.91</speed><time>2016-06-02T13:49:20Z</time><pdop>10.0</pdop><geoidheight>51.00</geoidheight><course>112.9</course><type>1</type></trkpt>
      <trkpt lat="38.47144607" lon="-2.09379815"><ele>2707</ele><speed>16.61</speed><time>2016-06-02T13:49:22Z</time><pdop>10.0</pdop><geoidheight>51.00</geoidheight><course>109.8</course><type>1</type></trkpt>
      <trkpt lat="38.47134758" lon="-2.09340562"><ele>2705</ele><speed>17.74</speed><time>2016-06-02T13:49:24Z</time><pdop>10.0</pdop><geoidheight>51.00</geoidheight><course>108.0</course><type>1</type></trkpt>
      <trkpt lat="38.47125613" lon="-2.0930115"><ele>2702</ele><speed>19.32</speed><time>2016-06-02T13:49:26Z</time><pdop>10.0</pdop><geoidheight>51.00</geoidheight><course>109.3</course><type>1</type></trkpt>
      <trkpt lat="38.47116399" lon="-2.09262618"><ele>2704</ele><speed>17.97</speed><time>2016-06-02T13:49:28Z</time><pdop>10.0</pdop><geoidheight>51.00</geoidheight><course>108.9</course><type>1</type></trkpt>
      <trkpt lat="38.47105537" lon="-2.09227613"><ele>2704</ele><speed>15.91</speed><time>2016-06-02T13:49:30Z</time><pdop>10.0</pdop><geoidheight>51.00</geoidheight><course>110.5</course><type>1</type></trkpt>
      <trkpt lat="38.47096691" lon="-2.0919211"><ele>2706</ele><speed>15.84</speed><time>2016-06-02T13:49:32Z</time><pdop>11.0</pdop><geoidheight>51.00</geoidheight><course>108.5</course><type>1</type></trkpt>
      <trkpt lat="38.47088118" lon="-2.09160037"><ele>2706</ele><speed>15.19</speed><time>2016-06-02T13:49:34Z</time><pdop>11.0</pdop><geoidheight>51.00</geoidheight><course>107.3</course><type>1</type></trkpt>
      <trkpt lat="38.47077033" lon="-2.09124354"><ele>2705</ele><speed>16.09</speed><time>2016-06-02T13:49:36Z</time><pdop>13.0</pdop><geoidheight>51.00</geoidheight><course>111.4</course><type>1</type></trkpt>
      <trkpt lat="38.47063967" lon="-2.0908046"><ele>2701</ele><speed>15.42</speed><time>2016-06-02T13:49:39Z</time><pdop>14.0</pdop><geoidheight>51.00</geoidheight><course>113.0</course><type>1</type></trkpt>
      <trkpt lat="38.47046118" lon="-2.09036955"><ele>2699</ele><speed>17.64</speed><time>2016-06-02T13:49:41Z</time><pdop>14.0</pdop><geoidheight>51.00</geoidheight><course>114.9</course><type>1</type></trkpt>
      <trkpt lat="38.47033758" lon="-2.08991805"><ele>2695</ele><speed>16.54</speed><time>2016-06-02T13:49:44Z</time><pdop>13.0</pdop><geoidheight>51.00</geoidheight><course>112.5</course><type>1</type></trkpt>
      <trkpt lat="38.47019186" lon="-2.08953303"><ele>2694</ele><speed>16.90</speed><time>2016-06-02T13:49:46Z</time><pdop>12.0</pdop><geoidheight>51.00</geoidheight><course>115.6</course><type>1</type></trkpt>
      <trkpt lat="38.47002159" lon="-2.08914131"><ele>2693</ele><speed>17.96</speed><time>2016-06-02T13:49:48Z</time><pdop>11.0</pdop><geoidheight>51.00</geoidheight><course>115.6</course><type>1</type></trkpt>
      <trkpt lat="38.46988774" lon="-2.08874405"><ele>2689</ele><speed>18.74</speed><time>2016-06-02T13:49:50Z</time><pdop>11.0</pdop><geoidheight>51.00</geoidheight><course>114.3</course><type>1</type></trkpt>
      <trkpt lat="38.46977702" lon="-2.08834253"><ele>2686</ele><speed>18.99</speed><time>2016-06-02T13:49:52Z</time><pdop>12.0</pdop><geoidheight>51.00</geoidheight><course>112.4</course><type>1</type></trkpt>
      <trkpt lat="38.46966633" lon="-2.08793672"><ele>2683</ele><speed>18.62</speed><time>2016-06-02T13:49:54Z</time><pdop>13.0</pdop><geoidheight>51.00</geoidheight><course>110.2</course><type>1</type></trkpt>
      <trkpt lat="38.46959029" lon="-2.0876166"><ele>2678</ele><speed>17.60</speed><time>2016-06-02T13:49:56Z</time><pdop>13.0</pdop><geoidheight>51.00</geoidheight><course>107.4</course><type>1</type></trkpt>
      <trkpt lat="38.46953991" lon="-2.08724143"><ele>2671</ele><speed>18.91</speed><time>2016-06-02T13:49:58Z</time><pdop>11.0</pdop><geoidheight>51.00</geoidheight><course>104.2</course><type>1</type></trkpt>
      <trkpt lat="38.46946076" lon="-2.0868596"><ele>2668</ele><speed>18.19</speed><time>2016-06-02T13:50:00Z</time><pdop>10.0</pdop><geoidheight>51.00</geoidheight><course>106.7</course><type>1</type></trkpt>
      <trkpt lat="38.46933814" lon="-2.08646364"><ele>2669</ele><speed>18.33</speed><time>2016-06-02T13:50:02Z</time><pdop>10.0</pdop><geoidheight>51.00</geoidheight><course>111.4</course><type>1</type></trkpt>
      <trkpt lat="38.46922163" lon="-2.08604869"><ele>2667</ele><speed>18.10</speed><time>2016-06-02T13:50:04Z</time><pdop>10.0</pdop><geoidheight>51.00</geoidheight><course>108.1</course><type>1</type></trkpt>
      <trkpt lat="38.46913921" lon="-2.0857067"><ele>2664</ele><speed>17.25</speed><time>2016-06-02T13:50:06Z</time><pdop>10.0</pdop><geoidheight>51.00</geoidheight><course>107.9</course><type>1</type></trkpt>
      <trkpt lat="38.46902941" lon="-2.08531357"><ele>2660</ele><speed>17.93</speed><time>2016-06-02T13:50:08Z</time><pdop>9.0</pdop><geoidheight>51.00</geoidheight><course>109.1</course><type>1</type></trkpt>
      <trkpt lat="38.46890122" lon="-2.08493392"><ele>2658</ele><speed>18.38</speed><time>2016-06-02T13:50:10Z</time><pdop>10.0</pdop><geoidheight>51.00</geoidheight><course>113.5</course><type>1</type></trkpt>
      <trkpt lat="38.46877497" lon="-2.08455313"><ele>2655</ele><speed>18.41</speed><time>2016-06-02T13:50:12Z</time><pdop>10.0</pdop><geoidheight>51.00</geoidheight><course>113.6</course><type>1</type></trkpt>
      <trkpt lat="38.4686964" lon="-2.08433114"><ele>2656</ele><speed>19.45</speed><time>2016-06-02T13:50:13Z</time><pdop>10.0</pdop><geoidheight>51.00</geoidheight><course>112.4</course><type>1</type></trkpt>
      <trkpt lat="38.46863157" lon="-2.08411337"><ele>2655</ele><speed>19.25</speed><time>2016-06-02T13:50:14Z</time><pdop>10.0</pdop><geoidheight>51.00</geoidheight><course>111.6</course><type>1</type></trkpt>
      <trkpt lat="38.46851419" lon="-2.08372713"><ele>2656</ele><speed>18.25</speed><time>2016-06-02T13:50:16Z</time><pdop>10.0</pdop><geoidheight>51.00</geoidheight><course>111.1</course><type>1</type></trkpt>
      <trkpt lat="38.46838296" lon="-2.08338814"><ele>2655</ele><speed>16.45</speed><time>2016-06-02T13:50:18Z</time><pdop>9.0</pdop><geoidheight>51.00</geoidheight><course>116.6</course><type>1</type></trkpt>
      <trkpt lat="38.46826948" lon="-2.08306628"><ele>2654</ele><speed>15.97</speed><time>2016-06-02T13:50:20Z</time><pdop>9.0</pdop><geoidheight>51.00</geoidheight><course>112.7</course><type>1</type></trkpt>
      <trkpt lat="38.46818422" lon="-2.08269187"><ele>2656</ele><speed>15.96</speed><time>2016-06-02T13:50:22Z</time><pdop>9.0</pdop><geoidheight>51.00</geoidheight><course>105.3</course><type>1</type></trkpt>
      <trkpt lat="38.46810457" lon="-2.08238597"><ele>2658</ele><speed>15.28</speed><time>2016-06-02T13:50:24Z</time><pdop>9.0</pdop><geoidheight>51.00</geoidheight><course>108.8</course><type>1</type></trkpt>
      <trkpt lat="38.46799484" lon="-2.08207977"><ele>2660</ele><speed>14.57</speed><time>2016-06-02T13:50:26Z</time><pdop>9.0</pdop><geoidheight>51.00</geoidheight><course>115.8</course><type>1</type></trkpt>
      <trkpt lat="38.46787631" lon="-2.08178665"><ele>2660</ele><speed>14.37</speed><time>2016-06-02T13:50:28Z</time><pdop>9.0</pdop><geoidheight>51.00</geoidheight><course>118.1</course><type>1</type></trkpt>
      <trkpt lat="38.46777037" lon="-2.08147802"><ele>2661</ele><speed>14.95</speed><time>2016-06-02T13:50:30Z</time><pdop>10.0</pdop><geoidheight>51.00</geoidheight><course>113.9</course><type>1</type></trkpt>
      <trkpt lat="38.46765792" lon="-2.08114715"><ele>2660</ele><speed>14.69</speed><time>2016-06-02T13:50:32Z</time><pdop>9.0</pdop><geoidheight>51.00</geoidheight><course>112.8</course><type>1</type></trkpt>
      <trkpt lat="38.46756174" lon="-2.0808297"><ele>2659</ele><speed>15.07</speed><time>2016-06-02T13:50:34Z</time><pdop>9.0</pdop><geoidheight>51.00</geoidheight><course>110.5</course><type>1</type></trkpt>
      <trkpt lat="38.46748498" lon="-2.08049829"><ele>2658</ele><speed>15.49</speed><time>2016-06-02T13:50:36Z</time><pdop>10.0</pdop><geoidheight>51.00</geoidheight><course>106.7</course><type>1</type></trkpt>
      <trkpt lat="38.46742107" lon="-2.08029436"><ele>2658</ele><speed>17.26</speed><time>2016-06-02T13:50:37Z</time><pdop>9.0</pdop><geoidheight>51.00</geoidheight><course>108.6</course><type>1</type></trkpt>
      <trkpt lat="38.46735395" lon="-2.08010603"><ele>2657</ele><speed>18.02</speed><time>2016-06-02T13:50:38Z</time><pdop>9.0</pdop><geoidheight>51.00</geoidheight><course>112.4</course><type>1</type></trkpt>
      <trkpt lat="38.46723372" lon="-2.0797544"><ele>2656</ele><speed>16.60</speed><time>2016-06-02T13:50:40Z</time><pdop>9.0</pdop><geoidheight>51.00</geoidheight><course>116.8</course><type>1</type></trkpt>
      <trkpt lat="38.46711793" lon="-2.07945036"><ele>2656</ele><speed>15.39</speed><time>2016-06-02T13:50:42Z</time><pdop>9.0</pdop><geoidheight>51.00</geoidheight><course>115.1</course><type>1</type></trkpt>
      <trkpt lat="38.46702892" lon="-2.07914294"><ele>2655</ele><speed>15.20</speed><time>2016-06-02T13:50:44Z</time><pdop>10.0</pdop><geoidheight>51.00</geoidheight><course>110.5</course><type>1</type></trkpt>
      <trkpt lat="38.4669452" lon="-2.0787959"><ele>2654</ele><speed>15.80</speed><time>2016-06-02T13:50:46Z</time><pdop>11.0</pdop><geoidheight>51.00</geoidheight><course>110.0</course><type>1</type></trkpt>
      <trkpt lat="38.46679891" lon="-2.07837999"><ele>2653</ele><speed>17.35</speed><time>2016-06-02T13:50:48Z</time><pdop>11.0</pdop><geoidheight>51.00</geoidheight><course>111.8</course><type>1</type></trkpt>
      <trkpt lat="38.46667343" lon="-2.07799721"><ele>2653</ele><speed>17.23</speed><time>2016-06-02T13:50:50Z</time><pdop>11.0</pdop><geoidheight>51.00</geoidheight><course>112.0</course><type>1</type></trkpt>
      <trkpt lat="38.46658625" lon="-2.07769731"><ele>2652</ele><speed>16.04</speed><time>2016-06-02T13:50:52Z</time><pdop>11.0</pdop><geoidheight>51.00</geoidheight><course>110.1</course><type>1</type></trkpt>
      <trkpt lat="38.46653543" lon="-2.07746328"><ele>2650</ele><speed>18.39</speed><time>2016-06-02T13:50:53Z</time><pdop>10.0</pdop><geoidheight>51.00</geoidheight><course>108.4</course><type>1</type></trkpt>
      <trkpt lat="38.46639526" lon="-2.07704764"><ele>2647</ele><speed>19.27</speed><time>2016-06-02T13:50:55Z</time><pdop>10.0</pdop><geoidheight>51.00</geoidheight><course>109.5</course><type>1</type></trkpt>
      <trkpt lat="38.46629074" lon="-2.07669614"><ele>2645</ele><speed>16.99</speed><time>2016-06-02T13:50:57Z</time><pdop>10.0</pdop><geoidheight>51.00</geoidheight><course>111.6</course><type>1</type></trkpt>
      <trkpt lat="38.46617642" lon="-2.07632471"><ele>2642</ele><speed>17.87</speed><time>2016-06-02T13:50:59Z</time><pdop>11.0</pdop><geoidheight>51.00</geoidheight><course>111.7</course><type>1</type></trkpt>
      <trkpt lat="38.46602355" lon="-2.07591576"><ele>2641</ele><speed>20.24</speed><time>2016-06-02T13:51:01Z</time><pdop>11.0</pdop><geoidheight>51.00</geoidheight><course>117.0</course><type>1</type></trkpt>
      <trkpt lat="38.46583638" lon="-2.07552453"><ele>2639</ele><speed>19.76</speed><time>2016-06-02T13:51:03Z</time><pdop>10.0</pdop><geoidheight>51.00</geoidheight><course>121.0</course><type>1</type></trkpt>
      <trkpt lat="38.46566482" lon="-2.07517508"><ele>2636</ele><speed>18.66</speed><time>2016-06-02T13:51:05Z</time><pdop>10.0</pdop><geoidheight>51.00</geoidheight><course>121.1</course><type>1</type></trkpt>
      <trkpt lat="38.46550141" lon="-2.07482416"><ele>2633</ele><speed>18.91</speed><time>2016-06-02T13:51:07Z</time><pdop>10.0</pdop><geoidheight>51.00</geoidheight><course>120.3</course><type>1</type></trkpt>
      <trkpt lat="38.46535572" lon="-2.07440799"><ele>2632</ele><speed>19.14</speed><time>2016-06-02T13:51:09Z</time><pdop>11.0</pdop><geoidheight>51.00</geoidheight><course>117.3</course><type>1</type></trkpt>
      <trkpt lat="38.46519412" lon="-2.07403425"><ele>2630</ele><speed>18.72</speed><time>2016-06-02T13:51:11Z</time><pdop>12.0</pdop><geoidheight>51.00</geoidheight><course>118.7</course><type>1</type></trkpt>
      <trkpt lat="38.46503613" lon="-2.07369086"><ele>2629</ele><speed>18.06</speed><time>2016-06-02T13:51:13Z</time><pdop>12.0</pdop><geoidheight>51.00</geoidheight><course>118.9</course><type>1</type></trkpt>
      <trkpt lat="38.46484848" lon="-2.07333208"><ele>2627</ele><speed>19.20</speed><time>2016-06-02T13:51:15Z</time><pdop>12.0</pdop><geoidheight>51.00</geoidheight><course>120.9</course><type>1</type></trkpt>
      <trkpt lat="38.46472795" lon="-2.07307056"><ele>2625</ele><speed>21.55</speed><time>2016-06-02T13:51:16Z</time><pdop>12.0</pdop><geoidheight>51.00</geoidheight><course>118.2</course><type>1</type></trkpt>
      <trkpt lat="38.46458147" lon="-2.07257245"><ele>2622</ele><speed>21.26</speed><time>2016-06-02T13:51:18Z</time><pdop>12.0</pdop><geoidheight>50.00</geoidheight><course>111.8</course><type>1</type></trkpt>
      <trkpt lat="38.46449355" lon="-2.07221067"><ele>2617</ele><speed>19.49</speed><time>2016-06-02T13:51:20Z</time><pdop>12.0</pdop><geoidheight>50.00</geoidheight><course>112.2</course><type>1</type></trkpt>
      <trkpt lat="38.46433312" lon="-2.07179568"><ele>2614</ele><speed>20.22</speed><time>2016-06-02T13:51:22Z</time><pdop>12.0</pdop><geoidheight>50.00</geoidheight><course>114.4</course><type>1</type></trkpt>
      <trkpt lat="38.46417624" lon="-2.07141048"><ele>2611</ele><speed>19.72</speed><time>2016-06-02T13:51:24Z</time><pdop>12.0</pdop><geoidheight>50.00</geoidheight><course>118.0</course><type>1</type></trkpt>
      <trkpt lat="38.4639927" lon="-2.07103893"><ele>2607</ele><speed>19.37</speed><time>2016-06-02T13:51:26Z</time><pdop>13.0</pdop><geoidheight>50.00</geoidheight><course>117.9</course><type>1</type></trkpt>
      <trkpt lat="38.46384912" lon="-2.07067194"><ele>2604</ele><speed>18.88</speed><time>2016-06-02T13:51:28Z</time><pdop>14.0</pdop><geoidheight>50.00</geoidheight><course>118.3</course><type>1</type></trkpt>
      <trkpt lat="38.46369845" lon="-2.07033499"><ele>2602</ele><speed>19.03</speed><time>2016-06-02T13:51:30Z</time><pdop>15.0</pdop><geoidheight>50.00</geoidheight><course>121.7</course><type>1</type></trkpt>
      <trkpt lat="38.46347963" lon="-2.06991014"><ele>2599</ele><speed>20.13</speed><time>2016-06-02T13:51:32Z</time><pdop>13.0</pdop><geoidheight>50.00</geoidheight><course>120.3</course><type>1</type></trkpt>
      <trkpt lat="38.46330671" lon="-2.06956027"><ele>2596</ele><speed>17.55</speed><time>2016-06-02T13:51:34Z</time><pdop>13.0</pdop><geoidheight>50.00</geoidheight><course>121.1</course><type>1</type></trkpt>
      <trkpt lat="38.46314872" lon="-2.06921683"><ele>2593</ele><speed>17.39</speed><time>2016-06-02T13:51:36Z</time><pdop>14.0</pdop><geoidheight>50.00</geoidheight><course>119.0</course><type>1</type></trkpt>
      <trkpt lat="38.46300326" lon="-2.06886314"><ele>2590</ele><speed>17.84</speed><time>2016-06-02T13:51:38Z</time><pdop>17.0</pdop><geoidheight>50.00</geoidheight><course>115.9</course><type>1</type></trkpt>
      <trkpt lat="38.46273591" lon="-2.06821215"><ele>2586</ele><speed>21.02</speed><time>2016-06-02T13:51:41Z</time><pdop>18.0</pdop><geoidheight>50.00</geoidheight><course>119.7</course><type>1</type></trkpt>
      <trkpt lat="38.46255724" lon="-2.06781339"><ele>2584</ele><speed>19.84</speed><time>2016-06-02T13:51:43Z</time><pdop>19.0</pdop><geoidheight>50.00</geoidheight><course>121.6</course><type>1</type></trkpt>
      <trkpt lat="38.46236642" lon="-2.06735227"><ele>2583</ele><speed>20.70</speed><time>2016-06-02T13:51:45Z</time><pdop>22.0</pdop><geoidheight>50.00</geoidheight><course>119.6</course><type>1</type></trkpt>
      <trkpt lat="38.46216289" lon="-2.06685463"><ele>2577</ele><speed>19.62</speed><time>2016-06-02T13:51:48Z</time><pdop>23.0</pdop><geoidheight>50.00</geoidheight><course>114.7</course><type>1</type></trkpt>
      <trkpt lat="38.46193026" lon="-2.06624619"><ele>2569</ele><speed>19.36</speed><time>2016-06-02T13:51:51Z</time><pdop>20.0</pdop><geoidheight>50.00</geoidheight><course>115.4</course><type>1</type></trkpt>
      <trkpt lat="38.46168669" lon="-2.06566317"><ele>2564</ele><speed>19.18</speed><time>2016-06-02T13:51:54Z</time><pdop>26.0</pdop><geoidheight>50.00</geoidheight><course>118.3</course><type>1</type></trkpt>
      <trkpt lat="38.46144239" lon="-2.06491732"><ele>2558</ele><speed>21.28</speed><time>2016-06-02T13:51:57Z</time><pdop>23.0</pdop><geoidheight>50.00</geoidheight><course>113.4</course><type>1</type></trkpt>
      <trkpt lat="38.46114915" lon="-2.06428089"><ele>2552</ele><speed>21.18</speed><time>2016-06-02T13:52:00Z</time><pdop>23.0</pdop><geoidheight>50.00</geoidheight><course>118.5</course><type>1</type></trkpt>
      <trkpt lat="38.46089602" lon="-2.06359127"><ele>2543</ele><speed>22.17</speed><time>2016-06-02T13:52:03Z</time><pdop>21.0</pdop><geoidheight>50.00</geoidheight><course>112.9</course><type>1</type></trkpt>
      <trkpt lat="38.46078849" lon="-2.06318803"><ele>2536</ele><speed>20.78</speed><time>2016-06-02T13:52:05Z</time><pdop>16.0</pdop><geoidheight>50.00</geoidheight><course>108.4</course><type>1</type></trkpt>
      <trkpt lat="38.46068035" lon="-2.06278254"><ele>2528</ele><speed>20.22</speed><time>2016-06-02T13:52:07Z</time><pdop>14.0</pdop><geoidheight>50.00</geoidheight><course>110.8</course><type>1</type></trkpt>
      <trkpt lat="38.46054587" lon="-2.06239199"><ele>2524</ele><speed>19.80</speed><time>2016-06-02T13:52:09Z</time><pdop>13.0</pdop><geoidheight>50.00</geoidheight><course>113.7</course><type>1</type></trkpt>
      <trkpt lat="38.46037274" lon="-2.06196141"><ele>2521</ele><speed>21.10</speed><time>2016-06-02T13:52:11Z</time><pdop>13.0</pdop><geoidheight>50.00</geoidheight><course>118.1</course><type>1</type></trkpt>
      <trkpt lat="38.46019027" lon="-2.06150992"><ele>2516</ele><speed>21.75</speed><time>2016-06-02T13:52:13Z</time><pdop>16.0</pdop><geoidheight>50.00</geoidheight><course>116.9</course><type>1</type></trkpt>
      <trkpt lat="38.46006692" lon="-2.06106505"><ele>2511</ele><speed>20.95</speed><time>2016-06-02T13:52:15Z</time><pdop>21.0</pdop><geoidheight>50.00</geoidheight><course>109.8</course><type>1</type></trkpt>
      <trkpt lat="38.4599163" lon="-2.06046512"><ele>2504</ele><speed>19.54</speed><time>2016-06-02T13:52:18Z</time><pdop>23.0</pdop><geoidheight>50.00</geoidheight><course>107.2</course><type>1</type></trkpt>
      <trkpt lat="38.45969613" lon="-2.05965288"><ele>2500</ele><speed>23.07</speed><time>2016-06-02T13:52:21Z</time><pdop>27.0</pdop><geoidheight>50.00</geoidheight><course>108.5</course><type>1</type></trkpt>
      <trkpt lat="38.45947548" lon="-2.05891512"><ele>2495</ele><speed>23.07</speed><time>2016-06-02T13:52:24Z</time><pdop>31.0</pdop><geoidheight>50.00</geoidheight><course>110.7</course><type>1</type></trkpt>
      <trkpt lat="38.4592557" lon="-2.05819033"><ele>2492</ele><speed>22.29</speed><time>2016-06-02T13:52:27Z</time><pdop>34.0</pdop><geoidheight>50.00</geoidheight><course>110.4</course><type>1</type></trkpt>
      <trkpt lat="38.45900188" lon="-2.0572736"><ele>2485</ele><speed>23.03</speed><time>2016-06-02T13:52:31Z</time><pdop>26.0</pdop><geoidheight>50.00</geoidheight><course>107.5</course><type>1</type></trkpt>
      <trkpt lat="38.45879468" lon="-2.05656989"><ele>2481</ele><speed>22.52</speed><time>2016-06-02T13:52:34Z</time><pdop>29.0</pdop><geoidheight>50.00</geoidheight><course>111.0</course><type>1</type></trkpt>
      <trkpt lat="38.45861476" lon="-2.05599313"><ele>2472</ele><speed>21.37</speed><time>2016-06-02T13:52:37Z</time><pdop>18.0</pdop><geoidheight>50.00</geoidheight><course>109.0</course><type>1</type></trkpt>
      <trkpt lat="38.45847401" lon="-2.05548386"><ele>2468</ele><speed>22.74</speed><time>2016-06-02T13:52:39Z</time><pdop>16.0</pdop><geoidheight>50.00</geoidheight><course>108.4</course><type>1</type></trkpt>
      <trkpt lat="38.45832478" lon="-2.05497541"><ele>2462</ele><speed>21.78</speed><time>2016-06-02T13:52:41Z</time><pdop>14.0</pdop><geoidheight>50.00</geoidheight><course>109.3</course><type>1</type></trkpt>
      <trkpt lat="38.45817541" lon="-2.0545217"><ele>2457</ele><speed>21.48</speed><time>2016-06-02T13:52:43Z</time><pdop>17.0</pdop><geoidheight>50.00</geoidheight><course>111.3</course><type>1</type></trkpt>
      <trkpt lat="38.45800275" lon="-2.05397179"><ele>2451</ele><speed>19.13</speed><time>2016-06-02T13:52:46Z</time><pdop>25.0</pdop><geoidheight>50.00</geoidheight><course>110.9</course><type>1</type></trkpt>
      <trkpt lat="38.45774782" lon="-2.05328888"><ele>2447</ele><speed>20.84</speed><time>2016-06-02T13:52:49Z</time><pdop>29.0</pdop><geoidheight>50.00</geoidheight><course>112.8</course><type>1</type></trkpt>
      <trkpt lat="38.45759277" lon="-2.05277252"><ele>2443</ele><speed>21.15</speed><time>2016-06-02T13:52:51Z</time><pdop>18.0</pdop><geoidheight>50.00</geoidheight><course>111.6</course><type>1</type></trkpt>
      <trkpt lat="38.45743084" lon="-2.05231108"><ele>2438</ele><speed>21.78</speed><time>2016-06-02T13:52:53Z</time><pdop>15.0</pdop><geoidheight>50.00</geoidheight><course>111.8</course><type>1</type></trkpt>
      <trkpt lat="38.4572824" lon="-2.05182678"><ele>2434</ele><speed>21.70</speed><time>2016-06-02T13:52:55Z</time><pdop>14.0</pdop><geoidheight>50.00</geoidheight><course>109.9</course><type>1</type></trkpt>
      <trkpt lat="38.45714769" lon="-2.05138047"><ele>2429</ele><speed>21.23</speed><time>2016-06-02T13:52:57Z</time><pdop>18.0</pdop><geoidheight>50.00</geoidheight><course>110.9</course><type>1</type></trkpt>
      <trkpt lat="38.45701519" lon="-2.05097637"><ele>2424</ele><speed>19.89</speed><time>2016-06-02T13:52:59Z</time><pdop>19.0</pdop><geoidheight>50.00</geoidheight><course>112.3</course><type>1</type></trkpt>
      <trkpt lat="38.45682331" lon="-2.05045569"><ele>2412</ele><speed>18.72</speed><time>2016-06-02T13:53:02Z</time><pdop>20.0</pdop><geoidheight>50.00</geoidheight><course>110.0</course><type>1</type></trkpt>
      <trkpt lat="38.45662856" lon="-2.04994703"><ele>2407</ele><speed>20.69</speed><time>2016-06-02T13:53:04Z</time><pdop>21.0</pdop><geoidheight>50.00</geoidheight><course>112.3</course><type>1</type></trkpt>
      <trkpt lat="38.45646287" lon="-2.04945391"><ele>2404</ele><speed>21.81</speed><time>2016-06-02T13:53:06Z</time><pdop>23.0</pdop><geoidheight>50.00</geoidheight><course>112.7</course><type>1</type></trkpt>
      <trkpt lat="38.45626511" lon="-2.04882494"><ele>2400</ele><speed>20.36</speed><time>2016-06-02T13:53:09Z</time><pdop>21.0</pdop><geoidheight>50.00</geoidheight><course>112.1</course><type>1</type></trkpt>
      <trkpt lat="38.45609876" lon="-2.04836601"><ele>2391</ele><speed>16.91</speed><time>2016-06-02T13:53:12Z</time><pdop>22.0</pdop><geoidheight>50.00</geoidheight><course>111.0</course><type>1</type></trkpt>
      <trkpt lat="38.45594482" lon="-2.04784636"><ele>2383</ele><speed>16.48</speed><time>2016-06-02T13:53:15Z</time><pdop>26.0</pdop><geoidheight>50.00</geoidheight><course>107.7</course><type>1</type></trkpt>
      <trkpt lat="38.45578484" lon="-2.0473366"><ele>2376</ele><speed>14.70</speed><time>2016-06-02T13:53:18Z</time><pdop>17.0</pdop><geoidheight>50.00</geoidheight><course>114.4</course><type>1</type></trkpt>
      <trkpt lat="38.45568388" lon="-2.04687374"><ele>2371</ele><speed>13.91</speed><time>2016-06-02T13:53:21Z</time><pdop>14.0</pdop><geoidheight>50.00</geoidheight><course>106.0</course><type>1</type></trkpt>
      <trkpt lat="38.45554509" lon="-2.04645009"><ele>2367</ele><speed>13.45</speed><time>2016-06-02T13:53:24Z</time><pdop>18.0</pdop><geoidheight>50.00</geoidheight><course>111.6</course><type>1</type></trkpt>
      <trkpt lat="38.45543234" lon="-2.04604493"><ele>2360</ele><speed>12.62</speed><time>2016-06-02T13:53:27Z</time><pdop>14.0</pdop><geoidheight>50.00</geoidheight><course>110.2</course><type>1</type></trkpt>
      <trkpt lat="38.45532748" lon="-2.0456184"><ele>2353</ele><speed>13.16</speed><time>2016-06-02T13:53:30Z</time><pdop>13.0</pdop><geoidheight>50.00</geoidheight><course>108.2</course><type>1</type></trkpt>
      <trkpt lat="38.4552122" lon="-2.04519727"><ele>2344</ele><speed>12.89</speed><time>2016-06-02T13:53:33Z</time><pdop>12.0</pdop><geoidheight>50.00</geoidheight><course>105.8</course><type>1</type></trkpt>
      <trkpt lat="38.45513406" lon="-2.04491209"><ele>2338</ele><speed>13.54</speed><time>2016-06-02T13:53:35Z</time><pdop>13.0</pdop><geoidheight>50.00</geoidheight><course>108.4</course><type>1</type></trkpt>
      <trkpt lat="38.45499398" lon="-2.04446422"><ele>2325</ele><speed>13.87</speed><time>2016-06-02T13:53:38Z</time><pdop>20.0</pdop><geoidheight>50.00</geoidheight><course>110.6</course><type>1</type></trkpt>
      <trkpt lat="38.45488419" lon="-2.04406139"><ele>2312</ele><speed>12.39</speed><time>2016-06-02T13:53:41Z</time><pdop>16.0</pdop><geoidheight>50.00</geoidheight><course>106.2</course><type>1</type></trkpt>
      <trkpt lat="38.45478326" lon="-2.04356359"><ele>2300</ele><speed>14.41</speed><time>2016-06-02T13:53:44Z</time><pdop>14.0</pdop><geoidheight>50.00</geoidheight><course>104.3</course><type>1</type></trkpt>
      <trkpt lat="38.4546509" lon="-2.04317641"><ele>2283</ele><speed>11.58</speed><time>2016-06-02T13:53:47Z</time><pdop>13.0</pdop><geoidheight>50.00</geoidheight><course>104.1</course><type>1</type></trkpt>
      <trkpt lat="38.45460663" lon="-2.04275921"><ele>2273</ele><speed>12.41</speed><time>2016-06-02T13:53:50Z</time><pdop>13.0</pdop><geoidheight>50.00</geoidheight><course>96.0</course><type>1</type></trkpt>
      <trkpt lat="38.45453989" lon="-2.04246045"><ele>2263</ele><speed>13.67</speed><time>2016-06-02T13:53:52Z</time><pdop>12.0</pdop><geoidheight>50.00</geoidheight><course>103.9</course><type>1</type></trkpt>
      <trkpt lat="38.45446949" lon="-2.04215848"><ele>2258</ele><speed>13.93</speed><time>2016-06-02T13:53:54Z</time><pdop>12.0</pdop><geoidheight>50.00</geoidheight><course>103.4</course><type>1</type></trkpt>
      <trkpt lat="38.45438751" lon="-2.04184586"><ele>2254</ele><speed>14.17</speed><time>2016-06-02T13:53:56Z</time><pdop>13.0</pdop><geoidheight>50.00</geoidheight><course>108.4</course><type>1</type></trkpt>
      <trkpt lat="38.45428816" lon="-2.04155818"><ele>2247</ele><speed>13.62</speed><time>2016-06-02T13:53:58Z</time><pdop>14.0</pdop><geoidheight>50.00</geoidheight><course>113.4</course><type>1</type></trkpt>
      <trkpt lat="38.4541313" lon="-2.0411344"><ele>2231</ele><speed>13.48</speed><time>2016-06-02T13:54:02Z</time><pdop>13.0</pdop><geoidheight>50.00</geoidheight><course>114.0</course><type>1</type></trkpt>
      <trkpt lat="38.45402425" lon="-2.04086248"><ele>2223</ele><speed>12.08</speed><time>2016-06-02T13:54:04Z</time><pdop>12.0</pdop><geoidheight>50.00</geoidheight><course>116.4</course><type>1</type></trkpt>
      <trkpt lat="38.45392231" lon="-2.04048527"><ele>2212</ele><speed>11.52</speed><time>2016-06-02T13:54:07Z</time><pdop>11.0</pdop><geoidheight>50.00</geoidheight><course>106.1</course><type>1</type></trkpt>
      <trkpt lat="38.45383665" lon="-2.04016682"><ele>2200</ele><speed>10.33</speed><time>2016-06-02T13:54:10Z</time><pdop>10.0</pdop><geoidheight>50.00</geoidheight><course>110.1</course><type>1</type></trkpt>
      <trkpt lat="38.45376092" lon="-2.03991739"><ele>2198</ele><speed>11.43</speed><time>2016-06-02T13:54:12Z</time><pdop>12.0</pdop><geoidheight>50.00</geoidheight><course>109.2</course><type>1</type></trkpt>
      <trkpt lat="38.45375794" lon="-2.03958462"><ele>2192</ele><speed>13.57</speed><time>2016-06-02T13:54:14Z</time><pdop>12.0</pdop><geoidheight>50.00</geoidheight><course>94.8</course><type>1</type></trkpt>
      <trkpt lat="38.45373281" lon="-2.03931108"><ele>2187</ele><speed>12.24</speed><time>2016-06-02T13:54:16Z</time><pdop>10.0</pdop><geoidheight>50.00</geoidheight><course>100.3</course><type>1</type></trkpt>
      <trkpt lat="38.45365299" lon="-2.03902888"><ele>2182</ele><speed>12.43</speed><time>2016-06-02T13:54:18Z</time><pdop>10.0</pdop><geoidheight>50.00</geoidheight><course>108.8</course><type>1</type></trkpt>
      <trkpt lat="38.45358788" lon="-2.03875188"><ele>2178</ele><speed>13.00</speed><time>2016-06-02T13:54:20Z</time><pdop>11.0</pdop><geoidheight>50.00</geoidheight><course>108.8</course><type>1</type></trkpt>
      <trkpt lat="38.45351197" lon="-2.03850097"><ele>2173</ele><speed>12.29</speed><time>2016-06-02T13:54:22Z</time><pdop>12.0</pdop><geoidheight>50.00</geoidheight><course>108.7</course><type>1</type></trkpt>
      <trkpt lat="38.45343705" lon="-2.0382306"><ele>2170</ele><speed>12.25</speed><time>2016-06-02T13:54:24Z</time><pdop>11.0</pdop><geoidheight>50.00</geoidheight><course>109.5</course><type>1</type></trkpt>
      <trkpt lat="38.45319018" lon="-2.03746663"><ele>1849</ele><speed>11.40</speed><time>2016-06-02T13:54:30Z</time><pdop>11.0</pdop><geoidheight>50.00</geoidheight><course>107.0</course><type>1</type></trkpt>
      <trkpt lat="38.45313134" lon="-2.03720519"><ele>1930</ele><speed>12.02</speed><time>2016-06-02T13:54:32Z</time><pdop>11.0</pdop><geoidheight>50.00</geoidheight><course>107.9</course><type>1</type></trkpt>
      <trkpt lat="38.45307955" lon="-2.03693219"><ele>1956</ele><speed>12.58</speed><time>2016-06-02T13:54:34Z</time><pdop>12.0</pdop><geoidheight>50.00</geoidheight><course>105.1</course><type>1</type></trkpt>
      <trkpt lat="38.45300388" lon="-2.03657808"><ele>1974</ele><speed>13.95</speed><time>2016-06-02T13:54:36Z</time><pdop>11.0</pdop><geoidheight>50.00</geoidheight><course>104.9</course><type>1</type></trkpt>
      <trkpt lat="38.45295352" lon="-2.03628531"><ele>1992</ele><speed>12.93</speed><time>2016-06-02T13:54:38Z</time><pdop>11.0</pdop><geoidheight>50.00</geoidheight><course>103.8</course><type>1</type></trkpt>
      <trkpt lat="38.4528868" lon="-2.03601451"><ele>2028</ele><speed>13.16</speed><time>2016-06-02T13:54:40Z</time><pdop>13.0</pdop><geoidheight>50.00</geoidheight><course>105.2</course><type>1</type></trkpt>
      <trkpt lat="38.45279438" lon="-2.03566504"><ele>2039</ele><speed>15.07</speed><time>2016-06-02T13:54:42Z</time><pdop>11.0</pdop><geoidheight>50.00</geoidheight><course>108.6</course><type>1</type></trkpt>
      <trkpt lat="38.45270725" lon="-2.03538789"><ele>2038</ele><speed>13.51</speed><time>2016-06-02T13:54:44Z</time><pdop>12.0</pdop><geoidheight>50.00</geoidheight><course>113.1</course><type>1</type></trkpt>
      <trkpt lat="38.4526344" lon="-2.03511735"><ele>2049</ele><speed>12.96</speed><time>2016-06-02T13:54:46Z</time><pdop>11.0</pdop><geoidheight>50.00</geoidheight><course>107.1</course><type>1</type></trkpt>
      <trkpt lat="38.45261136" lon="-2.03473228"><ele>2047</ele><speed>12.60</speed><time>2016-06-02T13:54:49Z</time><pdop>11.0</pdop><geoidheight>50.00</geoidheight><course>95.8</course><type>1</type></trkpt>
      <trkpt lat="38.45257401" lon="-2.03445617"><ele>2034</ele><speed>13.39</speed><time>2016-06-02T13:54:51Z</time><pdop>11.0</pdop><geoidheight>50.00</geoidheight><course>101.8</course><type>1</type></trkpt>
      <trkpt lat="38.45253476" lon="-2.03415207"><ele>2020</ele><speed>14.65</speed><time>2016-06-02T13:54:53Z</time><pdop>12.0</pdop><geoidheight>50.00</geoidheight><course>101.2</course><type>1</type></trkpt>
      <trkpt lat="38.4524723" lon="-2.03380171"><ele>2022</ele><speed>15.40</speed><time>2016-06-02T13:54:55Z</time><pdop>11.0</pdop><geoidheight>50.00</geoidheight><course>101.7</course><type>1</type></trkpt>
      <trkpt lat="38.45242188" lon="-2.03351341"><ele>2024</ele><speed>12.55</speed><time>2016-06-02T13:54:57Z</time><pdop>11.0</pdop><geoidheight>50.00</geoidheight><course>103.1</course><type>1</type></trkpt>
      <trkpt lat="38.4523272" lon="-2.0331568"><ele>2033</ele><speed>11.47</speed><time>2016-06-02T13:55:00Z</time><pdop>12.0</pdop><geoidheight>50.00</geoidheight><course>105.5</course><type>1</type></trkpt>
      <trkpt lat="38.45224339" lon="-2.03272091"><ele>2038</ele><speed>12.93</speed><time>2016-06-02T13:55:03Z</time><pdop>14.0</pdop><geoidheight>50.00</geoidheight><course>103.3</course><type>1</type></trkpt>
      <trkpt lat="38.45215008" lon="-2.0324022"><ele>2037</ele><speed>13.86</speed><time>2016-06-02T13:55:05Z</time><pdop>12.0</pdop><geoidheight>50.00</geoidheight><course>110.9</course><type>1</type></trkpt>
      <trkpt lat="38.45206935" lon="-2.0320856"><ele>2031</ele><speed>14.76</speed><time>2016-06-02T13:55:07Z</time><pdop>12.0</pdop><geoidheight>50.00</geoidheight><course>106.3</course><type>1</type></trkpt>
      <trkpt lat="38.45201219" lon="-2.03179688"><ele>2028</ele><speed>13.42</speed><time>2016-06-02T13:55:09Z</time><pdop>12.0</pdop><geoidheight>50.00</geoidheight><course>105.5</course><type>1</type></trkpt>
      <trkpt lat="38.45193538" lon="-2.03150593"><ele>2028</ele><speed>14.37</speed><time>2016-06-02T13:55:11Z</time><pdop>11.0</pdop><geoidheight>50.00</geoidheight><course>110.5</course><type>1</type></trkpt>
      <trkpt lat="38.45181815" lon="-2.03120146"><ele>2027</ele><speed>15.38</speed><time>2016-06-02T13:55:13Z</time><pdop>11.0</pdop><geoidheight>50.00</geoidheight><course>114.5</course><type>1</type></trkpt>
      <trkpt lat="38.45170837" lon="-2.03087538"><ele>2024</ele><speed>14.30</speed><time>2016-06-02T13:55:15Z</time><pdop>11.0</pdop><geoidheight>50.00</geoidheight><course>112.5</course><type>1</type></trkpt>
      <trkpt lat="38.45162117" lon="-2.03059671"><ele>2020</ele><speed>13.10</speed><time>2016-06-02T13:55:17Z</time><pdop>11.0</pdop><geoidheight>50.00</geoidheight><course>110.6</course><type>1</type></trkpt>
      <trkpt lat="38.45152719" lon="-2.0303341"><ele>2015</ele><speed>12.65</speed><time>2016-06-02T13:55:19Z</time><pdop>11.0</pdop><geoidheight>50.00</geoidheight><course>111.7</course><type>1</type></trkpt>
      <trkpt lat="38.45144185" lon="-2.03006929"><ele>2014</ele><speed>12.11</speed><time>2016-06-02T13:55:21Z</time><pdop>11.0</pdop><geoidheight>50.00</geoidheight><course>111.5</course><type>1</type></trkpt>
      <trkpt lat="38.45135481" lon="-2.02982209"><ele>2014</ele><speed>11.01</speed><time>2016-06-02T13:55:23Z</time><pdop>11.0</pdop><geoidheight>50.00</geoidheight><course>112.9</course><type>1</type></trkpt>
      <trkpt lat="38.45124058" lon="-2.02948885"><ele>2010</ele><speed>12.37</speed><time>2016-06-02T13:55:26Z</time><pdop>10.0</pdop><geoidheight>50.00</geoidheight><course>110.6</course><type>1</type></trkpt>
      <trkpt lat="38.45115477" lon="-2.02920288"><ele>2009</ele><speed>13.43</speed><time>2016-06-02T13:55:28Z</time><pdop>10.0</pdop><geoidheight>50.00</geoidheight><course>109.3</course><type>1</type></trkpt>
      <trkpt lat="38.4510835" lon="-2.0289218"><ele>2008</ele><speed>12.43</speed><time>2016-06-02T13:55:30Z</time><pdop>10.0</pdop><geoidheight>50.00</geoidheight><course>106.8</course><type>1</type></trkpt>
      <trkpt lat="38.45102056" lon="-2.02867353"><ele>2007</ele><speed>11.37</speed><time>2016-06-02T13:55:32Z</time><pdop>10.0</pdop><geoidheight>50.00</geoidheight><course>105.6</course><type>1</type></trkpt>
      <trkpt lat="38.45094333" lon="-2.02832971"><ele>2006</ele><speed>10.77</speed><time>2016-06-02T13:55:35Z</time><pdop>10.0</pdop><geoidheight>50.00</geoidheight><course>102.8</course><type>1</type></trkpt>
      <trkpt lat="38.45088239" lon="-2.02804199"><ele>2004</ele><speed>12.92</speed><time>2016-06-02T13:55:37Z</time><pdop>10.0</pdop><geoidheight>50.00</geoidheight><course>103.9</course><type>1</type></trkpt>
      <trkpt lat="38.45080186" lon="-2.02771598"><ele>2004</ele><speed>13.89</speed><time>2016-06-02T13:55:39Z</time><pdop>9.0</pdop><geoidheight>50.00</geoidheight><course>106.8</course><type>1</type></trkpt>
      <trkpt lat="38.45074111" lon="-2.02745093"><ele>2008</ele><speed>11.95</speed><time>2016-06-02T13:55:41Z</time><pdop>9.0</pdop><geoidheight>50.00</geoidheight><course>107.1</course><type>1</type></trkpt>
      <trkpt lat="38.45068939" lon="-2.0272107"><ele>2007</ele><speed>10.91</speed><time>2016-06-02T13:55:43Z</time><pdop>9.0</pdop><geoidheight>50.00</geoidheight><course>105.8</course><type>1</type></trkpt>
      <trkpt lat="38.45063532" lon="-2.02693561"><ele>2005</ele><speed>12.34</speed><time>2016-06-02T13:55:45Z</time><pdop>10.0</pdop><geoidheight>50.00</geoidheight><course>106.3</course><type>1</type></trkpt>
      <trkpt lat="38.45056267" lon="-2.02665483"><ele>2004</ele><speed>12.25</speed><time>2016-06-02T13:55:47Z</time><pdop>10.0</pdop><geoidheight>50.00</geoidheight><course>109.5</course><type>1</type></trkpt>
      <trkpt lat="38.45048291" lon="-2.02641278"><ele>2005</ele><speed>11.22</speed><time>2016-06-02T13:55:49Z</time><pdop>9.0</pdop><geoidheight>50.00</geoidheight><course>107.1</course><type>1</type></trkpt>
      <trkpt lat="38.45043456" lon="-2.02617846"><ele>2004</ele><speed>11.31</speed><time>2016-06-02T13:55:51Z</time><pdop>9.0</pdop><geoidheight>50.00</geoidheight><course>104.6</course><type>1</type></trkpt>
      <trkpt lat="38.45036218" lon="-2.02588833"><ele>2002</ele><speed>12.70</speed><time>2016-06-02T13:55:53Z</time><pdop>10.0</pdop><geoidheight>50.00</geoidheight><course>107.6</course><type>1</type></trkpt>
      <trkpt lat="38.4503057" lon="-2.02559604"><ele>1999</ele><speed>12.98</speed><time>2016-06-02T13:55:55Z</time><pdop>9.0</pdop><geoidheight>50.00</geoidheight><course>107.5</course><type>1</type></trkpt>
      <trkpt lat="38.45023225" lon="-2.02532415"><ele>1995</ele><speed>12.92</speed><time>2016-06-02T13:55:57Z</time><pdop>9.0</pdop><geoidheight>50.00</geoidheight><course>108.8</course><type>1</type></trkpt>
      <trkpt lat="38.45013216" lon="-2.02500735"><ele>1995</ele><speed>14.41</speed><time>2016-06-02T13:55:59Z</time><pdop>10.0</pdop><geoidheight>50.00</geoidheight><course>110.6</course><type>1</type></trkpt>
      <trkpt lat="38.45006475" lon="-2.02472463"><ele>1992</ele><speed>14.16</speed><time>2016-06-02T13:56:01Z</time><pdop>10.0</pdop><geoidheight>50.00</geoidheight><course>109.0</course><type>1</type></trkpt>
      <trkpt lat="38.44996759" lon="-2.02440353"><ele>1990</ele><speed>13.85</speed><time>2016-06-02T13:56:03Z</time><pdop>10.0</pdop><geoidheight>50.00</geoidheight><course>111.9</course><type>1</type></trkpt>
      <trkpt lat="38.44984847" lon="-2.02413977"><ele>1987</ele><speed>14.30</speed><time>2016-06-02T13:56:05Z</time><pdop>9.0</pdop><geoidheight>50.00</geoidheight><course>117.9</course><type>1</type></trkpt>
      <trkpt lat="38.44973736" lon="-2.02380949"><ele>1985</ele><speed>15.67</speed><time>2016-06-02T13:56:07Z</time><pdop>10.0</pdop><geoidheight>50.00</geoidheight><course>112.1</course><type>1</type></trkpt>
      <trkpt lat="38.44963095" lon="-2.02343659"><ele>1982</ele><speed>16.40</speed><time>2016-06-02T13:56:09Z</time><pdop>10.0</pdop><geoidheight>50.00</geoidheight><course>109.7</course><type>1</type></trkpt>
      <trkpt lat="38.44952319" lon="-2.02313899"><ele>1978</ele><speed>14.79</speed><time>2016-06-02T13:56:11Z</time><pdop>9.0</pdop><geoidheight>50.00</geoidheight><course>113.1</course><type>1</type></trkpt>
      <trkpt lat="38.44943198" lon="-2.02280369"><ele>1976</ele><speed>15.19</speed><time>2016-06-02T13:56:13Z</time><pdop>10.0</pdop><geoidheight>50.00</geoidheight><course>112.6</course><type>1</type></trkpt>
      <trkpt lat="38.44931144" lon="-2.0224753"><ele>1975</ele><speed>15.71</speed><time>2016-06-02T13:56:15Z</time><pdop>10.0</pdop><geoidheight>50.00</geoidheight><course>113.6</course><type>1</type></trkpt>
      <trkpt lat="38.44918638" lon="-2.0221609"><ele>1973</ele><speed>15.69</speed><time>2016-06-02T13:56:17Z</time><pdop>10.0</pdop><geoidheight>50.00</geoidheight><course>117.4</course><type>1</type></trkpt>
      <trkpt lat="38.44907624" lon="-2.02184577"><ele>1970</ele><speed>15.42</speed><time>2016-06-02T13:56:19Z</time><pdop>11.0</pdop><geoidheight>50.00</geoidheight><course>118.3</course><type>1</type></trkpt>
      <trkpt lat="38.44897363" lon="-2.0215484"><ele>1969</ele><speed>14.68</speed><time>2016-06-02T13:56:21Z</time><pdop>10.0</pdop><geoidheight>50.00</geoidheight><course>115.2</course><type>1</type></trkpt>
      <trkpt lat="38.44888022" lon="-2.02131051"><ele>1968</ele><speed>13.19</speed><time>2016-06-02T13:56:23Z</time><pdop>10.0</pdop><geoidheight>50.00</geoidheight><course>113.8</course><type>1</type></trkpt>
      <trkpt lat="38.44884131" lon="-2.0210135"><ele>1964</ele><speed>13.60</speed><time>2016-06-02T13:56:25Z</time><pdop>10.0</pdop><geoidheight>50.00</geoidheight><course>103.8</course><type>1</type></trkpt>
      <trkpt lat="38.44874034" lon="-2.02067385"><ele>1961</ele><speed>15.94</speed><time>2016-06-02T13:56:27Z</time><pdop>10.0</pdop><geoidheight>50.00</geoidheight><course>107.1</course><type>1</type></trkpt>
      <trkpt lat="38.4487232" lon="-2.02033015"><ele>1959</ele><speed>15.08</speed><time>2016-06-02T13:56:29Z</time><pdop>9.0</pdop><geoidheight>50.00</geoidheight><course>99.9</course><type>1</type></trkpt>
      <trkpt lat="38.44866934" lon="-2.01998068"><ele>1956</ele><speed>15.66</speed><time>2016-06-02T13:56:31Z</time><pdop>9.0</pdop><geoidheight>50.00</geoidheight><course>103.1</course><type>1</type></trkpt>
      <trkpt lat="38.44861148" lon="-2.01963775"><ele>1951</ele><speed>16.50</speed><time>2016-06-02T13:56:33Z</time><pdop>9.0</pdop><geoidheight>50.00</geoidheight><course>104.6</course><type>1</type></trkpt>
      <trkpt lat="38.44854999" lon="-2.01928116"><ele>1949</ele><speed>15.92</speed><time>2016-06-02T13:56:35Z</time><pdop>9.0</pdop><geoidheight>50.00</geoidheight><course>105.0</course><type>1</type></trkpt>
      <trkpt lat="38.44849148" lon="-2.0189583"><ele>1948</ele><speed>14.97</speed><time>2016-06-02T13:56:37Z</time><pdop>9.0</pdop><geoidheight>50.00</geoidheight><course>106.4</course><type>1</type></trkpt>
      <trkpt lat="38.44842913" lon="-2.01861857"><ele>1945</ele><speed>15.41</speed><time>2016-06-02T13:56:39Z</time><pdop>9.0</pdop><geoidheight>50.00</geoidheight><course>107.4</course><type>1</type></trkpt>
      <trkpt lat="38.44834322" lon="-2.0182928"><ele>1940</ele><speed>15.66</speed><time>2016-06-02T13:56:41Z</time><pdop>10.0</pdop><geoidheight>50.00</geoidheight><course>110.2</course><type>1</type></trkpt>
      <trkpt lat="38.44823171" lon="-2.01800027"><ele>1937</ele><speed>14.61</speed><time>2016-06-02T13:56:43Z</time><pdop>9.0</pdop><geoidheight>50.00</geoidheight><course>110.0</course><type>1</type></trkpt>
      <trkpt lat="38.44813126" lon="-2.01772139"><ele>1934</ele><speed>14.10</speed><time>2016-06-02T13:56:45Z</time><pdop>9.0</pdop><geoidheight>50.00</geoidheight><course>113.4</course><type>1</type></trkpt>
      <trkpt lat="38.44804303" lon="-2.0174171"><ele>1929</ele><speed>14.73</speed><time>2016-06-02T13:56:47Z</time><pdop>10.0</pdop><geoidheight>50.00</geoidheight><course>112.0</course><type>1</type></trkpt>
      <trkpt lat="38.44797792" lon="-2.01709303"><ele>1926</ele><speed>14.72</speed><time>2016-06-02T13:56:49Z</time><pdop>11.0</pdop><geoidheight>50.00</geoidheight><course>109.5</course><type>1</type></trkpt>
      <trkpt lat="38.44786996" lon="-2.0167852"><ele>1921</ele><speed>14.42</speed><time>2016-06-02T13:56:51Z</time><pdop>10.0</pdop><geoidheight>50.00</geoidheight><course>113.6</course><type>1</type></trkpt>
      <trkpt lat="38.447793" lon="-2.01648192"><ele>1917</ele><speed>15.06</speed><time>2016-06-02T13:56:53Z</time><pdop>9.0</pdop><geoidheight>50.00</geoidheight><course>108.8</course><type>1</type></trkpt>
      <trkpt lat="38.44769016" lon="-2.01613621"><ele>1917</ele><speed>15.82</speed><time>2016-06-02T13:56:55Z</time><pdop>11.0</pdop><geoidheight>50.00</geoidheight><course>109.5</course><type>1</type></trkpt>
      <trkpt lat="38.4475596" lon="-2.0158222"><ele>1916</ele><speed>15.08</speed><time>2016-06-02T13:56:57Z</time><pdop>11.0</pdop><geoidheight>50.00</geoidheight><course>114.8</course><type>1</type></trkpt>
      <trkpt lat="38.44747371" lon="-2.01549766"><ele>1914</ele><speed>14.19</speed><time>2016-06-02T13:56:59Z</time><pdop>10.0</pdop><geoidheight>50.00</geoidheight><course>112.1</course><type>1</type></trkpt>
      <trkpt lat="38.44742429" lon="-2.01527829"><ele>1916</ele><speed>11.77</speed><time>2016-06-02T13:57:01Z</time><pdop>9.0</pdop><geoidheight>50.00</geoidheight><course>111.4</course><type>1</type></trkpt>
      <trkpt lat="38.44737221" lon="-2.015036"><ele>1912</ele><speed>13.16</speed><time>2016-06-02T13:57:03Z</time><pdop>9.0</pdop><geoidheight>50.00</geoidheight><course>108.4</course><type>1</type></trkpt>
      <trkpt lat="38.44730476" lon="-2.01475173"><ele>1913</ele><speed>12.92</speed><time>2016-06-02T13:57:05Z</time><pdop>9.0</pdop><geoidheight>50.00</geoidheight><course>107.5</course><type>1</type></trkpt>
      <trkpt lat="38.44723866" lon="-2.01449149"><ele>1909</ele><speed>12.41</speed><time>2016-06-02T13:57:07Z</time><pdop>9.0</pdop><geoidheight>50.00</geoidheight><course>110.9</course><type>1</type></trkpt>
      <trkpt lat="38.44714895" lon="-2.01423098"><ele>1906</ele><speed>12.40</speed><time>2016-06-02T13:57:09Z</time><pdop>9.0</pdop><geoidheight>50.00</geoidheight><course>114.7</course><type>1</type></trkpt>
      <trkpt lat="38.44703993" lon="-2.01396205"><ele>1902</ele><speed>12.84</speed><time>2016-06-02T13:57:11Z</time><pdop>9.0</pdop><geoidheight>50.00</geoidheight><course>117.8</course><type>1</type></trkpt>
      <trkpt lat="38.4469431" lon="-2.01366176"><ele>1899</ele><speed>14.40</speed><time>2016-06-02T13:57:13Z</time><pdop>9.0</pdop><geoidheight>50.00</geoidheight><course>110.8</course><type>1</type></trkpt>
      <trkpt lat="38.44686359" lon="-2.01337269"><ele>1897</ele><speed>13.95</speed><time>2016-06-02T13:57:15Z</time><pdop>9.0</pdop><geoidheight>50.00</geoidheight><course>110.2</course><type>1</type></trkpt>
      <trkpt lat="38.44679134" lon="-2.01309669"><ele>1899</ele><speed>12.96</speed><time>2016-06-02T13:57:17Z</time><pdop>9.0</pdop><geoidheight>50.00</geoidheight><course>108.0</course><type>1</type></trkpt>
      <trkpt lat="38.44672697" lon="-2.01277707"><ele>1898</ele><speed>14.23</speed><time>2016-06-02T13:57:19Z</time><pdop>9.0</pdop><geoidheight>50.00</geoidheight><course>103.7</course><type>1</type></trkpt>
      <trkpt lat="38.44669828" lon="-2.01248945"><ele>1897</ele><speed>12.31</speed><time>2016-06-02T13:57:21Z</time><pdop>9.0</pdop><geoidheight>50.00</geoidheight><course>98.3</course><type>1</type></trkpt>
      <trkpt lat="38.44669808" lon="-2.01225113"><ele>1898</ele><speed>10.20</speed><time>2016-06-02T13:57:23Z</time><pdop>9.0</pdop><geoidheight>50.00</geoidheight><course>94.2</course><type>1</type></trkpt>
      <trkpt lat="38.44666496" lon="-2.01203689"><ele>1896</ele><speed>10.27</speed><time>2016-06-02T13:57:25Z</time><pdop>10.0</pdop><geoidheight>50.00</geoidheight><course>99.1</course><type>1</type></trkpt>
      <trkpt lat="38.44666589" lon="-2.01177473"><ele>1894</ele><speed>12.01</speed><time>2016-06-02T13:57:27Z</time><pdop>10.0</pdop><geoidheight>50.00</geoidheight><course>95.2</course><type>1</type></trkpt>
      <trkpt lat="38.4466106" lon="-2.01140102"><ele>1895</ele><speed>14.07</speed><time>2016-06-02T13:57:29Z</time><pdop>9.0</pdop><geoidheight>50.00</geoidheight><course>98.3</course><type>1</type></trkpt>
      <trkpt lat="38.44655026" lon="-2.01108076"><ele>1895</ele><speed>12.66</speed><time>2016-06-02T13:57:31Z</time><pdop>9.0</pdop><geoidheight>50.00</geoidheight><course>100.1</course><type>1</type></trkpt>
      <trkpt lat="38.44650556" lon="-2.01078822"><ele>1892</ele><speed>13.99</speed><time>2016-06-02T13:57:33Z</time><pdop>9.0</pdop><geoidheight>50.00</geoidheight><course>100.1</course><type>1</type></trkpt>
      <trkpt lat="38.44648779" lon="-2.01045595"><ele>1890</ele><speed>13.73</speed><time>2016-06-02T13:57:35Z</time><pdop>9.0</pdop><geoidheight>50.00</geoidheight><course>94.8</course><type>1</type></trkpt>
      <trkpt lat="38.44647228" lon="-2.01015672"><ele>1889</ele><speed>13.21</speed><time>2016-06-02T13:57:37Z</time><pdop>9.0</pdop><geoidheight>50.00</geoidheight><course>93.5</course><type>1</type></trkpt>
      <trkpt lat="38.44647153" lon="-2.00983828"><ele>1886</ele><speed>13.94</speed><time>2016-06-02T13:57:39Z</time><pdop>11.0</pdop><geoidheight>50.00</geoidheight><course>93.4</course><type>1</type></trkpt>
      <trkpt lat="38.44644276" lon="-2.00948991"><ele>1883</ele><speed>15.21</speed><time>2016-06-02T13:57:41Z</time><pdop>10.0</pdop><geoidheight>50.00</geoidheight><course>92.8</course><type>1</type></trkpt>
      <trkpt lat="38.44641373" lon="-2.00910695"><ele>1879</ele><speed>15.69</speed><time>2016-06-02T13:57:43Z</time><pdop>10.0</pdop><geoidheight>50.00</geoidheight><course>95.0</course><type>1</type></trkpt>
      <trkpt lat="38.44638116" lon="-2.00876258"><ele>1876</ele><speed>15.42</speed><time>2016-06-02T13:57:45Z</time><pdop>10.0</pdop><geoidheight>50.00</geoidheight><course>97.3</course><type>1</type></trkpt>
      <trkpt lat="38.44637009" lon="-2.00843862"><ele>1873</ele><speed>14.71</speed><time>2016-06-02T13:57:47Z</time><pdop>9.0</pdop><geoidheight>50.00</geoidheight><course>97.4</course><type>1</type></trkpt>
      <trkpt lat="38.44633532" lon="-2.00812033"><ele>1873</ele><speed>14.32</speed><time>2016-06-02T13:57:49Z</time><pdop>9.0</pdop><geoidheight>50.00</geoidheight><course>96.5</course><type>1</type></trkpt>
      <trkpt lat="38.44633114" lon="-2.0078423"><ele>1876</ele><speed>11.49</speed><time>2016-06-02T13:57:51Z</time><pdop>9.0</pdop><geoidheight>50.00</geoidheight><course>90.5</course><type>1</type></trkpt>
      <trkpt lat="38.44628872" lon="-2.00752198"><ele>1872</ele><speed>10.51</speed><time>2016-06-02T13:57:54Z</time><pdop>9.0</pdop><geoidheight>50.00</geoidheight><course>102.2</course><type>1</type></trkpt>
      <trkpt lat="38.44624793" lon="-2.00725206"><ele>1869</ele><speed>11.83</speed><time>2016-06-02T13:57:56Z</time><pdop>10.0</pdop><geoidheight>50.00</geoidheight><course>100.2</course><type>1</type></trkpt>
      <trkpt lat="38.44619192" lon="-2.00692863"><ele>1868</ele><speed>12.98</speed><time>2016-06-02T13:57:58Z</time><pdop>9.0</pdop><geoidheight>50.00</geoidheight><course>103.3</course><type>1</type></trkpt>
      <trkpt lat="38.4461234" lon="-2.00666276"><ele>1869</ele><speed>11.95</speed><time>2016-06-02T13:58:00Z</time><pdop>9.0</pdop><geoidheight>50.00</geoidheight><course>107.4</course><type>1</type></trkpt>
      <trkpt lat="38.44606202" lon="-2.00638256"><ele>1867</ele><speed>12.79</speed><time>2016-06-02T13:58:02Z</time><pdop>9.0</pdop><geoidheight>50.00</geoidheight><course>104.5</course><type>1</type></trkpt>
      <trkpt lat="38.44603266" lon="-2.00609308"><ele>1864</ele><speed>12.80</speed><time>2016-06-02T13:58:04Z</time><pdop>10.0</pdop><geoidheight>50.00</geoidheight><course>98.7</course><type>1</type></trkpt>
      <trkpt lat="38.44603205" lon="-2.00582099"><ele>1862</ele><speed>12.91</speed><time>2016-06-02T13:58:06Z</time><pdop>9.0</pdop><geoidheight>50.00</geoidheight><course>92.7</course><type>1</type></trkpt>
      <trkpt lat="38.44602265" lon="-2.00552338"><ele>1860</ele><speed>12.81</speed><time>2016-06-02T13:58:08Z</time><pdop>9.0</pdop><geoidheight>50.00</geoidheight><course>93.9</course><type>1</type></trkpt>
      <trkpt lat="38.44600624" lon="-2.00520711"><ele>1858</ele><speed>13.80</speed><time>2016-06-02T13:58:10Z</time><pdop>10.0</pdop><geoidheight>50.00</geoidheight><course>95.2</course><type>1</type></trkpt>
      <trkpt lat="38.44599213" lon="-2.00490526"><ele>1854</ele><speed>13.88</speed><time>2016-06-02T13:58:12Z</time><pdop>10.0</pdop><geoidheight>50.00</geoidheight><course>93.4</course><type>1</type></trkpt>
      <trkpt lat="38.44598977" lon="-2.00460808"><ele>1849</ele><speed>13.10</speed><time>2016-06-02T13:58:14Z</time><pdop>10.0</pdop><geoidheight>50.00</geoidheight><course>89.4</course><type>1</type></trkpt>
      <trkpt lat="38.4459501" lon="-2.00431404"><ele>1843</ele><speed>13.32</speed><time>2016-06-02T13:58:16Z</time><pdop>10.0</pdop><geoidheight>50.00</geoidheight><course>97.1</course><type>1</type></trkpt>
      <trkpt lat="38.44595682" lon="-2.00402114"><ele>1839</ele><speed>13.26</speed><time>2016-06-02T13:58:18Z</time><pdop>11.0</pdop><geoidheight>50.00</geoidheight><course>92.8</course><type>1</type></trkpt>
      <trkpt lat="38.44590113" lon="-2.00370013"><ele>1837</ele><speed>14.10</speed><time>2016-06-02T13:58:20Z</time><pdop>13.0</pdop><geoidheight>50.00</geoidheight><course>97.9</course><type>1</type></trkpt>
      <trkpt lat="38.44584033" lon="-2.00327903"><ele>1834</ele><speed>16.66</speed><time>2016-06-02T13:58:22Z</time><pdop>11.0</pdop><geoidheight>50.00</geoidheight><course>100.8</course><type>1</type></trkpt>
      <trkpt lat="38.4458091" lon="-2.00297715"><ele>1832</ele><speed>13.74</speed><time>2016-06-02T13:58:24Z</time><pdop>10.0</pdop><geoidheight>50.00</geoidheight><course>100.8</course><type>1</type></trkpt>
      <trkpt lat="38.44577933" lon="-2.00266456"><ele>1829</ele><speed>13.88</speed><time>2016-06-02T13:58:26Z</time><pdop>11.0</pdop><geoidheight>50.00</geoidheight><course>101.3</course><type>1</type></trkpt>
      <trkpt lat="38.44569821" lon="-2.00235782"><ele>1826</ele><speed>14.87</speed><time>2016-06-02T13:58:28Z</time><pdop>12.0</pdop><geoidheight>50.00</geoidheight><course>104.1</course><type>1</type></trkpt>
      <trkpt lat="38.44565904" lon="-2.00197281"><ele>1820</ele><speed>15.53</speed><time>2016-06-02T13:58:30Z</time><pdop>10.0</pdop><geoidheight>50.00</geoidheight><course>95.5</course><type>1</type></trkpt>
      <trkpt lat="38.44566115" lon="-2.00161921"><ele>1814</ele><speed>15.14</speed><time>2016-06-02T13:58:32Z</time><pdop>10.0</pdop><geoidheight>50.00</geoidheight><course>92.4</course><type>1</type></trkpt>
      <trkpt lat="38.44565541" lon="-2.00124789"><ele>1810</ele><speed>16.06</speed><time>2016-06-02T13:58:34Z</time><pdop>12.0</pdop><geoidheight>50.00</geoidheight><course>92.0</course><type>1</type></trkpt>
      <trkpt lat="38.44566572" lon="-2.00088702"><ele>1806</ele><speed>15.94</speed><time>2016-06-02T13:58:36Z</time><pdop>13.0</pdop><geoidheight>50.00</geoidheight><course>91.6</course><type>1</type></trkpt>
      <trkpt lat="38.44565484" lon="-2.00051029"><ele>1804</ele><speed>16.24</speed><time>2016-06-02T13:58:38Z</time><pdop>11.0</pdop><geoidheight>50.00</geoidheight><course>93.3</course><type>1</type></trkpt>
      <trkpt lat="38.44568907" lon="-2.0001463"><ele>1802</ele><speed>15.53</speed><time>2016-06-02T13:58:40Z</time><pdop>13.0</pdop><geoidheight>50.00</geoidheight><course>87.4</course><type>1</type></trkpt>
      <trkpt lat="38.44569818" lon="-1.99985777"><ele>1799</ele><speed>13.98</speed><time>2016-06-02T13:58:42Z</time><pdop>12.0</pdop><geoidheight>50.00</geoidheight><course>87.6</course><type>1</type></trkpt>
      <trkpt lat="38.44569799" lon="-1.99952216"><ele>1794</ele><speed>14.63</speed><time>2016-06-02T13:58:44Z</time><pdop>11.0</pdop><geoidheight>50.00</geoidheight><course>84.7</course><type>1</type></trkpt>
      <trkpt lat="38.44570464" lon="-1.99920679"><ele>1788</ele><speed>13.66</speed><time>2016-06-02T13:58:46Z</time><pdop>11.0</pdop><geoidheight>50.00</geoidheight><course>89.0</course><type>1</type></trkpt>
      <trkpt lat="38.44569923" lon="-1.99890707"><ele>1781</ele><speed>13.52</speed><time>2016-06-02T13:58:48Z</time><pdop>10.0</pdop><geoidheight>50.00</geoidheight><course>91.1</course><type>1</type></trkpt>
      <trkpt lat="38.44571404" lon="-1.99857134"><ele>1774</ele><speed>14.56</speed><time>2016-06-02T13:58:50Z</time><pdop>10.0</pdop><geoidheight>50.00</geoidheight><course>87.1</course><type>1</type></trkpt>
      <trkpt lat="38.44572598" lon="-1.99825273"><ele>1769</ele><speed>13.69</speed><time>2016-06-02T13:58:52Z</time><pdop>11.0</pdop><geoidheight>50.00</geoidheight><course>88.3</course><type>1</type></trkpt>
      <trkpt lat="38.4457347" lon="-1.99796197"><ele>1762</ele><speed>13.17</speed><time>2016-06-02T13:58:54Z</time><pdop>11.0</pdop><geoidheight>50.00</geoidheight><course>90.6</course><type>1</type></trkpt>
      <trkpt lat="38.44573544" lon="-1.99761216"><ele>1760</ele><speed>15.43</speed><time>2016-06-02T13:58:56Z</time><pdop>10.0</pdop><geoidheight>50.00</geoidheight><course>91.9</course><type>1</type></trkpt>
      <trkpt lat="38.44571026" lon="-1.99722794"><ele>1755</ele><speed>16.59</speed><time>2016-06-02T13:58:58Z</time><pdop>10.0</pdop><geoidheight>50.00</geoidheight><course>95.3</course><type>1</type></trkpt>
      <trkpt lat="38.44572328" lon="-1.99691777"><ele>1754</ele><speed>13.81</speed><time>2016-06-02T13:59:00Z</time><pdop>9.0</pdop><geoidheight>50.00</geoidheight><course>90.4</course><type>1</type></trkpt>
      <trkpt lat="38.44570539" lon="-1.99662171"><ele>1752</ele><speed>12.95</speed><time>2016-06-02T13:59:02Z</time><pdop>10.0</pdop><geoidheight>50.00</geoidheight><course>91.6</course><type>1</type></trkpt>
      <trkpt lat="38.44567564" lon="-1.99627735"><ele>1746</ele><speed>15.74</speed><time>2016-06-02T13:59:04Z</time><pdop>10.0</pdop><geoidheight>50.00</geoidheight><course>96.8</course><type>1</type></trkpt>
      <trkpt lat="38.44565907" lon="-1.99590751"><ele>1741</ele><speed>16.38</speed><time>2016-06-02T13:59:06Z</time><pdop>10.0</pdop><geoidheight>50.00</geoidheight><course>94.7</course><type>1</type></trkpt>
      <trkpt lat="38.44565465" lon="-1.995572"><ele>1739</ele><speed>14.13</speed><time>2016-06-02T13:59:08Z</time><pdop>9.0</pdop><geoidheight>50.00</geoidheight><course>90.7</course><type>1</type></trkpt>
      <trkpt lat="38.44561679" lon="-1.99529961"><ele>1733</ele><speed>12.46</speed><time>2016-06-02T13:59:10Z</time><pdop>9.0</pdop><geoidheight>50.00</geoidheight><course>101.3</course><type>1</type></trkpt>
      <trkpt lat="38.44557299" lon="-1.994983"><ele>1729</ele><speed>13.71</speed><time>2016-06-02T13:59:12Z</time><pdop>10.0</pdop><geoidheight>50.00</geoidheight><course>100.4</course><type>1</type></trkpt>
      <trkpt lat="38.44552103" lon="-1.99467095"><ele>1725</ele><speed>15.24</speed><time>2016-06-02T13:59:14Z</time><pdop>11.0</pdop><geoidheight>50.00</geoidheight><course>100.9</course><type>1</type></trkpt>
      <trkpt lat="38.44553376" lon="-1.99433886"><ele>1760</ele><speed>14.11</speed><time>2016-06-02T13:59:16Z</time><pdop>10.0</pdop><geoidheight>50.00</geoidheight><course>95.1</course><type>1</type></trkpt>
      <trkpt lat="38.44551631" lon="-1.99403145"><ele>1746</ele><speed>13.48</speed><time>2016-06-02T13:59:18Z</time><pdop>10.0</pdop><geoidheight>50.00</geoidheight><course>96.7</course><type>1</type></trkpt>
      <trkpt lat="38.44547927" lon="-1.99371073"><ele>1735</ele><speed>14.52</speed><time>2016-06-02T13:59:20Z</time><pdop>10.0</pdop><geoidheight>50.00</geoidheight><course>97.9</course><type>1</type></trkpt>
      <trkpt lat="38.44545454" lon="-1.99337932"><ele>1728</ele><speed>15.00</speed><time>2016-06-02T13:59:22Z</time><pdop>11.0</pdop><geoidheight>50.00</geoidheight><course>97.2</course><type>1</type></trkpt>
      <trkpt lat="38.44544509" lon="-1.99305238"><ele>1722</ele><speed>14.60</speed><time>2016-06-02T13:59:24Z</time><pdop>10.0</pdop><geoidheight>50.00</geoidheight><course>96.2</course><type>1</type></trkpt>
      <trkpt lat="38.44544264" lon="-1.99273281"><ele>1713</ele><speed>14.16</speed><time>2016-06-02T13:59:26Z</time><pdop>10.0</pdop><geoidheight>50.00</geoidheight><course>94.8</course><type>1</type></trkpt>
      <trkpt lat="38.4454293" lon="-1.9923844"><ele>1707</ele><speed>15.05</speed><time>2016-06-02T13:59:28Z</time><pdop>10.0</pdop><geoidheight>50.00</geoidheight><course>96.0</course><type>1</type></trkpt>
      <trkpt lat="38.44537535" lon="-1.99205538"><ele>1703</ele><speed>15.58</speed><time>2016-06-02T13:59:30Z</time><pdop>11.0</pdop><geoidheight>50.00</geoidheight><course>99.4</course><type>1</type></trkpt>
      <trkpt lat="38.44537291" lon="-1.99172519"><ele>1697</ele><speed>15.10</speed><time>2016-06-02T13:59:32Z</time><pdop>10.0</pdop><geoidheight>50.00</geoidheight><course>97.6</course><type>1</type></trkpt>
      <trkpt lat="38.44533014" lon="-1.99141365"><ele>1691</ele><speed>14.69</speed><time>2016-06-02T13:59:34Z</time><pdop>10.0</pdop><geoidheight>50.00</geoidheight><course>101.3</course><type>1</type></trkpt>
      <trkpt lat="38.44531562" lon="-1.99109915"><ele>1686</ele><speed>13.21</speed><time>2016-06-02T13:59:36Z</time><pdop>9.0</pdop><geoidheight>50.00</geoidheight><course>93.0</course><type>1</type></trkpt>
      <trkpt lat="38.44531309" lon="-1.99079377"><ele>1682</ele><speed>13.94</speed><time>2016-06-02T13:59:38Z</time><pdop>10.0</pdop><geoidheight>50.00</geoidheight><course>94.9</course><type>1</type></trkpt>
      <trkpt lat="38.44527914" lon="-1.99045451"><ele>1679</ele><speed>15.56</speed><time>2016-06-02T13:59:40Z</time><pdop>10.0</pdop><geoidheight>50.00</geoidheight><course>94.3</course><type>1</type></trkpt>
      <trkpt lat="38.44525271" lon="-1.99013196"><ele>1676</ele><speed>14.58</speed><time>2016-06-02T13:59:42Z</time><pdop>10.0</pdop><geoidheight>50.00</geoidheight><course>93.3</course><type>1</type></trkpt>
      <trkpt lat="38.44527916" lon="-1.98982505"><ele>1671</ele><speed>13.60</speed><time>2016-06-02T13:59:44Z</time><pdop>10.0</pdop><geoidheight>50.00</geoidheight><course>90.9</course><type>1</type></trkpt>
      <trkpt lat="38.44528737" lon="-1.98952338"><ele>1665</ele><speed>13.88</speed><time>2016-06-02T13:59:46Z</time><pdop>11.0</pdop><geoidheight>50.00</geoidheight><course>91.3</course><type>1</type></trkpt>
      <trkpt lat="38.44532854" lon="-1.98918397"><ele>1663</ele><speed>14.65</speed><time>2016-06-02T13:59:48Z</time><pdop>10.0</pdop><geoidheight>50.00</geoidheight><course>87.5</course><type>1</type></trkpt>
      <trkpt lat="38.44532246" lon="-1.98887817"><ele>1659</ele><speed>13.30</speed><time>2016-06-02T13:59:50Z</time><pdop>10.0</pdop><geoidheight>50.00</geoidheight><course>88.9</course><type>1</type></trkpt>
      <trkpt lat="38.44531742" lon="-1.98859497"><ele>1792</ele><speed>12.62</speed><time>2016-06-02T13:59:52Z</time><pdop>10.0</pdop><geoidheight>50.00</geoidheight><course>90.6</course><type>1</type></trkpt>
      <trkpt lat="38.44532605" lon="-1.98826709"><ele>1734</ele><speed>14.34</speed><time>2016-06-02T13:59:54Z</time><pdop>10.0</pdop><geoidheight>50.00</geoidheight><course>90.8</course><type>1</type></trkpt>
      <trkpt lat="38.44534675" lon="-1.98796476"><ele>1704</ele><speed>13.92</speed><time>2016-06-02T13:59:56Z</time><pdop>10.0</pdop><geoidheight>50.00</geoidheight><course>91.8</course><type>1</type></trkpt>
      <trkpt lat="38.4453219" lon="-1.98765687"><ele>1679</ele><speed>13.49</speed><time>2016-06-02T13:59:58Z</time><pdop>10.0</pdop><geoidheight>50.00</geoidheight><course>93.9</course><type>1</type></trkpt>
      <trkpt lat="38.44532922" lon="-1.98735671"><ele>1673</ele><speed>12.67</speed><time>2016-06-02T14:00:00Z</time><pdop>11.0</pdop><geoidheight>50.00</geoidheight><course>89.8</course><type>1</type></trkpt>
      <trkpt lat="38.44533323" lon="-1.98708622"><ele>1655</ele><speed>12.77</speed><time>2016-06-02T14:00:02Z</time><pdop>10.0</pdop><geoidheight>50.00</geoidheight><course>92.4</course><type>1</type></trkpt>
      <trkpt lat="38.44531592" lon="-1.986779"><ele>1644</ele><speed>13.11</speed><time>2016-06-02T14:00:04Z</time><pdop>10.0</pdop><geoidheight>50.00</geoidheight><course>94.5</course><type>1</type></trkpt>
      <trkpt lat="38.44533624" lon="-1.98647278"><ele>1637</ele><speed>12.94</speed><time>2016-06-02T14:00:06Z</time><pdop>10.0</pdop><geoidheight>50.00</geoidheight><course>90.3</course><type>1</type></trkpt>
      <trkpt lat="38.44539312" lon="-1.98618369"><ele>1639</ele><speed>12.62</speed><time>2016-06-02T14:00:08Z</time><pdop>11.0</pdop><geoidheight>50.00</geoidheight><course>84.2</course><type>1</type></trkpt>
      <trkpt lat="38.44537177" lon="-1.98590978"><ele>1636</ele><speed>11.98</speed><time>2016-06-02T14:00:10Z</time><pdop>10.0</pdop><geoidheight>50.00</geoidheight><course>89.2</course><type>1</type></trkpt>
      <trkpt lat="38.44537567" lon="-1.98564973"><ele>1631</ele><speed>12.21</speed><time>2016-06-02T14:00:12Z</time><pdop>9.0</pdop><geoidheight>50.00</geoidheight><course>88.8</course><type>1</type></trkpt>
      <trkpt lat="38.44536066" lon="-1.98537493"><ele>1621</ele><speed>12.14</speed><time>2016-06-02T14:00:14Z</time><pdop>9.0</pdop><geoidheight>50.00</geoidheight><course>95.1</course><type>1</type></trkpt>
      <trkpt lat="38.44533857" lon="-1.98509445"><ele>1615</ele><speed>12.18</speed><time>2016-06-02T14:00:16Z</time><pdop>9.0</pdop><geoidheight>50.00</geoidheight><course>97.3</course><type>1</type></trkpt>
      <trkpt lat="38.44531953" lon="-1.98481578"><ele>1614</ele><speed>12.28</speed><time>2016-06-02T14:00:18Z</time><pdop>10.0</pdop><geoidheight>50.00</geoidheight><course>96.3</course><type>1</type></trkpt>
      <trkpt lat="38.44531809" lon="-1.98454159"><ele>1612</ele><speed>12.22</speed><time>2016-06-02T14:00:20Z</time><pdop>11.0</pdop><geoidheight>50.00</geoidheight><course>93.4</course><type>1</type></trkpt>
      <trkpt lat="38.44526148" lon="-1.98419605"><ele>1610</ele><speed>13.43</speed><time>2016-06-02T14:00:22Z</time><pdop>10.0</pdop><geoidheight>50.00</geoidheight><course>99.8</course><type>1</type></trkpt>
      <trkpt lat="38.4452254" lon="-1.98396198"><ele>1609</ele><speed>11.96</speed><time>2016-06-02T14:00:24Z</time><pdop>10.0</pdop><geoidheight>50.00</geoidheight><course>100.9</course><type>1</type></trkpt>
      <trkpt lat="38.44516142" lon="-1.9836514"><ele>1607</ele><speed>13.22</speed><time>2016-06-02T14:00:26Z</time><pdop>11.0</pdop><geoidheight>50.00</geoidheight><course>101.6</course><type>1</type></trkpt>
      <trkpt lat="38.44508566" lon="-1.98336758"><ele>1603</ele><speed>13.32</speed><time>2016-06-02T14:00:28Z</time><pdop>11.0</pdop><geoidheight>50.00</geoidheight><course>105.6</course><type>1</type></trkpt>
      <trkpt lat="38.44495853" lon="-1.98304059"><ele>1596</ele><speed>11.38</speed><time>2016-06-02T14:00:31Z</time><pdop>11.0</pdop><geoidheight>50.00</geoidheight><course>111.0</course><type>1</type></trkpt>
      <trkpt lat="38.44496052" lon="-1.98277097"><ele>1592</ele><speed>11.70</speed><time>2016-06-02T14:00:33Z</time><pdop>9.0</pdop><geoidheight>50.00</geoidheight><course>95.3</course><type>1</type></trkpt>
      <trkpt lat="38.44493227" lon="-1.98252738"><ele>1591</ele><speed>10.21</speed><time>2016-06-02T14:00:35Z</time><pdop>9.0</pdop><geoidheight>50.00</geoidheight><course>101.0</course><type>1</type></trkpt>
      <trkpt lat="38.44482826" lon="-1.98234252"><ele>1590</ele><speed>10.01</speed><time>2016-06-02T14:00:37Z</time><pdop>9.0</pdop><geoidheight>50.00</geoidheight><course>131.5</course><type>1</type></trkpt>
      <trkpt lat="38.44468135" lon="-1.98223187"><ele>1586</ele><speed>9.42</speed><time>2016-06-02T14:00:39Z</time><pdop>9.0</pdop><geoidheight>50.00</geoidheight><course>154.4</course><type>1</type></trkpt>
      <trkpt lat="38.44449979" lon="-1.98229359"><ele>1586</ele><speed>9.25</speed><time>2016-06-02T14:00:41Z</time><pdop>9.0</pdop><geoidheight>50.00</geoidheight><course>198.4</course><type>1</type></trkpt>
      <trkpt lat="38.44438164" lon="-1.98249151"><ele>1585</ele><speed>10.35</speed><time>2016-06-02T14:00:43Z</time><pdop>9.0</pdop><geoidheight>50.00</geoidheight><course>234.5</course><type>1</type></trkpt>
      <trkpt lat="38.44437743" lon="-1.98271017"><ele>1586</ele><speed>9.00</speed><time>2016-06-02T14:00:45Z</time><pdop>9.0</pdop><geoidheight>50.00</geoidheight><course>267.6</course><type>1</type></trkpt>
      <trkpt lat="38.44451506" lon="-1.98296158"><ele>1583</ele><speed>9.21</speed><time>2016-06-02T14:00:48Z</time><pdop>9.0</pdop><geoidheight>50.00</geoidheight><course>312.2</course><type>1</type></trkpt>
      <trkpt lat="38.4448016" lon="-1.98292453"><ele>1582</ele><speed>10.94</speed><time>2016-06-02T14:00:51Z</time><pdop>9.0</pdop><geoidheight>50.00</geoidheight><course>13.0</course><type>1</type></trkpt>
      <trkpt lat="38.44493246" lon="-1.98275744"><ele>1581</ele><speed>9.21</speed><time>2016-06-02T14:00:53Z</time><pdop>10.0</pdop><geoidheight>50.00</geoidheight><course>39.1</course><type>1</type></trkpt>
      <trkpt lat="38.44498724" lon="-1.98239971"><ele>1582</ele><speed>9.68</speed><time>2016-06-02T14:00:56Z</time><pdop>10.0</pdop><geoidheight>50.00</geoidheight><course>79.8</course><type>1</type></trkpt>
      <trkpt lat="38.44493005" lon="-1.98211765"><ele>1582</ele><speed>10.30</speed><time>2016-06-02T14:00:58Z</time><pdop>10.0</pdop><geoidheight>50.00</geoidheight><course>98.2</course><type>1</type></trkpt>
      <trkpt lat="38.44487809" lon="-1.98186164"><ele>1582</ele><speed>10.56</speed><time>2016-06-02T14:01:00Z</time><pdop>9.0</pdop><geoidheight>50.00</geoidheight><course>104.5</course><type>1</type></trkpt>
      <trkpt lat="38.44481246" lon="-1.98159857"><ele>1584</ele><speed>11.06</speed><time>2016-06-02T14:01:02Z</time><pdop>9.0</pdop><geoidheight>50.00</geoidheight><course>107.6</course><type>1</type></trkpt>
      <trkpt lat="38.44477104" lon="-1.98139203"><ele>1862</ele><speed>9.07</speed><time>2016-06-02T14:01:04Z</time><pdop>9.0</pdop><geoidheight>50.00</geoidheight><course>106.2</course><type>1</type></trkpt>
      <trkpt lat="38.44466074" lon="-1.98115684"><ele>1740</ele><speed>8.01</speed><time>2016-06-02T14:01:07Z</time><pdop>10.0</pdop><geoidheight>50.00</geoidheight><course>128.3</course><type>1</type></trkpt>
      <trkpt lat="38.44443513" lon="-1.98111499"><ele>1651</ele><speed>7.95</speed><time>2016-06-02T14:01:10Z</time><pdop>10.0</pdop><geoidheight>50.00</geoidheight><course>167.1</course><type>1</type></trkpt>
      <trkpt lat="38.4442805" lon="-1.98101867"><ele>1625</ele><speed>5.60</speed><time>2016-06-02T14:01:14Z</time><pdop>9.0</pdop><geoidheight>50.00</geoidheight><course>150.9</course><type>1</type></trkpt>
      <trkpt lat="38.44409048" lon="-1.98080643"><ele>1612</ele><speed>9.50</speed><time>2016-06-02T14:01:17Z</time><pdop>9.0</pdop><geoidheight>50.00</geoidheight><course>135.5</course><type>1</type></trkpt>
      <trkpt lat="38.44392285" lon="-1.98061503"><ele>1604</ele><speed>7.52</speed><time>2016-06-02T14:01:20Z</time><pdop>9.0</pdop><geoidheight>50.00</geoidheight><course>136.8</course><type>1</type></trkpt>
      <trkpt lat="38.44373056" lon="-1.98046814"><ele>1598</ele><speed>8.59</speed><time>2016-06-02T14:01:23Z</time><pdop>9.0</pdop><geoidheight>50.00</geoidheight><course>151.5</course><type>1</type></trkpt>
      <trkpt lat="38.44353873" lon="-1.98034778"><ele>1589</ele><speed>8.07</speed><time>2016-06-02T14:01:26Z</time><pdop>10.0</pdop><geoidheight>50.00</geoidheight><course>154.1</course><type>1</type></trkpt>
      <trkpt lat="38.44334086" lon="-1.98018"><ele>1587</ele><speed>8.18</speed><time>2016-06-02T14:01:29Z</time><pdop>9.0</pdop><geoidheight>50.00</geoidheight><course>152.8</course><type>1</type></trkpt>
      <trkpt lat="38.44317014" lon="-1.9801555"><ele>1588</ele><speed>6.42</speed><time>2016-06-02T14:01:32Z</time><pdop>10.0</pdop><geoidheight>50.00</geoidheight><course>180.9</course><type>1</type></trkpt>
      <trkpt lat="38.44301755" lon="-1.98046688"><ele>1584</ele><speed>11.22</speed><time>2016-06-02T14:01:35Z</time><pdop>9.0</pdop><geoidheight>50.00</geoidheight><course>244.0</course><type>1</type></trkpt>
      <trkpt lat="38.44300892" lon="-1.9806133"><ele>1582</ele><speed>10.42</speed><time>2016-06-02T14:01:36Z</time><pdop>3.0</pdop><geoidheight>50.00</geoidheight><course>267.2</course><type>1</type></trkpt>
      <trkpt lat="38.44301974" lon="-1.98071824"><ele>1583</ele><speed>10.04</speed><time>2016-06-02T14:01:37Z</time><pdop>3.0</pdop><geoidheight>50.00</geoidheight><course>276.1</course><type>1</type></trkpt>
      <trkpt lat="38.44302892" lon="-1.9808507"><ele>1583</ele><speed>10.62</speed><time>2016-06-02T14:01:38Z</time><pdop>4.0</pdop><geoidheight>50.00</geoidheight><course>276.0</course><type>1</type></trkpt>
      <trkpt lat="38.44320003" lon="-1.9809163"><ele>1580</ele><speed>7.78</speed><time>2016-06-02T14:01:40Z</time><pdop>5.0</pdop><geoidheight>50.00</geoidheight><course>323.8</course><type>1</type></trkpt>
      <trkpt lat="38.44332175" lon="-1.98089184"><ele>1581</ele><speed>8.40</speed><time>2016-06-02T14:01:41Z</time><pdop>6.0</pdop><geoidheight>50.00</geoidheight><course>355.5</course><type>1</type></trkpt>
      <trkpt lat="38.44344713" lon="-1.98084198"><ele>1579</ele><speed>10.05</speed><time>2016-06-02T14:01:42Z</time><pdop>5.0</pdop><geoidheight>50.00</geoidheight><course>9.5</course><type>1</type></trkpt>
      <trkpt lat="38.44358662" lon="-1.98067716"><ele>1579</ele><speed>8.74</speed><time>2016-06-02T14:01:44Z</time><pdop>7.0</pdop><geoidheight>50.00</geoidheight><course>38.8</course><type>1</type></trkpt>
      <trkpt lat="38.44362171" lon="-1.98041501"><ele>1577</ele><speed>10.03</speed><time>2016-06-02T14:01:46Z</time><pdop>7.0</pdop><geoidheight>50.00</geoidheight><course>69.9</course><type>1</type></trkpt>
      <trkpt lat="38.44362581" lon="-1.98020542"><ele>1574</ele><speed>9.33</speed><time>2016-06-02T14:01:48Z</time><pdop>5.0</pdop><geoidheight>50.00</geoidheight><course>84.2</course><type>1</type></trkpt>
      <trkpt lat="38.44365619" lon="-1.97999944"><ele>1572</ele><speed>9.51</speed><time>2016-06-02T14:01:50Z</time><pdop>5.0</pdop><geoidheight>50.00</geoidheight><course>87.4</course><type>1</type></trkpt>
      <trkpt lat="38.44366162" lon="-1.9797521"><ele>1569</ele><speed>10.73</speed><time>2016-06-02T14:01:52Z</time><pdop>4.0</pdop><geoidheight>50.00</geoidheight><course>86.9</course><type>1</type></trkpt>
      <trkpt lat="38.44365659" lon="-1.97962023"><ele>1570</ele><speed>11.04</speed><time>2016-06-02T14:01:53Z</time><pdop>4.0</pdop><geoidheight>50.00</geoidheight><course>86.7</course><type>1</type></trkpt>
      <trkpt lat="38.44366475" lon="-1.97949229"><ele>1568</ele><speed>10.69</speed><time>2016-06-02T14:01:54Z</time><pdop>3.0</pdop><geoidheight>50.00</geoidheight><course>86.6</course><type>1</type></trkpt>
      <trkpt lat="38.4436678" lon="-1.97936219"><ele>1568</ele><speed>10.61</speed><time>2016-06-02T14:01:55Z</time><pdop>3.0</pdop><geoidheight>50.00</geoidheight><course>87.6</course><type>1</type></trkpt>
      <trkpt lat="38.44367375" lon="-1.97924095"><ele>1567</ele><speed>11.07</speed><time>2016-06-02T14:01:56Z</time><pdop>4.0</pdop><geoidheight>50.00</geoidheight><course>88.7</course><type>1</type></trkpt>
      <trkpt lat="38.44366245" lon="-1.97909321"><ele>1566</ele><speed>12.34</speed><time>2016-06-02T14:01:57Z</time><pdop>4.0</pdop><geoidheight>50.00</geoidheight><course>89.2</course><type>1</type></trkpt>
      <trkpt lat="38.44367047" lon="-1.97893916"><ele>1564</ele><speed>13.17</speed><time>2016-06-02T14:01:58Z</time><pdop>4.0</pdop><geoidheight>50.00</geoidheight><course>90.3</course><type>1</type></trkpt>
      <trkpt lat="38.44365859" lon="-1.97879353"><ele>1562</ele><speed>12.83</speed><time>2016-06-02T14:01:59Z</time><pdop>4.0</pdop><geoidheight>50.00</geoidheight><course>92.7</course><type>1</type></trkpt>
      <trkpt lat="38.44364619" lon="-1.97865376"><ele>1560</ele><speed>12.33</speed><time>2016-06-02T14:02:00Z</time><pdop>3.0</pdop><geoidheight>50.00</geoidheight><course>93.8</course><type>1</type></trkpt>
      <trkpt lat="38.44364167" lon="-1.978509"><ele>1559</ele><speed>12.26</speed><time>2016-06-02T14:02:01Z</time><pdop>3.0</pdop><geoidheight>50.00</geoidheight><course>94.0</course><type>1</type></trkpt>
      <trkpt lat="38.44362497" lon="-1.97836309"><ele>1556</ele><speed>13.18</speed><time>2016-06-02T14:02:02Z</time><pdop>4.0</pdop><geoidheight>50.00</geoidheight><course>96.8</course><type>1</type></trkpt>
      <trkpt lat="38.44360313" lon="-1.97820317"><ele>1555</ele><speed>13.88</speed><time>2016-06-02T14:02:03Z</time><pdop>5.0</pdop><geoidheight>50.00</geoidheight><course>97.8</course><type>1</type></trkpt>
      <trkpt lat="38.44361632" lon="-1.97804528"><ele>1553</ele><speed>14.42</speed><time>2016-06-02T14:02:04Z</time><pdop>6.0</pdop><geoidheight>50.00</geoidheight><course>93.5</course><type>1</type></trkpt>
      <trkpt lat="38.44357981" lon="-1.97788999"><ele>1553</ele><speed>14.42</speed><time>2016-06-02T14:02:05Z</time><pdop>7.0</pdop><geoidheight>50.00</geoidheight><course>97.9</course><type>1</type></trkpt>
      <trkpt lat="38.44355538" lon="-1.97754683"><ele>1550</ele><speed>15.62</speed><time>2016-06-02T14:02:07Z</time><pdop>5.0</pdop><geoidheight>50.00</geoidheight><course>100.3</course><type>1</type></trkpt>
      <trkpt lat="38.44352058" lon="-1.97739457"><ele>1550</ele><speed>13.99</speed><time>2016-06-02T14:02:08Z</time><pdop>4.0</pdop><geoidheight>50.00</geoidheight><course>105.3</course><type>1</type></trkpt>
      <trkpt lat="38.44348569" lon="-1.97725754"><ele>1548</ele><speed>12.20</speed><time>2016-06-02T14:02:09Z</time><pdop>4.0</pdop><geoidheight>50.00</geoidheight><course>106.9</course><type>1</type></trkpt>
      <trkpt lat="38.44345704" lon="-1.9771131"><ele>1546</ele><speed>11.52</speed><time>2016-06-02T14:02:10Z</time><pdop>4.0</pdop><geoidheight>50.00</geoidheight><course>104.7</course><type>1</type></trkpt>
      <trkpt lat="38.44341789" lon="-1.97698475"><ele>1546</ele><speed>11.51</speed><time>2016-06-02T14:02:11Z</time><pdop>5.0</pdop><geoidheight>50.00</geoidheight><course>106.0</course><type>1</type></trkpt>
      <trkpt lat="38.44334233" lon="-1.97674494"><ele>1543</ele><speed>11.72</speed><time>2016-06-02T14:02:13Z</time><pdop>7.0</pdop><geoidheight>50.00</geoidheight><course>108.4</course><type>1</type></trkpt>
      <trkpt lat="38.44334166" lon="-1.97655558"><ele>1542</ele><speed>13.35</speed><time>2016-06-02T14:02:14Z</time><pdop>7.0</pdop><geoidheight>50.00</geoidheight><course>100.3</course><type>1</type></trkpt>
      <trkpt lat="38.44332456" lon="-1.97630823"><ele>1537</ele><speed>12.88</speed><time>2016-06-02T14:02:16Z</time><pdop>6.0</pdop><geoidheight>50.00</geoidheight><course>98.5</course><type>1</type></trkpt>
      <trkpt lat="38.44329153" lon="-1.97601578"><ele>1534</ele><speed>13.28</speed><time>2016-06-02T14:02:18Z</time><pdop>7.0</pdop><geoidheight>50.00</geoidheight><course>97.6</course><type>1</type></trkpt>
      <trkpt lat="38.44331142" lon="-1.97584144"><ele>1533</ele><speed>13.66</speed><time>2016-06-02T14:02:19Z</time><pdop>8.0</pdop><geoidheight>50.00</geoidheight><course>93.6</course><type>1</type></trkpt>
      <trkpt lat="38.4432749" lon="-1.97565824"><ele>1532</ele><speed>15.09</speed><time>2016-06-02T14:02:20Z</time><pdop>8.0</pdop><geoidheight>50.00</geoidheight><course>98.4</course><type>1</type></trkpt>
      <trkpt lat="38.44330162" lon="-1.97532397"><ele>1528</ele><speed>15.13</speed><time>2016-06-02T14:02:22Z</time><pdop>7.0</pdop><geoidheight>50.00</geoidheight><course>96.7</course><type>1</type></trkpt>
      <trkpt lat="38.44329483" lon="-1.9751604"><ele>1527</ele><speed>14.88</speed><time>2016-06-02T14:02:23Z</time><pdop>6.0</pdop><geoidheight>50.00</geoidheight><course>95.2</course><type>1</type></trkpt>
      <trkpt lat="38.44330581" lon="-1.97501493"><ele>1524</ele><speed>14.13</speed><time>2016-06-02T14:02:24Z</time><pdop>6.0</pdop><geoidheight>50.00</geoidheight><course>94.0</course><type>1</type></trkpt>
      <trkpt lat="38.44331948" lon="-1.97487229"><ele>1524</ele><speed>13.14</speed><time>2016-06-02T14:02:25Z</time><pdop>5.0</pdop><geoidheight>50.00</geoidheight><course>91.7</course><type>1</type></trkpt>
      <trkpt lat="38.44332668" lon="-1.97473021"><ele>1524</ele><speed>12.53</speed><time>2016-06-02T14:02:26Z</time><pdop>5.0</pdop><geoidheight>50.00</geoidheight><course>87.0</course><type>1</type></trkpt>
      <trkpt lat="38.44334438" lon="-1.9745965"><ele>1523</ele><speed>11.91</speed><time>2016-06-02T14:02:27Z</time><pdop>4.0</pdop><geoidheight>50.00</geoidheight><course>81.4</course><type>1</type></trkpt>
      <trkpt lat="38.44336541" lon="-1.9744738"><ele>1521</ele><speed>11.63</speed><time>2016-06-02T14:02:28Z</time><pdop>5.0</pdop><geoidheight>50.00</geoidheight><course>77.5</course><type>1</type></trkpt>
      <trkpt lat="38.44338847" lon="-1.97434064"><ele>1518</ele><speed>12.02</speed><time>2016-06-02T14:02:29Z</time><pdop>5.0</pdop><geoidheight>50.00</geoidheight><course>76.9</course><type>1</type></trkpt>
      <trkpt lat="38.4434203" lon="-1.97420431"><ele>1516</ele><speed>12.39</speed><time>2016-06-02T14:02:30Z</time><pdop>6.0</pdop><geoidheight>50.00</geoidheight><course>76.9</course><type>1</type></trkpt>
      <trkpt lat="38.44346402" lon="-1.97389189"><ele>1513</ele><speed>13.80</speed><time>2016-06-02T14:02:32Z</time><pdop>9.0</pdop><geoidheight>50.00</geoidheight><course>78.9</course><type>1</type></trkpt>
      <trkpt lat="38.44346672" lon="-1.97356715"><ele>1511</ele><speed>13.65</speed><time>2016-06-02T14:02:34Z</time><pdop>6.0</pdop><geoidheight>50.00</geoidheight><course>90.7</course><type>1</type></trkpt>
      <trkpt lat="38.44344628" lon="-1.97344077"><ele>1510</ele><speed>11.80</speed><time>2016-06-02T14:02:35Z</time><pdop>4.0</pdop><geoidheight>50.00</geoidheight><course>95.6</course><type>1</type></trkpt>
      <trkpt lat="38.44343303" lon="-1.97331836"><ele>1510</ele><speed>10.73</speed><time>2016-06-02T14:02:36Z</time><pdop>4.0</pdop><geoidheight>50.00</geoidheight><course>96.6</course><type>1</type></trkpt>
      <trkpt lat="38.44342325" lon="-1.97319726"><ele>1509</ele><speed>10.74</speed><time>2016-06-02T14:02:37Z</time><pdop>4.0</pdop><geoidheight>50.00</geoidheight><course>94.2</course><type>1</type></trkpt>
      <trkpt lat="38.44337614" lon="-1.97291395"><ele>1505</ele><speed>12.18</speed><time>2016-06-02T14:02:39Z</time><pdop>9.0</pdop><geoidheight>50.00</geoidheight><course>101.4</course><type>1</type></trkpt>
      <trkpt lat="38.44334742" lon="-1.97263911"><ele>1503</ele><speed>12.19</speed><time>2016-06-02T14:02:41Z</time><pdop>9.0</pdop><geoidheight>50.00</geoidheight><course>101.1</course><type>1</type></trkpt>
      <trkpt lat="38.44333101" lon="-1.97238904"><ele>1501</ele><speed>10.64</speed><time>2016-06-02T14:02:43Z</time><pdop>9.0</pdop><geoidheight>50.00</geoidheight><course>93.8</course><type>1</type></trkpt>
      <trkpt lat="38.44331499" lon="-1.9721592"><ele>1499</ele><speed>10.72</speed><time>2016-06-02T14:02:45Z</time><pdop>9.0</pdop><geoidheight>50.00</geoidheight><course>95.9</course><type>1</type></trkpt>
      <trkpt lat="38.44328229" lon="-1.97189202"><ele>1494</ele><speed>11.79</speed><time>2016-06-02T14:02:47Z</time><pdop>9.0</pdop><geoidheight>50.00</geoidheight><course>96.6</course><type>1</type></trkpt>
      <trkpt lat="38.44326344" lon="-1.97166161"><ele>1491</ele><speed>10.94</speed><time>2016-06-02T14:02:49Z</time><pdop>10.0</pdop><geoidheight>50.00</geoidheight><course>98.2</course><type>1</type></trkpt>
      <trkpt lat="38.44322161" lon="-1.97140632"><ele>1488</ele><speed>11.71</speed><time>2016-06-02T14:02:51Z</time><pdop>10.0</pdop><geoidheight>50.00</geoidheight><course>99.8</course><type>1</type></trkpt>
      <trkpt lat="38.44316879" lon="-1.97114353"><ele>1482</ele><speed>12.66</speed><time>2016-06-02T14:02:53Z</time><pdop>9.0</pdop><geoidheight>50.00</geoidheight><course>104.6</course><type>1</type></trkpt>
      <trkpt lat="38.44310298" lon="-1.97090084"><ele>1481</ele><speed>11.01</speed><time>2016-06-02T14:02:55Z</time><pdop>10.0</pdop><geoidheight>50.00</geoidheight><course>108.2</course><type>1</type></trkpt>
      <trkpt lat="38.44301623" lon="-1.97060914"><ele>1475</ele><speed>9.42</speed><time>2016-06-02T14:02:58Z</time><pdop>10.0</pdop><geoidheight>50.00</geoidheight><course>108.4</course><type>1</type></trkpt>
      <trkpt lat="38.44307185" lon="-1.9703183"><ele>1469</ele><speed>9.98</speed><time>2016-06-02T14:03:01Z</time><pdop>11.0</pdop><geoidheight>50.00</geoidheight><course>77.2</course><type>1</type></trkpt>
      <trkpt lat="38.44314859" lon="-1.96993949"><ele>1463</ele><speed>12.79</speed><time>2016-06-02T14:03:04Z</time><pdop>10.0</pdop><geoidheight>50.00</geoidheight><course>75.9</course><type>1</type></trkpt>
      <trkpt lat="38.44313917" lon="-1.96963304"><ele>1457</ele><speed>12.78</speed><time>2016-06-02T14:03:06Z</time><pdop>10.0</pdop><geoidheight>50.00</geoidheight><course>87.9</course><type>1</type></trkpt>
      <trkpt lat="38.44312944" lon="-1.96934539"><ele>1455</ele><speed>12.02</speed><time>2016-06-02T14:03:08Z</time><pdop>11.0</pdop><geoidheight>50.00</geoidheight><course>97.4</course><type>1</type></trkpt>
      <trkpt lat="38.44306857" lon="-1.96901455"><ele>1453</ele><speed>10.10</speed><time>2016-06-02T14:03:11Z</time><pdop>11.0</pdop><geoidheight>50.00</geoidheight><course>99.6</course><type>1</type></trkpt>
      <trkpt lat="38.44307607" lon="-1.96869706"><ele>1448</ele><speed>10.56</speed><time>2016-06-02T14:03:14Z</time><pdop>10.0</pdop><geoidheight>50.00</geoidheight><course>88.4</course><type>1</type></trkpt>
      <trkpt lat="38.44307208" lon="-1.96844853"><ele>1445</ele><speed>11.65</speed><time>2016-06-02T14:03:16Z</time><pdop>10.0</pdop><geoidheight>50.00</geoidheight><course>91.9</course><type>1</type></trkpt>
      <trkpt lat="38.44299297" lon="-1.96814487"><ele>1443</ele><speed>10.45</speed><time>2016-06-02T14:03:19Z</time><pdop>10.0</pdop><geoidheight>50.00</geoidheight><course>110.4</course><type>1</type></trkpt>
      <trkpt lat="38.44291202" lon="-1.96792178"><ele>1440</ele><speed>10.05</speed><time>2016-06-02T14:03:21Z</time><pdop>11.0</pdop><geoidheight>50.00</geoidheight><course>112.6</course><type>1</type></trkpt>
      <trkpt lat="38.44287243" lon="-1.96763431"><ele>1437</ele><speed>7.78</speed><time>2016-06-02T14:03:25Z</time><pdop>11.0</pdop><geoidheight>50.00</geoidheight><course>99.1</course><type>1</type></trkpt>
      <trkpt lat="38.44286603" lon="-1.96730312"><ele>1435</ele><speed>9.45</speed><time>2016-06-02T14:03:28Z</time><pdop>11.0</pdop><geoidheight>50.00</geoidheight><course>92.4</course><type>1</type></trkpt>
      <trkpt lat="38.44285351" lon="-1.96699193"><ele>1434</ele><speed>8.87</speed><time>2016-06-02T14:03:31Z</time><pdop>10.0</pdop><geoidheight>50.00</geoidheight><course>88.3</course><type>1</type></trkpt>
      <trkpt lat="38.44283566" lon="-1.96675034"><ele>1432</ele><speed>10.72</speed><time>2016-06-02T14:03:33Z</time><pdop>10.0</pdop><geoidheight>50.00</geoidheight><course>94.8</course><type>1</type></trkpt>
      <trkpt lat="38.44277994" lon="-1.96652038"><ele>1428</ele><speed>9.98</speed><time>2016-06-02T14:03:35Z</time><pdop>10.0</pdop><geoidheight>50.00</geoidheight><course>102.6</course><type>1</type></trkpt>
      <trkpt lat="38.44272736" lon="-1.96625694"><ele>1427</ele><speed>8.60</speed><time>2016-06-02T14:03:38Z</time><pdop>11.0</pdop><geoidheight>50.00</geoidheight><course>101.5</course><type>1</type></trkpt>
      <trkpt lat="38.44263674" lon="-1.96600234"><ele>1428</ele><speed>10.94</speed><time>2016-06-02T14:03:40Z</time><pdop>12.0</pdop><geoidheight>50.00</geoidheight><course>107.6</course><type>1</type></trkpt>
      <trkpt lat="38.44261155" lon="-1.96570976"><ele>1424</ele><speed>12.13</speed><time>2016-06-02T14:03:42Z</time><pdop>12.0</pdop><geoidheight>50.00</geoidheight><course>102.0</course><type>1</type></trkpt>
      <trkpt lat="38.44258765" lon="-1.96539491"><ele>1419</ele><speed>9.77</speed><time>2016-06-02T14:03:45Z</time><pdop>10.0</pdop><geoidheight>50.00</geoidheight><course>96.6</course><type>1</type></trkpt>
      <trkpt lat="38.44257336" lon="-1.96515868"><ele>1414</ele><speed>10.84</speed><time>2016-06-02T14:03:47Z</time><pdop>10.0</pdop><geoidheight>50.00</geoidheight><course>97.1</course><type>1</type></trkpt>
      <trkpt lat="38.44255574" lon="-1.96492452"><ele>1410</ele><speed>10.90</speed><time>2016-06-02T14:03:49Z</time><pdop>10.0</pdop><geoidheight>50.00</geoidheight><course>96.2</course><type>1</type></trkpt>
      <trkpt lat="38.44253887" lon="-1.96469602"><ele>1409</ele><speed>9.83</speed><time>2016-06-02T14:03:51Z</time><pdop>9.0</pdop><geoidheight>50.00</geoidheight><course>93.9</course><type>1</type></trkpt>
      <trkpt lat="38.4425245" lon="-1.96439548"><ele>1405</ele><speed>9.13</speed><time>2016-06-02T14:03:54Z</time><pdop>10.0</pdop><geoidheight>50.00</geoidheight><course>91.2</course><type>1</type></trkpt>
      <trkpt lat="38.44254726" lon="-1.96416262"><ele>1403</ele><speed>9.62</speed><time>2016-06-02T14:03:56Z</time><pdop>9.0</pdop><geoidheight>50.00</geoidheight><course>87.3</course><type>1</type></trkpt>
      <trkpt lat="38.44254211" lon="-1.96388647"><ele>1399</ele><speed>8.84</speed><time>2016-06-02T14:03:59Z</time><pdop>10.0</pdop><geoidheight>50.00</geoidheight><course>93.8</course><type>1</type></trkpt>
      <trkpt lat="38.44255155" lon="-1.96354153"><ele>1398</ele><speed>10.62</speed><time>2016-06-02T14:04:02Z</time><pdop>10.0</pdop><geoidheight>50.00</geoidheight><course>86.9</course><type>1</type></trkpt>
      <trkpt lat="38.44255781" lon="-1.96330445"><ele>1397</ele><speed>10.09</speed><time>2016-06-02T14:04:04Z</time><pdop>9.0</pdop><geoidheight>50.00</geoidheight><course>95.0</course><type>1</type></trkpt>
      <trkpt lat="38.44252513" lon="-1.96306805"><ele>1397</ele><speed>9.42</speed><time>2016-06-02T14:04:06Z</time><pdop>10.0</pdop><geoidheight>50.00</geoidheight><course>102.0</course><type>1</type></trkpt>
      <trkpt lat="38.44251511" lon="-1.96274594"><ele>1394</ele><speed>8.35</speed><time>2016-06-02T14:04:10Z</time><pdop>10.0</pdop><geoidheight>50.00</geoidheight><course>81.6</course><type>1</type></trkpt>
      <trkpt lat="38.44256262" lon="-1.96252961"><ele>1392</ele><speed>6.71</speed><time>2016-06-02T14:04:13Z</time><pdop>9.0</pdop><geoidheight>50.00</geoidheight><course>74.2</course><type>1</type></trkpt>
      <trkpt lat="38.44258695" lon="-1.96222343"><ele>1392</ele><speed>9.23</speed><time>2016-06-02T14:04:16Z</time><pdop>9.0</pdop><geoidheight>50.00</geoidheight><course>84.5</course><type>1</type></trkpt>
      <trkpt lat="38.44255946" lon="-1.96196502"><ele>1392</ele><speed>8.08</speed><time>2016-06-02T14:04:19Z</time><pdop>9.0</pdop><geoidheight>50.00</geoidheight><course>103.9</course><type>1</type></trkpt>
      <trkpt lat="38.44253946" lon="-1.96168409"><ele>1394</ele><speed>7.71</speed><time>2016-06-02T14:04:22Z</time><pdop>10.0</pdop><geoidheight>50.00</geoidheight><course>93.2</course><type>1</type></trkpt>
      <trkpt lat="38.4424591" lon="-1.96144049"><ele>1395</ele><speed>6.20</speed><time>2016-06-02T14:04:26Z</time><pdop>9.0</pdop><geoidheight>50.00</geoidheight><course>102.6</course><type>1</type></trkpt>
      <trkpt lat="38.44239266" lon="-1.96124133"><ele>1396</ele><speed>4.42</speed><time>2016-06-02T14:04:30Z</time><pdop>9.0</pdop><geoidheight>50.00</geoidheight><course>131.6</course><type>1</type></trkpt>
      <trkpt lat="38.44220605" lon="-1.96140944"><ele>1398</ele><speed>8.58</speed><time>2016-06-02T14:04:34Z</time><pdop>9.0</pdop><geoidheight>50.00</geoidheight><course>229.3</course><type>1</type></trkpt>
      <trkpt lat="38.44216536" lon="-1.96164426"><ele>1397</ele><speed>10.83</speed><time>2016-06-02T14:04:36Z</time><pdop>9.0</pdop><geoidheight>50.00</geoidheight><course>264.5</course><type>1</type></trkpt>
      <trkpt lat="38.44224164" lon="-1.96189435"><ele>1399</ele><speed>13.34</speed><time>2016-06-02T14:04:38Z</time><pdop>9.0</pdop><geoidheight>50.00</geoidheight><course>295.9</course><type>1</type></trkpt>
      <trkpt lat="38.44243006" lon="-1.96210767"><ele>1402</ele><speed>14.02</speed><time>2016-06-02T14:04:40Z</time><pdop>9.0</pdop><geoidheight>50.00</geoidheight><course>326.4</course><type>1</type></trkpt>
      <trkpt lat="38.44268475" lon="-1.96218559"><ele>1404</ele><speed>14.11</speed><time>2016-06-02T14:04:42Z</time><pdop>9.0</pdop><geoidheight>50.00</geoidheight><course>350.5</course><type>1</type></trkpt>
      <trkpt lat="38.44292883" lon="-1.96211838"><ele>1408</ele><speed>13.58</speed><time>2016-06-02T14:04:44Z</time><pdop>9.0</pdop><geoidheight>50.00</geoidheight><course>10.6</course><type>1</type></trkpt>
      <trkpt lat="38.44308928" lon="-1.9620248"><ele>1410</ele><speed>9.77</speed><time>2016-06-02T14:04:46Z</time><pdop>10.0</pdop><geoidheight>50.00</geoidheight><course>24.1</course><type>1</type></trkpt>
      <trkpt lat="38.443147" lon="-1.96174376"><ele>1411</ele><speed>7.43</speed><time>2016-06-02T14:04:49Z</time><pdop>11.0</pdop><geoidheight>50.00</geoidheight><course>77.0</course><type>1</type></trkpt>
      <trkpt lat="38.44291531" lon="-1.96170425"><ele>1413</ele><speed>6.26</speed><time>2016-06-02T14:04:53Z</time><pdop>10.0</pdop><geoidheight>50.00</geoidheight><course>200.1</course><type>1</type></trkpt>
      <trkpt lat="38.44283254" lon="-1.96202037"><ele>1412</ele><speed>11.02</speed><time>2016-06-02T14:04:56Z</time><pdop>9.0</pdop><geoidheight>50.00</geoidheight><course>269.0</course><type>1</type></trkpt>
      <trkpt lat="38.44294374" lon="-1.96230523"><ele>1414</ele><speed>13.21</speed><time>2016-06-02T14:04:58Z</time><pdop>10.0</pdop><geoidheight>50.00</geoidheight><course>294.0</course><type>1</type></trkpt>
      <trkpt lat="38.44316969" lon="-1.96249991"><ele>1418</ele><speed>14.84</speed><time>2016-06-02T14:05:00Z</time><pdop>9.0</pdop><geoidheight>50.00</geoidheight><course>327.1</course><type>1</type></trkpt>
      <trkpt lat="38.44337607" lon="-1.96258676"><ele>1420</ele><speed>12.56</speed><time>2016-06-02T14:05:02Z</time><pdop>9.0</pdop><geoidheight>50.00</geoidheight><course>346.7</course><type>1</type></trkpt>
      <trkpt lat="38.4436152" lon="-1.96253454"><ele>1423</ele><speed>12.47</speed><time>2016-06-02T14:05:04Z</time><pdop>9.0</pdop><geoidheight>50.00</geoidheight><course>13.0</course><type>1</type></trkpt>
      <trkpt lat="38.44377969" lon="-1.96239773"><ele>1426</ele><speed>11.11</speed><time>2016-06-02T14:05:06Z</time><pdop>9.0</pdop><geoidheight>50.00</geoidheight><course>30.9</course><type>1</type></trkpt>
      <trkpt lat="38.44384302" lon="-1.96212828"><ele>1432</ele><speed>6.71</speed><time>2016-06-02T14:05:09Z</time><pdop>9.0</pdop><geoidheight>50.00</geoidheight><course>81.1</course><type>1</type></trkpt>
      <trkpt lat="38.44374386" lon="-1.96191653"><ele>1435</ele><speed>5.67</speed><time>2016-06-02T14:05:13Z</time><pdop>9.0</pdop><geoidheight>50.00</geoidheight><course>140.4</course><type>1</type></trkpt>
      <trkpt lat="38.44358299" lon="-1.96196036"><ele>1435</ele><speed>8.02</speed><time>2016-06-02T14:05:16Z</time><pdop>9.0</pdop><geoidheight>50.00</geoidheight><course>214.0</course><type>1</type></trkpt>
      <trkpt lat="38.44349144" lon="-1.96215348"><ele>1436</ele><speed>10.08</speed><time>2016-06-02T14:05:18Z</time><pdop>9.0</pdop><geoidheight>50.00</geoidheight><course>238.3</course><type>1</type></trkpt>
      <trkpt lat="38.44344504" lon="-1.96235614"><ele>1439</ele><speed>9.34</speed><time>2016-06-02T14:05:20Z</time><pdop>9.0</pdop><geoidheight>50.00</geoidheight><course>256.3</course><type>1</type></trkpt>
      <trkpt lat="38.44342362" lon="-1.96261239"><ele>1445</ele><speed>7.37</speed><time>2016-06-02T14:05:23Z</time><pdop>9.0</pdop><geoidheight>50.00</geoidheight><course>263.5</course><type>1</type></trkpt>
      <trkpt lat="38.44336705" lon="-1.96291154"><ele>1449</ele><speed>9.06</speed><time>2016-06-02T14:05:26Z</time><pdop>9.0</pdop><geoidheight>50.00</geoidheight><course>250.7</course><type>1</type></trkpt>
      <trkpt lat="38.44333927" lon="-1.96313679"><ele>1450</ele><speed>10.35</speed><time>2016-06-02T14:05:28Z</time><pdop>9.0</pdop><geoidheight>50.00</geoidheight><course>262.8</course><type>1</type></trkpt>
      <trkpt lat="38.44336257" lon="-1.96338092"><ele>1452</ele><speed>10.79</speed><time>2016-06-02T14:05:30Z</time><pdop>9.0</pdop><geoidheight>50.00</geoidheight><course>277.7</course><type>1</type></trkpt>
      <trkpt lat="38.44340536" lon="-1.96362414"><ele>1457</ele><speed>10.36</speed><time>2016-06-02T14:05:32Z</time><pdop>9.0</pdop><geoidheight>50.00</geoidheight><course>284.2</course><type>1</type></trkpt>
      <trkpt lat="38.44344712" lon="-1.96385367"><ele>1459</ele><speed>9.75</speed><time>2016-06-02T14:05:34Z</time><pdop>9.0</pdop><geoidheight>50.00</geoidheight><course>285.9</course><type>1</type></trkpt>
      <trkpt lat="38.44350429" lon="-1.96411286"><ele>1460</ele><speed>11.19</speed><time>2016-06-02T14:05:36Z</time><pdop>9.0</pdop><geoidheight>50.00</geoidheight><course>290.4</course><type>1</type></trkpt>
      <trkpt lat="38.44370788" lon="-1.96419972"><ele>1457</ele><speed>10.26</speed><time>2016-06-02T14:05:38Z</time><pdop>10.0</pdop><geoidheight>50.00</geoidheight><course>321.2</course><type>1</type></trkpt>
      <trkpt lat="38.44397618" lon="-1.96405217"><ele>1462</ele><speed>12.16</speed><time>2016-06-02T14:05:40Z</time><pdop>10.0</pdop><geoidheight>50.00</geoidheight><course>11.3</course><type>1</type></trkpt>
      <trkpt lat="38.44410665" lon="-1.96385263"><ele>1466</ele><speed>9.32</speed><time>2016-06-02T14:05:42Z</time><pdop>10.0</pdop><geoidheight>50.00</geoidheight><course>42.1</course><type>1</type></trkpt>
      <trkpt lat="38.44414538" lon="-1.96355753"><ele>1474</ele><speed>9.74</speed><time>2016-06-02T14:05:44Z</time><pdop>9.0</pdop><geoidheight>50.00</geoidheight><course>74.1</course><type>1</type></trkpt>
      <trkpt lat="38.44416974" lon="-1.96334501"><ele>1478</ele><speed>9.16</speed><time>2016-06-02T14:05:46Z</time><pdop>9.0</pdop><geoidheight>50.00</geoidheight><course>84.5</course><type>1</type></trkpt>
      <trkpt lat="38.44411423" lon="-1.96313604"><ele>1482</ele><speed>4.75</speed><time>2016-06-02T14:05:49Z</time><pdop>9.0</pdop><geoidheight>50.00</geoidheight><course>132.4</course><type>1</type></trkpt>
      <trkpt lat="38.44398395" lon="-1.96317562"><ele>1483</ele><speed>6.85</speed><time>2016-06-02T14:05:51Z</time><pdop>3.0</pdop><geoidheight>50.00</geoidheight><course>206.9</course><type>1</type></trkpt>
      <trkpt lat="38.44395064" lon="-1.9632506"><ele>1485</ele><speed>7.72</speed><time>2016-06-02T14:05:52Z</time><pdop>3.0</pdop><geoidheight>50.00</geoidheight><course>233.8</course><type>1</type></trkpt>
      <trkpt lat="38.4439377" lon="-1.96335065"><ele>1485</ele><speed>8.64</speed><time>2016-06-02T14:05:53Z</time><pdop>3.0</pdop><geoidheight>50.00</geoidheight><course>260.3</course><type>1</type></trkpt>
      <trkpt lat="38.44393656" lon="-1.96344493"><ele>1486</ele><speed>8.59</speed><time>2016-06-02T14:05:54Z</time><pdop>3.0</pdop><geoidheight>50.00</geoidheight><course>270.8</course><type>1</type></trkpt>
      <trkpt lat="38.44399572" lon="-1.96356904"><ele>1487</ele><speed>10.30</speed><time>2016-06-02T14:05:55Z</time><pdop>4.0</pdop><geoidheight>50.00</geoidheight><course>292.2</course><type>1</type></trkpt>
      <trkpt lat="38.44411316" lon="-1.96368088"><ele>1488</ele><speed>13.33</speed><time>2016-06-02T14:05:56Z</time><pdop>4.0</pdop><geoidheight>50.00</geoidheight><course>314.8</course><type>1</type></trkpt>
      <trkpt lat="38.44419833" lon="-1.96377795"><ele>1488</ele><speed>13.21</speed><time>2016-06-02T14:05:57Z</time><pdop>4.0</pdop><geoidheight>50.00</geoidheight><course>317.7</course><type>1</type></trkpt>
      <trkpt lat="38.44429159" lon="-1.96385714"><ele>1489</ele><speed>12.80</speed><time>2016-06-02T14:05:58Z</time><pdop>4.0</pdop><geoidheight>50.00</geoidheight><course>321.6</course><type>1</type></trkpt>
      <trkpt lat="38.44444152" lon="-1.96387259"><ele>1488</ele><speed>13.49</speed><time>2016-06-02T14:05:59Z</time><pdop>6.0</pdop><geoidheight>50.00</geoidheight><course>337.4</course><type>1</type></trkpt>
      <trkpt lat="38.44458122" lon="-1.96388298"><ele>1488</ele><speed>14.22</speed><time>2016-06-02T14:06:00Z</time><pdop>7.0</pdop><geoidheight>50.00</geoidheight><course>348.1</course><type>1</type></trkpt>
      <trkpt lat="38.44476818" lon="-1.96373189"><ele>1489</ele><speed>11.96</speed><time>2016-06-02T14:06:02Z</time><pdop>6.0</pdop><geoidheight>50.00</geoidheight><course>22.3</course><type>1</type></trkpt>
      <trkpt lat="38.44485786" lon="-1.96364455"><ele>1491</ele><speed>11.91</speed><time>2016-06-02T14:06:03Z</time><pdop>5.0</pdop><geoidheight>50.00</geoidheight><course>29.1</course><type>1</type></trkpt>
      <trkpt lat="38.44495382" lon="-1.96345691"><ele>1493</ele><speed>9.02</speed><time>2016-06-02T14:06:05Z</time><pdop>5.0</pdop><geoidheight>50.00</geoidheight><course>54.4</course><type>1</type></trkpt>
      <trkpt lat="38.44497036" lon="-1.96332745"><ele>1494</ele><speed>9.33</speed><time>2016-06-02T14:06:06Z</time><pdop>5.0</pdop><geoidheight>50.00</geoidheight><course>68.7</course><type>1</type></trkpt>
      <trkpt lat="38.44495081" lon="-1.96317722"><ele>1498</ele><speed>6.32</speed><time>2016-06-02T14:06:08Z</time><pdop>4.0</pdop><geoidheight>50.00</geoidheight><course>98.9</course><type>1</type></trkpt>
      <trkpt lat="38.4449094" lon="-1.96305777"><ele>1500</ele><speed>5.18</speed><time>2016-06-02T14:06:10Z</time><pdop>3.0</pdop><geoidheight>50.00</geoidheight><course>121.7</course><type>1</type></trkpt>
      <trkpt lat="38.44484387" lon="-1.96298286"><ele>1501</ele><speed>4.55</speed><time>2016-06-02T14:06:12Z</time><pdop>4.0</pdop><geoidheight>50.00</geoidheight><course>154.3</course><type>1</type></trkpt>
      <trkpt lat="38.44476353" lon="-1.96298934"><ele>1501</ele><speed>6.32</speed><time>2016-06-02T14:06:13Z</time><pdop>4.0</pdop><geoidheight>50.00</geoidheight><course>180.9</course><type>1</type></trkpt>
      <trkpt lat="38.44465236" lon="-1.96305689"><ele>1503</ele><speed>7.22</speed><time>2016-06-02T14:06:15Z</time><pdop>4.0</pdop><geoidheight>50.00</geoidheight><course>202.1</course><type>1</type></trkpt>
      <trkpt lat="38.44455065" lon="-1.96314046"><ele>1505</ele><speed>6.36</speed><time>2016-06-02T14:06:17Z</time><pdop>4.0</pdop><geoidheight>50.00</geoidheight><course>212.3</course><type>1</type></trkpt>
      <trkpt lat="38.44458322" lon="-1.96333784"><ele>1504</ele><speed>7.73</speed><time>2016-06-02T14:06:19Z</time><pdop>4.0</pdop><geoidheight>50.00</geoidheight><course>275.7</course><type>1</type></trkpt>
      <trkpt lat="38.44461476" lon="-1.96345743"><ele>1503</ele><speed>10.98</speed><time>2016-06-02T14:06:20Z</time><pdop>4.0</pdop><geoidheight>50.00</geoidheight><course>289.8</course><type>1</type></trkpt>
      <trkpt lat="38.44466523" lon="-1.96358668"><ele>1502</ele><speed>13.07</speed><time>2016-06-02T14:06:21Z</time><pdop>3.0</pdop><geoidheight>50.00</geoidheight><course>301.1</course><type>1</type></trkpt>
      <trkpt lat="38.4447607" lon="-1.9636859"><ele>1502</ele><speed>13.60</speed><time>2016-06-02T14:06:22Z</time><pdop>3.0</pdop><geoidheight>50.00</geoidheight><course>318.7</course><type>1</type></trkpt>
      <trkpt lat="38.44485769" lon="-1.96378231"><ele>1502</ele><speed>14.18</speed><time>2016-06-02T14:06:23Z</time><pdop>3.0</pdop><geoidheight>50.00</geoidheight><course>323.1</course><type>1</type></trkpt>
      <trkpt lat="38.44496316" lon="-1.96385579"><ele>1503</ele><speed>13.45</speed><time>2016-06-02T14:06:24Z</time><pdop>4.0</pdop><geoidheight>50.00</geoidheight><course>327.1</course><type>1</type></trkpt>
      <trkpt lat="38.44509522" lon="-1.96387087"><ele>1504</ele><speed>13.37</speed><time>2016-06-02T14:06:25Z</time><pdop>5.0</pdop><geoidheight>50.00</geoidheight><course>339.6</course><type>1</type></trkpt>
      <trkpt lat="38.44525677" lon="-1.96375511"><ele>1509</ele><speed>14.87</speed><time>2016-06-02T14:06:26Z</time><pdop>3.0</pdop><geoidheight>50.00</geoidheight><course>11.9</course><type>1</type></trkpt>
      <trkpt lat="38.44539576" lon="-1.96370696"><ele>1510</ele><speed>14.93</speed><time>2016-06-02T14:06:27Z</time><pdop>4.0</pdop><geoidheight>50.00</geoidheight><course>13.4</course><type>1</type></trkpt>
      <trkpt lat="38.44551667" lon="-1.96366448"><ele>1511</ele><speed>14.21</speed><time>2016-06-02T14:06:28Z</time><pdop>4.0</pdop><geoidheight>50.00</geoidheight><course>13.7</course><type>1</type></trkpt>
      <trkpt lat="38.44562965" lon="-1.96369295"><ele>1512</ele><speed>12.20</speed><time>2016-06-02T14:06:29Z</time><pdop>4.0</pdop><geoidheight>50.00</geoidheight><course>0.1</course><type>1</type></trkpt>
      <trkpt lat="38.4457537" lon="-1.9637441"><ele>1512</ele><speed>13.21</speed><time>2016-06-02T14:06:30Z</time><pdop>4.0</pdop><geoidheight>50.00</geoidheight><course>347.8</course><type>1</type></trkpt>
      <trkpt lat="38.44587041" lon="-1.96380091"><ele>1513</ele><speed>13.61</speed><time>2016-06-02T14:06:31Z</time><pdop>4.0</pdop><geoidheight>50.00</geoidheight><course>343.7</course><type>1</type></trkpt>
      <trkpt lat="38.44597439" lon="-1.96390759"><ele>1513</ele><speed>14.34</speed><time>2016-06-02T14:06:32Z</time><pdop>4.0</pdop><geoidheight>50.00</geoidheight><course>328.4</course><type>1</type></trkpt>
      <trkpt lat="38.44608716" lon="-1.96399877"><ele>1512</ele><speed>14.78</speed><time>2016-06-02T14:06:33Z</time><pdop>5.0</pdop><geoidheight>50.00</geoidheight><course>325.9</course><type>1</type></trkpt>
      <trkpt lat="38.44619613" lon="-1.96408637"><ele>1513</ele><speed>14.77</speed><time>2016-06-02T14:06:34Z</time><pdop>6.0</pdop><geoidheight>50.00</geoidheight><course>326.1</course><type>1</type></trkpt>
      <trkpt lat="38.44613121" lon="-1.96425114"><ele>1512</ele><speed>11.66</speed><time>2016-06-02T14:06:35Z</time><pdop>4.0</pdop><geoidheight>50.00</geoidheight><course>286.8</course><type>1</type></trkpt>
      <trkpt lat="38.44611797" lon="-1.96437601"><ele>1511</ele><speed>10.18</speed><time>2016-06-02T14:06:36Z</time><pdop>4.0</pdop><geoidheight>50.00</geoidheight><course>265.5</course><type>1</type></trkpt>
      <trkpt lat="38.4460652" lon="-1.96445607"><ele>1510</ele><speed>9.35</speed><time>2016-06-02T14:06:37Z</time><pdop>3.0</pdop><geoidheight>50.00</geoidheight><course>239.4</course><type>1</type></trkpt>
      <trkpt lat="38.44601907" lon="-1.96452477"><ele>1510</ele><speed>8.71</speed><time>2016-06-02T14:06:38Z</time><pdop>4.0</pdop><geoidheight>50.00</geoidheight><course>231.3</course><type>1</type></trkpt>
      <trkpt lat="38.44591671" lon="-1.96455843"><ele>1508</ele><speed>6.41</speed><time>2016-06-02T14:06:40Z</time><pdop>6.0</pdop><geoidheight>50.00</geoidheight><course>199.7</course><type>1</type></trkpt>
      <trkpt lat="38.44579074" lon="-1.96455861"><ele>1510</ele><speed>5.82</speed><time>2016-06-02T14:06:42Z</time><pdop>5.0</pdop><geoidheight>50.00</geoidheight><course>192.9</course><type>1</type></trkpt>
      <trkpt lat="38.44566903" lon="-1.96456042"><ele>1513</ele><speed>6.73</speed><time>2016-06-02T14:06:44Z</time><pdop>5.0</pdop><geoidheight>50.00</geoidheight><course>177.0</course><type>1</type></trkpt>
      <trkpt lat="38.44550481" lon="-1.96449044"><ele>1513</ele><speed>8.89</speed><time>2016-06-02T14:06:46Z</time><pdop>7.0</pdop><geoidheight>50.00</geoidheight><course>161.6</course><type>1</type></trkpt>
      <trkpt lat="38.44539035" lon="-1.96436905"><ele>1516</ele><speed>6.38</speed><time>2016-06-02T14:06:48Z</time><pdop>5.0</pdop><geoidheight>50.00</geoidheight><course>143.3</course><type>1</type></trkpt>
      <trkpt lat="38.44531188" lon="-1.96427752"><ele>1518</ele><speed>4.90</speed><time>2016-06-02T14:06:50Z</time><pdop>5.0</pdop><geoidheight>50.00</geoidheight><course>142.0</course><type>1</type></trkpt>
      <trkpt lat="38.44521146" lon="-1.96411669"><ele>1517</ele><speed>8.49</speed><time>2016-06-02T14:06:52Z</time><pdop>7.0</pdop><geoidheight>50.00</geoidheight><course>129.1</course><type>1</type></trkpt>
      <trkpt lat="38.44512893" lon="-1.963923"><ele>1515</ele><speed>9.69</speed><time>2016-06-02T14:06:54Z</time><pdop>11.0</pdop><geoidheight>50.00</geoidheight><course>122.7</course><type>1</type></trkpt>
      <trkpt lat="38.44504139" lon="-1.96369133"><ele>1514</ele><speed>10.28</speed><time>2016-06-02T14:06:56Z</time><pdop>10.0</pdop><geoidheight>50.00</geoidheight><course>116.4</course><type>1</type></trkpt>
      <trkpt lat="38.4449793" lon="-1.96336515"><ele>1508</ele><speed>11.38</speed><time>2016-06-02T14:06:59Z</time><pdop>9.0</pdop><geoidheight>50.00</geoidheight><course>102.1</course><type>1</type></trkpt>
      <trkpt lat="38.44492305" lon="-1.9630589"><ele>1507</ele><speed>12.68</speed><time>2016-06-02T14:07:01Z</time><pdop>10.0</pdop><geoidheight>50.00</geoidheight><course>100.9</course><type>1</type></trkpt>
      <trkpt lat="38.44485513" lon="-1.96273562"><ele>1503</ele><speed>10.74</speed><time>2016-06-02T14:07:04Z</time><pdop>9.0</pdop><geoidheight>50.00</geoidheight><course>103.2</course><type>1</type></trkpt>
      <trkpt lat="38.44482446" lon="-1.962475"><ele>1502</ele><speed>11.32</speed><time>2016-06-02T14:07:06Z</time><pdop>9.0</pdop><geoidheight>50.00</geoidheight><course>98.7</course><type>1</type></trkpt>
      <trkpt lat="38.44478404" lon="-1.96222517"><ele>1500</ele><speed>10.96</speed><time>2016-06-02T14:07:08Z</time><pdop>9.0</pdop><geoidheight>50.00</geoidheight><course>100.7</course><type>1</type></trkpt>
      <trkpt lat="38.44475343" lon="-1.96195699"><ele>1498</ele><speed>11.81</speed><time>2016-06-02T14:07:10Z</time><pdop>9.0</pdop><geoidheight>50.00</geoidheight><course>98.4</course><type>1</type></trkpt>
      <trkpt lat="38.44468684" lon="-1.96168225"><ele>1492</ele><speed>13.50</speed><time>2016-06-02T14:07:12Z</time><pdop>10.0</pdop><geoidheight>50.00</geoidheight><course>105.5</course><type>1</type></trkpt>
      <trkpt lat="38.44461485" lon="-1.96140138"><ele>1488</ele><speed>12.82</speed><time>2016-06-02T14:07:14Z</time><pdop>10.0</pdop><geoidheight>50.00</geoidheight><course>109.1</course><type>1</type></trkpt>
      <trkpt lat="38.44454556" lon="-1.96114371"><ele>1484</ele><speed>12.03</speed><time>2016-06-02T14:07:16Z</time><pdop>9.0</pdop><geoidheight>50.00</geoidheight><course>107.3</course><type>1</type></trkpt>
      <trkpt lat="38.4444744" lon="-1.9608788"><ele>1483</ele><speed>12.13</speed><time>2016-06-02T14:07:18Z</time><pdop>10.0</pdop><geoidheight>50.00</geoidheight><course>108.5</course><type>1</type></trkpt>
      <trkpt lat="38.4443995" lon="-1.9606312"><ele>1482</ele><speed>11.41</speed><time>2016-06-02T14:07:20Z</time><pdop>10.0</pdop><geoidheight>50.00</geoidheight><course>110.2</course><type>1</type></trkpt>
      <trkpt lat="38.44432112" lon="-1.96035194"><ele>1482</ele><speed>12.21</speed><time>2016-06-02T14:07:22Z</time><pdop>11.0</pdop><geoidheight>50.00</geoidheight><course>107.6</course><type>1</type></trkpt>
      <trkpt lat="38.44425597" lon="-1.96000628"><ele>1475</ele><speed>11.89</speed><time>2016-06-02T14:07:25Z</time><pdop>12.0</pdop><geoidheight>50.00</geoidheight><course>105.0</course><type>1</type></trkpt>
      <trkpt lat="38.44420932" lon="-1.95963542"><ele>1470</ele><speed>11.68</speed><time>2016-06-02T14:07:28Z</time><pdop>10.0</pdop><geoidheight>50.00</geoidheight><course>101.8</course><type>1</type></trkpt>
      <trkpt lat="38.44416847" lon="-1.9593996"><ele>1465</ele><speed>10.95</speed><time>2016-06-02T14:07:30Z</time><pdop>9.0</pdop><geoidheight>50.00</geoidheight><course>102.8</course><type>1</type></trkpt>
      <trkpt lat="38.44411562" lon="-1.95919177"><ele>1462</ele><speed>9.88</speed><time>2016-06-02T14:07:32Z</time><pdop>9.0</pdop><geoidheight>50.00</geoidheight><course>106.9</course><type>1</type></trkpt>
      <trkpt lat="38.44406303" lon="-1.95898943"><ele>1457</ele><speed>9.86</speed><time>2016-06-02T14:07:34Z</time><pdop>9.0</pdop><geoidheight>50.00</geoidheight><course>106.7</course><type>1</type></trkpt>
      <trkpt lat="38.44401786" lon="-1.95874932"><ele>1455</ele><speed>10.82</speed><time>2016-06-02T14:07:36Z</time><pdop>10.0</pdop><geoidheight>50.00</geoidheight><course>103.4</course><type>1</type></trkpt>
      <trkpt lat="38.44395202" lon="-1.95850952"><ele>1451</ele><speed>10.51</speed><time>2016-06-02T14:07:38Z</time><pdop>10.0</pdop><geoidheight>50.00</geoidheight><course>108.0</course><type>1</type></trkpt>
      <trkpt lat="38.44389299" lon="-1.95822387"><ele>1446</ele><speed>9.30</speed><time>2016-06-02T14:07:41Z</time><pdop>11.0</pdop><geoidheight>50.00</geoidheight><course>102.7</course><type>1</type></trkpt>
      <trkpt lat="38.44383952" lon="-1.95796854"><ele>1443</ele><speed>11.54</speed><time>2016-06-02T14:07:43Z</time><pdop>12.0</pdop><geoidheight>50.00</geoidheight><course>100.7</course><type>1</type></trkpt>
      <trkpt lat="38.44379604" lon="-1.95766837"><ele>1441</ele><speed>12.90</speed><time>2016-06-02T14:07:45Z</time><pdop>12.0</pdop><geoidheight>50.00</geoidheight><course>99.3</course><type>1</type></trkpt>
      <trkpt lat="38.4437413" lon="-1.95738741"><ele>1436</ele><speed>12.97</speed><time>2016-06-02T14:07:47Z</time><pdop>13.0</pdop><geoidheight>50.00</geoidheight><course>105.2</course><type>1</type></trkpt>
      <trkpt lat="38.44353397" lon="-1.95703572"><ele>1422</ele><speed>11.61</speed><time>2016-06-02T14:07:51Z</time><pdop>12.0</pdop><geoidheight>50.00</geoidheight><course>121.4</course><type>1</type></trkpt>
      <trkpt lat="38.44332968" lon="-1.95666532"><ele>1412</ele><speed>12.84</speed><time>2016-06-02T14:07:54Z</time><pdop>17.0</pdop><geoidheight>50.00</geoidheight><course>119.6</course><type>1</type></trkpt>
      <trkpt lat="38.44322057" lon="-1.95614839"><ele>1403</ele><speed>11.89</speed><time>2016-06-02T14:07:58Z</time><pdop>15.0</pdop><geoidheight>50.00</geoidheight><course>105.9</course><type>1</type></trkpt>
      <trkpt lat="38.4431306" lon="-1.95582738"><ele>1393</ele><speed>11.74</speed><time>2016-06-02T14:08:01Z</time><pdop>13.0</pdop><geoidheight>50.00</geoidheight><course>105.4</course><type>1</type></trkpt>
      <trkpt lat="38.44298295" lon="-1.95546609"><ele>1384</ele><speed>10.97</speed><time>2016-06-02T14:08:04Z</time><pdop>14.0</pdop><geoidheight>50.00</geoidheight><course>115.6</course><type>1</type></trkpt>
      <trkpt lat="38.44284368" lon="-1.95511857"><ele>1375</ele><speed>11.35</speed><time>2016-06-02T14:08:07Z</time><pdop>14.0</pdop><geoidheight>50.00</geoidheight><course>112.1</course><type>1</type></trkpt>
      <trkpt lat="38.44271639" lon="-1.95475106"><ele>1365</ele><speed>12.29</speed><time>2016-06-02T14:08:10Z</time><pdop>16.0</pdop><geoidheight>50.00</geoidheight><course>110.6</course><type>1</type></trkpt>
      <trkpt lat="38.44258117" lon="-1.95433316"><ele>1357</ele><speed>12.80</speed><time>2016-06-02T14:08:13Z</time><pdop>20.0</pdop><geoidheight>50.00</geoidheight><course>110.7</course><type>1</type></trkpt>
      <trkpt lat="38.44243183" lon="-1.95383842"><ele>1343</ele><speed>12.61</speed><time>2016-06-02T14:08:17Z</time><pdop>19.0</pdop><geoidheight>50.00</geoidheight><course>110.9</course><type>1</type></trkpt>
      <trkpt lat="38.44225247" lon="-1.95343316"><ele>1321</ele><speed>11.76</speed><time>2016-06-02T14:08:22Z</time><pdop>14.0</pdop><geoidheight>50.00</geoidheight><course>119.0</course><type>1</type></trkpt>
      <trkpt lat="38.44204172" lon="-1.95301077"><ele>1309</ele><speed>11.79</speed><time>2016-06-02T14:08:26Z</time><pdop>19.0</pdop><geoidheight>50.00</geoidheight><course>120.2</course><type>1</type></trkpt>
      <trkpt lat="38.44182058" lon="-1.95254596"><ele>1302</ele><speed>14.67</speed><time>2016-06-02T14:08:29Z</time><pdop>24.0</pdop><geoidheight>50.00</geoidheight><course>118.2</course><type>1</type></trkpt>
      <trkpt lat="38.44162779" lon="-1.95198217"><ele>1287</ele><speed>12.00</speed><time>2016-06-02T14:08:34Z</time><pdop>22.0</pdop><geoidheight>50.00</geoidheight><course>115.9</course><type>1</type></trkpt>
      <trkpt lat="38.44141915" lon="-1.95136067"><ele>1278</ele><speed>14.01</speed><time>2016-06-02T14:08:38Z</time><pdop>17.0</pdop><geoidheight>50.00</geoidheight><course>109.8</course><type>1</type></trkpt>
      <trkpt lat="38.44124526" lon="-1.95094204"><ele>1263</ele><speed>10.88</speed><time>2016-06-02T14:08:42Z</time><pdop>20.0</pdop><geoidheight>50.00</geoidheight><course>114.4</course><type>1</type></trkpt>
      <trkpt lat="38.4410938" lon="-1.9505123"><ele>1252</ele><speed>10.94</speed><time>2016-06-02T14:08:46Z</time><pdop>14.0</pdop><geoidheight>50.00</geoidheight><course>109.1</course><type>1</type></trkpt>
      <trkpt lat="38.44092851" lon="-1.95021304"><ele>1237</ele><speed>11.03</speed><time>2016-06-02T14:08:49Z</time><pdop>17.0</pdop><geoidheight>50.00</geoidheight><course>118.1</course><type>1</type></trkpt>
      <trkpt lat="38.44068921" lon="-1.94980908"><ele>1227</ele><speed>10.93</speed><time>2016-06-02T14:08:53Z</time><pdop>24.0</pdop><geoidheight>50.00</geoidheight><course>124.9</course><type>1</type></trkpt>
      <trkpt lat="38.44050098" lon="-1.94941251"><ele>1206</ele><speed>9.70</speed><time>2016-06-02T14:08:58Z</time><pdop>15.0</pdop><geoidheight>50.00</geoidheight><course>112.7</course><type>1</type></trkpt>
      <trkpt lat="38.4403876" lon="-1.94908439"><ele>1192</ele><speed>5.11</speed><time>2016-06-02T14:09:03Z</time><pdop>13.0</pdop><geoidheight>50.00</geoidheight><course>118.3</course><type>1</type></trkpt>
      <trkpt lat="38.44019511" lon="-1.94882678"><ele>1182</ele><speed>4.80</speed><time>2016-06-02T14:09:09Z</time><pdop>14.0</pdop><geoidheight>50.00</geoidheight><course>135.0</course><type>1</type></trkpt>
      <trkpt lat="38.44005759" lon="-1.94847389"><ele>1174</ele><speed>8.29</speed><time>2016-06-02T14:09:13Z</time><pdop>17.0</pdop><geoidheight>50.00</geoidheight><course>117.1</course><type>1</type></trkpt>
      <trkpt lat="38.43989629" lon="-1.94809608"><ele>1165</ele><speed>6.59</speed><time>2016-06-02T14:09:18Z</time><pdop>12.0</pdop><geoidheight>50.00</geoidheight><course>110.9</course><type>1</type></trkpt>
      <trkpt lat="38.43985413" lon="-1.94775684"><ele>1155</ele><speed>7.83</speed><time>2016-06-02T14:09:22Z</time><pdop>11.0</pdop><geoidheight>50.00</geoidheight><course>92.1</course><type>1</type></trkpt>
      <trkpt lat="38.43977072" lon="-1.94751136"><ele>1153</ele><speed>4.86</speed><time>2016-06-02T14:09:26Z</time><pdop>11.0</pdop><geoidheight>50.00</geoidheight><course>96.9</course><type>1</type></trkpt>
      <trkpt lat="38.43984682" lon="-1.94718012"><ele>1148</ele><speed>7.61</speed><time>2016-06-02T14:09:31Z</time><pdop>10.0</pdop><geoidheight>50.00</geoidheight><course>79.0</course><type>1</type></trkpt>
      <trkpt lat="38.43987178" lon="-1.94691161"><ele>1148</ele><speed>7.29</speed><time>2016-06-02T14:09:34Z</time><pdop>10.0</pdop><geoidheight>50.00</geoidheight><course>87.6</course><type>1</type></trkpt>
      <trkpt lat="38.43989493" lon="-1.94665298"><ele>1146</ele><speed>8.46</speed><time>2016-06-02T14:09:37Z</time><pdop>11.0</pdop><geoidheight>50.00</geoidheight><course>86.6</course><type>1</type></trkpt>
      <trkpt lat="38.43986519" lon="-1.94635179"><ele>1146</ele><speed>8.19</speed><time>2016-06-02T14:09:40Z</time><pdop>9.0</pdop><geoidheight>50.00</geoidheight><course>91.0</course><type>1</type></trkpt>
      <trkpt lat="38.43986111" lon="-1.94612938"><ele>1143</ele><speed>6.38</speed><time>2016-06-02T14:09:43Z</time><pdop>9.0</pdop><geoidheight>50.00</geoidheight><course>91.6</course><type>1</type></trkpt>
      <trkpt lat="38.43982011" lon="-1.94586004"><ele>1140</ele><speed>7.27</speed><time>2016-06-02T14:09:46Z</time><pdop>9.0</pdop><geoidheight>50.00</geoidheight><course>106.2</course><type>1</type></trkpt>
      <trkpt lat="38.43977949" lon="-1.94563529"><ele>1139</ele><speed>6.01</speed><time>2016-06-02T14:09:49Z</time><pdop>10.0</pdop><geoidheight>50.00</geoidheight><course>100.9</course><type>1</type></trkpt>
      <trkpt lat="38.43973541" lon="-1.94533855"><ele>1137</ele><speed>7.57</speed><time>2016-06-02T14:09:53Z</time><pdop>12.0</pdop><geoidheight>50.00</geoidheight><course>103.1</course><type>1</type></trkpt>
      <trkpt lat="38.43965906" lon="-1.94500324"><ele>1136</ele><speed>8.64</speed><time>2016-06-02T14:09:56Z</time><pdop>11.0</pdop><geoidheight>50.00</geoidheight><course>106.3</course><type>1</type></trkpt>
      <trkpt lat="38.43965852" lon="-1.94475997"><ele>1136</ele><speed>8.97</speed><time>2016-06-02T14:09:59Z</time><pdop>10.0</pdop><geoidheight>50.00</geoidheight><course>86.2</course><type>1</type></trkpt>
      <trkpt lat="38.4396543" lon="-1.94444638"><ele>1135</ele><speed>9.60</speed><time>2016-06-02T14:10:02Z</time><pdop>9.0</pdop><geoidheight>50.00</geoidheight><course>90.8</course><type>1</type></trkpt>
      <trkpt lat="38.43967566" lon="-1.94419023"><ele>1136</ele><speed>8.15</speed><time>2016-06-02T14:10:05Z</time><pdop>9.0</pdop><geoidheight>50.00</geoidheight><course>88.4</course><type>1</type></trkpt>
      <trkpt lat="38.43956497" lon="-1.94391869"><ele>1134</ele><speed>9.35</speed><time>2016-06-02T14:10:08Z</time><pdop>9.0</pdop><geoidheight>50.00</geoidheight><course>121.5</course><type>1</type></trkpt>
      <trkpt lat="38.43947606" lon="-1.94367899"><ele>1135</ele><speed>7.71</speed><time>2016-06-02T14:10:11Z</time><pdop>10.0</pdop><geoidheight>50.00</geoidheight><course>122.6</course><type>1</type></trkpt>
      <trkpt lat="38.43936524" lon="-1.94345893"><ele>1132</ele><speed>4.97</speed><time>2016-06-02T14:10:15Z</time><pdop>11.0</pdop><geoidheight>50.00</geoidheight><course>118.9</course><type>1</type></trkpt>
      <trkpt lat="38.4392905" lon="-1.94320649"><ele>1130</ele><speed>5.55</speed><time>2016-06-02T14:10:20Z</time><pdop>12.0</pdop><geoidheight>50.00</geoidheight><course>113.7</course><type>1</type></trkpt>
      <trkpt lat="38.43914925" lon="-1.94293367"><ele>1127</ele><speed>6.41</speed><time>2016-06-02T14:10:24Z</time><pdop>12.0</pdop><geoidheight>50.00</geoidheight><course>117.2</course><type>1</type></trkpt>
      <trkpt lat="38.43906116" lon="-1.94269008"><ele>1125</ele><speed>6.97</speed><time>2016-06-02T14:10:27Z</time><pdop>11.0</pdop><geoidheight>50.00</geoidheight><course>103.2</course><type>1</type></trkpt>
      <trkpt lat="38.43895964" lon="-1.94243589"><ele>1122</ele><speed>8.30</speed><time>2016-06-02T14:10:30Z</time><pdop>12.0</pdop><geoidheight>50.00</geoidheight><course>110.7</course><type>1</type></trkpt>
      <trkpt lat="38.4389809" lon="-1.94216678"><ele>1119</ele><speed>10.18</speed><time>2016-06-02T14:10:32Z</time><pdop>11.0</pdop><geoidheight>50.00</geoidheight><course>96.0</course><type>1</type></trkpt>
      <trkpt lat="38.43894369" lon="-1.9418762"><ele>1112</ele><speed>10.02</speed><time>2016-06-02T14:10:35Z</time><pdop>10.0</pdop><geoidheight>50.00</geoidheight><course>99.6</course><type>1</type></trkpt>
      <trkpt lat="38.43889868" lon="-1.94164182"><ele>1110</ele><speed>9.71</speed><time>2016-06-02T14:10:37Z</time><pdop>10.0</pdop><geoidheight>50.00</geoidheight><course>104.0</course><type>1</type></trkpt>
      <trkpt lat="38.438874" lon="-1.94130749"><ele>1106</ele><speed>10.23</speed><time>2016-06-02T14:10:40Z</time><pdop>11.0</pdop><geoidheight>50.00</geoidheight><course>95.5</course><type>1</type></trkpt>
      <trkpt lat="38.43883336" lon="-1.94105416"><ele>1094</ele><speed>9.87</speed><time>2016-06-02T14:10:43Z</time><pdop>11.0</pdop><geoidheight>50.00</geoidheight><course>103.0</course><type>1</type></trkpt>
      <trkpt lat="38.43875566" lon="-1.94081252"><ele>1090</ele><speed>10.45</speed><time>2016-06-02T14:10:45Z</time><pdop>11.0</pdop><geoidheight>50.00</geoidheight><course>110.3</course><type>1</type></trkpt>
      <trkpt lat="38.43867478" lon="-1.94046149"><ele>1087</ele><speed>10.66</speed><time>2016-06-02T14:10:48Z</time><pdop>13.0</pdop><geoidheight>50.00</geoidheight><course>105.4</course><type>1</type></trkpt>
      <trkpt lat="38.43863925" lon="-1.94014683"><ele>1080</ele><speed>10.34</speed><time>2016-06-02T14:10:51Z</time><pdop>13.0</pdop><geoidheight>50.00</geoidheight><course>101.1</course><type>1</type></trkpt>
      <trkpt lat="38.43859295" lon="-1.93984529"><ele>1075</ele><speed>9.28</speed><time>2016-06-02T14:10:54Z</time><pdop>11.0</pdop><geoidheight>50.00</geoidheight><course>98.1</course><type>1</type></trkpt>
      <trkpt lat="38.43857367" lon="-1.93953574"><ele>1071</ele><speed>9.67</speed><time>2016-06-02T14:10:57Z</time><pdop>11.0</pdop><geoidheight>50.00</geoidheight><course>92.9</course><type>1</type></trkpt>
      <trkpt lat="38.43859196" lon="-1.93927598"><ele>1068</ele><speed>7.98</speed><time>2016-06-02T14:11:00Z</time><pdop>10.0</pdop><geoidheight>50.00</geoidheight><course>76.6</course><type>1</type></trkpt>
      <trkpt lat="38.438682" lon="-1.93902356"><ele>1068</ele><speed>8.17</speed><time>2016-06-02T14:11:03Z</time><pdop>11.0</pdop><geoidheight>50.00</geoidheight><course>69.7</course><type>1</type></trkpt>
      <trkpt lat="38.43874902" lon="-1.93874516"><ele>1065</ele><speed>9.41</speed><time>2016-06-02T14:11:06Z</time><pdop>10.0</pdop><geoidheight>50.00</geoidheight><course>69.9</course><type>1</type></trkpt>
      <trkpt lat="38.43882502" lon="-1.93845154"><ele>1064</ele><speed>7.69</speed><time>2016-06-02T14:11:09Z</time><pdop>9.0</pdop><geoidheight>50.00</geoidheight><course>83.6</course><type>1</type></trkpt>
      <trkpt lat="38.43878634" lon="-1.93813613"><ele>1062</ele><speed>9.62</speed><time>2016-06-02T14:11:12Z</time><pdop>10.0</pdop><geoidheight>50.00</geoidheight><course>101.6</course><type>1</type></trkpt>
      <trkpt lat="38.43876043" lon="-1.93787677"><ele>1056</ele><speed>7.75</speed><time>2016-06-02T14:11:15Z</time><pdop>10.0</pdop><geoidheight>50.00</geoidheight><course>97.7</course><type>1</type></trkpt>
      <trkpt lat="38.43871899" lon="-1.93756092"><ele>1054</ele><speed>9.58</speed><time>2016-06-02T14:11:18Z</time><pdop>10.0</pdop><geoidheight>50.00</geoidheight><course>99.0</course><type>1</type></trkpt>
      <trkpt lat="38.43864671" lon="-1.93721287"><ele>1055</ele><speed>10.34</speed><time>2016-06-02T14:11:21Z</time><pdop>11.0</pdop><geoidheight>50.00</geoidheight><course>104.7</course><type>1</type></trkpt>
      <trkpt lat="38.43865124" lon="-1.93691946"><ele>1055</ele><speed>7.66</speed><time>2016-06-02T14:11:25Z</time><pdop>11.0</pdop><geoidheight>50.00</geoidheight><course>92.5</course><type>1</type></trkpt>
      <trkpt lat="38.43860243" lon="-1.93658272"><ele>1052</ele><speed>9.66</speed><time>2016-06-02T14:11:28Z</time><pdop>12.0</pdop><geoidheight>50.00</geoidheight><course>107.1</course><type>1</type></trkpt>
      <trkpt lat="38.43852443" lon="-1.93626233"><ele>1045</ele><speed>7.49</speed><time>2016-06-02T14:11:32Z</time><pdop>14.0</pdop><geoidheight>50.00</geoidheight><course>105.0</course><type>1</type></trkpt>
      <trkpt lat="38.43845602" lon="-1.93592224"><ele>1039</ele><speed>10.14</speed><time>2016-06-02T14:11:35Z</time><pdop>13.0</pdop><geoidheight>50.00</geoidheight><course>98.8</course><type>1</type></trkpt>
      <trkpt lat="38.43838018" lon="-1.93563567"><ele>1037</ele><speed>11.14</speed><time>2016-06-02T14:11:37Z</time><pdop>12.0</pdop><geoidheight>50.00</geoidheight><course>102.3</course><type>1</type></trkpt>
      <trkpt lat="38.43836108" lon="-1.93534817"><ele>1032</ele><speed>10.11</speed><time>2016-06-02T14:11:40Z</time><pdop>13.0</pdop><geoidheight>50.00</geoidheight><course>96.6</course><type>1</type></trkpt>
      <trkpt lat="38.43826844" lon="-1.93494186"><ele>1028</ele><speed>10.72</speed><time>2016-06-02T14:11:43Z</time><pdop>13.0</pdop><geoidheight>50.00</geoidheight><course>105.6</course><type>1</type></trkpt>
      <trkpt lat="38.43819493" lon="-1.93463646"><ele>1019</ele><speed>7.81</speed><time>2016-06-02T14:11:47Z</time><pdop>12.0</pdop><geoidheight>50.00</geoidheight><course>103.4</course><type>1</type></trkpt>
      <trkpt lat="38.43809734" lon="-1.93433266"><ele>1016</ele><speed>9.75</speed><time>2016-06-02T14:11:50Z</time><pdop>13.0</pdop><geoidheight>50.00</geoidheight><course>103.5</course><type>1</type></trkpt>
      <trkpt lat="38.43803121" lon="-1.93403139"><ele>1011</ele><speed>8.76</speed><time>2016-06-02T14:11:53Z</time><pdop>12.0</pdop><geoidheight>50.00</geoidheight><course>106.9</course><type>1</type></trkpt>
      <trkpt lat="38.4378721" lon="-1.93380185"><ele>998</ele><speed>4.29</speed><time>2016-06-02T14:11:58Z</time><pdop>12.0</pdop><geoidheight>50.00</geoidheight><course>138.5</course><type>1</type></trkpt>
      <trkpt lat="38.43775836" lon="-1.93358124"><ele>989</ele><speed>4.91</speed><time>2016-06-02T14:12:03Z</time><pdop>11.0</pdop><geoidheight>50.00</geoidheight><course>127.0</course><type>1</type></trkpt>
      <trkpt lat="38.43759363" lon="-1.93335724"><ele>983</ele><speed>6.72</speed><time>2016-06-02T14:12:07Z</time><pdop>14.0</pdop><geoidheight>50.00</geoidheight><course>128.2</course><type>1</type></trkpt>
      <trkpt lat="38.43755703" lon="-1.9330289"><ele>978</ele><speed>3.44</speed><time>2016-06-02T14:12:18Z</time><pdop>8.0</pdop><geoidheight>50.00</geoidheight><course>64.9</course><type>1</type></trkpt>
      <trkpt lat="38.43756423" lon="-1.93281199"><ele>977</ele><speed>5.48</speed><time>2016-06-02T14:12:22Z</time><pdop>9.0</pdop><geoidheight>50.00</geoidheight><course>87.8</course><type>1</type></trkpt>
      <trkpt lat="38.43746645" lon="-1.93265058"><ele>978</ele><speed>4.96</speed><time>2016-06-02T14:12:25Z</time><pdop>7.0</pdop><geoidheight>50.00</geoidheight><course>112.8</course><type>1</type></trkpt>
      <trkpt lat="38.43745575" lon="-1.9324928"><ele>977</ele><speed>6.69</speed><time>2016-06-02T14:12:27Z</time><pdop>6.0</pdop><geoidheight>50.00</geoidheight><course>91.7</course><type>1</type></trkpt>
      <trkpt lat="38.43742689" lon="-1.93233134"><ele>975</ele><speed>7.58</speed><time>2016-06-02T14:12:29Z</time><pdop>5.0</pdop><geoidheight>50.00</geoidheight><course>102.2</course><type>1</type></trkpt>
      <trkpt lat="38.43741752" lon="-1.93217598"><ele>972</ele><speed>7.21</speed><time>2016-06-02T14:12:31Z</time><pdop>6.0</pdop><geoidheight>50.00</geoidheight><course>95.7</course><type>1</type></trkpt>
      <trkpt lat="38.43739033" lon="-1.932024"><ele>971</ele><speed>6.94</speed><time>2016-06-02T14:12:33Z</time><pdop>6.0</pdop><geoidheight>50.00</geoidheight><course>106.1</course><type>1</type></trkpt>
      <trkpt lat="38.43733017" lon="-1.93188381"><ele>968</ele><speed>7.80</speed><time>2016-06-02T14:12:35Z</time><pdop>5.0</pdop><geoidheight>50.00</geoidheight><course>114.6</course><type>1</type></trkpt>
      <trkpt lat="38.43727773" lon="-1.93170458"><ele>965</ele><speed>8.20</speed><time>2016-06-02T14:12:37Z</time><pdop>5.0</pdop><geoidheight>50.00</geoidheight><course>110.8</course><type>1</type></trkpt>
      <trkpt lat="38.43723283" lon="-1.93154945"><ele>964</ele><speed>6.57</speed><time>2016-06-02T14:12:39Z</time><pdop>5.0</pdop><geoidheight>50.00</geoidheight><course>109.4</course><type>1</type></trkpt>
      <trkpt lat="38.43721557" lon="-1.93141319"><ele>963</ele><speed>6.52</speed><time>2016-06-02T14:12:41Z</time><pdop>6.0</pdop><geoidheight>50.00</geoidheight><course>103.2</course><type>1</type></trkpt>
      <trkpt lat="38.43716198" lon="-1.93125878"><ele>964</ele><speed>7.18</speed><time>2016-06-02T14:12:43Z</time><pdop>6.0</pdop><geoidheight>50.00</geoidheight><course>120.6</course><type>1</type></trkpt>
      <trkpt lat="38.43706784" lon="-1.9311469"><ele>962</ele><speed>6.86</speed><time>2016-06-02T14:12:45Z</time><pdop>8.0</pdop><geoidheight>50.00</geoidheight><course>136.3</course><type>1</type></trkpt>
      <trkpt lat="38.43691947" lon="-1.93105267"><ele>959</ele><speed>4.24</speed><time>2016-06-02T14:12:49Z</time><pdop>10.0</pdop><geoidheight>50.00</geoidheight><course>138.7</course><type>1</type></trkpt>
      <trkpt lat="38.43678042" lon="-1.93077807"><ele>958</ele><speed>7.84</speed><time>2016-06-02T14:12:52Z</time><pdop>14.0</pdop><geoidheight>50.00</geoidheight><course>119.0</course><type>1</type></trkpt>
      <trkpt lat="38.43663516" lon="-1.93046392"><ele>955</ele><speed>8.95</speed><time>2016-06-02T14:12:55Z</time><pdop>14.0</pdop><geoidheight>50.00</geoidheight><course>115.7</course><type>1</type></trkpt>
      <trkpt lat="38.43659933" lon="-1.93017444"><ele>945</ele><speed>4.31</speed><time>2016-06-02T14:13:02Z</time><pdop>11.0</pdop><geoidheight>50.00</geoidheight><course>95.5</course><type>1</type></trkpt>
      <trkpt lat="38.43650257" lon="-1.92996293"><ele>944</ele><speed>6.21</speed><time>2016-06-02T14:13:05Z</time><pdop>8.0</pdop><geoidheight>50.00</geoidheight><course>116.9</course><type>1</type></trkpt>
      <trkpt lat="38.43650282" lon="-1.92977326"><ele>944</ele><speed>5.00</speed><time>2016-06-02T14:13:08Z</time><pdop>6.0</pdop><geoidheight>50.00</geoidheight><course>77.1</course><type>1</type></trkpt>
      <trkpt lat="38.43654413" lon="-1.92965602"><ele>946</ele><speed>4.51</speed><time>2016-06-02T14:13:10Z</time><pdop>5.0</pdop><geoidheight>50.00</geoidheight><course>73.9</course><type>1</type></trkpt>
      <trkpt lat="38.43654491" lon="-1.9295477"><ele>946</ele><speed>3.95</speed><time>2016-06-02T14:13:13Z</time><pdop>4.0</pdop><geoidheight>50.00</geoidheight><course>109.1</course><type>1</type></trkpt>
      <trkpt lat="38.43653187" lon="-1.9294"><ele>945</ele><speed>4.25</speed><time>2016-06-02T14:13:16Z</time><pdop>7.0</pdop><geoidheight>50.00</geoidheight><course>95.1</course><type>1</type></trkpt>
      <trkpt lat="38.4366342" lon="-1.92927908"><ele>947</ele><speed>5.43</speed><time>2016-06-02T14:13:19Z</time><pdop>7.0</pdop><geoidheight>50.00</geoidheight><course>42.0</course><type>1</type></trkpt>
      <trkpt lat="38.4367853" lon="-1.92915332"><ele>948</ele><speed>8.60</speed><time>2016-06-02T14:13:21Z</time><pdop>8.0</pdop><geoidheight>50.00</geoidheight><course>31.5</course><type>1</type></trkpt>
      <trkpt lat="38.43693189" lon="-1.92901661"><ele>951</ele><speed>9.27</speed><time>2016-06-02T14:13:23Z</time><pdop>9.0</pdop><geoidheight>50.00</geoidheight><course>32.9</course><type>1</type></trkpt>
      <trkpt lat="38.43706357" lon="-1.92886544"><ele>956</ele><speed>7.40</speed><time>2016-06-02T14:13:25Z</time><pdop>6.0</pdop><geoidheight>50.00</geoidheight><course>45.5</course><type>1</type></trkpt>
      <trkpt lat="38.43711662" lon="-1.92875601"><ele>960</ele><speed>5.46</speed><time>2016-06-02T14:13:27Z</time><pdop>5.0</pdop><geoidheight>50.00</geoidheight><course>55.9</course><type>1</type></trkpt>
      <trkpt lat="38.43696423" lon="-1.92879308"><ele>959</ele><speed>6.07</speed><time>2016-06-02T14:13:32Z</time><pdop>7.0</pdop><geoidheight>50.00</geoidheight><course>216.0</course><type>1</type></trkpt>
      <trkpt lat="38.43694032" lon="-1.92897988"><ele>959</ele><speed>6.67</speed><time>2016-06-02T14:13:34Z</time><pdop>7.0</pdop><geoidheight>50.00</geoidheight><course>259.9</course><type>1</type></trkpt>
      <trkpt lat="38.43695715" lon="-1.92916349"><ele>960</ele><speed>10.08</speed><time>2016-06-02T14:13:35Z</time><pdop>6.0</pdop><geoidheight>50.00</geoidheight><course>267.9</course><type>1</type></trkpt>
      <trkpt lat="38.43690828" lon="-1.92941504"><ele>962</ele><speed>9.85</speed><time>2016-06-02T14:13:37Z</time><pdop>5.0</pdop><geoidheight>50.00</geoidheight><course>255.2</course><type>1</type></trkpt>
      <trkpt lat="38.4368019" lon="-1.92953689"><ele>966</ele><speed>6.80</speed><time>2016-06-02T14:13:39Z</time><pdop>6.0</pdop><geoidheight>50.00</geoidheight><course>226.0</course><type>1</type></trkpt>
      <trkpt lat="38.43667794" lon="-1.92951215"><ele>968</ele><speed>4.94</speed><time>2016-06-02T14:13:41Z</time><pdop>6.0</pdop><geoidheight>50.00</geoidheight><course>175.0</course><type>1</type></trkpt>
      <trkpt lat="38.436573" lon="-1.92941346"><ele>972</ele><speed>5.01</speed><time>2016-06-02T14:13:44Z</time><pdop>8.0</pdop><geoidheight>50.00</geoidheight><course>132.3</course><type>1</type></trkpt>
      <trkpt lat="38.43671754" lon="-1.92914226"><ele>969</ele><speed>8.42</speed><time>2016-06-02T14:13:48Z</time><pdop>8.0</pdop><geoidheight>50.00</geoidheight><course>60.8</course><type>1</type></trkpt>
      <trkpt lat="38.43678519" lon="-1.92898043"><ele>967</ele><speed>8.55</speed><time>2016-06-02T14:13:50Z</time><pdop>5.0</pdop><geoidheight>50.00</geoidheight><course>69.1</course><type>1</type></trkpt>
      <trkpt lat="38.43686106" lon="-1.92882448"><ele>966</ele><speed>7.31</speed><time>2016-06-02T14:13:52Z</time><pdop>4.0</pdop><geoidheight>50.00</geoidheight><course>64.8</course><type>1</type></trkpt>
      <trkpt lat="38.43689616" lon="-1.92870231"><ele>965</ele><speed>4.90</speed><time>2016-06-02T14:13:54Z</time><pdop>5.0</pdop><geoidheight>50.00</geoidheight><course>89.6</course><type>1</type></trkpt>
      <trkpt lat="38.43673708" lon="-1.92871436"><ele>963</ele><speed>5.45</speed><time>2016-06-02T14:13:58Z</time><pdop>7.0</pdop><geoidheight>50.00</geoidheight><course>204.8</course><type>1</type></trkpt>
      <trkpt lat="38.43656645" lon="-1.92892347"><ele>961</ele><speed>7.09</speed><time>2016-06-02T14:14:01Z</time><pdop>10.0</pdop><geoidheight>50.00</geoidheight><course>225.4</course><type>1</type></trkpt>
      <trkpt lat="38.43659671" lon="-1.92926647"><ele>961</ele><speed>9.93</speed><time>2016-06-02T14:14:03Z</time><pdop>9.0</pdop><geoidheight>50.00</geoidheight><course>266.0</course><type>1</type></trkpt>
      <trkpt lat="38.43668981" lon="-1.9294748"><ele>961</ele><speed>12.01</speed><time>2016-06-02T14:14:04Z</time><pdop>7.0</pdop><geoidheight>50.00</geoidheight><course>286.2</course><type>1</type></trkpt>
      <trkpt lat="38.43676018" lon="-1.92973729"><ele>959</ele><speed>10.60</speed><time>2016-06-02T14:14:06Z</time><pdop>5.0</pdop><geoidheight>50.00</geoidheight><course>283.9</course><type>1</type></trkpt>
      <trkpt lat="38.43678306" lon="-1.92987393"><ele>958</ele><speed>10.70</speed><time>2016-06-02T14:14:07Z</time><pdop>6.0</pdop><geoidheight>50.00</geoidheight><course>280.2</course><type>1</type></trkpt>
      <trkpt lat="38.4367425" lon="-1.93017091"><ele>954</ele><speed>12.95</speed><time>2016-06-02T14:14:09Z</time><pdop>5.0</pdop><geoidheight>50.00</geoidheight><course>252.8</course><type>1</type></trkpt>
      <trkpt lat="38.4367157" lon="-1.93028282"><ele>951</ele><speed>11.74</speed><time>2016-06-02T14:14:10Z</time><pdop>5.0</pdop><geoidheight>50.00</geoidheight><course>247.4</course><type>1</type></trkpt>
      <trkpt lat="38.43665871" lon="-1.93039839"><ele>950</ele><speed>11.27</speed><time>2016-06-02T14:14:11Z</time><pdop>6.0</pdop><geoidheight>50.00</geoidheight><course>241.4</course><type>1</type></trkpt>
      <trkpt lat="38.43655012" lon="-1.9305443"><ele>950</ele><speed>9.01</speed><time>2016-06-02T14:14:13Z</time><pdop>10.0</pdop><geoidheight>50.00</geoidheight><course>227.7</course><type>1</type></trkpt>
      <trkpt lat="38.43640128" lon="-1.93027056"><ele>943</ele><speed>5.52</speed><time>2016-06-02T14:14:18Z</time><pdop>17.0</pdop><geoidheight>50.00</geoidheight><course>126.3</course><type>1</type></trkpt>
      <trkpt lat="38.43624946" lon="-1.92980646"><ele>941</ele><speed>9.51</speed><time>2016-06-02T14:14:22Z</time><pdop>11.0</pdop><geoidheight>50.00</geoidheight><course>107.0</course><type>1</type></trkpt>
      <trkpt lat="38.43629335" lon="-1.92962418"><ele>933</ele><speed>6.19</speed><time>2016-06-02T14:14:26Z</time><pdop>5.0</pdop><geoidheight>50.00</geoidheight><course>83.2</course><type>1</type></trkpt>
      <trkpt lat="38.43629337" lon="-1.92946637"><ele>931</ele><speed>6.98</speed><time>2016-06-02T14:14:28Z</time><pdop>4.0</pdop><geoidheight>50.00</geoidheight><course>90.5</course><type>1</type></trkpt>
      <trkpt lat="38.43628488" lon="-1.92930773"><ele>929</ele><speed>6.55</speed><time>2016-06-02T14:14:30Z</time><pdop>4.0</pdop><geoidheight>50.00</geoidheight><course>96.4</course><type>1</type></trkpt>
      <trkpt lat="38.43627577" lon="-1.92916049"><ele>929</ele><speed>6.03</speed><time>2016-06-02T14:14:32Z</time><pdop>5.0</pdop><geoidheight>50.00</geoidheight><course>94.1</course><type>1</type></trkpt>
      <trkpt lat="38.43626836" lon="-1.92900486"><ele>928</ele><speed>7.22</speed><time>2016-06-02T14:14:34Z</time><pdop>5.0</pdop><geoidheight>50.00</geoidheight><course>94.4</course><type>1</type></trkpt>
      <trkpt lat="38.4362795" lon="-1.92886576"><ele>924</ele><speed>7.20</speed><time>2016-06-02T14:14:36Z</time><pdop>5.0</pdop><geoidheight>50.00</geoidheight><course>90.8</course><type>1</type></trkpt>
      <trkpt lat="38.43629976" lon="-1.92870053"><ele>923</ele><speed>7.34</speed><time>2016-06-02T14:14:38Z</time><pdop>5.0</pdop><geoidheight>50.00</geoidheight><course>83.6</course><type>1</type></trkpt>
      <trkpt lat="38.43629859" lon="-1.92854191"><ele>922</ele><speed>7.34</speed><time>2016-06-02T14:14:40Z</time><pdop>6.0</pdop><geoidheight>50.00</geoidheight><course>82.9</course><type>1</type></trkpt>
      <trkpt lat="38.43633023" lon="-1.92838152"><ele>922</ele><speed>7.19</speed><time>2016-06-02T14:14:42Z</time><pdop>7.0</pdop><geoidheight>50.00</geoidheight><course>77.7</course><type>1</type></trkpt>
      <trkpt lat="38.43635068" lon="-1.92819006"><ele>918</ele><speed>8.82</speed><time>2016-06-02T14:14:44Z</time><pdop>5.0</pdop><geoidheight>50.00</geoidheight><course>79.9</course><type>1</type></trkpt>
      <trkpt lat="38.4363509" lon="-1.92797602"><ele>917</ele><speed>9.38</speed><time>2016-06-02T14:14:46Z</time><pdop>10.0</pdop><geoidheight>50.00</geoidheight><course>90.2</course><type>1</type></trkpt>
      <trkpt lat="38.43640895" lon="-1.92769052"><ele>915</ele><speed>8.01</speed><time>2016-06-02T14:14:49Z</time><pdop>10.0</pdop><geoidheight>50.00</geoidheight><course>69.0</course><type>1</type></trkpt>
      <trkpt lat="38.43650641" lon="-1.92743367"><ele>914</ele><speed>8.50</speed><time>2016-06-02T14:14:52Z</time><pdop>10.0</pdop><geoidheight>50.00</geoidheight><course>67.9</course><type>1</type></trkpt>
      <trkpt lat="38.43660897" lon="-1.92714406"><ele>913</ele><speed>9.86</speed><time>2016-06-02T14:14:55Z</time><pdop>10.0</pdop><geoidheight>50.00</geoidheight><course>66.7</course><type>1</type></trkpt>
      <trkpt lat="38.43670294" lon="-1.92693949"><ele>914</ele><speed>10.77</speed><time>2016-06-02T14:14:57Z</time><pdop>9.0</pdop><geoidheight>50.00</geoidheight><course>67.6</course><type>1</type></trkpt>
      <trkpt lat="38.43677511" lon="-1.92669853"><ele>914</ele><speed>11.00</speed><time>2016-06-02T14:14:59Z</time><pdop>9.0</pdop><geoidheight>50.00</geoidheight><course>65.4</course><type>1</type></trkpt>
      <trkpt lat="38.43682673" lon="-1.92647996"><ele>910</ele><speed>10.47</speed><time>2016-06-02T14:15:01Z</time><pdop>9.0</pdop><geoidheight>50.00</geoidheight><course>75.1</course><type>1</type></trkpt>
      <trkpt lat="38.43684744" lon="-1.92625408"><ele>910</ele><speed>9.68</speed><time>2016-06-02T14:15:03Z</time><pdop>10.0</pdop><geoidheight>50.00</geoidheight><course>88.2</course><type>1</type></trkpt>
      <trkpt lat="38.43678525" lon="-1.9259845"><ele>902</ele><speed>8.38</speed><time>2016-06-02T14:15:06Z</time><pdop>4.0</pdop><geoidheight>50.00</geoidheight><course>101.2</course><type>1</type></trkpt>
      <trkpt lat="38.43676493" lon="-1.92590846"><ele>900</ele><speed>7.68</speed><time>2016-06-02T14:15:07Z</time><pdop>3.0</pdop><geoidheight>50.00</geoidheight><course>107.3</course><type>1</type></trkpt>
      <trkpt lat="38.43673651" lon="-1.92582752"><ele>900</ele><speed>7.74</speed><time>2016-06-02T14:15:08Z</time><pdop>4.0</pdop><geoidheight>50.00</geoidheight><course>111.3</course><type>1</type></trkpt>
      <trkpt lat="38.43670975" lon="-1.92573699"><ele>898</ele><speed>8.59</speed><time>2016-06-02T14:15:09Z</time><pdop>4.0</pdop><geoidheight>50.00</geoidheight><course>110.3</course><type>1</type></trkpt>
      <trkpt lat="38.4366821" lon="-1.92563481"><ele>898</ele><speed>8.75</speed><time>2016-06-02T14:15:10Z</time><pdop>4.0</pdop><geoidheight>50.00</geoidheight><course>107.0</course><type>1</type></trkpt>
      <trkpt lat="38.43665545" lon="-1.92546508"><ele>899</ele><speed>7.22</speed><time>2016-06-02T14:15:12Z</time><pdop>7.0</pdop><geoidheight>50.00</geoidheight><course>106.2</course><type>1</type></trkpt>
      <trkpt lat="38.43675133" lon="-1.92529113"><ele>905</ele><speed>5.86</speed><time>2016-06-02T14:15:16Z</time><pdop>5.0</pdop><geoidheight>50.00</geoidheight><course>53.9</course><type>1</type></trkpt>
      <trkpt lat="38.43681301" lon="-1.92515716"><ele>907</ele><speed>6.18</speed><time>2016-06-02T14:15:18Z</time><pdop>4.0</pdop><geoidheight>50.00</geoidheight><course>61.5</course><type>1</type></trkpt>
      <trkpt lat="38.43673701" lon="-1.92523064"><ele>905</ele><speed>7.24</speed><time>2016-06-02T14:15:23Z</time><pdop>6.0</pdop><geoidheight>50.00</geoidheight><course>237.2</course><type>1</type></trkpt>
      <trkpt lat="38.43674168" lon="-1.92538793"><ele>906</ele><speed>9.75</speed><time>2016-06-02T14:15:24Z</time><pdop>5.0</pdop><geoidheight>50.00</geoidheight><course>259.5</course><type>1</type></trkpt>
      <trkpt lat="38.43679959" lon="-1.92553244"><ele>907</ele><speed>12.23</speed><time>2016-06-02T14:15:25Z</time><pdop>4.0</pdop><geoidheight>50.00</geoidheight><course>284.8</course><type>1</type></trkpt>
      <trkpt lat="38.43683139" lon="-1.92566001"><ele>909</ele><speed>12.68</speed><time>2016-06-02T14:15:26Z</time><pdop>4.0</pdop><geoidheight>50.00</geoidheight><course>290.9</course><type>1</type></trkpt>
      <trkpt lat="38.43688589" lon="-1.92581903"><ele>909</ele><speed>13.40</speed><time>2016-06-02T14:15:27Z</time><pdop>4.0</pdop><geoidheight>50.00</geoidheight><course>291.9</course><type>1</type></trkpt>
      <trkpt lat="38.4369191" lon="-1.92598089"><ele>910</ele><speed>13.70</speed><time>2016-06-02T14:15:28Z</time><pdop>4.0</pdop><geoidheight>50.00</geoidheight><course>287.0</course><type>1</type></trkpt>
      <trkpt lat="38.43692219" lon="-1.92614974"><ele>911</ele><speed>13.41</speed><time>2016-06-02T14:15:29Z</time><pdop>4.0</pdop><geoidheight>50.00</geoidheight><course>275.7</course><type>1</type></trkpt>
      <trkpt lat="38.43692319" lon="-1.9263051"><ele>911</ele><speed>13.49</speed><time>2016-06-02T14:15:30Z</time><pdop>4.0</pdop><geoidheight>50.00</geoidheight><course>272.3</course><type>1</type></trkpt>
      <trkpt lat="38.4369043" lon="-1.92643397"><ele>911</ele><speed>12.54</speed><time>2016-06-02T14:15:31Z</time><pdop>5.0</pdop><geoidheight>50.00</geoidheight><course>267.5</course><type>1</type></trkpt>
      <trkpt lat="38.43676638" lon="-1.92639857"><ele>913</ele><speed>2.89</speed><time>2016-06-02T14:15:35Z</time><pdop>8.0</pdop><geoidheight>50.00</geoidheight><course>186.9</course><type>1</type></trkpt>
      <trkpt lat="38.43682145" lon="-1.92618857"><ele>915</ele><speed>4.03</speed><time>2016-06-02T14:15:37Z</time><pdop>8.0</pdop><geoidheight>50.00</geoidheight><course>65.6</course><type>1</type></trkpt>
      <trkpt lat="38.43695737" lon="-1.92608587"><ele>918</ele><speed>8.02</speed><time>2016-06-02T14:15:38Z</time><pdop>6.0</pdop><geoidheight>50.00</geoidheight><course>39.0</course><type>1</type></trkpt>
      <trkpt lat="38.43704283" lon="-1.92597631"><ele>918</ele><speed>5.49</speed><time>2016-06-02T14:15:40Z</time><pdop>5.0</pdop><geoidheight>50.00</geoidheight><course>47.9</course><type>1</type></trkpt>
      <trkpt lat="38.4368984" lon="-1.92611633"><ele>917</ele><speed>7.11</speed><time>2016-06-02T14:15:45Z</time><pdop>7.0</pdop><geoidheight>50.00</geoidheight><course>238.4</course><type>1</type></trkpt>
      <trkpt lat="38.43685356" lon="-1.92639954"><ele>917</ele><speed>11.14</speed><time>2016-06-02T14:15:47Z</time><pdop>5.0</pdop><geoidheight>50.00</geoidheight><course>260.2</course><type>1</type></trkpt>
      <trkpt lat="38.43685339" lon="-1.92656105"><ele>918</ele><speed>11.97</speed><time>2016-06-02T14:15:48Z</time><pdop>5.0</pdop><geoidheight>50.00</geoidheight><course>266.0</course><type>1</type></trkpt>
      <trkpt lat="38.43686906" lon="-1.92672173"><ele>918</ele><speed>12.79</speed><time>2016-06-02T14:15:49Z</time><pdop>4.0</pdop><geoidheight>50.00</geoidheight><course>270.5</course><type>1</type></trkpt>
      <trkpt lat="38.43685955" lon="-1.92686431"><ele>918</ele><speed>12.73</speed><time>2016-06-02T14:15:50Z</time><pdop>4.0</pdop><geoidheight>50.00</geoidheight><course>270.4</course><type>1</type></trkpt>
      <trkpt lat="38.43686352" lon="-1.92701473"><ele>919</ele><speed>12.43</speed><time>2016-06-02T14:15:51Z</time><pdop>4.0</pdop><geoidheight>50.00</geoidheight><course>268.6</course><type>1</type></trkpt>
      <trkpt lat="38.43685717" lon="-1.92716075"><ele>918</ele><speed>12.12</speed><time>2016-06-02T14:15:52Z</time><pdop>4.0</pdop><geoidheight>50.00</geoidheight><course>263.9</course><type>1</type></trkpt>
      <trkpt lat="38.43682892" lon="-1.92730752"><ele>919</ele><speed>11.72</speed><time>2016-06-02T14:15:53Z</time><pdop>3.0</pdop><geoidheight>50.00</geoidheight><course>259.5</course><type>1</type></trkpt>
      <trkpt lat="38.43679982" lon="-1.92743469"><ele>920</ele><speed>11.25</speed><time>2016-06-02T14:15:54Z</time><pdop>3.0</pdop><geoidheight>50.00</geoidheight><course>258.0</course><type>1</type></trkpt>
      <trkpt lat="38.43678517" lon="-1.92755856"><ele>922</ele><speed>11.74</speed><time>2016-06-02T14:15:55Z</time><pdop>3.0</pdop><geoidheight>50.00</geoidheight><course>260.8</course><type>1</type></trkpt>
      <trkpt lat="38.43676137" lon="-1.92769928"><ele>924</ele><speed>11.90</speed><time>2016-06-02T14:15:56Z</time><pdop>3.0</pdop><geoidheight>50.00</geoidheight><course>260.7</course><type>1</type></trkpt>
      <trkpt lat="38.43674946" lon="-1.92782456"><ele>925</ele><speed>11.52</speed><time>2016-06-02T14:15:57Z</time><pdop>3.0</pdop><geoidheight>50.00</geoidheight><course>259.0</course><type>1</type></trkpt>
      <trkpt lat="38.43671913" lon="-1.92794193"><ele>925</ele><speed>11.42</speed><time>2016-06-02T14:15:58Z</time><pdop>3.0</pdop><geoidheight>50.00</geoidheight><course>255.5</course><type>1</type></trkpt>
      <trkpt lat="38.4366799" lon="-1.92805815"><ele>927</ele><speed>10.96</speed><time>2016-06-02T14:15:59Z</time><pdop>3.0</pdop><geoidheight>50.00</geoidheight><course>247.8</course><type>1</type></trkpt>
      <trkpt lat="38.43664168" lon="-1.9281533"><ele>928</ele><speed>10.08</speed><time>2016-06-02T14:16:00Z</time><pdop>3.0</pdop><geoidheight>50.00</geoidheight><course>245.7</course><type>1</type></trkpt>
      <trkpt lat="38.43661827" lon="-1.92825711"><ele>928</ele><speed>9.17</speed><time>2016-06-02T14:16:01Z</time><pdop>3.0</pdop><geoidheight>50.00</geoidheight><course>251.2</course><type>1</type></trkpt>
      <trkpt lat="38.4365954" lon="-1.92834864"><ele>929</ele><speed>8.49</speed><time>2016-06-02T14:16:02Z</time><pdop>3.0</pdop><geoidheight>50.00</geoidheight><course>253.9</course><type>1</type></trkpt>
      <trkpt lat="38.43656859" lon="-1.92845368"><ele>929</ele><speed>9.44</speed><time>2016-06-02T14:16:03Z</time><pdop>3.0</pdop><geoidheight>50.00</geoidheight><course>251.6</course><type>1</type></trkpt>
      <trkpt lat="38.436515" lon="-1.92856161"><ele>931</ele><speed>10.50</speed><time>2016-06-02T14:16:04Z</time><pdop>3.0</pdop><geoidheight>50.00</geoidheight><course>242.9</course><type>1</type></trkpt>
      <trkpt lat="38.43646811" lon="-1.92867943"><ele>933</ele><speed>11.00</speed><time>2016-06-02T14:16:05Z</time><pdop>3.0</pdop><geoidheight>50.00</geoidheight><course>244.4</course><type>1</type></trkpt>
      <trkpt lat="38.43642381" lon="-1.92878278"><ele>935</ele><speed>10.60</speed><time>2016-06-02T14:16:06Z</time><pdop>3.0</pdop><geoidheight>50.00</geoidheight><course>246.8</course><type>1</type></trkpt>
      <trkpt lat="38.43638933" lon="-1.92887921"><ele>937</ele><speed>9.67</speed><time>2016-06-02T14:16:07Z</time><pdop>3.0</pdop><geoidheight>50.00</geoidheight><course>246.2</course><type>1</type></trkpt>
      <trkpt lat="38.43634718" lon="-1.92896091"><ele>939</ele><speed>8.71</speed><time>2016-06-02T14:16:08Z</time><pdop>3.0</pdop><geoidheight>50.00</geoidheight><course>239.6</course><type>1</type></trkpt>
      <trkpt lat="38.4362938" lon="-1.92903912"><ele>940</ele><speed>8.56</speed><time>2016-06-02T14:16:09Z</time><pdop>3.0</pdop><geoidheight>50.00</geoidheight><course>229.0</course><type>1</type></trkpt>
      <trkpt lat="38.43623691" lon="-1.92908421"><ele>939</ele><speed>8.48</speed><time>2016-06-02T14:16:10Z</time><pdop>3.0</pdop><geoidheight>50.00</geoidheight><course>215.2</course><type>1</type></trkpt>
      <trkpt lat="38.43617522" lon="-1.92913402"><ele>939</ele><speed>8.15</speed><time>2016-06-02T14:16:11Z</time><pdop>3.0</pdop><geoidheight>50.00</geoidheight><course>211.9</course><type>1</type></trkpt>
      <trkpt lat="38.43610091" lon="-1.92905683"><ele>938</ele><speed>4.81</speed><time>2016-06-02T14:16:13Z</time><pdop>5.0</pdop><geoidheight>50.00</geoidheight><course>153.5</course><type>1</type></trkpt>
      <trkpt lat="38.43608693" lon="-1.92885029"><ele>937</ele><speed>3.45</speed><time>2016-06-02T14:16:17Z</time><pdop>10.0</pdop><geoidheight>50.00</geoidheight><course>95.3</course><type>1</type></trkpt>
      <trkpt lat="38.43631792" lon="-1.92878106"><ele>939</ele><speed>10.26</speed><time>2016-06-02T14:16:18Z</time><pdop>6.0</pdop><geoidheight>50.00</geoidheight><course>25.4</course><type>1</type></trkpt>
      <trkpt lat="38.43650476" lon="-1.92867459"><ele>940</ele><speed>10.28</speed><time>2016-06-02T14:16:20Z</time><pdop>5.0</pdop><geoidheight>50.00</geoidheight><course>26.0</course><type>1</type></trkpt>
      <trkpt lat="38.43666362" lon="-1.92854094"><ele>942</ele><speed>10.04</speed><time>2016-06-02T14:16:22Z</time><pdop>5.0</pdop><geoidheight>50.00</geoidheight><course>32.9</course><type>1</type></trkpt>
      <trkpt lat="38.43678373" lon="-1.92840922"><ele>944</ele><speed>8.83</speed><time>2016-06-02T14:16:24Z</time><pdop>5.0</pdop><geoidheight>50.00</geoidheight><course>43.4</course><type>1</type></trkpt>
      <trkpt lat="38.43686141" lon="-1.92817914"><ele>946</ele><speed>9.61</speed><time>2016-06-02T14:16:26Z</time><pdop>7.0</pdop><geoidheight>50.00</geoidheight><course>60.1</course><type>1</type></trkpt>
      <trkpt lat="38.43677308" lon="-1.92800947"><ele>948</ele><speed>7.00</speed><time>2016-06-02T14:16:28Z</time><pdop>8.0</pdop><geoidheight>50.00</geoidheight><course>103.3</course><type>1</type></trkpt>
      <trkpt lat="38.43686262" lon="-1.92844248"><ele>949</ele><speed>10.19</speed><time>2016-06-02T14:16:34Z</time><pdop>10.0</pdop><geoidheight>50.00</geoidheight><course>316.1</course><type>1</type></trkpt>
      <trkpt lat="38.43696397" lon="-1.92870333"><ele>951</ele><speed>9.71</speed><time>2016-06-02T14:16:36Z</time><pdop>9.0</pdop><geoidheight>50.00</geoidheight><course>300.9</course><type>1</type></trkpt>
      <trkpt lat="38.4369064" lon="-1.92887429"><ele>951</ele><speed>9.18</speed><time>2016-06-02T14:16:37Z</time><pdop>7.0</pdop><geoidheight>50.00</geoidheight><course>259.9</course><type>1</type></trkpt>
      <trkpt lat="38.43682773" lon="-1.92908777"><ele>953</ele><speed>8.05</speed><time>2016-06-02T14:16:39Z</time><pdop>7.0</pdop><geoidheight>50.00</geoidheight><course>242.3</course><type>1</type></trkpt>
      <trkpt lat="38.43671899" lon="-1.92923955"><ele>957</ele><speed>7.68</speed><time>2016-06-02T14:16:41Z</time><pdop>8.0</pdop><geoidheight>50.00</geoidheight><course>225.9</course><type>1</type></trkpt>
      <trkpt lat="38.43657425" lon="-1.92936334"><ele>962</ele><speed>4.92</speed><time>2016-06-02T14:16:44Z</time><pdop>11.0</pdop><geoidheight>50.00</geoidheight><course>206.0</course><type>1</type></trkpt>
      <trkpt lat="38.43672555" lon="-1.92905659"><ele>970</ele><speed>6.11</speed><time>2016-06-02T14:16:49Z</time><pdop>13.0</pdop><geoidheight>50.00</geoidheight><course>28.0</course><type>1</type></trkpt>
      <trkpt lat="38.4369499" lon="-1.92892667"><ele>972</ele><speed>8.18</speed><time>2016-06-02T14:16:52Z</time><pdop>6.0</pdop><geoidheight>50.00</geoidheight><course>33.2</course><type>1</type></trkpt>
      <trkpt lat="38.43704348" lon="-1.92874068"><ele>973</ele><speed>9.48</speed><time>2016-06-02T14:16:54Z</time><pdop>5.0</pdop><geoidheight>50.00</geoidheight><course>54.6</course><type>1</type></trkpt>
      <trkpt lat="38.43709606" lon="-1.92857437"><ele>975</ele><speed>7.89</speed><time>2016-06-02T14:16:56Z</time><pdop>4.0</pdop><geoidheight>50.00</geoidheight><course>74.3</course><type>1</type></trkpt>
      <trkpt lat="38.43711747" lon="-1.9284029"><ele>978</ele><speed>7.25</speed><time>2016-06-02T14:16:58Z</time><pdop>5.0</pdop><geoidheight>50.00</geoidheight><course>81.6</course><type>1</type></trkpt>
      <trkpt lat="38.43710595" lon="-1.92818247"><ele>979</ele><speed>6.40</speed><time>2016-06-02T14:17:01Z</time><pdop>10.0</pdop><geoidheight>50.00</geoidheight><course>99.7</course><type>1</type></trkpt>
      <trkpt lat="38.43703823" lon="-1.92800034"><ele>982</ele><speed>6.27</speed><time>2016-06-02T14:17:04Z</time><pdop>7.0</pdop><geoidheight>50.00</geoidheight><course>115.6</course><type>1</type></trkpt>
      <trkpt lat="38.43692068" lon="-1.92806562"><ele>990</ele><speed>4.82</speed><time>2016-06-02T14:17:10Z</time><pdop>7.0</pdop><geoidheight>50.00</geoidheight><course>213.6</course><type>1</type></trkpt>
      <trkpt lat="38.43688107" lon="-1.92829825"><ele>991</ele><speed>11.18</speed><time>2016-06-02T14:17:11Z</time><pdop>7.0</pdop><geoidheight>50.00</geoidheight><course>242.1</course><type>1</type></trkpt>
      <trkpt lat="38.43687257" lon="-1.92847903"><ele>991</ele><speed>12.37</speed><time>2016-06-02T14:17:12Z</time><pdop>7.0</pdop><geoidheight>50.00</geoidheight><course>252.0</course><type>1</type></trkpt>
      <trkpt lat="38.4369122" lon="-1.92870812"><ele>992</ele><speed>14.96</speed><time>2016-06-02T14:17:13Z</time><pdop>9.0</pdop><geoidheight>50.00</geoidheight><course>266.5</course><type>1</type></trkpt>
      <trkpt lat="38.437088" lon="-1.92886077"><ele>993</ele><speed>9.92</speed><time>2016-06-02T14:17:15Z</time><pdop>12.0</pdop><geoidheight>50.00</geoidheight><course>296.0</course><type>1</type></trkpt>
      <trkpt lat="38.43739314" lon="-1.92875906"><ele>995</ele><speed>4.20</speed><time>2016-06-02T14:17:19Z</time><pdop>18.0</pdop><geoidheight>50.00</geoidheight><course>353.4</course><type>1</type></trkpt>
      <trkpt lat="38.43739769" lon="-1.92908842"><ele>1010</ele><speed>10.84</speed><time>2016-06-02T14:17:27Z</time><pdop>7.0</pdop><geoidheight>50.00</geoidheight><course>274.5</course><type>1</type></trkpt>
      <trkpt lat="38.43752315" lon="-1.92933013"><ele>1013</ele><speed>10.59</speed><time>2016-06-02T14:17:29Z</time><pdop>10.0</pdop><geoidheight>50.00</geoidheight><course>294.5</course><type>1</type></trkpt>
      <trkpt lat="38.43781607" lon="-1.92912242"><ele>1019</ele><speed>12.50</speed><time>2016-06-02T14:17:31Z</time><pdop>8.0</pdop><geoidheight>50.00</geoidheight><course>33.5</course><type>1</type></trkpt>
      <trkpt lat="38.43798902" lon="-1.92893571"><ele>1021</ele><speed>12.19</speed><time>2016-06-02T14:17:33Z</time><pdop>9.0</pdop><geoidheight>50.00</geoidheight><course>44.9</course><type>1</type></trkpt>
      <trkpt lat="38.43811318" lon="-1.92876072"><ele>1024</ele><speed>10.11</speed><time>2016-06-02T14:17:35Z</time><pdop>9.0</pdop><geoidheight>50.00</geoidheight><course>44.3</course><type>1</type></trkpt>
      <trkpt lat="38.43795238" lon="-1.92873264"><ele>1031</ele><speed>4.33</speed><time>2016-06-02T14:17:39Z</time><pdop>9.0</pdop><geoidheight>50.00</geoidheight><course>185.3</course><type>1</type></trkpt>
      <trkpt lat="38.43781339" lon="-1.92885918"><ele>1028</ele><speed>7.14</speed><time>2016-06-02T14:17:41Z</time><pdop>8.0</pdop><geoidheight>50.00</geoidheight><course>212.6</course><type>1</type></trkpt>
      <trkpt lat="38.43781603" lon="-1.929098"><ele>1028</ele><speed>7.31</speed><time>2016-06-02T14:17:43Z</time><pdop>10.0</pdop><geoidheight>50.00</geoidheight><course>254.3</course><type>1</type></trkpt>
      <trkpt lat="38.43787893" lon="-1.92930409"><ele>1028</ele><speed>9.64</speed><time>2016-06-02T14:17:44Z</time><pdop>9.0</pdop><geoidheight>50.00</geoidheight><course>272.9</course><type>1</type></trkpt>
      <trkpt lat="38.43802163" lon="-1.92952609"><ele>1028</ele><speed>10.05</speed><time>2016-06-02T14:17:46Z</time><pdop>13.0</pdop><geoidheight>50.00</geoidheight><course>293.9</course><type>1</type></trkpt>
      <trkpt lat="38.43835324" lon="-1.92957113"><ele>1032</ele><speed>12.17</speed><time>2016-06-02T14:17:48Z</time><pdop>14.0</pdop><geoidheight>50.00</geoidheight><course>335.4</course><type>1</type></trkpt>
      <trkpt lat="38.43856966" lon="-1.9293923"><ele>1035</ele><speed>9.88</speed><time>2016-06-02T14:17:50Z</time><pdop>13.0</pdop><geoidheight>50.00</geoidheight><course>7.1</course><type>1</type></trkpt>
      <trkpt lat="38.43845887" lon="-1.92960293"><ele>1050</ele><speed>10.58</speed><time>2016-06-02T14:17:58Z</time><pdop>6.0</pdop><geoidheight>50.00</geoidheight><course>275.7</course><type>1</type></trkpt>
      <trkpt lat="38.43849225" lon="-1.92974005"><ele>1052</ele><speed>11.24</speed><time>2016-06-02T14:17:59Z</time><pdop>6.0</pdop><geoidheight>50.00</geoidheight><course>285.2</course><type>1</type></trkpt>
      <trkpt lat="38.43853712" lon="-1.92987841"><ele>1053</ele><speed>12.15</speed><time>2016-06-02T14:18:00Z</time><pdop>6.0</pdop><geoidheight>50.00</geoidheight><course>288.8</course><type>1</type></trkpt>
      <trkpt lat="38.4387672" lon="-1.93001745"><ele>1057</ele><speed>11.83</speed><time>2016-06-02T14:18:02Z</time><pdop>9.0</pdop><geoidheight>50.00</geoidheight><course>319.5</course><type>1</type></trkpt>
      <trkpt lat="38.43895365" lon="-1.92997217"><ele>1061</ele><speed>13.56</speed><time>2016-06-02T14:18:03Z</time><pdop>10.0</pdop><geoidheight>50.00</geoidheight><course>345.6</course><type>1</type></trkpt>
      <trkpt lat="38.43918328" lon="-1.92981192"><ele>1067</ele><speed>12.64</speed><time>2016-06-02T14:18:05Z</time><pdop>14.0</pdop><geoidheight>50.00</geoidheight><course>10.7</course><type>1</type></trkpt>
      <trkpt lat="38.43923061" lon="-1.92947192"><ele>1071</ele><speed>7.18</speed><time>2016-06-02T14:18:08Z</time><pdop>14.0</pdop><geoidheight>50.00</geoidheight><course>44.9</course><type>1</type></trkpt>
      <trkpt lat="38.43901248" lon="-1.92932365"><ele>1079</ele><speed>4.50</speed><time>2016-06-02T14:18:11Z</time><pdop>12.0</pdop><geoidheight>50.00</geoidheight><course>152.1</course><type>1</type></trkpt>
      <trkpt lat="38.43888752" lon="-1.92951666"><ele>1089</ele><speed>7.18</speed><time>2016-06-02T14:18:15Z</time><pdop>6.0</pdop><geoidheight>50.00</geoidheight><course>259.8</course><type>1</type></trkpt>
      <trkpt lat="38.43896322" lon="-1.92978302"><ele>1096</ele><speed>13.74</speed><time>2016-06-02T14:18:17Z</time><pdop>5.0</pdop><geoidheight>50.00</geoidheight><course>299.4</course><type>1</type></trkpt>
      <trkpt lat="38.43904562" lon="-1.92993843"><ele>1097</ele><speed>15.75</speed><time>2016-06-02T14:18:18Z</time><pdop>5.0</pdop><geoidheight>50.00</geoidheight><course>302.9</course><type>1</type></trkpt>
      <trkpt lat="38.43913186" lon="-1.93006873"><ele>1099</ele><speed>15.68</speed><time>2016-06-02T14:18:19Z</time><pdop>6.0</pdop><geoidheight>50.00</geoidheight><course>306.3</course><type>1</type></trkpt>
      <trkpt lat="38.43933961" lon="-1.93009881"><ele>1107</ele><speed>11.66</speed><time>2016-06-02T14:18:21Z</time><pdop>8.0</pdop><geoidheight>50.00</geoidheight><course>338.9</course><type>1</type></trkpt>
      <trkpt lat="38.43952382" lon="-1.9299397"><ele>1108</ele><speed>10.09</speed><time>2016-06-02T14:18:23Z</time><pdop>11.0</pdop><geoidheight>50.00</geoidheight><course>12.3</course><type>1</type></trkpt>
      <trkpt lat="38.43959919" lon="-1.93030094"><ele>1116</ele><speed>7.96</speed><time>2016-06-02T14:18:32Z</time><pdop>14.0</pdop><geoidheight>50.00</geoidheight><course>303.1</course><type>1</type></trkpt>
      <trkpt lat="38.4399464" lon="-1.93031867"><ele>1123</ele><speed>9.83</speed><time>2016-06-02T14:18:35Z</time><pdop>12.0</pdop><geoidheight>50.00</geoidheight><course>355.1</course><type>1</type></trkpt>
      <trkpt lat="38.44013369" lon="-1.93007107"><ele>1131</ele><speed>7.65</speed><time>2016-06-02T14:18:38Z</time><pdop>13.0</pdop><geoidheight>50.00</geoidheight><course>20.8</course><type>1</type></trkpt>
      <trkpt lat="38.4402263" lon="-1.93043711"><ele>1141</ele><speed>11.08</speed><time>2016-06-02T14:18:44Z</time><pdop>12.0</pdop><geoidheight>50.00</geoidheight><course>307.5</course><type>1</type></trkpt>
      <trkpt lat="38.44048364" lon="-1.93072848"><ele>1148</ele><speed>11.96</speed><time>2016-06-02T14:18:47Z</time><pdop>13.0</pdop><geoidheight>50.00</geoidheight><course>330.5</course><type>1</type></trkpt>
      <trkpt lat="38.44076253" lon="-1.93081575"><ele>1158</ele><speed>10.50</speed><time>2016-06-02T14:18:50Z</time><pdop>18.0</pdop><geoidheight>50.00</geoidheight><course>343.9</course><type>1</type></trkpt>
      <trkpt lat="38.4406556" lon="-1.93038681"><ele>1170</ele><speed>4.35</speed><time>2016-06-02T14:18:56Z</time><pdop>12.0</pdop><geoidheight>50.00</geoidheight><course>196.4</course><type>1</type></trkpt>
      <trkpt lat="38.44052357" lon="-1.93054681"><ele>1182</ele><speed>7.44</speed><time>2016-06-02T14:19:00Z</time><pdop>5.0</pdop><geoidheight>50.00</geoidheight><course>253.6</course><type>1</type></trkpt>
      <trkpt lat="38.4405533" lon="-1.93077079"><ele>1184</ele><speed>8.91</speed><time>2016-06-02T14:19:02Z</time><pdop>6.0</pdop><geoidheight>50.00</geoidheight><course>273.5</course><type>1</type></trkpt>
      <trkpt lat="38.44067624" lon="-1.93098834"><ele>1188</ele><speed>11.60</speed><time>2016-06-02T14:19:04Z</time><pdop>4.0</pdop><geoidheight>50.00</geoidheight><course>307.4</course><type>1</type></trkpt>
      <trkpt lat="38.44075066" lon="-1.9311019"><ele>1189</ele><speed>12.42</speed><time>2016-06-02T14:19:05Z</time><pdop>5.0</pdop><geoidheight>50.00</geoidheight><course>311.2</course><type>1</type></trkpt>
      <trkpt lat="38.44083125" lon="-1.93121009"><ele>1190</ele><speed>12.83</speed><time>2016-06-02T14:19:06Z</time><pdop>6.0</pdop><geoidheight>50.00</geoidheight><course>312.8</course><type>1</type></trkpt>
      <trkpt lat="38.44093718" lon="-1.9312811"><ele>1194</ele><speed>13.00</speed><time>2016-06-02T14:19:07Z</time><pdop>7.0</pdop><geoidheight>50.00</geoidheight><course>322.7</course><type>1</type></trkpt>
      <trkpt lat="38.44114664" lon="-1.93132311"><ele>1200</ele><speed>11.56</speed><time>2016-06-02T14:19:09Z</time><pdop>9.0</pdop><geoidheight>50.00</geoidheight><course>343.6</course><type>1</type></trkpt>
      <trkpt lat="38.44135803" lon="-1.93121362"><ele>1204</ele><speed>7.09</speed><time>2016-06-02T14:19:12Z</time><pdop>10.0</pdop><geoidheight>50.00</geoidheight><course>12.5</course><type>1</type></trkpt>
      <trkpt lat="38.44142793" lon="-1.93093422"><ele>1208</ele><speed>7.75</speed><time>2016-06-02T14:19:14Z</time><pdop>9.0</pdop><geoidheight>50.00</geoidheight><course>45.1</course><type>1</type></trkpt>
      <trkpt lat="38.44129388" lon="-1.93086428"><ele>1211</ele><speed>4.32</speed><time>2016-06-02T14:19:16Z</time><pdop>7.0</pdop><geoidheight>50.00</geoidheight><course>127.9</course><type>1</type></trkpt>
      <trkpt lat="38.44132233" lon="-1.93108026"><ele>1216</ele><speed>3.69</speed><time>2016-06-02T14:19:19Z</time><pdop>10.0</pdop><geoidheight>50.00</geoidheight><course>290.7</course><type>1</type></trkpt>
      <trkpt lat="38.44142784" lon="-1.93146339"><ele>1219</ele><speed>10.80</speed><time>2016-06-02T14:19:21Z</time><pdop>9.0</pdop><geoidheight>50.00</geoidheight><course>293.3</course><type>1</type></trkpt>
      <trkpt lat="38.44159447" lon="-1.93171461"><ele>1226</ele><speed>11.78</speed><time>2016-06-02T14:19:23Z</time><pdop>9.0</pdop><geoidheight>50.00</geoidheight><course>307.3</course><type>1</type></trkpt>
      <trkpt lat="38.44185381" lon="-1.93173816"><ele>1232</ele><speed>11.91</speed><time>2016-06-02T14:19:25Z</time><pdop>10.0</pdop><geoidheight>50.00</geoidheight><course>339.3</course><type>1</type></trkpt>
      <trkpt lat="38.44205757" lon="-1.93141353"><ele>1239</ele><speed>9.72</speed><time>2016-06-02T14:19:28Z</time><pdop>15.0</pdop><geoidheight>50.00</geoidheight><course>32.1</course><type>1</type></trkpt>
      <trkpt lat="38.44196666" lon="-1.93115205"><ele>1246</ele><speed>1.56</speed><time>2016-06-02T14:19:31Z</time><pdop>9.0</pdop><geoidheight>50.00</geoidheight><course>105.0</course><type>1</type></trkpt>
      <trkpt lat="38.44189051" lon="-1.93135015"><ele>1251</ele><speed>7.11</speed><time>2016-06-02T14:19:34Z</time><pdop>7.0</pdop><geoidheight>50.00</geoidheight><course>248.4</course><type>1</type></trkpt>
      <trkpt lat="38.44192403" lon="-1.93158146"><ele>1255</ele><speed>9.40</speed><time>2016-06-02T14:19:36Z</time><pdop>8.0</pdop><geoidheight>50.00</geoidheight><course>282.2</course><type>1</type></trkpt>
      <trkpt lat="38.44212837" lon="-1.93181182"><ele>1258</ele><speed>11.02</speed><time>2016-06-02T14:19:38Z</time><pdop>10.0</pdop><geoidheight>50.00</geoidheight><course>311.1</course><type>1</type></trkpt>
      <trkpt lat="38.44237771" lon="-1.93175429"><ele>1261</ele><speed>10.37</speed><time>2016-06-02T14:19:40Z</time><pdop>8.0</pdop><geoidheight>50.00</geoidheight><course>355.0</course><type>1</type></trkpt>
      <trkpt lat="38.44254141" lon="-1.93170531"><ele>1265</ele><speed>6.46</speed><time>2016-06-02T14:19:42Z</time><pdop>10.0</pdop><geoidheight>50.00</geoidheight><course>5.1</course><type>1</type></trkpt>
      <trkpt lat="38.44254723" lon="-1.93140252"><ele>1266</ele><speed>6.62</speed><time>2016-06-02T14:19:44Z</time><pdop>11.0</pdop><geoidheight>50.00</geoidheight><course>75.5</course><type>1</type></trkpt>
      <trkpt lat="38.44254531" lon="-1.93109249"><ele>1275</ele><speed>6.40</speed><time>2016-06-02T14:19:47Z</time><pdop>12.0</pdop><geoidheight>50.00</geoidheight><course>95.3</course><type>1</type></trkpt>
      <trkpt lat="38.44269576" lon="-1.93147832"><ele>1276</ele><speed>7.65</speed><time>2016-06-02T14:19:53Z</time><pdop>15.0</pdop><geoidheight>50.00</geoidheight><course>317.8</course><type>1</type></trkpt>
      <trkpt lat="38.4430098" lon="-1.93183682"><ele>1281</ele><speed>12.28</speed><time>2016-06-02T14:19:56Z</time><pdop>14.0</pdop><geoidheight>50.00</geoidheight><course>332.7</course><type>1</type></trkpt>
      <trkpt lat="38.44320758" lon="-1.93161735"><ele>1287</ele><speed>7.56</speed><time>2016-06-02T14:19:59Z</time><pdop>15.0</pdop><geoidheight>50.00</geoidheight><course>24.4</course><type>1</type></trkpt>
      <trkpt lat="38.44330886" lon="-1.93127279"><ele>1291</ele><speed>10.20</speed><time>2016-06-02T14:20:01Z</time><pdop>11.0</pdop><geoidheight>50.00</geoidheight><course>54.0</course><type>1</type></trkpt>
      <trkpt lat="38.44311088" lon="-1.93110135"><ele>1298</ele><speed>6.72</speed><time>2016-06-02T14:20:06Z</time><pdop>7.0</pdop><geoidheight>50.00</geoidheight><course>176.2</course><type>1</type></trkpt>
      <trkpt lat="38.44311246" lon="-1.93144437"><ele>1301</ele><speed>8.20</speed><time>2016-06-02T14:20:11Z</time><pdop>7.0</pdop><geoidheight>50.00</geoidheight><course>284.9</course><type>1</type></trkpt>
      <trkpt lat="38.44320991" lon="-1.93162886"><ele>1306</ele><speed>6.92</speed><time>2016-06-02T14:20:13Z</time><pdop>7.0</pdop><geoidheight>50.00</geoidheight><course>302.8</course><type>1</type></trkpt>
      <trkpt lat="38.44335655" lon="-1.93172528"><ele>1310</ele><speed>6.98</speed><time>2016-06-02T14:20:15Z</time><pdop>10.0</pdop><geoidheight>50.00</geoidheight><course>329.6</course><type>1</type></trkpt>
      <trkpt lat="38.44370631" lon="-1.93171008"><ele>1314</ele><speed>12.80</speed><time>2016-06-02T14:20:17Z</time><pdop>10.0</pdop><geoidheight>50.00</geoidheight><course>358.4</course><type>1</type></trkpt>
      <trkpt lat="38.44389316" lon="-1.93157129"><ele>1316</ele><speed>11.10</speed><time>2016-06-02T14:20:19Z</time><pdop>12.0</pdop><geoidheight>50.00</geoidheight><course>12.3</course><type>1</type></trkpt>
      <trkpt lat="38.44395696" lon="-1.9312098"><ele>1318</ele><speed>10.31</speed><time>2016-06-02T14:20:21Z</time><pdop>12.0</pdop><geoidheight>50.00</geoidheight><course>48.9</course><type>1</type></trkpt>
      <trkpt lat="38.4440008" lon="-1.93140815"><ele>1322</ele><speed>10.18</speed><time>2016-06-02T14:20:29Z</time><pdop>5.0</pdop><geoidheight>50.00</geoidheight><course>331.3</course><type>1</type></trkpt>
      <trkpt lat="38.44407867" lon="-1.93147227"><ele>1326</ele><speed>10.24</speed><time>2016-06-02T14:20:30Z</time><pdop>5.0</pdop><geoidheight>50.00</geoidheight><course>333.3</course><type>1</type></trkpt>
      <trkpt lat="38.44421158" lon="-1.93160752"><ele>1331</ele><speed>10.21</speed><time>2016-06-02T14:20:32Z</time><pdop>6.0</pdop><geoidheight>50.00</geoidheight><course>331.8</course><type>1</type></trkpt>
      <trkpt lat="38.44436943" lon="-1.9317329"><ele>1336</ele><speed>10.10</speed><time>2016-06-02T14:20:34Z</time><pdop>6.0</pdop><geoidheight>50.00</geoidheight><course>335.6</course><type>1</type></trkpt>
      <trkpt lat="38.44448481" lon="-1.93162952"><ele>1338</ele><speed>10.81</speed><time>2016-06-02T14:20:35Z</time><pdop>6.0</pdop><geoidheight>50.00</geoidheight><course>3.4</course><type>1</type></trkpt>
      <trkpt lat="38.44449947" lon="-1.93144208"><ele>1338</ele><speed>10.33</speed><time>2016-06-02T14:20:36Z</time><pdop>4.0</pdop><geoidheight>50.00</geoidheight><course>51.7</course><type>1</type></trkpt>
      <trkpt lat="38.44454964" lon="-1.93135722"><ele>1339</ele><speed>10.19</speed><time>2016-06-02T14:20:37Z</time><pdop>5.0</pdop><geoidheight>50.00</geoidheight><course>56.6</course><type>1</type></trkpt>
      <trkpt lat="38.44457521" lon="-1.93123712"><ele>1339</ele><speed>10.38</speed><time>2016-06-02T14:20:38Z</time><pdop>5.0</pdop><geoidheight>50.00</geoidheight><course>67.0</course><type>1</type></trkpt>
      <trkpt lat="38.4445159" lon="-1.93110744"><ele>1338</ele><speed>7.23</speed><time>2016-06-02T14:20:40Z</time><pdop>5.0</pdop><geoidheight>50.00</geoidheight><course>112.4</course><type>1</type></trkpt>
      <trkpt lat="38.44440443" lon="-1.93098521"><ele>1339</ele><speed>7.41</speed><time>2016-06-02T14:20:42Z</time><pdop>5.0</pdop><geoidheight>50.00</geoidheight><course>144.3</course><type>1</type></trkpt>
      <trkpt lat="38.44430325" lon="-1.93113189"><ele>1339</ele><speed>8.81</speed><time>2016-06-02T14:20:44Z</time><pdop>5.0</pdop><geoidheight>50.00</geoidheight><course>214.3</course><type>1</type></trkpt>
      <trkpt lat="38.44417262" lon="-1.93124506"><ele>1340</ele><speed>8.67</speed><time>2016-06-02T14:20:46Z</time><pdop>5.0</pdop><geoidheight>50.00</geoidheight><course>221.4</course><type>1</type></trkpt>
      <trkpt lat="38.44408209" lon="-1.93139608"><ele>1341</ele><speed>8.67</speed><time>2016-06-02T14:20:48Z</time><pdop>4.0</pdop><geoidheight>50.00</geoidheight><course>230.1</course><type>1</type></trkpt>
      <trkpt lat="38.44403867" lon="-1.93157112"><ele>1343</ele><speed>7.81</speed><time>2016-06-02T14:20:50Z</time><pdop>3.0</pdop><geoidheight>50.00</geoidheight><course>258.6</course><type>1</type></trkpt>
      <trkpt lat="38.44402597" lon="-1.93167248"><ele>1346</ele><speed>8.63</speed><time>2016-06-02T14:20:51Z</time><pdop>3.0</pdop><geoidheight>50.00</geoidheight><course>263.8</course><type>1</type></trkpt>
      <trkpt lat="38.44401811" lon="-1.93177702"><ele>1348</ele><speed>8.98</speed><time>2016-06-02T14:20:52Z</time><pdop>3.0</pdop><geoidheight>50.00</geoidheight><course>264.5</course><type>1</type></trkpt>
      <trkpt lat="38.44400862" lon="-1.93186551"><ele>1348</ele><speed>8.28</speed><time>2016-06-02T14:20:53Z</time><pdop>3.0</pdop><geoidheight>50.00</geoidheight><course>261.3</course><type>1</type></trkpt>
      <trkpt lat="38.44399719" lon="-1.93194673"><ele>1349</ele><speed>7.57</speed><time>2016-06-02T14:20:54Z</time><pdop>3.0</pdop><geoidheight>50.00</geoidheight><course>258.3</course><type>1</type></trkpt>
      <trkpt lat="38.44396766" lon="-1.932029"><ele>1349</ele><speed>7.59</speed><time>2016-06-02T14:20:55Z</time><pdop>3.0</pdop><geoidheight>50.00</geoidheight><course>250.2</course><type>1</type></trkpt>
      <trkpt lat="38.44394172" lon="-1.93211422"><ele>1349</ele><speed>7.52</speed><time>2016-06-02T14:20:56Z</time><pdop>3.0</pdop><geoidheight>50.00</geoidheight><course>245.9</course><type>1</type></trkpt>
      <trkpt lat="38.44390808" lon="-1.9321907"><ele>1349</ele><speed>7.18</speed><time>2016-06-02T14:20:57Z</time><pdop>3.0</pdop><geoidheight>50.00</geoidheight><course>241.9</course><type>1</type></trkpt>
      <trkpt lat="38.44381285" lon="-1.93229642"><ele>1351</ele><speed>6.53</speed><time>2016-06-02T14:20:59Z</time><pdop>6.0</pdop><geoidheight>50.00</geoidheight><course>226.7</course><type>1</type></trkpt>
      <trkpt lat="38.44365758" lon="-1.93219077"><ele>1350</ele><speed>6.35</speed><time>2016-06-02T14:21:02Z</time><pdop>6.0</pdop><geoidheight>50.00</geoidheight><course>144.6</course><type>1</type></trkpt>
      <trkpt lat="38.44357904" lon="-1.9320787"><ele>1348</ele><speed>6.38</speed><time>2016-06-02T14:21:04Z</time><pdop>5.0</pdop><geoidheight>50.00</geoidheight><course>131.5</course><type>1</type></trkpt>
      <trkpt lat="38.44349294" lon="-1.9319318"><ele>1346</ele><speed>7.64</speed><time>2016-06-02T14:21:06Z</time><pdop>6.0</pdop><geoidheight>50.00</geoidheight><course>120.1</course><type>1</type></trkpt>
      <trkpt lat="38.44347243" lon="-1.93174158"><ele>1342</ele><speed>8.25</speed><time>2016-06-02T14:21:08Z</time><pdop>7.0</pdop><geoidheight>50.00</geoidheight><course>105.8</course><type>1</type></trkpt>
      <trkpt lat="38.44373144" lon="-1.93154667"><ele>1338</ele><speed>11.11</speed><time>2016-06-02T14:21:10Z</time><pdop>8.0</pdop><geoidheight>50.00</geoidheight><course>43.5</course><type>1</type></trkpt>
      <trkpt lat="38.44394994" lon="-1.93164872"><ele>1332</ele><speed>10.06</speed><time>2016-06-02T14:21:12Z</time><pdop>4.0</pdop><geoidheight>50.00</geoidheight><course>357.9</course><type>1</type></trkpt>
      <trkpt lat="38.4440407" lon="-1.93166336"><ele>1329</ele><speed>9.42</speed><time>2016-06-02T14:21:13Z</time><pdop>4.0</pdop><geoidheight>50.00</geoidheight><course>355.7</course><type>1</type></trkpt>
      <trkpt lat="38.44412571" lon="-1.93167903"><ele>1328</ele><speed>9.63</speed><time>2016-06-02T14:21:14Z</time><pdop>4.0</pdop><geoidheight>50.00</geoidheight><course>353.4</course><type>1</type></trkpt>
      <trkpt lat="38.44421292" lon="-1.93170143"><ele>1327</ele><speed>9.99</speed><time>2016-06-02T14:21:15Z</time><pdop>4.0</pdop><geoidheight>50.00</geoidheight><course>349.8</course><type>1</type></trkpt>
      <trkpt lat="38.44432424" lon="-1.93177483"><ele>1326</ele><speed>11.49</speed><time>2016-06-02T14:21:16Z</time><pdop>5.0</pdop><geoidheight>50.00</geoidheight><course>336.4</course><type>1</type></trkpt>
      <trkpt lat="38.44440774" lon="-1.93188821"><ele>1325</ele><speed>12.85</speed><time>2016-06-02T14:21:17Z</time><pdop>6.0</pdop><geoidheight>50.00</geoidheight><course>322.7</course><type>1</type></trkpt>
      <trkpt lat="38.44446397" lon="-1.93205157"><ele>1324</ele><speed>13.70</speed><time>2016-06-02T14:21:18Z</time><pdop>6.0</pdop><geoidheight>50.00</geoidheight><course>306.2</course><type>1</type></trkpt>
      <trkpt lat="38.44451073" lon="-1.9321854"><ele>1323</ele><speed>12.59</speed><time>2016-06-02T14:21:19Z</time><pdop>4.0</pdop><geoidheight>50.00</geoidheight><course>299.4</course><type>1</type></trkpt>
      <trkpt lat="38.4445553" lon="-1.93232969"><ele>1323</ele><speed>12.73</speed><time>2016-06-02T14:21:20Z</time><pdop>4.0</pdop><geoidheight>50.00</geoidheight><course>297.7</course><type>1</type></trkpt>
      <trkpt lat="38.4446212" lon="-1.9324751"><ele>1322</ele><speed>13.18</speed><time>2016-06-02T14:21:21Z</time><pdop>9.0</pdop><geoidheight>50.00</geoidheight><course>298.7</course><type>1</type></trkpt>
      <trkpt lat="38.44477749" lon="-1.93271979"><ele>1403</ele><speed>13.51</speed><time>2016-06-02T14:21:23Z</time><pdop>10.0</pdop><geoidheight>50.00</geoidheight><course>305.4</course><type>1</type></trkpt>
      <trkpt lat="38.44492234" lon="-1.93296204"><ele>1365</ele><speed>12.90</speed><time>2016-06-02T14:21:25Z</time><pdop>9.0</pdop><geoidheight>50.00</geoidheight><course>307.1</course><type>1</type></trkpt>
      <trkpt lat="38.44499907" lon="-1.93320405"><ele>1350</ele><speed>11.49</speed><time>2016-06-02T14:21:27Z</time><pdop>10.0</pdop><geoidheight>50.00</geoidheight><course>290.6</course><type>1</type></trkpt>
      <trkpt lat="38.44496433" lon="-1.9335168"><ele>1337</ele><speed>12.63</speed><time>2016-06-02T14:21:29Z</time><pdop>10.0</pdop><geoidheight>50.00</geoidheight><course>265.0</course><type>1</type></trkpt>
      <trkpt lat="38.44493999" lon="-1.93372684"><ele>1334</ele><speed>9.08</speed><time>2016-06-02T14:21:31Z</time><pdop>5.0</pdop><geoidheight>50.00</geoidheight><course>254.3</course><type>1</type></trkpt>
      <trkpt lat="38.44491786" lon="-1.9339264"><ele>1331</ele><speed>8.88</speed><time>2016-06-02T14:21:33Z</time><pdop>6.0</pdop><geoidheight>50.00</geoidheight><course>263.4</course><type>1</type></trkpt>
      <trkpt lat="38.44489612" lon="-1.93416205"><ele>1322</ele><speed>9.72</speed><time>2016-06-02T14:21:35Z</time><pdop>5.0</pdop><geoidheight>50.00</geoidheight><course>264.1</course><type>1</type></trkpt>
      <trkpt lat="38.44488884" lon="-1.93438951"><ele>1316</ele><speed>9.80</speed><time>2016-06-02T14:21:37Z</time><pdop>5.0</pdop><geoidheight>50.00</geoidheight><course>270.2</course><type>1</type></trkpt>
      <trkpt lat="38.44491317" lon="-1.93460057"><ele>1312</ele><speed>8.80</speed><time>2016-06-02T14:21:39Z</time><pdop>4.0</pdop><geoidheight>50.00</geoidheight><course>273.2</course><type>1</type></trkpt>
      <trkpt lat="38.44491609" lon="-1.93471049"><ele>1313</ele><speed>8.83</speed><time>2016-06-02T14:21:40Z</time><pdop>4.0</pdop><geoidheight>50.00</geoidheight><course>275.5</course><type>1</type></trkpt>
      <trkpt lat="38.44492739" lon="-1.93481874"><ele>1312</ele><speed>9.57</speed><time>2016-06-02T14:21:41Z</time><pdop>5.0</pdop><geoidheight>50.00</geoidheight><course>278.1</course><type>1</type></trkpt>
      <trkpt lat="38.44496822" lon="-1.9350179"><ele>1310</ele><speed>10.49</speed><time>2016-06-02T14:21:43Z</time><pdop>6.0</pdop><geoidheight>50.00</geoidheight><course>281.5</course><type>1</type></trkpt>
      <trkpt lat="38.44498633" lon="-1.93518091"><ele>1308</ele><speed>11.90</speed><time>2016-06-02T14:21:44Z</time><pdop>5.0</pdop><geoidheight>50.00</geoidheight><course>276.5</course><type>1</type></trkpt>
      <trkpt lat="38.44498268" lon="-1.93531735"><ele>1305</ele><speed>12.18</speed><time>2016-06-02T14:21:45Z</time><pdop>5.0</pdop><geoidheight>50.00</geoidheight><course>270.0</course><type>1</type></trkpt>
      <trkpt lat="38.44492133" lon="-1.93546358"><ele>1305</ele><speed>13.25</speed><time>2016-06-02T14:21:46Z</time><pdop>5.0</pdop><geoidheight>50.00</geoidheight><course>252.3</course><type>1</type></trkpt>
      <trkpt lat="38.44488304" lon="-1.93558451"><ele>1304</ele><speed>12.07</speed><time>2016-06-02T14:21:47Z</time><pdop>5.0</pdop><geoidheight>50.00</geoidheight><course>246.7</course><type>1</type></trkpt>
      <trkpt lat="38.44482344" lon="-1.93568032"><ele>1303</ele><speed>11.14</speed><time>2016-06-02T14:21:48Z</time><pdop>4.0</pdop><geoidheight>50.00</geoidheight><course>233.9</course><type>1</type></trkpt>
      <trkpt lat="38.44475816" lon="-1.93576301"><ele>1303</ele><speed>10.17</speed><time>2016-06-02T14:21:49Z</time><pdop>4.0</pdop><geoidheight>50.00</geoidheight><course>228.7</course><type>1</type></trkpt>
      <trkpt lat="38.44469584" lon="-1.93585634"><ele>1303</ele><speed>10.16</speed><time>2016-06-02T14:21:50Z</time><pdop>5.0</pdop><geoidheight>50.00</geoidheight><course>228.9</course><type>1</type></trkpt>
      <trkpt lat="38.44459875" lon="-1.93605755"><ele>1303</ele><speed>10.44</speed><time>2016-06-02T14:21:52Z</time><pdop>5.0</pdop><geoidheight>50.00</geoidheight><course>239.5</course><type>1</type></trkpt>
      <trkpt lat="38.44455458" lon="-1.9362981"><ele>1300</ele><speed>11.20</speed><time>2016-06-02T14:21:54Z</time><pdop>5.0</pdop><geoidheight>50.00</geoidheight><course>255.9</course><type>1</type></trkpt>
      <trkpt lat="38.44455343" lon="-1.93642382"><ele>1297</ele><speed>12.14</speed><time>2016-06-02T14:21:55Z</time><pdop>5.0</pdop><geoidheight>50.00</geoidheight><course>260.1</course><type>1</type></trkpt>
      <trkpt lat="38.44452172" lon="-1.93658966"><ele>1297</ele><speed>12.99</speed><time>2016-06-02T14:21:56Z</time><pdop>5.0</pdop><geoidheight>50.00</geoidheight><course>258.9</course><type>1</type></trkpt>
      <trkpt lat="38.44449348" lon="-1.93673195"><ele>1296</ele><speed>12.71</speed><time>2016-06-02T14:21:57Z</time><pdop>5.0</pdop><geoidheight>50.00</geoidheight><course>257.8</course><type>1</type></trkpt>
      <trkpt lat="38.44447445" lon="-1.93685847"><ele>1297</ele><speed>11.51</speed><time>2016-06-02T14:21:58Z</time><pdop>5.0</pdop><geoidheight>50.00</geoidheight><course>257.0</course><type>1</type></trkpt>
      <trkpt lat="38.44445649" lon="-1.93698733"><ele>1297</ele><speed>10.64</speed><time>2016-06-02T14:21:59Z</time><pdop>5.0</pdop><geoidheight>50.00</geoidheight><course>260.5</course><type>1</type></trkpt>
      <trkpt lat="38.44443915" lon="-1.93722302"><ele>1298</ele><speed>9.83</speed><time>2016-06-02T14:22:01Z</time><pdop>4.0</pdop><geoidheight>50.00</geoidheight><course>263.8</course><type>1</type></trkpt>
      <trkpt lat="38.44441575" lon="-1.93734194"><ele>1299</ele><speed>9.65</speed><time>2016-06-02T14:22:02Z</time><pdop>3.0</pdop><geoidheight>50.00</geoidheight><course>259.5</course><type>1</type></trkpt>
      <trkpt lat="38.44439661" lon="-1.93743941"><ele>1298</ele><speed>9.79</speed><time>2016-06-02T14:22:03Z</time><pdop>4.0</pdop><geoidheight>50.00</geoidheight><course>254.4</course><type>1</type></trkpt>
      <trkpt lat="38.44435934" lon="-1.93755682"><ele>1298</ele><speed>11.02</speed><time>2016-06-02T14:22:04Z</time><pdop>3.0</pdop><geoidheight>50.00</geoidheight><course>247.7</course><type>1</type></trkpt>
      <trkpt lat="38.44431569" lon="-1.93767538"><ele>1298</ele><speed>11.20</speed><time>2016-06-02T14:22:05Z</time><pdop>3.0</pdop><geoidheight>50.00</geoidheight><course>246.2</course><type>1</type></trkpt>
      <trkpt lat="38.44428071" lon="-1.93779326"><ele>1298</ele><speed>11.16</speed><time>2016-06-02T14:22:06Z</time><pdop>3.0</pdop><geoidheight>50.00</geoidheight><course>248.7</course><type>1</type></trkpt>
      <trkpt lat="38.44423803" lon="-1.9379029"><ele>1298</ele><speed>10.75</speed><time>2016-06-02T14:22:07Z</time><pdop>3.0</pdop><geoidheight>50.00</geoidheight><course>248.2</course><type>1</type></trkpt>
      <trkpt lat="38.44420697" lon="-1.93798717"><ele>1297</ele><speed>9.51</speed><time>2016-06-02T14:22:08Z</time><pdop>3.0</pdop><geoidheight>50.00</geoidheight><course>245.8</course><type>1</type></trkpt>
      <trkpt lat="38.44416472" lon="-1.93807321"><ele>1297</ele><speed>8.79</speed><time>2016-06-02T14:22:09Z</time><pdop>4.0</pdop><geoidheight>50.00</geoidheight><course>241.0</course><type>1</type></trkpt>
      <trkpt lat="38.44411356" lon="-1.93815928"><ele>1298</ele><speed>8.34</speed><time>2016-06-02T14:22:10Z</time><pdop>4.0</pdop><geoidheight>50.00</geoidheight><course>235.4</course><type>1</type></trkpt>
      <trkpt lat="38.44404182" lon="-1.93832594"><ele>1300</ele><speed>8.12</speed><time>2016-06-02T14:22:12Z</time><pdop>4.0</pdop><geoidheight>50.00</geoidheight><course>243.1</course><type>1</type></trkpt>
      <trkpt lat="38.4439984" lon="-1.93841413"><ele>1301</ele><speed>8.36</speed><time>2016-06-02T14:22:13Z</time><pdop>4.0</pdop><geoidheight>50.00</geoidheight><course>239.9</course><type>1</type></trkpt>
      <trkpt lat="38.44394484" lon="-1.93849433"><ele>1300</ele><speed>8.95</speed><time>2016-06-02T14:22:14Z</time><pdop>4.0</pdop><geoidheight>50.00</geoidheight><course>231.7</course><type>1</type></trkpt>
      <trkpt lat="38.44382252" lon="-1.93865673"><ele>1303</ele><speed>8.93</speed><time>2016-06-02T14:22:16Z</time><pdop>6.0</pdop><geoidheight>50.00</geoidheight><course>222.6</course><type>1</type></trkpt>
      <trkpt lat="38.44370976" lon="-1.9386059"><ele>1303</ele><speed>5.33</speed><time>2016-06-02T14:22:18Z</time><pdop>6.0</pdop><geoidheight>50.00</geoidheight><course>168.8</course><type>1</type></trkpt>
      <trkpt lat="38.44374119" lon="-1.93846655"><ele>1306</ele><speed>4.62</speed><time>2016-06-02T14:22:20Z</time><pdop>5.0</pdop><geoidheight>50.00</geoidheight><course>77.0</course><type>1</type></trkpt>
      <trkpt lat="38.4438717" lon="-1.93840262"><ele>1307</ele><speed>7.77</speed><time>2016-06-02T14:22:22Z</time><pdop>7.0</pdop><geoidheight>50.00</geoidheight><course>20.4</course><type>1</type></trkpt>
      <trkpt lat="38.44408056" lon="-1.93840049"><ele>1308</ele><speed>9.03</speed><time>2016-06-02T14:22:24Z</time><pdop>7.0</pdop><geoidheight>50.00</geoidheight><course>3.3</course><type>1</type></trkpt>
      <trkpt lat="38.4442033" lon="-1.93849916"><ele>1309</ele><speed>10.27</speed><time>2016-06-02T14:22:25Z</time><pdop>7.0</pdop><geoidheight>50.00</geoidheight><course>345.1</course><type>1</type></trkpt>
      <trkpt lat="38.44435849" lon="-1.93868845"><ele>1307</ele><speed>14.63</speed><time>2016-06-02T14:22:26Z</time><pdop>7.0</pdop><geoidheight>50.00</geoidheight><course>325.1</course><type>1</type></trkpt>
      <trkpt lat="38.44443551" lon="-1.93883561"><ele>1305</ele><speed>14.38</speed><time>2016-06-02T14:22:27Z</time><pdop>7.0</pdop><geoidheight>50.00</geoidheight><course>315.2</course><type>1</type></trkpt>
      <trkpt lat="38.44449503" lon="-1.9389909"><ele>1305</ele><speed>13.91</speed><time>2016-06-02T14:22:28Z</time><pdop>7.0</pdop><geoidheight>50.00</geoidheight><course>305.5</course><type>1</type></trkpt>
      <trkpt lat="38.44453673" lon="-1.93917842"><ele>1305</ele><speed>14.50</speed><time>2016-06-02T14:22:29Z</time><pdop>7.0</pdop><geoidheight>50.00</geoidheight><course>292.1</course><type>1</type></trkpt>
      <trkpt lat="38.44456456" lon="-1.93935344"><ele>1306</ele><speed>14.63</speed><time>2016-06-02T14:22:30Z</time><pdop>6.0</pdop><geoidheight>50.00</geoidheight><course>281.0</course><type>1</type></trkpt>
      <trkpt lat="38.44456809" lon="-1.93952513"><ele>1306</ele><speed>14.18</speed><time>2016-06-02T14:22:31Z</time><pdop>6.0</pdop><geoidheight>50.00</geoidheight><course>272.8</course><type>1</type></trkpt>
      <trkpt lat="38.44455462" lon="-1.93968481"><ele>1307</ele><speed>13.31</speed><time>2016-06-02T14:22:32Z</time><pdop>5.0</pdop><geoidheight>50.00</geoidheight><course>263.6</course><type>1</type></trkpt>
      <trkpt lat="38.44454269" lon="-1.93980245"><ele>1307</ele><speed>11.61</speed><time>2016-06-02T14:22:33Z</time><pdop>5.0</pdop><geoidheight>50.00</geoidheight><course>259.5</course><type>1</type></trkpt>
      <trkpt lat="38.4444869" lon="-1.93999401"><ele>1305</ele><speed>9.65</speed><time>2016-06-02T14:22:35Z</time><pdop>6.0</pdop><geoidheight>50.00</geoidheight><course>250.4</course><type>1</type></trkpt>
      <trkpt lat="38.44437597" lon="-1.94018307"><ele>1303</ele><speed>10.10</speed><time>2016-06-02T14:22:37Z</time><pdop>5.0</pdop><geoidheight>50.00</geoidheight><course>235.9</course><type>1</type></trkpt>
      <trkpt lat="38.44430391" lon="-1.94028958"><ele>1303</ele><speed>10.70</speed><time>2016-06-02T14:22:38Z</time><pdop>6.0</pdop><geoidheight>50.00</geoidheight><course>232.5</course><type>1</type></trkpt>
      <trkpt lat="38.44421901" lon="-1.94039359"><ele>1303</ele><speed>11.45</speed><time>2016-06-02T14:22:39Z</time><pdop>5.0</pdop><geoidheight>50.00</geoidheight><course>228.2</course><type>1</type></trkpt>
      <trkpt lat="38.4441453" lon="-1.94049294"><ele>1302</ele><speed>11.58</speed><time>2016-06-02T14:22:40Z</time><pdop>5.0</pdop><geoidheight>50.00</geoidheight><course>227.6</course><type>1</type></trkpt>
      <trkpt lat="38.44409593" lon="-1.94058331"><ele>1301</ele><speed>10.68</speed><time>2016-06-02T14:22:41Z</time><pdop>4.0</pdop><geoidheight>50.00</geoidheight><course>230.2</course><type>1</type></trkpt>
      <trkpt lat="38.44403819" lon="-1.94066947"><ele>1299</ele><speed>9.96</speed><time>2016-06-02T14:22:42Z</time><pdop>4.0</pdop><geoidheight>50.00</geoidheight><course>233.7</course><type>1</type></trkpt>
      <trkpt lat="38.4439897" lon="-1.94076294"><ele>1298</ele><speed>10.02</speed><time>2016-06-02T14:22:43Z</time><pdop>4.0</pdop><geoidheight>50.00</geoidheight><course>235.7</course><type>1</type></trkpt>
      <trkpt lat="38.44386469" lon="-1.94090651"><ele>1298</ele><speed>9.96</speed><time>2016-06-02T14:22:45Z</time><pdop>6.0</pdop><geoidheight>50.00</geoidheight><course>228.8</course><type>1</type></trkpt>
      <trkpt lat="38.4437681" lon="-1.94097558"><ele>1298</ele><speed>10.44</speed><time>2016-06-02T14:22:46Z</time><pdop>6.0</pdop><geoidheight>50.00</geoidheight><course>215.2</course><type>1</type></trkpt>
      <trkpt lat="38.44360659" lon="-1.94098175"><ele>1295</ele><speed>9.52</speed><time>2016-06-02T14:22:48Z</time><pdop>6.0</pdop><geoidheight>50.00</geoidheight><course>180.2</course><type>1</type></trkpt>
      <trkpt lat="38.44349044" lon="-1.9409755"><ele>1296</ele><speed>6.30</speed><time>2016-06-02T14:22:50Z</time><pdop>5.0</pdop><geoidheight>50.00</geoidheight><course>174.7</course><type>1</type></trkpt>
      <trkpt lat="38.44337589" lon="-1.94096309"><ele>1292</ele><speed>5.23</speed><time>2016-06-02T14:22:53Z</time><pdop>5.0</pdop><geoidheight>50.00</geoidheight><course>183.1</course><type>1</type></trkpt>
      <trkpt lat="38.44327139" lon="-1.94090743"><ele>1288</ele><speed>6.03</speed><time>2016-06-02T14:22:55Z</time><pdop>5.0</pdop><geoidheight>50.00</geoidheight><course>165.0</course><type>1</type></trkpt>
      <trkpt lat="38.44316762" lon="-1.94086908"><ele>1286</ele><speed>5.47</speed><time>2016-06-02T14:22:57Z</time><pdop>5.0</pdop><geoidheight>50.00</geoidheight><course>171.0</course><type>1</type></trkpt>
      <trkpt lat="38.44303281" lon="-1.9408475"><ele>1283</ele><speed>5.31</speed><time>2016-06-02T14:23:00Z</time><pdop>8.0</pdop><geoidheight>50.00</geoidheight><course>178.3</course><type>1</type></trkpt>
      <trkpt lat="38.44289071" lon="-1.9407732"><ele>1280</ele><speed>7.56</speed><time>2016-06-02T14:23:02Z</time><pdop>7.0</pdop><geoidheight>50.00</geoidheight><course>162.2</course><type>1</type></trkpt>
      <trkpt lat="38.4427599" lon="-1.94067743"><ele>1278</ele><speed>7.07</speed><time>2016-06-02T14:23:04Z</time><pdop>8.0</pdop><geoidheight>50.00</geoidheight><course>156.8</course><type>1</type></trkpt>
      <trkpt lat="38.44258739" lon="-1.94060002"><ele>1272</ele><speed>6.57</speed><time>2016-06-02T14:23:07Z</time><pdop>8.0</pdop><geoidheight>50.00</geoidheight><course>176.9</course><type>1</type></trkpt>
      <trkpt lat="38.44245159" lon="-1.94060188"><ele>1271</ele><speed>7.08</speed><time>2016-06-02T14:23:09Z</time><pdop>6.0</pdop><geoidheight>50.00</geoidheight><course>176.8</course><type>1</type></trkpt>
      <trkpt lat="38.44233689" lon="-1.9406254"><ele>1270</ele><speed>7.01</speed><time>2016-06-02T14:23:11Z</time><pdop>5.0</pdop><geoidheight>50.00</geoidheight><course>189.1</course><type>1</type></trkpt>
      <trkpt lat="38.44224657" lon="-1.94065082"><ele>1271</ele><speed>6.48</speed><time>2016-06-02T14:23:13Z</time><pdop>5.0</pdop><geoidheight>50.00</geoidheight><course>192.3</course><type>1</type></trkpt>
      <trkpt lat="38.44212701" lon="-1.94069364"><ele>1269</ele><speed>7.14</speed><time>2016-06-02T14:23:15Z</time><pdop>6.0</pdop><geoidheight>50.00</geoidheight><course>195.1</course><type>1</type></trkpt>
      <trkpt lat="38.44201713" lon="-1.94079784"><ele>1270</ele><speed>6.24</speed><time>2016-06-02T14:23:18Z</time><pdop>6.0</pdop><geoidheight>50.00</geoidheight><course>216.3</course><type>1</type></trkpt>
      <trkpt lat="38.44193907" lon="-1.94092127"><ele>1270</ele><speed>7.58</speed><time>2016-06-02T14:23:20Z</time><pdop>5.0</pdop><geoidheight>50.00</geoidheight><course>227.3</course><type>1</type></trkpt>
      <trkpt lat="38.44181707" lon="-1.941062"><ele>1267</ele><speed>9.57</speed><time>2016-06-02T14:23:22Z</time><pdop>5.0</pdop><geoidheight>50.00</geoidheight><course>217.2</course><type>1</type></trkpt>
      <trkpt lat="38.44163128" lon="-1.94112568"><ele>1263</ele><speed>9.82</speed><time>2016-06-02T14:23:24Z</time><pdop>10.0</pdop><geoidheight>50.00</geoidheight><course>193.1</course><type>1</type></trkpt>
      <trkpt lat="38.44145003" lon="-1.94108715"><ele>1257</ele><speed>6.51</speed><time>2016-06-02T14:23:27Z</time><pdop>10.0</pdop><geoidheight>50.00</geoidheight><course>177.6</course><type>1</type></trkpt>
      <trkpt lat="38.44114956" lon="-1.94103137"><ele>1251</ele><speed>10.51</speed><time>2016-06-02T14:23:31Z</time><pdop>11.0</pdop><geoidheight>50.00</geoidheight><course>176.8</course><type>1</type></trkpt>
      <trkpt lat="38.44093036" lon="-1.94095824"><ele>1244</ele><speed>12.29</speed><time>2016-06-02T14:23:33Z</time><pdop>11.0</pdop><geoidheight>50.00</geoidheight><course>175.2</course><type>1</type></trkpt>
      <trkpt lat="38.44071676" lon="-1.94090294"><ele>1239</ele><speed>10.96</speed><time>2016-06-02T14:23:35Z</time><pdop>11.0</pdop><geoidheight>50.00</geoidheight><course>176.2</course><type>1</type></trkpt>
      <trkpt lat="38.44043225" lon="-1.94088368"><ele>1235</ele><speed>10.39</speed><time>2016-06-02T14:23:38Z</time><pdop>12.0</pdop><geoidheight>50.00</geoidheight><course>179.0</course><type>1</type></trkpt>
      <trkpt lat="38.44020823" lon="-1.94083911"><ele>1229</ele><speed>11.87</speed><time>2016-06-02T14:23:40Z</time><pdop>12.0</pdop><geoidheight>50.00</geoidheight><course>172.5</course><type>1</type></trkpt>
      <trkpt lat="38.43995611" lon="-1.9408162"><ele>1220</ele><speed>9.87</speed><time>2016-06-02T14:23:43Z</time><pdop>10.0</pdop><geoidheight>50.00</geoidheight><course>187.3</course><type>1</type></trkpt>
      <trkpt lat="38.43978358" lon="-1.94106405"><ele>1211</ele><speed>10.25</speed><time>2016-06-02T14:23:46Z</time><pdop>10.0</pdop><geoidheight>50.00</geoidheight><course>232.3</course><type>1</type></trkpt>
      <trkpt lat="38.43968245" lon="-1.94140837"><ele>1201</ele><speed>14.82</speed><time>2016-06-02T14:23:48Z</time><pdop>10.0</pdop><geoidheight>50.00</geoidheight><course>246.3</course><type>1</type></trkpt>
      <trkpt lat="38.43961572" lon="-1.94173435"><ele>1198</ele><speed>14.46</speed><time>2016-06-02T14:23:50Z</time><pdop>10.0</pdop><geoidheight>50.00</geoidheight><course>256.0</course><type>1</type></trkpt>
      <trkpt lat="38.43958057" lon="-1.94205967"><ele>1196</ele><speed>13.64</speed><time>2016-06-02T14:23:52Z</time><pdop>10.0</pdop><geoidheight>50.00</geoidheight><course>266.0</course><type>1</type></trkpt>
      <trkpt lat="38.43954938" lon="-1.94236012"><ele>1195</ele><speed>13.46</speed><time>2016-06-02T14:23:54Z</time><pdop>10.0</pdop><geoidheight>50.00</geoidheight><course>263.6</course><type>1</type></trkpt>
      <trkpt lat="38.43954331" lon="-1.94270597"><ele>1191</ele><speed>14.78</speed><time>2016-06-02T14:23:56Z</time><pdop>10.0</pdop><geoidheight>50.00</geoidheight><course>267.0</course><type>1</type></trkpt>
      <trkpt lat="38.43952659" lon="-1.9430447"><ele>1189</ele><speed>15.12</speed><time>2016-06-02T14:23:58Z</time><pdop>10.0</pdop><geoidheight>50.00</geoidheight><course>265.8</course><type>1</type></trkpt>
      <trkpt lat="38.43952185" lon="-1.94337334"><ele>1187</ele><speed>15.12</speed><time>2016-06-02T14:24:00Z</time><pdop>9.0</pdop><geoidheight>50.00</geoidheight><course>266.7</course><type>1</type></trkpt>
      <trkpt lat="38.43950735" lon="-1.94372194"><ele>1187</ele><speed>14.38</speed><time>2016-06-02T14:24:02Z</time><pdop>9.0</pdop><geoidheight>50.00</geoidheight><course>264.4</course><type>1</type></trkpt>
      <trkpt lat="38.43946084" lon="-1.94399699"><ele>1186</ele><speed>11.48</speed><time>2016-06-02T14:24:04Z</time><pdop>9.0</pdop><geoidheight>50.00</geoidheight><course>256.1</course><type>1</type></trkpt>
      <trkpt lat="38.43939843" lon="-1.94424589"><ele>1184</ele><speed>11.47</speed><time>2016-06-02T14:24:06Z</time><pdop>9.0</pdop><geoidheight>50.00</geoidheight><course>251.3</course><type>1</type></trkpt>
      <trkpt lat="38.43933123" lon="-1.94451022"><ele>1183</ele><speed>12.28</speed><time>2016-06-02T14:24:08Z</time><pdop>10.0</pdop><geoidheight>50.00</geoidheight><course>254.0</course><type>1</type></trkpt>
      <trkpt lat="38.43936034" lon="-1.94490002"><ele>1181</ele><speed>14.91</speed><time>2016-06-02T14:24:10Z</time><pdop>10.0</pdop><geoidheight>50.00</geoidheight><course>276.4</course><type>1</type></trkpt>
      <trkpt lat="38.43941317" lon="-1.94521068"><ele>1182</ele><speed>13.77</speed><time>2016-06-02T14:24:12Z</time><pdop>10.0</pdop><geoidheight>50.00</geoidheight><course>281.1</course><type>1</type></trkpt>
      <trkpt lat="38.43946113" lon="-1.94554182"><ele>1181</ele><speed>14.49</speed><time>2016-06-02T14:24:14Z</time><pdop>12.0</pdop><geoidheight>50.00</geoidheight><course>280.4</course><type>1</type></trkpt>
      <trkpt lat="38.43950461" lon="-1.94589865"><ele>1181</ele><speed>15.62</speed><time>2016-06-02T14:24:16Z</time><pdop>13.0</pdop><geoidheight>50.00</geoidheight><course>280.9</course><type>1</type></trkpt>
      <trkpt lat="38.43958492" lon="-1.94630687"><ele>1179</ele><speed>17.19</speed><time>2016-06-02T14:24:18Z</time><pdop>12.0</pdop><geoidheight>50.00</geoidheight><course>283.4</course><type>1</type></trkpt>
      <trkpt lat="38.43967263" lon="-1.94664412"><ele>1178</ele><speed>14.99</speed><time>2016-06-02T14:24:20Z</time><pdop>11.0</pdop><geoidheight>50.00</geoidheight><course>285.6</course><type>1</type></trkpt>
      <trkpt lat="38.43976142" lon="-1.94699971"><ele>1175</ele><speed>16.24</speed><time>2016-06-02T14:24:22Z</time><pdop>11.0</pdop><geoidheight>50.00</geoidheight><course>286.5</course><type>1</type></trkpt>
      <trkpt lat="38.43985326" lon="-1.94740748"><ele>1171</ele><speed>18.50</speed><time>2016-06-02T14:24:24Z</time><pdop>12.0</pdop><geoidheight>50.00</geoidheight><course>286.7</course><type>1</type></trkpt>
      <trkpt lat="38.4400154" lon="-1.94774435"><ele>1162</ele><speed>17.07</speed><time>2016-06-02T14:24:26Z</time><pdop>11.0</pdop><geoidheight>50.00</geoidheight><course>297.5</course><type>1</type></trkpt>
      <trkpt lat="38.44018322" lon="-1.94804246"><ele>1153</ele><speed>15.99</speed><time>2016-06-02T14:24:28Z</time><pdop>11.0</pdop><geoidheight>50.00</geoidheight><course>300.5</course><type>1</type></trkpt>
      <trkpt lat="38.44033325" lon="-1.94832295"><ele>1139</ele><speed>16.63</speed><time>2016-06-02T14:24:30Z</time><pdop>11.0</pdop><geoidheight>50.00</geoidheight><course>297.6</course><type>1</type></trkpt>
      <trkpt lat="38.44046002" lon="-1.9486334"><ele>1127</ele><speed>16.40</speed><time>2016-06-02T14:24:32Z</time><pdop>11.0</pdop><geoidheight>50.00</geoidheight><course>294.7</course><type>1</type></trkpt>
      <trkpt lat="38.44057848" lon="-1.94897146"><ele>1120</ele><speed>16.33</speed><time>2016-06-02T14:24:34Z</time><pdop>11.0</pdop><geoidheight>50.00</geoidheight><course>291.6</course><type>1</type></trkpt>
      <trkpt lat="38.44067036" lon="-1.94929745"><ele>1115</ele><speed>15.92</speed><time>2016-06-02T14:24:36Z</time><pdop>11.0</pdop><geoidheight>50.00</geoidheight><course>287.9</course><type>1</type></trkpt>
      <trkpt lat="38.44076873" lon="-1.94963466"><ele>1109</ele><speed>16.09</speed><time>2016-06-02T14:24:38Z</time><pdop>11.0</pdop><geoidheight>50.00</geoidheight><course>290.5</course><type>1</type></trkpt>
      <trkpt lat="38.44086491" lon="-1.95000225"><ele>1106</ele><speed>17.00</speed><time>2016-06-02T14:24:40Z</time><pdop>11.0</pdop><geoidheight>50.00</geoidheight><course>289.6</course><type>1</type></trkpt>
      <trkpt lat="38.44097269" lon="-1.95040254"><ele>1103</ele><speed>18.18</speed><time>2016-06-02T14:24:42Z</time><pdop>12.0</pdop><geoidheight>50.00</geoidheight><course>288.3</course><type>1</type></trkpt>
      <trkpt lat="38.44108542" lon="-1.95076863"><ele>1100</ele><speed>16.44</speed><time>2016-06-02T14:24:44Z</time><pdop>11.0</pdop><geoidheight>50.00</geoidheight><course>290.8</course><type>1</type></trkpt>
      <trkpt lat="38.44119642" lon="-1.95114806"><ele>1098</ele><speed>17.63</speed><time>2016-06-02T14:24:46Z</time><pdop>14.0</pdop><geoidheight>50.00</geoidheight><course>290.1</course><type>1</type></trkpt>
      <trkpt lat="38.44123569" lon="-1.95151566"><ele>1090</ele><speed>17.54</speed><time>2016-06-02T14:24:48Z</time><pdop>12.0</pdop><geoidheight>50.00</geoidheight><course>285.6</course><type>1</type></trkpt>
      <trkpt lat="38.44126958" lon="-1.95188789"><ele>1081</ele><speed>17.64</speed><time>2016-06-02T14:24:50Z</time><pdop>11.0</pdop><geoidheight>50.00</geoidheight><course>272.7</course><type>1</type></trkpt>
      <trkpt lat="38.44130833" lon="-1.95223549"><ele>1074</ele><speed>17.24</speed><time>2016-06-02T14:24:52Z</time><pdop>11.0</pdop><geoidheight>50.00</geoidheight><course>274.7</course><type>1</type></trkpt>
      <trkpt lat="38.44131852" lon="-1.95266726"><ele>1070</ele><speed>18.60</speed><time>2016-06-02T14:24:54Z</time><pdop>12.0</pdop><geoidheight>50.00</geoidheight><course>271.4</course><type>1</type></trkpt>
      <trkpt lat="38.44132277" lon="-1.95308053"><ele>1065</ele><speed>18.97</speed><time>2016-06-02T14:24:56Z</time><pdop>12.0</pdop><geoidheight>50.00</geoidheight><course>269.5</course><type>1</type></trkpt>
      <trkpt lat="38.4413455" lon="-1.95347214"><ele>1056</ele><speed>18.06</speed><time>2016-06-02T14:24:58Z</time><pdop>11.0</pdop><geoidheight>50.00</geoidheight><course>274.7</course><type>1</type></trkpt>
      <trkpt lat="38.4414048" lon="-1.9538514"><ele>1052</ele><speed>17.85</speed><time>2016-06-02T14:25:00Z</time><pdop>13.0</pdop><geoidheight>50.00</geoidheight><course>278.5</course><type>1</type></trkpt>
      <trkpt lat="38.44147122" lon="-1.95429866"><ele>1050</ele><speed>19.30</speed><time>2016-06-02T14:25:02Z</time><pdop>13.0</pdop><geoidheight>50.00</geoidheight><course>279.5</course><type>1</type></trkpt>
      <trkpt lat="38.44153761" lon="-1.95468771"><ele>1046</ele><speed>19.50</speed><time>2016-06-02T14:25:04Z</time><pdop>14.0</pdop><geoidheight>50.00</geoidheight><course>279.9</course><type>1</type></trkpt>
      <trkpt lat="38.44161877" lon="-1.95507586"><ele>1044</ele><speed>18.71</speed><time>2016-06-02T14:25:06Z</time><pdop>15.0</pdop><geoidheight>50.00</geoidheight><course>281.5</course><type>1</type></trkpt>
      <trkpt lat="38.44171078" lon="-1.95552227"><ele>1040</ele><speed>19.88</speed><time>2016-06-02T14:25:08Z</time><pdop>14.0</pdop><geoidheight>50.00</geoidheight><course>283.9</course><type>1</type></trkpt>
      <trkpt lat="38.44181403" lon="-1.95591782"><ele>1036</ele><speed>20.04</speed><time>2016-06-02T14:25:10Z</time><pdop>15.0</pdop><geoidheight>50.00</geoidheight><course>284.5</course><type>1</type></trkpt>
      <trkpt lat="38.44191799" lon="-1.95633996"><ele>1032</ele><speed>19.79</speed><time>2016-06-02T14:25:12Z</time><pdop>13.0</pdop><geoidheight>50.00</geoidheight><course>286.4</course><type>1</type></trkpt>
      <trkpt lat="38.44205398" lon="-1.95670164"><ele>1023</ele><speed>18.79</speed><time>2016-06-02T14:25:14Z</time><pdop>12.0</pdop><geoidheight>50.00</geoidheight><course>289.5</course><type>1</type></trkpt>
      <trkpt lat="38.44215652" lon="-1.95710955"><ele>1020</ele><speed>18.73</speed><time>2016-06-02T14:25:16Z</time><pdop>13.0</pdop><geoidheight>50.00</geoidheight><course>286.7</course><type>1</type></trkpt>
      <trkpt lat="38.4422757" lon="-1.95749728"><ele>1012</ele><speed>18.66</speed><time>2016-06-02T14:25:18Z</time><pdop>12.0</pdop><geoidheight>50.00</geoidheight><course>287.8</course><type>1</type></trkpt>
      <trkpt lat="38.44236477" lon="-1.9578952"><ele>1009</ele><speed>18.41</speed><time>2016-06-02T14:25:20Z</time><pdop>14.0</pdop><geoidheight>50.00</geoidheight><course>284.9</course><type>1</type></trkpt>
      <trkpt lat="38.44247092" lon="-1.95827143"><ele>1002</ele><speed>19.58</speed><time>2016-06-02T14:25:22Z</time><pdop>13.0</pdop><geoidheight>50.00</geoidheight><course>286.1</course><type>1</type></trkpt>
      <trkpt lat="38.44260669" lon="-1.95867185"><ele>996</ele><speed>19.77</speed><time>2016-06-02T14:25:24Z</time><pdop>12.0</pdop><geoidheight>50.00</geoidheight><course>288.2</course><type>1</type></trkpt>
      <trkpt lat="38.4427111" lon="-1.95906227"><ele>992</ele><speed>19.05</speed><time>2016-06-02T14:25:26Z</time><pdop>12.0</pdop><geoidheight>50.00</geoidheight><course>290.3</course><type>1</type></trkpt>
      <trkpt lat="38.44283225" lon="-1.95947424"><ele>990</ele><speed>19.07</speed><time>2016-06-02T14:25:28Z</time><pdop>14.0</pdop><geoidheight>50.00</geoidheight><course>289.9</course><type>1</type></trkpt>
      <trkpt lat="38.44294274" lon="-1.95987232"><ele>988</ele><speed>19.05</speed><time>2016-06-02T14:25:30Z</time><pdop>14.0</pdop><geoidheight>50.00</geoidheight><course>290.3</course><type>1</type></trkpt>
      <trkpt lat="38.44311035" lon="-1.9601427"><ele>990</ele><speed>16.62</speed><time>2016-06-02T14:25:32Z</time><pdop>12.0</pdop><geoidheight>50.00</geoidheight><course>304.4</course><type>1</type></trkpt>
      <trkpt lat="38.44332208" lon="-1.96037975"><ele>989</ele><speed>10.91</speed><time>2016-06-02T14:25:35Z</time><pdop>12.0</pdop><geoidheight>50.00</geoidheight><course>316.6</course><type>1</type></trkpt>
      <trkpt lat="38.44356855" lon="-1.96031156"><ele>981</ele><speed>8.17</speed><time>2016-06-02T14:25:38Z</time><pdop>11.0</pdop><geoidheight>50.00</geoidheight><course>9.2</course><type>1</type></trkpt>
      <trkpt lat="38.44332493" lon="-1.96036841"><ele>972</ele><speed>10.04</speed><time>2016-06-02T14:25:46Z</time><pdop>8.0</pdop><geoidheight>50.00</geoidheight><course>227.9</course><type>1</type></trkpt>
      <trkpt lat="38.44331169" lon="-1.96056933"><ele>973</ele><speed>12.74</speed><time>2016-06-02T14:25:47Z</time><pdop>7.0</pdop><geoidheight>50.00</geoidheight><course>254.8</course><type>1</type></trkpt>
      <trkpt lat="38.44330228" lon="-1.96073218"><ele>971</ele><speed>13.16</speed><time>2016-06-02T14:25:48Z</time><pdop>7.0</pdop><geoidheight>50.00</geoidheight><course>259.1</course><type>1</type></trkpt>
      <trkpt lat="38.44330378" lon="-1.96104563"><ele>969</ele><speed>13.55</speed><time>2016-06-02T14:25:50Z</time><pdop>9.0</pdop><geoidheight>50.00</geoidheight><course>266.4</course><type>1</type></trkpt>
      <trkpt lat="38.44327955" lon="-1.96136114"><ele>968</ele><speed>13.88</speed><time>2016-06-02T14:25:52Z</time><pdop>8.0</pdop><geoidheight>50.00</geoidheight><course>267.5</course><type>1</type></trkpt>
      <trkpt lat="38.44337908" lon="-1.96168673"><ele>965</ele><speed>15.17</speed><time>2016-06-02T14:25:54Z</time><pdop>8.0</pdop><geoidheight>50.00</geoidheight><course>283.8</course><type>1</type></trkpt>
      <trkpt lat="38.44348812" lon="-1.96198707"><ele>964</ele><speed>14.19</speed><time>2016-06-02T14:25:56Z</time><pdop>9.0</pdop><geoidheight>50.00</geoidheight><course>294.7</course><type>1</type></trkpt>
      <trkpt lat="38.44373999" lon="-1.96212793"><ele>966</ele><speed>12.98</speed><time>2016-06-02T14:25:58Z</time><pdop>11.0</pdop><geoidheight>50.00</geoidheight><course>319.7</course><type>1</type></trkpt>
      <trkpt lat="38.44388031" lon="-1.96200196"><ele>969</ele><speed>11.13</speed><time>2016-06-02T14:25:59Z</time><pdop>8.0</pdop><geoidheight>50.00</geoidheight><course>9.5</course><type>1</type></trkpt>
      <trkpt lat="38.44409178" lon="-1.96190596"><ele>972</ele><speed>11.85</speed><time>2016-06-02T14:26:01Z</time><pdop>12.0</pdop><geoidheight>50.00</geoidheight><course>21.9</course><type>1</type></trkpt>
      <trkpt lat="38.44375692" lon="-1.96199216"><ele>977</ele><speed>8.67</speed><time>2016-06-02T14:26:07Z</time><pdop>14.0</pdop><geoidheight>50.00</geoidheight><course>231.1</course><type>1</type></trkpt>
      <trkpt lat="38.44366454" lon="-1.96234119"><ele>982</ele><speed>11.19</speed><time>2016-06-02T14:26:09Z</time><pdop>14.0</pdop><geoidheight>50.00</geoidheight><course>262.0</course><type>1</type></trkpt>
      <trkpt lat="38.44371448" lon="-1.96280431"><ele>983</ele><speed>15.85</speed><time>2016-06-02T14:26:11Z</time><pdop>12.0</pdop><geoidheight>50.00</geoidheight><course>275.8</course><type>1</type></trkpt>
      <trkpt lat="38.44395773" lon="-1.96312765"><ele>985</ele><speed>16.82</speed><time>2016-06-02T14:26:13Z</time><pdop>11.0</pdop><geoidheight>50.00</geoidheight><course>298.7</course><type>1</type></trkpt>
      <trkpt lat="38.44423087" lon="-1.96316843"><ele>990</ele><speed>11.60</speed><time>2016-06-02T14:26:15Z</time><pdop>11.0</pdop><geoidheight>50.00</geoidheight><course>329.7</course><type>1</type></trkpt>
      <trkpt lat="38.44451175" lon="-1.96306283"><ele>995</ele><speed>11.03</speed><time>2016-06-02T14:26:17Z</time><pdop>10.0</pdop><geoidheight>50.00</geoidheight><course>5.9</course><type>1</type></trkpt>
      <trkpt lat="38.44430412" lon="-1.96303547"><ele>1011</ele><speed>8.78</speed><time>2016-06-02T14:26:24Z</time><pdop>9.0</pdop><geoidheight>50.00</geoidheight><course>218.2</course><type>1</type></trkpt>
      <trkpt lat="38.44427916" lon="-1.96338285"><ele>1019</ele><speed>13.96</speed><time>2016-06-02T14:26:26Z</time><pdop>7.0</pdop><geoidheight>50.00</geoidheight><course>272.2</course><type>1</type></trkpt>
      <trkpt lat="38.44429485" lon="-1.96357127"><ele>1019</ele><speed>14.44</speed><time>2016-06-02T14:26:27Z</time><pdop>7.0</pdop><geoidheight>50.00</geoidheight><course>273.1</course><type>1</type></trkpt>
      <trkpt lat="38.44435506" lon="-1.96388399"><ele>1022</ele><speed>14.17</speed><time>2016-06-02T14:26:29Z</time><pdop>11.0</pdop><geoidheight>50.00</geoidheight><course>282.4</course><type>1</type></trkpt>
      <trkpt lat="38.44462422" lon="-1.96399842"><ele>1025</ele><speed>12.07</speed><time>2016-06-02T14:26:31Z</time><pdop>11.0</pdop><geoidheight>50.00</geoidheight><course>317.5</course><type>1</type></trkpt>
      <trkpt lat="38.44487907" lon="-1.96396812"><ele>1030</ele><speed>7.86</speed><time>2016-06-02T14:26:34Z</time><pdop>11.0</pdop><geoidheight>50.00</geoidheight><course>5.0</course><type>1</type></trkpt>
      <trkpt lat="38.44470282" lon="-1.9639644"><ele>1051</ele><speed>9.56</speed><time>2016-06-02T14:26:41Z</time><pdop>8.0</pdop><geoidheight>50.00</geoidheight><course>219.8</course><type>1</type></trkpt>
      <trkpt lat="38.44467798" lon="-1.96414643"><ele>1058</ele><speed>8.04</speed><time>2016-06-02T14:26:43Z</time><pdop>8.0</pdop><geoidheight>50.00</geoidheight><course>259.8</course><type>1</type></trkpt>
      <trkpt lat="38.4447555" lon="-1.96431955"><ele>1059</ele><speed>11.32</speed><time>2016-06-02T14:26:44Z</time><pdop>9.0</pdop><geoidheight>50.00</geoidheight><course>288.9</course><type>1</type></trkpt>
      <trkpt lat="38.44494259" lon="-1.96456414"><ele>1061</ele><speed>12.39</speed><time>2016-06-02T14:26:46Z</time><pdop>8.0</pdop><geoidheight>50.00</geoidheight><course>314.9</course><type>1</type></trkpt>
      <trkpt lat="38.44513204" lon="-1.96477105"><ele>1065</ele><speed>11.11</speed><time>2016-06-02T14:26:48Z</time><pdop>9.0</pdop><geoidheight>50.00</geoidheight><course>323.8</course><type>1</type></trkpt>
      <trkpt lat="38.44543848" lon="-1.9648358"><ele>1071</ele><speed>13.59</speed><time>2016-06-02T14:26:50Z</time><pdop>12.0</pdop><geoidheight>50.00</geoidheight><course>341.0</course><type>1</type></trkpt>
      <trkpt lat="38.44529859" lon="-1.9645051"><ele>1085</ele><speed>3.84</speed><time>2016-06-02T14:26:56Z</time><pdop>12.0</pdop><geoidheight>50.00</geoidheight><course>140.9</course><type>1</type></trkpt>
      <trkpt lat="38.44516587" lon="-1.96470387"><ele>1085</ele><speed>6.86</speed><time>2016-06-02T14:26:58Z</time><pdop>9.0</pdop><geoidheight>50.00</geoidheight><course>224.5</course><type>1</type></trkpt>
      <trkpt lat="38.44518517" lon="-1.96503307"><ele>1092</ele><speed>9.55</speed><time>2016-06-02T14:27:00Z</time><pdop>9.0</pdop><geoidheight>50.00</geoidheight><course>268.2</course><type>1</type></trkpt>
      <trkpt lat="38.44527712" lon="-1.96531788"><ele>1093</ele><speed>15.54</speed><time>2016-06-02T14:27:01Z</time><pdop>8.0</pdop><geoidheight>50.00</geoidheight><course>287.3</course><type>1</type></trkpt>
      <trkpt lat="38.44532921" lon="-1.96550395"><ele>1094</ele><speed>15.19</speed><time>2016-06-02T14:27:02Z</time><pdop>8.0</pdop><geoidheight>50.00</geoidheight><course>288.3</course><type>1</type></trkpt>
      <trkpt lat="38.44554092" lon="-1.96569734"><ele>1100</ele><speed>12.46</speed><time>2016-06-02T14:27:04Z</time><pdop>10.0</pdop><geoidheight>50.00</geoidheight><course>312.2</course><type>1</type></trkpt>
      <trkpt lat="38.44579076" lon="-1.96557445"><ele>1104</ele><speed>9.96</speed><time>2016-06-02T14:27:06Z</time><pdop>6.0</pdop><geoidheight>50.00</geoidheight><course>9.7</course><type>1</type></trkpt>
      <trkpt lat="38.44593008" lon="-1.96553164"><ele>1110</ele><speed>6.31</speed><time>2016-06-02T14:27:08Z</time><pdop>5.0</pdop><geoidheight>50.00</geoidheight><course>29.0</course><type>1</type></trkpt>
      <trkpt lat="38.44598921" lon="-1.96541698"><ele>1113</ele><speed>6.72</speed><time>2016-06-02T14:27:10Z</time><pdop>5.0</pdop><geoidheight>50.00</geoidheight><course>65.4</course><type>1</type></trkpt>
      <trkpt lat="38.44595392" lon="-1.96532056"><ele>1120</ele><speed>4.42</speed><time>2016-06-02T14:27:12Z</time><pdop>4.0</pdop><geoidheight>50.00</geoidheight><course>94.3</course><type>1</type></trkpt>
      <trkpt lat="38.44582476" lon="-1.96545149"><ele>1129</ele><speed>8.16</speed><time>2016-06-02T14:27:15Z</time><pdop>4.0</pdop><geoidheight>50.00</geoidheight><course>231.8</course><type>1</type></trkpt>
      <trkpt lat="38.44576767" lon="-1.96555256"><ele>1129</ele><speed>10.25</speed><time>2016-06-02T14:27:16Z</time><pdop>4.0</pdop><geoidheight>50.00</geoidheight><course>238.2</course><type>1</type></trkpt>
      <trkpt lat="38.44571596" lon="-1.96568228"><ele>1130</ele><speed>11.43</speed><time>2016-06-02T14:27:17Z</time><pdop>5.0</pdop><geoidheight>50.00</geoidheight><course>246.0</course><type>1</type></trkpt>
      <trkpt lat="38.44571372" lon="-1.96586559"><ele>1130</ele><speed>13.72</speed><time>2016-06-02T14:27:18Z</time><pdop>5.0</pdop><geoidheight>50.00</geoidheight><course>261.1</course><type>1</type></trkpt>
      <trkpt lat="38.44576348" lon="-1.96606304"><ele>1130</ele><speed>15.81</speed><time>2016-06-02T14:27:19Z</time><pdop>4.0</pdop><geoidheight>50.00</geoidheight><course>281.5</course><type>1</type></trkpt>
      <trkpt lat="38.44582079" lon="-1.9662339"><ele>1131</ele><speed>16.32</speed><time>2016-06-02T14:27:20Z</time><pdop>4.0</pdop><geoidheight>50.00</geoidheight><course>294.8</course><type>1</type></trkpt>
      <trkpt lat="38.44588675" lon="-1.96638803"><ele>1131</ele><speed>15.26</speed><time>2016-06-02T14:27:21Z</time><pdop>5.0</pdop><geoidheight>50.00</geoidheight><course>299.0</course><type>1</type></trkpt>
      <trkpt lat="38.44594129" lon="-1.96651416"><ele>1132</ele><speed>14.03</speed><time>2016-06-02T14:27:22Z</time><pdop>6.0</pdop><geoidheight>50.00</geoidheight><course>299.3</course><type>1</type></trkpt>
      <trkpt lat="38.44613157" lon="-1.96664085"><ele>1133</ele><speed>11.09</speed><time>2016-06-02T14:27:24Z</time><pdop>9.0</pdop><geoidheight>50.00</geoidheight><course>319.0</course><type>1</type></trkpt>
      <trkpt lat="38.4463594" lon="-1.96654454"><ele>1136</ele><speed>9.69</speed><time>2016-06-02T14:27:26Z</time><pdop>11.0</pdop><geoidheight>50.00</geoidheight><course>0.2</course><type>1</type></trkpt>
      <trkpt lat="38.44645526" lon="-1.96638283"><ele>1138</ele><speed>4.78</speed><time>2016-06-02T14:27:28Z</time><pdop>6.0</pdop><geoidheight>50.00</geoidheight><course>40.5</course><type>1</type></trkpt>
      <trkpt lat="38.4464918" lon="-1.96622872"><ele>1140</ele><speed>4.41</speed><time>2016-06-02T14:27:31Z</time><pdop>5.0</pdop><geoidheight>50.00</geoidheight><course>84.7</course><type>1</type></trkpt>
      <trkpt lat="38.44645843" lon="-1.96609164"><ele>1146</ele><speed>3.29</speed><time>2016-06-02T14:27:34Z</time><pdop>4.0</pdop><geoidheight>50.00</geoidheight><course>86.9</course><type>1</type></trkpt>
      <trkpt lat="38.44636136" lon="-1.96602659"><ele>1147</ele><speed>5.49</speed><time>2016-06-02T14:27:39Z</time><pdop>7.0</pdop><geoidheight>50.00</geoidheight><course>188.4</course><type>1</type></trkpt>
      <trkpt lat="38.44620567" lon="-1.96607441"><ele>1152</ele><speed>7.59</speed><time>2016-06-02T14:27:41Z</time><pdop>5.0</pdop><geoidheight>50.00</geoidheight><course>202.1</course><type>1</type></trkpt>
      <trkpt lat="38.44612157" lon="-1.96613384"><ele>1155</ele><speed>5.08</speed><time>2016-06-02T14:27:43Z</time><pdop>5.0</pdop><geoidheight>50.00</geoidheight><course>218.9</course><type>1</type></trkpt>
      <trkpt lat="38.44606988" lon="-1.96623845"><ele>1155</ele><speed>5.45</speed><time>2016-06-02T14:27:45Z</time><pdop>5.0</pdop><geoidheight>50.00</geoidheight><course>237.2</course><type>1</type></trkpt>
      <trkpt lat="38.44596959" lon="-1.96639462"><ele>1151</ele><speed>8.09</speed><time>2016-06-02T14:27:47Z</time><pdop>5.0</pdop><geoidheight>50.00</geoidheight><course>239.5</course><type>1</type></trkpt>
      <trkpt lat="38.44591033" lon="-1.96661076"><ele>1152</ele><speed>10.20</speed><time>2016-06-02T14:27:49Z</time><pdop>6.0</pdop><geoidheight>50.00</geoidheight><course>254.0</course><type>1</type></trkpt>
      <trkpt lat="38.44593641" lon="-1.96675861"><ele>1153</ele><speed>11.65</speed><time>2016-06-02T14:27:50Z</time><pdop>5.0</pdop><geoidheight>50.00</geoidheight><course>273.7</course><type>1</type></trkpt>
      <trkpt lat="38.44595398" lon="-1.96688967"><ele>1154</ele><speed>11.13</speed><time>2016-06-02T14:27:51Z</time><pdop>5.0</pdop><geoidheight>50.00</geoidheight><course>278.8</course><type>1</type></trkpt>
      <trkpt lat="38.44598645" lon="-1.96703306"><ele>1153</ele><speed>11.46</speed><time>2016-06-02T14:27:52Z</time><pdop>5.0</pdop><geoidheight>50.00</geoidheight><course>280.6</course><type>1</type></trkpt>
      <trkpt lat="38.44606944" lon="-1.96728449"><ele>1150</ele><speed>13.27</speed><time>2016-06-02T14:27:54Z</time><pdop>5.0</pdop><geoidheight>50.00</geoidheight><course>295.0</course><type>1</type></trkpt>
      <trkpt lat="38.44614762" lon="-1.96741795"><ele>1148</ele><speed>14.74</speed><time>2016-06-02T14:27:55Z</time><pdop>5.0</pdop><geoidheight>50.00</geoidheight><course>307.5</course><type>1</type></trkpt>
      <trkpt lat="38.44623584" lon="-1.96756351"><ele>1146</ele><speed>15.41</speed><time>2016-06-02T14:27:56Z</time><pdop>6.0</pdop><geoidheight>50.00</geoidheight><course>307.9</course><type>1</type></trkpt>
      <trkpt lat="38.44641009" lon="-1.96775924"><ele>1147</ele><speed>13.17</speed><time>2016-06-02T14:27:58Z</time><pdop>9.0</pdop><geoidheight>50.00</geoidheight><course>317.2</course><type>1</type></trkpt>
      <trkpt lat="38.44671849" lon="-1.96782429"><ele>1149</ele><speed>14.38</speed><time>2016-06-02T14:28:00Z</time><pdop>12.0</pdop><geoidheight>50.00</geoidheight><course>342.3</course><type>1</type></trkpt>
      <trkpt lat="38.4470217" lon="-1.96781139"><ele>1149</ele><speed>14.72</speed><time>2016-06-02T14:28:02Z</time><pdop>10.0</pdop><geoidheight>50.00</geoidheight><course>358.4</course><type>1</type></trkpt>
      <trkpt lat="38.44732736" lon="-1.96778815"><ele>1150</ele><speed>14.83</speed><time>2016-06-02T14:28:04Z</time><pdop>9.0</pdop><geoidheight>50.00</geoidheight><course>1.6</course><type>1</type></trkpt>
      <trkpt lat="38.44748175" lon="-1.96771043"><ele>1147</ele><speed>10.37</speed><time>2016-06-02T14:28:06Z</time><pdop>9.0</pdop><geoidheight>50.00</geoidheight><course>15.8</course><type>1</type></trkpt>
      <trkpt lat="38.44739344" lon="-1.96759441"><ele>1143</ele><speed>6.46</speed><time>2016-06-02T14:28:11Z</time><pdop>5.0</pdop><geoidheight>50.00</geoidheight><course>195.4</course><type>1</type></trkpt>
      <trkpt lat="38.44726795" lon="-1.96765685"><ele>1144</ele><speed>6.88</speed><time>2016-06-02T14:28:13Z</time><pdop>6.0</pdop><geoidheight>50.00</geoidheight><course>205.5</course><type>1</type></trkpt>
      <trkpt lat="38.44726153" lon="-1.96786291"><ele>1142</ele><speed>6.58</speed><time>2016-06-02T14:28:15Z</time><pdop>8.0</pdop><geoidheight>50.00</geoidheight><course>259.4</course><type>1</type></trkpt>
      <trkpt lat="38.4473961" lon="-1.96806981"><ele>1140</ele><speed>13.36</speed><time>2016-06-02T14:28:16Z</time><pdop>7.0</pdop><geoidheight>50.00</geoidheight><course>299.0</course><type>1</type></trkpt>
      <trkpt lat="38.44748291" lon="-1.96821816"><ele>1141</ele><speed>15.39</speed><time>2016-06-02T14:28:17Z</time><pdop>6.0</pdop><geoidheight>50.00</geoidheight><course>304.4</course><type>1</type></trkpt>
      <trkpt lat="38.44757384" lon="-1.96837009"><ele>1141</ele><speed>15.97</speed><time>2016-06-02T14:28:18Z</time><pdop>5.0</pdop><geoidheight>50.00</geoidheight><course>310.8</course><type>1</type></trkpt>
      <trkpt lat="38.44768754" lon="-1.96848879"><ele>1143</ele><speed>16.22</speed><time>2016-06-02T14:28:19Z</time><pdop>5.0</pdop><geoidheight>50.00</geoidheight><course>316.2</course><type>1</type></trkpt>
      <trkpt lat="38.44781685" lon="-1.96857018"><ele>1143</ele><speed>15.83</speed><time>2016-06-02T14:28:20Z</time><pdop>5.0</pdop><geoidheight>50.00</geoidheight><course>325.7</course><type>1</type></trkpt>
      <trkpt lat="38.44790867" lon="-1.96867778"><ele>1144</ele><speed>14.89</speed><time>2016-06-02T14:28:21Z</time><pdop>6.0</pdop><geoidheight>50.00</geoidheight><course>326.2</course><type>1</type></trkpt>
      <trkpt lat="38.44800771" lon="-1.96876425"><ele>1145</ele><speed>14.00</speed><time>2016-06-02T14:28:22Z</time><pdop>7.0</pdop><geoidheight>50.00</geoidheight><course>329.7</course><type>1</type></trkpt>
      <trkpt lat="38.44825667" lon="-1.96885226"><ele>1146</ele><speed>13.08</speed><time>2016-06-02T14:28:24Z</time><pdop>5.0</pdop><geoidheight>50.00</geoidheight><course>348.6</course><type>1</type></trkpt>
      <trkpt lat="38.44836314" lon="-1.96886843"><ele>1148</ele><speed>11.01</speed><time>2016-06-02T14:28:25Z</time><pdop>5.0</pdop><geoidheight>50.00</geoidheight><course>355.9</course><type>1</type></trkpt>
      <trkpt lat="38.44845474" lon="-1.9688597"><ele>1149</ele><speed>9.24</speed><time>2016-06-02T14:28:26Z</time><pdop>5.0</pdop><geoidheight>50.00</geoidheight><course>8.1</course><type>1</type></trkpt>
      <trkpt lat="38.44858152" lon="-1.96881466"><ele>1153</ele><speed>7.08</speed><time>2016-06-02T14:28:28Z</time><pdop>4.0</pdop><geoidheight>50.00</geoidheight><course>29.4</course><type>1</type></trkpt>
      <trkpt lat="38.4484838" lon="-1.96885827"><ele>1156</ele><speed>6.26</speed><time>2016-06-02T14:28:32Z</time><pdop>4.0</pdop><geoidheight>50.00</geoidheight><course>225.8</course><type>1</type></trkpt>
      <trkpt lat="38.44841788" lon="-1.96895164"><ele>1155</ele><speed>9.62</speed><time>2016-06-02T14:28:33Z</time><pdop>4.0</pdop><geoidheight>50.00</geoidheight><course>233.0</course><type>1</type></trkpt>
      <trkpt lat="38.44837647" lon="-1.96907037"><ele>1155</ele><speed>11.48</speed><time>2016-06-02T14:28:34Z</time><pdop>3.0</pdop><geoidheight>50.00</geoidheight><course>247.2</course><type>1</type></trkpt>
      <trkpt lat="38.448355" lon="-1.96922944"><ele>1156</ele><speed>12.93</speed><time>2016-06-02T14:28:35Z</time><pdop>3.0</pdop><geoidheight>50.00</geoidheight><course>260.3</course><type>1</type></trkpt>
      <trkpt lat="38.44835798" lon="-1.96938615"><ele>1157</ele><speed>13.51</speed><time>2016-06-02T14:28:36Z</time><pdop>3.0</pdop><geoidheight>50.00</geoidheight><course>269.2</course><type>1</type></trkpt>
      <trkpt lat="38.44838411" lon="-1.96953387"><ele>1157</ele><speed>13.65</speed><time>2016-06-02T14:28:37Z</time><pdop>3.0</pdop><geoidheight>50.00</geoidheight><course>278.4</course><type>1</type></trkpt>
      <trkpt lat="38.44842936" lon="-1.96970245"><ele>1156</ele><speed>14.67</speed><time>2016-06-02T14:28:38Z</time><pdop>4.0</pdop><geoidheight>50.00</geoidheight><course>286.3</course><type>1</type></trkpt>
      <trkpt lat="38.44848751" lon="-1.96986964"><ele>1156</ele><speed>15.92</speed><time>2016-06-02T14:28:39Z</time><pdop>4.0</pdop><geoidheight>50.00</geoidheight><course>294.6</course><type>1</type></trkpt>
      <trkpt lat="38.44856975" lon="-1.97003324"><ele>1157</ele><speed>16.50</speed><time>2016-06-02T14:28:40Z</time><pdop>4.0</pdop><geoidheight>50.00</geoidheight><course>301.1</course><type>1</type></trkpt>
      <trkpt lat="38.44864845" lon="-1.97020059"><ele>1158</ele><speed>16.89</speed><time>2016-06-02T14:28:41Z</time><pdop>6.0</pdop><geoidheight>50.00</geoidheight><course>301.9</course><type>1</type></trkpt>
      <trkpt lat="38.44878204" lon="-1.9702746"><ele>1157</ele><speed>15.38</speed><time>2016-06-02T14:28:42Z</time><pdop>6.0</pdop><geoidheight>50.00</geoidheight><course>317.3</course><type>1</type></trkpt>
      <trkpt lat="38.44889224" lon="-1.97032046"><ele>1160</ele><speed>12.81</speed><time>2016-06-02T14:28:43Z</time><pdop>5.0</pdop><geoidheight>50.00</geoidheight><course>329.5</course><type>1</type></trkpt>
      <trkpt lat="38.44898283" lon="-1.97037304"><ele>1162</ele><speed>10.61</speed><time>2016-06-02T14:28:44Z</time><pdop>4.0</pdop><geoidheight>50.00</geoidheight><course>342.0</course><type>1</type></trkpt>
      <trkpt lat="38.44906318" lon="-1.97036511"><ele>1160</ele><speed>9.35</speed><time>2016-06-02T14:28:45Z</time><pdop>4.0</pdop><geoidheight>50.00</geoidheight><course>358.1</course><type>1</type></trkpt>
      <trkpt lat="38.44919611" lon="-1.97027773"><ele>1161</ele><speed>8.53</speed><time>2016-06-02T14:28:47Z</time><pdop>4.0</pdop><geoidheight>50.00</geoidheight><course>31.9</course><type>1</type></trkpt>
      <trkpt lat="38.44925922" lon="-1.97022706"><ele>1162</ele><speed>8.18</speed><time>2016-06-02T14:28:48Z</time><pdop>4.0</pdop><geoidheight>50.00</geoidheight><course>35.2</course><type>1</type></trkpt>
      <trkpt lat="38.44935914" lon="-1.97016093"><ele>1165</ele><speed>6.18</speed><time>2016-06-02T14:28:50Z</time><pdop>4.0</pdop><geoidheight>50.00</geoidheight><course>30.5</course><type>1</type></trkpt>
      <trkpt lat="38.449238" lon="-1.97025839"><ele>1166</ele><speed>8.16</speed><time>2016-06-02T14:28:56Z</time><pdop>6.0</pdop><geoidheight>50.00</geoidheight><course>226.5</course><type>1</type></trkpt>
      <trkpt lat="38.44911727" lon="-1.97046646"><ele>1165</ele><speed>11.70</speed><time>2016-06-02T14:28:58Z</time><pdop>5.0</pdop><geoidheight>50.00</geoidheight><course>236.0</course><type>1</type></trkpt>
      <trkpt lat="38.44913246" lon="-1.97063182"><ele>1169</ele><speed>12.55</speed><time>2016-06-02T14:28:59Z</time><pdop>4.0</pdop><geoidheight>50.00</geoidheight><course>260.4</course><type>1</type></trkpt>
      <trkpt lat="38.44911964" lon="-1.9707628"><ele>1170</ele><speed>12.20</speed><time>2016-06-02T14:29:00Z</time><pdop>4.0</pdop><geoidheight>50.00</geoidheight><course>269.0</course><type>1</type></trkpt>
      <trkpt lat="38.44911746" lon="-1.97090916"><ele>1172</ele><speed>12.65</speed><time>2016-06-02T14:29:01Z</time><pdop>4.0</pdop><geoidheight>50.00</geoidheight><course>273.1</course><type>1</type></trkpt>
      <trkpt lat="38.44915268" lon="-1.97106476"><ele>1172</ele><speed>13.84</speed><time>2016-06-02T14:29:02Z</time><pdop>4.0</pdop><geoidheight>50.00</geoidheight><course>283.2</course><type>1</type></trkpt>
      <trkpt lat="38.44922823" lon="-1.97122901"><ele>1171</ele><speed>15.78</speed><time>2016-06-02T14:29:03Z</time><pdop>4.0</pdop><geoidheight>50.00</geoidheight><course>295.5</course><type>1</type></trkpt>
      <trkpt lat="38.44929262" lon="-1.97136448"><ele>1172</ele><speed>15.26</speed><time>2016-06-02T14:29:04Z</time><pdop>5.0</pdop><geoidheight>50.00</geoidheight><course>303.0</course><type>1</type></trkpt>
      <trkpt lat="38.44937659" lon="-1.97148964"><ele>1173</ele><speed>14.29</speed><time>2016-06-02T14:29:05Z</time><pdop>6.0</pdop><geoidheight>50.00</geoidheight><course>308.3</course><type>1</type></trkpt>
      <trkpt lat="38.44953929" lon="-1.97161683"><ele>1174</ele><speed>10.80</speed><time>2016-06-02T14:29:07Z</time><pdop>9.0</pdop><geoidheight>50.00</geoidheight><course>324.4</course><type>1</type></trkpt>
      <trkpt lat="38.44978906" lon="-1.97170761"><ele>1175</ele><speed>12.01</speed><time>2016-06-02T14:29:09Z</time><pdop>9.0</pdop><geoidheight>50.00</geoidheight><course>339.1</course><type>1</type></trkpt>
      <trkpt lat="38.45000848" lon="-1.97166166"><ele>1176</ele><speed>11.05</speed><time>2016-06-02T14:29:11Z</time><pdop>13.0</pdop><geoidheight>50.00</geoidheight><course>0.2</course><type>1</type></trkpt>
      <trkpt lat="38.44987675" lon="-1.97148663"><ele>1187</ele><speed>3.80</speed><time>2016-06-02T14:29:14Z</time><pdop>8.0</pdop><geoidheight>50.00</geoidheight><course>129.0</course><type>1</type></trkpt>
      <trkpt lat="38.44974727" lon="-1.97150704"><ele>1192</ele><speed>7.29</speed><time>2016-06-02T14:29:17Z</time><pdop>6.0</pdop><geoidheight>50.00</geoidheight><course>229.3</course><type>1</type></trkpt>
      <trkpt lat="38.44962817" lon="-1.97159703"><ele>1195</ele><speed>8.02</speed><time>2016-06-02T14:29:19Z</time><pdop>7.0</pdop><geoidheight>50.00</geoidheight><course>227.5</course><type>1</type></trkpt>
      <trkpt lat="38.44968693" lon="-1.9719554"><ele>1198</ele><speed>14.24</speed><time>2016-06-02T14:29:21Z</time><pdop>7.0</pdop><geoidheight>50.00</geoidheight><course>280.8</course><type>1</type></trkpt>
      <trkpt lat="38.44975767" lon="-1.97209741"><ele>1199</ele><speed>14.96</speed><time>2016-06-02T14:29:22Z</time><pdop>6.0</pdop><geoidheight>50.00</geoidheight><course>296.6</course><type>1</type></trkpt>
      <trkpt lat="38.4498363" lon="-1.97224604"><ele>1199</ele><speed>14.80</speed><time>2016-06-02T14:29:23Z</time><pdop>7.0</pdop><geoidheight>50.00</geoidheight><course>302.3</course><type>1</type></trkpt>
      <trkpt lat="38.44990713" lon="-1.97238241"><ele>1200</ele><speed>14.54</speed><time>2016-06-02T14:29:24Z</time><pdop>7.0</pdop><geoidheight>50.00</geoidheight><course>303.9</course><type>1</type></trkpt>
      <trkpt lat="38.45013294" lon="-1.97256607"><ele>1203</ele><speed>14.21</speed><time>2016-06-02T14:29:26Z</time><pdop>9.0</pdop><geoidheight>50.00</geoidheight><course>319.5</course><type>1</type></trkpt>
      <trkpt lat="38.45034614" lon="-1.97254438"><ele>1205</ele><speed>11.54</speed><time>2016-06-02T14:29:28Z</time><pdop>8.0</pdop><geoidheight>50.00</geoidheight><course>346.2</course><type>1</type></trkpt>
      <trkpt lat="38.45054828" lon="-1.97254437"><ele>1207</ele><speed>10.99</speed><time>2016-06-02T14:29:30Z</time><pdop>9.0</pdop><geoidheight>50.00</geoidheight><course>357.9</course><type>1</type></trkpt>
      <trkpt lat="38.4506896" lon="-1.97251448"><ele>1209</ele><speed>8.37</speed><time>2016-06-02T14:29:32Z</time><pdop>6.0</pdop><geoidheight>50.00</geoidheight><course>11.7</course><type>1</type></trkpt>
      <trkpt lat="38.45077107" lon="-1.9723927"><ele>1211</ele><speed>7.83</speed><time>2016-06-02T14:29:34Z</time><pdop>6.0</pdop><geoidheight>50.00</geoidheight><course>50.6</course><type>1</type></trkpt>
      <trkpt lat="38.45087657" lon="-1.97219541"><ele>1217</ele><speed>10.18</speed><time>2016-06-02T14:29:36Z</time><pdop>5.0</pdop><geoidheight>50.00</geoidheight><course>52.6</course><type>1</type></trkpt>
      <trkpt lat="38.45094463" lon="-1.97207346"><ele>1227</ele><speed>7.06</speed><time>2016-06-02T14:29:38Z</time><pdop>5.0</pdop><geoidheight>50.00</geoidheight><course>53.4</course><type>1</type></trkpt>
      <trkpt lat="38.45083669" lon="-1.97211461"><ele>1226</ele><speed>8.35</speed><time>2016-06-02T14:29:44Z</time><pdop>4.0</pdop><geoidheight>50.00</geoidheight><course>227.7</course><type>1</type></trkpt>
      <trkpt lat="38.45080674" lon="-1.9722269"><ele>1226</ele><speed>10.24</speed><time>2016-06-02T14:29:45Z</time><pdop>4.0</pdop><geoidheight>50.00</geoidheight><course>246.1</course><type>1</type></trkpt>
      <trkpt lat="38.45079764" lon="-1.9723603"><ele>1226</ele><speed>11.38</speed><time>2016-06-02T14:29:46Z</time><pdop>4.0</pdop><geoidheight>50.00</geoidheight><course>262.2</course><type>1</type></trkpt>
      <trkpt lat="38.45082996" lon="-1.97251504"><ele>1226</ele><speed>13.29</speed><time>2016-06-02T14:29:47Z</time><pdop>4.0</pdop><geoidheight>50.00</geoidheight><course>281.2</course><type>1</type></trkpt>
      <trkpt lat="38.45087181" lon="-1.97267181"><ele>1226</ele><speed>13.92</speed><time>2016-06-02T14:29:48Z</time><pdop>4.0</pdop><geoidheight>50.00</geoidheight><course>288.9</course><type>1</type></trkpt>
      <trkpt lat="38.45099056" lon="-1.97281647"><ele>1225</ele><speed>16.56</speed><time>2016-06-02T14:29:49Z</time><pdop>4.0</pdop><geoidheight>50.00</geoidheight><course>308.8</course><type>1</type></trkpt>
      <trkpt lat="38.45108589" lon="-1.97296068"><ele>1224</ele><speed>16.86</speed><time>2016-06-02T14:29:50Z</time><pdop>5.0</pdop><geoidheight>50.00</geoidheight><course>309.6</course><type>1</type></trkpt>
      <trkpt lat="38.4511708" lon="-1.97307172"><ele>1224</ele><speed>14.96</speed><time>2016-06-02T14:29:51Z</time><pdop>6.0</pdop><geoidheight>50.00</geoidheight><course>313.3</course><type>1</type></trkpt>
      <trkpt lat="38.45128504" lon="-1.97319091"><ele>1224</ele><speed>14.74</speed><time>2016-06-02T14:29:52Z</time><pdop>7.0</pdop><geoidheight>50.00</geoidheight><course>317.0</course><type>1</type></trkpt>
      <trkpt lat="38.45143287" lon="-1.97320876"><ele>1224</ele><speed>13.59</speed><time>2016-06-02T14:29:53Z</time><pdop>7.0</pdop><geoidheight>50.00</geoidheight><course>336.5</course><type>1</type></trkpt>
      <trkpt lat="38.4515726" lon="-1.97318206"><ele>1223</ele><speed>13.26</speed><time>2016-06-02T14:29:54Z</time><pdop>6.0</pdop><geoidheight>50.00</geoidheight><course>354.7</course><type>1</type></trkpt>
      <trkpt lat="38.45169732" lon="-1.97315452"><ele>1223</ele><speed>12.86</speed><time>2016-06-02T14:29:55Z</time><pdop>6.0</pdop><geoidheight>50.00</geoidheight><course>1.9</course><type>1</type></trkpt>
      <trkpt lat="38.45180997" lon="-1.97313289"><ele>1224</ele><speed>12.69</speed><time>2016-06-02T14:29:56Z</time><pdop>6.0</pdop><geoidheight>50.00</geoidheight><course>2.5</course><type>1</type></trkpt>
      <trkpt lat="38.45201308" lon="-1.97312076"><ele>1225</ele><speed>12.37</speed><time>2016-06-02T14:29:58Z</time><pdop>5.0</pdop><geoidheight>50.00</geoidheight><course>2.5</course><type>1</type></trkpt>
      <trkpt lat="38.45210528" lon="-1.9730817"><ele>1226</ele><speed>10.99</speed><time>2016-06-02T14:29:59Z</time><pdop>5.0</pdop><geoidheight>50.00</geoidheight><course>10.6</course><type>1</type></trkpt>
      <trkpt lat="38.45219146" lon="-1.97299091"><ele>1226</ele><speed>5.54</speed><time>2016-06-02T14:30:01Z</time><pdop>4.0</pdop><geoidheight>50.00</geoidheight><course>47.4</course><type>1</type></trkpt>
      <trkpt lat="38.4521896" lon="-1.97289856"><ele>1223</ele><speed>4.51</speed><time>2016-06-02T14:30:03Z</time><pdop>4.0</pdop><geoidheight>50.00</geoidheight><course>111.9</course><type>1</type></trkpt>
      <trkpt lat="38.45210987" lon="-1.97287959"><ele>1224</ele><speed>4.56</speed><time>2016-06-02T14:30:05Z</time><pdop>4.0</pdop><geoidheight>50.00</geoidheight><course>176.7</course><type>1</type></trkpt>
      <trkpt lat="38.4520239" lon="-1.97296553"><ele>1222</ele><speed>6.76</speed><time>2016-06-02T14:30:07Z</time><pdop>4.0</pdop><geoidheight>50.00</geoidheight><course>222.8</course><type>1</type></trkpt>
      <trkpt lat="38.45193293" lon="-1.97308378"><ele>1224</ele><speed>7.40</speed><time>2016-06-02T14:30:09Z</time><pdop>5.0</pdop><geoidheight>50.00</geoidheight><course>233.9</course><type>1</type></trkpt>
      <trkpt lat="38.45195606" lon="-1.9733053"><ele>1221</ele><speed>12.51</speed><time>2016-06-02T14:30:10Z</time><pdop>4.0</pdop><geoidheight>50.00</geoidheight><course>264.5</course><type>1</type></trkpt>
      <trkpt lat="38.4519575" lon="-1.97345873"><ele>1221</ele><speed>13.19</speed><time>2016-06-02T14:30:11Z</time><pdop>5.0</pdop><geoidheight>50.00</geoidheight><course>270.0</course><type>1</type></trkpt>
      <trkpt lat="38.45200889" lon="-1.97363834"><ele>1220</ele><speed>14.91</speed><time>2016-06-02T14:30:12Z</time><pdop>4.0</pdop><geoidheight>50.00</geoidheight><course>285.5</course><type>1</type></trkpt>
      <trkpt lat="38.45207396" lon="-1.97379334"><ele>1219</ele><speed>15.64</speed><time>2016-06-02T14:30:13Z</time><pdop>4.0</pdop><geoidheight>50.00</geoidheight><course>294.4</course><type>1</type></trkpt>
      <trkpt lat="38.45215655" lon="-1.9739504"><ele>1219</ele><speed>15.99</speed><time>2016-06-02T14:30:14Z</time><pdop>4.0</pdop><geoidheight>50.00</geoidheight><course>304.4</course><type>1</type></trkpt>
      <trkpt lat="38.45225437" lon="-1.97408078"><ele>1220</ele><speed>15.86</speed><time>2016-06-02T14:30:15Z</time><pdop>4.0</pdop><geoidheight>50.00</geoidheight><course>312.8</course><type>1</type></trkpt>
      <trkpt lat="38.45234811" lon="-1.97418869"><ele>1221</ele><speed>14.87</speed><time>2016-06-02T14:30:16Z</time><pdop>4.0</pdop><geoidheight>50.00</geoidheight><course>318.6</course><type>1</type></trkpt>
      <trkpt lat="38.45244972" lon="-1.97427184"><ele>1222</ele><speed>13.96</speed><time>2016-06-02T14:30:17Z</time><pdop>5.0</pdop><geoidheight>50.00</geoidheight><course>325.1</course><type>1</type></trkpt>
      <trkpt lat="38.45255772" lon="-1.97433588"><ele>1223</ele><speed>13.53</speed><time>2016-06-02T14:30:18Z</time><pdop>5.0</pdop><geoidheight>50.00</geoidheight><course>332.3</course><type>1</type></trkpt>
      <trkpt lat="38.45265681" lon="-1.97440579"><ele>1223</ele><speed>13.24</speed><time>2016-06-02T14:30:19Z</time><pdop>7.0</pdop><geoidheight>50.00</geoidheight><course>332.7</course><type>1</type></trkpt>
      <trkpt lat="38.45290603" lon="-1.97447321"><ele>1224</ele><speed>13.10</speed><time>2016-06-02T14:30:21Z</time><pdop>8.0</pdop><geoidheight>50.00</geoidheight><course>345.9</course><type>1</type></trkpt>
      <trkpt lat="38.45311061" lon="-1.97446767"><ele>1225</ele><speed>10.18</speed><time>2016-06-02T14:30:23Z</time><pdop>6.0</pdop><geoidheight>50.00</geoidheight><course>0.2</course><type>1</type></trkpt>
      <trkpt lat="38.45330708" lon="-1.97440681"><ele>1224</ele><speed>10.58</speed><time>2016-06-02T14:30:25Z</time><pdop>9.0</pdop><geoidheight>50.00</geoidheight><course>14.3</course><type>1</type></trkpt>
      <trkpt lat="38.45329424" lon="-1.97417193"><ele>1229</ele><speed>6.57</speed><time>2016-06-02T14:30:28Z</time><pdop>7.0</pdop><geoidheight>50.00</geoidheight><course>75.7</course><type>1</type></trkpt>
      <trkpt lat="38.45315224" lon="-1.97416308"><ele>1228</ele><speed>5.91</speed><time>2016-06-02T14:30:30Z</time><pdop>5.0</pdop><geoidheight>50.00</geoidheight><course>182.3</course><type>1</type></trkpt>
      <trkpt lat="38.45304991" lon="-1.97426323"><ele>1224</ele><speed>7.71</speed><time>2016-06-02T14:30:32Z</time><pdop>5.0</pdop><geoidheight>50.00</geoidheight><course>216.1</course><type>1</type></trkpt>
      <trkpt lat="38.45297538" lon="-1.97433739"><ele>1223</ele><speed>9.15</speed><time>2016-06-02T14:30:33Z</time><pdop>5.0</pdop><geoidheight>50.00</geoidheight><course>220.5</course><type>1</type></trkpt>
      <trkpt lat="38.45293262" lon="-1.97458173"><ele>1225</ele><speed>10.50</speed><time>2016-06-02T14:30:35Z</time><pdop>6.0</pdop><geoidheight>50.00</geoidheight><course>251.6</course><type>1</type></trkpt>
      <trkpt lat="38.4529568" lon="-1.97473595"><ele>1225</ele><speed>10.75</speed><time>2016-06-02T14:30:36Z</time><pdop>7.0</pdop><geoidheight>50.00</geoidheight><course>268.2</course><type>1</type></trkpt>
      <trkpt lat="38.45305547" lon="-1.9749122"><ele>1224</ele><speed>13.45</speed><time>2016-06-02T14:30:37Z</time><pdop>6.0</pdop><geoidheight>50.00</geoidheight><course>296.1</course><type>1</type></trkpt>
      <trkpt lat="38.45311991" lon="-1.97502958"><ele>1225</ele><speed>13.27</speed><time>2016-06-02T14:30:38Z</time><pdop>5.0</pdop><geoidheight>50.00</geoidheight><course>305.7</course><type>1</type></trkpt>
      <trkpt lat="38.45321355" lon="-1.97516161"><ele>1223</ele><speed>13.49</speed><time>2016-06-02T14:30:39Z</time><pdop>5.0</pdop><geoidheight>50.00</geoidheight><course>310.6</course><type>1</type></trkpt>
      <trkpt lat="38.45330235" lon="-1.97526063"><ele>1223</ele><speed>13.04</speed><time>2016-06-02T14:30:40Z</time><pdop>6.0</pdop><geoidheight>50.00</geoidheight><course>315.6</course><type>1</type></trkpt>
      <trkpt lat="38.45339362" lon="-1.97538534"><ele>1222</ele><speed>13.20</speed><time>2016-06-02T14:30:41Z</time><pdop>7.0</pdop><geoidheight>50.00</geoidheight><course>316.6</course><type>1</type></trkpt>
      <trkpt lat="38.45360087" lon="-1.97552245"><ele>1222</ele><speed>12.45</speed><time>2016-06-02T14:30:43Z</time><pdop>10.0</pdop><geoidheight>50.00</geoidheight><course>328.2</course><type>1</type></trkpt>
      <trkpt lat="38.45388098" lon="-1.9755961"><ele>1220</ele><speed>13.37</speed><time>2016-06-02T14:30:45Z</time><pdop>11.0</pdop><geoidheight>50.00</geoidheight><course>342.3</course><type>1</type></trkpt>
      <trkpt lat="38.45413613" lon="-1.9755793"><ele>1218</ele><speed>11.61</speed><time>2016-06-02T14:30:47Z</time><pdop>7.0</pdop><geoidheight>50.00</geoidheight><course>355.2</course><type>1</type></trkpt>
      <trkpt lat="38.4543449" lon="-1.97559079"><ele>1217</ele><speed>10.78</speed><time>2016-06-02T14:30:49Z</time><pdop>7.0</pdop><geoidheight>50.00</geoidheight><course>356.4</course><type>1</type></trkpt>
      <trkpt lat="38.45447829" lon="-1.97558311"><ele>1216</ele><speed>13.03</speed><time>2016-06-02T14:30:50Z</time><pdop>6.0</pdop><geoidheight>50.00</geoidheight><course>0.7</course><type>1</type></trkpt>
      <trkpt lat="38.4547145" lon="-1.97558209"><ele>1216</ele><speed>13.71</speed><time>2016-06-02T14:30:52Z</time><pdop>6.0</pdop><geoidheight>50.00</geoidheight><course>0.4</course><type>1</type></trkpt>
      <trkpt lat="38.45493363" lon="-1.97558189"><ele>1217</ele><speed>11.60</speed><time>2016-06-02T14:30:54Z</time><pdop>6.0</pdop><geoidheight>50.00</geoidheight><course>357.0</course><type>1</type></trkpt>
      <trkpt lat="38.4550424" lon="-1.97560133"><ele>1215</ele><speed>11.67</speed><time>2016-06-02T14:30:55Z</time><pdop>6.0</pdop><geoidheight>50.00</geoidheight><course>353.0</course><type>1</type></trkpt>
      <trkpt lat="38.45515928" lon="-1.97561282"><ele>1214</ele><speed>12.47</speed><time>2016-06-02T14:30:56Z</time><pdop>6.0</pdop><geoidheight>50.00</geoidheight><course>353.2</course><type>1</type></trkpt>
      <trkpt lat="38.4552845" lon="-1.97564403"><ele>1214</ele><speed>13.14</speed><time>2016-06-02T14:30:57Z</time><pdop>7.0</pdop><geoidheight>50.00</geoidheight><course>350.3</course><type>1</type></trkpt>
      <trkpt lat="38.45551278" lon="-1.9757062"><ele>1213</ele><speed>12.99</speed><time>2016-06-02T14:30:59Z</time><pdop>6.0</pdop><geoidheight>50.00</geoidheight><course>347.2</course><type>1</type></trkpt>
      <trkpt lat="38.45563086" lon="-1.97574024"><ele>1213</ele><speed>12.59</speed><time>2016-06-02T14:31:00Z</time><pdop>6.0</pdop><geoidheight>50.00</geoidheight><course>346.1</course><type>1</type></trkpt>
      <trkpt lat="38.45582106" lon="-1.97586926"><ele>1210</ele><speed>12.20</speed><time>2016-06-02T14:31:02Z</time><pdop>7.0</pdop><geoidheight>50.00</geoidheight><course>331.7</course><type>1</type></trkpt>
      <trkpt lat="38.4559142" lon="-1.97599894"><ele>1208</ele><speed>14.19</speed><time>2016-06-02T14:31:03Z</time><pdop>7.0</pdop><geoidheight>50.00</geoidheight><course>317.6</course><type>1</type></trkpt>
      <trkpt lat="38.45605687" lon="-1.9762635"><ele>1206</ele><speed>14.42</speed><time>2016-06-02T14:31:05Z</time><pdop>6.0</pdop><geoidheight>50.00</geoidheight><course>308.8</course><type>1</type></trkpt>
      <trkpt lat="38.45613202" lon="-1.97637884"><ele>1204</ele><speed>14.14</speed><time>2016-06-02T14:31:06Z</time><pdop>6.0</pdop><geoidheight>50.00</geoidheight><course>308.0</course><type>1</type></trkpt>
      <trkpt lat="38.45621399" lon="-1.97650227"><ele>1201</ele><speed>14.68</speed><time>2016-06-02T14:31:07Z</time><pdop>6.0</pdop><geoidheight>50.00</geoidheight><course>309.5</course><type>1</type></trkpt>
      <trkpt lat="38.45630102" lon="-1.97662392"><ele>1199</ele><speed>14.73</speed><time>2016-06-02T14:31:08Z</time><pdop>6.0</pdop><geoidheight>50.00</geoidheight><course>313.5</course><type>1</type></trkpt>
      <trkpt lat="38.45639623" lon="-1.97673555"><ele>1197</ele><speed>14.43</speed><time>2016-06-02T14:31:09Z</time><pdop>6.0</pdop><geoidheight>50.00</geoidheight><course>314.8</course><type>1</type></trkpt>
      <trkpt lat="38.45647982" lon="-1.97684783"><ele>1195</ele><speed>13.92</speed><time>2016-06-02T14:31:10Z</time><pdop>5.0</pdop><geoidheight>50.00</geoidheight><course>314.1</course><type>1</type></trkpt>
      <trkpt lat="38.45655822" lon="-1.97696622"><ele>1193</ele><speed>13.17</speed><time>2016-06-02T14:31:11Z</time><pdop>5.0</pdop><geoidheight>50.00</geoidheight><course>307.5</course><type>1</type></trkpt>
      <trkpt lat="38.45662367" lon="-1.97709498"><ele>1191</ele><speed>13.22</speed><time>2016-06-02T14:31:12Z</time><pdop>5.0</pdop><geoidheight>50.00</geoidheight><course>302.1</course><type>1</type></trkpt>
      <trkpt lat="38.45666131" lon="-1.97726023"><ele>1187</ele><speed>15.11</speed><time>2016-06-02T14:31:13Z</time><pdop>4.0</pdop><geoidheight>50.00</geoidheight><course>292.0</course><type>1</type></trkpt>
      <trkpt lat="38.4567103" lon="-1.97742544"><ele>1184</ele><speed>15.35</speed><time>2016-06-02T14:31:14Z</time><pdop>5.0</pdop><geoidheight>50.00</geoidheight><course>290.4</course><type>1</type></trkpt>
      <trkpt lat="38.45674782" lon="-1.9776378"><ele>1182</ele><speed>17.25</speed><time>2016-06-02T14:31:15Z</time><pdop>5.0</pdop><geoidheight>50.00</geoidheight><course>285.6</course><type>1</type></trkpt>
      <trkpt lat="38.45681049" lon="-1.97783454"><ele>1179</ele><speed>16.43</speed><time>2016-06-02T14:31:16Z</time><pdop>5.0</pdop><geoidheight>50.00</geoidheight><course>287.3</course><type>1</type></trkpt>
      <trkpt lat="38.4568498" lon="-1.97799256"><ele>1178</ele><speed>15.22</speed><time>2016-06-02T14:31:17Z</time><pdop>5.0</pdop><geoidheight>50.00</geoidheight><course>286.8</course><type>1</type></trkpt>
      <trkpt lat="38.45687452" lon="-1.97813775"><ele>1178</ele><speed>13.38</speed><time>2016-06-02T14:31:18Z</time><pdop>5.0</pdop><geoidheight>50.00</geoidheight><course>285.0</course><type>1</type></trkpt>
      <trkpt lat="38.45689846" lon="-1.97829773"><ele>1177</ele><speed>13.82</speed><time>2016-06-02T14:31:19Z</time><pdop>5.0</pdop><geoidheight>50.00</geoidheight><course>283.9</course><type>1</type></trkpt>
      <trkpt lat="38.45693832" lon="-1.97844254"><ele>1176</ele><speed>14.50</speed><time>2016-06-02T14:31:20Z</time><pdop>4.0</pdop><geoidheight>50.00</geoidheight><course>285.2</course><type>1</type></trkpt>
      <trkpt lat="38.45699544" lon="-1.978598"><ele>1174</ele><speed>14.82</speed><time>2016-06-02T14:31:21Z</time><pdop>4.0</pdop><geoidheight>50.00</geoidheight><course>287.5</course><type>1</type></trkpt>
      <trkpt lat="38.45704196" lon="-1.97875267"><ele>1174</ele><speed>14.63</speed><time>2016-06-02T14:31:22Z</time><pdop>4.0</pdop><geoidheight>50.00</geoidheight><course>288.2</course><type>1</type></trkpt>
      <trkpt lat="38.45707821" lon="-1.97890982"><ele>1173</ele><speed>14.40</speed><time>2016-06-02T14:31:23Z</time><pdop>4.0</pdop><geoidheight>50.00</geoidheight><course>289.0</course><type>1</type></trkpt>
      <trkpt lat="38.45713736" lon="-1.97906433"><ele>1172</ele><speed>15.06</speed><time>2016-06-02T14:31:24Z</time><pdop>4.0</pdop><geoidheight>50.00</geoidheight><course>292.9</course><type>1</type></trkpt>
      <trkpt lat="38.45720512" lon="-1.9792146"><ele>1173</ele><speed>15.90</speed><time>2016-06-02T14:31:25Z</time><pdop>4.0</pdop><geoidheight>50.00</geoidheight><course>297.9</course><type>1</type></trkpt>
      <trkpt lat="38.45728655" lon="-1.97936692"><ele>1174</ele><speed>15.69</speed><time>2016-06-02T14:31:26Z</time><pdop>4.0</pdop><geoidheight>50.00</geoidheight><course>303.3</course><type>1</type></trkpt>
      <trkpt lat="38.45735933" lon="-1.97950334"><ele>1176</ele><speed>14.86</speed><time>2016-06-02T14:31:27Z</time><pdop>4.0</pdop><geoidheight>50.00</geoidheight><course>302.6</course><type>1</type></trkpt>
      <trkpt lat="38.45741288" lon="-1.97964542"><ele>1178</ele><speed>13.52</speed><time>2016-06-02T14:31:28Z</time><pdop>4.0</pdop><geoidheight>50.00</geoidheight><course>297.7</course><type>1</type></trkpt>
      <trkpt lat="38.45745038" lon="-1.97978185"><ele>1179</ele><speed>12.72</speed><time>2016-06-02T14:31:29Z</time><pdop>5.0</pdop><geoidheight>50.00</geoidheight><course>291.0</course><type>1</type></trkpt>
      <trkpt lat="38.45747378" lon="-1.97992529"><ele>1179</ele><speed>12.89</speed><time>2016-06-02T14:31:30Z</time><pdop>5.0</pdop><geoidheight>50.00</geoidheight><course>284.5</course><type>1</type></trkpt>
      <trkpt lat="38.45749941" lon="-1.98008964"><ele>1181</ele><speed>13.78</speed><time>2016-06-02T14:31:31Z</time><pdop>4.0</pdop><geoidheight>50.00</geoidheight><course>281.3</course><type>1</type></trkpt>
      <trkpt lat="38.45752424" lon="-1.98022857"><ele>1180</ele><speed>13.96</speed><time>2016-06-02T14:31:32Z</time><pdop>4.0</pdop><geoidheight>50.00</geoidheight><course>279.6</course><type>1</type></trkpt>
      <trkpt lat="38.45753652" lon="-1.98038409"><ele>1182</ele><speed>13.62</speed><time>2016-06-02T14:31:33Z</time><pdop>4.0</pdop><geoidheight>50.00</geoidheight><course>275.9</course><type>1</type></trkpt>
      <trkpt lat="38.45753224" lon="-1.98052388"><ele>1182</ele><speed>13.00</speed><time>2016-06-02T14:31:34Z</time><pdop>4.0</pdop><geoidheight>50.00</geoidheight><course>270.5</course><type>1</type></trkpt>
      <trkpt lat="38.45750378" lon="-1.98065171"><ele>1182</ele><speed>11.95</speed><time>2016-06-02T14:31:35Z</time><pdop>4.0</pdop><geoidheight>50.00</geoidheight><course>260.0</course><type>1</type></trkpt>
      <trkpt lat="38.45747737" lon="-1.98078417"><ele>1183</ele><speed>11.66</speed><time>2016-06-02T14:31:36Z</time><pdop>5.0</pdop><geoidheight>50.00</geoidheight><course>257.1</course><type>1</type></trkpt>
      <trkpt lat="38.4574385" lon="-1.98096008"><ele>1184</ele><speed>7.89</speed><time>2016-06-02T14:31:38Z</time><pdop>7.0</pdop><geoidheight>50.00</geoidheight><course>254.5</course><type>1</type></trkpt>
      <trkpt lat="38.45756407" lon="-1.98076086"><ele>1181</ele><speed>10.45</speed><time>2016-06-02T14:31:43Z</time><pdop>5.0</pdop><geoidheight>50.00</geoidheight><course>31.1</course><type>1</type></trkpt>
      <trkpt lat="38.45766721" lon="-1.98071333"><ele>1181</ele><speed>11.65</speed><time>2016-06-02T14:31:44Z</time><pdop>5.0</pdop><geoidheight>50.00</geoidheight><course>19.0</course><type>1</type></trkpt>
      <trkpt lat="38.4577824" lon="-1.98069084"><ele>1181</ele><speed>11.91</speed><time>2016-06-02T14:31:45Z</time><pdop>6.0</pdop><geoidheight>50.00</geoidheight><course>12.6</course><type>1</type></trkpt>
      <trkpt lat="38.45791944" lon="-1.98072793"><ele>1180</ele><speed>14.27</speed><time>2016-06-02T14:31:46Z</time><pdop>6.0</pdop><geoidheight>50.00</geoidheight><course>355.3</course><type>1</type></trkpt>
      <trkpt lat="38.45806239" lon="-1.98074876"><ele>1181</ele><speed>15.02</speed><time>2016-06-02T14:31:47Z</time><pdop>7.0</pdop><geoidheight>50.00</geoidheight><course>351.8</course><type>1</type></trkpt>
      <trkpt lat="38.45831212" lon="-1.98088399"><ele>1181</ele><speed>15.95</speed><time>2016-06-02T14:31:49Z</time><pdop>9.0</pdop><geoidheight>50.00</geoidheight><course>339.2</course><type>1</type></trkpt>
      <trkpt lat="38.45852635" lon="-1.98112428"><ele>1180</ele><speed>15.87</speed><time>2016-06-02T14:31:51Z</time><pdop>7.0</pdop><geoidheight>50.00</geoidheight><course>320.1</course><type>1</type></trkpt>
      <trkpt lat="38.4585363" lon="-1.98146443"><ele>1181</ele><speed>14.75</speed><time>2016-06-02T14:31:53Z</time><pdop>6.0</pdop><geoidheight>50.00</geoidheight><course>287.6</course><type>1</type></trkpt>
      <trkpt lat="38.4585451" lon="-1.9816237"><ele>1182</ele><speed>13.61</speed><time>2016-06-02T14:31:54Z</time><pdop>5.0</pdop><geoidheight>50.00</geoidheight><course>277.2</course><type>1</type></trkpt>
      <trkpt lat="38.45854312" lon="-1.98176793"><ele>1182</ele><speed>12.21</speed><time>2016-06-02T14:31:55Z</time><pdop>5.0</pdop><geoidheight>50.00</geoidheight><course>264.8</course><type>1</type></trkpt>
      <trkpt lat="38.45847017" lon="-1.98197288"><ele>1182</ele><speed>10.08</speed><time>2016-06-02T14:31:57Z</time><pdop>5.0</pdop><geoidheight>50.00</geoidheight><course>245.0</course><type>1</type></trkpt>
      <trkpt lat="38.45843168" lon="-1.98213245"><ele>1184</ele><speed>7.68</speed><time>2016-06-02T14:31:59Z</time><pdop>9.0</pdop><geoidheight>50.00</geoidheight><course>247.9</course><type>1</type></trkpt>
      <trkpt lat="38.45862765" lon="-1.98197038"><ele>1187</ele><speed>7.36</speed><time>2016-06-02T14:32:05Z</time><pdop>16.0</pdop><geoidheight>50.00</geoidheight><course>9.2</course><type>1</type></trkpt>
      <trkpt lat="38.45900627" lon="-1.98190432"><ele>1189</ele><speed>10.55</speed><time>2016-06-02T14:32:08Z</time><pdop>21.0</pdop><geoidheight>50.00</geoidheight><course>349.7</course><type>1</type></trkpt>
      <trkpt lat="38.45938966" lon="-1.98218087"><ele>1186</ele><speed>17.42</speed><time>2016-06-02T14:32:10Z</time><pdop>15.0</pdop><geoidheight>50.00</geoidheight><course>323.6</course><type>1</type></trkpt>
      <trkpt lat="38.45957636" lon="-1.98255273"><ele>1186</ele><speed>18.35</speed><time>2016-06-02T14:32:12Z</time><pdop>14.0</pdop><geoidheight>50.00</geoidheight><course>307.7</course><type>1</type></trkpt>
      <trkpt lat="38.45967728" lon="-1.98288574"><ele>1185</ele><speed>15.68</speed><time>2016-06-02T14:32:14Z</time><pdop>13.0</pdop><geoidheight>50.00</geoidheight><course>296.7</course><type>1</type></trkpt>
      <trkpt lat="38.45959006" lon="-1.9832185"><ele>1184</ele><speed>14.04</speed><time>2016-06-02T14:32:16Z</time><pdop>8.0</pdop><geoidheight>50.00</geoidheight><course>263.1</course><type>1</type></trkpt>
      <trkpt lat="38.45954689" lon="-1.98349809"><ele>1186</ele><speed>11.65</speed><time>2016-06-02T14:32:18Z</time><pdop>6.0</pdop><geoidheight>50.00</geoidheight><course>254.2</course><type>1</type></trkpt>
      <trkpt lat="38.45950982" lon="-1.98363105"><ele>1186</ele><speed>11.01</speed><time>2016-06-02T14:32:19Z</time><pdop>6.0</pdop><geoidheight>50.00</geoidheight><course>249.5</course><type>1</type></trkpt>
      <trkpt lat="38.45946831" lon="-1.98375018"><ele>1186</ele><speed>10.35</speed><time>2016-06-02T14:32:20Z</time><pdop>5.0</pdop><geoidheight>50.00</geoidheight><course>242.1</course><type>1</type></trkpt>
      <trkpt lat="38.45936654" lon="-1.98389701"><ele>1184</ele><speed>8.26</speed><time>2016-06-02T14:32:22Z</time><pdop>7.0</pdop><geoidheight>50.00</geoidheight><course>227.3</course><type>1</type></trkpt>
      <trkpt lat="38.45925415" lon="-1.9838129"><ele>1189</ele><speed>4.04</speed><time>2016-06-02T14:32:25Z</time><pdop>5.0</pdop><geoidheight>50.00</geoidheight><course>118.2</course><type>1</type></trkpt>
      <trkpt lat="38.45934317" lon="-1.98364789"><ele>1190</ele><speed>6.61</speed><time>2016-06-02T14:32:28Z</time><pdop>7.0</pdop><geoidheight>50.00</geoidheight><course>49.0</course><type>1</type></trkpt>
      <trkpt lat="38.45948111" lon="-1.983528"><ele>1192</ele><speed>9.09</speed><time>2016-06-02T14:32:30Z</time><pdop>9.0</pdop><geoidheight>50.00</geoidheight><course>30.7</course><type>1</type></trkpt>
      <trkpt lat="38.45970377" lon="-1.98352044"><ele>1193</ele><speed>10.72</speed><time>2016-06-02T14:32:32Z</time><pdop>11.0</pdop><geoidheight>50.00</geoidheight><course>2.8</course><type>1</type></trkpt>
      <trkpt lat="38.45996104" lon="-1.98367041"><ele>1191</ele><speed>13.89</speed><time>2016-06-02T14:32:34Z</time><pdop>10.0</pdop><geoidheight>50.00</geoidheight><course>336.0</course><type>1</type></trkpt>
      <trkpt lat="38.46010887" lon="-1.98381592"><ele>1192</ele><speed>16.08</speed><time>2016-06-02T14:32:35Z</time><pdop>10.0</pdop><geoidheight>50.00</geoidheight><course>325.7</course><type>1</type></trkpt>
      <trkpt lat="38.46032843" lon="-1.98415045"><ele>1193</ele><speed>17.25</speed><time>2016-06-02T14:32:37Z</time><pdop>11.0</pdop><geoidheight>50.00</geoidheight><course>310.7</course><type>1</type></trkpt>
      <trkpt lat="38.4604052" lon="-1.98443942"><ele>1191</ele><speed>15.27</speed><time>2016-06-02T14:32:39Z</time><pdop>11.0</pdop><geoidheight>50.00</geoidheight><course>300.0</course><type>1</type></trkpt>
      <trkpt lat="38.46047813" lon="-1.98468868"><ele>1189</ele><speed>16.42</speed><time>2016-06-02T14:32:40Z</time><pdop>11.0</pdop><geoidheight>50.00</geoidheight><course>293.7</course><type>1</type></trkpt>
      <trkpt lat="38.46040994" lon="-1.98501006"><ele>1189</ele><speed>13.70</speed><time>2016-06-02T14:32:42Z</time><pdop>10.0</pdop><geoidheight>50.00</geoidheight><course>266.3</course><type>1</type></trkpt>
      <trkpt lat="38.46028936" lon="-1.98524507"><ele>1189</ele><speed>12.35</speed><time>2016-06-02T14:32:44Z</time><pdop>11.0</pdop><geoidheight>50.00</geoidheight><course>250.6</course><type>1</type></trkpt>
      <trkpt lat="38.46009502" lon="-1.98535509"><ele>1192</ele><speed>7.43</speed><time>2016-06-02T14:32:47Z</time><pdop>11.0</pdop><geoidheight>50.00</geoidheight><course>215.5</course><type>1</type></trkpt>
      <trkpt lat="38.4601716" lon="-1.98511266"><ele>1197</ele><speed>6.62</speed><time>2016-06-02T14:32:51Z</time><pdop>6.0</pdop><geoidheight>50.00</geoidheight><course>39.6</course><type>1</type></trkpt>
      <trkpt lat="38.46030479" lon="-1.98499367"><ele>1198</ele><speed>9.23</speed><time>2016-06-02T14:32:53Z</time><pdop>5.0</pdop><geoidheight>50.00</geoidheight><course>27.7</course><type>1</type></trkpt>
      <trkpt lat="38.46049835" lon="-1.98491861"><ele>1199</ele><speed>11.96</speed><time>2016-06-02T14:32:55Z</time><pdop>7.0</pdop><geoidheight>50.00</geoidheight><course>10.4</course><type>1</type></trkpt>
      <trkpt lat="38.46063685" lon="-1.98492121"><ele>1200</ele><speed>14.65</speed><time>2016-06-02T14:32:56Z</time><pdop>6.0</pdop><geoidheight>50.00</geoidheight><course>357.7</course><type>1</type></trkpt>
      <trkpt lat="38.46078151" lon="-1.98494124"><ele>1201</ele><speed>15.99</speed><time>2016-06-02T14:32:57Z</time><pdop>6.0</pdop><geoidheight>50.00</geoidheight><course>351.9</course><type>1</type></trkpt>
      <trkpt lat="38.46093184" lon="-1.98499387"><ele>1200</ele><speed>16.44</speed><time>2016-06-02T14:32:58Z</time><pdop>6.0</pdop><geoidheight>50.00</geoidheight><course>344.5</course><type>1</type></trkpt>
      <trkpt lat="38.46104903" lon="-1.98507322"><ele>1201</ele><speed>16.04</speed><time>2016-06-02T14:32:59Z</time><pdop>7.0</pdop><geoidheight>50.00</geoidheight><course>339.4</course><type>1</type></trkpt>
      <trkpt lat="38.46116638" lon="-1.98518721"><ele>1201</ele><speed>16.41</speed><time>2016-06-02T14:33:00Z</time><pdop>8.0</pdop><geoidheight>50.00</geoidheight><course>331.5</course><type>1</type></trkpt>
      <trkpt lat="38.46130928" lon="-1.98533891"><ele>1199</ele><speed>16.91</speed><time>2016-06-02T14:33:01Z</time><pdop>8.0</pdop><geoidheight>50.00</geoidheight><course>324.4</course><type>1</type></trkpt>
      <trkpt lat="38.46137625" lon="-1.98549943"><ele>1199</ele><speed>15.88</speed><time>2016-06-02T14:33:02Z</time><pdop>7.0</pdop><geoidheight>50.00</geoidheight><course>313.7</course><type>1</type></trkpt>
      <trkpt lat="38.46142377" lon="-1.98567702"><ele>1198</ele><speed>16.19</speed><time>2016-06-02T14:33:03Z</time><pdop>6.0</pdop><geoidheight>50.00</geoidheight><course>302.1</course><type>1</type></trkpt>
      <trkpt lat="38.46149648" lon="-1.98584388"><ele>1197</ele><speed>16.72</speed><time>2016-06-02T14:33:04Z</time><pdop>6.0</pdop><geoidheight>50.00</geoidheight><course>297.6</course><type>1</type></trkpt>
      <trkpt lat="38.46153187" lon="-1.98600965"><ele>1196</ele><speed>16.42</speed><time>2016-06-02T14:33:05Z</time><pdop>5.0</pdop><geoidheight>50.00</geoidheight><course>290.5</course><type>1</type></trkpt>
      <trkpt lat="38.4615639" lon="-1.98616537"><ele>1197</ele><speed>15.25</speed><time>2016-06-02T14:33:06Z</time><pdop>5.0</pdop><geoidheight>50.00</geoidheight><course>282.9</course><type>1</type></trkpt>
      <trkpt lat="38.46156739" lon="-1.98631816"><ele>1196</ele><speed>13.78</speed><time>2016-06-02T14:33:07Z</time><pdop>4.0</pdop><geoidheight>50.00</geoidheight><course>273.7</course><type>1</type></trkpt>
      <trkpt lat="38.46155959" lon="-1.98645255"><ele>1195</ele><speed>12.75</speed><time>2016-06-02T14:33:08Z</time><pdop>4.0</pdop><geoidheight>50.00</geoidheight><course>265.3</course><type>1</type></trkpt>
      <trkpt lat="38.46153394" lon="-1.98658692"><ele>1195</ele><speed>12.03</speed><time>2016-06-02T14:33:09Z</time><pdop>4.0</pdop><geoidheight>50.00</geoidheight><course>260.6</course><type>1</type></trkpt>
      <trkpt lat="38.46150336" lon="-1.98668243"><ele>1195</ele><speed>9.77</speed><time>2016-06-02T14:33:10Z</time><pdop>4.0</pdop><geoidheight>50.00</geoidheight><course>254.5</course><type>1</type></trkpt>
      <trkpt lat="38.46143953" lon="-1.98683066"><ele>1194</ele><speed>8.15</speed><time>2016-06-02T14:33:12Z</time><pdop>4.0</pdop><geoidheight>50.00</geoidheight><course>243.0</course><type>1</type></trkpt>
      <trkpt lat="38.46135597" lon="-1.98700015"><ele>1193</ele><speed>7.70</speed><time>2016-06-02T14:33:14Z</time><pdop>5.0</pdop><geoidheight>50.00</geoidheight><course>239.9</course><type>1</type></trkpt>
      <trkpt lat="38.46127978" lon="-1.98713848"><ele>1193</ele><speed>6.71</speed><time>2016-06-02T14:33:16Z</time><pdop>6.0</pdop><geoidheight>50.00</geoidheight><course>230.1</course><type>1</type></trkpt>
      <trkpt lat="38.46111263" lon="-1.98723248"><ele>1197</ele><speed>6.43</speed><time>2016-06-02T14:33:19Z</time><pdop>8.0</pdop><geoidheight>50.00</geoidheight><course>206.2</course><type>1</type></trkpt>
      <trkpt lat="38.46094737" lon="-1.9873051"><ele>1199</ele><speed>5.68</speed><time>2016-06-02T14:33:22Z</time><pdop>6.0</pdop><geoidheight>50.00</geoidheight><course>204.9</course><type>1</type></trkpt>
      <trkpt lat="38.46081926" lon="-1.98741108"><ele>1198</ele><speed>4.60</speed><time>2016-06-02T14:33:26Z</time><pdop>6.0</pdop><geoidheight>50.00</geoidheight><course>207.8</course><type>1</type></trkpt>
      <trkpt lat="38.46070291" lon="-1.98746259"><ele>1198</ele><speed>5.92</speed><time>2016-06-02T14:33:29Z</time><pdop>7.0</pdop><geoidheight>50.00</geoidheight><course>186.4</course><type>1</type></trkpt>
      <trkpt lat="38.46058621" lon="-1.98748328"><ele>1197</ele><speed>4.39</speed><time>2016-06-02T14:33:32Z</time><pdop>6.0</pdop><geoidheight>50.00</geoidheight><course>172.2</course><type>1</type></trkpt>
      <trkpt lat="38.46041928" lon="-1.98742564"><ele>1198</ele><speed>4.11</speed><time>2016-06-02T14:33:36Z</time><pdop>11.0</pdop><geoidheight>50.00</geoidheight><course>146.7</course><type>1</type></trkpt>
      <trkpt lat="38.46049659" lon="-1.98712216"><ele>1193</ele><speed>9.28</speed><time>2016-06-02T14:33:40Z</time><pdop>10.0</pdop><geoidheight>50.00</geoidheight><course>58.8</course><type>1</type></trkpt>
      <trkpt lat="38.46065761" lon="-1.98695984"><ele>1193</ele><speed>10.85</speed><time>2016-06-02T14:33:42Z</time><pdop>6.0</pdop><geoidheight>50.00</geoidheight><course>34.3</course><type>1</type></trkpt>
      <trkpt lat="38.46084536" lon="-1.98689141"><ele>1194</ele><speed>10.82</speed><time>2016-06-02T14:33:44Z</time><pdop>8.0</pdop><geoidheight>50.00</geoidheight><course>22.1</course><type>1</type></trkpt>
      <trkpt lat="38.46099091" lon="-1.98697507"><ele>1192</ele><speed>11.73</speed><time>2016-06-02T14:33:45Z</time><pdop>8.0</pdop><geoidheight>50.00</geoidheight><course>358.9</course><type>1</type></trkpt>
      <trkpt lat="38.4613002" lon="-1.98725196"><ele>1190</ele><speed>16.31</speed><time>2016-06-02T14:33:47Z</time><pdop>11.0</pdop><geoidheight>50.00</geoidheight><course>332.3</course><type>1</type></trkpt>
      <trkpt lat="38.46148598" lon="-1.98747515"><ele>1190</ele><speed>15.03</speed><time>2016-06-02T14:33:49Z</time><pdop>12.0</pdop><geoidheight>50.00</geoidheight><course>325.7</course><type>1</type></trkpt>
      <trkpt lat="38.46148333" lon="-1.98793131"><ele>1191</ele><speed>14.71</speed><time>2016-06-02T14:33:51Z</time><pdop>12.0</pdop><geoidheight>50.00</geoidheight><course>293.1</course><type>1</type></trkpt>
      <trkpt lat="38.46127644" lon="-1.98821866"><ele>1190</ele><speed>10.23</speed><time>2016-06-02T14:33:53Z</time><pdop>10.0</pdop><geoidheight>50.00</geoidheight><course>252.7</course><type>1</type></trkpt>
      <trkpt lat="38.46109352" lon="-1.98826125"><ele>1193</ele><speed>4.68</speed><time>2016-06-02T14:33:57Z</time><pdop>10.0</pdop><geoidheight>50.00</geoidheight><course>149.4</course><type>1</type></trkpt>
      <trkpt lat="38.46103554" lon="-1.98802187"><ele>1195</ele><speed>7.48</speed><time>2016-06-02T14:34:00Z</time><pdop>6.0</pdop><geoidheight>50.00</geoidheight><course>76.1</course><type>1</type></trkpt>
      <trkpt lat="38.4611531" lon="-1.98787932"><ele>1193</ele><speed>8.58</speed><time>2016-06-02T14:34:02Z</time><pdop>5.0</pdop><geoidheight>50.00</geoidheight><course>52.0</course><type>1</type></trkpt>
      <trkpt lat="38.46124422" lon="-1.98781888"><ele>1192</ele><speed>9.71</speed><time>2016-06-02T14:34:03Z</time><pdop>6.0</pdop><geoidheight>50.00</geoidheight><course>39.3</course><type>1</type></trkpt>
      <trkpt lat="38.46144925" lon="-1.98778462"><ele>1192</ele><speed>12.12</speed><time>2016-06-02T14:34:05Z</time><pdop>6.0</pdop><geoidheight>50.00</geoidheight><course>10.2</course><type>1</type></trkpt>
      <trkpt lat="38.46155063" lon="-1.98777775"><ele>1193</ele><speed>12.49</speed><time>2016-06-02T14:34:06Z</time><pdop>5.0</pdop><geoidheight>50.00</geoidheight><course>359.7</course><type>1</type></trkpt>
      <trkpt lat="38.46167394" lon="-1.98779991"><ele>1193</ele><speed>14.01</speed><time>2016-06-02T14:34:07Z</time><pdop>6.0</pdop><geoidheight>50.00</geoidheight><course>350.6</course><type>1</type></trkpt>
      <trkpt lat="38.46179933" lon="-1.98784684"><ele>1193</ele><speed>14.86</speed><time>2016-06-02T14:34:08Z</time><pdop>5.0</pdop><geoidheight>50.00</geoidheight><course>345.8</course><type>1</type></trkpt>
      <trkpt lat="38.46191414" lon="-1.98791369"><ele>1194</ele><speed>15.21</speed><time>2016-06-02T14:34:09Z</time><pdop>6.0</pdop><geoidheight>50.00</geoidheight><course>340.0</course><type>1</type></trkpt>
      <trkpt lat="38.46205047" lon="-1.98797145"><ele>1193</ele><speed>15.25</speed><time>2016-06-02T14:34:10Z</time><pdop>7.0</pdop><geoidheight>50.00</geoidheight><course>338.6</course><type>1</type></trkpt>
      <trkpt lat="38.46218501" lon="-1.98807644"><ele>1193</ele><speed>16.25</speed><time>2016-06-02T14:34:11Z</time><pdop>9.0</pdop><geoidheight>50.00</geoidheight><course>332.0</course><type>1</type></trkpt>
      <trkpt lat="38.46233678" lon="-1.98833477"><ele>1193</ele><speed>15.17</speed><time>2016-06-02T14:34:13Z</time><pdop>11.0</pdop><geoidheight>50.00</geoidheight><course>315.4</course><type>1</type></trkpt>
      <trkpt lat="38.46242416" lon="-1.98853204"><ele>1191</ele><speed>15.50</speed><time>2016-06-02T14:34:14Z</time><pdop>8.0</pdop><geoidheight>50.00</geoidheight><course>306.5</course><type>1</type></trkpt>
      <trkpt lat="38.46255342" lon="-1.98883333"><ele>1193</ele><speed>15.05</speed><time>2016-06-02T14:34:16Z</time><pdop>7.0</pdop><geoidheight>50.00</geoidheight><course>296.1</course><type>1</type></trkpt>
      <trkpt lat="38.46259139" lon="-1.98900592"><ele>1194</ele><speed>14.81</speed><time>2016-06-02T14:34:17Z</time><pdop>8.0</pdop><geoidheight>50.00</geoidheight><course>290.5</course><type>1</type></trkpt>
      <trkpt lat="38.46256676" lon="-1.98930773"><ele>1194</ele><speed>12.73</speed><time>2016-06-02T14:34:19Z</time><pdop>6.0</pdop><geoidheight>50.00</geoidheight><course>268.5</course><type>1</type></trkpt>
      <trkpt lat="38.46251057" lon="-1.98955954"><ele>1193</ele><speed>11.41</speed><time>2016-06-02T14:34:21Z</time><pdop>9.0</pdop><geoidheight>50.00</geoidheight><course>253.7</course><type>1</type></trkpt>
      <trkpt lat="38.46238996" lon="-1.98975898"><ele>1195</ele><speed>6.57</speed><time>2016-06-02T14:34:24Z</time><pdop>10.0</pdop><geoidheight>50.00</geoidheight><course>228.3</course><type>1</type></trkpt>
      <trkpt lat="38.46213887" lon="-1.98973835"><ele>1195</ele><speed>5.37</speed><time>2016-06-02T14:34:28Z</time><pdop>12.0</pdop><geoidheight>50.00</geoidheight><course>163.0</course><type>1</type></trkpt>
      <trkpt lat="38.46211236" lon="-1.98944533"><ele>1193</ele><speed>6.93</speed><time>2016-06-02T14:34:31Z</time><pdop>7.0</pdop><geoidheight>50.00</geoidheight><course>78.3</course><type>1</type></trkpt>
      <trkpt lat="38.46223679" lon="-1.98924524"><ele>1195</ele><speed>10.81</speed><time>2016-06-02T14:34:33Z</time><pdop>6.0</pdop><geoidheight>50.00</geoidheight><course>42.0</course><type>1</type></trkpt>
      <trkpt lat="38.46234519" lon="-1.98919201"><ele>1196</ele><speed>11.68</speed><time>2016-06-02T14:34:34Z</time><pdop>6.0</pdop><geoidheight>50.00</geoidheight><course>28.4</course><type>1</type></trkpt>
      <trkpt lat="38.46254744" lon="-1.98912286"><ele>1197</ele><speed>11.90</speed><time>2016-06-02T14:34:36Z</time><pdop>8.0</pdop><geoidheight>50.00</geoidheight><course>14.5</course><type>1</type></trkpt>
      <trkpt lat="38.46280581" lon="-1.98917985"><ele>1197</ele><speed>13.61</speed><time>2016-06-02T14:34:38Z</time><pdop>7.0</pdop><geoidheight>50.00</geoidheight><course>355.0</course><type>1</type></trkpt>
      <trkpt lat="38.4630487" lon="-1.98928051"><ele>1196</ele><speed>14.77</speed><time>2016-06-02T14:34:40Z</time><pdop>6.0</pdop><geoidheight>50.00</geoidheight><course>347.4</course><type>1</type></trkpt>
      <trkpt lat="38.46316937" lon="-1.98933813"><ele>1196</ele><speed>14.89</speed><time>2016-06-02T14:34:41Z</time><pdop>6.0</pdop><geoidheight>50.00</geoidheight><course>344.1</course><type>1</type></trkpt>
      <trkpt lat="38.46328672" lon="-1.98940484"><ele>1197</ele><speed>15.03</speed><time>2016-06-02T14:34:42Z</time><pdop>8.0</pdop><geoidheight>50.00</geoidheight><course>338.8</course><type>1</type></trkpt>
      <trkpt lat="38.46351176" lon="-1.9895565"><ele>1197</ele><speed>13.55</speed><time>2016-06-02T14:34:44Z</time><pdop>11.0</pdop><geoidheight>50.00</geoidheight><course>341.1</course><type>1</type></trkpt>
      <trkpt lat="38.46372235" lon="-1.98960502"><ele>1199</ele><speed>11.55</speed><time>2016-06-02T14:34:46Z</time><pdop>11.0</pdop><geoidheight>50.00</geoidheight><course>353.2</course><type>1</type></trkpt>
      <trkpt lat="38.46386158" lon="-1.98937469"><ele>1197</ele><speed>8.88</speed><time>2016-06-02T14:34:49Z</time><pdop>9.0</pdop><geoidheight>50.00</geoidheight><course>52.2</course><type>1</type></trkpt>
      <trkpt lat="38.4636445" lon="-1.98930755"><ele>1196</ele><speed>6.69</speed><time>2016-06-02T14:34:54Z</time><pdop>11.0</pdop><geoidheight>50.00</geoidheight><course>184.5</course><type>1</type></trkpt>
      <trkpt lat="38.46351671" lon="-1.98957249"><ele>1196</ele><speed>9.62</speed><time>2016-06-02T14:34:56Z</time><pdop>7.0</pdop><geoidheight>50.00</geoidheight><course>238.3</course><type>1</type></trkpt>
      <trkpt lat="38.4634851" lon="-1.98982747"><ele>1199</ele><speed>10.24</speed><time>2016-06-02T14:34:58Z</time><pdop>7.0</pdop><geoidheight>50.00</geoidheight><course>259.2</course><type>1</type></trkpt>
      <trkpt lat="38.46356262" lon="-1.99012307"><ele>1199</ele><speed>14.19</speed><time>2016-06-02T14:35:00Z</time><pdop>5.0</pdop><geoidheight>50.00</geoidheight><course>288.5</course><type>1</type></trkpt>
      <trkpt lat="38.4636274" lon="-1.9902851"><ele>1199</ele><speed>15.34</speed><time>2016-06-02T14:35:01Z</time><pdop>5.0</pdop><geoidheight>50.00</geoidheight><course>296.1</course><type>1</type></trkpt>
      <trkpt lat="38.46370001" lon="-1.99044077"><ele>1200</ele><speed>15.54</speed><time>2016-06-02T14:35:02Z</time><pdop>5.0</pdop><geoidheight>50.00</geoidheight><course>305.2</course><type>1</type></trkpt>
      <trkpt lat="38.46378248" lon="-1.99059136"><ele>1202</ele><speed>15.29</speed><time>2016-06-02T14:35:03Z</time><pdop>5.0</pdop><geoidheight>50.00</geoidheight><course>305.7</course><type>1</type></trkpt>
      <trkpt lat="38.4638514" lon="-1.99072749"><ele>1202</ele><speed>14.36</speed><time>2016-06-02T14:35:04Z</time><pdop>6.0</pdop><geoidheight>50.00</geoidheight><course>305.3</course><type>1</type></trkpt>
      <trkpt lat="38.46403188" lon="-1.99084537"><ele>1202</ele><speed>10.69</speed><time>2016-06-02T14:35:06Z</time><pdop>8.0</pdop><geoidheight>50.00</geoidheight><course>322.7</course><type>1</type></trkpt>
      <trkpt lat="38.46424741" lon="-1.99076597"><ele>1204</ele><speed>9.48</speed><time>2016-06-02T14:35:08Z</time><pdop>9.0</pdop><geoidheight>50.00</geoidheight><course>358.2</course><type>1</type></trkpt>
      <trkpt lat="38.46437711" lon="-1.99055243"><ele>1203</ele><speed>6.82</speed><time>2016-06-02T14:35:11Z</time><pdop>11.0</pdop><geoidheight>50.00</geoidheight><course>37.2</course><type>1</type></trkpt>
      <trkpt lat="38.46409584" lon="-1.99061551"><ele>1204</ele><speed>7.32</speed><time>2016-06-02T14:35:15Z</time><pdop>8.0</pdop><geoidheight>50.00</geoidheight><course>225.5</course><type>1</type></trkpt>
      <trkpt lat="38.4639618" lon="-1.99085667"><ele>1208</ele><speed>9.12</speed><time>2016-06-02T14:35:17Z</time><pdop>7.0</pdop><geoidheight>50.00</geoidheight><course>244.1</course><type>1</type></trkpt>
      <trkpt lat="38.46387144" lon="-1.99106836"><ele>1209</ele><speed>8.65</speed><time>2016-06-02T14:35:19Z</time><pdop>7.0</pdop><geoidheight>50.00</geoidheight><course>259.2</course><type>1</type></trkpt>
      <trkpt lat="38.46398302" lon="-1.99127546"><ele>1207</ele><speed>13.03</speed><time>2016-06-02T14:35:20Z</time><pdop>6.0</pdop><geoidheight>50.00</geoidheight><course>292.1</course><type>1</type></trkpt>
      <trkpt lat="38.46406705" lon="-1.99143356"><ele>1207</ele><speed>15.42</speed><time>2016-06-02T14:35:21Z</time><pdop>6.0</pdop><geoidheight>50.00</geoidheight><course>302.5</course><type>1</type></trkpt>
      <trkpt lat="38.46414954" lon="-1.99156683"><ele>1208</ele><speed>14.95</speed><time>2016-06-02T14:35:22Z</time><pdop>6.0</pdop><geoidheight>50.00</geoidheight><course>309.2</course><type>1</type></trkpt>
      <trkpt lat="38.46424622" lon="-1.99165661"><ele>1209</ele><speed>13.82</speed><time>2016-06-02T14:35:23Z</time><pdop>5.0</pdop><geoidheight>50.00</geoidheight><course>321.9</course><type>1</type></trkpt>
      <trkpt lat="38.46435214" lon="-1.99172947"><ele>1209</ele><speed>13.26</speed><time>2016-06-02T14:35:24Z</time><pdop>7.0</pdop><geoidheight>50.00</geoidheight><course>327.7</course><type>1</type></trkpt>
      <trkpt lat="38.46454549" lon="-1.9918493"><ele>1212</ele><speed>11.76</speed><time>2016-06-02T14:35:26Z</time><pdop>8.0</pdop><geoidheight>50.00</geoidheight><course>341.6</course><type>1</type></trkpt>
      <trkpt lat="38.46467353" lon="-1.99185882"><ele>1212</ele><speed>11.43</speed><time>2016-06-02T14:35:27Z</time><pdop>6.0</pdop><geoidheight>50.00</geoidheight><course>351.0</course><type>1</type></trkpt>
      <trkpt lat="38.46487294" lon="-1.99184448"><ele>1210</ele><speed>11.10</speed><time>2016-06-02T14:35:29Z</time><pdop>7.0</pdop><geoidheight>50.00</geoidheight><course>358.5</course><type>1</type></trkpt>
      <trkpt lat="38.46506792" lon="-1.99181102"><ele>1212</ele><speed>10.08</speed><time>2016-06-02T14:35:31Z</time><pdop>7.0</pdop><geoidheight>50.00</geoidheight><course>7.3</course><type>1</type></trkpt>
      <trkpt lat="38.46519532" lon="-1.99176774"><ele>1213</ele><speed>6.29</speed><time>2016-06-02T14:35:33Z</time><pdop>6.0</pdop><geoidheight>50.00</geoidheight><course>30.8</course><type>1</type></trkpt>
      <trkpt lat="38.46506894" lon="-1.99166058"><ele>1215</ele><speed>4.24</speed><time>2016-06-02T14:35:38Z</time><pdop>9.0</pdop><geoidheight>50.00</geoidheight><course>177.8</course><type>1</type></trkpt>
      <trkpt lat="38.46486167" lon="-1.99191432"><ele>1217</ele><speed>8.68</speed><time>2016-06-02T14:35:41Z</time><pdop>10.0</pdop><geoidheight>50.00</geoidheight><course>223.9</course><type>1</type></trkpt>
      <trkpt lat="38.46490692" lon="-1.9921759"><ele>1216</ele><speed>12.35</speed><time>2016-06-02T14:35:42Z</time><pdop>8.0</pdop><geoidheight>50.00</geoidheight><course>263.9</course><type>1</type></trkpt>
      <trkpt lat="38.46492443" lon="-1.99236451"><ele>1218</ele><speed>13.88</speed><time>2016-06-02T14:35:43Z</time><pdop>8.0</pdop><geoidheight>50.00</geoidheight><course>275.9</course><type>1</type></trkpt>
      <trkpt lat="38.46497371" lon="-1.99255141"><ele>1219</ele><speed>15.15</speed><time>2016-06-02T14:35:44Z</time><pdop>8.0</pdop><geoidheight>50.00</geoidheight><course>285.1</course><type>1</type></trkpt>
      <trkpt lat="38.4650767" lon="-1.99271115"><ele>1221</ele><speed>16.31</speed><time>2016-06-02T14:35:45Z</time><pdop>7.0</pdop><geoidheight>50.00</geoidheight><course>302.4</course><type>1</type></trkpt>
      <trkpt lat="38.46516071" lon="-1.99285832"><ele>1221</ele><speed>15.41</speed><time>2016-06-02T14:35:46Z</time><pdop>7.0</pdop><geoidheight>50.00</geoidheight><course>307.5</course><type>1</type></trkpt>
      <trkpt lat="38.46527005" lon="-1.99297694"><ele>1223</ele><speed>14.44</speed><time>2016-06-02T14:35:47Z</time><pdop>6.0</pdop><geoidheight>50.00</geoidheight><course>316.4</course><type>1</type></trkpt>
      <trkpt lat="38.46536413" lon="-1.99307771"><ele>1224</ele><speed>13.68</speed><time>2016-06-02T14:35:48Z</time><pdop>6.0</pdop><geoidheight>50.00</geoidheight><course>318.6</course><type>1</type></trkpt>
      <trkpt lat="38.4655099" lon="-1.99324008"><ele>1225</ele><speed>10.12</speed><time>2016-06-02T14:35:50Z</time><pdop>8.0</pdop><geoidheight>50.00</geoidheight><course>321.3</course><type>1</type></trkpt>
      <trkpt lat="38.46568789" lon="-1.99319559"><ele>1227</ele><speed>7.54</speed><time>2016-06-02T14:35:52Z</time><pdop>7.0</pdop><geoidheight>50.00</geoidheight><course>6.8</course><type>1</type></trkpt>
      <trkpt lat="38.46575438" lon="-1.99299028"><ele>1306</ele><speed>6.45</speed><time>2016-06-02T14:35:55Z</time><pdop>6.0</pdop><geoidheight>50.00</geoidheight><course>73.7</course><type>1</type></trkpt>
      <trkpt lat="38.46553694" lon="-1.99300349"><ele>1256</ele><speed>5.31</speed><time>2016-06-02T14:36:00Z</time><pdop>8.0</pdop><geoidheight>50.00</geoidheight><course>206.7</course><type>1</type></trkpt>
      <trkpt lat="38.46542072" lon="-1.9931298"><ele>1251</ele><speed>9.61</speed><time>2016-06-02T14:36:01Z</time><pdop>6.0</pdop><geoidheight>50.00</geoidheight><course>225.3</course><type>1</type></trkpt>
      <trkpt lat="38.46530119" lon="-1.99333591"><ele>1241</ele><speed>10.61</speed><time>2016-06-02T14:36:03Z</time><pdop>4.0</pdop><geoidheight>50.00</geoidheight><course>246.9</course><type>1</type></trkpt>
      <trkpt lat="38.46527757" lon="-1.99347365"><ele>1235</ele><speed>11.98</speed><time>2016-06-02T14:36:04Z</time><pdop>4.0</pdop><geoidheight>50.00</geoidheight><course>253.6</course><type>1</type></trkpt>
      <trkpt lat="38.46534446" lon="-1.99367848"><ele>1232</ele><speed>15.07</speed><time>2016-06-02T14:36:05Z</time><pdop>4.0</pdop><geoidheight>50.00</geoidheight><course>278.0</course><type>1</type></trkpt>
      <trkpt lat="38.46538531" lon="-1.99386503"><ele>1230</ele><speed>15.34</speed><time>2016-06-02T14:36:06Z</time><pdop>4.0</pdop><geoidheight>50.00</geoidheight><course>282.8</course><type>1</type></trkpt>
      <trkpt lat="38.46543198" lon="-1.99404074"><ele>1230</ele><speed>15.83</speed><time>2016-06-02T14:36:07Z</time><pdop>6.0</pdop><geoidheight>50.00</geoidheight><course>288.8</course><type>1</type></trkpt>
      <trkpt lat="38.46550474" lon="-1.99416512"><ele>1230</ele><speed>14.52</speed><time>2016-06-02T14:36:08Z</time><pdop>6.0</pdop><geoidheight>50.00</geoidheight><course>298.1</course><type>1</type></trkpt>
      <trkpt lat="38.46557147" lon="-1.99430917"><ele>1230</ele><speed>14.29</speed><time>2016-06-02T14:36:09Z</time><pdop>7.0</pdop><geoidheight>50.00</geoidheight><course>299.1</course><type>1</type></trkpt>
      <trkpt lat="38.46574454" lon="-1.99445033"><ele>1231</ele><speed>11.50</speed><time>2016-06-02T14:36:11Z</time><pdop>8.0</pdop><geoidheight>50.00</geoidheight><course>317.1</course><type>1</type></trkpt>
      <trkpt lat="38.46594413" lon="-1.99450574"><ele>1231</ele><speed>9.91</speed><time>2016-06-02T14:36:13Z</time><pdop>8.0</pdop><geoidheight>50.00</geoidheight><course>341.2</course><type>1</type></trkpt>
      <trkpt lat="38.46610417" lon="-1.99448224"><ele>1230</ele><speed>8.11</speed><time>2016-06-02T14:36:15Z</time><pdop>9.0</pdop><geoidheight>50.00</geoidheight><course>5.4</course><type>1</type></trkpt>
      <trkpt lat="38.46586698" lon="-1.99432597"><ele>1230</ele><speed>6.08</speed><time>2016-06-02T14:36:24Z</time><pdop>16.0</pdop><geoidheight>50.00</geoidheight><course>188.7</course><type>1</type></trkpt>
      <trkpt lat="38.46577733" lon="-1.99467466"><ele>1228</ele><speed>8.00</speed><time>2016-06-02T14:36:27Z</time><pdop>12.0</pdop><geoidheight>50.00</geoidheight><course>258.1</course><type>1</type></trkpt>
      <trkpt lat="38.46580018" lon="-1.99500599"><ele>1230</ele><speed>10.94</speed><time>2016-06-02T14:36:29Z</time><pdop>12.0</pdop><geoidheight>50.00</geoidheight><course>288.1</course><type>1</type></trkpt>
      <trkpt lat="38.46592727" lon="-1.99534361"><ele>1232</ele><speed>11.45</speed><time>2016-06-02T14:36:31Z</time><pdop>10.0</pdop><geoidheight>50.00</geoidheight><course>301.4</course><type>1</type></trkpt>
      <trkpt lat="38.46606506" lon="-1.9955678"><ele>1232</ele><speed>8.63</speed><time>2016-06-02T14:36:33Z</time><pdop>11.0</pdop><geoidheight>50.00</geoidheight><course>319.7</course><type>1</type></trkpt>
      <trkpt lat="38.46631493" lon="-1.99559916"><ele>1230</ele><speed>10.00</speed><time>2016-06-02T14:36:35Z</time><pdop>7.0</pdop><geoidheight>50.00</geoidheight><course>348.6</course><type>1</type></trkpt>
      <trkpt lat="38.46645941" lon="-1.99566253"><ele>1233</ele><speed>8.91</speed><time>2016-06-02T14:36:37Z</time><pdop>7.0</pdop><geoidheight>50.00</geoidheight><course>347.3</course><type>1</type></trkpt>
      <trkpt lat="38.4665681" lon="-1.99559505"><ele>1232</ele><speed>7.05</speed><time>2016-06-02T14:36:39Z</time><pdop>5.0</pdop><geoidheight>50.00</geoidheight><course>29.8</course><type>1</type></trkpt>
      <trkpt lat="38.46662477" lon="-1.99545778"><ele>1228</ele><speed>7.24</speed><time>2016-06-02T14:36:41Z</time><pdop>6.0</pdop><geoidheight>50.00</geoidheight><course>65.5</course><type>1</type></trkpt>
      <trkpt lat="38.46663401" lon="-1.99525615"><ele>1230</ele><speed>5.72</speed><time>2016-06-02T14:36:44Z</time><pdop>7.0</pdop><geoidheight>50.00</geoidheight><course>76.3</course><type>1</type></trkpt>
      <trkpt lat="38.46668539" lon="-1.99510296"><ele>1231</ele><speed>4.61</speed><time>2016-06-02T14:36:47Z</time><pdop>6.0</pdop><geoidheight>50.00</geoidheight><course>74.3</course><type>1</type></trkpt>
      <trkpt lat="38.46671557" lon="-1.99495817"><ele>1232</ele><speed>4.55</speed><time>2016-06-02T14:36:50Z</time><pdop>4.0</pdop><geoidheight>50.00</geoidheight><course>63.7</course><type>1</type></trkpt>
      <trkpt lat="38.46673162" lon="-1.99486233"><ele>1231</ele><speed>4.33</speed><time>2016-06-02T14:36:52Z</time><pdop>4.0</pdop><geoidheight>50.00</geoidheight><course>64.7</course><type>1</type></trkpt>
      <trkpt lat="38.46671739" lon="-1.99474084"><ele>1230</ele><speed>3.73</speed><time>2016-06-02T14:36:55Z</time><pdop>6.0</pdop><geoidheight>50.00</geoidheight><course>96.8</course><type>1</type></trkpt>
      <trkpt lat="38.46666067" lon="-1.99460679"><ele>1231</ele><speed>3.19</speed><time>2016-06-02T14:36:59Z</time><pdop>5.0</pdop><geoidheight>50.00</geoidheight><course>111.1</course><type>1</type></trkpt>
      <trkpt lat="38.46662275" lon="-1.99441405"><ele>1231</ele><speed>4.37</speed><time>2016-06-02T14:37:03Z</time><pdop>7.0</pdop><geoidheight>50.00</geoidheight><course>107.9</course><type>1</type></trkpt>
      <trkpt lat="38.46661095" lon="-1.99424137"><ele>1233</ele><speed>3.52</speed><time>2016-06-02T14:37:06Z</time><pdop>8.0</pdop><geoidheight>50.00</geoidheight><course>94.2</course><type>1</type></trkpt>
      <trkpt lat="38.4665156" lon="-1.99406269"><ele>1235</ele><speed>4.14</speed><time>2016-06-02T14:37:11Z</time><pdop>7.0</pdop><geoidheight>50.00</geoidheight><course>120.0</course><type>1</type></trkpt>
      <trkpt lat="38.46636478" lon="-1.99403401"><ele>1236</ele><speed>4.81</speed><time>2016-06-02T14:37:14Z</time><pdop>6.0</pdop><geoidheight>50.00</geoidheight><course>179.7</course><type>1</type></trkpt>
      <trkpt lat="38.46621038" lon="-1.99428085"><ele>1234</ele><speed>10.00</speed><time>2016-06-02T14:37:16Z</time><pdop>7.0</pdop><geoidheight>50.00</geoidheight><course>222.1</course><type>1</type></trkpt>
      <trkpt lat="38.46623755" lon="-1.99446966"><ele>1235</ele><speed>10.24</speed><time>2016-06-02T14:37:17Z</time><pdop>8.0</pdop><geoidheight>50.00</geoidheight><course>246.7</course><type>1</type></trkpt>
      <trkpt lat="38.46629253" lon="-1.99465187"><ele>1236</ele><speed>11.72</speed><time>2016-06-02T14:37:18Z</time><pdop>7.0</pdop><geoidheight>50.00</geoidheight><course>266.2</course><type>1</type></trkpt>
      <trkpt lat="38.46632985" lon="-1.99488178"><ele>1237</ele><speed>13.68</speed><time>2016-06-02T14:37:19Z</time><pdop>8.0</pdop><geoidheight>50.00</geoidheight><course>272.6</course><type>1</type></trkpt>
      <trkpt lat="38.46653188" lon="-1.99504565"><ele>1237</ele><speed>9.70</speed><time>2016-06-02T14:37:21Z</time><pdop>9.0</pdop><geoidheight>50.00</geoidheight><course>310.6</course><type>1</type></trkpt>
      <trkpt lat="38.46673105" lon="-1.99506327"><ele>1238</ele><speed>8.11</speed><time>2016-06-02T14:37:23Z</time><pdop>9.0</pdop><geoidheight>50.00</geoidheight><course>344.7</course><type>1</type></trkpt>
      <trkpt lat="38.46694416" lon="-1.99494767"><ele>1242</ele><speed>9.12</speed><time>2016-06-02T14:37:25Z</time><pdop>7.0</pdop><geoidheight>50.00</geoidheight><course>27.6</course><type>1</type></trkpt>
      <trkpt lat="38.46709334" lon="-1.99480827"><ele>1244</ele><speed>9.12</speed><time>2016-06-02T14:37:27Z</time><pdop>7.0</pdop><geoidheight>50.00</geoidheight><course>49.3</course><type>1</type></trkpt>
      <trkpt lat="38.46708894" lon="-1.9946146"><ele>1247</ele><speed>5.63</speed><time>2016-06-02T14:37:30Z</time><pdop>8.0</pdop><geoidheight>50.00</geoidheight><course>95.4</course><type>1</type></trkpt>
      <trkpt lat="38.46691973" lon="-1.99457331"><ele>1254</ele><speed>4.53</speed><time>2016-06-02T14:37:34Z</time><pdop>10.0</pdop><geoidheight>50.00</geoidheight><course>184.6</course><type>1</type></trkpt>
      <trkpt lat="38.46676067" lon="-1.99465276"><ele>1260</ele><speed>7.84</speed><time>2016-06-02T14:37:36Z</time><pdop>8.0</pdop><geoidheight>50.00</geoidheight><course>210.5</course><type>1</type></trkpt>
      <trkpt lat="38.4666431" lon="-1.99475927"><ele>1263</ele><speed>7.38</speed><time>2016-06-02T14:37:38Z</time><pdop>7.0</pdop><geoidheight>50.00</geoidheight><course>213.3</course><type>1</type></trkpt>
      <trkpt lat="38.46651964" lon="-1.9948633"><ele>1266</ele><speed>7.50</speed><time>2016-06-02T14:37:40Z</time><pdop>8.0</pdop><geoidheight>50.00</geoidheight><course>215.4</course><type>1</type></trkpt>
      <trkpt lat="38.46647633" lon="-1.99502884"><ele>1268</ele><speed>5.61</speed><time>2016-06-02T14:37:43Z</time><pdop>7.0</pdop><geoidheight>50.00</geoidheight><course>244.3</course><type>1</type></trkpt>
      <trkpt lat="38.4664069" lon="-1.99524572"><ele>1271</ele><speed>9.24</speed><time>2016-06-02T14:37:45Z</time><pdop>8.0</pdop><geoidheight>50.00</geoidheight><course>251.0</course><type>1</type></trkpt>
      <trkpt lat="38.46643118" lon="-1.99559858"><ele>1275</ele><speed>13.67</speed><time>2016-06-02T14:37:47Z</time><pdop>6.0</pdop><geoidheight>50.00</geoidheight><course>276.9</course><type>1</type></trkpt>
      <trkpt lat="38.46646491" lon="-1.99575094"><ele>1275</ele><speed>14.20</speed><time>2016-06-02T14:37:48Z</time><pdop>6.0</pdop><geoidheight>50.00</geoidheight><course>280.9</course><type>1</type></trkpt>
      <trkpt lat="38.46652516" lon="-1.99591531"><ele>1275</ele><speed>14.16</speed><time>2016-06-02T14:37:49Z</time><pdop>7.0</pdop><geoidheight>50.00</geoidheight><course>285.2</course><type>1</type></trkpt>
      <trkpt lat="38.46662263" lon="-1.99609401"><ele>1277</ele><speed>15.41</speed><time>2016-06-02T14:37:50Z</time><pdop>9.0</pdop><geoidheight>50.00</geoidheight><course>292.8</course><type>1</type></trkpt>
      <trkpt lat="38.46687541" lon="-1.99613841"><ele>1278</ele><speed>11.86</speed><time>2016-06-02T14:37:52Z</time><pdop>10.0</pdop><geoidheight>50.00</geoidheight><course>323.7</course><type>1</type></trkpt>
      <trkpt lat="38.4671294" lon="-1.99611591"><ele>1280</ele><speed>8.74</speed><time>2016-06-02T14:37:55Z</time><pdop>13.0</pdop><geoidheight>50.00</geoidheight><course>356.2</course><type>1</type></trkpt>
      <trkpt lat="38.46697661" lon="-1.99593534"><ele>1290</ele><speed>2.49</speed><time>2016-06-02T14:38:01Z</time><pdop>9.0</pdop><geoidheight>50.00</geoidheight><course>222.3</course><type>1</type></trkpt>
      <trkpt lat="38.46691418" lon="-1.99626451"><ele>1296</ele><speed>8.22</speed><time>2016-06-02T14:38:04Z</time><pdop>8.0</pdop><geoidheight>50.00</geoidheight><course>270.0</course><type>1</type></trkpt>
      <trkpt lat="38.46697122" lon="-1.99645928"><ele>1297</ele><speed>11.00</speed><time>2016-06-02T14:38:05Z</time><pdop>8.0</pdop><geoidheight>50.00</geoidheight><course>284.6</course><type>1</type></trkpt>
      <trkpt lat="38.46707159" lon="-1.99667794"><ele>1299</ele><speed>14.13</speed><time>2016-06-02T14:38:06Z</time><pdop>7.0</pdop><geoidheight>50.00</geoidheight><course>296.3</course><type>1</type></trkpt>
      <trkpt lat="38.46715767" lon="-1.99680542"><ele>1300</ele><speed>13.55</speed><time>2016-06-02T14:38:07Z</time><pdop>7.0</pdop><geoidheight>50.00</geoidheight><course>300.7</course><type>1</type></trkpt>
      <trkpt lat="38.46733773" lon="-1.99689623"><ele>1305</ele><speed>9.48</speed><time>2016-06-02T14:38:09Z</time><pdop>7.0</pdop><geoidheight>50.00</geoidheight><course>327.4</course><type>1</type></trkpt>
      <trkpt lat="38.46755639" lon="-1.99694051"><ele>1308</ele><speed>9.57</speed><time>2016-06-02T14:38:11Z</time><pdop>8.0</pdop><geoidheight>50.00</geoidheight><course>345.1</course><type>1</type></trkpt>
      <trkpt lat="38.46770274" lon="-1.99681553"><ele>1310</ele><speed>6.75</speed><time>2016-06-02T14:38:13Z</time><pdop>9.0</pdop><geoidheight>50.00</geoidheight><course>23.8</course><type>1</type></trkpt>
      <trkpt lat="38.4677827" lon="-1.99656223"><ele>1312</ele><speed>8.95</speed><time>2016-06-02T14:38:15Z</time><pdop>10.0</pdop><geoidheight>50.00</geoidheight><course>59.0</course><type>1</type></trkpt>
      <trkpt lat="38.46756611" lon="-1.9964756"><ele>1315</ele><speed>3.90</speed><time>2016-06-02T14:38:19Z</time><pdop>10.0</pdop><geoidheight>50.00</geoidheight><course>143.5</course><type>1</type></trkpt>
      <trkpt lat="38.46735399" lon="-1.99645115"><ele>1317</ele><speed>6.39</speed><time>2016-06-02T14:38:22Z</time><pdop>12.0</pdop><geoidheight>50.00</geoidheight><course>178.8</course><type>1</type></trkpt>
      <trkpt lat="38.4671852" lon="-1.9965322"><ele>1320</ele><speed>8.71</speed><time>2016-06-02T14:38:25Z</time><pdop>6.0</pdop><geoidheight>50.00</geoidheight><course>220.1</course><type>1</type></trkpt>
      <trkpt lat="38.46707929" lon="-1.99669396"><ele>1319</ele><speed>9.57</speed><time>2016-06-02T14:38:27Z</time><pdop>6.0</pdop><geoidheight>50.00</geoidheight><course>228.9</course><type>1</type></trkpt>
      <trkpt lat="38.46704307" lon="-1.99684158"><ele>1318</ele><speed>10.75</speed><time>2016-06-02T14:38:28Z</time><pdop>6.0</pdop><geoidheight>50.00</geoidheight><course>240.7</course><type>1</type></trkpt>
      <trkpt lat="38.46700177" lon="-1.99701484"><ele>1320</ele><speed>12.63</speed><time>2016-06-02T14:38:29Z</time><pdop>6.0</pdop><geoidheight>50.00</geoidheight><course>251.4</course><type>1</type></trkpt>
      <trkpt lat="38.4670085" lon="-1.99718224"><ele>1321</ele><speed>12.76</speed><time>2016-06-02T14:38:30Z</time><pdop>7.0</pdop><geoidheight>50.00</geoidheight><course>261.8</course><type>1</type></trkpt>
      <trkpt lat="38.46704751" lon="-1.99748492"><ele>1321</ele><speed>12.74</speed><time>2016-06-02T14:38:32Z</time><pdop>5.0</pdop><geoidheight>50.00</geoidheight><course>280.4</course><type>1</type></trkpt>
      <trkpt lat="38.46709847" lon="-1.99765201"><ele>1322</ele><speed>13.81</speed><time>2016-06-02T14:38:33Z</time><pdop>6.0</pdop><geoidheight>50.00</geoidheight><course>287.3</course><type>1</type></trkpt>
      <trkpt lat="38.46718759" lon="-1.99783943"><ele>1328</ele><speed>15.90</speed><time>2016-06-02T14:38:34Z</time><pdop>4.0</pdop><geoidheight>50.00</geoidheight><course>297.9</course><type>1</type></trkpt>
      <trkpt lat="38.46725593" lon="-1.99799115"><ele>1331</ele><speed>15.14</speed><time>2016-06-02T14:38:35Z</time><pdop>4.0</pdop><geoidheight>50.00</geoidheight><course>300.6</course><type>1</type></trkpt>
      <trkpt lat="38.46731926" lon="-1.99812462"><ele>1335</ele><speed>14.13</speed><time>2016-06-02T14:38:36Z</time><pdop>5.0</pdop><geoidheight>50.00</geoidheight><course>301.9</course><type>1</type></trkpt>
      <trkpt lat="38.46737428" lon="-1.99826771"><ele>1335</ele><speed>13.92</speed><time>2016-06-02T14:38:37Z</time><pdop>7.0</pdop><geoidheight>50.00</geoidheight><course>300.0</course><type>1</type></trkpt>
      <trkpt lat="38.46753301" lon="-1.99820553"><ele>1336</ele><speed>4.70</speed><time>2016-06-02T14:38:40Z</time><pdop>8.0</pdop><geoidheight>50.00</geoidheight><course>13.0</course><type>1</type></trkpt>
      <trkpt lat="38.46748262" lon="-1.99797455"><ele>1343</ele><speed>4.17</speed><time>2016-06-02T14:38:46Z</time><pdop>10.0</pdop><geoidheight>50.00</geoidheight><course>141.1</course><type>1</type></trkpt>
      <trkpt lat="38.46731075" lon="-1.99799618"><ele>1347</ele><speed>6.35</speed><time>2016-06-02T14:38:48Z</time><pdop>8.0</pdop><geoidheight>50.00</geoidheight><course>181.3</course><type>1</type></trkpt>
      <trkpt lat="38.46725527" lon="-1.99822623"><ele>1350</ele><speed>6.87</speed><time>2016-06-02T14:38:50Z</time><pdop>9.0</pdop><geoidheight>50.00</geoidheight><course>245.1</course><type>1</type></trkpt>
      <trkpt lat="38.46731842" lon="-1.99855162"><ele>1354</ele><speed>11.38</speed><time>2016-06-02T14:38:52Z</time><pdop>9.0</pdop><geoidheight>50.00</geoidheight><course>283.1</course><type>1</type></trkpt>
      <trkpt lat="38.46745266" lon="-1.99888671"><ele>1355</ele><speed>14.31</speed><time>2016-06-02T14:38:54Z</time><pdop>10.0</pdop><geoidheight>50.00</geoidheight><course>296.8</course><type>1</type></trkpt>
      <trkpt lat="38.46760853" lon="-1.9991331"><ele>1357</ele><speed>13.34</speed><time>2016-06-02T14:38:56Z</time><pdop>10.0</pdop><geoidheight>50.00</geoidheight><course>304.4</course><type>1</type></trkpt>
      <trkpt lat="38.46783734" lon="-1.99930191"><ele>1358</ele><speed>13.02</speed><time>2016-06-02T14:38:58Z</time><pdop>13.0</pdop><geoidheight>50.00</geoidheight><course>317.7</course><type>1</type></trkpt>
      <trkpt lat="38.46808415" lon="-1.99928733"><ele>1361</ele><speed>11.22</speed><time>2016-06-02T14:39:00Z</time><pdop>14.0</pdop><geoidheight>50.00</geoidheight><course>342.9</course><type>1</type></trkpt>
      <trkpt lat="38.46785836" lon="-1.99907846"><ele>1374</ele><speed>4.35</speed><time>2016-06-02T14:39:08Z</time><pdop>13.0</pdop><geoidheight>50.00</geoidheight><course>202.2</course><type>1</type></trkpt>
      <trkpt lat="38.46765656" lon="-1.99926337"><ele>1380</ele><speed>9.53</speed><time>2016-06-02T14:39:10Z</time><pdop>11.0</pdop><geoidheight>50.00</geoidheight><course>226.0</course><type>1</type></trkpt>
      <trkpt lat="38.46754271" lon="-1.99951615"><ele>1385</ele><speed>12.26</speed><time>2016-06-02T14:39:12Z</time><pdop>11.0</pdop><geoidheight>50.00</geoidheight><course>249.1</course><type>1</type></trkpt>
      <trkpt lat="38.46756887" lon="-1.99980187"><ele>1389</ele><speed>12.96</speed><time>2016-06-02T14:39:14Z</time><pdop>11.0</pdop><geoidheight>50.00</geoidheight><course>279.6</course><type>1</type></trkpt>
      <trkpt lat="38.46765856" lon="-2.00006844"><ele>1391</ele><speed>13.06</speed><time>2016-06-02T14:39:16Z</time><pdop>12.0</pdop><geoidheight>50.00</geoidheight><course>290.4</course><type>1</type></trkpt>
      <trkpt lat="38.46787922" lon="-2.00030834"><ele>1398</ele><speed>9.72</speed><time>2016-06-02T14:39:19Z</time><pdop>11.0</pdop><geoidheight>50.00</geoidheight><course>325.5</course><type>1</type></trkpt>
      <trkpt lat="38.46814499" lon="-2.00043444"><ele>1402</ele><speed>9.72</speed><time>2016-06-02T14:39:22Z</time><pdop>11.0</pdop><geoidheight>50.00</geoidheight><course>342.1</course><type>1</type></trkpt>
      <trkpt lat="38.46839358" lon="-2.00035625"><ele>1406</ele><speed>9.15</speed><time>2016-06-02T14:39:25Z</time><pdop>12.0</pdop><geoidheight>50.00</geoidheight><course>20.9</course><type>1</type></trkpt>
      <trkpt lat="38.46856194" lon="-2.00020462"><ele>1412</ele><speed>6.78</speed><time>2016-06-02T14:39:28Z</time><pdop>8.0</pdop><geoidheight>50.00</geoidheight><course>42.0</course><type>1</type></trkpt>
      <trkpt lat="38.46856633" lon="-2.00001851"><ele>1417</ele><speed>5.28</speed><time>2016-06-02T14:39:31Z</time><pdop>5.0</pdop><geoidheight>50.00</geoidheight><course>92.3</course><type>1</type></trkpt>
      <trkpt lat="38.46849736" lon="-1.99991788"><ele>1421</ele><speed>5.06</speed><time>2016-06-02T14:39:33Z</time><pdop>4.0</pdop><geoidheight>50.00</geoidheight><course>127.9</course><type>1</type></trkpt>
      <trkpt lat="38.46843277" lon="-1.99982399"><ele>1424</ele><speed>5.28</speed><time>2016-06-02T14:39:35Z</time><pdop>4.0</pdop><geoidheight>50.00</geoidheight><course>141.3</course><type>1</type></trkpt>
      <trkpt lat="38.46822403" lon="-1.99991388"><ele>1422</ele><speed>9.08</speed><time>2016-06-02T14:39:37Z</time><pdop>6.0</pdop><geoidheight>50.00</geoidheight><course>195.7</course><type>1</type></trkpt>
      <trkpt lat="38.46811205" lon="-2.00000258"><ele>1421</ele><speed>11.09</speed><time>2016-06-02T14:39:38Z</time><pdop>6.0</pdop><geoidheight>50.00</geoidheight><course>204.0</course><type>1</type></trkpt>
      <trkpt lat="38.4680151" lon="-2.0000724"><ele>1421</ele><speed>11.35</speed><time>2016-06-02T14:39:39Z</time><pdop>6.0</pdop><geoidheight>50.00</geoidheight><course>205.9</course><type>1</type></trkpt>
      <trkpt lat="38.4679777" lon="-2.0003483"><ele>1427</ele><speed>10.16</speed><time>2016-06-02T14:39:41Z</time><pdop>7.0</pdop><geoidheight>50.00</geoidheight><course>243.5</course><type>1</type></trkpt>
      <trkpt lat="38.46796318" lon="-2.000561"><ele>1428</ele><speed>12.90</speed><time>2016-06-02T14:39:42Z</time><pdop>7.0</pdop><geoidheight>50.00</geoidheight><course>254.3</course><type>1</type></trkpt>
      <trkpt lat="38.46791605" lon="-2.00073162"><ele>1429</ele><speed>12.97</speed><time>2016-06-02T14:39:43Z</time><pdop>7.0</pdop><geoidheight>50.00</geoidheight><course>255.3</course><type>1</type></trkpt>
      <trkpt lat="38.46798182" lon="-2.00087162"><ele>1430</ele><speed>11.75</speed><time>2016-06-02T14:39:44Z</time><pdop>5.0</pdop><geoidheight>50.00</geoidheight><course>274.3</course><type>1</type></trkpt>
      <trkpt lat="38.4680215" lon="-2.00102088"><ele>1432</ele><speed>11.71</speed><time>2016-06-02T14:39:45Z</time><pdop>5.0</pdop><geoidheight>50.00</geoidheight><course>279.6</course><type>1</type></trkpt>
      <trkpt lat="38.46807509" lon="-2.00117346"><ele>1433</ele><speed>12.99</speed><time>2016-06-02T14:39:46Z</time><pdop>6.0</pdop><geoidheight>50.00</geoidheight><course>287.3</course><type>1</type></trkpt>
      <trkpt lat="38.46811565" lon="-2.00130888"><ele>1434</ele><speed>13.12</speed><time>2016-06-02T14:39:47Z</time><pdop>6.0</pdop><geoidheight>50.00</geoidheight><course>292.7</course><type>1</type></trkpt>
      <trkpt lat="38.46836552" lon="-2.001308"><ele>1437</ele><speed>9.65</speed><time>2016-06-02T14:39:49Z</time><pdop>8.0</pdop><geoidheight>50.00</geoidheight><course>341.5</course><type>1</type></trkpt>
      <trkpt lat="38.46856383" lon="-2.00128336"><ele>1439</ele><speed>9.18</speed><time>2016-06-02T14:39:51Z</time><pdop>7.0</pdop><geoidheight>50.00</geoidheight><course>3.6</course><type>1</type></trkpt>
      <trkpt lat="38.46866044" lon="-2.00117457"><ele>1442</ele><speed>6.76</speed><time>2016-06-02T14:39:53Z</time><pdop>7.0</pdop><geoidheight>50.00</geoidheight><course>33.1</course><type>1</type></trkpt>
      <trkpt lat="38.46859255" lon="-2.00103288"><ele>1446</ele><speed>3.84</speed><time>2016-06-02T14:39:56Z</time><pdop>7.0</pdop><geoidheight>50.00</geoidheight><course>102.0</course><type>1</type></trkpt>
      <trkpt lat="38.46837296" lon="-2.00107904"><ele>1449</ele><speed>6.17</speed><time>2016-06-02T14:39:59Z</time><pdop>7.0</pdop><geoidheight>50.00</geoidheight><course>192.7</course><type>1</type></trkpt>
      <trkpt lat="38.46830412" lon="-2.00130835"><ele>1451</ele><speed>7.40</speed><time>2016-06-02T14:40:01Z</time><pdop>6.0</pdop><geoidheight>50.00</geoidheight><course>247.2</course><type>1</type></trkpt>
      <trkpt lat="38.46829943" lon="-2.00149339"><ele>1454</ele><speed>10.78</speed><time>2016-06-02T14:40:02Z</time><pdop>5.0</pdop><geoidheight>50.00</geoidheight><course>264.0</course><type>1</type></trkpt>
      <trkpt lat="38.46831518" lon="-2.00164404"><ele>1457</ele><speed>11.35</speed><time>2016-06-02T14:40:03Z</time><pdop>5.0</pdop><geoidheight>50.00</geoidheight><course>274.4</course><type>1</type></trkpt>
      <trkpt lat="38.46835312" lon="-2.00178588"><ele>1459</ele><speed>11.93</speed><time>2016-06-02T14:40:04Z</time><pdop>5.0</pdop><geoidheight>50.00</geoidheight><course>285.4</course><type>1</type></trkpt>
      <trkpt lat="38.46838041" lon="-2.00193611"><ele>1460</ele><speed>12.56</speed><time>2016-06-02T14:40:05Z</time><pdop>5.0</pdop><geoidheight>50.00</geoidheight><course>286.4</course><type>1</type></trkpt>
      <trkpt lat="38.46842957" lon="-2.00210601"><ele>1460</ele><speed>13.92</speed><time>2016-06-02T14:40:06Z</time><pdop>7.0</pdop><geoidheight>50.00</geoidheight><course>290.2</course><type>1</type></trkpt>
      <trkpt lat="38.46861387" lon="-2.00217935"><ele>1461</ele><speed>9.59</speed><time>2016-06-02T14:40:08Z</time><pdop>9.0</pdop><geoidheight>50.00</geoidheight><course>320.6</course><type>1</type></trkpt>
      <trkpt lat="38.46888515" lon="-2.00217506"><ele>1462</ele><speed>11.08</speed><time>2016-06-02T14:40:10Z</time><pdop>7.0</pdop><geoidheight>50.00</geoidheight><course>353.6</course><type>1</type></trkpt>
      <trkpt lat="38.46906142" lon="-2.00217028"><ele>1463</ele><speed>9.61</speed><time>2016-06-02T14:40:12Z</time><pdop>8.0</pdop><geoidheight>50.00</geoidheight><course>0.3</course><type>1</type></trkpt>
      <trkpt lat="38.46918833" lon="-2.00203967"><ele>1471</ele><speed>7.02</speed><time>2016-06-02T14:40:15Z</time><pdop>8.0</pdop><geoidheight>50.00</geoidheight><course>41.4</course><type>1</type></trkpt>
      <trkpt lat="38.46918251" lon="-2.00183957"><ele>1474</ele><speed>5.82</speed><time>2016-06-02T14:40:18Z</time><pdop>9.0</pdop><geoidheight>50.00</geoidheight><course>86.1</course><type>1</type></trkpt>
      <trkpt lat="38.46897473" lon="-2.00175451"><ele>1480</ele><speed>4.92</speed><time>2016-06-02T14:40:22Z</time><pdop>9.0</pdop><geoidheight>50.00</geoidheight><course>166.5</course><type>1</type></trkpt>
      <trkpt lat="38.46882775" lon="-2.00177865"><ele>1483</ele><speed>8.85</speed><time>2016-06-02T14:40:23Z</time><pdop>7.0</pdop><geoidheight>50.00</geoidheight><course>180.3</course><type>1</type></trkpt>
      <trkpt lat="38.46875032" lon="-2.00205079"><ele>1486</ele><speed>8.74</speed><time>2016-06-02T14:40:25Z</time><pdop>8.0</pdop><geoidheight>50.00</geoidheight><course>237.9</course><type>1</type></trkpt>
      <trkpt lat="38.46871173" lon="-2.00226304"><ele>1487</ele><speed>12.69</speed><time>2016-06-02T14:40:26Z</time><pdop>8.0</pdop><geoidheight>50.00</geoidheight><course>251.4</course><type>1</type></trkpt>
      <trkpt lat="38.4687326" lon="-2.00254452"><ele>1491</ele><speed>11.56</speed><time>2016-06-02T14:40:28Z</time><pdop>8.0</pdop><geoidheight>50.00</geoidheight><course>271.0</course><type>1</type></trkpt>
      <trkpt lat="38.46881436" lon="-2.00277293"><ele>1493</ele><speed>10.34</speed><time>2016-06-02T14:40:30Z</time><pdop>10.0</pdop><geoidheight>50.00</geoidheight><course>283.3</course><type>1</type></trkpt>
      <trkpt lat="38.46907711" lon="-2.00287822"><ele>1497</ele><speed>9.69</speed><time>2016-06-02T14:40:32Z</time><pdop>9.0</pdop><geoidheight>50.00</geoidheight><course>320.2</course><type>1</type></trkpt>
      <trkpt lat="38.46930939" lon="-2.00288326"><ele>1497</ele><speed>9.47</speed><time>2016-06-02T14:40:34Z</time><pdop>10.0</pdop><geoidheight>50.00</geoidheight><course>343.1</course><type>1</type></trkpt>
      <trkpt lat="38.4694505" lon="-2.00263942"><ele>1501</ele><speed>7.25</speed><time>2016-06-02T14:40:37Z</time><pdop>11.0</pdop><geoidheight>50.00</geoidheight><course>44.9</course><type>1</type></trkpt>
      <trkpt lat="38.46946459" lon="-2.00234715"><ele>1507</ele><speed>6.64</speed><time>2016-06-02T14:40:40Z</time><pdop>13.0</pdop><geoidheight>50.00</geoidheight><course>77.7</course><type>1</type></trkpt>
      <trkpt lat="38.46920607" lon="-2.00229887"><ele>1514</ele><speed>4.97</speed><time>2016-06-02T14:40:43Z</time><pdop>8.0</pdop><geoidheight>50.00</geoidheight><course>167.5</course><type>1</type></trkpt>
      <trkpt lat="38.46905036" lon="-2.00244643"><ele>1519</ele><speed>7.82</speed><time>2016-06-02T14:40:45Z</time><pdop>6.0</pdop><geoidheight>50.00</geoidheight><course>206.9</course><type>1</type></trkpt>
      <trkpt lat="38.46900984" lon="-2.00263083"><ele>1524</ele><speed>6.12</speed><time>2016-06-02T14:40:47Z</time><pdop>9.0</pdop><geoidheight>50.00</geoidheight><course>242.4</course><type>1</type></trkpt>
      <trkpt lat="38.4691595" lon="-2.00295791"><ele>1529</ele><speed>11.99</speed><time>2016-06-02T14:40:49Z</time><pdop>6.0</pdop><geoidheight>50.00</geoidheight><course>306.8</course><type>1</type></trkpt>
      <trkpt lat="38.46930935" lon="-2.00314341"><ele>1531</ele><speed>11.15</speed><time>2016-06-02T14:40:51Z</time><pdop>6.0</pdop><geoidheight>50.00</geoidheight><course>315.4</course><type>1</type></trkpt>
      <trkpt lat="38.46950943" lon="-2.00318013"><ele>1533</ele><speed>10.17</speed><time>2016-06-02T14:40:53Z</time><pdop>6.0</pdop><geoidheight>50.00</geoidheight><course>349.8</course><type>1</type></trkpt>
      <trkpt lat="38.46970156" lon="-2.00314454"><ele>1538</ele><speed>10.13</speed><time>2016-06-02T14:40:55Z</time><pdop>7.0</pdop><geoidheight>50.00</geoidheight><course>12.6</course><type>1</type></trkpt>
      <trkpt lat="38.4698675" lon="-2.00304006"><ele>1541</ele><speed>9.64</speed><time>2016-06-02T14:40:57Z</time><pdop>7.0</pdop><geoidheight>50.00</geoidheight><course>26.8</course><type>1</type></trkpt>
      <trkpt lat="38.46990966" lon="-2.00285291"><ele>1548</ele><speed>8.58</speed><time>2016-06-02T14:40:59Z</time><pdop>5.0</pdop><geoidheight>50.00</geoidheight><course>67.3</course><type>1</type></trkpt>
      <trkpt lat="38.46984123" lon="-2.00270852"><ele>1550</ele><speed>8.11</speed><time>2016-06-02T14:41:01Z</time><pdop>4.0</pdop><geoidheight>50.00</geoidheight><course>122.3</course><type>1</type></trkpt>
      <trkpt lat="38.46979132" lon="-2.00264184"><ele>1552</ele><speed>7.96</speed><time>2016-06-02T14:41:02Z</time><pdop>4.0</pdop><geoidheight>50.00</geoidheight><course>128.5</course><type>1</type></trkpt>
      <trkpt lat="38.46964836" lon="-2.00266252"><ele>1552</ele><speed>6.90</speed><time>2016-06-02T14:41:04Z</time><pdop>7.0</pdop><geoidheight>50.00</geoidheight><course>179.1</course><type>1</type></trkpt>
      <trkpt lat="38.46950762" lon="-2.0026502"><ele>1554</ele><speed>10.05</speed><time>2016-06-02T14:41:05Z</time><pdop>7.0</pdop><geoidheight>50.00</geoidheight><course>183.4</course><type>1</type></trkpt>
      <trkpt lat="38.46934764" lon="-2.00277635"><ele>1556</ele><speed>9.31</speed><time>2016-06-02T14:41:07Z</time><pdop>7.0</pdop><geoidheight>50.00</geoidheight><course>204.3</course><type>1</type></trkpt>
      <trkpt lat="38.46928972" lon="-2.00305539"><ele>1560</ele><speed>9.83</speed><time>2016-06-02T14:41:09Z</time><pdop>7.0</pdop><geoidheight>50.00</geoidheight><course>245.1</course><type>1</type></trkpt>
      <trkpt lat="38.46937122" lon="-2.00321389"><ele>1562</ele><speed>10.57</speed><time>2016-06-02T14:41:10Z</time><pdop>6.0</pdop><geoidheight>50.00</geoidheight><course>279.7</course><type>1</type></trkpt>
      <trkpt lat="38.46946494" lon="-2.00335438"><ele>1563</ele><speed>12.65</speed><time>2016-06-02T14:41:11Z</time><pdop>5.0</pdop><geoidheight>50.00</geoidheight><course>302.2</course><type>1</type></trkpt>
      <trkpt lat="38.46954695" lon="-2.00347829"><ele>1565</ele><speed>13.04</speed><time>2016-06-02T14:41:12Z</time><pdop>4.0</pdop><geoidheight>50.00</geoidheight><course>308.1</course><type>1</type></trkpt>
      <trkpt lat="38.46961256" lon="-2.00359878"><ele>1566</ele><speed>12.66</speed><time>2016-06-02T14:41:13Z</time><pdop>5.0</pdop><geoidheight>50.00</geoidheight><course>307.3</course><type>1</type></trkpt>
      <trkpt lat="38.46970194" lon="-2.00368286"><ele>1567</ele><speed>11.78</speed><time>2016-06-02T14:41:14Z</time><pdop>5.0</pdop><geoidheight>50.00</geoidheight><course>317.8</course><type>1</type></trkpt>
      <trkpt lat="38.46986594" lon="-2.00377776"><ele>1567</ele><speed>9.35</speed><time>2016-06-02T14:41:16Z</time><pdop>7.0</pdop><geoidheight>50.00</geoidheight><course>335.1</course><type>1</type></trkpt>
      <trkpt lat="38.47007721" lon="-2.00373391"><ele>1568</ele><speed>10.28</speed><time>2016-06-02T14:41:18Z</time><pdop>7.0</pdop><geoidheight>50.00</geoidheight><course>9.3</course><type>1</type></trkpt>
      <trkpt lat="38.47016837" lon="-2.00363604"><ele>1566</ele><speed>10.81</speed><time>2016-06-02T14:41:19Z</time><pdop>5.0</pdop><geoidheight>50.00</geoidheight><course>26.9</course><type>1</type></trkpt>
      <trkpt lat="38.47024017" lon="-2.00355376"><ele>1567</ele><speed>10.24</speed><time>2016-06-02T14:41:20Z</time><pdop>5.0</pdop><geoidheight>50.00</geoidheight><course>40.3</course><type>1</type></trkpt>
      <trkpt lat="38.47030329" lon="-2.00337393"><ele>1572</ele><speed>8.34</speed><time>2016-06-02T14:41:22Z</time><pdop>5.0</pdop><geoidheight>50.00</geoidheight><course>81.2</course><type>1</type></trkpt>
      <trkpt lat="38.47027859" lon="-2.00322746"><ele>1575</ele><speed>7.19</speed><time>2016-06-02T14:41:24Z</time><pdop>6.0</pdop><geoidheight>50.00</geoidheight><course>97.6</course><type>1</type></trkpt>
      <trkpt lat="38.47015836" lon="-2.00314226"><ele>1576</ele><speed>5.90</speed><time>2016-06-02T14:41:26Z</time><pdop>7.0</pdop><geoidheight>50.00</geoidheight><course>132.3</course><type>1</type></trkpt>
      <trkpt lat="38.46996682" lon="-2.00322156"><ele>1579</ele><speed>8.32</speed><time>2016-06-02T14:41:28Z</time><pdop>6.0</pdop><geoidheight>50.00</geoidheight><course>195.7</course><type>1</type></trkpt>
      <trkpt lat="38.46985865" lon="-2.00328437"><ele>1580</ele><speed>10.22</speed><time>2016-06-02T14:41:29Z</time><pdop>6.0</pdop><geoidheight>50.00</geoidheight><course>202.0</course><type>1</type></trkpt>
      <trkpt lat="38.46978197" lon="-2.00350446"><ele>1583</ele><speed>9.68</speed><time>2016-06-02T14:41:31Z</time><pdop>7.0</pdop><geoidheight>50.00</geoidheight><course>235.8</course><type>1</type></trkpt>
      <trkpt lat="38.46983386" lon="-2.00366072"><ele>1585</ele><speed>10.67</speed><time>2016-06-02T14:41:32Z</time><pdop>4.0</pdop><geoidheight>50.00</geoidheight><course>272.3</course><type>1</type></trkpt>
      <trkpt lat="38.46986768" lon="-2.00378392"><ele>1586</ele><speed>11.17</speed><time>2016-06-02T14:41:33Z</time><pdop>4.0</pdop><geoidheight>50.00</geoidheight><course>287.2</course><type>1</type></trkpt>
      <trkpt lat="38.46991566" lon="-2.00390514"><ele>1588</ele><speed>11.42</speed><time>2016-06-02T14:41:34Z</time><pdop>4.0</pdop><geoidheight>50.00</geoidheight><course>293.7</course><type>1</type></trkpt>
      <trkpt lat="38.46998919" lon="-2.00400494"><ele>1588</ele><speed>11.81</speed><time>2016-06-02T14:41:35Z</time><pdop>4.0</pdop><geoidheight>50.00</geoidheight><course>309.0</course><type>1</type></trkpt>
      <trkpt lat="38.4700638" lon="-2.00410037"><ele>1588</ele><speed>11.72</speed><time>2016-06-02T14:41:36Z</time><pdop>5.0</pdop><geoidheight>50.00</geoidheight><course>312.0</course><type>1</type></trkpt>
      <trkpt lat="38.47020896" lon="-2.00426405"><ele>1590</ele><speed>10.82</speed><time>2016-06-02T14:41:38Z</time><pdop>7.0</pdop><geoidheight>50.00</geoidheight><course>320.3</course><type>1</type></trkpt>
      <trkpt lat="38.47045097" lon="-2.00437666"><ele>1594</ele><speed>12.85</speed><time>2016-06-02T14:41:40Z</time><pdop>7.0</pdop><geoidheight>50.00</geoidheight><course>337.5</course><type>1</type></trkpt>
      <trkpt lat="38.47058149" lon="-2.00440842"><ele>1596</ele><speed>12.17</speed><time>2016-06-02T14:41:41Z</time><pdop>7.0</pdop><geoidheight>50.00</geoidheight><course>347.9</course><type>1</type></trkpt>
      <trkpt lat="38.47079396" lon="-2.00440947"><ele>1598</ele><speed>11.49</speed><time>2016-06-02T14:41:43Z</time><pdop>8.0</pdop><geoidheight>50.00</geoidheight><course>359.8</course><type>1</type></trkpt>
      <trkpt lat="38.47085338" lon="-2.00412759"><ele>1600</ele><speed>9.69</speed><time>2016-06-02T14:41:46Z</time><pdop>7.0</pdop><geoidheight>50.00</geoidheight><course>76.5</course><type>1</type></trkpt>
      <trkpt lat="38.47084532" lon="-2.00397719"><ele>1600</ele><speed>11.19</speed><time>2016-06-02T14:41:47Z</time><pdop>6.0</pdop><geoidheight>50.00</geoidheight><course>83.3</course><type>1</type></trkpt>
      <trkpt lat="38.47081061" lon="-2.00371783"><ele>1602</ele><speed>11.26</speed><time>2016-06-02T14:41:49Z</time><pdop>8.0</pdop><geoidheight>50.00</geoidheight><course>95.0</course><type>1</type></trkpt>
      <trkpt lat="38.47078818" lon="-2.00345843"><ele>1606</ele><speed>10.33</speed><time>2016-06-02T14:41:51Z</time><pdop>6.0</pdop><geoidheight>50.00</geoidheight><course>91.8</course><type>1</type></trkpt>
      <trkpt lat="38.47081201" lon="-2.00322603"><ele>1609</ele><speed>10.03</speed><time>2016-06-02T14:41:53Z</time><pdop>6.0</pdop><geoidheight>50.00</geoidheight><course>88.9</course><type>1</type></trkpt>
      <trkpt lat="38.470802" lon="-2.0030375"><ele>1609</ele><speed>7.89</speed><time>2016-06-02T14:41:55Z</time><pdop>7.0</pdop><geoidheight>50.00</geoidheight><course>95.2</course><type>1</type></trkpt>
      <trkpt lat="38.47053851" lon="-2.00300384"><ele>1611</ele><speed>8.34</speed><time>2016-06-02T14:41:58Z</time><pdop>7.0</pdop><geoidheight>50.00</geoidheight><course>173.7</course><type>1</type></trkpt>
      <trkpt lat="38.47038273" lon="-2.00315389"><ele>1608</ele><speed>9.57</speed><time>2016-06-02T14:42:00Z</time><pdop>6.0</pdop><geoidheight>50.00</geoidheight><course>203.5</course><type>1</type></trkpt>
      <trkpt lat="38.470364" lon="-2.00345897"><ele>1607</ele><speed>10.31</speed><time>2016-06-02T14:42:02Z</time><pdop>6.0</pdop><geoidheight>50.00</geoidheight><course>252.4</course><type>1</type></trkpt>
      <trkpt lat="38.47036591" lon="-2.0036144"><ele>1607</ele><speed>11.32</speed><time>2016-06-02T14:42:03Z</time><pdop>7.0</pdop><geoidheight>50.00</geoidheight><course>262.8</course><type>1</type></trkpt>
      <trkpt lat="38.4703977" lon="-2.00377264"><ele>1606</ele><speed>12.15</speed><time>2016-06-02T14:42:04Z</time><pdop>7.0</pdop><geoidheight>50.00</geoidheight><course>272.2</course><type>1</type></trkpt>
      <trkpt lat="38.47059622" lon="-2.00394174"><ele>1608</ele><speed>10.55</speed><time>2016-06-02T14:42:06Z</time><pdop>8.0</pdop><geoidheight>50.00</geoidheight><course>302.6</course><type>1</type></trkpt>
      <trkpt lat="38.47073641" lon="-2.00388563"><ele>1610</ele><speed>9.16</speed><time>2016-06-02T14:42:07Z</time><pdop>6.0</pdop><geoidheight>50.00</geoidheight><course>345.1</course><type>1</type></trkpt>
      <trkpt lat="38.47083608" lon="-2.00389654"><ele>1612</ele><speed>9.30</speed><time>2016-06-02T14:42:08Z</time><pdop>5.0</pdop><geoidheight>50.00</geoidheight><course>355.8</course><type>1</type></trkpt>
      <trkpt lat="38.47100436" lon="-2.00389005"><ele>1611</ele><speed>10.54</speed><time>2016-06-02T14:42:10Z</time><pdop>5.0</pdop><geoidheight>50.00</geoidheight><course>7.9</course><type>1</type></trkpt>
      <trkpt lat="38.47110594" lon="-2.00385642"><ele>1613</ele><speed>10.91</speed><time>2016-06-02T14:42:11Z</time><pdop>4.0</pdop><geoidheight>50.00</geoidheight><course>14.4</course><type>1</type></trkpt>
      <trkpt lat="38.47119078" lon="-2.00382088"><ele>1613</ele><speed>10.22</speed><time>2016-06-02T14:42:12Z</time><pdop>4.0</pdop><geoidheight>50.00</geoidheight><course>20.5</course><type>1</type></trkpt>
      <trkpt lat="38.47125581" lon="-2.00372833"><ele>1610</ele><speed>10.76</speed><time>2016-06-02T14:42:13Z</time><pdop>4.0</pdop><geoidheight>50.00</geoidheight><course>35.7</course><type>1</type></trkpt>
      <trkpt lat="38.47132156" lon="-2.00362595"><ele>1611</ele><speed>11.15</speed><time>2016-06-02T14:42:14Z</time><pdop>5.0</pdop><geoidheight>50.00</geoidheight><course>47.1</course><type>1</type></trkpt>
      <trkpt lat="38.47134348" lon="-2.00343546"><ele>1612</ele><speed>8.61</speed><time>2016-06-02T14:42:16Z</time><pdop>4.0</pdop><geoidheight>50.00</geoidheight><course>72.0</course><type>1</type></trkpt>
      <trkpt lat="38.47136166" lon="-2.00328187"><ele>1609</ele><speed>7.65</speed><time>2016-06-02T14:42:18Z</time><pdop>6.0</pdop><geoidheight>50.00</geoidheight><course>85.3</course><type>1</type></trkpt>
      <trkpt lat="38.47130162" lon="-2.00313638"><ele>1610</ele><speed>7.20</speed><time>2016-06-02T14:42:20Z</time><pdop>8.0</pdop><geoidheight>50.00</geoidheight><course>104.5</course><type>1</type></trkpt>
      <trkpt lat="38.47117424" lon="-2.00300825"><ele>1611</ele><speed>7.64</speed><time>2016-06-02T14:42:22Z</time><pdop>7.0</pdop><geoidheight>50.00</geoidheight><course>130.6</course><type>1</type></trkpt>
      <trkpt lat="38.47096165" lon="-2.0030089"><ele>1611</ele><speed>7.73</speed><time>2016-06-02T14:42:25Z</time><pdop>9.0</pdop><geoidheight>50.00</geoidheight><course>184.2</course><type>1</type></trkpt>
      <trkpt lat="38.47086006" lon="-2.00317909"><ele>1610</ele><speed>9.32</speed><time>2016-06-02T14:42:27Z</time><pdop>6.0</pdop><geoidheight>50.00</geoidheight><course>216.4</course><type>1</type></trkpt>
      <trkpt lat="38.47076354" lon="-2.00345111"><ele>1611</ele><speed>11.56</speed><time>2016-06-02T14:42:29Z</time><pdop>6.0</pdop><geoidheight>50.00</geoidheight><course>233.8</course><type>1</type></trkpt>
      <trkpt lat="38.47082232" lon="-2.00372281"><ele>1615</ele><speed>10.54</speed><time>2016-06-02T14:42:31Z</time><pdop>5.0</pdop><geoidheight>50.00</geoidheight><course>276.4</course><type>1</type></trkpt>
      <trkpt lat="38.47088129" lon="-2.00385494"><ele>1615</ele><speed>10.67</speed><time>2016-06-02T14:42:32Z</time><pdop>4.0</pdop><geoidheight>50.00</geoidheight><course>290.3</course><type>1</type></trkpt>
      <trkpt lat="38.4709207" lon="-2.00397684"><ele>1615</ele><speed>10.18</speed><time>2016-06-02T14:42:33Z</time><pdop>4.0</pdop><geoidheight>50.00</geoidheight><course>292.8</course><type>1</type></trkpt>
      <trkpt lat="38.47096488" lon="-2.00409153"><ele>1616</ele><speed>9.90</speed><time>2016-06-02T14:42:34Z</time><pdop>4.0</pdop><geoidheight>50.00</geoidheight><course>296.2</course><type>1</type></trkpt>
      <trkpt lat="38.47100646" lon="-2.00418947"><ele>1616</ele><speed>9.28</speed><time>2016-06-02T14:42:35Z</time><pdop>4.0</pdop><geoidheight>50.00</geoidheight><course>298.2</course><type>1</type></trkpt>
      <trkpt lat="38.47102758" lon="-2.0042802"><ele>1616</ele><speed>8.72</speed><time>2016-06-02T14:42:36Z</time><pdop>4.0</pdop><geoidheight>50.00</geoidheight><course>294.1</course><type>1</type></trkpt>
      <trkpt lat="38.47104239" lon="-2.0043909"><ele>1616</ele><speed>8.96</speed><time>2016-06-02T14:42:37Z</time><pdop>3.0</pdop><geoidheight>50.00</geoidheight><course>281.4</course><type>1</type></trkpt>
      <trkpt lat="38.4710514" lon="-2.00451363"><ele>1617</ele><speed>9.44</speed><time>2016-06-02T14:42:38Z</time><pdop>3.0</pdop><geoidheight>50.00</geoidheight><course>273.5</course><type>1</type></trkpt>
      <trkpt lat="38.47104375" lon="-2.00462196"><ele>1616</ele><speed>9.64</speed><time>2016-06-02T14:42:39Z</time><pdop>4.0</pdop><geoidheight>50.00</geoidheight><course>264.0</course><type>1</type></trkpt>
      <trkpt lat="38.47091289" lon="-2.00473345"><ele>1614</ele><speed>8.33</speed><time>2016-06-02T14:42:41Z</time><pdop>6.0</pdop><geoidheight>50.00</geoidheight><course>224.6</course><type>1</type></trkpt>
      <trkpt lat="38.47073163" lon="-2.0047292"><ele>1613</ele><speed>8.61</speed><time>2016-06-02T14:42:43Z</time><pdop>9.0</pdop><geoidheight>50.00</geoidheight><course>194.8</course><type>1</type></trkpt>
      <trkpt lat="38.47069027" lon="-2.00447588"><ele>1614</ele><speed>8.85</speed><time>2016-06-02T14:42:45Z</time><pdop>6.0</pdop><geoidheight>50.00</geoidheight><course>116.7</course><type>1</type></trkpt>
      <trkpt lat="38.4706441" lon="-2.00434925"><ele>1615</ele><speed>9.22</speed><time>2016-06-02T14:42:46Z</time><pdop>6.0</pdop><geoidheight>50.00</geoidheight><course>105.6</course><type>1</type></trkpt>
      <trkpt lat="38.470591" lon="-2.00413914"><ele>1615</ele><speed>8.57</speed><time>2016-06-02T14:42:48Z</time><pdop>5.0</pdop><geoidheight>50.00</geoidheight><course>103.4</course><type>1</type></trkpt>
      <trkpt lat="38.47057292" lon="-2.00393567"><ele>1615</ele><speed>8.20</speed><time>2016-06-02T14:42:50Z</time><pdop>4.0</pdop><geoidheight>50.00</geoidheight><course>86.2</course><type>1</type></trkpt>
      <trkpt lat="38.4706169" lon="-2.003848"><ele>1613</ele><speed>9.03</speed><time>2016-06-02T14:42:51Z</time><pdop>4.0</pdop><geoidheight>50.00</geoidheight><course>59.6</course><type>1</type></trkpt>
      <trkpt lat="38.47068214" lon="-2.00376768"><ele>1613</ele><speed>9.97</speed><time>2016-06-02T14:42:52Z</time><pdop>4.0</pdop><geoidheight>50.00</geoidheight><course>46.7</course><type>1</type></trkpt>
      <trkpt lat="38.47075753" lon="-2.00370746"><ele>1611</ele><speed>10.39</speed><time>2016-06-02T14:42:53Z</time><pdop>4.0</pdop><geoidheight>50.00</geoidheight><course>38.5</course><type>1</type></trkpt>
      <trkpt lat="38.47084003" lon="-2.00364685"><ele>1610</ele><speed>10.56</speed><time>2016-06-02T14:42:54Z</time><pdop>5.0</pdop><geoidheight>50.00</geoidheight><course>32.9</course><type>1</type></trkpt>
      <trkpt lat="38.47098866" lon="-2.00361624"><ele>1613</ele><speed>9.40</speed><time>2016-06-02T14:42:56Z</time><pdop>4.0</pdop><geoidheight>50.00</geoidheight><course>6.1</course><type>1</type></trkpt>
      <trkpt lat="38.4710837" lon="-2.0036145"><ele>1612</ele><speed>10.00</speed><time>2016-06-02T14:42:57Z</time><pdop>5.0</pdop><geoidheight>50.00</geoidheight><course>0.2</course><type>1</type></trkpt>
      <trkpt lat="38.47124062" lon="-2.00370884"><ele>1611</ele><speed>10.27</speed><time>2016-06-02T14:42:59Z</time><pdop>7.0</pdop><geoidheight>50.00</geoidheight><course>337.6</course><type>1</type></trkpt>
      <trkpt lat="38.47137944" lon="-2.00393193"><ele>1610</ele><speed>12.04</speed><time>2016-06-02T14:43:01Z</time><pdop>6.0</pdop><geoidheight>50.00</geoidheight><course>312.6</course><type>1</type></trkpt>
      <trkpt lat="38.47139067" lon="-2.00409467"><ele>1608</ele><speed>12.36</speed><time>2016-06-02T14:43:02Z</time><pdop>5.0</pdop><geoidheight>50.00</geoidheight><course>289.6</course><type>1</type></trkpt>
      <trkpt lat="38.47140459" lon="-2.00423128"><ele>1609</ele><speed>11.45</speed><time>2016-06-02T14:43:03Z</time><pdop>4.0</pdop><geoidheight>50.00</geoidheight><course>282.0</course><type>1</type></trkpt>
      <trkpt lat="38.47140467" lon="-2.00434582"><ele>1610</ele><speed>10.07</speed><time>2016-06-02T14:43:04Z</time><pdop>4.0</pdop><geoidheight>50.00</geoidheight><course>276.5</course><type>1</type></trkpt>
      <trkpt lat="38.47141691" lon="-2.00446074"><ele>1611</ele><speed>9.23</speed><time>2016-06-02T14:43:05Z</time><pdop>4.0</pdop><geoidheight>50.00</geoidheight><course>274.0</course><type>1</type></trkpt>
      <trkpt lat="38.47139208" lon="-2.00464385"><ele>1611</ele><speed>9.18</speed><time>2016-06-02T14:43:07Z</time><pdop>4.0</pdop><geoidheight>50.00</geoidheight><course>255.0</course><type>1</type></trkpt>
      <trkpt lat="38.47133487" lon="-2.00475013"><ele>1612</ele><speed>9.43</speed><time>2016-06-02T14:43:08Z</time><pdop>4.0</pdop><geoidheight>50.00</geoidheight><course>243.9</course><type>1</type></trkpt>
      <trkpt lat="38.47127716" lon="-2.00483442"><ele>1612</ele><speed>9.75</speed><time>2016-06-02T14:43:09Z</time><pdop>4.0</pdop><geoidheight>50.00</geoidheight><course>232.5</course><type>1</type></trkpt>
      <trkpt lat="38.47121267" lon="-2.00489781"><ele>1611</ele><speed>9.63</speed><time>2016-06-02T14:43:10Z</time><pdop>4.0</pdop><geoidheight>50.00</geoidheight><course>223.0</course><type>1</type></trkpt>
      <trkpt lat="38.47115168" lon="-2.00495234"><ele>1611</ele><speed>9.09</speed><time>2016-06-02T14:43:11Z</time><pdop>4.0</pdop><geoidheight>50.00</geoidheight><course>215.8</course><type>1</type></trkpt>
      <trkpt lat="38.47101907" lon="-2.00503179"><ele>1611</ele><speed>8.30</speed><time>2016-06-02T14:43:13Z</time><pdop>7.0</pdop><geoidheight>50.00</geoidheight><course>206.2</course><type>1</type></trkpt>
      <trkpt lat="38.47084154" lon="-2.00500102"><ele>1610</ele><speed>8.62</speed><time>2016-06-02T14:43:15Z</time><pdop>9.0</pdop><geoidheight>50.00</geoidheight><course>181.2</course><type>1</type></trkpt>
      <trkpt lat="38.4707258" lon="-2.00473845"><ele>1610</ele><speed>9.99</speed><time>2016-06-02T14:43:17Z</time><pdop>6.0</pdop><geoidheight>50.00</geoidheight><course>130.1</course><type>1</type></trkpt>
      <trkpt lat="38.47065054" lon="-2.00463976"><ele>1610</ele><speed>9.48</speed><time>2016-06-02T14:43:18Z</time><pdop>5.0</pdop><geoidheight>50.00</geoidheight><course>128.3</course><type>1</type></trkpt>
      <trkpt lat="38.47061397" lon="-2.00448082"><ele>1610</ele><speed>6.94</speed><time>2016-06-02T14:43:20Z</time><pdop>4.0</pdop><geoidheight>50.00</geoidheight><course>109.7</course><type>1</type></trkpt>
      <trkpt lat="38.47061228" lon="-2.00434461"><ele>1607</ele><speed>6.75</speed><time>2016-06-02T14:43:22Z</time><pdop>4.0</pdop><geoidheight>50.00</geoidheight><course>91.3</course><type>1</type></trkpt>
      <trkpt lat="38.47062308" lon="-2.0042475"><ele>1605</ele><speed>7.43</speed><time>2016-06-02T14:43:23Z</time><pdop>4.0</pdop><geoidheight>50.00</geoidheight><course>81.2</course><type>1</type></trkpt>
      <trkpt lat="38.47065554" lon="-2.00416011"><ele>1605</ele><speed>8.06</speed><time>2016-06-02T14:43:24Z</time><pdop>4.0</pdop><geoidheight>50.00</geoidheight><course>62.7</course><type>1</type></trkpt>
      <trkpt lat="38.47069723" lon="-2.00408339"><ele>1604</ele><speed>7.91</speed><time>2016-06-02T14:43:25Z</time><pdop>4.0</pdop><geoidheight>50.00</geoidheight><course>58.9</course><type>1</type></trkpt>
      <trkpt lat="38.47075988" lon="-2.00400653"><ele>1604</ele><speed>8.73</speed><time>2016-06-02T14:43:26Z</time><pdop>5.0</pdop><geoidheight>50.00</geoidheight><course>48.8</course><type>1</type></trkpt>
      <trkpt lat="38.47092518" lon="-2.00397452"><ele>1603</ele><speed>8.82</speed><time>2016-06-02T14:43:28Z</time><pdop>7.0</pdop><geoidheight>50.00</geoidheight><course>17.0</course><type>1</type></trkpt>
      <trkpt lat="38.47110268" lon="-2.00397911"><ele>1604</ele><speed>10.14</speed><time>2016-06-02T14:43:30Z</time><pdop>6.0</pdop><geoidheight>50.00</geoidheight><course>357.9</course><type>1</type></trkpt>
      <trkpt lat="38.47128599" lon="-2.00403836"><ele>1602</ele><speed>10.28</speed><time>2016-06-02T14:43:32Z</time><pdop>8.0</pdop><geoidheight>50.00</geoidheight><course>349.5</course><type>1</type></trkpt>
      <trkpt lat="38.47142042" lon="-2.00414185"><ele>1601</ele><speed>12.46</speed><time>2016-06-02T14:43:33Z</time><pdop>8.0</pdop><geoidheight>50.00</geoidheight><course>336.5</course><type>1</type></trkpt>
      <trkpt lat="38.47160104" lon="-2.00436174"><ele>1597</ele><speed>12.98</speed><time>2016-06-02T14:43:35Z</time><pdop>9.0</pdop><geoidheight>50.00</geoidheight><course>321.9</course><type>1</type></trkpt>
      <trkpt lat="38.47172402" lon="-2.00455052"><ele>1597</ele><speed>11.15</speed><time>2016-06-02T14:43:37Z</time><pdop>5.0</pdop><geoidheight>50.00</geoidheight><course>312.6</course><type>1</type></trkpt>
      <trkpt lat="38.4718011" lon="-2.00464855"><ele>1596</ele><speed>11.39</speed><time>2016-06-02T14:43:38Z</time><pdop>5.0</pdop><geoidheight>50.00</geoidheight><course>309.4</course><type>1</type></trkpt>
      <trkpt lat="38.4718588" lon="-2.00474861"><ele>1595</ele><speed>11.54</speed><time>2016-06-02T14:43:39Z</time><pdop>4.0</pdop><geoidheight>50.00</geoidheight><course>306.1</course><type>1</type></trkpt>
      <trkpt lat="38.47190942" lon="-2.00486005"><ele>1595</ele><speed>10.94</speed><time>2016-06-02T14:43:40Z</time><pdop>4.0</pdop><geoidheight>50.00</geoidheight><course>304.5</course><type>1</type></trkpt>
      <trkpt lat="38.47196132" lon="-2.00495913"><ele>1595</ele><speed>10.34</speed><time>2016-06-02T14:43:41Z</time><pdop>4.0</pdop><geoidheight>50.00</geoidheight><course>302.0</course><type>1</type></trkpt>
      <trkpt lat="38.47200187" lon="-2.00505484"><ele>1594</ele><speed>10.09</speed><time>2016-06-02T14:43:42Z</time><pdop>4.0</pdop><geoidheight>50.00</geoidheight><course>299.1</course><type>1</type></trkpt>
      <trkpt lat="38.47204644" lon="-2.005156"><ele>1593</ele><speed>10.27</speed><time>2016-06-02T14:43:43Z</time><pdop>4.0</pdop><geoidheight>50.00</geoidheight><course>300.2</course><type>1</type></trkpt>
      <trkpt lat="38.47208759" lon="-2.00526339"><ele>1593</ele><speed>10.33</speed><time>2016-06-02T14:43:44Z</time><pdop>3.0</pdop><geoidheight>50.00</geoidheight><course>298.9</course><type>1</type></trkpt>
      <trkpt lat="38.47212272" lon="-2.0053715"><ele>1593</ele><speed>9.72</speed><time>2016-06-02T14:43:45Z</time><pdop>3.0</pdop><geoidheight>50.00</geoidheight><course>296.3</course><type>1</type></trkpt>
      <trkpt lat="38.47216406" lon="-2.0054647"><ele>1591</ele><speed>8.72</speed><time>2016-06-02T14:43:46Z</time><pdop>3.0</pdop><geoidheight>50.00</geoidheight><course>294.4</course><type>1</type></trkpt>
      <trkpt lat="38.47219501" lon="-2.00556829"><ele>1592</ele><speed>9.19</speed><time>2016-06-02T14:43:47Z</time><pdop>4.0</pdop><geoidheight>50.00</geoidheight><course>292.6</course><type>1</type></trkpt>
      <trkpt lat="38.47223896" lon="-2.00567307"><ele>1591</ele><speed>9.70</speed><time>2016-06-02T14:43:48Z</time><pdop>5.0</pdop><geoidheight>50.00</geoidheight><course>294.5</course><type>1</type></trkpt>
      <trkpt lat="38.47227304" lon="-2.00587217"><ele>1590</ele><speed>9.66</speed><time>2016-06-02T14:43:50Z</time><pdop>10.0</pdop><geoidheight>50.00</geoidheight><course>286.5</course><type>1</type></trkpt>
      <trkpt lat="38.47223452" lon="-2.00619096"><ele>1587</ele><speed>11.49</speed><time>2016-06-02T14:43:52Z</time><pdop>7.0</pdop><geoidheight>50.00</geoidheight><course>268.7</course><type>1</type></trkpt>
      <trkpt lat="38.47216947" lon="-2.00638021"><ele>1582</ele><speed>10.03</speed><time>2016-06-02T14:43:54Z</time><pdop>7.0</pdop><geoidheight>50.00</geoidheight><course>249.6</course><type>1</type></trkpt>
      <trkpt lat="38.47202276" lon="-2.00647365"><ele>1579</ele><speed>9.47</speed><time>2016-06-02T14:43:56Z</time><pdop>9.0</pdop><geoidheight>50.00</geoidheight><course>217.8</course><type>1</type></trkpt>
      <trkpt lat="38.47175373" lon="-2.00637122"><ele>1573</ele><speed>8.61</speed><time>2016-06-02T14:43:59Z</time><pdop>16.0</pdop><geoidheight>50.00</geoidheight><course>173.8</course><type>1</type></trkpt>
      <trkpt lat="38.47172888" lon="-2.00603542"><ele>1572</ele><speed>7.77</speed><time>2016-06-02T14:44:01Z</time><pdop>13.0</pdop><geoidheight>50.00</geoidheight><course>114.3</course><type>1</type></trkpt>
      <trkpt lat="38.47177899" lon="-2.00573003"><ele>1566</ele><speed>9.93</speed><time>2016-06-02T14:44:03Z</time><pdop>11.0</pdop><geoidheight>50.00</geoidheight><course>91.6</course><type>1</type></trkpt>
      <trkpt lat="38.47183692" lon="-2.00541665"><ele>1561</ele><speed>12.73</speed><time>2016-06-02T14:44:05Z</time><pdop>12.0</pdop><geoidheight>50.00</geoidheight><course>82.2</course><type>1</type></trkpt>
      <trkpt lat="38.47187122" lon="-2.00518036"><ele>1561</ele><speed>9.29</speed><time>2016-06-02T14:44:07Z</time><pdop>7.0</pdop><geoidheight>50.00</geoidheight><course>82.4</course><type>1</type></trkpt>
      <trkpt lat="38.47190179" lon="-2.00497849"><ele>1558</ele><speed>6.25</speed><time>2016-06-02T14:44:10Z</time><pdop>5.0</pdop><geoidheight>50.00</geoidheight><course>76.1</course><type>1</type></trkpt>
      <trkpt lat="38.47193744" lon="-2.00478541"><ele>1555</ele><speed>8.38</speed><time>2016-06-02T14:44:12Z</time><pdop>6.0</pdop><geoidheight>50.00</geoidheight><course>81.9</course><type>1</type></trkpt>
      <trkpt lat="38.47200605" lon="-2.00450818"><ele>1548</ele><speed>11.25</speed><time>2016-06-02T14:44:14Z</time><pdop>6.0</pdop><geoidheight>50.00</geoidheight><course>71.7</course><type>1</type></trkpt>
      <trkpt lat="38.47208799" lon="-2.00429559"><ele>1543</ele><speed>9.98</speed><time>2016-06-02T14:44:16Z</time><pdop>4.0</pdop><geoidheight>50.00</geoidheight><course>67.3</course><type>1</type></trkpt>
      <trkpt lat="38.47212555" lon="-2.00420752"><ele>1540</ele><speed>9.08</speed><time>2016-06-02T14:44:17Z</time><pdop>4.0</pdop><geoidheight>50.00</geoidheight><course>65.5</course><type>1</type></trkpt>
      <trkpt lat="38.47217119" lon="-2.0041186"><ele>1538</ele><speed>9.46</speed><time>2016-06-02T14:44:18Z</time><pdop>4.0</pdop><geoidheight>50.00</geoidheight><course>59.9</course><type>1</type></trkpt>
      <trkpt lat="38.47222183" lon="-2.00403247"><ele>1537</ele><speed>10.29</speed><time>2016-06-02T14:44:19Z</time><pdop>4.0</pdop><geoidheight>50.00</geoidheight><course>57.2</course><type>1</type></trkpt>
      <trkpt lat="38.47228005" lon="-2.00395076"><ele>1537</ele><speed>9.94</speed><time>2016-06-02T14:44:20Z</time><pdop>4.0</pdop><geoidheight>50.00</geoidheight><course>52.0</course><type>1</type></trkpt>
      <trkpt lat="38.47233944" lon="-2.00387305"><ele>1537</ele><speed>9.15</speed><time>2016-06-02T14:44:21Z</time><pdop>4.0</pdop><geoidheight>50.00</geoidheight><course>47.3</course><type>1</type></trkpt>
      <trkpt lat="38.47240469" lon="-2.00380786"><ele>1538</ele><speed>9.03</speed><time>2016-06-02T14:44:22Z</time><pdop>4.0</pdop><geoidheight>50.00</geoidheight><course>42.6</course><type>1</type></trkpt>
      <trkpt lat="38.47247675" lon="-2.00374417"><ele>1537</ele><speed>9.30</speed><time>2016-06-02T14:44:23Z</time><pdop>5.0</pdop><geoidheight>50.00</geoidheight><course>37.0</course><type>1</type></trkpt>
      <trkpt lat="38.47256972" lon="-2.00368618"><ele>1538</ele><speed>10.19</speed><time>2016-06-02T14:44:24Z</time><pdop>6.0</pdop><geoidheight>50.00</geoidheight><course>31.1</course><type>1</type></trkpt>
      <trkpt lat="38.47275276" lon="-2.00359919"><ele>1537</ele><speed>10.26</speed><time>2016-06-02T14:44:26Z</time><pdop>5.0</pdop><geoidheight>50.00</geoidheight><course>22.6</course><type>1</type></trkpt>
      <trkpt lat="38.47284283" lon="-2.00355276"><ele>1536</ele><speed>10.33</speed><time>2016-06-02T14:44:27Z</time><pdop>4.0</pdop><geoidheight>50.00</geoidheight><course>20.8</course><type>1</type></trkpt>
      <trkpt lat="38.47296517" lon="-2.00346646"><ele>1535</ele><speed>9.21</speed><time>2016-06-02T14:44:29Z</time><pdop>6.0</pdop><geoidheight>50.00</geoidheight><course>26.8</course><type>1</type></trkpt>
      <trkpt lat="38.47304713" lon="-2.0033636"><ele>1534</ele><speed>10.29</speed><time>2016-06-02T14:44:30Z</time><pdop>6.0</pdop><geoidheight>50.00</geoidheight><course>37.4</course><type>1</type></trkpt>
      <trkpt lat="38.47316451" lon="-2.00319179"><ele>1534</ele><speed>11.27</speed><time>2016-06-02T14:44:32Z</time><pdop>6.0</pdop><geoidheight>50.00</geoidheight><course>50.9</course><type>1</type></trkpt>
      <trkpt lat="38.47329643" lon="-2.00296879"><ele>1530</ele><speed>11.09</speed><time>2016-06-02T14:44:34Z</time><pdop>7.0</pdop><geoidheight>50.00</geoidheight><course>56.1</course><type>1</type></trkpt>
      <trkpt lat="38.47337351" lon="-2.00285221"><ele>1527</ele><speed>8.03</speed><time>2016-06-02T14:44:36Z</time><pdop>6.0</pdop><geoidheight>50.00</geoidheight><course>50.2</course><type>1</type></trkpt>
      <trkpt lat="38.47348533" lon="-2.00274193"><ele>1524</ele><speed>7.28</speed><time>2016-06-02T14:44:38Z</time><pdop>6.0</pdop><geoidheight>50.00</geoidheight><course>37.8</course><type>1</type></trkpt>
      <trkpt lat="38.47360394" lon="-2.00264788"><ele>1521</ele><speed>7.81</speed><time>2016-06-02T14:44:40Z</time><pdop>6.0</pdop><geoidheight>50.00</geoidheight><course>31.1</course><type>1</type></trkpt>
      <trkpt lat="38.47373871" lon="-2.00251145"><ele>1517</ele><speed>8.85</speed><time>2016-06-02T14:44:42Z</time><pdop>6.0</pdop><geoidheight>50.00</geoidheight><course>41.6</course><type>1</type></trkpt>
      <trkpt lat="38.4738065" lon="-2.00233557"><ele>1516</ele><speed>8.77</speed><time>2016-06-02T14:44:44Z</time><pdop>5.0</pdop><geoidheight>50.00</geoidheight><course>60.1</course><type>1</type></trkpt>
      <trkpt lat="38.47385615" lon="-2.00218381"><ele>1514</ele><speed>7.53</speed><time>2016-06-02T14:44:46Z</time><pdop>4.0</pdop><geoidheight>50.00</geoidheight><course>67.4</course><type>1</type></trkpt>
      <trkpt lat="38.47387132" lon="-2.00199289"><ele>1510</ele><speed>9.10</speed><time>2016-06-02T14:44:48Z</time><pdop>6.0</pdop><geoidheight>50.00</geoidheight><course>86.3</course><type>1</type></trkpt>
      <trkpt lat="38.47388291" lon="-2.00178675"><ele>1504</ele><speed>9.19</speed><time>2016-06-02T14:44:50Z</time><pdop>5.0</pdop><geoidheight>50.00</geoidheight><course>83.8</course><type>1</type></trkpt>
      <trkpt lat="38.47389834" lon="-2.00158985"><ele>1499</ele><speed>9.15</speed><time>2016-06-02T14:44:52Z</time><pdop>5.0</pdop><geoidheight>50.00</geoidheight><course>84.5</course><type>1</type></trkpt>
      <trkpt lat="38.47389906" lon="-2.00131914"><ele>1497</ele><speed>11.68</speed><time>2016-06-02T14:44:54Z</time><pdop>8.0</pdop><geoidheight>50.00</geoidheight><course>89.3</course><type>1</type></trkpt>
      <trkpt lat="38.47388522" lon="-2.00102175"><ele>1490</ele><speed>13.04</speed><time>2016-06-02T14:44:56Z</time><pdop>5.0</pdop><geoidheight>50.00</geoidheight><course>91.8</course><type>1</type></trkpt>
      <trkpt lat="38.47389091" lon="-2.00090105"><ele>1489</ele><speed>11.56</speed><time>2016-06-02T14:44:57Z</time><pdop>5.0</pdop><geoidheight>50.00</geoidheight><course>91.1</course><type>1</type></trkpt>
      <trkpt lat="38.47388167" lon="-2.00078543"><ele>1489</ele><speed>11.05</speed><time>2016-06-02T14:44:58Z</time><pdop>5.0</pdop><geoidheight>50.00</geoidheight><course>91.1</course><type>1</type></trkpt>
      <trkpt lat="38.47384376" lon="-2.00060672"><ele>1483</ele><speed>9.01</speed><time>2016-06-02T14:45:00Z</time><pdop>4.0</pdop><geoidheight>50.00</geoidheight><course>101.2</course><type>1</type></trkpt>
      <trkpt lat="38.47382407" lon="-2.00049448"><ele>1479</ele><speed>10.78</speed><time>2016-06-02T14:45:01Z</time><pdop>4.0</pdop><geoidheight>50.00</geoidheight><course>101.9</course><type>1</type></trkpt>
      <trkpt lat="38.47379277" lon="-2.00020412"><ele>1472</ele><speed>12.42</speed><time>2016-06-02T14:45:03Z</time><pdop>4.0</pdop><geoidheight>50.00</geoidheight><course>99.4</course><type>1</type></trkpt>
      <trkpt lat="38.47377731" lon="-2.00007412"><ele>1470</ele><speed>12.02</speed><time>2016-06-02T14:45:04Z</time><pdop>5.0</pdop><geoidheight>50.00</geoidheight><course>98.9</course><type>1</type></trkpt>
      <trkpt lat="38.47375678" lon="-1.99993851"><ele>1468</ele><speed>11.41</speed><time>2016-06-02T14:45:05Z</time><pdop>5.0</pdop><geoidheight>50.00</geoidheight><course>100.0</course><type>1</type></trkpt>
      <trkpt lat="38.47374221" lon="-1.99969175"><ele>1465</ele><speed>11.40</speed><time>2016-06-02T14:45:07Z</time><pdop>10.0</pdop><geoidheight>50.00</geoidheight><course>97.5</course><type>1</type></trkpt>
      <trkpt lat="38.47371479" lon="-1.99941895"><ele>1464</ele><speed>11.98</speed><time>2016-06-02T14:45:09Z</time><pdop>7.0</pdop><geoidheight>50.00</geoidheight><course>98.9</course><type>1</type></trkpt>
      <trkpt lat="38.47366015" lon="-1.99917183"><ele>1461</ele><speed>11.59</speed><time>2016-06-02T14:45:11Z</time><pdop>7.0</pdop><geoidheight>50.00</geoidheight><course>102.6</course><type>1</type></trkpt>
      <trkpt lat="38.47361542" lon="-1.99894943"><ele>1457</ele><speed>10.46</speed><time>2016-06-02T14:45:13Z</time><pdop>7.0</pdop><geoidheight>50.00</geoidheight><course>102.8</course><type>1</type></trkpt>
      <trkpt lat="38.47356499" lon="-1.99876172"><ele>1447</ele><speed>10.62</speed><time>2016-06-02T14:45:15Z</time><pdop>6.0</pdop><geoidheight>50.00</geoidheight><course>104.4</course><type>1</type></trkpt>
      <trkpt lat="38.47354879" lon="-1.99862812"><ele>1441</ele><speed>12.18</speed><time>2016-06-02T14:45:16Z</time><pdop>5.0</pdop><geoidheight>50.00</geoidheight><course>99.3</course><type>1</type></trkpt>
      <trkpt lat="38.47353847" lon="-1.99849636"><ele>1435</ele><speed>13.48</speed><time>2016-06-02T14:45:17Z</time><pdop>5.0</pdop><geoidheight>50.00</geoidheight><course>96.1</course><type>1</type></trkpt>
      <trkpt lat="38.4735314" lon="-1.99835587"><ele>1430</ele><speed>13.34</speed><time>2016-06-02T14:45:18Z</time><pdop>5.0</pdop><geoidheight>50.00</geoidheight><course>97.5</course><type>1</type></trkpt>
      <trkpt lat="38.47351862" lon="-1.99821761"><ele>1425</ele><speed>13.20</speed><time>2016-06-02T14:45:19Z</time><pdop>6.0</pdop><geoidheight>50.00</geoidheight><course>97.0</course><type>1</type></trkpt>
      <trkpt lat="38.47350192" lon="-1.99794769"><ele>1423</ele><speed>11.71</speed><time>2016-06-02T14:45:21Z</time><pdop>9.0</pdop><geoidheight>50.00</geoidheight><course>96.0</course><type>1</type></trkpt>
      <trkpt lat="38.47346764" lon="-1.99770484"><ele>1423</ele><speed>11.13</speed><time>2016-06-02T14:45:23Z</time><pdop>11.0</pdop><geoidheight>50.00</geoidheight><course>101.4</course><type>1</type></trkpt>
      <trkpt lat="38.47347036" lon="-1.99737725"><ele>1420</ele><speed>13.96</speed><time>2016-06-02T14:45:25Z</time><pdop>11.0</pdop><geoidheight>50.00</geoidheight><course>96.0</course><type>1</type></trkpt>
      <trkpt lat="38.47343997" lon="-1.99709952"><ele>1410</ele><speed>13.43</speed><time>2016-06-02T14:45:27Z</time><pdop>8.0</pdop><geoidheight>50.00</geoidheight><course>93.6</course><type>1</type></trkpt>
      <trkpt lat="38.47345715" lon="-1.99681135"><ele>1406</ele><speed>12.52</speed><time>2016-06-02T14:45:29Z</time><pdop>7.0</pdop><geoidheight>50.00</geoidheight><course>86.3</course><type>1</type></trkpt>
      <trkpt lat="38.47355283" lon="-1.99660956"><ele>1405</ele><speed>9.82</speed><time>2016-06-02T14:45:31Z</time><pdop>6.0</pdop><geoidheight>50.00</geoidheight><course>58.9</course><type>1</type></trkpt>
      <trkpt lat="38.47362383" lon="-1.99648807"><ele>1404</ele><speed>7.37</speed><time>2016-06-02T14:45:33Z</time><pdop>7.0</pdop><geoidheight>50.00</geoidheight><course>55.1</course><type>1</type></trkpt>
      <trkpt lat="38.47372036" lon="-1.9962887"><ele>1403</ele><speed>9.81</speed><time>2016-06-02T14:45:35Z</time><pdop>8.0</pdop><geoidheight>50.00</geoidheight><course>66.3</course><type>1</type></trkpt>
      <trkpt lat="38.47379701" lon="-1.99599916"><ele>1401</ele><speed>13.16</speed><time>2016-06-02T14:45:37Z</time><pdop>7.0</pdop><geoidheight>50.00</geoidheight><course>73.7</course><type>1</type></trkpt>
      <trkpt lat="38.47385845" lon="-1.9957635"><ele>1394</ele><speed>11.52</speed><time>2016-06-02T14:45:39Z</time><pdop>6.0</pdop><geoidheight>50.00</geoidheight><course>78.0</course><type>1</type></trkpt>
      <trkpt lat="38.47389069" lon="-1.99551546"><ele>1390</ele><speed>10.93</speed><time>2016-06-02T14:45:41Z</time><pdop>7.0</pdop><geoidheight>50.00</geoidheight><course>85.4</course><type>1</type></trkpt>
      <trkpt lat="38.47392977" lon="-1.99528086"><ele>1385</ele><speed>10.59</speed><time>2016-06-02T14:45:43Z</time><pdop>7.0</pdop><geoidheight>50.00</geoidheight><course>80.6</course><type>1</type></trkpt>
      <trkpt lat="38.47397797" lon="-1.99505006"><ele>1382</ele><speed>9.46</speed><time>2016-06-02T14:45:45Z</time><pdop>7.0</pdop><geoidheight>50.00</geoidheight><course>77.4</course><type>1</type></trkpt>
      <trkpt lat="38.47401182" lon="-1.99481992"><ele>1380</ele><speed>9.61</speed><time>2016-06-02T14:45:47Z</time><pdop>7.0</pdop><geoidheight>50.00</geoidheight><course>81.3</course><type>1</type></trkpt>
      <trkpt lat="38.47399688" lon="-1.99461429"><ele>1378</ele><speed>10.02</speed><time>2016-06-02T14:45:49Z</time><pdop>9.0</pdop><geoidheight>50.00</geoidheight><course>91.0</course><type>1</type></trkpt>
      <trkpt lat="38.47401217" lon="-1.99434974"><ele>1364</ele><speed>12.18</speed><time>2016-06-02T14:45:51Z</time><pdop>7.0</pdop><geoidheight>50.00</geoidheight><course>89.5</course><type>1</type></trkpt>
      <trkpt lat="38.47402342" lon="-1.99408355"><ele>1357</ele><speed>11.34</speed><time>2016-06-02T14:45:53Z</time><pdop>6.0</pdop><geoidheight>50.00</geoidheight><course>88.5</course><type>1</type></trkpt>
      <trkpt lat="38.47403193" lon="-1.99350879"><ele>1611</ele><speed>8.59</speed><time>2016-06-02T14:45:58Z</time><pdop>6.0</pdop><geoidheight>50.00</geoidheight><course>82.3</course><type>1</type></trkpt>
      <trkpt lat="38.47406362" lon="-1.99334046"><ele>1539</ele><speed>7.68</speed><time>2016-06-02T14:46:00Z</time><pdop>7.0</pdop><geoidheight>50.00</geoidheight><course>77.0</course><type>1</type></trkpt>
      <trkpt lat="38.47411693" lon="-1.99316109"><ele>1440</ele><speed>8.73</speed><time>2016-06-02T14:46:02Z</time><pdop>5.0</pdop><geoidheight>50.00</geoidheight><course>68.3</course><type>1</type></trkpt>
      <trkpt lat="38.47417971" lon="-1.99297615"><ele>1414</ele><speed>8.43</speed><time>2016-06-02T14:46:04Z</time><pdop>5.0</pdop><geoidheight>50.00</geoidheight><course>70.2</course><type>1</type></trkpt>
      <trkpt lat="38.47422842" lon="-1.99283317"><ele>1398</ele><speed>6.01</speed><time>2016-06-02T14:46:06Z</time><pdop>7.0</pdop><geoidheight>50.00</geoidheight><course>70.5</course><type>1</type></trkpt>
      <trkpt lat="38.47420356" lon="-1.99266737"><ele>1371</ele><speed>5.11</speed><time>2016-06-02T14:46:09Z</time><pdop>5.0</pdop><geoidheight>50.00</geoidheight><course>81.0</course><type>1</type></trkpt>
      <trkpt lat="38.47419719" lon="-1.9925192"><ele>1373</ele><speed>6.70</speed><time>2016-06-02T14:46:11Z</time><pdop>7.0</pdop><geoidheight>50.00</geoidheight><course>91.5</course><type>1</type></trkpt>
      <trkpt lat="38.47420827" lon="-1.99229109"><ele>1364</ele><speed>10.45</speed><time>2016-06-02T14:46:13Z</time><pdop>6.0</pdop><geoidheight>50.00</geoidheight><course>89.6</course><type>1</type></trkpt>
      <trkpt lat="38.47421934" lon="-1.99207701"><ele>1361</ele><speed>9.42</speed><time>2016-06-02T14:46:15Z</time><pdop>6.0</pdop><geoidheight>50.00</geoidheight><course>82.8</course><type>1</type></trkpt>
      <trkpt lat="38.47424935" lon="-1.99187307"><ele>1364</ele><speed>8.65</speed><time>2016-06-02T14:46:17Z</time><pdop>7.0</pdop><geoidheight>50.00</geoidheight><course>82.3</course><type>1</type></trkpt>
      <trkpt lat="38.47428329" lon="-1.99165116"><ele>1360</ele><speed>9.71</speed><time>2016-06-02T14:46:19Z</time><pdop>9.0</pdop><geoidheight>50.00</geoidheight><course>80.4</course><type>1</type></trkpt>
      <trkpt lat="38.47428756" lon="-1.99142463"><ele>1364</ele><speed>10.47</speed><time>2016-06-02T14:46:21Z</time><pdop>10.0</pdop><geoidheight>50.00</geoidheight><course>84.5</course><type>1</type></trkpt>
      <trkpt lat="38.47423357" lon="-1.99111203"><ele>1360</ele><speed>9.57</speed><time>2016-06-02T14:46:24Z</time><pdop>10.0</pdop><geoidheight>50.00</geoidheight><course>100.8</course><type>1</type></trkpt>
      <trkpt lat="38.47422178" lon="-1.99088592"><ele>1354</ele><speed>10.55</speed><time>2016-06-02T14:46:26Z</time><pdop>9.0</pdop><geoidheight>50.00</geoidheight><course>95.7</course><type>1</type></trkpt>
      <trkpt lat="38.47420398" lon="-1.99056533"><ele>1340</ele><speed>9.20</speed><time>2016-06-02T14:46:29Z</time><pdop>8.0</pdop><geoidheight>50.00</geoidheight><course>89.0</course><type>1</type></trkpt>
      <trkpt lat="38.47421823" lon="-1.99035114"><ele>1329</ele><speed>9.96</speed><time>2016-06-02T14:46:31Z</time><pdop>8.0</pdop><geoidheight>50.00</geoidheight><course>84.4</course><type>1</type></trkpt>
      <trkpt lat="38.4742703" lon="-1.99012006"><ele>1322</ele><speed>11.60</speed><time>2016-06-02T14:46:33Z</time><pdop>6.0</pdop><geoidheight>50.00</geoidheight><course>70.5</course><type>1</type></trkpt>
      <trkpt lat="38.47436151" lon="-1.98993704"><ele>1321</ele><speed>10.47</speed><time>2016-06-02T14:46:35Z</time><pdop>6.0</pdop><geoidheight>50.00</geoidheight><course>55.5</course><type>1</type></trkpt>
      <trkpt lat="38.47442927" lon="-1.9897767"><ele>1327</ele><speed>9.27</speed><time>2016-06-02T14:46:37Z</time><pdop>6.0</pdop><geoidheight>50.00</geoidheight><course>56.6</course><type>1</type></trkpt>
      <trkpt lat="38.47452686" lon="-1.98962135"><ele>1332</ele><speed>9.58</speed><time>2016-06-02T14:46:39Z</time><pdop>7.0</pdop><geoidheight>50.00</geoidheight><course>47.0</course><type>1</type></trkpt>
      <trkpt lat="38.47464533" lon="-1.9894642"><ele>1331</ele><speed>9.42</speed><time>2016-06-02T14:46:41Z</time><pdop>8.0</pdop><geoidheight>50.00</geoidheight><course>45.5</course><type>1</type></trkpt>
      <trkpt lat="38.47481595" lon="-1.98931661"><ele>1330</ele><speed>7.84</speed><time>2016-06-02T14:46:44Z</time><pdop>13.0</pdop><geoidheight>50.00</geoidheight><course>35.9</course><type>1</type></trkpt>
      <trkpt lat="38.47458806" lon="-1.98917285"><ele>1331</ele><speed>6.45</speed><time>2016-06-02T14:46:48Z</time><pdop>10.0</pdop><geoidheight>50.00</geoidheight><course>162.8</course><type>1</type></trkpt>
      <trkpt lat="38.47438706" lon="-1.98925989"><ele>1328</ele><speed>9.00</speed><time>2016-06-02T14:46:50Z</time><pdop>8.0</pdop><geoidheight>50.00</geoidheight><course>191.5</course><type>1</type></trkpt>
      <trkpt lat="38.47431813" lon="-1.98944896"><ele>1329</ele><speed>6.58</speed><time>2016-06-02T14:46:52Z</time><pdop>9.0</pdop><geoidheight>50.00</geoidheight><course>228.5</course><type>1</type></trkpt>
      <trkpt lat="38.47435246" lon="-1.98984189"><ele>1333</ele><speed>10.85</speed><time>2016-06-02T14:46:54Z</time><pdop>11.0</pdop><geoidheight>50.00</geoidheight><course>270.2</course><type>1</type></trkpt>
      <trkpt lat="38.47443807" lon="-1.99015058"><ele>1334</ele><speed>11.59</speed><time>2016-06-02T14:46:56Z</time><pdop>14.0</pdop><geoidheight>50.00</geoidheight><course>281.8</course><type>1</type></trkpt>
      <trkpt lat="38.47475449" lon="-1.99027512"><ele>1334</ele><speed>8.14</speed><time>2016-06-02T14:46:59Z</time><pdop>13.0</pdop><geoidheight>50.00</geoidheight><course>325.1</course><type>1</type></trkpt>
      <trkpt lat="38.47498176" lon="-1.99006687"><ele>1336</ele><speed>9.27</speed><time>2016-06-02T14:47:01Z</time><pdop>9.0</pdop><geoidheight>50.00</geoidheight><course>30.8</course><type>1</type></trkpt>
      <trkpt lat="38.4752084" lon="-1.98991874"><ele>1343</ele><speed>8.00</speed><time>2016-06-02T14:47:04Z</time><pdop>10.0</pdop><geoidheight>50.00</geoidheight><course>31.4</course><type>1</type></trkpt>
      <trkpt lat="38.47487062" lon="-1.98995073"><ele>1351</ele><speed>8.43</speed><time>2016-06-02T14:47:11Z</time><pdop>11.0</pdop><geoidheight>50.00</geoidheight><course>221.6</course><type>1</type></trkpt>
      <trkpt lat="38.47473191" lon="-1.9902159"><ele>1353</ele><speed>8.13</speed><time>2016-06-02T14:47:14Z</time><pdop>10.0</pdop><geoidheight>50.00</geoidheight><course>244.1</course><type>1</type></trkpt>
      <trkpt lat="38.47473023" lon="-1.9905103"><ele>1358</ele><speed>10.35</speed><time>2016-06-02T14:47:16Z</time><pdop>12.0</pdop><geoidheight>50.00</geoidheight><course>268.1</course><type>1</type></trkpt>
      <trkpt lat="38.47477311" lon="-1.99082"><ele>1361</ele><speed>10.50</speed><time>2016-06-02T14:47:18Z</time><pdop>15.0</pdop><geoidheight>50.00</geoidheight><course>274.7</course><type>1</type></trkpt>
      <trkpt lat="38.47508859" lon="-1.99100236"><ele>1363</ele><speed>8.90</speed><time>2016-06-02T14:47:21Z</time><pdop>18.0</pdop><geoidheight>50.00</geoidheight><course>317.1</course><type>1</type></trkpt>
      <trkpt lat="38.47536682" lon="-1.99090347"><ele>1412</ele><speed>7.03</speed><time>2016-06-02T14:47:24Z</time><pdop>14.0</pdop><geoidheight>50.00</geoidheight><course>12.7</course><type>1</type></trkpt>
      <trkpt lat="38.47524321" lon="-1.99056785"><ele>1400</ele><speed>4.69</speed><time>2016-06-02T14:47:29Z</time><pdop>16.0</pdop><geoidheight>50.00</geoidheight><course>119.9</course><type>1</type></trkpt>
      <trkpt lat="38.47497817" lon="-1.99068433"><ele>1396</ele><speed>8.09</speed><time>2016-06-02T14:47:34Z</time><pdop>13.0</pdop><geoidheight>50.00</geoidheight><course>211.6</course><type>1</type></trkpt>
      <trkpt lat="38.47505013" lon="-1.9911137"><ele>1402</ele><speed>10.69</speed><time>2016-06-02T14:47:37Z</time><pdop>14.0</pdop><geoidheight>50.00</geoidheight><course>276.7</course><type>1</type></trkpt>
      <trkpt lat="38.47520796" lon="-1.9914126"><ele>1404</ele><speed>13.40</speed><time>2016-06-02T14:47:39Z</time><pdop>12.0</pdop><geoidheight>50.00</geoidheight><course>308.4</course><type>1</type></trkpt>
      <trkpt lat="38.47534196" lon="-1.9916346"><ele>1404</ele><speed>11.84</speed><time>2016-06-02T14:47:41Z</time><pdop>12.0</pdop><geoidheight>50.00</geoidheight><course>311.2</course><type>1</type></trkpt>
      <trkpt lat="38.47558909" lon="-1.99178522"><ele>1411</ele><speed>8.63</speed><time>2016-06-02T14:47:44Z</time><pdop>13.0</pdop><geoidheight>50.00</geoidheight><course>344.6</course><type>1</type></trkpt>
      <trkpt lat="38.47583485" lon="-1.99172676"><ele>1417</ele><speed>7.01</speed><time>2016-06-02T14:47:48Z</time><pdop>13.0</pdop><geoidheight>50.00</geoidheight><course>25.5</course><type>1</type></trkpt>
      <trkpt lat="38.47600408" lon="-1.99149415"><ele>1423</ele><speed>6.29</speed><time>2016-06-02T14:47:52Z</time><pdop>13.0</pdop><geoidheight>50.00</geoidheight><course>57.8</course><type>1</type></trkpt>
      <trkpt lat="38.47575947" lon="-1.99148892"><ele>1433</ele><speed>6.89</speed><time>2016-06-02T14:47:57Z</time><pdop>12.0</pdop><geoidheight>50.00</geoidheight><course>200.2</course><type>1</type></trkpt>
      <trkpt lat="38.47567238" lon="-1.99171163"><ele>1439</ele><speed>6.84</speed><time>2016-06-02T14:48:00Z</time><pdop>8.0</pdop><geoidheight>50.00</geoidheight><course>244.2</course><type>1</type></trkpt>
      <trkpt lat="38.47579908" lon="-1.99202746"><ele>1442</ele><speed>11.75</speed><time>2016-06-02T14:48:02Z</time><pdop>6.0</pdop><geoidheight>50.00</geoidheight><course>295.5</course><type>1</type></trkpt>
      <trkpt lat="38.47585229" lon="-1.99217429"><ele>1444</ele><speed>12.67</speed><time>2016-06-02T14:48:03Z</time><pdop>6.0</pdop><geoidheight>50.00</geoidheight><course>296.6</course><type>1</type></trkpt>
      <trkpt lat="38.47591647" lon="-1.99231481"><ele>1444</ele><speed>13.37</speed><time>2016-06-02T14:48:04Z</time><pdop>7.0</pdop><geoidheight>50.00</geoidheight><course>299.3</course><type>1</type></trkpt>
      <trkpt lat="38.47608558" lon="-1.99248047"><ele>1444</ele><speed>11.42</speed><time>2016-06-02T14:48:06Z</time><pdop>9.0</pdop><geoidheight>50.00</geoidheight><course>311.9</course><type>1</type></trkpt>
      <trkpt lat="38.47625399" lon="-1.99249993"><ele>1449</ele><speed>11.84</speed><time>2016-06-02T14:48:07Z</time><pdop>9.0</pdop><geoidheight>50.00</geoidheight><course>330.8</course><type>1</type></trkpt>
      <trkpt lat="38.47642599" lon="-1.99238047"><ele>1453</ele><speed>6.77</speed><time>2016-06-02T14:48:10Z</time><pdop>11.0</pdop><geoidheight>50.00</geoidheight><course>10.2</course><type>1</type></trkpt>
      <trkpt lat="38.47639817" lon="-1.99209783"><ele>1456</ele><speed>4.28</speed><time>2016-06-02T14:48:14Z</time><pdop>12.0</pdop><geoidheight>50.00</geoidheight><course>127.9</course><type>1</type></trkpt>
      <trkpt lat="38.47613057" lon="-1.99201113"><ele>1459</ele><speed>7.67</speed><time>2016-06-02T14:48:18Z</time><pdop>11.0</pdop><geoidheight>50.00</geoidheight><course>184.0</course><type>1</type></trkpt>
      <trkpt lat="38.47610214" lon="-1.99236619"><ele>1461</ele><speed>8.12</speed><time>2016-06-02T14:48:21Z</time><pdop>10.0</pdop><geoidheight>50.00</geoidheight><course>253.3</course><type>1</type></trkpt>
      <trkpt lat="38.47619072" lon="-1.99257542"><ele>1465</ele><speed>11.72</speed><time>2016-06-02T14:48:22Z</time><pdop>8.0</pdop><geoidheight>50.00</geoidheight><course>285.7</course><type>1</type></trkpt>
      <trkpt lat="38.4762589" lon="-1.99273181"><ele>1465</ele><speed>13.29</speed><time>2016-06-02T14:48:23Z</time><pdop>6.0</pdop><geoidheight>50.00</geoidheight><course>300.2</course><type>1</type></trkpt>
      <trkpt lat="38.47632401" lon="-1.99288288"><ele>1466</ele><speed>13.91</speed><time>2016-06-02T14:48:24Z</time><pdop>6.0</pdop><geoidheight>50.00</geoidheight><course>301.1</course><type>1</type></trkpt>
      <trkpt lat="38.4764189" lon="-1.99301606"><ele>1466</ele><speed>14.04</speed><time>2016-06-02T14:48:25Z</time><pdop>7.0</pdop><geoidheight>50.00</geoidheight><course>308.9</course><type>1</type></trkpt>
      <trkpt lat="38.47657315" lon="-1.99320522"><ele>1470</ele><speed>11.82</speed><time>2016-06-02T14:48:27Z</time><pdop>8.0</pdop><geoidheight>50.00</geoidheight><course>316.8</course><type>1</type></trkpt>
      <trkpt lat="38.47679266" lon="-1.99317935"><ele>1470</ele><speed>9.23</speed><time>2016-06-02T14:48:29Z</time><pdop>9.0</pdop><geoidheight>50.00</geoidheight><course>348.2</course><type>1</type></trkpt>
      <trkpt lat="38.47700447" lon="-1.99302308"><ele>1471</ele><speed>7.29</speed><time>2016-06-02T14:48:32Z</time><pdop>15.0</pdop><geoidheight>50.00</geoidheight><course>31.7</course><type>1</type></trkpt>
      <trkpt lat="38.47699616" lon="-1.99266287"><ele>1477</ele><speed>3.68</speed><time>2016-06-02T14:48:37Z</time><pdop>14.0</pdop><geoidheight>50.00</geoidheight><course>92.3</course><type>1</type></trkpt>
      <trkpt lat="38.47672568" lon="-1.99271015"><ele>1479</ele><speed>6.97</speed><time>2016-06-02T14:48:40Z</time><pdop>9.0</pdop><geoidheight>50.00</geoidheight><course>192.7</course><type>1</type></trkpt>
      <trkpt lat="38.47674978" lon="-1.99311723"><ele>1481</ele><speed>8.94</speed><time>2016-06-02T14:48:43Z</time><pdop>10.0</pdop><geoidheight>50.00</geoidheight><course>270.7</course><type>1</type></trkpt>
      <trkpt lat="38.47679253" lon="-1.99336439"><ele>1482</ele><speed>12.80</speed><time>2016-06-02T14:48:44Z</time><pdop>9.0</pdop><geoidheight>50.00</geoidheight><course>280.4</course><type>1</type></trkpt>
      <trkpt lat="38.47687575" lon="-1.99365428"><ele>1482</ele><speed>11.97</speed><time>2016-06-02T14:48:46Z</time><pdop>10.0</pdop><geoidheight>50.00</geoidheight><course>287.4</course><type>1</type></trkpt>
      <trkpt lat="38.47716202" lon="-1.99377776"><ele>1486</ele><speed>8.57</speed><time>2016-06-02T14:48:49Z</time><pdop>13.0</pdop><geoidheight>50.00</geoidheight><course>329.3</course><type>1</type></trkpt>
      <trkpt lat="38.47735701" lon="-1.99365604"><ele>1490</ele><speed>7.82</speed><time>2016-06-02T14:48:51Z</time><pdop>11.0</pdop><geoidheight>50.00</geoidheight><course>15.3</course><type>1</type></trkpt>
      <trkpt lat="38.47746844" lon="-1.99341662"><ele>1491</ele><speed>8.01</speed><time>2016-06-02T14:48:53Z</time><pdop>10.0</pdop><geoidheight>50.00</geoidheight><course>59.1</course><type>1</type></trkpt>
      <trkpt lat="38.47737937" lon="-1.99321613"><ele>1495</ele><speed>5.03</speed><time>2016-06-02T14:48:56Z</time><pdop>9.0</pdop><geoidheight>50.00</geoidheight><course>108.0</course><type>1</type></trkpt>
      <trkpt lat="38.47719622" lon="-1.9932282"><ele>1496</ele><speed>6.51</speed><time>2016-06-02T14:48:59Z</time><pdop>7.0</pdop><geoidheight>50.00</geoidheight><course>189.6</course><type>1</type></trkpt>
      <trkpt lat="38.47703546" lon="-1.99329708"><ele>1498</ele><speed>9.08</speed><time>2016-06-02T14:49:01Z</time><pdop>8.0</pdop><geoidheight>50.00</geoidheight><course>198.1</course><type>1</type></trkpt>
      <trkpt lat="38.47702506" lon="-1.9935447"><ele>1502</ele><speed>7.99</speed><time>2016-06-02T14:49:03Z</time><pdop>10.0</pdop><geoidheight>50.00</geoidheight><course>244.8</course><type>1</type></trkpt>
      <trkpt lat="38.47704555" lon="-1.99377387"><ele>1504</ele><speed>11.93</speed><time>2016-06-02T14:49:04Z</time><pdop>7.0</pdop><geoidheight>50.00</geoidheight><course>264.2</course><type>1</type></trkpt>
      <trkpt lat="38.47705109" lon="-1.9939606"><ele>1505</ele><speed>13.14</speed><time>2016-06-02T14:49:05Z</time><pdop>7.0</pdop><geoidheight>50.00</geoidheight><course>271.5</course><type>1</type></trkpt>
      <trkpt lat="38.47708277" lon="-1.9941369"><ele>1506</ele><speed>13.78</speed><time>2016-06-02T14:49:06Z</time><pdop>6.0</pdop><geoidheight>50.00</geoidheight><course>280.4</course><type>1</type></trkpt>
      <trkpt lat="38.47710651" lon="-1.99429983"><ele>1508</ele><speed>13.88</speed><time>2016-06-02T14:49:07Z</time><pdop>5.0</pdop><geoidheight>50.00</geoidheight><course>283.7</course><type>1</type></trkpt>
      <trkpt lat="38.47715684" lon="-1.99444351"><ele>1508</ele><speed>12.69</speed><time>2016-06-02T14:49:08Z</time><pdop>6.0</pdop><geoidheight>50.00</geoidheight><course>288.8</course><type>1</type></trkpt>
      <trkpt lat="38.47724692" lon="-1.9946421"><ele>1510</ele><speed>9.88</speed><time>2016-06-02T14:49:10Z</time><pdop>9.0</pdop><geoidheight>50.00</geoidheight><course>295.7</course><type>1</type></trkpt>
      <trkpt lat="38.47747389" lon="-1.99467263"><ele>1512</ele><speed>8.76</speed><time>2016-06-02T14:49:12Z</time><pdop>9.0</pdop><geoidheight>50.00</geoidheight><course>340.7</course><type>1</type></trkpt>
      <trkpt lat="38.47765968" lon="-1.99464229"><ele>1514</ele><speed>9.65</speed><time>2016-06-02T14:49:14Z</time><pdop>9.0</pdop><geoidheight>50.00</geoidheight><course>4.8</course><type>1</type></trkpt>
      <trkpt lat="38.47781644" lon="-1.99450185"><ele>1517</ele><speed>9.68</speed><time>2016-06-02T14:49:16Z</time><pdop>10.0</pdop><geoidheight>50.00</geoidheight><course>33.0</course><type>1</type></trkpt>
      <trkpt lat="38.47760727" lon="-1.99445768"><ele>1532</ele><speed>4.08</speed><time>2016-06-02T14:49:22Z</time><pdop>9.0</pdop><geoidheight>50.00</geoidheight><course>230.3</course><type>1</type></trkpt>
      <trkpt lat="38.47754431" lon="-1.99476649"><ele>1537</ele><speed>10.97</speed><time>2016-06-02T14:49:24Z</time><pdop>8.0</pdop><geoidheight>50.00</geoidheight><course>272.9</course><type>1</type></trkpt>
      <trkpt lat="38.47757606" lon="-1.99505422"><ele>1539</ele><speed>11.75</speed><time>2016-06-02T14:49:26Z</time><pdop>7.0</pdop><geoidheight>50.00</geoidheight><course>285.8</course><type>1</type></trkpt>
      <trkpt lat="38.47765754" lon="-1.99525842"><ele>1538</ele><speed>15.06</speed><time>2016-06-02T14:49:27Z</time><pdop>7.0</pdop><geoidheight>50.00</geoidheight><course>293.2</course><type>1</type></trkpt>
      <trkpt lat="38.47773964" lon="-1.99539576"><ele>1539</ele><speed>14.50</speed><time>2016-06-02T14:49:28Z</time><pdop>8.0</pdop><geoidheight>50.00</geoidheight><course>298.1</course><type>1</type></trkpt>
      <trkpt lat="38.47794574" lon="-1.99555946"><ele>1541</ele><speed>12.80</speed><time>2016-06-02T14:49:30Z</time><pdop>10.0</pdop><geoidheight>50.00</geoidheight><course>314.2</course><type>1</type></trkpt>
      <trkpt lat="38.47817198" lon="-1.99558807"><ele>1545</ele><speed>11.17</speed><time>2016-06-02T14:49:32Z</time><pdop>9.0</pdop><geoidheight>50.00</geoidheight><course>340.7</course><type>1</type></trkpt>
      <trkpt lat="38.47840556" lon="-1.99557838"><ele>1547</ele><speed>10.90</speed><time>2016-06-02T14:49:34Z</time><pdop>8.0</pdop><geoidheight>50.00</geoidheight><course>359.9</course><type>1</type></trkpt>
      <trkpt lat="38.47855583" lon="-1.99552356"><ele>1551</ele><speed>8.71</speed><time>2016-06-02T14:49:36Z</time><pdop>9.0</pdop><geoidheight>50.00</geoidheight><course>18.2</course><type>1</type></trkpt>
      <trkpt lat="38.47865645" lon="-1.99530238"><ele>1557</ele><speed>7.04</speed><time>2016-06-02T14:49:39Z</time><pdop>6.0</pdop><geoidheight>50.00</geoidheight><course>73.3</course><type>1</type></trkpt>
      <trkpt lat="38.47870276" lon="-1.99512932"><ele>1559</ele><speed>6.77</speed><time>2016-06-02T14:49:41Z</time><pdop>5.0</pdop><geoidheight>50.00</geoidheight><course>78.3</course><type>1</type></trkpt>
      <trkpt lat="38.47870296" lon="-1.99498552"><ele>1561</ele><speed>5.43</speed><time>2016-06-02T14:49:43Z</time><pdop>6.0</pdop><geoidheight>50.00</geoidheight><course>92.3</course><type>1</type></trkpt>
      <trkpt lat="38.47850543" lon="-1.99501017"><ele>1562</ele><speed>5.34</speed><time>2016-06-02T14:49:47Z</time><pdop>7.0</pdop><geoidheight>50.00</geoidheight><course>202.6</course><type>1</type></trkpt>
      <trkpt lat="38.47842098" lon="-1.99521341"><ele>1565</ele><speed>6.63</speed><time>2016-06-02T14:49:49Z</time><pdop>9.0</pdop><geoidheight>50.00</geoidheight><course>232.8</course><type>1</type></trkpt>
      <trkpt lat="38.47830569" lon="-1.99549132"><ele>1568</ele><speed>9.63</speed><time>2016-06-02T14:49:51Z</time><pdop>6.0</pdop><geoidheight>50.00</geoidheight><course>236.8</course><type>1</type></trkpt>
      <trkpt lat="38.47821995" lon="-1.99569866"><ele>1569</ele><speed>8.72</speed><time>2016-06-02T14:49:53Z</time><pdop>6.0</pdop><geoidheight>50.00</geoidheight><course>234.3</course><type>1</type></trkpt>
      <trkpt lat="38.47811949" lon="-1.99577805"><ele>1573</ele><speed>5.39</speed><time>2016-06-02T14:49:55Z</time><pdop>7.0</pdop><geoidheight>50.00</geoidheight><course>206.6</course><type>1</type></trkpt>
      <trkpt lat="38.47795471" lon="-1.99563285"><ele>1576</ele><speed>5.76</speed><time>2016-06-02T14:49:58Z</time><pdop>8.0</pdop><geoidheight>50.00</geoidheight><course>142.2</course><type>1</type></trkpt>
      <trkpt lat="38.47822813" lon="-1.995548"><ele>1579</ele><speed>6.73</speed><time>2016-06-02T14:50:01Z</time><pdop>12.0</pdop><geoidheight>50.00</geoidheight><course>12.4</course><type>1</type></trkpt>
      <trkpt lat="38.47848908" lon="-1.99557565"><ele>1581</ele><speed>10.16</speed><time>2016-06-02T14:50:03Z</time><pdop>10.0</pdop><geoidheight>50.00</geoidheight><course>352.6</course><type>1</type></trkpt>
      <trkpt lat="38.47876783" lon="-1.99571612"><ele>1581</ele><speed>14.30</speed><time>2016-06-02T14:50:05Z</time><pdop>13.0</pdop><geoidheight>50.00</geoidheight><course>333.0</course><type>1</type></trkpt>
      <trkpt lat="38.47898429" lon="-1.99600392"><ele>1585</ele><speed>16.64</speed><time>2016-06-02T14:50:07Z</time><pdop>13.0</pdop><geoidheight>50.00</geoidheight><course>317.7</course><type>1</type></trkpt>
      <trkpt lat="38.47916607" lon="-1.99629417"><ele>1591</ele><speed>15.40</speed><time>2016-06-02T14:50:09Z</time><pdop>11.0</pdop><geoidheight>50.00</geoidheight><course>311.9</course><type>1</type></trkpt>
      <trkpt lat="38.47927944" lon="-1.9965478"><ele>1595</ele><speed>13.13</speed><time>2016-06-02T14:50:11Z</time><pdop>11.0</pdop><geoidheight>50.00</geoidheight><course>307.1</course><type>1</type></trkpt>
      <trkpt lat="38.47907399" lon="-1.99676146"><ele>1596</ele><speed>9.97</speed><time>2016-06-02T14:50:13Z</time><pdop>11.0</pdop><geoidheight>50.00</geoidheight><course>256.6</course><type>1</type></trkpt>
      <trkpt lat="38.47889477" lon="-1.99696928"><ele>1601</ele><speed>7.69</speed><time>2016-06-02T14:50:16Z</time><pdop>8.0</pdop><geoidheight>50.00</geoidheight><course>226.2</course><type>1</type></trkpt>
      <trkpt lat="38.47875449" lon="-1.99707581"><ele>1606</ele><speed>6.66</speed><time>2016-06-02T14:50:18Z</time><pdop>7.0</pdop><geoidheight>50.00</geoidheight><course>202.6</course><type>1</type></trkpt>
      <trkpt lat="38.47860597" lon="-1.99710923"><ele>1611</ele><speed>2.85</speed><time>2016-06-02T14:50:21Z</time><pdop>6.0</pdop><geoidheight>50.00</geoidheight><course>164.2</course><type>1</type></trkpt>
      <trkpt lat="38.47859793" lon="-1.99694769"><ele>1620</ele><speed>6.77</speed><time>2016-06-02T14:50:25Z</time><pdop>5.0</pdop><geoidheight>50.00</geoidheight><course>56.6</course><type>1</type></trkpt>
      <trkpt lat="38.47871254" lon="-1.99681959"><ele>1621</ele><speed>8.80</speed><time>2016-06-02T14:50:27Z</time><pdop>6.0</pdop><geoidheight>50.00</geoidheight><course>37.5</course><type>1</type></trkpt>
      <trkpt lat="38.47889134" lon="-1.99676686"><ele>1622</ele><speed>9.91</speed><time>2016-06-02T14:50:29Z</time><pdop>10.0</pdop><geoidheight>50.00</geoidheight><course>17.6</course><type>1</type></trkpt>
      <trkpt lat="38.47903677" lon="-1.99685905"><ele>1623</ele><speed>12.62</speed><time>2016-06-02T14:50:30Z</time><pdop>6.0</pdop><geoidheight>50.00</geoidheight><course>352.6</course><type>1</type></trkpt>
      <trkpt lat="38.47914699" lon="-1.99687816"><ele>1624</ele><speed>12.81</speed><time>2016-06-02T14:50:31Z</time><pdop>6.0</pdop><geoidheight>50.00</geoidheight><course>350.5</course><type>1</type></trkpt>
      <trkpt lat="38.4793231" lon="-1.99705063"><ele>1623</ele><speed>13.45</speed><time>2016-06-02T14:50:33Z</time><pdop>8.0</pdop><geoidheight>50.00</geoidheight><course>330.7</course><type>1</type></trkpt>
      <trkpt lat="38.47954759" lon="-1.99725909"><ele>1623</ele><speed>15.12</speed><time>2016-06-02T14:50:35Z</time><pdop>10.0</pdop><geoidheight>50.00</geoidheight><course>321.2</course><type>1</type></trkpt>
      <trkpt lat="38.47959132" lon="-1.99753359"><ele>1628</ele><speed>10.69</speed><time>2016-06-02T14:50:37Z</time><pdop>10.0</pdop><geoidheight>50.00</geoidheight><course>294.2</course><type>1</type></trkpt>
      <trkpt lat="38.4796011" lon="-1.99789546"><ele>1634</ele><speed>11.76</speed><time>2016-06-02T14:50:39Z</time><pdop>8.0</pdop><geoidheight>50.00</geoidheight><course>267.6</course><type>1</type></trkpt>
      <trkpt lat="38.47955324" lon="-1.99821929"><ele>1640</ele><speed>13.34</speed><time>2016-06-02T14:50:41Z</time><pdop>6.0</pdop><geoidheight>50.00</geoidheight><course>256.6</course><type>1</type></trkpt>
      <trkpt lat="38.47952685" lon="-1.9983635"><ele>1641</ele><speed>12.69</speed><time>2016-06-02T14:50:42Z</time><pdop>6.0</pdop><geoidheight>50.00</geoidheight><course>253.7</course><type>1</type></trkpt>
      <trkpt lat="38.47945269" lon="-1.99861505"><ele>1643</ele><speed>11.96</speed><time>2016-06-02T14:50:44Z</time><pdop>10.0</pdop><geoidheight>50.00</geoidheight><course>249.9</course><type>1</type></trkpt>
      <trkpt lat="38.4792925" lon="-1.99874509"><ele>1648</ele><speed>6.30</speed><time>2016-06-02T14:50:47Z</time><pdop>10.0</pdop><geoidheight>50.00</geoidheight><course>211.8</course><type>1</type></trkpt>
      <trkpt lat="38.47917988" lon="-1.99857388"><ele>1650</ele><speed>5.17</speed><time>2016-06-02T14:50:50Z</time><pdop>7.0</pdop><geoidheight>50.00</geoidheight><course>88.1</course><type>1</type></trkpt>
      <trkpt lat="38.47927505" lon="-1.99837598"><ele>1652</ele><speed>7.72</speed><time>2016-06-02T14:50:53Z</time><pdop>7.0</pdop><geoidheight>50.00</geoidheight><course>43.5</course><type>1</type></trkpt>
      <trkpt lat="38.47945066" lon="-1.99827643"><ele>1653</ele><speed>9.41</speed><time>2016-06-02T14:50:55Z</time><pdop>8.0</pdop><geoidheight>50.00</geoidheight><course>29.1</course><type>1</type></trkpt>
      <trkpt lat="38.479674" lon="-1.99839139"><ele>1655</ele><speed>11.61</speed><time>2016-06-02T14:50:57Z</time><pdop>7.0</pdop><geoidheight>50.00</geoidheight><course>350.4</course><type>1</type></trkpt>
      <trkpt lat="38.47982007" lon="-1.99844124"><ele>1656</ele><speed>13.90</speed><time>2016-06-02T14:50:58Z</time><pdop>7.0</pdop><geoidheight>50.00</geoidheight><course>342.0</course><type>1</type></trkpt>
      <trkpt lat="38.48002201" lon="-1.99863117"><ele>1660</ele><speed>14.60</speed><time>2016-06-02T14:51:00Z</time><pdop>9.0</pdop><geoidheight>50.00</geoidheight><course>328.4</course><type>1</type></trkpt>
      <trkpt lat="38.48020734" lon="-1.99891278"><ele>1660</ele><speed>15.44</speed><time>2016-06-02T14:51:02Z</time><pdop>10.0</pdop><geoidheight>50.00</geoidheight><course>314.6</course><type>1</type></trkpt>
      <trkpt lat="38.48039506" lon="-1.99917645"><ele>1662</ele><speed>14.07</speed><time>2016-06-02T14:51:04Z</time><pdop>11.0</pdop><geoidheight>50.00</geoidheight><course>310.9</course><type>1</type></trkpt>
      <trkpt lat="38.48037011" lon="-1.99948291"><ele>1666</ele><speed>12.23</speed><time>2016-06-02T14:51:06Z</time><pdop>9.0</pdop><geoidheight>50.00</geoidheight><course>282.0</course><type>1</type></trkpt>
      <trkpt lat="38.48032721" lon="-1.99968723"><ele>1665</ele><speed>13.99</speed><time>2016-06-02T14:51:07Z</time><pdop>8.0</pdop><geoidheight>50.00</geoidheight><course>270.8</course><type>1</type></trkpt>
      <trkpt lat="38.48024076" lon="-1.99985045"><ele>1666</ele><speed>14.00</speed><time>2016-06-02T14:51:08Z</time><pdop>8.0</pdop><geoidheight>50.00</geoidheight><course>256.2</course><type>1</type></trkpt>
      <trkpt lat="38.48011868" lon="-2.00004433"><ele>1670</ele><speed>10.62</speed><time>2016-06-02T14:51:10Z</time><pdop>11.0</pdop><geoidheight>50.00</geoidheight><course>241.5</course><type>1</type></trkpt>
      <trkpt lat="38.47986769" lon="-2.00004911"><ele>1675</ele><speed>6.03</speed><time>2016-06-02T14:51:13Z</time><pdop>9.0</pdop><geoidheight>50.00</geoidheight><course>192.1</course><type>1</type></trkpt>
      <trkpt lat="38.47980252" lon="-1.99978024"><ele>1680</ele><speed>5.63</speed><time>2016-06-02T14:51:16Z</time><pdop>5.0</pdop><geoidheight>50.00</geoidheight><course>68.8</course><type>1</type></trkpt>
      <trkpt lat="38.47991019" lon="-1.99967175"><ele>1681</ele><speed>8.25</speed><time>2016-06-02T14:51:18Z</time><pdop>4.0</pdop><geoidheight>50.00</geoidheight><course>32.2</course><type>1</type></trkpt>
      <trkpt lat="38.48005417" lon="-1.99961258"><ele>1681</ele><speed>8.51</speed><time>2016-06-02T14:51:20Z</time><pdop>6.0</pdop><geoidheight>50.00</geoidheight><course>14.9</course><type>1</type></trkpt>
      <trkpt lat="38.48027401" lon="-1.99965344"><ele>1681</ele><speed>10.69</speed><time>2016-06-02T14:51:22Z</time><pdop>8.0</pdop><geoidheight>50.00</geoidheight><course>356.3</course><type>1</type></trkpt>
      <trkpt lat="38.48040935" lon="-1.99973846"><ele>1682</ele><speed>13.55</speed><time>2016-06-02T14:51:23Z</time><pdop>6.0</pdop><geoidheight>50.00</geoidheight><course>339.5</course><type>1</type></trkpt>
      <trkpt lat="38.48053522" lon="-1.99982393"><ele>1680</ele><speed>13.99</speed><time>2016-06-02T14:51:24Z</time><pdop>5.0</pdop><geoidheight>50.00</geoidheight><course>335.3</course><type>1</type></trkpt>
      <trkpt lat="38.48064844" lon="-1.99990386"><ele>1680</ele><speed>14.13</speed><time>2016-06-02T14:51:25Z</time><pdop>5.0</pdop><geoidheight>50.00</geoidheight><course>333.2</course><type>1</type></trkpt>
      <trkpt lat="38.48076389" lon="-1.99998488"><ele>1681</ele><speed>14.35</speed><time>2016-06-02T14:51:26Z</time><pdop>5.0</pdop><geoidheight>50.00</geoidheight><course>330.6</course><type>1</type></trkpt>
      <trkpt lat="38.48088115" lon="-2.00009332"><ele>1682</ele><speed>14.72</speed><time>2016-06-02T14:51:27Z</time><pdop>5.0</pdop><geoidheight>50.00</geoidheight><course>327.2</course><type>1</type></trkpt>
      <trkpt lat="38.4809832" lon="-2.00020732"><ele>1683</ele><speed>14.69</speed><time>2016-06-02T14:51:28Z</time><pdop>6.0</pdop><geoidheight>50.00</geoidheight><course>325.4</course><type>1</type></trkpt>
      <trkpt lat="38.48108167" lon="-2.00027339"><ele>1685</ele><speed>13.54</speed><time>2016-06-02T14:51:29Z</time><pdop>5.0</pdop><geoidheight>50.00</geoidheight><course>328.9</course><type>1</type></trkpt>
      <trkpt lat="38.48125254" lon="-2.00035575"><ele>1685</ele><speed>10.96</speed><time>2016-06-02T14:51:31Z</time><pdop>4.0</pdop><geoidheight>50.00</geoidheight><course>349.3</course><type>1</type></trkpt>
      <trkpt lat="38.48134269" lon="-2.00035059"><ele>1684</ele><speed>9.19</speed><time>2016-06-02T14:51:32Z</time><pdop>4.0</pdop><geoidheight>50.00</geoidheight><course>6.4</course><type>1</type></trkpt>
      <trkpt lat="38.48140333" lon="-2.0002978"><ele>1683</ele><speed>7.91</speed><time>2016-06-02T14:51:33Z</time><pdop>3.0</pdop><geoidheight>50.00</geoidheight><course>26.4</course><type>1</type></trkpt>
      <trkpt lat="38.48145157" lon="-2.00024236"><ele>1682</ele><speed>7.27</speed><time>2016-06-02T14:51:34Z</time><pdop>4.0</pdop><geoidheight>50.00</geoidheight><course>43.4</course><type>1</type></trkpt>
      <trkpt lat="38.48148895" lon="-2.00017544"><ele>1682</ele><speed>7.03</speed><time>2016-06-02T14:51:35Z</time><pdop>3.0</pdop><geoidheight>50.00</geoidheight><course>56.8</course><type>1</type></trkpt>
      <trkpt lat="38.48151317" lon="-2.00010775"><ele>1685</ele><speed>6.33</speed><time>2016-06-02T14:51:36Z</time><pdop>3.0</pdop><geoidheight>50.00</geoidheight><course>69.9</course><type>1</type></trkpt>
      <trkpt lat="38.48151872" lon="-1.99999397"><ele>1685</ele><speed>5.29</speed><time>2016-06-02T14:51:38Z</time><pdop>5.0</pdop><geoidheight>50.00</geoidheight><course>87.4</course><type>1</type></trkpt>
      <trkpt lat="38.48144791" lon="-1.99996051"><ele>1684</ele><speed>5.58</speed><time>2016-06-02T14:51:39Z</time><pdop>3.0</pdop><geoidheight>50.00</geoidheight><course>137.9</course><type>1</type></trkpt>
      <trkpt lat="38.48137109" lon="-1.99988964"><ele>1686</ele><speed>5.33</speed><time>2016-06-02T14:51:41Z</time><pdop>6.0</pdop><geoidheight>50.00</geoidheight><course>155.1</course><type>1</type></trkpt>
      <trkpt lat="38.48125603" lon="-2.00000153"><ele>1686</ele><speed>7.29</speed><time>2016-06-02T14:51:43Z</time><pdop>7.0</pdop><geoidheight>50.00</geoidheight><course>204.6</course><type>1</type></trkpt>
      <trkpt lat="38.48116583" lon="-2.00024683"><ele>1685</ele><speed>9.15</speed><time>2016-06-02T14:51:45Z</time><pdop>6.0</pdop><geoidheight>50.00</geoidheight><course>238.0</course><type>1</type></trkpt>
      <trkpt lat="38.48120244" lon="-2.00049234"><ele>1684</ele><speed>13.18</speed><time>2016-06-02T14:51:46Z</time><pdop>5.0</pdop><geoidheight>50.00</geoidheight><course>272.4</course><type>1</type></trkpt>
      <trkpt lat="38.48123992" lon="-2.00066262"><ele>1684</ele><speed>15.14</speed><time>2016-06-02T14:51:47Z</time><pdop>4.0</pdop><geoidheight>50.00</geoidheight><course>283.4</course><type>1</type></trkpt>
      <trkpt lat="38.48128308" lon="-2.00084597"><ele>1683</ele><speed>15.74</speed><time>2016-06-02T14:51:48Z</time><pdop>4.0</pdop><geoidheight>50.00</geoidheight><course>285.9</course><type>1</type></trkpt>
      <trkpt lat="38.48139956" lon="-2.00098816"><ele>1682</ele><speed>16.37</speed><time>2016-06-02T14:51:49Z</time><pdop>3.0</pdop><geoidheight>50.00</geoidheight><course>307.6</course><type>1</type></trkpt>
      <trkpt lat="38.48149799" lon="-2.00111591"><ele>1681</ele><speed>15.51</speed><time>2016-06-02T14:51:50Z</time><pdop>3.0</pdop><geoidheight>50.00</geoidheight><course>311.7</course><type>1</type></trkpt>
      <trkpt lat="38.481583" lon="-2.00123849"><ele>1682</ele><speed>14.69</speed><time>2016-06-02T14:51:51Z</time><pdop>4.0</pdop><geoidheight>50.00</geoidheight><course>312.5</course><type>1</type></trkpt>
      <trkpt lat="38.4816788" lon="-2.00130196"><ele>1683</ele><speed>12.48</speed><time>2016-06-02T14:51:52Z</time><pdop>6.0</pdop><geoidheight>50.00</geoidheight><course>325.1</course><type>1</type></trkpt>
      <trkpt lat="38.48188833" lon="-2.00130632"><ele>1682</ele><speed>10.79</speed><time>2016-06-02T14:51:54Z</time><pdop>4.0</pdop><geoidheight>50.00</geoidheight><course>353.2</course><type>1</type></trkpt>
      <trkpt lat="38.48196905" lon="-2.00130017"><ele>1681</ele><speed>10.79</speed><time>2016-06-02T14:51:55Z</time><pdop>4.0</pdop><geoidheight>50.00</geoidheight><course>2.8</course><type>1</type></trkpt>
      <trkpt lat="38.48206885" lon="-2.0012779"><ele>1681</ele><speed>10.55</speed><time>2016-06-02T14:51:56Z</time><pdop>3.0</pdop><geoidheight>50.00</geoidheight><course>9.5</course><type>1</type></trkpt>
      <trkpt lat="38.48215379" lon="-2.00123128"><ele>1681</ele><speed>9.99</speed><time>2016-06-02T14:51:57Z</time><pdop>3.0</pdop><geoidheight>50.00</geoidheight><course>20.8</course><type>1</type></trkpt>
      <trkpt lat="38.48223838" lon="-2.00119616"><ele>1682</ele><speed>9.80</speed><time>2016-06-02T14:51:58Z</time><pdop>3.0</pdop><geoidheight>50.00</geoidheight><course>23.4</course><type>1</type></trkpt>
      <trkpt lat="38.4822813" lon="-2.00112788"><ele>1683</ele><speed>7.72</speed><time>2016-06-02T14:51:59Z</time><pdop>3.0</pdop><geoidheight>50.00</geoidheight><course>44.6</course><type>1</type></trkpt>
      <trkpt lat="38.48234345" lon="-2.00103411"><ele>1684</ele><speed>5.14</speed><time>2016-06-02T14:52:01Z</time><pdop>3.0</pdop><geoidheight>50.00</geoidheight><course>51.9</course><type>1</type></trkpt>
      <trkpt lat="38.4823994" lon="-2.00089729"><ele>1681</ele><speed>7.08</speed><time>2016-06-02T14:52:03Z</time><pdop>3.0</pdop><geoidheight>50.00</geoidheight><course>60.3</course><type>1</type></trkpt>
      <trkpt lat="38.48244247" lon="-2.00079938"><ele>1679</ele><speed>9.41</speed><time>2016-06-02T14:52:04Z</time><pdop>3.0</pdop><geoidheight>50.00</geoidheight><course>62.6</course><type>1</type></trkpt>
      <trkpt lat="38.48248016" lon="-2.00069571"><ele>1679</ele><speed>9.74</speed><time>2016-06-02T14:52:05Z</time><pdop>3.0</pdop><geoidheight>50.00</geoidheight><course>65.4</course><type>1</type></trkpt>
      <trkpt lat="38.48250169" lon="-2.00060312"><ele>1680</ele><speed>8.61</speed><time>2016-06-02T14:52:06Z</time><pdop>3.0</pdop><geoidheight>50.00</geoidheight><course>72.2</course><type>1</type></trkpt>
      <trkpt lat="38.48251178" lon="-2.0005215"><ele>1682</ele><speed>7.18</speed><time>2016-06-02T14:52:07Z</time><pdop>3.0</pdop><geoidheight>50.00</geoidheight><course>78.6</course><type>1</type></trkpt>
      <trkpt lat="38.48252156" lon="-2.00045349"><ele>1682</ele><speed>6.14</speed><time>2016-06-02T14:52:08Z</time><pdop>3.0</pdop><geoidheight>50.00</geoidheight><course>81.9</course><type>1</type></trkpt>
      <trkpt lat="38.48253362" lon="-2.00038293"><ele>1682</ele><speed>5.92</speed><time>2016-06-02T14:52:09Z</time><pdop>3.0</pdop><geoidheight>50.00</geoidheight><course>81.1</course><type>1</type></trkpt>
      <trkpt lat="38.48254289" lon="-2.00031217"><ele>1681</ele><speed>6.45</speed><time>2016-06-02T14:52:10Z</time><pdop>3.0</pdop><geoidheight>50.00</geoidheight><course>81.5</course><type>1</type></trkpt>
      <trkpt lat="38.48254986" lon="-2.00022698"><ele>1679</ele><speed>7.12</speed><time>2016-06-02T14:52:11Z</time><pdop>3.0</pdop><geoidheight>50.00</geoidheight><course>85.3</course><type>1</type></trkpt>
      <trkpt lat="38.48254845" lon="-2.00014212"><ele>1678</ele><speed>7.66</speed><time>2016-06-02T14:52:12Z</time><pdop>3.0</pdop><geoidheight>50.00</geoidheight><course>89.4</course><type>1</type></trkpt>
      <trkpt lat="38.48254539" lon="-2.00006135"><ele>1679</ele><speed>7.01</speed><time>2016-06-02T14:52:13Z</time><pdop>3.0</pdop><geoidheight>50.00</geoidheight><course>92.7</course><type>1</type></trkpt>
      <trkpt lat="38.48254289" lon="-1.99998689"><ele>1679</ele><speed>6.66</speed><time>2016-06-02T14:52:14Z</time><pdop>3.0</pdop><geoidheight>50.00</geoidheight><course>91.5</course><type>1</type></trkpt>
      <trkpt lat="38.48254589" lon="-1.99990906"><ele>1680</ele><speed>6.33</speed><time>2016-06-02T14:52:15Z</time><pdop>3.0</pdop><geoidheight>50.00</geoidheight><course>87.9</course><type>1</type></trkpt>
      <trkpt lat="38.48256181" lon="-1.99983868"><ele>1681</ele><speed>6.03</speed><time>2016-06-02T14:52:16Z</time><pdop>3.0</pdop><geoidheight>50.00</geoidheight><course>82.7</course><type>1</type></trkpt>
      <trkpt lat="38.48256554" lon="-1.9997669"><ele>1681</ele><speed>6.35</speed><time>2016-06-02T14:52:17Z</time><pdop>3.0</pdop><geoidheight>50.00</geoidheight><course>80.4</course><type>1</type></trkpt>
      <trkpt lat="38.48258188" lon="-1.99969672"><ele>1682</ele><speed>6.50</speed><time>2016-06-02T14:52:18Z</time><pdop>3.0</pdop><geoidheight>50.00</geoidheight><course>74.4</course><type>1</type></trkpt>
      <trkpt lat="38.48260708" lon="-1.99962357"><ele>1682</ele><speed>6.95</speed><time>2016-06-02T14:52:19Z</time><pdop>3.0</pdop><geoidheight>50.00</geoidheight><course>67.0</course><type>1</type></trkpt>
      <trkpt lat="38.48263976" lon="-1.9995458"><ele>1683</ele><speed>7.35</speed><time>2016-06-02T14:52:20Z</time><pdop>3.0</pdop><geoidheight>50.00</geoidheight><course>62.9</course><type>1</type></trkpt>
      <trkpt lat="38.48266766" lon="-1.99946732"><ele>1684</ele><speed>7.26</speed><time>2016-06-02T14:52:21Z</time><pdop>3.0</pdop><geoidheight>50.00</geoidheight><course>64.2</course><type>1</type></trkpt>
      <trkpt lat="38.48269153" lon="-1.99939884"><ele>1684</ele><speed>6.90</speed><time>2016-06-02T14:52:22Z</time><pdop>3.0</pdop><geoidheight>50.00</geoidheight><course>67.0</course><type>1</type></trkpt>
      <trkpt lat="38.48271331" lon="-1.99933083"><ele>1685</ele><speed>6.57</speed><time>2016-06-02T14:52:23Z</time><pdop>3.0</pdop><geoidheight>50.00</geoidheight><course>69.2</course><type>1</type></trkpt>
      <trkpt lat="38.48275079" lon="-1.99920091"><ele>1687</ele><speed>6.61</speed><time>2016-06-02T14:52:25Z</time><pdop>3.0</pdop><geoidheight>50.00</geoidheight><course>72.2</course><type>1</type></trkpt>
      <trkpt lat="38.48277584" lon="-1.99912276"><ele>1688</ele><speed>6.82</speed><time>2016-06-02T14:52:26Z</time><pdop>3.0</pdop><geoidheight>50.00</geoidheight><course>69.2</course><type>1</type></trkpt>
      <trkpt lat="38.4828043" lon="-1.99904193"><ele>1690</ele><speed>7.86</speed><time>2016-06-02T14:52:27Z</time><pdop>3.0</pdop><geoidheight>50.00</geoidheight><course>63.6</course><type>1</type></trkpt>
      <trkpt lat="38.48285047" lon="-1.99896602"><ele>1691</ele><speed>9.01</speed><time>2016-06-02T14:52:28Z</time><pdop>3.0</pdop><geoidheight>50.00</geoidheight><course>55.2</course><type>1</type></trkpt>
      <trkpt lat="38.48290822" lon="-1.99888705"><ele>1692</ele><speed>9.45</speed><time>2016-06-02T14:52:29Z</time><pdop>3.0</pdop><geoidheight>50.00</geoidheight><course>47.7</course><type>1</type></trkpt>
      <trkpt lat="38.48298181" lon="-1.99881329"><ele>1694</ele><speed>10.00</speed><time>2016-06-02T14:52:30Z</time><pdop>3.0</pdop><geoidheight>50.00</geoidheight><course>39.4</course><type>1</type></trkpt>
      <trkpt lat="38.48305381" lon="-1.99873735"><ele>1695</ele><speed>10.00</speed><time>2016-06-02T14:52:31Z</time><pdop>3.0</pdop><geoidheight>50.00</geoidheight><course>38.1</course><type>1</type></trkpt>
      <trkpt lat="38.48314951" lon="-1.99869873"><ele>1697</ele><speed>10.06</speed><time>2016-06-02T14:52:32Z</time><pdop>3.0</pdop><geoidheight>50.00</geoidheight><course>25.7</course><type>1</type></trkpt>
      <trkpt lat="38.48323925" lon="-1.99865799"><ele>1698</ele><speed>10.29</speed><time>2016-06-02T14:52:33Z</time><pdop>3.0</pdop><geoidheight>50.00</geoidheight><course>19.3</course><type>1</type></trkpt>
      <trkpt lat="38.48332817" lon="-1.99862167"><ele>1700</ele><speed>10.10</speed><time>2016-06-02T14:52:34Z</time><pdop>4.0</pdop><geoidheight>50.00</geoidheight><course>16.5</course><type>1</type></trkpt>
      <trkpt lat="38.48342433" lon="-1.99862552"><ele>1699</ele><speed>10.07</speed><time>2016-06-02T14:52:35Z</time><pdop>5.0</pdop><geoidheight>50.00</geoidheight><course>5.8</course><type>1</type></trkpt>
      <trkpt lat="38.48355406" lon="-1.99863418"><ele>1699</ele><speed>11.70</speed><time>2016-06-02T14:52:36Z</time><pdop>6.0</pdop><geoidheight>50.00</geoidheight><course>359.2</course><type>1</type></trkpt>
      <trkpt lat="38.48368062" lon="-1.99867273"><ele>1698</ele><speed>12.69</speed><time>2016-06-02T14:52:37Z</time><pdop>7.0</pdop><geoidheight>50.00</geoidheight><course>353.6</course><type>1</type></trkpt>
      <trkpt lat="38.48382828" lon="-1.99877722"><ele>1697</ele><speed>14.44</speed><time>2016-06-02T14:52:38Z</time><pdop>8.0</pdop><geoidheight>50.00</geoidheight><course>342.4</course><type>1</type></trkpt>
      <trkpt lat="38.48382347" lon="-1.99916554"><ele>1702</ele><speed>12.06</speed><time>2016-06-02T14:52:40Z</time><pdop>5.0</pdop><geoidheight>50.00</geoidheight><course>280.1</course><type>1</type></trkpt>
      <trkpt lat="38.48384572" lon="-1.99932432"><ele>1703</ele><speed>11.69</speed><time>2016-06-02T14:52:41Z</time><pdop>5.0</pdop><geoidheight>50.00</geoidheight><course>277.0</course><type>1</type></trkpt>
      <trkpt lat="38.48381655" lon="-1.99948446"><ele>1703</ele><speed>11.51</speed><time>2016-06-02T14:52:42Z</time><pdop>5.0</pdop><geoidheight>50.00</geoidheight><course>266.9</course><type>1</type></trkpt>
      <trkpt lat="38.48376347" lon="-1.99958877"><ele>1704</ele><speed>9.82</speed><time>2016-06-02T14:52:43Z</time><pdop>5.0</pdop><geoidheight>50.00</geoidheight><course>257.1</course><type>1</type></trkpt>
      <trkpt lat="38.4836531" lon="-1.99971624"><ele>1705</ele><speed>7.62</speed><time>2016-06-02T14:52:45Z</time><pdop>5.0</pdop><geoidheight>50.00</geoidheight><course>233.2</course><type>1</type></trkpt>
      <trkpt lat="38.48356522" lon="-1.99976076"><ele>1705</ele><speed>8.68</speed><time>2016-06-02T14:52:46Z</time><pdop>4.0</pdop><geoidheight>50.00</geoidheight><course>222.0</course><type>1</type></trkpt>
      <trkpt lat="38.48351014" lon="-1.99984592"><ele>1707</ele><speed>8.61</speed><time>2016-06-02T14:52:47Z</time><pdop>4.0</pdop><geoidheight>50.00</geoidheight><course>221.9</course><type>1</type></trkpt>
      <trkpt lat="38.48345046" lon="-1.99991325"><ele>1708</ele><speed>8.50</speed><time>2016-06-02T14:52:48Z</time><pdop>4.0</pdop><geoidheight>50.00</geoidheight><course>221.5</course><type>1</type></trkpt>
      <trkpt lat="38.48337418" lon="-1.99996225"><ele>1709</ele><speed>8.67</speed><time>2016-06-02T14:52:49Z</time><pdop>4.0</pdop><geoidheight>50.00</geoidheight><course>217.7</course><type>1</type></trkpt>
      <trkpt lat="38.48330863" lon="-2.00002075"><ele>1710</ele><speed>8.59</speed><time>2016-06-02T14:52:50Z</time><pdop>4.0</pdop><geoidheight>50.00</geoidheight><course>215.6</course><type>1</type></trkpt>
      <trkpt lat="38.48324425" lon="-2.00007665"><ele>1711</ele><speed>8.42</speed><time>2016-06-02T14:52:51Z</time><pdop>4.0</pdop><geoidheight>50.00</geoidheight><course>212.4</course><type>1</type></trkpt>
      <trkpt lat="38.48317368" lon="-2.00011963"><ele>1712</ele><speed>8.15</speed><time>2016-06-02T14:52:52Z</time><pdop>4.0</pdop><geoidheight>50.00</geoidheight><course>207.8</course><type>1</type></trkpt>
      <trkpt lat="38.48304829" lon="-2.00019123"><ele>1713</ele><speed>7.49</speed><time>2016-06-02T14:52:54Z</time><pdop>7.0</pdop><geoidheight>50.00</geoidheight><course>204.9</course><type>1</type></trkpt>
      <trkpt lat="38.48297985" lon="-2.00009661"><ele>1712</ele><speed>4.36</speed><time>2016-06-02T14:52:56Z</time><pdop>4.0</pdop><geoidheight>50.00</geoidheight><course>141.7</course><type>1</type></trkpt>
      <trkpt lat="38.48290723" lon="-1.99999058"><ele>1712</ele><speed>4.82</speed><time>2016-06-02T14:52:58Z</time><pdop>6.0</pdop><geoidheight>50.00</geoidheight><course>127.3</course><type>1</type></trkpt>
      <trkpt lat="38.48285448" lon="-1.9998443"><ele>1712</ele><speed>6.89</speed><time>2016-06-02T14:53:00Z</time><pdop>4.0</pdop><geoidheight>50.00</geoidheight><course>109.3</course><type>1</type></trkpt>
      <trkpt lat="38.48285333" lon="-1.99974152"><ele>1713</ele><speed>7.47</speed><time>2016-06-02T14:53:01Z</time><pdop>3.0</pdop><geoidheight>50.00</geoidheight><course>90.9</course><type>1</type></trkpt>
      <trkpt lat="38.48286159" lon="-1.9996584"><ele>1713</ele><speed>7.92</speed><time>2016-06-02T14:53:02Z</time><pdop>3.0</pdop><geoidheight>50.00</geoidheight><course>79.2</course><type>1</type></trkpt>
      <trkpt lat="38.48288769" lon="-1.99956921"><ele>1715</ele><speed>8.26</speed><time>2016-06-02T14:53:03Z</time><pdop>3.0</pdop><geoidheight>50.00</geoidheight><course>70.2</course><type>1</type></trkpt>
      <trkpt lat="38.4829214" lon="-1.99948336"><ele>1716</ele><speed>8.08</speed><time>2016-06-02T14:53:04Z</time><pdop>3.0</pdop><geoidheight>50.00</geoidheight><course>64.2</course><type>1</type></trkpt>
      <trkpt lat="38.48295398" lon="-1.99940559"><ele>1717</ele><speed>7.92</speed><time>2016-06-02T14:53:05Z</time><pdop>3.0</pdop><geoidheight>50.00</geoidheight><course>63.9</course><type>1</type></trkpt>
      <trkpt lat="38.48298801" lon="-1.99931856"><ele>1719</ele><speed>8.40</speed><time>2016-06-02T14:53:06Z</time><pdop>3.0</pdop><geoidheight>50.00</geoidheight><course>66.1</course><type>1</type></trkpt>
      <trkpt lat="38.48300935" lon="-1.99923916"><ele>1721</ele><speed>7.95</speed><time>2016-06-02T14:53:07Z</time><pdop>3.0</pdop><geoidheight>50.00</geoidheight><course>67.9</course><type>1</type></trkpt>
      <trkpt lat="38.48304177" lon="-1.99915648"><ele>1724</ele><speed>7.72</speed><time>2016-06-02T14:53:08Z</time><pdop>3.0</pdop><geoidheight>50.00</geoidheight><course>65.4</course><type>1</type></trkpt>
      <trkpt lat="38.48308511" lon="-1.99909059"><ele>1725</ele><speed>7.59</speed><time>2016-06-02T14:53:09Z</time><pdop>3.0</pdop><geoidheight>50.00</geoidheight><course>55.9</course><type>1</type></trkpt>
      <trkpt lat="38.48313831" lon="-1.99902278"><ele>1727</ele><speed>7.93</speed><time>2016-06-02T14:53:10Z</time><pdop>3.0</pdop><geoidheight>50.00</geoidheight><course>48.6</course><type>1</type></trkpt>
      <trkpt lat="38.48318728" lon="-1.99895408"><ele>1729</ele><speed>7.66</speed><time>2016-06-02T14:53:11Z</time><pdop>3.0</pdop><geoidheight>50.00</geoidheight><course>49.7</course><type>1</type></trkpt>
      <trkpt lat="38.48321491" lon="-1.99888768"><ele>1729</ele><speed>6.69</speed><time>2016-06-02T14:53:12Z</time><pdop>3.0</pdop><geoidheight>50.00</geoidheight><course>62.9</course><type>1</type></trkpt>
      <trkpt lat="38.48323871" lon="-1.99881235"><ele>1730</ele><speed>6.73</speed><time>2016-06-02T14:53:13Z</time><pdop>3.0</pdop><geoidheight>50.00</geoidheight><course>69.0</course><type>1</type></trkpt>
      <trkpt lat="38.48319378" lon="-1.99876007"><ele>1729</ele><speed>5.72</speed><time>2016-06-02T14:53:14Z</time><pdop>3.0</pdop><geoidheight>50.00</geoidheight><course>114.2</course><type>1</type></trkpt>
      <trkpt lat="38.48314678" lon="-1.99871411"><ele>1729</ele><speed>5.87</speed><time>2016-06-02T14:53:15Z</time><pdop>3.0</pdop><geoidheight>50.00</geoidheight><course>140.0</course><type>1</type></trkpt>
      <trkpt lat="38.48306307" lon="-1.99865763"><ele>1731</ele><speed>5.45</speed><time>2016-06-02T14:53:17Z</time><pdop>5.0</pdop><geoidheight>50.00</geoidheight><course>163.8</course><type>1</type></trkpt>
      <trkpt lat="38.48298047" lon="-1.99870561"><ele>1730</ele><speed>7.33</speed><time>2016-06-02T14:53:18Z</time><pdop>5.0</pdop><geoidheight>50.00</geoidheight><course>190.4</course><type>1</type></trkpt>
      <trkpt lat="38.48287573" lon="-1.99877654"><ele>1730</ele><speed>9.69</speed><time>2016-06-02T14:53:19Z</time><pdop>6.0</pdop><geoidheight>50.00</geoidheight><course>200.4</course><type>1</type></trkpt>
      <trkpt lat="38.48286427" lon="-1.99892804"><ele>1729</ele><speed>8.99</speed><time>2016-06-02T14:53:20Z</time><pdop>6.0</pdop><geoidheight>50.00</geoidheight><course>224.1</course><type>1</type></trkpt>
      <trkpt lat="38.48289557" lon="-1.99911238"><ele>1729</ele><speed>9.93</speed><time>2016-06-02T14:53:21Z</time><pdop>5.0</pdop><geoidheight>50.00</geoidheight><course>256.1</course><type>1</type></trkpt>
      <trkpt lat="38.48290607" lon="-1.99927028"><ele>1731</ele><speed>11.51</speed><time>2016-06-02T14:53:22Z</time><pdop>4.0</pdop><geoidheight>50.00</geoidheight><course>269.2</course><type>1</type></trkpt>
      <trkpt lat="38.48294646" lon="-1.99940618"><ele>1731</ele><speed>11.86</speed><time>2016-06-02T14:53:23Z</time><pdop>4.0</pdop><geoidheight>50.00</geoidheight><course>283.5</course><type>1</type></trkpt>
      <trkpt lat="38.48296781" lon="-1.99954028"><ele>1731</ele><speed>11.51</speed><time>2016-06-02T14:53:24Z</time><pdop>5.0</pdop><geoidheight>50.00</geoidheight><course>285.2</course><type>1</type></trkpt>
      <trkpt lat="38.48301346" lon="-1.99965335"><ele>1732</ele><speed>10.68</speed><time>2016-06-02T14:53:25Z</time><pdop>6.0</pdop><geoidheight>50.00</geoidheight><course>293.1</course><type>1</type></trkpt>
      <trkpt lat="38.4831001" lon="-1.99977977"><ele>1733</ele><speed>12.38</speed><time>2016-06-02T14:53:26Z</time><pdop>6.0</pdop><geoidheight>50.00</geoidheight><course>302.2</course><type>1</type></trkpt>
      <trkpt lat="38.48323102" lon="-1.99977593"><ele>1733</ele><speed>10.54</speed><time>2016-06-02T14:53:27Z</time><pdop>7.0</pdop><geoidheight>50.00</geoidheight><course>330.3</course><type>1</type></trkpt>
      <trkpt lat="38.48336233" lon="-1.99977266"><ele>1734</ele><speed>10.92</speed><time>2016-06-02T14:53:28Z</time><pdop>7.0</pdop><geoidheight>50.00</geoidheight><course>349.1</course><type>1</type></trkpt>
      <trkpt lat="38.48350721" lon="-1.99975596"><ele>1735</ele><speed>11.76</speed><time>2016-06-02T14:53:29Z</time><pdop>7.0</pdop><geoidheight>50.00</geoidheight><course>3.0</course><type>1</type></trkpt>
      <trkpt lat="38.48360942" lon="-1.99968577"><ele>1735</ele><speed>10.44</speed><time>2016-06-02T14:53:30Z</time><pdop>5.0</pdop><geoidheight>50.00</geoidheight><course>20.1</course><type>1</type></trkpt>
      <trkpt lat="38.48369408" lon="-1.99961906"><ele>1737</ele><speed>9.30</speed><time>2016-06-02T14:53:31Z</time><pdop>5.0</pdop><geoidheight>50.00</geoidheight><course>33.6</course><type>1</type></trkpt>
      <trkpt lat="38.48376605" lon="-1.99948239"><ele>1738</ele><speed>7.29</speed><time>2016-06-02T14:53:33Z</time><pdop>5.0</pdop><geoidheight>50.00</geoidheight><course>64.8</course><type>1</type></trkpt>
      <trkpt lat="38.48375526" lon="-1.99936539"><ele>1738</ele><speed>5.06</speed><time>2016-06-02T14:53:35Z</time><pdop>4.0</pdop><geoidheight>50.00</geoidheight><course>117.0</course><type>1</type></trkpt>
      <trkpt lat="38.48366382" lon="-1.9992884"><ele>1738</ele><speed>6.19</speed><time>2016-06-02T14:53:37Z</time><pdop>4.0</pdop><geoidheight>50.00</geoidheight><course>146.6</course><type>1</type></trkpt>
      <trkpt lat="38.48356544" lon="-1.9992477"><ele>1739</ele><speed>6.57</speed><time>2016-06-02T14:53:39Z</time><pdop>4.0</pdop><geoidheight>50.00</geoidheight><course>169.6</course><type>1</type></trkpt>
      <trkpt lat="38.48343616" lon="-1.99930869"><ele>1741</ele><speed>8.08</speed><time>2016-06-02T14:53:41Z</time><pdop>5.0</pdop><geoidheight>50.00</geoidheight><course>202.2</course><type>1</type></trkpt>
      <trkpt lat="38.48334549" lon="-1.99936974"><ele>1740</ele><speed>8.91</speed><time>2016-06-02T14:53:42Z</time><pdop>4.0</pdop><geoidheight>50.00</geoidheight><course>214.9</course><type>1</type></trkpt>
      <trkpt lat="38.48328701" lon="-1.99944189"><ele>1742</ele><speed>9.02</speed><time>2016-06-02T14:53:43Z</time><pdop>3.0</pdop><geoidheight>50.00</geoidheight><course>227.3</course><type>1</type></trkpt>
      <trkpt lat="38.48324838" lon="-1.9995468"><ele>1743</ele><speed>9.75</speed><time>2016-06-02T14:53:44Z</time><pdop>3.0</pdop><geoidheight>50.00</geoidheight><course>244.8</course><type>1</type></trkpt>
      <trkpt lat="38.48324158" lon="-1.99966856"><ele>1742</ele><speed>11.11</speed><time>2016-06-02T14:53:45Z</time><pdop>3.0</pdop><geoidheight>50.00</geoidheight><course>259.9</course><type>1</type></trkpt>
      <trkpt lat="38.48325125" lon="-1.99982498"><ele>1743</ele><speed>12.44</speed><time>2016-06-02T14:53:46Z</time><pdop>3.0</pdop><geoidheight>50.00</geoidheight><course>269.5</course><type>1</type></trkpt>
      <trkpt lat="38.4832671" lon="-1.9999808"><ele>1743</ele><speed>13.40</speed><time>2016-06-02T14:53:47Z</time><pdop>3.0</pdop><geoidheight>50.00</geoidheight><course>276.6</course><type>1</type></trkpt>
      <trkpt lat="38.48330939" lon="-2.00013793"><ele>1744</ele><speed>14.34</speed><time>2016-06-02T14:53:48Z</time><pdop>3.0</pdop><geoidheight>50.00</geoidheight><course>286.0</course><type>1</type></trkpt>
      <trkpt lat="38.48335566" lon="-2.00028831"><ele>1744</ele><speed>14.26</speed><time>2016-06-02T14:53:49Z</time><pdop>3.0</pdop><geoidheight>50.00</geoidheight><course>289.3</course><type>1</type></trkpt>
      <trkpt lat="38.48341531" lon="-2.00044378"><ele>1744</ele><speed>14.49</speed><time>2016-06-02T14:53:50Z</time><pdop>4.0</pdop><geoidheight>50.00</geoidheight><course>293.9</course><type>1</type></trkpt>
      <trkpt lat="38.48349354" lon="-2.00055078"><ele>1743</ele><speed>12.86</speed><time>2016-06-02T14:53:51Z</time><pdop>6.0</pdop><geoidheight>50.00</geoidheight><course>303.1</course><type>1</type></trkpt>
      <trkpt lat="38.48363867" lon="-2.00066059"><ele>1743</ele><speed>9.48</speed><time>2016-06-02T14:53:53Z</time><pdop>9.0</pdop><geoidheight>50.00</geoidheight><course>322.8</course><type>1</type></trkpt>
      <trkpt lat="38.48380557" lon="-2.00072357"><ele>1745</ele><speed>11.91</speed><time>2016-06-02T14:53:54Z</time><pdop>9.0</pdop><geoidheight>50.00</geoidheight><course>333.5</course><type>1</type></trkpt>
      <trkpt lat="38.48408215" lon="-2.00073159"><ele>1747</ele><speed>11.41</speed><time>2016-06-02T14:53:56Z</time><pdop>5.0</pdop><geoidheight>50.00</geoidheight><course>3.8</course><type>1</type></trkpt>
      <trkpt lat="38.48426746" lon="-2.00067959"><ele>1751</ele><speed>9.94</speed><time>2016-06-02T14:53:58Z</time><pdop>6.0</pdop><geoidheight>50.00</geoidheight><course>16.1</course><type>1</type></trkpt>
      <trkpt lat="38.48423461" lon="-2.00043116"><ele>1753</ele><speed>7.28</speed><time>2016-06-02T14:54:01Z</time><pdop>5.0</pdop><geoidheight>50.00</geoidheight><course>117.6</course><type>1</type></trkpt>
      <trkpt lat="38.48414963" lon="-2.00031695"><ele>1753</ele><speed>5.81</speed><time>2016-06-02T14:54:03Z</time><pdop>7.0</pdop><geoidheight>50.00</geoidheight><course>142.3</course><type>1</type></trkpt>
      <trkpt lat="38.48401225" lon="-2.00032661"><ele>1753</ele><speed>6.20</speed><time>2016-06-02T14:54:05Z</time><pdop>8.0</pdop><geoidheight>50.00</geoidheight><course>173.8</course><type>1</type></trkpt>
      <trkpt lat="38.48394415" lon="-2.00068528"><ele>1753</ele><speed>8.71</speed><time>2016-06-02T14:54:08Z</time><pdop>13.0</pdop><geoidheight>50.00</geoidheight><course>246.2</course><type>1</type></trkpt>
      <trkpt lat="38.48403704" lon="-2.00092528"><ele>1753</ele><speed>12.62</speed><time>2016-06-02T14:54:09Z</time><pdop>10.0</pdop><geoidheight>50.00</geoidheight><course>276.5</course><type>1</type></trkpt>
      <trkpt lat="38.48416947" lon="-2.00123632"><ele>1756</ele><speed>13.39</speed><time>2016-06-02T14:54:11Z</time><pdop>11.0</pdop><geoidheight>50.00</geoidheight><course>291.8</course><type>1</type></trkpt>
      <trkpt lat="38.48440616" lon="-2.00145271"><ele>1757</ele><speed>11.69</speed><time>2016-06-02T14:54:13Z</time><pdop>13.0</pdop><geoidheight>50.00</geoidheight><course>315.9</course><type>1</type></trkpt>
      <trkpt lat="38.48466585" lon="-2.00152095"><ele>1761</ele><speed>10.98</speed><time>2016-06-02T14:54:15Z</time><pdop>10.0</pdop><geoidheight>50.00</geoidheight><course>346.4</course><type>1</type></trkpt>
      <trkpt lat="38.48483787" lon="-2.00148369"><ele>1763</ele><speed>12.46</speed><time>2016-06-02T14:54:16Z</time><pdop>7.0</pdop><geoidheight>50.00</geoidheight><course>8.7</course><type>1</type></trkpt>
      <trkpt lat="38.48504174" lon="-2.00139816"><ele>1765</ele><speed>10.55</speed><time>2016-06-02T14:54:18Z</time><pdop>6.0</pdop><geoidheight>50.00</geoidheight><course>19.7</course><type>1</type></trkpt>
      <trkpt lat="38.4851432" lon="-2.00126002"><ele>1767</ele><speed>7.80</speed><time>2016-06-02T14:54:20Z</time><pdop>5.0</pdop><geoidheight>50.00</geoidheight><course>49.8</course><type>1</type></trkpt>
      <trkpt lat="38.48518725" lon="-2.00109362"><ele>1764</ele><speed>6.05</speed><time>2016-06-02T14:54:22Z</time><pdop>4.0</pdop><geoidheight>50.00</geoidheight><course>80.6</course><type>1</type></trkpt>
      <trkpt lat="38.48515707" lon="-2.00098431"><ele>1764</ele><speed>4.97</speed><time>2016-06-02T14:54:24Z</time><pdop>5.0</pdop><geoidheight>50.00</geoidheight><course>108.0</course><type>1</type></trkpt>
      <trkpt lat="38.48494003" lon="-2.00101273"><ele>1763</ele><speed>7.01</speed><time>2016-06-02T14:54:28Z</time><pdop>9.0</pdop><geoidheight>50.00</geoidheight><course>192.9</course><type>1</type></trkpt>
      <trkpt lat="38.48478368" lon="-2.00119426"><ele>1762</ele><speed>9.27</speed><time>2016-06-02T14:54:30Z</time><pdop>5.0</pdop><geoidheight>50.00</geoidheight><course>230.3</course><type>1</type></trkpt>
      <trkpt lat="38.48470428" lon="-2.00139879"><ele>1764</ele><speed>10.05</speed><time>2016-06-02T14:54:32Z</time><pdop>6.0</pdop><geoidheight>50.00</geoidheight><course>249.8</course><type>1</type></trkpt>
      <trkpt lat="38.484695" lon="-2.00169407"><ele>1763</ele><speed>13.60</speed><time>2016-06-02T14:54:34Z</time><pdop>6.0</pdop><geoidheight>50.00</geoidheight><course>269.6</course><type>1</type></trkpt>
      <trkpt lat="38.48469243" lon="-2.00185611"><ele>1763</ele><speed>13.98</speed><time>2016-06-02T14:54:35Z</time><pdop>5.0</pdop><geoidheight>50.00</geoidheight><course>272.3</course><type>1</type></trkpt>
      <trkpt lat="38.48472597" lon="-2.00199609"><ele>1763</ele><speed>13.84</speed><time>2016-06-02T14:54:36Z</time><pdop>5.0</pdop><geoidheight>50.00</geoidheight><course>279.2</course><type>1</type></trkpt>
      <trkpt lat="38.48477886" lon="-2.00211694"><ele>1764</ele><speed>13.12</speed><time>2016-06-02T14:54:37Z</time><pdop>6.0</pdop><geoidheight>50.00</geoidheight><course>286.0</course><type>1</type></trkpt>
      <trkpt lat="38.48486097" lon="-2.00223042"><ele>1767</ele><speed>12.33</speed><time>2016-06-02T14:54:38Z</time><pdop>6.0</pdop><geoidheight>50.00</geoidheight><course>295.9</course><type>1</type></trkpt>
      <trkpt lat="38.48494802" lon="-2.00234432"><ele>1767</ele><speed>12.12</speed><time>2016-06-02T14:54:39Z</time><pdop>6.0</pdop><geoidheight>50.00</geoidheight><course>302.9</course><type>1</type></trkpt>
      <trkpt lat="38.48510288" lon="-2.00255531"><ele>1766</ele><speed>11.57</speed><time>2016-06-02T14:54:41Z</time><pdop>10.0</pdop><geoidheight>50.00</geoidheight><course>310.2</course><type>1</type></trkpt>
      <trkpt lat="38.48529611" lon="-2.00262673"><ele>1766</ele><speed>13.94</speed><time>2016-06-02T14:54:42Z</time><pdop>7.0</pdop><geoidheight>50.00</geoidheight><course>329.9</course><type>1</type></trkpt>
      <trkpt lat="38.4854139" lon="-2.00269976"><ele>1767</ele><speed>13.45</speed><time>2016-06-02T14:54:43Z</time><pdop>6.0</pdop><geoidheight>50.00</geoidheight><course>335.5</course><type>1</type></trkpt>
      <trkpt lat="38.48555534" lon="-2.0027184"><ele>1768</ele><speed>13.03</speed><time>2016-06-02T14:54:44Z</time><pdop>6.0</pdop><geoidheight>50.00</geoidheight><course>348.5</course><type>1</type></trkpt>
      <trkpt lat="38.48568693" lon="-2.00269215"><ele>1767</ele><speed>12.63</speed><time>2016-06-02T14:54:45Z</time><pdop>4.0</pdop><geoidheight>50.00</geoidheight><course>5.2</course><type>1</type></trkpt>
      <trkpt lat="38.48577673" lon="-2.0026481"><ele>1766</ele><speed>11.48</speed><time>2016-06-02T14:54:46Z</time><pdop>4.0</pdop><geoidheight>50.00</geoidheight><course>14.6</course><type>1</type></trkpt>
      <trkpt lat="38.48585907" lon="-2.00259948"><ele>1766</ele><speed>11.13</speed><time>2016-06-02T14:54:47Z</time><pdop>5.0</pdop><geoidheight>50.00</geoidheight><course>19.5</course><type>1</type></trkpt>
      <trkpt lat="38.48592004" lon="-2.00252858"><ele>1765</ele><speed>9.45</speed><time>2016-06-02T14:54:48Z</time><pdop>4.0</pdop><geoidheight>50.00</geoidheight><course>35.9</course><type>1</type></trkpt>
      <trkpt lat="38.48600432" lon="-2.00236553"><ele>1766</ele><speed>8.92</speed><time>2016-06-02T14:54:50Z</time><pdop>5.0</pdop><geoidheight>50.00</geoidheight><course>50.0</course><type>1</type></trkpt>
      <trkpt lat="38.48605194" lon="-2.00218948"><ele>1766</ele><speed>8.78</speed><time>2016-06-02T14:54:52Z</time><pdop>4.0</pdop><geoidheight>50.00</geoidheight><course>62.3</course><type>1</type></trkpt>
      <trkpt lat="38.48608707" lon="-2.00208063"><ele>1766</ele><speed>9.88</speed><time>2016-06-02T14:54:53Z</time><pdop>4.0</pdop><geoidheight>50.00</geoidheight><course>66.0</course><type>1</type></trkpt>
      <trkpt lat="38.48611325" lon="-2.00197329"><ele>1765</ele><speed>9.53</speed><time>2016-06-02T14:54:54Z</time><pdop>3.0</pdop><geoidheight>50.00</geoidheight><course>73.8</course><type>1</type></trkpt>
      <trkpt lat="38.48613016" lon="-2.00186527"><ele>1766</ele><speed>9.18</speed><time>2016-06-02T14:54:55Z</time><pdop>3.0</pdop><geoidheight>50.00</geoidheight><course>80.7</course><type>1</type></trkpt>
      <trkpt lat="38.48614164" lon="-2.00177023"><ele>1765</ele><speed>8.68</speed><time>2016-06-02T14:54:56Z</time><pdop>3.0</pdop><geoidheight>50.00</geoidheight><course>86.0</course><type>1</type></trkpt>
      <trkpt lat="38.48613159" lon="-2.00167854"><ele>1765</ele><speed>8.07</speed><time>2016-06-02T14:54:57Z</time><pdop>3.0</pdop><geoidheight>50.00</geoidheight><course>91.0</course><type>1</type></trkpt>
      <trkpt lat="38.48612418" lon="-2.00158921"><ele>1763</ele><speed>8.05</speed><time>2016-06-02T14:54:58Z</time><pdop>3.0</pdop><geoidheight>50.00</geoidheight><course>96.8</course><type>1</type></trkpt>
      <trkpt lat="38.48611216" lon="-2.00148738"><ele>1762</ele><speed>8.83</speed><time>2016-06-02T14:54:59Z</time><pdop>3.0</pdop><geoidheight>50.00</geoidheight><course>96.4</course><type>1</type></trkpt>
      <trkpt lat="38.48609696" lon="-2.0013898"><ele>1761</ele><speed>8.74</speed><time>2016-06-02T14:55:00Z</time><pdop>4.0</pdop><geoidheight>50.00</geoidheight><course>95.6</course><type>1</type></trkpt>
      <trkpt lat="38.48611047" lon="-2.00120954"><ele>1762</ele><speed>7.58</speed><time>2016-06-02T14:55:02Z</time><pdop>3.0</pdop><geoidheight>50.00</geoidheight><course>83.3</course><type>1</type></trkpt>
      <trkpt lat="38.48611498" lon="-2.00113486"><ele>1761</ele><speed>6.83</speed><time>2016-06-02T14:55:03Z</time><pdop>3.0</pdop><geoidheight>50.00</geoidheight><course>82.4</course><type>1</type></trkpt>
      <trkpt lat="38.48612084" lon="-2.00106398"><ele>1761</ele><speed>6.64</speed><time>2016-06-02T14:55:04Z</time><pdop>3.0</pdop><geoidheight>50.00</geoidheight><course>83.8</course><type>1</type></trkpt>
      <trkpt lat="38.48611796" lon="-2.00099322"><ele>1759</ele><speed>6.93</speed><time>2016-06-02T14:55:05Z</time><pdop>3.0</pdop><geoidheight>50.00</geoidheight><course>85.1</course><type>1</type></trkpt>
      <trkpt lat="38.48612531" lon="-2.00090796"><ele>1757</ele><speed>7.47</speed><time>2016-06-02T14:55:06Z</time><pdop>3.0</pdop><geoidheight>50.00</geoidheight><course>85.1</course><type>1</type></trkpt>
      <trkpt lat="38.48611536" lon="-2.0008277"><ele>1755</ele><speed>7.47</speed><time>2016-06-02T14:55:07Z</time><pdop>3.0</pdop><geoidheight>50.00</geoidheight><course>92.1</course><type>1</type></trkpt>
      <trkpt lat="38.48610518" lon="-2.0007422"><ele>1753</ele><speed>7.64</speed><time>2016-06-02T14:55:08Z</time><pdop>3.0</pdop><geoidheight>50.00</geoidheight><course>97.1</course><type>1</type></trkpt>
      <trkpt lat="38.48609527" lon="-2.00065805"><ele>1751</ele><speed>7.60</speed><time>2016-06-02T14:55:09Z</time><pdop>3.0</pdop><geoidheight>50.00</geoidheight><course>96.4</course><type>1</type></trkpt>
      <trkpt lat="38.48610153" lon="-2.00057344"><ele>1751</ele><speed>7.29</speed><time>2016-06-02T14:55:10Z</time><pdop>3.0</pdop><geoidheight>50.00</geoidheight><course>94.3</course><type>1</type></trkpt>
      <trkpt lat="38.48609394" lon="-2.00050004"><ele>1750</ele><speed>6.71</speed><time>2016-06-02T14:55:11Z</time><pdop>3.0</pdop><geoidheight>50.00</geoidheight><course>93.6</course><type>1</type></trkpt>
      <trkpt lat="38.48608002" lon="-2.00036853"><ele>1747</ele><speed>5.96</speed><time>2016-06-02T14:55:13Z</time><pdop>3.0</pdop><geoidheight>50.00</geoidheight><course>98.7</course><type>1</type></trkpt>
      <trkpt lat="38.48607559" lon="-2.00029783"><ele>1744</ele><speed>5.97</speed><time>2016-06-02T14:55:14Z</time><pdop>3.0</pdop><geoidheight>50.00</geoidheight><course>99.4</course><type>1</type></trkpt>
      <trkpt lat="38.48606658" lon="-2.00022233"><ele>1740</ele><speed>6.76</speed><time>2016-06-02T14:55:15Z</time><pdop>3.0</pdop><geoidheight>50.00</geoidheight><course>98.5</course><type>1</type></trkpt>
      <trkpt lat="38.48606344" lon="-2.00012528"><ele>1738</ele><speed>7.93</speed><time>2016-06-02T14:55:16Z</time><pdop>3.0</pdop><geoidheight>50.00</geoidheight><course>97.3</course><type>1</type></trkpt>
      <trkpt lat="38.48606015" lon="-2.0000316"><ele>1737</ele><speed>8.35</speed><time>2016-06-02T14:55:17Z</time><pdop>4.0</pdop><geoidheight>50.00</geoidheight><course>95.5</course><type>1</type></trkpt>
      <trkpt lat="38.4860471" lon="-1.99992886"><ele>1736</ele><speed>9.03</speed><time>2016-06-02T14:55:18Z</time><pdop>5.0</pdop><geoidheight>50.00</geoidheight><course>96.7</course><type>1</type></trkpt>
      <trkpt lat="38.48604178" lon="-1.99974261"><ele>1734</ele><speed>8.26</speed><time>2016-06-02T14:55:20Z</time><pdop>4.0</pdop><geoidheight>50.00</geoidheight><course>95.9</course><type>1</type></trkpt>
      <trkpt lat="38.486008" lon="-1.99956572"><ele>1730</ele><speed>7.26</speed><time>2016-06-02T14:55:22Z</time><pdop>4.0</pdop><geoidheight>50.00</geoidheight><course>97.5</course><type>1</type></trkpt>
      <trkpt lat="38.48598347" lon="-1.99940659"><ele>1722</ele><speed>8.91</speed><time>2016-06-02T14:55:24Z</time><pdop>3.0</pdop><geoidheight>50.00</geoidheight><course>99.2</course><type>1</type></trkpt>
      <trkpt lat="38.48596734" lon="-1.99930372"><ele>1719</ele><speed>10.00</speed><time>2016-06-02T14:55:25Z</time><pdop>3.0</pdop><geoidheight>50.00</geoidheight><course>96.7</course><type>1</type></trkpt>
      <trkpt lat="38.48595959" lon="-1.99918402"><ele>1715</ele><speed>10.73</speed><time>2016-06-02T14:55:26Z</time><pdop>3.0</pdop><geoidheight>50.00</geoidheight><course>96.1</course><type>1</type></trkpt>
      <trkpt lat="38.48594173" lon="-1.99906523"><ele>1712</ele><speed>10.68</speed><time>2016-06-02T14:55:27Z</time><pdop>3.0</pdop><geoidheight>50.00</geoidheight><course>96.0</course><type>1</type></trkpt>
      <trkpt lat="38.48593663" lon="-1.99895099"><ele>1710</ele><speed>10.18</speed><time>2016-06-02T14:55:28Z</time><pdop>3.0</pdop><geoidheight>50.00</geoidheight><course>96.2</course><type>1</type></trkpt>
      <trkpt lat="38.48593491" lon="-1.99884816"><ele>1707</ele><speed>9.71</speed><time>2016-06-02T14:55:29Z</time><pdop>3.0</pdop><geoidheight>50.00</geoidheight><course>94.8</course><type>1</type></trkpt>
      <trkpt lat="38.48592306" lon="-1.99874144"><ele>1706</ele><speed>9.46</speed><time>2016-06-02T14:55:30Z</time><pdop>3.0</pdop><geoidheight>50.00</geoidheight><course>94.1</course><type>1</type></trkpt>
      <trkpt lat="38.4859154" lon="-1.99862893"><ele>1704</ele><speed>9.54</speed><time>2016-06-02T14:55:31Z</time><pdop>3.0</pdop><geoidheight>50.00</geoidheight><course>94.6</course><type>1</type></trkpt>
      <trkpt lat="38.4859014" lon="-1.99851495"><ele>1701</ele><speed>9.93</speed><time>2016-06-02T14:55:32Z</time><pdop>3.0</pdop><geoidheight>50.00</geoidheight><course>95.7</course><type>1</type></trkpt>
      <trkpt lat="38.48589527" lon="-1.99840039"><ele>1698</ele><speed>10.44</speed><time>2016-06-02T14:55:33Z</time><pdop>3.0</pdop><geoidheight>50.00</geoidheight><course>95.6</course><type>1</type></trkpt>
      <trkpt lat="38.48588237" lon="-1.99827729"><ele>1695</ele><speed>10.88</speed><time>2016-06-02T14:55:34Z</time><pdop>3.0</pdop><geoidheight>50.00</geoidheight><course>96.5</course><type>1</type></trkpt>
      <trkpt lat="38.48587724" lon="-1.99815531"><ele>1693</ele><speed>11.41</speed><time>2016-06-02T14:55:35Z</time><pdop>3.0</pdop><geoidheight>50.00</geoidheight><course>97.1</course><type>1</type></trkpt>
      <trkpt lat="38.48586056" lon="-1.99801599"><ele>1691</ele><speed>12.28</speed><time>2016-06-02T14:55:36Z</time><pdop>3.0</pdop><geoidheight>50.00</geoidheight><course>99.8</course><type>1</type></trkpt>
      <trkpt lat="38.48584279" lon="-1.99787325"><ele>1691</ele><speed>12.39</speed><time>2016-06-02T14:55:37Z</time><pdop>3.0</pdop><geoidheight>50.00</geoidheight><course>100.9</course><type>1</type></trkpt>
      <trkpt lat="38.48582266" lon="-1.99774461"><ele>1689</ele><speed>11.57</speed><time>2016-06-02T14:55:38Z</time><pdop>3.0</pdop><geoidheight>50.00</geoidheight><course>99.8</course><type>1</type></trkpt>
      <trkpt lat="38.4858184" lon="-1.99763128"><ele>1689</ele><speed>10.23</speed><time>2016-06-02T14:55:39Z</time><pdop>3.0</pdop><geoidheight>50.00</geoidheight><course>95.5</course><type>1</type></trkpt>
      <trkpt lat="38.4858079" lon="-1.99752023"><ele>1690</ele><speed>9.55</speed><time>2016-06-02T14:55:40Z</time><pdop>3.0</pdop><geoidheight>50.00</geoidheight><course>95.1</course><type>1</type></trkpt>
      <trkpt lat="38.48580008" lon="-1.99740761"><ele>1689</ele><speed>9.65</speed><time>2016-06-02T14:55:41Z</time><pdop>3.0</pdop><geoidheight>50.00</geoidheight><course>97.5</course><type>1</type></trkpt>
      <trkpt lat="38.4857857" lon="-1.99729119"><ele>1687</ele><speed>10.33</speed><time>2016-06-02T14:55:42Z</time><pdop>3.0</pdop><geoidheight>50.00</geoidheight><course>98.1</course><type>1</type></trkpt>
      <trkpt lat="38.48577983" lon="-1.99716392"><ele>1685</ele><speed>11.38</speed><time>2016-06-02T14:55:43Z</time><pdop>3.0</pdop><geoidheight>50.00</geoidheight><course>95.1</course><type>1</type></trkpt>
      <trkpt lat="38.48577591" lon="-1.99702629"><ele>1683</ele><speed>12.26</speed><time>2016-06-02T14:55:44Z</time><pdop>3.0</pdop><geoidheight>50.00</geoidheight><course>91.9</course><type>1</type></trkpt>
      <trkpt lat="38.48576854" lon="-1.99688682"><ele>1683</ele><speed>12.33</speed><time>2016-06-02T14:55:45Z</time><pdop>3.0</pdop><geoidheight>50.00</geoidheight><course>92.6</course><type>1</type></trkpt>
      <trkpt lat="38.48575801" lon="-1.99675453"><ele>1683</ele><speed>11.80</speed><time>2016-06-02T14:55:46Z</time><pdop>3.0</pdop><geoidheight>50.00</geoidheight><course>94.9</course><type>1</type></trkpt>
      <trkpt lat="38.48574441" lon="-1.99663143"><ele>1683</ele><speed>11.23</speed><time>2016-06-02T14:55:47Z</time><pdop>3.0</pdop><geoidheight>50.00</geoidheight><course>95.7</course><type>1</type></trkpt>
      <trkpt lat="38.48573811" lon="-1.99650553"><ele>1683</ele><speed>11.03</speed><time>2016-06-02T14:55:48Z</time><pdop>3.0</pdop><geoidheight>50.00</geoidheight><course>95.5</course><type>1</type></trkpt>
      <trkpt lat="38.48571643" lon="-1.99638636"><ele>1681</ele><speed>11.40</speed><time>2016-06-02T14:55:49Z</time><pdop>3.0</pdop><geoidheight>50.00</geoidheight><course>98.2</course><type>1</type></trkpt>
      <trkpt lat="38.48569426" lon="-1.99626807"><ele>1682</ele><speed>11.01</speed><time>2016-06-02T14:55:50Z</time><pdop>3.0</pdop><geoidheight>50.00</geoidheight><course>100.3</course><type>1</type></trkpt>
      <trkpt lat="38.48567657" lon="-1.9961439"><ele>1682</ele><speed>11.01</speed><time>2016-06-02T14:55:51Z</time><pdop>4.0</pdop><geoidheight>50.00</geoidheight><course>100.3</course><type>1</type></trkpt>
      <trkpt lat="38.48565847" lon="-1.99603686"><ele>1682</ele><speed>10.35</speed><time>2016-06-02T14:55:52Z</time><pdop>3.0</pdop><geoidheight>50.00</geoidheight><course>102.5</course><type>1</type></trkpt>
      <trkpt lat="38.48564199" lon="-1.99591234"><ele>1681</ele><speed>10.82</speed><time>2016-06-02T14:55:53Z</time><pdop>3.0</pdop><geoidheight>50.00</geoidheight><course>98.2</course><type>1</type></trkpt>
      <trkpt lat="38.48563094" lon="-1.9957911"><ele>1681</ele><speed>10.70</speed><time>2016-06-02T14:55:54Z</time><pdop>3.0</pdop><geoidheight>50.00</geoidheight><course>94.0</course><type>1</type></trkpt>
      <trkpt lat="38.48562916" lon="-1.9956668"><ele>1681</ele><speed>10.80</speed><time>2016-06-02T14:55:55Z</time><pdop>4.0</pdop><geoidheight>50.00</geoidheight><course>90.7</course><type>1</type></trkpt>
      <trkpt lat="38.48563084" lon="-1.99554633"><ele>1679</ele><speed>10.62</speed><time>2016-06-02T14:55:56Z</time><pdop>4.0</pdop><geoidheight>50.00</geoidheight><course>89.9</course><type>1</type></trkpt>
      <trkpt lat="38.48563294" lon="-1.99543463"><ele>1677</ele><speed>10.18</speed><time>2016-06-02T14:55:57Z</time><pdop>3.0</pdop><geoidheight>50.00</geoidheight><course>93.8</course><type>1</type></trkpt>
      <trkpt lat="38.48562831" lon="-1.99531043"><ele>1675</ele><speed>11.02</speed><time>2016-06-02T14:55:58Z</time><pdop>4.0</pdop><geoidheight>50.00</geoidheight><course>95.3</course><type>1</type></trkpt>
      <trkpt lat="38.48561948" lon="-1.99518776"><ele>1673</ele><speed>10.86</speed><time>2016-06-02T14:55:59Z</time><pdop>5.0</pdop><geoidheight>50.00</geoidheight><course>95.3</course><type>1</type></trkpt>
      <trkpt lat="38.48559442" lon="-1.99504974"><ele>1668</ele><speed>13.04</speed><time>2016-06-02T14:56:00Z</time><pdop>4.0</pdop><geoidheight>50.00</geoidheight><course>99.7</course><type>1</type></trkpt>
      <trkpt lat="38.48557545" lon="-1.99490831"><ele>1664</ele><speed>13.04</speed><time>2016-06-02T14:56:01Z</time><pdop>5.0</pdop><geoidheight>50.00</geoidheight><course>99.7</course><type>1</type></trkpt>
      <trkpt lat="38.48555542" lon="-1.99475484"><ele>1662</ele><speed>13.57</speed><time>2016-06-02T14:56:02Z</time><pdop>4.0</pdop><geoidheight>50.00</geoidheight><course>97.5</course><type>1</type></trkpt>
      <trkpt lat="38.48554457" lon="-1.99460176"><ele>1661</ele><speed>12.93</speed><time>2016-06-02T14:56:03Z</time><pdop>4.0</pdop><geoidheight>50.00</geoidheight><course>94.9</course><type>1</type></trkpt>
      <trkpt lat="38.4855347" lon="-1.99445427"><ele>1660</ele><speed>12.92</speed><time>2016-06-02T14:56:04Z</time><pdop>5.0</pdop><geoidheight>50.00</geoidheight><course>94.9</course><type>1</type></trkpt>
      <trkpt lat="38.48551856" lon="-1.99430841"><ele>1658</ele><speed>13.12</speed><time>2016-06-02T14:56:05Z</time><pdop>4.0</pdop><geoidheight>50.00</geoidheight><course>95.7</course><type>1</type></trkpt>
      <trkpt lat="38.48550668" lon="-1.99415918"><ele>1658</ele><speed>13.09</speed><time>2016-06-02T14:56:06Z</time><pdop>6.0</pdop><geoidheight>50.00</geoidheight><course>95.8</course><type>1</type></trkpt>
      <trkpt lat="38.48548314" lon="-1.9940071"><ele>1657</ele><speed>13.64</speed><time>2016-06-02T14:56:07Z</time><pdop>5.0</pdop><geoidheight>50.00</geoidheight><course>101.3</course><type>1</type></trkpt>
      <trkpt lat="38.48545471" lon="-1.99385087"><ele>1655</ele><speed>14.56</speed><time>2016-06-02T14:56:08Z</time><pdop>5.0</pdop><geoidheight>50.00</geoidheight><course>100.6</course><type>1</type></trkpt>
      <trkpt lat="38.48543156" lon="-1.99369963"><ele>1653</ele><speed>13.67</speed><time>2016-06-02T14:56:09Z</time><pdop>6.0</pdop><geoidheight>50.00</geoidheight><course>94.9</course><type>1</type></trkpt>
      <trkpt lat="38.48541977" lon="-1.99356939"><ele>1653</ele><speed>12.13</speed><time>2016-06-02T14:56:10Z</time><pdop>5.0</pdop><geoidheight>50.00</geoidheight><course>92.7</course><type>1</type></trkpt>
      <trkpt lat="38.4853927" lon="-1.9933459"><ele>1651</ele><speed>9.63</speed><time>2016-06-02T14:56:12Z</time><pdop>5.0</pdop><geoidheight>50.00</geoidheight><course>99.9</course><type>1</type></trkpt>
      <trkpt lat="38.48536396" lon="-1.99312656"><ele>1647</ele><speed>11.36</speed><time>2016-06-02T14:56:14Z</time><pdop>5.0</pdop><geoidheight>50.00</geoidheight><course>97.0</course><type>1</type></trkpt>
      <trkpt lat="38.48533895" lon="-1.99299212"><ele>1646</ele><speed>12.58</speed><time>2016-06-02T14:56:15Z</time><pdop>5.0</pdop><geoidheight>50.00</geoidheight><course>98.4</course><type>1</type></trkpt>
      <trkpt lat="38.48532219" lon="-1.99285046"><ele>1645</ele><speed>12.53</speed><time>2016-06-02T14:56:16Z</time><pdop>7.0</pdop><geoidheight>50.00</geoidheight><course>98.5</course><type>1</type></trkpt>
      <trkpt lat="38.48527311" lon="-1.99269324"><ele>1643</ele><speed>13.31</speed><time>2016-06-02T14:56:17Z</time><pdop>5.0</pdop><geoidheight>50.00</geoidheight><course>106.0</course><type>1</type></trkpt>
      <trkpt lat="38.48524011" lon="-1.992547"><ele>1642</ele><speed>13.28</speed><time>2016-06-02T14:56:18Z</time><pdop>6.0</pdop><geoidheight>50.00</geoidheight><course>106.0</course><type>1</type></trkpt>
      <trkpt lat="38.4851945" lon="-1.99232376"><ele>1641</ele><speed>10.37</speed><time>2016-06-02T14:56:20Z</time><pdop>5.0</pdop><geoidheight>50.00</geoidheight><course>110.4</course><type>1</type></trkpt>
      <trkpt lat="38.48513905" lon="-1.99210451"><ele>1638</ele><speed>10.27</speed><time>2016-06-02T14:56:22Z</time><pdop>5.0</pdop><geoidheight>50.00</geoidheight><course>107.7</course><type>1</type></trkpt>
      <trkpt lat="38.4851117" lon="-1.99198292"><ele>1637</ele><speed>11.03</speed><time>2016-06-02T14:56:23Z</time><pdop>5.0</pdop><geoidheight>50.00</geoidheight><course>107.9</course><type>1</type></trkpt>
      <trkpt lat="38.48507555" lon="-1.99184572"><ele>1636</ele><speed>12.16</speed><time>2016-06-02T14:56:24Z</time><pdop>6.0</pdop><geoidheight>50.00</geoidheight><course>108.6</course><type>1</type></trkpt>
      <trkpt lat="38.48502137" lon="-1.99170948"><ele>1632</ele><speed>13.09</speed><time>2016-06-02T14:56:25Z</time><pdop>5.0</pdop><geoidheight>50.00</geoidheight><course>112.0</course><type>1</type></trkpt>
      <trkpt lat="38.48498858" lon="-1.99156021"><ele>1632</ele><speed>13.39</speed><time>2016-06-02T14:56:26Z</time><pdop>5.0</pdop><geoidheight>50.00</geoidheight><course>109.9</course><type>1</type></trkpt>
      <trkpt lat="38.48496237" lon="-1.99141526"><ele>1631</ele><speed>12.75</speed><time>2016-06-02T14:56:27Z</time><pdop>5.0</pdop><geoidheight>50.00</geoidheight><course>104.5</course><type>1</type></trkpt>
      <trkpt lat="38.48492713" lon="-1.99129365"><ele>1632</ele><speed>11.17</speed><time>2016-06-02T14:56:28Z</time><pdop>5.0</pdop><geoidheight>50.00</geoidheight><course>100.6</course><type>1</type></trkpt>
      <trkpt lat="38.48490875" lon="-1.99116804"><ele>1632</ele><speed>11.14</speed><time>2016-06-02T14:56:29Z</time><pdop>5.0</pdop><geoidheight>50.00</geoidheight><course>100.5</course><type>1</type></trkpt>
      <trkpt lat="38.48485348" lon="-1.99096052"><ele>1629</ele><speed>10.51</speed><time>2016-06-02T14:56:31Z</time><pdop>5.0</pdop><geoidheight>50.00</geoidheight><course>106.0</course><type>1</type></trkpt>
      <trkpt lat="38.48480645" lon="-1.99070956"><ele>1622</ele><speed>12.53</speed><time>2016-06-02T14:56:33Z</time><pdop>5.0</pdop><geoidheight>50.00</geoidheight><course>105.0</course><type>1</type></trkpt>
      <trkpt lat="38.48477217" lon="-1.99059485"><ele>1619</ele><speed>12.75</speed><time>2016-06-02T14:56:34Z</time><pdop>5.0</pdop><geoidheight>50.00</geoidheight><course>104.1</course><type>1</type></trkpt>
      <trkpt lat="38.48474443" lon="-1.99045434"><ele>1617</ele><speed>12.67</speed><time>2016-06-02T14:56:35Z</time><pdop>6.0</pdop><geoidheight>50.00</geoidheight><course>104.1</course><type>1</type></trkpt>
      <trkpt lat="38.48468292" lon="-1.99023698"><ele>1616</ele><speed>10.39</speed><time>2016-06-02T14:56:37Z</time><pdop>4.0</pdop><geoidheight>50.00</geoidheight><course>108.5</course><type>1</type></trkpt>
      <trkpt lat="38.4846532" lon="-1.99012436"><ele>1615</ele><speed>10.36</speed><time>2016-06-02T14:56:38Z</time><pdop>6.0</pdop><geoidheight>50.00</geoidheight><course>108.6</course><type>1</type></trkpt>
      <trkpt lat="38.48462145" lon="-1.98998768"><ele>1614</ele><speed>11.50</speed><time>2016-06-02T14:56:39Z</time><pdop>5.0</pdop><geoidheight>50.00</geoidheight><course>107.6</course><type>1</type></trkpt>
      <trkpt lat="38.48458716" lon="-1.98986351"><ele>1611</ele><speed>11.83</speed><time>2016-06-02T14:56:40Z</time><pdop>5.0</pdop><geoidheight>50.00</geoidheight><course>105.5</course><type>1</type></trkpt>
      <trkpt lat="38.48455768" lon="-1.98971926"><ele>1609</ele><speed>13.33</speed><time>2016-06-02T14:56:41Z</time><pdop>4.0</pdop><geoidheight>50.00</geoidheight><course>106.2</course><type>1</type></trkpt>
      <trkpt lat="38.4845155" lon="-1.9895786"><ele>1607</ele><speed>14.27</speed><time>2016-06-02T14:56:42Z</time><pdop>4.0</pdop><geoidheight>50.00</geoidheight><course>108.9</course><type>1</type></trkpt>
      <trkpt lat="38.48447395" lon="-1.98942439"><ele>1607</ele><speed>14.23</speed><time>2016-06-02T14:56:43Z</time><pdop>5.0</pdop><geoidheight>50.00</geoidheight><course>108.9</course><type>1</type></trkpt>
      <trkpt lat="38.48443186" lon="-1.98926199"><ele>1606</ele><speed>14.01</speed><time>2016-06-02T14:56:44Z</time><pdop>4.0</pdop><geoidheight>50.00</geoidheight><course>108.0</course><type>1</type></trkpt>
      <trkpt lat="38.48439293" lon="-1.98910926"><ele>1606</ele><speed>14.01</speed><time>2016-06-02T14:56:45Z</time><pdop>5.0</pdop><geoidheight>50.00</geoidheight><course>108.0</course><type>1</type></trkpt>
      <trkpt lat="38.48436265" lon="-1.9890125"><ele>1605</ele><speed>11.70</speed><time>2016-06-02T14:56:46Z</time><pdop>4.0</pdop><geoidheight>50.00</geoidheight><course>107.9</course><type>1</type></trkpt>
      <trkpt lat="38.48432978" lon="-1.98889562"><ele>1604</ele><speed>11.12</speed><time>2016-06-02T14:56:47Z</time><pdop>4.0</pdop><geoidheight>50.00</geoidheight><course>109.7</course><type>1</type></trkpt>
      <trkpt lat="38.48427937" lon="-1.98878886"><ele>1605</ele><speed>11.12</speed><time>2016-06-02T14:56:48Z</time><pdop>5.0</pdop><geoidheight>50.00</geoidheight><course>113.7</course><type>1</type></trkpt>
      <trkpt lat="38.48421524" lon="-1.98852205"><ele>1604</ele><speed>11.97</speed><time>2016-06-02T14:56:50Z</time><pdop>13.0</pdop><geoidheight>50.00</geoidheight><course>108.5</course><type>1</type></trkpt>
      <trkpt lat="38.48411469" lon="-1.98816128"><ele>1599</ele><speed>14.27</speed><time>2016-06-02T14:56:52Z</time><pdop>14.0</pdop><geoidheight>50.00</geoidheight><course>112.7</course><type>1</type></trkpt>
      <trkpt lat="38.48398159" lon="-1.98771161"><ele>1593</ele><speed>13.48</speed><time>2016-06-02T14:56:55Z</time><pdop>15.0</pdop><geoidheight>50.00</geoidheight><course>111.2</course><type>1</type></trkpt>
      <trkpt lat="38.48389977" lon="-1.98739294"><ele>1589</ele><speed>15.70</speed><time>2016-06-02T14:56:57Z</time><pdop>14.0</pdop><geoidheight>50.00</geoidheight><course>107.7</course><type>1</type></trkpt>
      <trkpt lat="38.48379481" lon="-1.98707186"><ele>1582</ele><speed>15.31</speed><time>2016-06-02T14:56:59Z</time><pdop>11.0</pdop><geoidheight>50.00</geoidheight><course>114.9</course><type>1</type></trkpt>
      <trkpt lat="38.4837057" lon="-1.98679225"><ele>1576</ele><speed>13.40</speed><time>2016-06-02T14:57:01Z</time><pdop>9.0</pdop><geoidheight>50.00</geoidheight><course>109.7</course><type>1</type></trkpt>
      <trkpt lat="38.48363151" lon="-1.98649101"><ele>1573</ele><speed>14.01</speed><time>2016-06-02T14:57:03Z</time><pdop>8.0</pdop><geoidheight>50.00</geoidheight><course>108.1</course><type>1</type></trkpt>
      <trkpt lat="38.48354828" lon="-1.98617346"><ele>1570</ele><speed>15.11</speed><time>2016-06-02T14:57:05Z</time><pdop>7.0</pdop><geoidheight>50.00</geoidheight><course>105.7</course><type>1</type></trkpt>
      <trkpt lat="38.48351028" lon="-1.98601676"><ele>1567</ele><speed>15.27</speed><time>2016-06-02T14:57:06Z</time><pdop>7.0</pdop><geoidheight>50.00</geoidheight><course>106.1</course><type>1</type></trkpt>
      <trkpt lat="38.4834456" lon="-1.98587346"><ele>1564</ele><speed>15.00</speed><time>2016-06-02T14:57:07Z</time><pdop>7.0</pdop><geoidheight>50.00</geoidheight><course>113.3</course><type>1</type></trkpt>
      <trkpt lat="38.4833701" lon="-1.98572227"><ele>1562</ele><speed>14.89</speed><time>2016-06-02T14:57:08Z</time><pdop>7.0</pdop><geoidheight>50.00</geoidheight><course>118.3</course><type>1</type></trkpt>
      <trkpt lat="38.48322771" lon="-1.98543175"><ele>1557</ele><speed>15.09</speed><time>2016-06-02T14:57:10Z</time><pdop>10.0</pdop><geoidheight>50.00</geoidheight><course>117.1</course><type>1</type></trkpt>
      <trkpt lat="38.48314839" lon="-1.98508353"><ele>1554</ele><speed>16.05</speed><time>2016-06-02T14:57:12Z</time><pdop>10.0</pdop><geoidheight>50.00</geoidheight><course>104.1</course><type>1</type></trkpt>
      <trkpt lat="38.48308483" lon="-1.98478586"><ele>1549</ele><speed>13.92</speed><time>2016-06-02T14:57:14Z</time><pdop>9.0</pdop><geoidheight>50.00</geoidheight><course>104.3</course><type>1</type></trkpt>
      <trkpt lat="38.48302986" lon="-1.98448846"><ele>1543</ele><speed>13.90</speed><time>2016-06-02T14:57:16Z</time><pdop>9.0</pdop><geoidheight>50.00</geoidheight><course>102.2</course><type>1</type></trkpt>
      <trkpt lat="38.48299012" lon="-1.98415994"><ele>1537</ele><speed>14.89</speed><time>2016-06-02T14:57:18Z</time><pdop>9.0</pdop><geoidheight>50.00</geoidheight><course>98.0</course><type>1</type></trkpt>
      <trkpt lat="38.48292724" lon="-1.98385475"><ele>1526</ele><speed>15.27</speed><time>2016-06-02T14:57:20Z</time><pdop>9.0</pdop><geoidheight>50.00</geoidheight><course>104.4</course><type>1</type></trkpt>
      <trkpt lat="38.48282259" lon="-1.98351121"><ele>1520</ele><speed>15.59</speed><time>2016-06-02T14:57:22Z</time><pdop>10.0</pdop><geoidheight>50.00</geoidheight><course>111.2</course><type>1</type></trkpt>
      <trkpt lat="38.48271233" lon="-1.98320031"><ele>1517</ele><speed>14.76</speed><time>2016-06-02T14:57:24Z</time><pdop>9.0</pdop><geoidheight>50.00</geoidheight><course>112.0</course><type>1</type></trkpt>
      <trkpt lat="38.48265087" lon="-1.98292338"><ele>1511</ele><speed>12.67</speed><time>2016-06-02T14:57:26Z</time><pdop>9.0</pdop><geoidheight>50.00</geoidheight><course>97.7</course><type>1</type></trkpt>
      <trkpt lat="38.48268634" lon="-1.98264202"><ele>1501</ele><speed>13.59</speed><time>2016-06-02T14:57:28Z</time><pdop>9.0</pdop><geoidheight>50.00</geoidheight><course>79.9</course><type>1</type></trkpt>
      <trkpt lat="38.48269134" lon="-1.9823256"><ele>1495</ele><speed>14.29</speed><time>2016-06-02T14:57:30Z</time><pdop>9.0</pdop><geoidheight>50.00</geoidheight><course>94.1</course><type>1</type></trkpt>
      <trkpt lat="38.48265326" lon="-1.98204194"><ele>1495</ele><speed>11.99</speed><time>2016-06-02T14:57:32Z</time><pdop>9.0</pdop><geoidheight>50.00</geoidheight><course>99.0</course><type>1</type></trkpt>
      <trkpt lat="38.4826486" lon="-1.98173182"><ele>1490</ele><speed>9.81</speed><time>2016-06-02T14:57:35Z</time><pdop>9.0</pdop><geoidheight>50.00</geoidheight><course>86.1</course><type>1</type></trkpt>
      <trkpt lat="38.48266102" lon="-1.98145427"><ele>1487</ele><speed>12.15</speed><time>2016-06-02T14:57:37Z</time><pdop>10.0</pdop><geoidheight>50.00</geoidheight><course>86.0</course><type>1</type></trkpt>
      <trkpt lat="38.48266717" lon="-1.98112264"><ele>1484</ele><speed>13.87</speed><time>2016-06-02T14:57:39Z</time><pdop>10.0</pdop><geoidheight>50.00</geoidheight><course>88.3</course><type>1</type></trkpt>
      <trkpt lat="38.48263348" lon="-1.98089433"><ele>1483</ele><speed>10.20</speed><time>2016-06-02T14:57:41Z</time><pdop>10.0</pdop><geoidheight>50.00</geoidheight><course>96.5</course><type>1</type></trkpt>
      <trkpt lat="38.48262473" lon="-1.98055952"><ele>1476</ele><speed>10.65</speed><time>2016-06-02T14:57:44Z</time><pdop>9.0</pdop><geoidheight>50.00</geoidheight><course>86.9</course><type>1</type></trkpt>
      <trkpt lat="38.48261628" lon="-1.98030403"><ele>1472</ele><speed>11.49</speed><time>2016-06-02T14:57:46Z</time><pdop>9.0</pdop><geoidheight>50.00</geoidheight><course>90.8</course><type>1</type></trkpt>
      <trkpt lat="38.4826121" lon="-1.97999517"><ele>1469</ele><speed>8.28</speed><time>2016-06-02T14:57:49Z</time><pdop>10.0</pdop><geoidheight>50.00</geoidheight><course>93.5</course><type>1</type></trkpt>
      <trkpt lat="38.48260651" lon="-1.97966535"><ele>1465</ele><speed>10.27</speed><time>2016-06-02T14:57:52Z</time><pdop>10.0</pdop><geoidheight>50.00</geoidheight><course>91.6</course><type>1</type></trkpt>
      <trkpt lat="38.48257516" lon="-1.97945049"><ele>1458</ele><speed>11.25</speed><time>2016-06-02T14:57:54Z</time><pdop>9.0</pdop><geoidheight>50.00</geoidheight><course>92.6</course><type>1</type></trkpt>
      <trkpt lat="38.48257686" lon="-1.97920265"><ele>1458</ele><speed>10.56</speed><time>2016-06-02T14:57:56Z</time><pdop>9.0</pdop><geoidheight>50.00</geoidheight><course>86.8</course><type>1</type></trkpt>
      <trkpt lat="38.48264307" lon="-1.97896709"><ele>1457</ele><speed>7.84</speed><time>2016-06-02T14:57:59Z</time><pdop>9.0</pdop><geoidheight>50.00</geoidheight><course>67.3</course><type>1</type></trkpt>
      <trkpt lat="38.48269493" lon="-1.97866168"><ele>1450</ele><speed>10.08</speed><time>2016-06-02T14:58:02Z</time><pdop>9.0</pdop><geoidheight>50.00</geoidheight><course>78.2</course><type>1</type></trkpt>
      <trkpt lat="38.48273739" lon="-1.97844636"><ele>1449</ele><speed>9.73</speed><time>2016-06-02T14:58:04Z</time><pdop>9.0</pdop><geoidheight>50.00</geoidheight><course>73.6</course><type>1</type></trkpt>
      <trkpt lat="38.48280852" lon="-1.97816074"><ele>1446</ele><speed>8.50</speed><time>2016-06-02T14:58:07Z</time><pdop>9.0</pdop><geoidheight>50.00</geoidheight><course>75.7</course><type>1</type></trkpt>
      <trkpt lat="38.48283236" lon="-1.9779511"><ele>1444</ele><speed>9.08</speed><time>2016-06-02T14:58:09Z</time><pdop>9.0</pdop><geoidheight>50.00</geoidheight><course>84.8</course><type>1</type></trkpt>
      <trkpt lat="38.48281072" lon="-1.97764768"><ele>1440</ele><speed>8.93</speed><time>2016-06-02T14:58:12Z</time><pdop>9.0</pdop><geoidheight>50.00</geoidheight><course>96.1</course><type>1</type></trkpt>
      <trkpt lat="38.48281647" lon="-1.97734513"><ele>1430</ele><speed>9.77</speed><time>2016-06-02T14:58:15Z</time><pdop>9.0</pdop><geoidheight>50.00</geoidheight><course>82.8</course><type>1</type></trkpt>
      <trkpt lat="38.48283445" lon="-1.97710199"><ele>1424</ele><speed>10.89</speed><time>2016-06-02T14:58:17Z</time><pdop>9.0</pdop><geoidheight>50.00</geoidheight><course>85.2</course><type>1</type></trkpt>
      <trkpt lat="38.48281792" lon="-1.97683687"><ele>1420</ele><speed>12.22</speed><time>2016-06-02T14:58:19Z</time><pdop>9.0</pdop><geoidheight>50.00</geoidheight><course>95.0</course><type>1</type></trkpt>
      <trkpt lat="38.48279026" lon="-1.97657839"><ele>1422</ele><speed>11.46</speed><time>2016-06-02T14:58:21Z</time><pdop>10.0</pdop><geoidheight>50.00</geoidheight><course>94.3</course><type>1</type></trkpt>
      <trkpt lat="38.48275135" lon="-1.97625868"><ele>1424</ele><speed>9.20</speed><time>2016-06-02T14:58:24Z</time><pdop>9.0</pdop><geoidheight>50.00</geoidheight><course>98.7</course><type>1</type></trkpt>
      <trkpt lat="38.48266943" lon="-1.97601824"><ele>1424</ele><speed>7.40</speed><time>2016-06-02T14:58:27Z</time><pdop>10.0</pdop><geoidheight>50.00</geoidheight><course>113.1</course><type>1</type></trkpt>
      <trkpt lat="38.48260459" lon="-1.9757227"><ele>1418</ele><speed>10.64</speed><time>2016-06-02T14:58:30Z</time><pdop>10.0</pdop><geoidheight>50.00</geoidheight><course>100.1</course><type>1</type></trkpt>
      <trkpt lat="38.48253556" lon="-1.97549533"><ele>1412</ele><speed>11.68</speed><time>2016-06-02T14:58:32Z</time><pdop>11.0</pdop><geoidheight>50.00</geoidheight><course>104.7</course><type>1</type></trkpt>
      <trkpt lat="38.48247187" lon="-1.97516199"><ele>1408</ele><speed>9.84</speed><time>2016-06-02T14:58:35Z</time><pdop>10.0</pdop><geoidheight>50.00</geoidheight><course>104.7</course><type>1</type></trkpt>
      <trkpt lat="38.48241469" lon="-1.97483614"><ele>1401</ele><speed>10.93</speed><time>2016-06-02T14:58:38Z</time><pdop>10.0</pdop><geoidheight>50.00</geoidheight><course>101.7</course><type>1</type></trkpt>
      <trkpt lat="38.48234406" lon="-1.9745805"><ele>1397</ele><speed>12.43</speed><time>2016-06-02T14:58:40Z</time><pdop>10.0</pdop><geoidheight>50.00</geoidheight><course>105.5</course><type>1</type></trkpt>
      <trkpt lat="38.48228881" lon="-1.97435487"><ele>1398</ele><speed>10.15</speed><time>2016-06-02T14:58:42Z</time><pdop>10.0</pdop><geoidheight>50.00</geoidheight><course>104.6</course><type>1</type></trkpt>
      <trkpt lat="38.48218518" lon="-1.97406027"><ele>1394</ele><speed>9.60</speed><time>2016-06-02T14:58:45Z</time><pdop>9.0</pdop><geoidheight>50.00</geoidheight><course>114.3</course><type>1</type></trkpt>
      <trkpt lat="38.4821096" lon="-1.97386019"><ele>1390</ele><speed>9.70</speed><time>2016-06-02T14:58:47Z</time><pdop>9.0</pdop><geoidheight>50.00</geoidheight><course>110.9</course><type>1</type></trkpt>
      <trkpt lat="38.48203637" lon="-1.9736193"><ele>1387</ele><speed>11.78</speed><time>2016-06-02T14:58:49Z</time><pdop>10.0</pdop><geoidheight>50.00</geoidheight><course>109.8</course><type>1</type></trkpt>
      <trkpt lat="38.48195736" lon="-1.97329301"><ele>1386</ele><speed>14.10</speed><time>2016-06-02T14:58:51Z</time><pdop>10.0</pdop><geoidheight>50.00</geoidheight><course>106.8</course><type>1</type></trkpt>
      <trkpt lat="38.48185545" lon="-1.97301839"><ele>1382</ele><speed>13.18</speed><time>2016-06-02T14:58:53Z</time><pdop>10.0</pdop><geoidheight>50.00</geoidheight><course>112.3</course><type>1</type></trkpt>
      <trkpt lat="38.48175386" lon="-1.9727475"><ele>1380</ele><speed>13.26</speed><time>2016-06-02T14:58:55Z</time><pdop>11.0</pdop><geoidheight>50.00</geoidheight><course>113.3</course><type>1</type></trkpt>
      <trkpt lat="38.48169719" lon="-1.97238592"><ele>1378</ele><speed>15.69</speed><time>2016-06-02T14:58:57Z</time><pdop>11.0</pdop><geoidheight>50.00</geoidheight><course>105.7</course><type>1</type></trkpt>
      <trkpt lat="38.48159545" lon="-1.97207277"><ele>1375</ele><speed>15.70</speed><time>2016-06-02T14:58:59Z</time><pdop>11.0</pdop><geoidheight>50.00</geoidheight><course>109.5</course><type>1</type></trkpt>
      <trkpt lat="38.48151022" lon="-1.97178784"><ele>1372</ele><speed>13.43</speed><time>2016-06-02T14:59:01Z</time><pdop>11.0</pdop><geoidheight>50.00</geoidheight><course>109.5</course><type>1</type></trkpt>
      <trkpt lat="38.48142152" lon="-1.971439"><ele>1363</ele><speed>12.54</speed><time>2016-06-02T14:59:04Z</time><pdop>11.0</pdop><geoidheight>50.00</geoidheight><course>102.5</course><type>1</type></trkpt>
      <trkpt lat="38.48137002" lon="-1.97114345"><ele>1360</ele><speed>13.58</speed><time>2016-06-02T14:59:06Z</time><pdop>10.0</pdop><geoidheight>50.00</geoidheight><course>103.7</course><type>1</type></trkpt>
      <trkpt lat="38.48130423" lon="-1.97083517"><ele>1360</ele><speed>14.03</speed><time>2016-06-02T14:59:08Z</time><pdop>10.0</pdop><geoidheight>50.00</geoidheight><course>103.1</course><type>1</type></trkpt>
      <trkpt lat="38.48123529" lon="-1.97060298"><ele>1352</ele><speed>12.40</speed><time>2016-06-02T14:59:10Z</time><pdop>10.0</pdop><geoidheight>50.00</geoidheight><course>106.1</course><type>1</type></trkpt>
      <trkpt lat="38.48119708" lon="-1.97033253"><ele>1350</ele><speed>12.41</speed><time>2016-06-02T14:59:12Z</time><pdop>10.0</pdop><geoidheight>50.00</geoidheight><course>99.8</course><type>1</type></trkpt>
      <trkpt lat="38.48113711" lon="-1.97003088"><ele>1347</ele><speed>13.58</speed><time>2016-06-02T14:59:14Z</time><pdop>10.0</pdop><geoidheight>50.00</geoidheight><course>104.5</course><type>1</type></trkpt>
      <trkpt lat="38.48107944" lon="-1.96976374"><ele>1341</ele><speed>13.48</speed><time>2016-06-02T14:59:16Z</time><pdop>10.0</pdop><geoidheight>50.00</geoidheight><course>102.7</course><type>1</type></trkpt>
      <trkpt lat="38.4810183" lon="-1.96947115"><ele>1339</ele><speed>12.94</speed><time>2016-06-02T14:59:18Z</time><pdop>10.0</pdop><geoidheight>50.00</geoidheight><course>105.9</course><type>1</type></trkpt>
      <trkpt lat="38.48095508" lon="-1.96923776"><ele>1332</ele><speed>11.34</speed><time>2016-06-02T14:59:20Z</time><pdop>10.0</pdop><geoidheight>50.00</geoidheight><course>106.9</course><type>1</type></trkpt>
      <trkpt lat="38.48091415" lon="-1.96898147"><ele>1329</ele><speed>11.89</speed><time>2016-06-02T14:59:22Z</time><pdop>10.0</pdop><geoidheight>50.00</geoidheight><course>99.0</course><type>1</type></trkpt>
      <trkpt lat="38.48086577" lon="-1.96869833"><ele>1326</ele><speed>12.87</speed><time>2016-06-02T14:59:24Z</time><pdop>10.0</pdop><geoidheight>50.00</geoidheight><course>100.4</course><type>1</type></trkpt>
      <trkpt lat="38.48079896" lon="-1.968416"><ele>1325</ele><speed>12.83</speed><time>2016-06-02T14:59:26Z</time><pdop>10.0</pdop><geoidheight>50.00</geoidheight><course>106.8</course><type>1</type></trkpt>
      <trkpt lat="38.48074974" lon="-1.96816224"><ele>1323</ele><speed>11.64</speed><time>2016-06-02T14:59:28Z</time><pdop>10.0</pdop><geoidheight>50.00</geoidheight><course>107.9</course><type>1</type></trkpt>
      <trkpt lat="38.48069347" lon="-1.96792743"><ele>1321</ele><speed>10.91</speed><time>2016-06-02T14:59:30Z</time><pdop>10.0</pdop><geoidheight>50.00</geoidheight><course>106.0</course><type>1</type></trkpt>
      <trkpt lat="38.48064902" lon="-1.96764981"><ele>1317</ele><speed>12.46</speed><time>2016-06-02T14:59:32Z</time><pdop>10.0</pdop><geoidheight>50.00</geoidheight><course>98.1</course><type>1</type></trkpt>
      <trkpt lat="38.48057484" lon="-1.96738289"><ele>1312</ele><speed>13.19</speed><time>2016-06-02T14:59:34Z</time><pdop>10.0</pdop><geoidheight>50.00</geoidheight><course>106.5</course><type>1</type></trkpt>
      <trkpt lat="38.48048787" lon="-1.96711385"><ele>1307</ele><speed>12.94</speed><time>2016-06-02T14:59:36Z</time><pdop>10.0</pdop><geoidheight>50.00</geoidheight><course>108.9</course><type>1</type></trkpt>
      <trkpt lat="38.48040627" lon="-1.96687949"><ele>1301</ele><speed>11.64</speed><time>2016-06-02T14:59:38Z</time><pdop>10.0</pdop><geoidheight>50.00</geoidheight><course>111.9</course><type>1</type></trkpt>
      <trkpt lat="38.48031997" lon="-1.96664301"><ele>1298</ele><speed>12.05</speed><time>2016-06-02T14:59:40Z</time><pdop>10.0</pdop><geoidheight>50.00</geoidheight><course>113.2</course><type>1</type></trkpt>
      <trkpt lat="38.48022021" lon="-1.9664295"><ele>1292</ele><speed>11.81</speed><time>2016-06-02T14:59:42Z</time><pdop>10.0</pdop><geoidheight>50.00</geoidheight><course>109.6</course><type>1</type></trkpt>
      <trkpt lat="38.48011358" lon="-1.96618791"><ele>1283</ele><speed>8.20</speed><time>2016-06-02T14:59:45Z</time><pdop>10.0</pdop><geoidheight>50.00</geoidheight><course>104.6</course><type>1</type></trkpt>
      <trkpt lat="38.48006268" lon="-1.96598029"><ele>1275</ele><speed>6.97</speed><time>2016-06-02T14:59:48Z</time><pdop>4.0</pdop><geoidheight>50.00</geoidheight><course>93.8</course><type>1</type></trkpt>
      <trkpt lat="38.48004688" lon="-1.96580306"><ele>1269</ele><speed>8.33</speed><time>2016-06-02T14:59:50Z</time><pdop>4.0</pdop><geoidheight>50.00</geoidheight><course>94.8</course><type>1</type></trkpt>
      <trkpt lat="38.48004433" lon="-1.96567112"><ele>1267</ele><speed>10.81</speed><time>2016-06-02T14:59:51Z</time><pdop>4.0</pdop><geoidheight>50.00</geoidheight><course>92.1</course><type>1</type></trkpt>
      <trkpt lat="38.48001387" lon="-1.96556494"><ele>1264</ele><speed>10.87</speed><time>2016-06-02T14:59:52Z</time><pdop>4.0</pdop><geoidheight>50.00</geoidheight><course>103.0</course><type>1</type></trkpt>
      <trkpt lat="38.47998592" lon="-1.96545625"><ele>1262</ele><speed>10.19</speed><time>2016-06-02T14:59:53Z</time><pdop>5.0</pdop><geoidheight>50.00</geoidheight><course>106.2</course><type>1</type></trkpt>
      <trkpt lat="38.47995344" lon="-1.96526033"><ele>1260</ele><speed>8.63</speed><time>2016-06-02T14:59:55Z</time><pdop>5.0</pdop><geoidheight>50.00</geoidheight><course>99.6</course><type>1</type></trkpt>
      <trkpt lat="38.47994497" lon="-1.96505926"><ele>1257</ele><speed>8.32</speed><time>2016-06-02T14:59:57Z</time><pdop>5.0</pdop><geoidheight>50.00</geoidheight><course>93.9</course><type>1</type></trkpt>
      <trkpt lat="38.47990995" lon="-1.96484775"><ele>1258</ele><speed>9.41</speed><time>2016-06-02T14:59:59Z</time><pdop>5.0</pdop><geoidheight>50.00</geoidheight><course>100.4</course><type>1</type></trkpt>
      <trkpt lat="38.47987145" lon="-1.96467964"><ele>1252</ele><speed>8.05</speed><time>2016-06-02T15:00:01Z</time><pdop>5.0</pdop><geoidheight>50.00</geoidheight><course>102.1</course><type>1</type></trkpt>
      <trkpt lat="38.47980401" lon="-1.96457591"><ele>1244</ele><speed>6.25</speed><time>2016-06-02T15:00:03Z</time><pdop>5.0</pdop><geoidheight>50.00</geoidheight><course>111.1</course><type>1</type></trkpt>
      <trkpt lat="38.47977917" lon="-1.96443414"><ele>1241</ele><speed>6.95</speed><time>2016-06-02T15:00:05Z</time><pdop>5.0</pdop><geoidheight>50.00</geoidheight><course>104.6</course><type>1</type></trkpt>
      <trkpt lat="38.4797486" lon="-1.96425989"><ele>1240</ele><speed>8.29</speed><time>2016-06-02T15:00:07Z</time><pdop>6.0</pdop><geoidheight>50.00</geoidheight><course>104.6</course><type>1</type></trkpt>
      <trkpt lat="38.47968809" lon="-1.96408843"><ele>1237</ele><speed>8.29</speed><time>2016-06-02T15:00:09Z</time><pdop>7.0</pdop><geoidheight>50.00</geoidheight><course>110.4</course><type>1</type></trkpt>
      <trkpt lat="38.47952549" lon="-1.96401683"><ele>1211</ele><speed>8.51</speed><time>2016-06-02T15:00:12Z</time><pdop>6.0</pdop><geoidheight>50.00</geoidheight><course>139.2</course><type>1</type></trkpt>
      <trkpt lat="38.47942321" lon="-1.96394679"><ele>1193</ele><speed>9.05</speed><time>2016-06-02T15:00:14Z</time><pdop>6.0</pdop><geoidheight>50.00</geoidheight><course>133.6</course><type>1</type></trkpt>
      <trkpt lat="38.47933275" lon="-1.96381216"><ele>1179</ele><speed>9.92</speed><time>2016-06-02T15:00:16Z</time><pdop>6.0</pdop><geoidheight>50.00</geoidheight><course>127.9</course><type>1</type></trkpt>
      <trkpt lat="38.47928337" lon="-1.96366023"><ele>1167</ele><speed>9.89</speed><time>2016-06-02T15:00:18Z</time><pdop>6.0</pdop><geoidheight>50.00</geoidheight><course>112.3</course><type>1</type></trkpt>
      <trkpt lat="38.47918226" lon="-1.96354336"><ele>1149</ele><speed>10.56</speed><time>2016-06-02T15:00:20Z</time><pdop>7.0</pdop><geoidheight>50.00</geoidheight><course>128.6</course><type>1</type></trkpt>
      <trkpt lat="38.47902362" lon="-1.96341312"><ele>1133</ele><speed>11.34</speed><time>2016-06-02T15:00:22Z</time><pdop>6.0</pdop><geoidheight>50.00</geoidheight><course>136.5</course><type>1</type></trkpt>
      <trkpt lat="38.47893709" lon="-1.96326546"><ele>1122</ele><speed>9.19</speed><time>2016-06-02T15:00:24Z</time><pdop>7.0</pdop><geoidheight>50.00</geoidheight><course>121.1</course><type>1</type></trkpt>
      <trkpt lat="38.47890841" lon="-1.96308061"><ele>1114</ele><speed>8.54</speed><time>2016-06-02T15:00:26Z</time><pdop>7.0</pdop><geoidheight>50.00</geoidheight><course>108.2</course><type>1</type></trkpt>
      <trkpt lat="38.47883392" lon="-1.96289034"><ele>1103</ele><speed>10.64</speed><time>2016-06-02T15:00:28Z</time><pdop>8.0</pdop><geoidheight>50.00</geoidheight><course>112.8</course><type>1</type></trkpt>
      <trkpt lat="38.47872945" lon="-1.96271109"><ele>1089</ele><speed>11.64</speed><time>2016-06-02T15:00:30Z</time><pdop>9.0</pdop><geoidheight>50.00</geoidheight><course>123.3</course><type>1</type></trkpt>
      <trkpt lat="38.47863842" lon="-1.96253731"><ele>1092</ele><speed>9.69</speed><time>2016-06-02T15:00:32Z</time><pdop>9.0</pdop><geoidheight>50.00</geoidheight><course>128.5</course><type>1</type></trkpt>
      <trkpt lat="38.47852446" lon="-1.96236849"><ele>1092</ele><speed>8.94</speed><time>2016-06-02T15:00:34Z</time><pdop>9.0</pdop><geoidheight>50.00</geoidheight><course>125.0</course><type>1</type></trkpt>
      <trkpt lat="38.47849494" lon="-1.96215747"><ele>1087</ele><speed>9.53</speed><time>2016-06-02T15:00:36Z</time><pdop>9.0</pdop><geoidheight>50.00</geoidheight><course>102.6</course><type>1</type></trkpt>
      <trkpt lat="38.4784228" lon="-1.9619006"><ele>1085</ele><speed>11.82</speed><time>2016-06-02T15:00:38Z</time><pdop>9.0</pdop><geoidheight>50.00</geoidheight><course>111.8</course><type>1</type></trkpt>
      <trkpt lat="38.47833367" lon="-1.96168126"><ele>1078</ele><speed>11.08</speed><time>2016-06-02T15:00:40Z</time><pdop>8.0</pdop><geoidheight>50.00</geoidheight><course>108.9</course><type>1</type></trkpt>
      <trkpt lat="38.47827569" lon="-1.96146062"><ele>1075</ele><speed>9.62</speed><time>2016-06-02T15:00:42Z</time><pdop>8.0</pdop><geoidheight>50.00</geoidheight><course>102.0</course><type>1</type></trkpt>
      <trkpt lat="38.47821001" lon="-1.96126076"><ele>1072</ele><speed>9.88</speed><time>2016-06-02T15:00:44Z</time><pdop>8.0</pdop><geoidheight>50.00</geoidheight><course>107.7</course><type>1</type></trkpt>
      <trkpt lat="38.4781748" lon="-1.96099966"><ele>1071</ele><speed>11.52</speed><time>2016-06-02T15:00:46Z</time><pdop>9.0</pdop><geoidheight>50.00</geoidheight><course>101.0</course><type>1</type></trkpt>
      <trkpt lat="38.47814638" lon="-1.96070399"><ele>1069</ele><speed>12.09</speed><time>2016-06-02T15:00:48Z</time><pdop>7.0</pdop><geoidheight>50.00</geoidheight><course>93.8</course><type>1</type></trkpt>
      <trkpt lat="38.47810488" lon="-1.96047837"><ele>1064</ele><speed>9.84</speed><time>2016-06-02T15:00:50Z</time><pdop>7.0</pdop><geoidheight>50.00</geoidheight><course>100.2</course><type>1</type></trkpt>
      <trkpt lat="38.47806241" lon="-1.96026124"><ele>1061</ele><speed>9.35</speed><time>2016-06-02T15:00:52Z</time><pdop>8.0</pdop><geoidheight>50.00</geoidheight><course>103.2</course><type>1</type></trkpt>
      <trkpt lat="38.47796474" lon="-1.95994281"><ele>1060</ele><speed>10.31</speed><time>2016-06-02T15:00:55Z</time><pdop>10.0</pdop><geoidheight>50.00</geoidheight><course>114.0</course><type>1</type></trkpt>
      <trkpt lat="38.47784501" lon="-1.95973579"><ele>1056</ele><speed>6.56</speed><time>2016-06-02T15:00:58Z</time><pdop>11.0</pdop><geoidheight>50.00</geoidheight><course>128.4</course><type>1</type></trkpt>
      <trkpt lat="38.47776254" lon="-1.95950349"><ele>1062</ele><speed>4.07</speed><time>2016-06-02T15:01:05Z</time><pdop>11.0</pdop><geoidheight>50.00</geoidheight><course>62.4</course><type>1</type></trkpt>
      <trkpt lat="38.47794791" lon="-1.95930339"><ele>1059</ele><speed>9.20</speed><time>2016-06-02T15:01:08Z</time><pdop>10.0</pdop><geoidheight>50.00</geoidheight><course>39.3</course><type>1</type></trkpt>
      <trkpt lat="38.47807169" lon="-1.95912363"><ele>1058</ele><speed>6.45</speed><time>2016-06-02T15:01:11Z</time><pdop>10.0</pdop><geoidheight>50.00</geoidheight><course>50.7</course><type>1</type></trkpt>
      <trkpt lat="38.47791407" lon="-1.95887971"><ele>1050</ele><speed>6.06</speed><time>2016-06-02T15:01:17Z</time><pdop>10.0</pdop><geoidheight>50.00</geoidheight><course>130.1</course><type>1</type></trkpt>
      <trkpt lat="38.4778053" lon="-1.95869689"><ele>1050</ele><speed>2.85</speed><time>2016-06-02T15:01:22Z</time><pdop>10.0</pdop><geoidheight>50.00</geoidheight><course>116.9</course><type>1</type></trkpt>
      <trkpt lat="38.4776322" lon="-1.95853833"><ele>1050</ele><speed>5.64</speed><time>2016-06-02T15:01:27Z</time><pdop>10.0</pdop><geoidheight>50.00</geoidheight><course>165.1</course><type>1</type></trkpt>
      <trkpt lat="38.4774256" lon="-1.95843466"><ele>1050</ele><speed>5.58</speed><time>2016-06-02T15:01:32Z</time><pdop>12.0</pdop><geoidheight>50.00</geoidheight><course>142.9</course><type>1</type></trkpt>
      <trkpt lat="38.47721973" lon="-1.95824935"><ele>1040</ele><speed>7.67</speed><time>2016-06-02T15:01:36Z</time><pdop>12.0</pdop><geoidheight>50.00</geoidheight><course>137.6</course><type>1</type></trkpt>
      <trkpt lat="38.47701978" lon="-1.95801732"><ele>1039</ele><speed>6.60</speed><time>2016-06-02T15:01:40Z</time><pdop>12.0</pdop><geoidheight>50.00</geoidheight><course>134.4</course><type>1</type></trkpt>
      <trkpt lat="38.47682363" lon="-1.95780699"><ele>1035</ele><speed>5.40</speed><time>2016-06-02T15:01:45Z</time><pdop>11.0</pdop><geoidheight>50.00</geoidheight><course>134.7</course><type>1</type></trkpt>
      <trkpt lat="38.47665965" lon="-1.95755565"><ele>1028</ele><speed>7.30</speed><time>2016-06-02T15:01:49Z</time><pdop>11.0</pdop><geoidheight>50.00</geoidheight><course>131.7</course><type>1</type></trkpt>
      <trkpt lat="38.47652972" lon="-1.95729909"><ele>1025</ele><speed>6.67</speed><time>2016-06-02T15:01:53Z</time><pdop>11.0</pdop><geoidheight>50.00</geoidheight><course>112.4</course><type>1</type></trkpt>
      <trkpt lat="38.47642948" lon="-1.95707933"><ele>1023</ele><speed>7.36</speed><time>2016-06-02T15:01:56Z</time><pdop>11.0</pdop><geoidheight>50.00</geoidheight><course>117.2</course><type>1</type></trkpt>
      <trkpt lat="38.47633054" lon="-1.95684496"><ele>1017</ele><speed>5.97</speed><time>2016-06-02T15:02:00Z</time><pdop>10.0</pdop><geoidheight>50.00</geoidheight><course>125.3</course><type>1</type></trkpt>
      <trkpt lat="38.47617187" lon="-1.95668851"><ele>1010</ele><speed>7.24</speed><time>2016-06-02T15:02:03Z</time><pdop>10.0</pdop><geoidheight>50.00</geoidheight><course>131.5</course><type>1</type></trkpt>
      <trkpt lat="38.47603911" lon="-1.95652347"><ele>1003</ele><speed>6.99</speed><time>2016-06-02T15:02:06Z</time><pdop>10.0</pdop><geoidheight>50.00</geoidheight><course>128.0</course><type>1</type></trkpt>
      <trkpt lat="38.47591516" lon="-1.95635308"><ele>998</ele><speed>7.06</speed><time>2016-06-02T15:02:09Z</time><pdop>10.0</pdop><geoidheight>50.00</geoidheight><course>131.6</course><type>1</type></trkpt>
      <trkpt lat="38.47579125" lon="-1.95615508"><ele>994</ele><speed>7.71</speed><time>2016-06-02T15:02:12Z</time><pdop>10.0</pdop><geoidheight>50.00</geoidheight><course>122.4</course><type>1</type></trkpt>
      <trkpt lat="38.47567155" lon="-1.95598426"><ele>990</ele><speed>7.17</speed><time>2016-06-02T15:02:15Z</time><pdop>9.0</pdop><geoidheight>50.00</geoidheight><course>134.5</course><type>1</type></trkpt>
      <trkpt lat="38.47555682" lon="-1.95583302"><ele>981</ele><speed>6.31</speed><time>2016-06-02T15:02:18Z</time><pdop>9.0</pdop><geoidheight>50.00</geoidheight><course>126.4</course><type>1</type></trkpt>
      <trkpt lat="38.47543338" lon="-1.95563638"><ele>976</ele><speed>7.42</speed><time>2016-06-02T15:02:21Z</time><pdop>9.0</pdop><geoidheight>50.00</geoidheight><course>128.4</course><type>1</type></trkpt>
      <trkpt lat="38.47532248" lon="-1.95545605"><ele>973</ele><speed>6.09</speed><time>2016-06-02T15:02:24Z</time><pdop>10.0</pdop><geoidheight>50.00</geoidheight><course>130.4</course><type>1</type></trkpt>
      <trkpt lat="38.47518217" lon="-1.95527955"><ele>970</ele><speed>7.43</speed><time>2016-06-02T15:02:27Z</time><pdop>10.0</pdop><geoidheight>50.00</geoidheight><course>130.7</course><type>1</type></trkpt>
      <trkpt lat="38.47502861" lon="-1.95505095"><ele>964</ele><speed>6.42</speed><time>2016-06-02T15:02:31Z</time><pdop>10.0</pdop><geoidheight>50.00</geoidheight><course>127.8</course><type>1</type></trkpt>
      <trkpt lat="38.47489006" lon="-1.95484566"><ele>959</ele><speed>8.88</speed><time>2016-06-02T15:02:34Z</time><pdop>10.0</pdop><geoidheight>50.00</geoidheight><course>130.4</course><type>1</type></trkpt>
      <trkpt lat="38.47475828" lon="-1.95461887"><ele>960</ele><speed>6.73</speed><time>2016-06-02T15:02:37Z</time><pdop>10.0</pdop><geoidheight>50.00</geoidheight><course>127.5</course><type>1</type></trkpt>
      <trkpt lat="38.47460658" lon="-1.95443105"><ele>953</ele><speed>6.55</speed><time>2016-06-02T15:02:41Z</time><pdop>12.0</pdop><geoidheight>50.00</geoidheight><course>126.4</course><type>1</type></trkpt>
      <trkpt lat="38.47435497" lon="-1.9542655"><ele>945</ele><speed>9.16</speed><time>2016-06-02T15:02:44Z</time><pdop>11.0</pdop><geoidheight>50.00</geoidheight><course>143.3</course><type>1</type></trkpt>
      <trkpt lat="38.47419499" lon="-1.95410479"><ele>946</ele><speed>6.71</speed><time>2016-06-02T15:02:47Z</time><pdop>11.0</pdop><geoidheight>50.00</geoidheight><course>151.6</course><type>1</type></trkpt>
      <trkpt lat="38.47398327" lon="-1.9540923"><ele>950</ele><speed>3.70</speed><time>2016-06-02T15:02:53Z</time><pdop>10.0</pdop><geoidheight>50.00</geoidheight><course>234.0</course><type>1</type></trkpt>
      <trkpt lat="38.47382002" lon="-1.95431402"><ele>954</ele><speed>5.35</speed><time>2016-06-02T15:02:58Z</time><pdop>13.0</pdop><geoidheight>50.00</geoidheight><course>227.0</course><type>1</type></trkpt>
      <trkpt lat="38.47361086" lon="-1.95420705"><ele>950</ele><speed>4.03</speed><time>2016-06-02T15:03:06Z</time><pdop>11.0</pdop><geoidheight>50.00</geoidheight><course>144.5</course><type>1</type></trkpt>
      <trkpt lat="38.47338131" lon="-1.95416398"><ele>940</ele><speed>7.62</speed><time>2016-06-02T15:03:09Z</time><pdop>11.0</pdop><geoidheight>50.00</geoidheight><course>163.4</course><type>1</type></trkpt>
      <trkpt lat="38.4731932" lon="-1.95404704"><ele>942</ele><speed>4.32</speed><time>2016-06-02T15:03:13Z</time><pdop>11.0</pdop><geoidheight>50.00</geoidheight><course>162.1</course><type>1</type></trkpt>
      <trkpt lat="38.47298134" lon="-1.95395542"><ele>930</ele><speed>5.08</speed><time>2016-06-02T15:03:21Z</time><pdop>10.0</pdop><geoidheight>50.00</geoidheight><course>150.2</course><type>1</type></trkpt>
      <trkpt lat="38.47278997" lon="-1.95383469"><ele>930</ele><speed>4.12</speed><time>2016-06-02T15:03:26Z</time><pdop>13.0</pdop><geoidheight>50.00</geoidheight><course>151.4</course><type>1</type></trkpt>
      <trkpt lat="38.4725376" lon="-1.953723"><ele>922</ele><speed>5.82</speed><time>2016-06-02T15:03:31Z</time><pdop>11.0</pdop><geoidheight>50.00</geoidheight><course>171.0</course><type>1</type></trkpt>
      <trkpt lat="38.47229505" lon="-1.95366783"><ele>908</ele><speed>6.88</speed><time>2016-06-02T15:03:36Z</time><pdop>11.0</pdop><geoidheight>50.00</geoidheight><course>163.8</course><type>1</type></trkpt>
      <trkpt lat="38.47209915" lon="-1.95361343"><ele>902</ele><speed>4.58</speed><time>2016-06-02T15:03:40Z</time><pdop>11.0</pdop><geoidheight>50.00</geoidheight><course>157.5</course><type>1</type></trkpt>
      <trkpt lat="38.47188671" lon="-1.95349846"><ele>896</ele><speed>6.03</speed><time>2016-06-02T15:03:45Z</time><pdop>12.0</pdop><geoidheight>50.00</geoidheight><course>155.0</course><type>1</type></trkpt>
      <trkpt lat="38.47163404" lon="-1.95345285"><ele>883</ele><speed>7.59</speed><time>2016-06-02T15:03:49Z</time><pdop>12.0</pdop><geoidheight>50.00</geoidheight><course>158.1</course><type>1</type></trkpt>
      <trkpt lat="38.4714267" lon="-1.95329831"><ele>872</ele><speed>7.67</speed><time>2016-06-02T15:03:53Z</time><pdop>12.0</pdop><geoidheight>50.00</geoidheight><course>153.2</course><type>1</type></trkpt>
      <trkpt lat="38.47116606" lon="-1.95313396"><ele>866</ele><speed>8.04</speed><time>2016-06-02T15:03:57Z</time><pdop>17.0</pdop><geoidheight>50.00</geoidheight><course>154.0</course><type>1</type></trkpt>
      <trkpt lat="38.47083122" lon="-1.95314924"><ele>849</ele><speed>9.54</speed><time>2016-06-02T15:04:01Z</time><pdop>13.0</pdop><geoidheight>50.00</geoidheight><course>171.2</course><type>1</type></trkpt>
      <trkpt lat="38.47059985" lon="-1.95305806"><ele>846</ele><speed>7.16</speed><time>2016-06-02T15:04:04Z</time><pdop>13.0</pdop><geoidheight>50.00</geoidheight><course>160.7</course><type>1</type></trkpt>
      <trkpt lat="38.4703628" lon="-1.95293227"><ele>839</ele><speed>7.31</speed><time>2016-06-02T15:04:09Z</time><pdop>12.0</pdop><geoidheight>50.00</geoidheight><course>156.4</course><type>1</type></trkpt>
      <trkpt lat="38.47010184" lon="-1.95280046"><ele>835</ele><speed>7.84</speed><time>2016-06-02T15:04:13Z</time><pdop>12.0</pdop><geoidheight>50.00</geoidheight><course>159.9</course><type>1</type></trkpt>
      <trkpt lat="38.46990734" lon="-1.95273244"><ele>834</ele><speed>4.11</speed><time>2016-06-02T15:04:17Z</time><pdop>10.0</pdop><geoidheight>50.00</geoidheight><course>164.1</course><type>1</type></trkpt>
      <trkpt lat="38.46968975" lon="-1.9526036"><ele>829</ele><speed>8.69</speed><time>2016-06-02T15:04:21Z</time><pdop>12.0</pdop><geoidheight>50.00</geoidheight><course>153.0</course><type>1</type></trkpt>
      <trkpt lat="38.46943383" lon="-1.95250503"><ele>829</ele><speed>9.60</speed><time>2016-06-02T15:04:24Z</time><pdop>13.0</pdop><geoidheight>50.00</geoidheight><course>167.2</course><type>1</type></trkpt>
      <trkpt lat="38.46919806" lon="-1.95254344"><ele>825</ele><speed>7.71</speed><time>2016-06-02T15:04:32Z</time><pdop>12.0</pdop><geoidheight>50.00</geoidheight><course>131.6</course><type>1</type></trkpt>
      <trkpt lat="38.46902635" lon="-1.95236618"><ele>823</ele><speed>2.65</speed><time>2016-06-02T15:04:37Z</time><pdop>11.0</pdop><geoidheight>50.00</geoidheight><course>109.9</course><type>1</type></trkpt>
      <trkpt lat="38.4688888" lon="-1.95213259"><ele>817</ele><speed>6.06</speed><time>2016-06-02T15:04:42Z</time><pdop>10.0</pdop><geoidheight>50.00</geoidheight><course>140.0</course><type>1</type></trkpt>
      <trkpt lat="38.46870162" lon="-1.95209568"><ele>816</ele><speed>6.66</speed><time>2016-06-02T15:04:45Z</time><pdop>11.0</pdop><geoidheight>50.00</geoidheight><course>173.2</course><type>1</type></trkpt>
      <trkpt lat="38.46848791" lon="-1.95213486"><ele>814</ele><speed>5.87</speed><time>2016-06-02T15:04:49Z</time><pdop>11.0</pdop><geoidheight>50.00</geoidheight><course>190.2</course><type>1</type></trkpt>
      <trkpt lat="38.46821818" lon="-1.9521454"><ele>812</ele><speed>6.70</speed><time>2016-06-02T15:04:54Z</time><pdop>12.0</pdop><geoidheight>50.00</geoidheight><course>188.0</course><type>1</type></trkpt>
      <trkpt lat="38.46799322" lon="-1.95212302"><ele>811</ele><speed>4.29</speed><time>2016-06-02T15:05:00Z</time><pdop>12.0</pdop><geoidheight>50.00</geoidheight><course>163.8</course><type>1</type></trkpt>
      <trkpt lat="38.46777833" lon="-1.95198915"><ele>804</ele><speed>3.52</speed><time>2016-06-02T15:05:06Z</time><pdop>11.0</pdop><geoidheight>50.00</geoidheight><course>157.6</course><type>1</type></trkpt>
      <trkpt lat="38.4675449" lon="-1.9519254"><ele>800</ele><speed>4.44</speed><time>2016-06-02T15:05:13Z</time><pdop>11.0</pdop><geoidheight>50.00</geoidheight><course>168.5</course><type>1</type></trkpt>
      <trkpt lat="38.46733141" lon="-1.9517955"><ele>797</ele><speed>4.96</speed><time>2016-06-02T15:05:19Z</time><pdop>6.0</pdop><geoidheight>50.00</geoidheight><course>159.3</course><type>1</type></trkpt>
      <trkpt lat="38.46718543" lon="-1.95178222"><ele>797</ele><speed>5.52</speed><time>2016-06-02T15:05:22Z</time><pdop>8.0</pdop><geoidheight>50.00</geoidheight><course>180.5</course><type>1</type></trkpt>
      <trkpt lat="38.46701147" lon="-1.951705"><ele>797</ele><speed>4.72</speed><time>2016-06-02T15:05:26Z</time><pdop>8.0</pdop><geoidheight>50.00</geoidheight><course>143.7</course><type>1</type></trkpt>
      <trkpt lat="38.4669494" lon="-1.95153896"><ele>799</ele><speed>4.03</speed><time>2016-06-02T15:05:30Z</time><pdop>7.0</pdop><geoidheight>50.00</geoidheight><course>105.6</course><type>1</type></trkpt>
      <trkpt lat="38.46691322" lon="-1.95137309"><ele>799</ele><speed>1.38</speed><time>2016-06-02T15:05:35Z</time><pdop>8.0</pdop><geoidheight>50.00</geoidheight><course>95.6</course><type>1</type></trkpt>
      <trkpt lat="38.46679597" lon="-1.95118004"><ele>797</ele><speed>4.82</speed><time>2016-06-02T15:05:54Z</time><pdop>8.0</pdop><geoidheight>50.00</geoidheight><course>118.3</course><type>1</type></trkpt>
      <trkpt lat="38.46664173" lon="-1.95107571"><ele>791</ele><speed>3.05</speed><time>2016-06-02T15:05:59Z</time><pdop>10.0</pdop><geoidheight>50.00</geoidheight><course>159.2</course><type>1</type></trkpt>
      <trkpt lat="38.46648284" lon="-1.95087925"><ele>785</ele><speed>4.97</speed><time>2016-06-02T15:06:06Z</time><pdop>13.0</pdop><geoidheight>50.00</geoidheight><course>140.2</course><type>1</type></trkpt>
      <trkpt lat="38.46626977" lon="-1.95070313"><ele>780</ele><speed>7.38</speed><time>2016-06-02T15:06:10Z</time><pdop>15.0</pdop><geoidheight>50.00</geoidheight><course>155.1</course><type>1</type></trkpt>
      <trkpt lat="38.46596351" lon="-1.95077881"><ele>773</ele><speed>9.32</speed><time>2016-06-02T15:06:14Z</time><pdop>10.0</pdop><geoidheight>50.00</geoidheight><course>184.7</course><type>1</type></trkpt>
      <trkpt lat="38.46575958" lon="-1.95089121"><ele>759</ele><speed>8.12</speed><time>2016-06-02T15:06:16Z</time><pdop>8.0</pdop><geoidheight>50.00</geoidheight><course>185.2</course><type>1</type></trkpt>
      <trkpt lat="38.46559989" lon="-1.95088477"><ele>756</ele><speed>8.34</speed><time>2016-06-02T15:06:18Z</time><pdop>9.0</pdop><geoidheight>50.00</geoidheight><course>178.6</course><type>1</type></trkpt>
      <trkpt lat="38.46543287" lon="-1.95088824"><ele>752</ele><speed>9.06</speed><time>2016-06-02T15:06:20Z</time><pdop>7.0</pdop><geoidheight>50.00</geoidheight><course>175.3</course><type>1</type></trkpt>
      <trkpt lat="38.46528471" lon="-1.95085455"><ele>750</ele><speed>4.18</speed><time>2016-06-02T15:06:23Z</time><pdop>7.0</pdop><geoidheight>50.00</geoidheight><course>159.1</course><type>1</type></trkpt>
      <trkpt lat="38.4651249" lon="-1.95089202"><ele>746</ele><speed>5.32</speed><time>2016-06-02T15:06:27Z</time><pdop>10.0</pdop><geoidheight>50.00</geoidheight><course>192.6</course><type>1</type></trkpt>
      <trkpt lat="38.46494556" lon="-1.9509362"><ele>738</ele><speed>3.83</speed><time>2016-06-02T15:06:31Z</time><pdop>7.0</pdop><geoidheight>50.00</geoidheight><course>203.0</course><type>1</type></trkpt>
      <trkpt lat="38.46484086" lon="-1.9510264"><ele>735</ele><speed>4.66</speed><time>2016-06-02T15:06:34Z</time><pdop>6.0</pdop><geoidheight>50.00</geoidheight><course>214.5</course><type>1</type></trkpt>
      <trkpt lat="38.46473936" lon="-1.95106738"><ele>731</ele><speed>2.12</speed><time>2016-06-02T15:06:38Z</time><pdop>5.0</pdop><geoidheight>50.00</geoidheight><course>183.3</course><type>1</type></trkpt>
      <trkpt lat="38.46463981" lon="-1.951037"><ele>725</ele><speed>2.29</speed><time>2016-06-02T15:06:44Z</time><pdop>5.0</pdop><geoidheight>50.00</geoidheight><course>168.5</course><type>1</type></trkpt>
      <trkpt lat="38.46466227" lon="-1.95091657"><ele>717</ele><speed>3.65</speed><time>2016-06-02T15:06:53Z</time><pdop>5.0</pdop><geoidheight>50.00</geoidheight><course>87.9</course><type>1</type></trkpt>
      <trkpt lat="38.46458801" lon="-1.95084216"><ele>697</ele><speed>1.05</speed><time>2016-06-02T15:07:00Z</time><pdop>5.0</pdop><geoidheight>50.00</geoidheight><course>99.4</course><type>1</type></trkpt>
      <trkpt lat="38.46464545" lon="-1.95093675"><ele>683</ele><speed>0.00</speed><time>2016-06-02T15:08:00Z</time><pdop>11.0</pdop><geoidheight>50.00</geoidheight><course>0.0</course><type>1</type></trkpt>
      <trkpt lat="38.46454115" lon="-1.9507446"><ele>682</ele><speed>1.06</speed><time>2016-06-02T15:08:19Z</time><pdop>9.0</pdop><geoidheight>50.00</geoidheight><course>131.1</course><type>1</type></trkpt>
      <trkpt lat="38.46447586" lon="-1.95054475"><ele>683</ele><speed>0.99</speed><time>2016-06-02T15:08:39Z</time><pdop>9.0</pdop><geoidheight>50.00</geoidheight><course>113.6</course><type>1</type></trkpt>
      <trkpt lat="38.46436014" lon="-1.95039234"><ele>683</ele><speed>0.90</speed><time>2016-06-02T15:09:02Z</time><pdop>9.0</pdop><geoidheight>50.00</geoidheight><course>152.6</course><type>1</type></trkpt>
      <trkpt lat="38.46425425" lon="-1.95033495"><ele>683</ele><speed>0.71</speed><time>2016-06-02T15:09:16Z</time><pdop>3.0</pdop><geoidheight>50.00</geoidheight><course>157.5</course><type>1</type></trkpt>
      <trkpt lat="38.46420684" lon="-1.95029477"><ele>685</ele><speed>0.93</speed><time>2016-06-02T15:09:23Z</time><pdop>3.0</pdop><geoidheight>50.00</geoidheight><course>146.2</course><type>1</type></trkpt>
      <trkpt lat="38.46415865" lon="-1.95026264"><ele>685</ele><speed>0.97</speed><time>2016-06-02T15:09:29Z</time><pdop>3.0</pdop><geoidheight>50.00</geoidheight><course>149.8</course><type>1</type></trkpt>
      <trkpt lat="38.4641008" lon="-1.95022809"><ele>684</ele><speed>0.50</speed><time>2016-06-02T15:09:36Z</time><pdop>3.0</pdop><geoidheight>50.00</geoidheight><course>158.4</course><type>1</type></trkpt>
      <trkpt lat="38.46404244" lon="-1.95019677"><ele>687</ele><speed>0.70</speed><time>2016-06-02T15:09:50Z</time><pdop>3.0</pdop><geoidheight>50.00</geoidheight><course>159.4</course><type>1</type></trkpt>
      <trkpt lat="38.46398446" lon="-1.9501872"><ele>683</ele><speed>1.22</speed><time>2016-06-02T15:09:58Z</time><pdop>3.0</pdop><geoidheight>50.00</geoidheight><course>160.1</course><type>1</type></trkpt>
      <trkpt lat="38.46392638" lon="-1.95014446"><ele>686</ele><speed>1.03</speed><time>2016-06-02T15:10:08Z</time><pdop>4.0</pdop><geoidheight>50.00</geoidheight><course>130.5</course><type>1</type></trkpt>
      <trkpt lat="38.46386575" lon="-1.95008842"><ele>687</ele><speed>0.72</speed><time>2016-06-02T15:10:20Z</time><pdop>3.0</pdop><geoidheight>50.00</geoidheight><course>140.6</course><type>1</type></trkpt>
      <trkpt lat="38.46382253" lon="-1.95002492"><ele>689</ele><speed>0.80</speed><time>2016-06-02T15:10:32Z</time><pdop>4.0</pdop><geoidheight>50.00</geoidheight><course>140.7</course><type>1</type></trkpt>
      <trkpt lat="38.46377554" lon="-1.94995499"><ele>689</ele><speed>0.83</speed><time>2016-06-02T15:10:39Z</time><pdop>4.0</pdop><geoidheight>50.00</geoidheight><course>117.4</course><type>1</type></trkpt>
      <trkpt lat="38.46373745" lon="-1.94983069"><ele>687</ele><speed>1.25</speed><time>2016-06-02T15:10:50Z</time><pdop>6.0</pdop><geoidheight>50.00</geoidheight><course>102.4</course><type>1</type></trkpt>
      <trkpt lat="38.46374298" lon="-1.94980823"><ele>688</ele><speed>0.00</speed><time>2016-06-02T15:11:50Z</time><pdop>12.0</pdop><geoidheight>50.00</geoidheight><course>0.0</course><type>1</type></trkpt>
      <trkpt lat="38.4637442" lon="-1.94980726"><ele>688</ele><speed>0.00</speed><time>2016-06-02T15:12:50Z</time><pdop>10.0</pdop><geoidheight>50.00</geoidheight><course>0.0</course><type>1</type></trkpt>
      <trkpt lat="38.4637445" lon="-1.94980683"><ele>688</ele><speed>0.00</speed><time>2016-06-02T15:13:50Z</time><pdop>12.0</pdop><geoidheight>50.00</geoidheight><course>0.0</course><type>1</type></trkpt>
      <trkpt lat="38.46374441" lon="-1.94980668"><ele>688</ele><speed>0.00</speed><time>2016-06-02T15:14:50Z</time><pdop>10.0</pdop><geoidheight>50.00</geoidheight><course>0.0</course><type>1</type></trkpt>
      <trkpt lat="38.46374439" lon="-1.94980674"><ele>688</ele><speed>0.00</speed><time>2016-06-02T15:15:50Z</time><pdop>10.0</pdop><geoidheight>50.00</geoidheight><course>0.0</course><type>1</type></trkpt>
      <trkpt lat="38.46374419" lon="-1.94980678"><ele>688</ele><speed>0.00</speed><time>2016-06-02T15:16:50Z</time><pdop>11.0</pdop><geoidheight>50.00</geoidheight><course>0.0</course><type>1</type></trkpt>
    </trkseg>
  </trk>
</gpx>